<?xml version='1.0' encoding='UTF-8'?><gpx version="1.1" creator="JPX - https://github.com/jenetics/jpx" xmlns="http://www.topografix.com/GPX/1/1"><trk><trkseg><trkpt lat="43.5018332" lon="12.0822588"><ele>311.0</ele><time>2026-04-04T07:31:49.307Z</time></trkpt><trkpt lat="43.5017708" lon="12.0822754"><ele>311.0</ele><time>2026-04-04T07:31:51.308Z</time></trkpt><trkpt lat="43.5017087" lon="12.0823074"><ele>311.0</ele><time>2026-04-04T07:31:53.308Z</time></trkpt><trkpt lat="43.5016436" lon="12.0823565"><ele>311.0</ele><time>2026-04-04T07:31:56.308Z</time></trkpt><trkpt lat="43.5015811" lon="12.0823408"><ele>311.0</ele><time>2026-04-04T07:32:09.308Z</time></trkpt><trkpt lat="43.5015759" lon="12.0822168"><ele>311.0</ele><time>2026-04-04T07:32:12.308Z</time></trkpt><trkpt lat="43.5015524" lon="12.082108"><ele>311.0</ele><time>2026-04-04T07:32:14.308Z</time></trkpt><trkpt lat="43.5015445" lon="12.0820125"><ele>311.0</ele><time>2026-04-04T07:32:16.308Z</time></trkpt><trkpt lat="43.5015357" lon="12.0819207"><ele>311.0</ele><time>2026-04-04T07:32:18.308Z</time></trkpt><trkpt lat="43.5015136" lon="12.0818034"><ele>311.0</ele><time>2026-04-04T07:32:21.308Z</time></trkpt><trkpt lat="43.5015104" lon="12.0816968"><ele>311.0</ele><time>2026-04-04T07:32:25.308Z</time></trkpt><trkpt lat="43.5014949" lon="12.0816095"><ele>311.0</ele><time>2026-04-04T07:32:29.308Z</time></trkpt><trkpt lat="43.5014699" lon="12.0814949"><ele>311.0</ele><time>2026-04-04T07:32:32.309Z</time></trkpt><trkpt lat="43.5014575" lon="12.0813496"><ele>310.8</ele><time>2026-04-04T07:32:34.308Z</time></trkpt><trkpt lat="43.5014347" lon="12.0811818"><ele>310.6</ele><time>2026-04-04T07:32:36.308Z</time></trkpt><trkpt lat="43.5014222" lon="12.0810919"><ele>310.4</ele><time>2026-04-04T07:32:37.307Z</time></trkpt><trkpt lat="43.5014113" lon="12.0809989"><ele>310.2</ele><time>2026-04-04T07:32:38.308Z</time></trkpt><trkpt lat="43.5013902" lon="12.0808445"><ele>310.0</ele><time>2026-04-04T07:32:40.308Z</time></trkpt><trkpt lat="43.501349" lon="12.0807316"><ele>310.0</ele><time>2026-04-04T07:32:43.308Z</time></trkpt><trkpt lat="43.501295" lon="12.0806378"><ele>310.0</ele><time>2026-04-04T07:33:44.308Z</time></trkpt><trkpt lat="43.5012315" lon="12.0805198"><ele>310.0</ele><time>2026-04-04T07:33:46.308Z</time></trkpt><trkpt lat="43.50118" lon="12.0804416"><ele>310.0</ele><time>2026-04-04T07:33:47.308Z</time></trkpt><trkpt lat="43.5011199" lon="12.0803487"><ele>310.0</ele><time>2026-04-04T07:33:48.308Z</time></trkpt><trkpt lat="43.5010524" lon="12.0802423"><ele>310.5</ele><time>2026-04-04T07:33:49.308Z</time></trkpt><trkpt lat="43.5009664" lon="12.0801107"><ele>311.0</ele><time>2026-04-04T07:33:50.308Z</time></trkpt><trkpt lat="43.5008818" lon="12.0799634"><ele>311.5</ele><time>2026-04-04T07:33:51.308Z</time></trkpt><trkpt lat="43.5008071" lon="12.0798228"><ele>312.0</ele><time>2026-04-04T07:33:52.308Z</time></trkpt><trkpt lat="43.5007233" lon="12.0796687"><ele>312.0</ele><time>2026-04-04T07:33:53.308Z</time></trkpt><trkpt lat="43.5006361" lon="12.0795284"><ele>312.0</ele><time>2026-04-04T07:33:54.308Z</time></trkpt><trkpt lat="43.5005403" lon="12.0794151"><ele>312.0</ele><time>2026-04-04T07:33:55.308Z</time></trkpt><trkpt lat="43.500445" lon="12.0792967"><ele>312.0</ele><time>2026-04-04T07:33:56.307Z</time></trkpt><trkpt lat="43.5003818" lon="12.079225"><ele>312.4</ele><time>2026-04-04T07:33:57.308Z</time></trkpt><trkpt lat="43.5003177" lon="12.0791045"><ele>312.79999999999995</ele><time>2026-04-04T07:33:58.308Z</time></trkpt><trkpt lat="43.5002816" lon="12.0789445"><ele>313.2</ele><time>2026-04-04T07:33:59.307Z</time></trkpt><trkpt lat="43.50028" lon="12.0788437"><ele>313.59999999999997</ele><time>2026-04-04T07:34:00.308Z</time></trkpt><trkpt lat="43.5002393" lon="12.0787054"><ele>314.0</ele><time>2026-04-04T07:34:01.309Z</time></trkpt><trkpt lat="43.5002028" lon="12.0785818"><ele>314.0</ele><time>2026-04-04T07:34:02.308Z</time></trkpt><trkpt lat="43.5001778" lon="12.07849"><ele>314.0</ele><time>2026-04-04T07:34:03.309Z</time></trkpt><trkpt lat="43.5001596" lon="12.0783403"><ele>314.0</ele><time>2026-04-04T07:34:05.308Z</time></trkpt><trkpt lat="43.5001759" lon="12.0782372"><ele>314.0</ele><time>2026-04-04T07:34:07.308Z</time></trkpt><trkpt lat="43.5002128" lon="12.0781422"><ele>314.0</ele><time>2026-04-04T07:34:09.308Z</time></trkpt><trkpt lat="43.5002691" lon="12.0780414"><ele>314.0</ele><time>2026-04-04T07:34:11.308Z</time></trkpt><trkpt lat="43.5003327" lon="12.0778936"><ele>313.83333333333337</ele><time>2026-04-04T07:34:13.308Z</time></trkpt><trkpt lat="43.5003667" lon="12.0778046"><ele>313.6666666666667</ele><time>2026-04-04T07:34:14.308Z</time></trkpt><trkpt lat="43.5004053" lon="12.0777196"><ele>313.5</ele><time>2026-04-04T07:34:15.307Z</time></trkpt><trkpt lat="43.500445" lon="12.0776322"><ele>313.3333333333333</ele><time>2026-04-04T07:34:16.308Z</time></trkpt><trkpt lat="43.5004843" lon="12.0775287"><ele>313.16666666666663</ele><time>2026-04-04T07:34:17.307Z</time></trkpt><trkpt lat="43.5005208" lon="12.0774267"><ele>313.0</ele><time>2026-04-04T07:34:18.308Z</time></trkpt><trkpt lat="43.5005581" lon="12.0773125"><ele>313.75</ele><time>2026-04-04T07:34:19.308Z</time></trkpt><trkpt lat="43.5005955" lon="12.0771875"><ele>314.5</ele><time>2026-04-04T07:34:20.307Z</time></trkpt><trkpt lat="43.5006449" lon="12.0770449"><ele>315.25</ele><time>2026-04-04T07:34:21.308Z</time></trkpt><trkpt lat="43.5007014" lon="12.0768741"><ele>316.0</ele><time>2026-04-04T07:34:22.308Z</time></trkpt><trkpt lat="43.500767" lon="12.0766889"><ele>318.5</ele><time>2026-04-04T07:34:23.308Z</time></trkpt><trkpt lat="43.5008234" lon="12.0765085"><ele>321.0</ele><time>2026-04-04T07:34:24.308Z</time></trkpt><trkpt lat="43.500881" lon="12.0763553"><ele>323.5</ele><time>2026-04-04T07:34:25.308Z</time></trkpt><trkpt lat="43.5009355" lon="12.0762078"><ele>326.0</ele><time>2026-04-04T07:34:26.308Z</time></trkpt><trkpt lat="43.5009738" lon="12.0760505"><ele>326.0</ele><time>2026-04-04T07:34:27.308Z</time></trkpt><trkpt lat="43.5010119" lon="12.0759162"><ele>326.0</ele><time>2026-04-04T07:34:28.308Z</time></trkpt><trkpt lat="43.5010289" lon="12.0757904"><ele>326.0</ele><time>2026-04-04T07:34:29.308Z</time></trkpt><trkpt lat="43.5010237" lon="12.0756712"><ele>326.0</ele><time>2026-04-04T07:34:30.308Z</time></trkpt><trkpt lat="43.5009804" lon="12.0755484"><ele>326.0</ele><time>2026-04-04T07:34:31.308Z</time></trkpt><trkpt lat="43.5009553" lon="12.0754175"><ele>327.0</ele><time>2026-04-04T07:34:32.308Z</time></trkpt><trkpt lat="43.5009349" lon="12.0752847"><ele>328.0</ele><time>2026-04-04T07:34:33.308Z</time></trkpt><trkpt lat="43.5009136" lon="12.0751568"><ele>329.0</ele><time>2026-04-04T07:34:34.307Z</time></trkpt><trkpt lat="43.5009001" lon="12.0750256"><ele>330.0</ele><time>2026-04-04T07:34:35.307Z</time></trkpt><trkpt lat="43.5008944" lon="12.0748944"><ele>331.0</ele><time>2026-04-04T07:34:36.308Z</time></trkpt><trkpt lat="43.5008942" lon="12.0747639"><ele>331.5</ele><time>2026-04-04T07:34:37.308Z</time></trkpt><trkpt lat="43.5008985" lon="12.0746511"><ele>332.0</ele><time>2026-04-04T07:34:38.307Z</time></trkpt><trkpt lat="43.5009073" lon="12.0745447"><ele>332.5</ele><time>2026-04-04T07:34:39.308Z</time></trkpt><trkpt lat="43.500911" lon="12.0744271"><ele>333.0</ele><time>2026-04-04T07:34:40.307Z</time></trkpt><trkpt lat="43.5009223" lon="12.0742893"><ele>333.5</ele><time>2026-04-04T07:34:41.308Z</time></trkpt><trkpt lat="43.5009395" lon="12.0741566"><ele>334.0</ele><time>2026-04-04T07:34:42.308Z</time></trkpt><trkpt lat="43.5009716" lon="12.0740089"><ele>334.79999999999995</ele><time>2026-04-04T07:34:43.308Z</time></trkpt><trkpt lat="43.5009998" lon="12.0738597"><ele>335.59999999999997</ele><time>2026-04-04T07:34:44.308Z</time></trkpt><trkpt lat="43.5010203" lon="12.0737164"><ele>336.4</ele><time>2026-04-04T07:34:45.308Z</time></trkpt><trkpt lat="43.501044" lon="12.0735847"><ele>337.2</ele><time>2026-04-04T07:34:46.308Z</time></trkpt><trkpt lat="43.5010664" lon="12.0734572"><ele>338.0</ele><time>2026-04-04T07:34:47.308Z</time></trkpt><trkpt lat="43.5010916" lon="12.0733525"><ele>338.0</ele><time>2026-04-04T07:34:48.308Z</time></trkpt><trkpt lat="43.5011107" lon="12.0732594"><ele>338.0</ele><time>2026-04-04T07:34:49.308Z</time></trkpt><trkpt lat="43.5011318" lon="12.0731693"><ele>338.0</ele><time>2026-04-04T07:34:50.308Z</time></trkpt><trkpt lat="43.501149" lon="12.0730704"><ele>338.0</ele><time>2026-04-04T07:34:51.308Z</time></trkpt><trkpt lat="43.5011651" lon="12.0729717"><ele>338.0</ele><time>2026-04-04T07:34:52.308Z</time></trkpt><trkpt lat="43.5011823" lon="12.0728756"><ele>338.0</ele><time>2026-04-04T07:34:53.307Z</time></trkpt><trkpt lat="43.5011994" lon="12.0727811"><ele>338.0</ele><time>2026-04-04T07:34:54.307Z</time></trkpt><trkpt lat="43.5012165" lon="12.0726839"><ele>338.0</ele><time>2026-04-04T07:34:55.308Z</time></trkpt><trkpt lat="43.5012356" lon="12.0725899"><ele>338.0</ele><time>2026-04-04T07:34:56.308Z</time></trkpt><trkpt lat="43.5012635" lon="12.0724984"><ele>338.0</ele><time>2026-04-04T07:34:57.308Z</time></trkpt><trkpt lat="43.5012966" lon="12.0724154"><ele>338.0</ele><time>2026-04-04T07:34:58.308Z</time></trkpt><trkpt lat="43.5013262" lon="12.0723241"><ele>338.0</ele><time>2026-04-04T07:34:59.308Z</time></trkpt><trkpt lat="43.5013511" lon="12.0722231"><ele>338.0</ele><time>2026-04-04T07:35:00.308Z</time></trkpt><trkpt lat="43.5013621" lon="12.0720719"><ele>338.79999999999995</ele><time>2026-04-04T07:35:02.308Z</time></trkpt><trkpt lat="43.5013496" lon="12.0719052"><ele>339.6</ele><time>2026-04-04T07:35:04.308Z</time></trkpt><trkpt lat="43.5013806" lon="12.0717373"><ele>340.4</ele><time>2026-04-04T07:35:06.308Z</time></trkpt><trkpt lat="43.5014115" lon="12.0716352"><ele>341.20000000000005</ele><time>2026-04-04T07:35:07.308Z</time></trkpt><trkpt lat="43.5014508" lon="12.0715415"><ele>342.0</ele><time>2026-04-04T07:35:08.308Z</time></trkpt><trkpt lat="43.5014816" lon="12.0714136"><ele>343.1666666666667</ele><time>2026-04-04T07:35:09.308Z</time></trkpt><trkpt lat="43.5015035" lon="12.0713047"><ele>344.3333333333333</ele><time>2026-04-04T07:35:10.308Z</time></trkpt><trkpt lat="43.5014981" lon="12.0712013"><ele>345.5</ele><time>2026-04-04T07:35:11.309Z</time></trkpt><trkpt lat="43.5015095" lon="12.0710858"><ele>346.66666666666663</ele><time>2026-04-04T07:35:12.308Z</time></trkpt><trkpt lat="43.5015228" lon="12.0709783"><ele>347.8333333333333</ele><time>2026-04-04T07:35:13.308Z</time></trkpt><trkpt lat="43.5015473" lon="12.0708554"><ele>349.0</ele><time>2026-04-04T07:35:14.308Z</time></trkpt><trkpt lat="43.501582" lon="12.0707389"><ele>349.79999999999995</ele><time>2026-04-04T07:35:15.308Z</time></trkpt><trkpt lat="43.5016318" lon="12.0706328"><ele>350.59999999999997</ele><time>2026-04-04T07:35:16.308Z</time></trkpt><trkpt lat="43.5016946" lon="12.0705408"><ele>351.4</ele><time>2026-04-04T07:35:17.308Z</time></trkpt><trkpt lat="43.5017655" lon="12.0704533"><ele>352.2</ele><time>2026-04-04T07:35:18.308Z</time></trkpt><trkpt lat="43.5018325" lon="12.0703708"><ele>353.0</ele><time>2026-04-04T07:35:19.307Z</time></trkpt><trkpt lat="43.5018936" lon="12.0702904"><ele>353.0</ele><time>2026-04-04T07:35:20.307Z</time></trkpt><trkpt lat="43.501984" lon="12.0702179"><ele>353.0</ele><time>2026-04-04T07:35:22.308Z</time></trkpt><trkpt lat="43.5020554" lon="12.0701477"><ele>353.0</ele><time>2026-04-04T07:35:24.308Z</time></trkpt><trkpt lat="43.5021137" lon="12.0700818"><ele>353.0</ele><time>2026-04-04T07:35:26.308Z</time></trkpt><trkpt lat="43.5021463" lon="12.0699887"><ele>353.0</ele><time>2026-04-04T07:35:29.308Z</time></trkpt><trkpt lat="43.5021071" lon="12.0698991"><ele>353.0</ele><time>2026-04-04T07:35:31.308Z</time></trkpt><trkpt lat="43.5020296" lon="12.0698056"><ele>352.25</ele><time>2026-04-04T07:35:33.308Z</time></trkpt><trkpt lat="43.5019408" lon="12.0696828"><ele>351.5</ele><time>2026-04-04T07:35:35.307Z</time></trkpt><trkpt lat="43.5018513" lon="12.0695749"><ele>350.75</ele><time>2026-04-04T07:35:37.308Z</time></trkpt><trkpt lat="43.5017646" lon="12.0694682"><ele>350.0</ele><time>2026-04-04T07:35:39.308Z</time></trkpt><trkpt lat="43.5016954" lon="12.0693846"><ele>350.0</ele><time>2026-04-04T07:35:41.309Z</time></trkpt><trkpt lat="43.501621" lon="12.0693037"><ele>350.0</ele><time>2026-04-04T07:35:43.308Z</time></trkpt><trkpt lat="43.5015406" lon="12.0692057"><ele>350.0</ele><time>2026-04-04T07:35:45.308Z</time></trkpt><trkpt lat="43.501497" lon="12.0691363"><ele>350.0</ele><time>2026-04-04T07:35:46.308Z</time></trkpt><trkpt lat="43.5014068" lon="12.0690301"><ele>350.0</ele><time>2026-04-04T07:35:48.308Z</time></trkpt><trkpt lat="43.5013431" lon="12.0689476"><ele>349.33333333333337</ele><time>2026-04-04T07:35:49.308Z</time></trkpt><trkpt lat="43.5012838" lon="12.0688899"><ele>348.6666666666667</ele><time>2026-04-04T07:35:50.308Z</time></trkpt><trkpt lat="43.5012121" lon="12.0688173"><ele>348.0</ele><time>2026-04-04T07:35:51.308Z</time></trkpt><trkpt lat="43.5011349" lon="12.068745"><ele>347.3333333333333</ele><time>2026-04-04T07:35:52.308Z</time></trkpt><trkpt lat="43.5010585" lon="12.0686868"><ele>346.66666666666663</ele><time>2026-04-04T07:35:53.307Z</time></trkpt><trkpt lat="43.50098" lon="12.0686102"><ele>346.0</ele><time>2026-04-04T07:35:54.308Z</time></trkpt><trkpt lat="43.5009081" lon="12.068526"><ele>348.4</ele><time>2026-04-04T07:35:55.307Z</time></trkpt><trkpt lat="43.5008485" lon="12.068428"><ele>350.8</ele><time>2026-04-04T07:35:56.308Z</time></trkpt><trkpt lat="43.500798" lon="12.0683257"><ele>353.2</ele><time>2026-04-04T07:35:57.308Z</time></trkpt><trkpt lat="43.5007542" lon="12.0682138"><ele>355.59999999999997</ele><time>2026-04-04T07:35:58.308Z</time></trkpt><trkpt lat="43.5007041" lon="12.0681041"><ele>358.0</ele><time>2026-04-04T07:35:59.308Z</time></trkpt><trkpt lat="43.5006616" lon="12.0679896"><ele>358.2</ele><time>2026-04-04T07:36:00.308Z</time></trkpt><trkpt lat="43.5006316" lon="12.0678609"><ele>358.4</ele><time>2026-04-04T07:36:01.308Z</time></trkpt><trkpt lat="43.5006153" lon="12.0677287"><ele>358.59999999999997</ele><time>2026-04-04T07:36:02.308Z</time></trkpt><trkpt lat="43.5006014" lon="12.0675947"><ele>358.79999999999995</ele><time>2026-04-04T07:36:03.308Z</time></trkpt><trkpt lat="43.5005866" lon="12.0674532"><ele>359.0</ele><time>2026-04-04T07:36:04.308Z</time></trkpt><trkpt lat="43.5005758" lon="12.0673115"><ele>359.2</ele><time>2026-04-04T07:36:05.308Z</time></trkpt><trkpt lat="43.5005646" lon="12.0671717"><ele>359.4</ele><time>2026-04-04T07:36:06.308Z</time></trkpt><trkpt lat="43.5005456" lon="12.0670355"><ele>359.6</ele><time>2026-04-04T07:36:07.308Z</time></trkpt><trkpt lat="43.5005214" lon="12.0669029"><ele>359.8</ele><time>2026-04-04T07:36:08.308Z</time></trkpt><trkpt lat="43.500498" lon="12.0667687"><ele>360.0</ele><time>2026-04-04T07:36:09.307Z</time></trkpt><trkpt lat="43.5004772" lon="12.0666331"><ele>359.2</ele><time>2026-04-04T07:36:10.308Z</time></trkpt><trkpt lat="43.500454" lon="12.0664968"><ele>358.4</ele><time>2026-04-04T07:36:11.308Z</time></trkpt><trkpt lat="43.5004321" lon="12.0663548"><ele>357.6</ele><time>2026-04-04T07:36:12.307Z</time></trkpt><trkpt lat="43.5004026" lon="12.0662254"><ele>356.8</ele><time>2026-04-04T07:36:13.308Z</time></trkpt><trkpt lat="43.5003708" lon="12.0661099"><ele>356.0</ele><time>2026-04-04T07:36:14.308Z</time></trkpt><trkpt lat="43.5003381" lon="12.0659946"><ele>357.6666666666667</ele><time>2026-04-04T07:36:15.308Z</time></trkpt><trkpt lat="43.5003142" lon="12.0658988"><ele>359.33333333333337</ele><time>2026-04-04T07:36:16.308Z</time></trkpt><trkpt lat="43.5002866" lon="12.0657964"><ele>361.0</ele><time>2026-04-04T07:36:17.308Z</time></trkpt><trkpt lat="43.5002607" lon="12.065697"><ele>362.6666666666667</ele><time>2026-04-04T07:36:18.308Z</time></trkpt><trkpt lat="43.5002433" lon="12.0655904"><ele>364.3333333333333</ele><time>2026-04-04T07:36:19.308Z</time></trkpt><trkpt lat="43.5002404" lon="12.0654826"><ele>366.0</ele><time>2026-04-04T07:36:20.308Z</time></trkpt><trkpt lat="43.5002452" lon="12.0653689"><ele>366.8333333333333</ele><time>2026-04-04T07:36:21.308Z</time></trkpt><trkpt lat="43.5002533" lon="12.0652548"><ele>367.6666666666667</ele><time>2026-04-04T07:36:22.308Z</time></trkpt><trkpt lat="43.5002607" lon="12.0651432"><ele>368.5</ele><time>2026-04-04T07:36:23.307Z</time></trkpt><trkpt lat="43.5002685" lon="12.0650187"><ele>369.33333333333337</ele><time>2026-04-04T07:36:24.308Z</time></trkpt><trkpt lat="43.5002754" lon="12.0648918"><ele>370.1666666666667</ele><time>2026-04-04T07:36:25.308Z</time></trkpt><trkpt lat="43.5002791" lon="12.0647669"><ele>371.0</ele><time>2026-04-04T07:36:26.307Z</time></trkpt><trkpt lat="43.500275" lon="12.0646395"><ele>371.0</ele><time>2026-04-04T07:36:27.308Z</time></trkpt><trkpt lat="43.5002599" lon="12.0645139"><ele>371.0</ele><time>2026-04-04T07:36:28.308Z</time></trkpt><trkpt lat="43.5002337" lon="12.0643979"><ele>371.0</ele><time>2026-04-04T07:36:29.308Z</time></trkpt><trkpt lat="43.5002003" lon="12.0642732"><ele>371.0</ele><time>2026-04-04T07:36:30.308Z</time></trkpt><trkpt lat="43.5001583" lon="12.0641532"><ele>371.0</ele><time>2026-04-04T07:36:31.307Z</time></trkpt><trkpt lat="43.5001088" lon="12.0640393"><ele>371.0</ele><time>2026-04-04T07:36:32.308Z</time></trkpt><trkpt lat="43.5000561" lon="12.0639455"><ele>371.0</ele><time>2026-04-04T07:36:33.308Z</time></trkpt><trkpt lat="43.500004" lon="12.06385"><ele>371.0</ele><time>2026-04-04T07:36:34.308Z</time></trkpt><trkpt lat="43.4999458" lon="12.0637597"><ele>371.0</ele><time>2026-04-04T07:36:35.307Z</time></trkpt><trkpt lat="43.4998855" lon="12.0636813"><ele>371.0</ele><time>2026-04-04T07:36:36.308Z</time></trkpt><trkpt lat="43.4998331" lon="12.0636008"><ele>371.0</ele><time>2026-04-04T07:36:37.308Z</time></trkpt><trkpt lat="43.4997861" lon="12.0635398"><ele>371.0</ele><time>2026-04-04T07:36:38.307Z</time></trkpt><trkpt lat="43.4997437" lon="12.0634723"><ele>371.0</ele><time>2026-04-04T07:36:39.308Z</time></trkpt><trkpt lat="43.4997002" lon="12.0634"><ele>371.0</ele><time>2026-04-04T07:36:40.308Z</time></trkpt><trkpt lat="43.4996393" lon="12.0633278"><ele>371.0</ele><time>2026-04-04T07:36:41.308Z</time></trkpt><trkpt lat="43.4995782" lon="12.063257"><ele>371.0</ele><time>2026-04-04T07:36:42.308Z</time></trkpt><trkpt lat="43.4995012" lon="12.0631909"><ele>371.0</ele><time>2026-04-04T07:36:43.308Z</time></trkpt><trkpt lat="43.4993731" lon="12.0632305"><ele>373.7142857142857</ele><time>2026-04-04T07:36:45.308Z</time></trkpt><trkpt lat="43.499307" lon="12.0632137"><ele>376.42857142857144</ele><time>2026-04-04T07:36:46.308Z</time></trkpt><trkpt lat="43.4992513" lon="12.063165"><ele>379.1428571428571</ele><time>2026-04-04T07:36:47.308Z</time></trkpt><trkpt lat="43.4992" lon="12.0631071"><ele>381.8571428571429</ele><time>2026-04-04T07:36:48.308Z</time></trkpt><trkpt lat="43.4991589" lon="12.0630188"><ele>384.57142857142856</ele><time>2026-04-04T07:36:49.308Z</time></trkpt><trkpt lat="43.4991146" lon="12.0629261"><ele>387.2857142857143</ele><time>2026-04-04T07:36:50.308Z</time></trkpt><trkpt lat="43.4990641" lon="12.0628556"><ele>390.0</ele><time>2026-04-04T07:36:51.308Z</time></trkpt><trkpt lat="43.4990092" lon="12.0627747"><ele>390.0</ele><time>2026-04-04T07:36:52.307Z</time></trkpt><trkpt lat="43.4989504" lon="12.0626958"><ele>390.0</ele><time>2026-04-04T07:36:53.308Z</time></trkpt><trkpt lat="43.4988848" lon="12.0626064"><ele>390.0</ele><time>2026-04-04T07:36:54.308Z</time></trkpt><trkpt lat="43.4988263" lon="12.0625154"><ele>390.0</ele><time>2026-04-04T07:36:55.308Z</time></trkpt><trkpt lat="43.4987617" lon="12.0624198"><ele>390.0</ele><time>2026-04-04T07:36:56.309Z</time></trkpt><trkpt lat="43.4986927" lon="12.0623046"><ele>392.0</ele><time>2026-04-04T07:36:57.308Z</time></trkpt><trkpt lat="43.4986316" lon="12.0621911"><ele>394.0</ele><time>2026-04-04T07:36:58.307Z</time></trkpt><trkpt lat="43.4985701" lon="12.0620832"><ele>396.0</ele><time>2026-04-04T07:36:59.308Z</time></trkpt><trkpt lat="43.4985082" lon="12.0619755"><ele>398.0</ele><time>2026-04-04T07:37:00.308Z</time></trkpt><trkpt lat="43.4984416" lon="12.0618662"><ele>400.0</ele><time>2026-04-04T07:37:01.307Z</time></trkpt><trkpt lat="43.4983734" lon="12.061772"><ele>400.0</ele><time>2026-04-04T07:37:02.308Z</time></trkpt><trkpt lat="43.4983013" lon="12.0616619"><ele>400.0</ele><time>2026-04-04T07:37:03.308Z</time></trkpt><trkpt lat="43.4982232" lon="12.0615735"><ele>400.0</ele><time>2026-04-04T07:37:04.308Z</time></trkpt><trkpt lat="43.4981392" lon="12.0614824"><ele>400.0</ele><time>2026-04-04T07:37:05.309Z</time></trkpt><trkpt lat="43.4980735" lon="12.0614419"><ele>400.0</ele><time>2026-04-04T07:37:06.307Z</time></trkpt><trkpt lat="43.4979179" lon="12.0613144"><ele>400.8</ele><time>2026-04-04T07:37:08.307Z</time></trkpt><trkpt lat="43.4978534" lon="12.061279"><ele>401.6</ele><time>2026-04-04T07:37:09.309Z</time></trkpt><trkpt lat="43.49779" lon="12.0612513"><ele>402.4</ele><time>2026-04-04T07:37:10.309Z</time></trkpt><trkpt lat="43.4976126" lon="12.0612024"><ele>403.2</ele><time>2026-04-04T07:37:12.308Z</time></trkpt><trkpt lat="43.4975272" lon="12.0611162"><ele>404.0</ele><time>2026-04-04T07:37:14.308Z</time></trkpt><trkpt lat="43.4974953" lon="12.0609891"><ele>404.0</ele><time>2026-04-04T07:38:46.308Z</time></trkpt><trkpt lat="43.4974227" lon="12.0609192"><ele>404.0</ele><time>2026-04-04T07:38:48.308Z</time></trkpt><trkpt lat="43.4973178" lon="12.0608608"><ele>404.0</ele><time>2026-04-04T07:38:50.308Z</time></trkpt><trkpt lat="43.4972331" lon="12.0608229"><ele>404.0</ele><time>2026-04-04T07:38:51.309Z</time></trkpt><trkpt lat="43.4971655" lon="12.0608164"><ele>404.0</ele><time>2026-04-04T07:38:52.308Z</time></trkpt><trkpt lat="43.4970586" lon="12.0607824"><ele>402.0</ele><time>2026-04-04T07:38:54.309Z</time></trkpt><trkpt lat="43.496975" lon="12.0607574"><ele>400.0</ele><time>2026-04-04T07:38:56.308Z</time></trkpt><trkpt lat="43.496871" lon="12.0607137"><ele>398.0</ele><time>2026-04-04T07:38:58.307Z</time></trkpt><trkpt lat="43.496761" lon="12.0606384"><ele>396.0</ele><time>2026-04-04T07:39:00.308Z</time></trkpt><trkpt lat="43.4966995" lon="12.0605938"><ele>394.0</ele><time>2026-04-04T07:39:01.308Z</time></trkpt><trkpt lat="43.4966304" lon="12.0605449"><ele>394.0</ele><time>2026-04-04T07:39:02.308Z</time></trkpt><trkpt lat="43.4965524" lon="12.0604962"><ele>394.0</ele><time>2026-04-04T07:39:03.308Z</time></trkpt><trkpt lat="43.4964618" lon="12.0604394"><ele>394.0</ele><time>2026-04-04T07:39:04.308Z</time></trkpt><trkpt lat="43.4963562" lon="12.0604312"><ele>394.0</ele><time>2026-04-04T07:39:05.308Z</time></trkpt><trkpt lat="43.4962813" lon="12.0604123"><ele>394.0</ele><time>2026-04-04T07:39:06.309Z</time></trkpt><trkpt lat="43.4961756" lon="12.0603459"><ele>393.4</ele><time>2026-04-04T07:39:08.308Z</time></trkpt><trkpt lat="43.4960971" lon="12.0602967"><ele>392.79999999999995</ele><time>2026-04-04T07:39:09.307Z</time></trkpt><trkpt lat="43.4960418" lon="12.0602289"><ele>392.20000000000005</ele><time>2026-04-04T07:39:10.308Z</time></trkpt><trkpt lat="43.4959763" lon="12.0601402"><ele>391.6</ele><time>2026-04-04T07:39:11.308Z</time></trkpt><trkpt lat="43.4959175" lon="12.0600179"><ele>391.0</ele><time>2026-04-04T07:39:12.307Z</time></trkpt><trkpt lat="43.495848" lon="12.0599245"><ele>391.0</ele><time>2026-04-04T07:39:13.308Z</time></trkpt><trkpt lat="43.4957487" lon="12.0598348"><ele>391.0</ele><time>2026-04-04T07:39:15.307Z</time></trkpt><trkpt lat="43.4956818" lon="12.0598249"><ele>391.0</ele><time>2026-04-04T07:39:16.308Z</time></trkpt><trkpt lat="43.4955425" lon="12.059852"><ele>391.0</ele><time>2026-04-04T07:39:18.308Z</time></trkpt><trkpt lat="43.4954594" lon="12.0598596"><ele>391.0</ele><time>2026-04-04T07:39:19.308Z</time></trkpt><trkpt lat="43.4953809" lon="12.0598664"><ele>393.57142857142856</ele><time>2026-04-04T07:39:20.308Z</time></trkpt><trkpt lat="43.4953109" lon="12.0598408"><ele>396.1428571428571</ele><time>2026-04-04T07:39:21.308Z</time></trkpt><trkpt lat="43.495236" lon="12.0598061"><ele>398.71428571428567</ele><time>2026-04-04T07:39:22.308Z</time></trkpt><trkpt lat="43.495173" lon="12.05977"><ele>401.2857142857143</ele><time>2026-04-04T07:39:23.308Z</time></trkpt><trkpt lat="43.4951187" lon="12.059714"><ele>403.8571428571429</ele><time>2026-04-04T07:39:24.308Z</time></trkpt><trkpt lat="43.4950625" lon="12.0596494"><ele>406.4285714285714</ele><time>2026-04-04T07:39:25.309Z</time></trkpt><trkpt lat="43.4950036" lon="12.059577"><ele>409.0</ele><time>2026-04-04T07:39:26.307Z</time></trkpt><trkpt lat="43.49494" lon="12.0594926"><ele>409.0</ele><time>2026-04-04T07:39:27.308Z</time></trkpt><trkpt lat="43.4948696" lon="12.0594216"><ele>409.0</ele><time>2026-04-04T07:39:28.308Z</time></trkpt><trkpt lat="43.4947004" lon="12.0593629"><ele>409.0</ele><time>2026-04-04T07:39:31.308Z</time></trkpt><trkpt lat="43.4945922" lon="12.0594039"><ele>409.0</ele><time>2026-04-04T07:39:33.308Z</time></trkpt><trkpt lat="43.4945006" lon="12.0593912"><ele>410.2</ele><time>2026-04-04T07:39:35.308Z</time></trkpt><trkpt lat="43.4944752" lon="12.0593108"><ele>411.4</ele><time>2026-04-04T07:39:37.308Z</time></trkpt><trkpt lat="43.4944554" lon="12.0592103"><ele>412.6</ele><time>2026-04-04T07:41:35.307Z</time></trkpt><trkpt lat="43.4944478" lon="12.0590657"><ele>413.8</ele><time>2026-04-04T07:41:38.307Z</time></trkpt><trkpt lat="43.4944221" lon="12.0589456"><ele>415.0</ele><time>2026-04-04T07:41:40.307Z</time></trkpt><trkpt lat="43.494359" lon="12.0587789"><ele>417.2</ele><time>2026-04-04T07:41:42.308Z</time></trkpt><trkpt lat="43.4942921" lon="12.0586352"><ele>419.4</ele><time>2026-04-04T07:41:44.308Z</time></trkpt><trkpt lat="43.494262" lon="12.0585441"><ele>421.6</ele><time>2026-04-04T07:41:45.308Z</time></trkpt><trkpt lat="43.4942333" lon="12.0584051"><ele>423.8</ele><time>2026-04-04T07:41:46.308Z</time></trkpt><trkpt lat="43.4942395" lon="12.0582624"><ele>426.0</ele><time>2026-04-04T07:41:48.307Z</time></trkpt><trkpt lat="43.4942223" lon="12.058175"><ele>427.6</ele><time>2026-04-04T07:41:49.308Z</time></trkpt><trkpt lat="43.4941757" lon="12.0580108"><ele>429.20000000000005</ele><time>2026-04-04T07:41:51.308Z</time></trkpt><trkpt lat="43.4941596" lon="12.0579104"><ele>430.79999999999995</ele><time>2026-04-04T07:41:52.308Z</time></trkpt><trkpt lat="43.4941389" lon="12.0578158"><ele>432.4</ele><time>2026-04-04T07:41:53.307Z</time></trkpt><trkpt lat="43.4941104" lon="12.0576612"><ele>434.0</ele><time>2026-04-04T07:41:54.308Z</time></trkpt><trkpt lat="43.494084" lon="12.057543"><ele>434.4</ele><time>2026-04-04T07:41:55.308Z</time></trkpt><trkpt lat="43.4940441" lon="12.0574153"><ele>434.79999999999995</ele><time>2026-04-04T07:41:56.308Z</time></trkpt><trkpt lat="43.4940016" lon="12.0572885"><ele>435.20000000000005</ele><time>2026-04-04T07:41:57.308Z</time></trkpt><trkpt lat="43.4939634" lon="12.0571598"><ele>435.6</ele><time>2026-04-04T07:41:58.308Z</time></trkpt><trkpt lat="43.4939473" lon="12.0569728"><ele>436.0</ele><time>2026-04-04T07:41:59.307Z</time></trkpt><trkpt lat="43.4939303" lon="12.0568495"><ele>436.0</ele><time>2026-04-04T07:42:00.308Z</time></trkpt><trkpt lat="43.4938879" lon="12.0567258"><ele>436.0</ele><time>2026-04-04T07:42:01.309Z</time></trkpt><trkpt lat="43.4938404" lon="12.0565862"><ele>436.0</ele><time>2026-04-04T07:42:02.308Z</time></trkpt><trkpt lat="43.4938004" lon="12.0564322"><ele>436.0</ele><time>2026-04-04T07:42:03.309Z</time></trkpt><trkpt lat="43.4937616" lon="12.0562935"><ele>436.0</ele><time>2026-04-04T07:42:04.308Z</time></trkpt><trkpt lat="43.4937327" lon="12.0562008"><ele>436.0</ele><time>2026-04-04T07:42:05.308Z</time></trkpt><trkpt lat="43.4937012" lon="12.0560808"><ele>436.0</ele><time>2026-04-04T07:42:06.308Z</time></trkpt><trkpt lat="43.4936573" lon="12.0559458"><ele>436.0</ele><time>2026-04-04T07:42:07.308Z</time></trkpt><trkpt lat="43.4936373" lon="12.0558521"><ele>436.0</ele><time>2026-04-04T07:42:08.308Z</time></trkpt><trkpt lat="43.4935947" lon="12.0557494"><ele>436.0</ele><time>2026-04-04T07:42:09.308Z</time></trkpt><trkpt lat="43.4935328" lon="12.0556479"><ele>435.50000000000006</ele><time>2026-04-04T07:42:10.308Z</time></trkpt><trkpt lat="43.4934807" lon="12.0555666"><ele>435.0</ele><time>2026-04-04T07:42:11.308Z</time></trkpt><trkpt lat="43.4934076" lon="12.0555223"><ele>434.5</ele><time>2026-04-04T07:42:12.308Z</time></trkpt><trkpt lat="43.4933343" lon="12.0554724"><ele>434.0</ele><time>2026-04-04T07:42:13.307Z</time></trkpt><trkpt lat="43.4932548" lon="12.0554383"><ele>433.50000000000006</ele><time>2026-04-04T07:42:14.307Z</time></trkpt><trkpt lat="43.4931994" lon="12.055394"><ele>433.0</ele><time>2026-04-04T07:42:15.307Z</time></trkpt><trkpt lat="43.4931204" lon="12.0553001"><ele>433.00000000000006</ele><time>2026-04-04T07:42:16.308Z</time></trkpt><trkpt lat="43.4930644" lon="12.0552507"><ele>433.0</ele><time>2026-04-04T07:42:17.307Z</time></trkpt><trkpt lat="43.4929821" lon="12.0551252"><ele>433.0</ele><time>2026-04-04T07:42:19.307Z</time></trkpt><trkpt lat="43.4929345" lon="12.0550507"><ele>433.0</ele><time>2026-04-04T07:42:20.308Z</time></trkpt><trkpt lat="43.492863" lon="12.0549534"><ele>433.00000000000006</ele><time>2026-04-04T07:42:22.308Z</time></trkpt><trkpt lat="43.4928107" lon="12.0548808"><ele>433.0</ele><time>2026-04-04T07:42:23.308Z</time></trkpt><trkpt lat="43.4927417" lon="12.0547878"><ele>432.4</ele><time>2026-04-04T07:42:25.309Z</time></trkpt><trkpt lat="43.4926278" lon="12.0547025"><ele>431.79999999999995</ele><time>2026-04-04T07:42:27.308Z</time></trkpt><trkpt lat="43.4925598" lon="12.0546608"><ele>431.2</ele><time>2026-04-04T07:42:28.308Z</time></trkpt><trkpt lat="43.492484" lon="12.0546112"><ele>430.6</ele><time>2026-04-04T07:42:29.307Z</time></trkpt><trkpt lat="43.4923927" lon="12.0545415"><ele>430.0</ele><time>2026-04-04T07:42:30.308Z</time></trkpt><trkpt lat="43.4923202" lon="12.054476"><ele>430.00000000000006</ele><time>2026-04-04T07:42:31.308Z</time></trkpt><trkpt lat="43.4922481" lon="12.0544341"><ele>430.0</ele><time>2026-04-04T07:42:32.308Z</time></trkpt><trkpt lat="43.4921806" lon="12.0543748"><ele>430.0</ele><time>2026-04-04T07:42:33.308Z</time></trkpt><trkpt lat="43.4921092" lon="12.0543395"><ele>430.0</ele><time>2026-04-04T07:42:34.308Z</time></trkpt><trkpt lat="43.4920391" lon="12.0543031"><ele>430.00000000000006</ele><time>2026-04-04T07:42:35.307Z</time></trkpt><trkpt lat="43.4919564" lon="12.054294"><ele>430.0</ele><time>2026-04-04T07:42:36.308Z</time></trkpt><trkpt lat="43.491869" lon="12.0542346"><ele>432.6</ele><time>2026-04-04T07:42:38.307Z</time></trkpt><trkpt lat="43.4917946" lon="12.0541413"><ele>435.2</ele><time>2026-04-04T07:42:41.308Z</time></trkpt><trkpt lat="43.491739" lon="12.054061"><ele>437.79999999999995</ele><time>2026-04-04T07:42:43.307Z</time></trkpt><trkpt lat="43.4917138" lon="12.0539306"><ele>440.4</ele><time>2026-04-04T07:42:45.308Z</time></trkpt><trkpt lat="43.4916834" lon="12.0537722"><ele>443.0</ele><time>2026-04-04T07:42:47.309Z</time></trkpt><trkpt lat="43.4915964" lon="12.0536637"><ele>444.66666666666663</ele><time>2026-04-04T07:42:49.308Z</time></trkpt><trkpt lat="43.4915132" lon="12.0535564"><ele>446.3333333333333</ele><time>2026-04-04T07:42:51.308Z</time></trkpt><trkpt lat="43.4914304" lon="12.0534906"><ele>448.0</ele><time>2026-04-04T07:42:53.308Z</time></trkpt><trkpt lat="43.4913684" lon="12.0534021"><ele>449.66666666666663</ele><time>2026-04-04T07:42:55.308Z</time></trkpt><trkpt lat="43.4913039" lon="12.053368"><ele>451.3333333333333</ele><time>2026-04-04T07:42:56.308Z</time></trkpt><trkpt lat="43.4912592" lon="12.0532979"><ele>453.0</ele><time>2026-04-04T07:42:57.308Z</time></trkpt><trkpt lat="43.49118" lon="12.053231"><ele>455.79999999999995</ele><time>2026-04-04T07:42:58.309Z</time></trkpt><trkpt lat="43.4910964" lon="12.0531326"><ele>458.59999999999997</ele><time>2026-04-04T07:43:00.308Z</time></trkpt><trkpt lat="43.4910251" lon="12.0530251"><ele>461.40000000000003</ele><time>2026-04-04T07:43:02.308Z</time></trkpt><trkpt lat="43.4909718" lon="12.0529062"><ele>464.20000000000005</ele><time>2026-04-04T07:43:04.308Z</time></trkpt><trkpt lat="43.4909136" lon="12.0528251"><ele>467.0</ele><time>2026-04-04T07:43:06.308Z</time></trkpt><trkpt lat="43.4908514" lon="12.0527089"><ele>467.0</ele><time>2026-04-04T07:43:08.307Z</time></trkpt><trkpt lat="43.4907955" lon="12.0525878"><ele>467.0</ele><time>2026-04-04T07:43:10.307Z</time></trkpt><trkpt lat="43.4907584" lon="12.0524476"><ele>467.0</ele><time>2026-04-04T07:43:12.309Z</time></trkpt><trkpt lat="43.4907405" lon="12.0523109"><ele>467.0</ele><time>2026-04-04T07:43:14.308Z</time></trkpt><trkpt lat="43.4906317" lon="12.0521608"><ele>467.8</ele><time>2026-04-04T07:43:17.307Z</time></trkpt><trkpt lat="43.4905992" lon="12.0520518"><ele>468.6</ele><time>2026-04-04T07:43:19.309Z</time></trkpt><trkpt lat="43.4905515" lon="12.0519369"><ele>469.40000000000003</ele><time>2026-04-04T07:43:21.309Z</time></trkpt><trkpt lat="43.4904991" lon="12.0518311"><ele>470.20000000000005</ele><time>2026-04-04T07:43:23.309Z</time></trkpt><trkpt lat="43.4904258" lon="12.0517217"><ele>471.0</ele><time>2026-04-04T07:43:25.309Z</time></trkpt><trkpt lat="43.490357" lon="12.0516161"><ele>473.20000000000005</ele><time>2026-04-04T07:43:27.309Z</time></trkpt><trkpt lat="43.4902832" lon="12.0515439"><ele>475.40000000000003</ele><time>2026-04-04T07:43:29.309Z</time></trkpt><trkpt lat="43.4902013" lon="12.0515302"><ele>477.6</ele><time>2026-04-04T07:43:31.308Z</time></trkpt><trkpt lat="43.4901276" lon="12.0515584"><ele>479.8</ele><time>2026-04-04T07:43:32.309Z</time></trkpt><trkpt lat="43.490015" lon="12.051597"><ele>482.0</ele><time>2026-04-04T07:43:34.309Z</time></trkpt><trkpt lat="43.4899159" lon="12.051606"><ele>482.0</ele><time>2026-04-04T07:43:36.308Z</time></trkpt><trkpt lat="43.4898231" lon="12.0516318"><ele>482.00000000000006</ele><time>2026-04-04T07:43:37.309Z</time></trkpt><trkpt lat="43.4897138" lon="12.0516077"><ele>482.00000000000006</ele><time>2026-04-04T07:43:39.308Z</time></trkpt><trkpt lat="43.4896416" lon="12.0515028"><ele>482.0</ele><time>2026-04-04T07:43:41.309Z</time></trkpt><trkpt lat="43.4896145" lon="12.0513495"><ele>482.0</ele><time>2026-04-04T07:43:43.308Z</time></trkpt><trkpt lat="43.4896155" lon="12.051259"><ele>482.0</ele><time>2026-04-04T07:43:44.309Z</time></trkpt><trkpt lat="43.4896218" lon="12.0511111"><ele>482.00000000000006</ele><time>2026-04-04T07:43:46.309Z</time></trkpt><trkpt lat="43.4896277" lon="12.0510033"><ele>482.00000000000006</ele><time>2026-04-04T07:43:48.308Z</time></trkpt><trkpt lat="43.48961" lon="12.0509136"><ele>482.0</ele><time>2026-04-04T07:43:51.309Z</time></trkpt><trkpt lat="43.4895831" lon="12.0507637"><ele>482.0</ele><time>2026-04-04T07:43:54.309Z</time></trkpt><trkpt lat="43.4895454" lon="12.0506486"><ele>482.66666666666663</ele><time>2026-04-04T07:43:56.309Z</time></trkpt><trkpt lat="43.4895201" lon="12.050563"><ele>483.3333333333333</ele><time>2026-04-04T07:43:57.309Z</time></trkpt><trkpt lat="43.4894821" lon="12.0504479"><ele>484.0</ele><time>2026-04-04T07:43:59.309Z</time></trkpt><trkpt lat="43.4894091" lon="12.0503061"><ele>484.66666666666663</ele><time>2026-04-04T07:44:01.308Z</time></trkpt><trkpt lat="43.4893716" lon="12.0502247"><ele>485.3333333333333</ele><time>2026-04-04T07:44:02.31Z</time></trkpt><trkpt lat="43.4893391" lon="12.0501368"><ele>486.0</ele><time>2026-04-04T07:44:03.31Z</time></trkpt><trkpt lat="43.4892964" lon="12.0500547"><ele>486.0</ele><time>2026-04-04T07:44:04.309Z</time></trkpt><trkpt lat="43.4892469" lon="12.0499886"><ele>486.0</ele><time>2026-04-04T07:44:05.309Z</time></trkpt><trkpt lat="43.489197" lon="12.049932"><ele>486.0</ele><time>2026-04-04T07:44:06.309Z</time></trkpt><trkpt lat="43.4891334" lon="12.0498781"><ele>486.0</ele><time>2026-04-04T07:44:07.309Z</time></trkpt><trkpt lat="43.4890773" lon="12.0498255"><ele>486.0</ele><time>2026-04-04T07:44:08.309Z</time></trkpt><trkpt lat="43.4890086" lon="12.0497867"><ele>486.0</ele><time>2026-04-04T07:44:09.309Z</time></trkpt><trkpt lat="43.4889643" lon="12.0496765"><ele>486.0</ele><time>2026-04-04T07:44:11.309Z</time></trkpt><trkpt lat="43.4889379" lon="12.049548"><ele>484.6</ele><time>2026-04-04T07:44:13.309Z</time></trkpt><trkpt lat="43.488905" lon="12.0494114"><ele>483.20000000000005</ele><time>2026-04-04T07:44:15.309Z</time></trkpt><trkpt lat="43.4888695" lon="12.0492623"><ele>481.79999999999995</ele><time>2026-04-04T07:44:17.309Z</time></trkpt><trkpt lat="43.4888065" lon="12.0491497"><ele>480.4</ele><time>2026-04-04T07:44:19.309Z</time></trkpt><trkpt lat="43.48871" lon="12.0491342"><ele>479.0</ele><time>2026-04-04T07:44:21.309Z</time></trkpt><trkpt lat="43.4886189" lon="12.0491517"><ele>477.66666666666663</ele><time>2026-04-04T07:44:23.309Z</time></trkpt><trkpt lat="43.4885372" lon="12.0491754"><ele>476.3333333333333</ele><time>2026-04-04T07:44:25.309Z</time></trkpt><trkpt lat="43.4884535" lon="12.0492052"><ele>475.0</ele><time>2026-04-04T07:44:27.308Z</time></trkpt><trkpt lat="43.4883626" lon="12.0492008"><ele>473.66666666666663</ele><time>2026-04-04T07:44:29.309Z</time></trkpt><trkpt lat="43.4882926" lon="12.0491459"><ele>472.3333333333333</ele><time>2026-04-04T07:44:31.309Z</time></trkpt><trkpt lat="43.4882392" lon="12.0490672"><ele>471.0</ele><time>2026-04-04T07:44:33.309Z</time></trkpt><trkpt lat="43.4881991" lon="12.048973"><ele>470.1666666666667</ele><time>2026-04-04T07:44:35.309Z</time></trkpt><trkpt lat="43.4881975" lon="12.0488344"><ele>469.33333333333337</ele><time>2026-04-04T07:44:37.309Z</time></trkpt><trkpt lat="43.4881966" lon="12.0487256"><ele>468.5</ele><time>2026-04-04T07:44:39.309Z</time></trkpt><trkpt lat="43.4881858" lon="12.0486303"><ele>467.6666666666667</ele><time>2026-04-04T07:44:41.309Z</time></trkpt><trkpt lat="43.4881678" lon="12.0485296"><ele>466.83333333333337</ele><time>2026-04-04T07:44:43.309Z</time></trkpt><trkpt lat="43.4881475" lon="12.0484396"><ele>466.0</ele><time>2026-04-04T07:44:45.309Z</time></trkpt><trkpt lat="43.4881141" lon="12.0482468"><ele>464.20000000000005</ele><time>2026-04-04T07:44:47.31Z</time></trkpt><trkpt lat="43.4880999" lon="12.0481502"><ele>462.40000000000003</ele><time>2026-04-04T07:44:48.309Z</time></trkpt><trkpt lat="43.4880969" lon="12.0479746"><ele>460.6</ele><time>2026-04-04T07:44:50.31Z</time></trkpt><trkpt lat="43.4880703" lon="12.0478263"><ele>458.8</ele><time>2026-04-04T07:44:52.308Z</time></trkpt><trkpt lat="43.4879943" lon="12.0476962"><ele>457.0</ele><time>2026-04-04T07:44:54.309Z</time></trkpt><trkpt lat="43.48792" lon="12.0475808"><ele>456.83333333333337</ele><time>2026-04-04T07:44:56.309Z</time></trkpt><trkpt lat="43.4878662" lon="12.0474967"><ele>456.6666666666667</ele><time>2026-04-04T07:44:57.309Z</time></trkpt><trkpt lat="43.4878146" lon="12.0474257"><ele>456.5</ele><time>2026-04-04T07:44:58.309Z</time></trkpt><trkpt lat="43.4877642" lon="12.0473456"><ele>456.33333333333337</ele><time>2026-04-04T07:44:59.308Z</time></trkpt><trkpt lat="43.4877054" lon="12.0472687"><ele>456.1666666666667</ele><time>2026-04-04T07:45:00.309Z</time></trkpt><trkpt lat="43.4876371" lon="12.0471876"><ele>456.0</ele><time>2026-04-04T07:45:01.309Z</time></trkpt><trkpt lat="43.487564" lon="12.0471173"><ele>456.6666666666667</ele><time>2026-04-04T07:45:02.309Z</time></trkpt><trkpt lat="43.4875046" lon="12.0470377"><ele>457.33333333333337</ele><time>2026-04-04T07:45:03.31Z</time></trkpt><trkpt lat="43.4874062" lon="12.0469759"><ele>458.0</ele><time>2026-04-04T07:45:04.309Z</time></trkpt><trkpt lat="43.4873475" lon="12.0469048"><ele>458.6666666666667</ele><time>2026-04-04T07:45:05.309Z</time></trkpt><trkpt lat="43.4872855" lon="12.0468318"><ele>459.33333333333337</ele><time>2026-04-04T07:45:06.309Z</time></trkpt><trkpt lat="43.4872257" lon="12.0467648"><ele>460.0</ele><time>2026-04-04T07:45:07.309Z</time></trkpt><trkpt lat="43.4871507" lon="12.0466381"><ele>460.6666666666667</ele><time>2026-04-04T07:45:09.309Z</time></trkpt><trkpt lat="43.4870974" lon="12.0465457"><ele>461.33333333333337</ele><time>2026-04-04T07:45:11.309Z</time></trkpt><trkpt lat="43.487034" lon="12.0465035"><ele>462.0</ele><time>2026-04-04T07:45:13.309Z</time></trkpt><trkpt lat="43.4869754" lon="12.0464519"><ele>462.66666666666663</ele><time>2026-04-04T07:45:23.309Z</time></trkpt><trkpt lat="43.4869066" lon="12.0464242"><ele>463.3333333333333</ele><time>2026-04-04T07:45:27.308Z</time></trkpt><trkpt lat="43.4868576" lon="12.046336"><ele>464.0</ele><time>2026-04-04T07:45:29.308Z</time></trkpt><trkpt lat="43.4867945" lon="12.0462522"><ele>466.99999999999994</ele><time>2026-04-04T07:45:32.309Z</time></trkpt><trkpt lat="43.4867421" lon="12.0461878"><ele>470.0</ele><time>2026-04-04T07:45:34.309Z</time></trkpt><trkpt lat="43.4866887" lon="12.0460738"><ele>473.0</ele><time>2026-04-04T07:45:37.309Z</time></trkpt><trkpt lat="43.4866604" lon="12.0459873"><ele>476.0</ele><time>2026-04-04T07:45:40.31Z</time></trkpt><trkpt lat="43.4865882" lon="12.0459188"><ele>478.99999999999994</ele><time>2026-04-04T07:46:53.309Z</time></trkpt><trkpt lat="43.4865111" lon="12.0458397"><ele>482.0</ele><time>2026-04-04T07:46:55.31Z</time></trkpt><trkpt lat="43.4864641" lon="12.0457643"><ele>482.16666666666663</ele><time>2026-04-04T07:46:56.31Z</time></trkpt><trkpt lat="43.4864113" lon="12.0456959"><ele>482.3333333333333</ele><time>2026-04-04T07:46:57.309Z</time></trkpt><trkpt lat="43.4863567" lon="12.0456126"><ele>482.5</ele><time>2026-04-04T07:46:58.309Z</time></trkpt><trkpt lat="43.4862982" lon="12.0455192"><ele>482.66666666666663</ele><time>2026-04-04T07:46:59.309Z</time></trkpt><trkpt lat="43.4862418" lon="12.0454151"><ele>482.8333333333333</ele><time>2026-04-04T07:47:00.309Z</time></trkpt><trkpt lat="43.4861903" lon="12.0453071"><ele>483.0</ele><time>2026-04-04T07:47:01.309Z</time></trkpt><trkpt lat="43.4861379" lon="12.0451952"><ele>484.1666666666667</ele><time>2026-04-04T07:47:02.309Z</time></trkpt><trkpt lat="43.4860849" lon="12.0450873"><ele>485.33333333333337</ele><time>2026-04-04T07:47:03.31Z</time></trkpt><trkpt lat="43.4860344" lon="12.04498"><ele>486.5</ele><time>2026-04-04T07:47:04.309Z</time></trkpt><trkpt lat="43.4859885" lon="12.0448747"><ele>487.6666666666667</ele><time>2026-04-04T07:47:05.309Z</time></trkpt><trkpt lat="43.4859558" lon="12.0447715"><ele>488.83333333333337</ele><time>2026-04-04T07:47:06.309Z</time></trkpt><trkpt lat="43.4859379" lon="12.044674"><ele>490.0</ele><time>2026-04-04T07:47:07.309Z</time></trkpt><trkpt lat="43.4859205" lon="12.0444888"><ele>491.4</ele><time>2026-04-04T07:47:09.309Z</time></trkpt><trkpt lat="43.485914" lon="12.0443919"><ele>492.8</ele><time>2026-04-04T07:47:10.309Z</time></trkpt><trkpt lat="43.485892" lon="12.044235"><ele>494.20000000000005</ele><time>2026-04-04T07:47:12.309Z</time></trkpt><trkpt lat="43.4858675" lon="12.0441181"><ele>495.6</ele><time>2026-04-04T07:47:14.309Z</time></trkpt><trkpt lat="43.485796" lon="12.0440083"><ele>497.0</ele><time>2026-04-04T07:47:16.309Z</time></trkpt><trkpt lat="43.4857382" lon="12.0438866"><ele>498.20000000000005</ele><time>2026-04-04T07:47:18.309Z</time></trkpt><trkpt lat="43.485709" lon="12.043777"><ele>499.40000000000003</ele><time>2026-04-04T07:47:19.309Z</time></trkpt><trkpt lat="43.4856727" lon="12.0436699"><ele>500.59999999999997</ele><time>2026-04-04T07:47:20.309Z</time></trkpt><trkpt lat="43.485632" lon="12.0435369"><ele>501.79999999999995</ele><time>2026-04-04T07:47:21.309Z</time></trkpt><trkpt lat="43.4855986" lon="12.0434132"><ele>503.0</ele><time>2026-04-04T07:47:22.309Z</time></trkpt><trkpt lat="43.4855979" lon="12.0432949"><ele>504.59999999999997</ele><time>2026-04-04T07:47:23.309Z</time></trkpt><trkpt lat="43.4856493" lon="12.0432094"><ele>506.19999999999993</ele><time>2026-04-04T07:47:24.309Z</time></trkpt><trkpt lat="43.485667" lon="12.0430906"><ele>507.8</ele><time>2026-04-04T07:47:25.309Z</time></trkpt><trkpt lat="43.4856976" lon="12.0429637"><ele>509.4</ele><time>2026-04-04T07:47:26.309Z</time></trkpt><trkpt lat="43.4857092" lon="12.0428054"><ele>511.0</ele><time>2026-04-04T07:47:27.309Z</time></trkpt><trkpt lat="43.485718" lon="12.0426786"><ele>511.00000000000006</ele><time>2026-04-04T07:47:28.309Z</time></trkpt><trkpt lat="43.4857058" lon="12.0425699"><ele>511.0</ele><time>2026-04-04T07:47:29.309Z</time></trkpt><trkpt lat="43.4856879" lon="12.0424718"><ele>511.0</ele><time>2026-04-04T07:47:30.308Z</time></trkpt><trkpt lat="43.48561" lon="12.0423951"><ele>511.0</ele><time>2026-04-04T07:47:31.309Z</time></trkpt><trkpt lat="43.4855666" lon="12.0422936"><ele>511.00000000000006</ele><time>2026-04-04T07:47:33.309Z</time></trkpt><trkpt lat="43.4855867" lon="12.0421869"><ele>511.0</ele><time>2026-04-04T07:47:36.309Z</time></trkpt><trkpt lat="43.4855796" lon="12.0420614"><ele>512.1666666666667</ele><time>2026-04-04T07:47:38.309Z</time></trkpt><trkpt lat="43.4855604" lon="12.0419562"><ele>513.3333333333334</ele><time>2026-04-04T07:47:40.309Z</time></trkpt><trkpt lat="43.485563" lon="12.0418583"><ele>514.5</ele><time>2026-04-04T07:47:42.309Z</time></trkpt><trkpt lat="43.4855764" lon="12.0417356"><ele>515.6666666666666</ele><time>2026-04-04T07:47:44.309Z</time></trkpt><trkpt lat="43.4855823" lon="12.041649"><ele>516.8333333333333</ele><time>2026-04-04T07:47:45.31Z</time></trkpt><trkpt lat="43.4855861" lon="12.0414991"><ele>518.0</ele><time>2026-04-04T07:47:47.309Z</time></trkpt><trkpt lat="43.485576" lon="12.0413984"><ele>518.1999999999999</ele><time>2026-04-04T07:47:48.308Z</time></trkpt><trkpt lat="43.4855539" lon="12.0412525"><ele>518.4</ele><time>2026-04-04T07:47:50.309Z</time></trkpt><trkpt lat="43.4855342" lon="12.0411251"><ele>518.5999999999999</ele><time>2026-04-04T07:47:52.309Z</time></trkpt><trkpt lat="43.4854993" lon="12.0409659"><ele>518.8</ele><time>2026-04-04T07:47:54.309Z</time></trkpt><trkpt lat="43.485447" lon="12.0408182"><ele>519.0</ele><time>2026-04-04T07:47:56.309Z</time></trkpt><trkpt lat="43.4854052" lon="12.0407076"><ele>523.0</ele><time>2026-04-04T07:47:57.309Z</time></trkpt><trkpt lat="43.4853604" lon="12.0406428"><ele>527.0</ele><time>2026-04-04T07:47:58.309Z</time></trkpt><trkpt lat="43.4853123" lon="12.0405671"><ele>531.0</ele><time>2026-04-04T07:47:59.309Z</time></trkpt><trkpt lat="43.4852871" lon="12.0403344"><ele>535.0</ele><time>2026-04-04T07:48:01.309Z</time></trkpt><trkpt lat="43.4852819" lon="12.0402161"><ele>539.0</ele><time>2026-04-04T07:48:03.309Z</time></trkpt><trkpt lat="43.4852664" lon="12.0401147"><ele>539.0</ele><time>2026-04-04T07:48:06.309Z</time></trkpt><trkpt lat="43.4852626" lon="12.0399935"><ele>539.0</ele><time>2026-04-04T07:48:09.309Z</time></trkpt><trkpt lat="43.4852613" lon="12.0398391"><ele>539.0</ele><time>2026-04-04T07:48:11.309Z</time></trkpt><trkpt lat="43.4852861" lon="12.039624"><ele>539.0</ele><time>2026-04-04T07:48:13.309Z</time></trkpt><trkpt lat="43.4852817" lon="12.0394804"><ele>541.6666666666666</ele><time>2026-04-04T07:48:15.309Z</time></trkpt><trkpt lat="43.4852297" lon="12.0393695"><ele>544.3333333333333</ele><time>2026-04-04T07:48:17.309Z</time></trkpt><trkpt lat="43.4852087" lon="12.0392166"><ele>547.0</ele><time>2026-04-04T07:48:19.309Z</time></trkpt><trkpt lat="43.4851986" lon="12.0391263"><ele>549.6666666666666</ele><time>2026-04-04T07:48:20.309Z</time></trkpt><trkpt lat="43.4851844" lon="12.0390334"><ele>552.3333333333334</ele><time>2026-04-04T07:48:21.308Z</time></trkpt><trkpt lat="43.4851563" lon="12.0389012"><ele>555.0</ele><time>2026-04-04T07:48:22.309Z</time></trkpt><trkpt lat="43.4851536" lon="12.0388056"><ele>557.5</ele><time>2026-04-04T07:48:24.31Z</time></trkpt><trkpt lat="43.4850885" lon="12.0387451"><ele>560.0</ele><time>2026-04-04T07:48:28.308Z</time></trkpt><trkpt lat="43.4850161" lon="12.0387369"><ele>562.5</ele><time>2026-04-04T07:48:30.309Z</time></trkpt><trkpt lat="43.4849442" lon="12.0387697"><ele>565.0</ele><time>2026-04-04T07:48:32.308Z</time></trkpt><trkpt lat="43.4848588" lon="12.0388446"><ele>567.5</ele><time>2026-04-04T07:48:34.309Z</time></trkpt><trkpt lat="43.4847915" lon="12.038909"><ele>570.0</ele><time>2026-04-04T07:48:36.309Z</time></trkpt><trkpt lat="43.4846933" lon="12.0389238"><ele>570.0</ele><time>2026-04-04T07:48:38.309Z</time></trkpt><trkpt lat="43.4846027" lon="12.0389311"><ele>570.0</ele><time>2026-04-04T07:48:40.308Z</time></trkpt><trkpt lat="43.484529" lon="12.0388818"><ele>570.0</ele><time>2026-04-04T07:48:42.309Z</time></trkpt><trkpt lat="43.4844668" lon="12.0388407"><ele>570.0</ele><time>2026-04-04T07:48:44.309Z</time></trkpt><trkpt lat="43.4843564" lon="12.0388182"><ele>570.0</ele><time>2026-04-04T07:48:46.309Z</time></trkpt><trkpt lat="43.4842895" lon="12.0388778"><ele>570.0</ele><time>2026-04-04T07:48:47.309Z</time></trkpt><trkpt lat="43.4842273" lon="12.0388974"><ele>574.0</ele><time>2026-04-04T07:48:48.308Z</time></trkpt><trkpt lat="43.4841334" lon="12.0389248"><ele>578.0</ele><time>2026-04-04T07:48:50.309Z</time></trkpt><trkpt lat="43.4840375" lon="12.038922"><ele>582.0</ele><time>2026-04-04T07:48:52.309Z</time></trkpt><trkpt lat="43.4839407" lon="12.0388898"><ele>586.0</ele><time>2026-04-04T07:48:55.31Z</time></trkpt><trkpt lat="43.4838649" lon="12.0388118"><ele>590.0</ele><time>2026-04-04T07:48:57.309Z</time></trkpt><trkpt lat="43.4838064" lon="12.0387409"><ele>590.0</ele><time>2026-04-04T07:48:59.309Z</time></trkpt><trkpt lat="43.4837741" lon="12.0386437"><ele>590.0</ele><time>2026-04-04T07:49:01.309Z</time></trkpt><trkpt lat="43.4837231" lon="12.0385544"><ele>590.0</ele><time>2026-04-04T07:49:03.309Z</time></trkpt><trkpt lat="43.483701" lon="12.0384658"><ele>590.0</ele><time>2026-04-04T07:49:05.308Z</time></trkpt><trkpt lat="43.4837453" lon="12.038394"><ele>590.0</ele><time>2026-04-04T07:49:07.31Z</time></trkpt><trkpt lat="43.4838207" lon="12.0383276"><ele>590.0</ele><time>2026-04-04T07:49:09.309Z</time></trkpt><trkpt lat="43.4839228" lon="12.0382776"><ele>591.5</ele><time>2026-04-04T07:49:11.309Z</time></trkpt><trkpt lat="43.4839935" lon="12.0382363"><ele>593.0</ele><time>2026-04-04T07:49:13.309Z</time></trkpt><trkpt lat="43.4840674" lon="12.0381614"><ele>594.5</ele><time>2026-04-04T07:49:15.309Z</time></trkpt><trkpt lat="43.4841213" lon="12.0380783"><ele>596.0</ele><time>2026-04-04T07:49:17.309Z</time></trkpt><trkpt lat="43.4841477" lon="12.0379631"><ele>597.5</ele><time>2026-04-04T07:49:19.309Z</time></trkpt><trkpt lat="43.4841075" lon="12.0378765"><ele>599.0</ele><time>2026-04-04T07:49:21.309Z</time></trkpt><trkpt lat="43.4840626" lon="12.0377759"><ele>599.0</ele><time>2026-04-04T07:49:23.309Z</time></trkpt><trkpt lat="43.4840488" lon="12.0376777"><ele>599.0</ele><time>2026-04-04T07:49:24.309Z</time></trkpt><trkpt lat="43.4840185" lon="12.0375905"><ele>599.0</ele><time>2026-04-04T07:49:25.309Z</time></trkpt><trkpt lat="43.4839779" lon="12.0374265"><ele>599.0</ele><time>2026-04-04T07:49:27.308Z</time></trkpt><trkpt lat="43.4839623" lon="12.0372659"><ele>599.0</ele><time>2026-04-04T07:49:29.309Z</time></trkpt><trkpt lat="43.48394" lon="12.0371758"><ele>598.0</ele><time>2026-04-04T07:49:30.309Z</time></trkpt><trkpt lat="43.4839059" lon="12.0370901"><ele>597.0</ele><time>2026-04-04T07:49:31.308Z</time></trkpt><trkpt lat="43.4838644" lon="12.0370153"><ele>596.0</ele><time>2026-04-04T07:49:32.308Z</time></trkpt><trkpt lat="43.483814" lon="12.0369358"><ele>595.0</ele><time>2026-04-04T07:49:33.308Z</time></trkpt><trkpt lat="43.4837728" lon="12.0368668"><ele>594.0</ele><time>2026-04-04T07:49:34.309Z</time></trkpt><trkpt lat="43.4837228" lon="12.0368104"><ele>593.0</ele><time>2026-04-04T07:49:35.309Z</time></trkpt><trkpt lat="43.4836709" lon="12.0367499"><ele>592.0</ele><time>2026-04-04T07:49:36.309Z</time></trkpt><trkpt lat="43.4836232" lon="12.0366877"><ele>594.6666666666667</ele><time>2026-04-04T07:49:37.309Z</time></trkpt><trkpt lat="43.4835633" lon="12.0366361"><ele>597.3333333333334</ele><time>2026-04-04T07:49:38.309Z</time></trkpt><trkpt lat="43.4834678" lon="12.0365944"><ele>600.0</ele><time>2026-04-04T07:49:40.309Z</time></trkpt><trkpt lat="43.4833626" lon="12.0365217"><ele>602.6666666666666</ele><time>2026-04-04T07:49:42.309Z</time></trkpt><trkpt lat="43.4833033" lon="12.0364892"><ele>605.3333333333333</ele><time>2026-04-04T07:49:43.309Z</time></trkpt><trkpt lat="43.4832341" lon="12.0364622"><ele>608.0</ele><time>2026-04-04T07:49:44.309Z</time></trkpt><trkpt lat="43.4831727" lon="12.0364386"><ele>608.0</ele><time>2026-04-04T07:49:45.31Z</time></trkpt><trkpt lat="43.4830807" lon="12.0363923"><ele>608.0</ele><time>2026-04-04T07:49:47.309Z</time></trkpt><trkpt lat="43.4830088" lon="12.0363279"><ele>608.0</ele><time>2026-04-04T07:49:49.309Z</time></trkpt><trkpt lat="43.482952" lon="12.0362865"><ele>608.0</ele><time>2026-04-04T07:49:50.309Z</time></trkpt><trkpt lat="43.4828592" lon="12.0362248"><ele>608.0</ele><time>2026-04-04T07:49:52.309Z</time></trkpt><trkpt lat="43.4827543" lon="12.0361933"><ele>611.8</ele><time>2026-04-04T07:49:54.309Z</time></trkpt><trkpt lat="43.4826618" lon="12.0361561"><ele>615.5999999999999</ele><time>2026-04-04T07:49:56.309Z</time></trkpt><trkpt lat="43.4825864" lon="12.0361343"><ele>619.4000000000001</ele><time>2026-04-04T07:49:58.309Z</time></trkpt><trkpt lat="43.4825485" lon="12.0362476"><ele>623.2</ele><time>2026-04-04T07:50:01.309Z</time></trkpt><trkpt lat="43.482444" lon="12.0363707"><ele>627.0</ele><time>2026-04-04T07:50:03.308Z</time></trkpt><trkpt lat="43.4823626" lon="12.0364498"><ele>627.0</ele><time>2026-04-04T07:50:04.309Z</time></trkpt><trkpt lat="43.482277" lon="12.0365202"><ele>627.0</ele><time>2026-04-04T07:50:05.309Z</time></trkpt><trkpt lat="43.4821658" lon="12.0365375"><ele>627.0</ele><time>2026-04-04T07:50:06.308Z</time></trkpt><trkpt lat="43.4820744" lon="12.0365256"><ele>627.0</ele><time>2026-04-04T07:50:07.309Z</time></trkpt><trkpt lat="43.4819733" lon="12.0365065"><ele>627.0</ele><time>2026-04-04T07:50:09.309Z</time></trkpt><trkpt lat="43.4818858" lon="12.0364716"><ele>628.6666666666666</ele><time>2026-04-04T07:50:11.309Z</time></trkpt><trkpt lat="43.4817785" lon="12.0364582"><ele>630.3333333333334</ele><time>2026-04-04T07:50:13.309Z</time></trkpt><trkpt lat="43.481708" lon="12.0364735"><ele>632.0</ele><time>2026-04-04T07:50:17.309Z</time></trkpt><trkpt lat="43.4816245" lon="12.0364718"><ele>633.6666666666667</ele><time>2026-04-04T07:50:20.309Z</time></trkpt><trkpt lat="43.4815569" lon="12.0364768"><ele>635.3333333333334</ele><time>2026-04-04T07:50:22.309Z</time></trkpt><trkpt lat="43.4815054" lon="12.0365292"><ele>637.0</ele><time>2026-04-04T07:50:24.309Z</time></trkpt><trkpt lat="43.4814765" lon="12.0366642"><ele>632.8000000000001</ele><time>2026-04-04T07:50:26.309Z</time></trkpt><trkpt lat="43.4814486" lon="12.0368068"><ele>628.6</ele><time>2026-04-04T07:50:27.309Z</time></trkpt><trkpt lat="43.4814414" lon="12.0369061"><ele>624.4000000000001</ele><time>2026-04-04T07:50:28.308Z</time></trkpt><trkpt lat="43.481436" lon="12.0370164"><ele>620.2</ele><time>2026-04-04T07:50:29.309Z</time></trkpt><trkpt lat="43.4814613" lon="12.03716"><ele>616.0</ele><time>2026-04-04T07:50:31.309Z</time></trkpt><trkpt lat="43.4814551" lon="12.0373078"><ele>616.0</ele><time>2026-04-04T07:50:33.309Z</time></trkpt><trkpt lat="43.481434" lon="12.0374284"><ele>616.0</ele><time>2026-04-04T07:50:35.309Z</time></trkpt><trkpt lat="43.4813714" lon="12.0374824"><ele>616.0</ele><time>2026-04-04T07:50:37.309Z</time></trkpt><trkpt lat="43.4812693" lon="12.0375744"><ele>616.0</ele><time>2026-04-04T07:50:39.309Z</time></trkpt><trkpt lat="43.4812131" lon="12.0376303"><ele>616.0</ele><time>2026-04-04T07:50:40.309Z</time></trkpt><trkpt lat="43.4811549" lon="12.0376935"><ele>616.0</ele><time>2026-04-04T07:50:41.309Z</time></trkpt><trkpt lat="43.4810738" lon="12.0377352"><ele>614.1666666666667</ele><time>2026-04-04T07:50:42.309Z</time></trkpt><trkpt lat="43.4810096" lon="12.037769"><ele>612.3333333333334</ele><time>2026-04-04T07:50:43.309Z</time></trkpt><trkpt lat="43.4809427" lon="12.0377841"><ele>610.5</ele><time>2026-04-04T07:50:44.309Z</time></trkpt><trkpt lat="43.4808794" lon="12.0377858"><ele>608.6666666666666</ele><time>2026-04-04T07:50:45.309Z</time></trkpt><trkpt lat="43.4808113" lon="12.0377973"><ele>606.8333333333333</ele><time>2026-04-04T07:50:46.309Z</time></trkpt><trkpt lat="43.4807115" lon="12.0378049"><ele>605.0</ele><time>2026-04-04T07:50:48.309Z</time></trkpt><trkpt lat="43.4805776" lon="12.0378342"><ele>605.0</ele><time>2026-04-04T07:50:50.309Z</time></trkpt><trkpt lat="43.4804732" lon="12.0377937"><ele>605.0</ele><time>2026-04-04T07:50:52.309Z</time></trkpt><trkpt lat="43.4804216" lon="12.0377373"><ele>605.0</ele><time>2026-04-04T07:50:53.308Z</time></trkpt><trkpt lat="43.4803635" lon="12.0376787"><ele>605.0</ele><time>2026-04-04T07:50:56.309Z</time></trkpt><trkpt lat="43.4802793" lon="12.037624"><ele>605.0</ele><time>2026-04-04T07:50:58.309Z</time></trkpt><trkpt lat="43.4801641" lon="12.0376583"><ele>603.0</ele><time>2026-04-04T07:51:00.309Z</time></trkpt><trkpt lat="43.480098" lon="12.0376609"><ele>601.0</ele><time>2026-04-04T07:51:01.309Z</time></trkpt><trkpt lat="43.4799866" lon="12.037681"><ele>599.0</ele><time>2026-04-04T07:51:03.309Z</time></trkpt><trkpt lat="43.4798649" lon="12.0377045"><ele>597.0</ele><time>2026-04-04T07:51:05.309Z</time></trkpt><trkpt lat="43.4797935" lon="12.0377415"><ele>595.0</ele><time>2026-04-04T07:51:06.308Z</time></trkpt><trkpt lat="43.4797256" lon="12.0378187"><ele>595.0</ele><time>2026-04-04T07:51:08.309Z</time></trkpt><trkpt lat="43.4796479" lon="12.0379266"><ele>595.0</ele><time>2026-04-04T07:51:10.309Z</time></trkpt><trkpt lat="43.4795662" lon="12.0380194"><ele>595.0</ele><time>2026-04-04T07:51:12.309Z</time></trkpt><trkpt lat="43.4794976" lon="12.0380738"><ele>595.0</ele><time>2026-04-04T07:51:14.309Z</time></trkpt><trkpt lat="43.4794089" lon="12.0381008"><ele>595.0</ele><time>2026-04-04T07:51:17.309Z</time></trkpt><trkpt lat="43.4793276" lon="12.0381011"><ele>593.8</ele><time>2026-04-04T07:51:19.309Z</time></trkpt><trkpt lat="43.4792063" lon="12.0380889"><ele>592.6</ele><time>2026-04-04T07:51:21.31Z</time></trkpt><trkpt lat="43.4791132" lon="12.0379694"><ele>591.4</ele><time>2026-04-04T07:51:23.309Z</time></trkpt><trkpt lat="43.4790859" lon="12.0378781"><ele>590.2</ele><time>2026-04-04T07:51:24.309Z</time></trkpt><trkpt lat="43.4790373" lon="12.0378039"><ele>589.0</ele><time>2026-04-04T07:51:25.309Z</time></trkpt><trkpt lat="43.4789877" lon="12.0377217"><ele>589.0</ele><time>2026-04-04T07:51:26.309Z</time></trkpt><trkpt lat="43.4789054" lon="12.0377491"><ele>589.0</ele><time>2026-04-04T07:51:28.309Z</time></trkpt><trkpt lat="43.478824" lon="12.0377215"><ele>589.0</ele><time>2026-04-04T07:51:30.309Z</time></trkpt><trkpt lat="43.4787354" lon="12.037694"><ele>589.0</ele><time>2026-04-04T07:51:32.309Z</time></trkpt><trkpt lat="43.4786415" lon="12.0376775"><ele>589.0</ele><time>2026-04-04T07:51:34.309Z</time></trkpt><trkpt lat="43.4785363" lon="12.0377154"><ele>589.0</ele><time>2026-04-04T07:51:36.309Z</time></trkpt><trkpt lat="43.4784721" lon="12.0377359"><ele>589.0</ele><time>2026-04-04T07:51:37.309Z</time></trkpt><trkpt lat="43.4783666" lon="12.0377744"><ele>589.0</ele><time>2026-04-04T07:51:39.309Z</time></trkpt><trkpt lat="43.4782942" lon="12.0378067"><ele>589.0</ele><time>2026-04-04T07:51:41.309Z</time></trkpt><trkpt lat="43.478215" lon="12.037864"><ele>589.0</ele><time>2026-04-04T07:51:43.308Z</time></trkpt><trkpt lat="43.4781272" lon="12.0378906"><ele>589.0</ele><time>2026-04-04T07:51:45.309Z</time></trkpt><trkpt lat="43.47808" lon="12.037957"><ele>589.0</ele><time>2026-04-04T07:51:46.308Z</time></trkpt><trkpt lat="43.4780462" lon="12.038058"><ele>589.0</ele><time>2026-04-04T07:51:47.309Z</time></trkpt><trkpt lat="43.4780125" lon="12.038145"><ele>589.0</ele><time>2026-04-04T07:51:48.309Z</time></trkpt><trkpt lat="43.4779432" lon="12.0382367"><ele>589.0</ele><time>2026-04-04T07:51:50.308Z</time></trkpt><trkpt lat="43.4778892" lon="12.038169"><ele>589.0</ele><time>2026-04-04T07:51:53.309Z</time></trkpt><trkpt lat="43.4778232" lon="12.0380176"><ele>589.0</ele><time>2026-04-04T07:51:56.308Z</time></trkpt><trkpt lat="43.4777782" lon="12.0379287"><ele>588.0</ele><time>2026-04-04T07:51:58.309Z</time></trkpt><trkpt lat="43.4777706" lon="12.0377884"><ele>587.0</ele><time>2026-04-04T07:52:00.309Z</time></trkpt><trkpt lat="43.4777813" lon="12.0376144"><ele>586.0</ele><time>2026-04-04T07:52:02.309Z</time></trkpt><trkpt lat="43.4777865" lon="12.0375156"><ele>585.0</ele><time>2026-04-04T07:52:03.309Z</time></trkpt><trkpt lat="43.4778109" lon="12.0373711"><ele>584.0</ele><time>2026-04-04T07:52:05.309Z</time></trkpt><trkpt lat="43.4779033" lon="12.0373923"><ele>589.8</ele><time>2026-04-04T07:53:54.308Z</time></trkpt><trkpt lat="43.4780141" lon="12.0373885"><ele>595.5999999999999</ele><time>2026-04-04T07:53:56.309Z</time></trkpt><trkpt lat="43.4781324" lon="12.0373346"><ele>601.4</ele><time>2026-04-04T07:53:58.309Z</time></trkpt><trkpt lat="43.4782155" lon="12.0373074"><ele>607.1999999999999</ele><time>2026-04-04T07:53:59.309Z</time></trkpt><trkpt lat="43.4782811" lon="12.0372798"><ele>613.0</ele><time>2026-04-04T07:54:00.309Z</time></trkpt><trkpt lat="43.478406" lon="12.0371664"><ele>613.0</ele><time>2026-04-04T07:54:02.308Z</time></trkpt><trkpt lat="43.4784809" lon="12.0370704"><ele>613.0</ele><time>2026-04-04T07:54:04.309Z</time></trkpt><trkpt lat="43.478503" lon="12.0369731"><ele>613.0</ele><time>2026-04-04T07:54:06.309Z</time></trkpt><trkpt lat="43.4785281" lon="12.0368697"><ele>613.0</ele><time>2026-04-04T07:54:08.309Z</time></trkpt><trkpt lat="43.4785492" lon="12.0367876"><ele>613.0</ele><time>2026-04-04T07:54:10.309Z</time></trkpt><trkpt lat="43.4785657" lon="12.0366981"><ele>613.0</ele><time>2026-04-04T07:54:12.309Z</time></trkpt><trkpt lat="43.4786174" lon="12.0366456"><ele>617.6666666666667</ele><time>2026-04-04T07:54:14.309Z</time></trkpt><trkpt lat="43.4786634" lon="12.0365696"><ele>622.3333333333334</ele><time>2026-04-04T07:54:16.309Z</time></trkpt><trkpt lat="43.4786762" lon="12.0364526"><ele>627.0</ele><time>2026-04-04T07:54:18.309Z</time></trkpt><trkpt lat="43.478628" lon="12.0363603"><ele>631.6666666666666</ele><time>2026-04-04T07:54:20.309Z</time></trkpt><trkpt lat="43.4785319" lon="12.0363427"><ele>636.3333333333333</ele><time>2026-04-04T07:54:22.308Z</time></trkpt><trkpt lat="43.4784597" lon="12.0363539"><ele>641.0</ele><time>2026-04-04T07:54:24.31Z</time></trkpt><trkpt lat="43.4783829" lon="12.0363268"><ele>641.0</ele><time>2026-04-04T07:54:26.31Z</time></trkpt><trkpt lat="43.4783357" lon="12.0362659"><ele>641.0</ele><time>2026-04-04T07:54:28.309Z</time></trkpt><trkpt lat="43.4782766" lon="12.0362107"><ele>641.0</ele><time>2026-04-04T07:54:30.384Z</time></trkpt><trkpt lat="43.4782467" lon="12.0361295"><ele>641.0</ele><time>2026-04-04T07:54:32.37Z</time></trkpt><trkpt lat="43.4782151" lon="12.0360364"><ele>641.0</ele><time>2026-04-04T07:54:34.309Z</time></trkpt><trkpt lat="43.478083" lon="12.0359451"><ele>641.0</ele><time>2026-04-04T07:54:36.308Z</time></trkpt><trkpt lat="43.4779872" lon="12.035901"><ele>639.5</ele><time>2026-04-04T07:54:38.309Z</time></trkpt><trkpt lat="43.4779176" lon="12.0358529"><ele>638.0</ele><time>2026-04-04T07:54:40.309Z</time></trkpt><trkpt lat="43.4778695" lon="12.0357897"><ele>636.5</ele><time>2026-04-04T07:54:42.309Z</time></trkpt><trkpt lat="43.4778031" lon="12.0357118"><ele>635.0</ele><time>2026-04-04T07:54:44.309Z</time></trkpt><trkpt lat="43.477742" lon="12.0356205"><ele>633.5</ele><time>2026-04-04T07:54:46.309Z</time></trkpt><trkpt lat="43.4776894" lon="12.035539"><ele>632.0</ele><time>2026-04-04T07:54:48.309Z</time></trkpt><trkpt lat="43.4776352" lon="12.0354796"><ele>636.0</ele><time>2026-04-04T07:54:50.309Z</time></trkpt><trkpt lat="43.4775553" lon="12.0354134"><ele>640.0</ele><time>2026-04-04T07:54:52.309Z</time></trkpt><trkpt lat="43.4774963" lon="12.0353613"><ele>644.0</ele><time>2026-04-04T07:54:54.309Z</time></trkpt><trkpt lat="43.4774326" lon="12.0352946"><ele>648.0</ele><time>2026-04-04T07:54:57.309Z</time></trkpt><trkpt lat="43.4773791" lon="12.0352125"><ele>652.0</ele><time>2026-04-04T07:55:02.308Z</time></trkpt><trkpt lat="43.4773357" lon="12.0351236"><ele>656.0</ele><time>2026-04-04T07:55:05.309Z</time></trkpt><trkpt lat="43.4772949" lon="12.0350204"><ele>656.2857142857142</ele><time>2026-04-04T07:55:08.309Z</time></trkpt><trkpt lat="43.47726" lon="12.0349448"><ele>656.5714285714286</ele><time>2026-04-04T07:55:15.309Z</time></trkpt><trkpt lat="43.4772181" lon="12.0348662"><ele>656.8571428571429</ele><time>2026-04-04T07:55:30.309Z</time></trkpt><trkpt lat="43.4771747" lon="12.03478"><ele>657.1428571428571</ele><time>2026-04-04T07:56:19.309Z</time></trkpt><trkpt lat="43.4771305" lon="12.0347103"><ele>657.4285714285714</ele><time>2026-04-04T07:56:25.308Z</time></trkpt><trkpt lat="43.4770653" lon="12.0346745"><ele>657.7142857142857</ele><time>2026-04-04T07:56:35.309Z</time></trkpt><trkpt lat="43.4770139" lon="12.0346232"><ele>658.0</ele><time>2026-04-04T07:56:38.309Z</time></trkpt><trkpt lat="43.4769564" lon="12.0345442"><ele>658.0</ele><time>2026-04-04T07:56:42.308Z</time></trkpt><trkpt lat="43.4768853" lon="12.0344518"><ele>658.0</ele><time>2026-04-04T07:56:44.309Z</time></trkpt><trkpt lat="43.4767995" lon="12.0343397"><ele>658.0</ele><time>2026-04-04T07:56:46.308Z</time></trkpt><trkpt lat="43.4767507" lon="12.0342554"><ele>658.0</ele><time>2026-04-04T07:56:48.308Z</time></trkpt><trkpt lat="43.4767433" lon="12.034167"><ele>658.0</ele><time>2026-04-04T07:56:50.309Z</time></trkpt><trkpt lat="43.4767082" lon="12.0340503"><ele>659.1666666666667</ele><time>2026-04-04T07:56:52.309Z</time></trkpt><trkpt lat="43.4766778" lon="12.0339482"><ele>660.3333333333334</ele><time>2026-04-04T07:56:54.31Z</time></trkpt><trkpt lat="43.4766551" lon="12.0338565"><ele>661.5</ele><time>2026-04-04T07:56:56.309Z</time></trkpt><trkpt lat="43.4766282" lon="12.033763"><ele>662.6666666666666</ele><time>2026-04-04T07:56:58.31Z</time></trkpt><trkpt lat="43.476603" lon="12.0336726"><ele>663.8333333333333</ele><time>2026-04-04T07:57:00.31Z</time></trkpt><trkpt lat="43.4765951" lon="12.0335538"><ele>665.0</ele><time>2026-04-04T07:57:04.31Z</time></trkpt><trkpt lat="43.4766087" lon="12.033458"><ele>665.0</ele><time>2026-04-04T07:57:06.31Z</time></trkpt><trkpt lat="43.4766208" lon="12.0333587"><ele>665.0</ele><time>2026-04-04T07:57:08.31Z</time></trkpt><trkpt lat="43.4766485" lon="12.0332766"><ele>665.0</ele><time>2026-04-04T07:57:10.309Z</time></trkpt><trkpt lat="43.4766861" lon="12.0331633"><ele>665.0</ele><time>2026-04-04T07:57:13.31Z</time></trkpt><trkpt lat="43.4767169" lon="12.0330476"><ele>665.0</ele><time>2026-04-04T07:57:16.31Z</time></trkpt><trkpt lat="43.4767608" lon="12.0329519"><ele>665.0</ele><time>2026-04-04T07:57:19.31Z</time></trkpt><trkpt lat="43.4768409" lon="12.0328979"><ele>664.8333333333333</ele><time>2026-04-04T07:57:22.31Z</time></trkpt><trkpt lat="43.4769309" lon="12.0328533"><ele>664.6666666666666</ele><time>2026-04-04T07:57:25.31Z</time></trkpt><trkpt lat="43.4770082" lon="12.0328493"><ele>664.5</ele><time>2026-04-04T07:57:28.309Z</time></trkpt><trkpt lat="43.477101" lon="12.0328744"><ele>664.3333333333334</ele><time>2026-04-04T07:57:31.31Z</time></trkpt><trkpt lat="43.4771811" lon="12.0328826"><ele>664.1666666666667</ele><time>2026-04-04T07:57:35.309Z</time></trkpt><trkpt lat="43.47725" lon="12.0329086"><ele>664.0</ele><time>2026-04-04T07:57:41.255Z</time></trkpt><trkpt lat="43.4773313" lon="12.0329226"><ele>666.8333333333334</ele><time>2026-04-04T07:57:44.235Z</time></trkpt><trkpt lat="43.4774126" lon="12.032941"><ele>669.6666666666667</ele><time>2026-04-04T07:57:47.382Z</time></trkpt><trkpt lat="43.4774782" lon="12.0329497"><ele>672.5</ele><time>2026-04-04T07:57:49.399Z</time></trkpt><trkpt lat="43.4775502" lon="12.0329688"><ele>675.3333333333334</ele><time>2026-04-04T07:57:51.309Z</time></trkpt><trkpt lat="43.4776139" lon="12.0329797"><ele>678.1666666666666</ele><time>2026-04-04T07:57:53.869Z</time></trkpt><trkpt lat="43.477713" lon="12.0330124"><ele>681.0</ele><time>2026-04-04T07:57:56.373Z</time></trkpt><trkpt lat="43.477789" lon="12.0330908"><ele>681.0000000000001</ele><time>2026-04-04T07:57:59.237Z</time></trkpt><trkpt lat="43.4778479" lon="12.0331754"><ele>681.0</ele><time>2026-04-04T07:58:00.309Z</time></trkpt><trkpt lat="43.4779111" lon="12.0332374"><ele>681.0</ele><time>2026-04-04T07:58:02.309Z</time></trkpt><trkpt lat="43.4779661" lon="12.0332846"><ele>681.0</ele><time>2026-04-04T07:58:04.369Z</time></trkpt><trkpt lat="43.4780322" lon="12.0333043"><ele>681.0</ele><time>2026-04-04T07:58:06.309Z</time></trkpt><trkpt lat="43.4780945" lon="12.0333493"><ele>681.0000000000001</ele><time>2026-04-04T07:58:09.259Z</time></trkpt><trkpt lat="43.4781617" lon="12.0333914"><ele>681.0</ele><time>2026-04-04T07:58:15.309Z</time></trkpt><trkpt lat="43.4782201" lon="12.0334329"><ele>683.8333333333334</ele><time>2026-04-04T07:58:18.309Z</time></trkpt><trkpt lat="43.4782943" lon="12.033464"><ele>686.6666666666666</ele><time>2026-04-04T07:58:22.315Z</time></trkpt><trkpt lat="43.4783542" lon="12.0335111"><ele>689.5</ele><time>2026-04-04T07:58:25.397Z</time></trkpt><trkpt lat="43.4784298" lon="12.0335597"><ele>692.3333333333333</ele><time>2026-04-04T07:58:28.308Z</time></trkpt><trkpt lat="43.4784936" lon="12.0335952"><ele>695.1666666666666</ele><time>2026-04-04T07:58:30.377Z</time></trkpt><trkpt lat="43.4785847" lon="12.0336347"><ele>698.0</ele><time>2026-04-04T07:58:32.38Z</time></trkpt><trkpt lat="43.478683" lon="12.0336539"><ele>699.8</ele><time>2026-04-04T07:58:34.254Z</time></trkpt><trkpt lat="43.4788477" lon="12.0336324"><ele>701.5999999999999</ele><time>2026-04-04T07:58:36.309Z</time></trkpt><trkpt lat="43.4789423" lon="12.0336299"><ele>703.4000000000001</ele><time>2026-04-04T07:58:37.31Z</time></trkpt><trkpt lat="43.4790455" lon="12.0336143"><ele>705.2</ele><time>2026-04-04T07:58:38.308Z</time></trkpt><trkpt lat="43.4791111" lon="12.0336036"><ele>707.0</ele><time>2026-04-04T07:58:39.309Z</time></trkpt><trkpt lat="43.4792161" lon="12.0335918"><ele>707.0</ele><time>2026-04-04T07:58:41.308Z</time></trkpt><trkpt lat="43.47928" lon="12.0335914"><ele>707.0</ele><time>2026-04-04T07:58:42.309Z</time></trkpt><trkpt lat="43.4794068" lon="12.0335868"><ele>707.0</ele><time>2026-04-04T07:58:44.309Z</time></trkpt><trkpt lat="43.4794777" lon="12.0335814"><ele>707.0</ele><time>2026-04-04T07:58:45.309Z</time></trkpt><trkpt lat="43.4795481" lon="12.0335756"><ele>707.0</ele><time>2026-04-04T07:58:46.309Z</time></trkpt><trkpt lat="43.4796174" lon="12.0335698"><ele>707.0</ele><time>2026-04-04T07:58:47.309Z</time></trkpt><trkpt lat="43.4797244" lon="12.0335577"><ele>707.1666666666666</ele><time>2026-04-04T07:58:49.309Z</time></trkpt><trkpt lat="43.4797928" lon="12.0335413"><ele>707.3333333333333</ele><time>2026-04-04T07:58:50.309Z</time></trkpt><trkpt lat="43.4798611" lon="12.0335063"><ele>707.5</ele><time>2026-04-04T07:58:51.309Z</time></trkpt><trkpt lat="43.4799572" lon="12.0334539"><ele>707.6666666666666</ele><time>2026-04-04T07:58:53.309Z</time></trkpt><trkpt lat="43.4800148" lon="12.0333672"><ele>707.8333333333334</ele><time>2026-04-04T07:58:55.308Z</time></trkpt><trkpt lat="43.4800253" lon="12.0332727"><ele>708.0</ele><time>2026-04-04T07:58:57.309Z</time></trkpt><trkpt lat="43.480053" lon="12.0333756"><ele>708.0</ele><time>2026-04-04T07:59:33.309Z</time></trkpt><trkpt lat="43.4800745" lon="12.0334597"><ele>708.0</ele><time>2026-04-04T07:59:37.27Z</time></trkpt><trkpt lat="43.4800534" lon="12.0333752"><ele>708.0</ele><time>2026-04-04T08:01:43.351Z</time></trkpt><trkpt lat="43.4800097" lon="12.0333038"><ele>708.0</ele><time>2026-04-04T08:01:50.395Z</time></trkpt><trkpt lat="43.4800269" lon="12.0332169"><ele>708.0</ele><time>2026-04-04T08:01:57.309Z</time></trkpt><trkpt lat="43.480029" lon="12.0330614"><ele>708.0</ele><time>2026-04-04T08:04:06.369Z</time></trkpt><trkpt lat="43.4800268" lon="12.0329605"><ele>708.0</ele><time>2026-04-04T08:04:07.309Z</time></trkpt><trkpt lat="43.479997" lon="12.0328096"><ele>708.3333333333334</ele><time>2026-04-04T08:04:09.308Z</time></trkpt><trkpt lat="43.479974" lon="12.0326774"><ele>708.6666666666666</ele><time>2026-04-04T08:04:11.309Z</time></trkpt><trkpt lat="43.4799491" lon="12.0325909"><ele>709.0</ele><time>2026-04-04T08:04:13.309Z</time></trkpt><trkpt lat="43.4799259" lon="12.0325024"><ele>709.3333333333333</ele><time>2026-04-04T08:04:17.309Z</time></trkpt><trkpt lat="43.4799329" lon="12.0323752"><ele>709.6666666666666</ele><time>2026-04-04T08:04:21.309Z</time></trkpt><trkpt lat="43.4799705" lon="12.0322456"><ele>710.0</ele><time>2026-04-04T08:04:23.309Z</time></trkpt><trkpt lat="43.4800033" lon="12.0321636"><ele>710.0</ele><time>2026-04-04T08:04:25.309Z</time></trkpt><trkpt lat="43.4800352" lon="12.0320617"><ele>710.0</ele><time>2026-04-04T08:04:27.309Z</time></trkpt><trkpt lat="43.480068" lon="12.0319709"><ele>710.0</ele><time>2026-04-04T08:04:28.309Z</time></trkpt><trkpt lat="43.4801147" lon="12.0318987"><ele>710.0</ele><time>2026-04-04T08:04:29.309Z</time></trkpt><trkpt lat="43.4801583" lon="12.0318254"><ele>710.0</ele><time>2026-04-04T08:04:30.309Z</time></trkpt><trkpt lat="43.4802345" lon="12.0316896"><ele>710.0</ele><time>2026-04-04T08:04:32.309Z</time></trkpt><trkpt lat="43.4803016" lon="12.0315461"><ele>710.0</ele><time>2026-04-04T08:04:34.309Z</time></trkpt><trkpt lat="43.4803666" lon="12.0315016"><ele>710.0</ele><time>2026-04-04T08:04:35.309Z</time></trkpt><trkpt lat="43.4804154" lon="12.0314383"><ele>710.0</ele><time>2026-04-04T08:04:36.309Z</time></trkpt><trkpt lat="43.4804591" lon="12.0313705"><ele>710.0</ele><time>2026-04-04T08:04:37.309Z</time></trkpt><trkpt lat="43.4805114" lon="12.0313188"><ele>710.0</ele><time>2026-04-04T08:04:38.309Z</time></trkpt><trkpt lat="43.4805597" lon="12.0312544"><ele>710.0</ele><time>2026-04-04T08:04:39.309Z</time></trkpt><trkpt lat="43.4806377" lon="12.0311528"><ele>710.0</ele><time>2026-04-04T08:04:41.31Z</time></trkpt><trkpt lat="43.4806759" lon="12.0310836"><ele>711.6666666666666</ele><time>2026-04-04T08:04:42.308Z</time></trkpt><trkpt lat="43.4807172" lon="12.0310039"><ele>713.3333333333333</ele><time>2026-04-04T08:04:43.309Z</time></trkpt><trkpt lat="43.4807551" lon="12.0309194"><ele>715.0</ele><time>2026-04-04T08:04:44.31Z</time></trkpt><trkpt lat="43.4807983" lon="12.0308482"><ele>716.6666666666666</ele><time>2026-04-04T08:04:45.308Z</time></trkpt><trkpt lat="43.4808956" lon="12.0307494"><ele>718.3333333333334</ele><time>2026-04-04T08:04:47.309Z</time></trkpt><trkpt lat="43.4809594" lon="12.0306753"><ele>720.0</ele><time>2026-04-04T08:04:49.31Z</time></trkpt><trkpt lat="43.4810098" lon="12.0305562"><ele>720.0</ele><time>2026-04-04T08:04:51.309Z</time></trkpt><trkpt lat="43.4810962" lon="12.0304191"><ele>720.0</ele><time>2026-04-04T08:04:53.308Z</time></trkpt><trkpt lat="43.4811455" lon="12.0303478"><ele>720.0</ele><time>2026-04-04T08:04:54.309Z</time></trkpt><trkpt lat="43.4811904" lon="12.0302827"><ele>720.0</ele><time>2026-04-04T08:04:55.31Z</time></trkpt><trkpt lat="43.4812822" lon="12.0301622"><ele>720.0</ele><time>2026-04-04T08:04:57.309Z</time></trkpt><trkpt lat="43.481325" lon="12.0300821"><ele>719.4</ele><time>2026-04-04T08:04:58.309Z</time></trkpt><trkpt lat="43.4813802" lon="12.0300027"><ele>718.8</ele><time>2026-04-04T08:04:59.309Z</time></trkpt><trkpt lat="43.4814996" lon="12.0298362"><ele>718.2</ele><time>2026-04-04T08:05:01.309Z</time></trkpt><trkpt lat="43.4815573" lon="12.0297675"><ele>717.6</ele><time>2026-04-04T08:05:02.308Z</time></trkpt><trkpt lat="43.481607" lon="12.0296956"><ele>717.0</ele><time>2026-04-04T08:05:03.309Z</time></trkpt><trkpt lat="43.4816878" lon="12.0296173"><ele>717.0</ele><time>2026-04-04T08:05:05.309Z</time></trkpt><trkpt lat="43.481703" lon="12.0294967"><ele>717.0</ele><time>2026-04-04T08:05:08.309Z</time></trkpt><trkpt lat="43.4816894" lon="12.0293944"><ele>717.0</ele><time>2026-04-04T08:05:10.309Z</time></trkpt><trkpt lat="43.4816265" lon="12.0292797"><ele>717.0</ele><time>2026-04-04T08:05:12.309Z</time></trkpt><trkpt lat="43.48158" lon="12.0291786"><ele>717.0</ele><time>2026-04-04T08:05:14.309Z</time></trkpt><trkpt lat="43.4816375" lon="12.0290914"><ele>717.0</ele><time>2026-04-04T08:05:17.309Z</time></trkpt><trkpt lat="43.4817381" lon="12.0290894"><ele>716.2</ele><time>2026-04-04T08:05:19.31Z</time></trkpt><trkpt lat="43.4818466" lon="12.0290673"><ele>715.4000000000001</ele><time>2026-04-04T08:05:21.309Z</time></trkpt><trkpt lat="43.4819433" lon="12.0290055"><ele>714.5999999999999</ele><time>2026-04-04T08:05:23.309Z</time></trkpt><trkpt lat="43.4819999" lon="12.028893"><ele>713.8</ele><time>2026-04-04T08:05:25.309Z</time></trkpt><trkpt lat="43.48205" lon="12.0287273"><ele>713.0</ele><time>2026-04-04T08:05:27.309Z</time></trkpt><trkpt lat="43.4820819" lon="12.028615"><ele>717.5999999999999</ele><time>2026-04-04T08:05:28.309Z</time></trkpt><trkpt lat="43.4821101" lon="12.028503"><ele>722.1999999999999</ele><time>2026-04-04T08:05:29.309Z</time></trkpt><trkpt lat="43.4821367" lon="12.0283977"><ele>726.8</ele><time>2026-04-04T08:05:30.308Z</time></trkpt><trkpt lat="43.48218" lon="12.0282777"><ele>731.4</ele><time>2026-04-04T08:05:31.309Z</time></trkpt><trkpt lat="43.4822244" lon="12.0281684"><ele>736.0</ele><time>2026-04-04T08:05:32.309Z</time></trkpt><trkpt lat="43.4823082" lon="12.0280403"><ele>736.4</ele><time>2026-04-04T08:05:34.309Z</time></trkpt><trkpt lat="43.4823697" lon="12.0279618"><ele>736.8</ele><time>2026-04-04T08:05:36.308Z</time></trkpt><trkpt lat="43.4824061" lon="12.0278849"><ele>737.1999999999999</ele><time>2026-04-04T08:05:37.309Z</time></trkpt><trkpt lat="43.4824719" lon="12.0277119"><ele>737.5999999999999</ele><time>2026-04-04T08:05:39.309Z</time></trkpt><trkpt lat="43.4825342" lon="12.0275844"><ele>738.0</ele><time>2026-04-04T08:05:41.309Z</time></trkpt><trkpt lat="43.4825972" lon="12.027479"><ele>737.0</ele><time>2026-04-04T08:05:43.31Z</time></trkpt><trkpt lat="43.4826439" lon="12.0273622"><ele>736.0</ele><time>2026-04-04T08:05:45.309Z</time></trkpt><trkpt lat="43.482703" lon="12.0272569"><ele>735.0</ele><time>2026-04-04T08:05:47.309Z</time></trkpt><trkpt lat="43.4827284" lon="12.0271766"><ele>734.0</ele><time>2026-04-04T08:05:48.309Z</time></trkpt><trkpt lat="43.4828002" lon="12.0270873"><ele>733.0</ele><time>2026-04-04T08:05:50.308Z</time></trkpt><trkpt lat="43.4828562" lon="12.0269957"><ele>732.0</ele><time>2026-04-04T08:05:52.309Z</time></trkpt><trkpt lat="43.4828717" lon="12.0268828"><ele>732.0</ele><time>2026-04-04T08:05:54.309Z</time></trkpt><trkpt lat="43.4828886" lon="12.0267884"><ele>732.0</ele><time>2026-04-04T08:05:56.309Z</time></trkpt><trkpt lat="43.4829242" lon="12.0266925"><ele>732.0</ele><time>2026-04-04T08:05:59.31Z</time></trkpt><trkpt lat="43.4829562" lon="12.026604"><ele>732.0</ele><time>2026-04-04T08:06:02.309Z</time></trkpt><trkpt lat="43.4829773" lon="12.026501"><ele>732.0</ele><time>2026-04-04T08:06:05.309Z</time></trkpt><trkpt lat="43.48304" lon="12.0263401"><ele>732.0</ele><time>2026-04-04T08:06:07.309Z</time></trkpt><trkpt lat="43.4830753" lon="12.0262387"><ele>733.2</ele><time>2026-04-04T08:06:08.309Z</time></trkpt><trkpt lat="43.483118" lon="12.0261117"><ele>734.4000000000001</ele><time>2026-04-04T08:06:09.309Z</time></trkpt><trkpt lat="43.4831628" lon="12.0259764"><ele>735.5999999999999</ele><time>2026-04-04T08:06:10.309Z</time></trkpt><trkpt lat="43.48321" lon="12.0258342"><ele>736.8</ele><time>2026-04-04T08:06:11.308Z</time></trkpt><trkpt lat="43.4832554" lon="12.0257"><ele>738.0</ele><time>2026-04-04T08:06:12.309Z</time></trkpt><trkpt lat="43.483299" lon="12.0255756"><ele>738.0</ele><time>2026-04-04T08:06:13.309Z</time></trkpt><trkpt lat="43.4833384" lon="12.0254557"><ele>738.0</ele><time>2026-04-04T08:06:14.308Z</time></trkpt><trkpt lat="43.4833716" lon="12.0253421"><ele>738.0</ele><time>2026-04-04T08:06:15.309Z</time></trkpt><trkpt lat="43.4833995" lon="12.025221"><ele>738.0</ele><time>2026-04-04T08:06:16.31Z</time></trkpt><trkpt lat="43.4834283" lon="12.0251012"><ele>738.0</ele><time>2026-04-04T08:06:17.309Z</time></trkpt><trkpt lat="43.4834562" lon="12.0249826"><ele>737.5</ele><time>2026-04-04T08:06:18.309Z</time></trkpt><trkpt lat="43.4834899" lon="12.0248689"><ele>737.0</ele><time>2026-04-04T08:06:19.309Z</time></trkpt><trkpt lat="43.4835394" lon="12.0247653"><ele>736.5</ele><time>2026-04-04T08:06:20.309Z</time></trkpt><trkpt lat="43.4835992" lon="12.0246798"><ele>736.0</ele><time>2026-04-04T08:06:21.309Z</time></trkpt><trkpt lat="43.4836658" lon="12.0246029"><ele>735.5</ele><time>2026-04-04T08:06:22.309Z</time></trkpt><trkpt lat="43.4837352" lon="12.024525"><ele>735.0</ele><time>2026-04-04T08:06:23.308Z</time></trkpt><trkpt lat="43.4838079" lon="12.0244448"><ele>735.0</ele><time>2026-04-04T08:06:24.308Z</time></trkpt><trkpt lat="43.4838791" lon="12.024378"><ele>735.0</ele><time>2026-04-04T08:06:25.309Z</time></trkpt><trkpt lat="43.4839531" lon="12.0242927"><ele>735.0</ele><time>2026-04-04T08:06:26.309Z</time></trkpt><trkpt lat="43.4840111" lon="12.0242042"><ele>735.0</ele><time>2026-04-04T08:06:27.309Z</time></trkpt><trkpt lat="43.4840707" lon="12.0241099"><ele>735.0</ele><time>2026-04-04T08:06:28.309Z</time></trkpt><trkpt lat="43.4841108" lon="12.0240061"><ele>735.0</ele><time>2026-04-04T08:06:29.309Z</time></trkpt><trkpt lat="43.4840937" lon="12.0238763"><ele>733.5</ele><time>2026-04-04T08:06:30.309Z</time></trkpt><trkpt lat="43.4840964" lon="12.0237541"><ele>732.0</ele><time>2026-04-04T08:06:31.309Z</time></trkpt><trkpt lat="43.4840994" lon="12.0236294"><ele>730.5</ele><time>2026-04-04T08:06:32.308Z</time></trkpt><trkpt lat="43.484098" lon="12.0235072"><ele>729.0</ele><time>2026-04-04T08:06:33.309Z</time></trkpt><trkpt lat="43.4840876" lon="12.0233793"><ele>727.5</ele><time>2026-04-04T08:06:34.309Z</time></trkpt><trkpt lat="43.4840645" lon="12.0232741"><ele>726.0</ele><time>2026-04-04T08:06:35.309Z</time></trkpt><trkpt lat="43.4840316" lon="12.0231727"><ele>724.8</ele><time>2026-04-04T08:06:36.309Z</time></trkpt><trkpt lat="43.4839791" lon="12.0230815"><ele>723.5999999999999</ele><time>2026-04-04T08:06:37.309Z</time></trkpt><trkpt lat="43.4838969" lon="12.0229877"><ele>722.4</ele><time>2026-04-04T08:06:38.309Z</time></trkpt><trkpt lat="43.4838244" lon="12.0229048"><ele>721.2</ele><time>2026-04-04T08:06:39.31Z</time></trkpt><trkpt lat="43.4837539" lon="12.0228201"><ele>720.0</ele><time>2026-04-04T08:06:40.309Z</time></trkpt><trkpt lat="43.4836989" lon="12.0227329"><ele>717.8333333333334</ele><time>2026-04-04T08:06:41.309Z</time></trkpt><trkpt lat="43.4836558" lon="12.0226335"><ele>715.6666666666666</ele><time>2026-04-04T08:06:42.309Z</time></trkpt><trkpt lat="43.4836229" lon="12.0225252"><ele>713.5</ele><time>2026-04-04T08:06:43.31Z</time></trkpt><trkpt lat="43.4835889" lon="12.0224118"><ele>711.3333333333333</ele><time>2026-04-04T08:06:44.309Z</time></trkpt><trkpt lat="43.4835529" lon="12.0223044"><ele>709.1666666666666</ele><time>2026-04-04T08:06:45.309Z</time></trkpt><trkpt lat="43.4835149" lon="12.0221994"><ele>707.0</ele><time>2026-04-04T08:06:46.309Z</time></trkpt><trkpt lat="43.4834879" lon="12.0220883"><ele>707.0</ele><time>2026-04-04T08:06:47.309Z</time></trkpt><trkpt lat="43.4834598" lon="12.0219717"><ele>707.0</ele><time>2026-04-04T08:06:48.308Z</time></trkpt><trkpt lat="43.4834325" lon="12.021869"><ele>707.0</ele><time>2026-04-04T08:06:49.31Z</time></trkpt><trkpt lat="43.4834203" lon="12.0217606"><ele>707.0</ele><time>2026-04-04T08:06:50.308Z</time></trkpt><trkpt lat="43.4833672" lon="12.0216216"><ele>707.0</ele><time>2026-04-04T08:06:52.309Z</time></trkpt><trkpt lat="43.4833248" lon="12.0215495"><ele>707.0</ele><time>2026-04-04T08:06:53.308Z</time></trkpt><trkpt lat="43.4832602" lon="12.0214915"><ele>704.4000000000001</ele><time>2026-04-04T08:06:54.309Z</time></trkpt><trkpt lat="43.4831957" lon="12.0214229"><ele>701.8000000000001</ele><time>2026-04-04T08:06:55.309Z</time></trkpt><trkpt lat="43.4831212" lon="12.0213589"><ele>699.2</ele><time>2026-04-04T08:06:56.309Z</time></trkpt><trkpt lat="43.483047" lon="12.0212695"><ele>696.6</ele><time>2026-04-04T08:06:57.309Z</time></trkpt><trkpt lat="43.4829748" lon="12.0211858"><ele>694.0</ele><time>2026-04-04T08:06:58.309Z</time></trkpt><trkpt lat="43.4829077" lon="12.0210976"><ele>693.2</ele><time>2026-04-04T08:06:59.308Z</time></trkpt><trkpt lat="43.4828319" lon="12.0210012"><ele>692.4000000000001</ele><time>2026-04-04T08:07:00.309Z</time></trkpt><trkpt lat="43.4827623" lon="12.0209083"><ele>691.6</ele><time>2026-04-04T08:07:01.309Z</time></trkpt><trkpt lat="43.4827009" lon="12.0208085"><ele>690.8</ele><time>2026-04-04T08:07:02.309Z</time></trkpt><trkpt lat="43.4826433" lon="12.0207072"><ele>690.0</ele><time>2026-04-04T08:07:03.309Z</time></trkpt><trkpt lat="43.4825971" lon="12.0205977"><ele>689.6666666666666</ele><time>2026-04-04T08:07:04.309Z</time></trkpt><trkpt lat="43.4825633" lon="12.0204804"><ele>689.3333333333334</ele><time>2026-04-04T08:07:05.309Z</time></trkpt><trkpt lat="43.4825339" lon="12.0203588"><ele>689.0</ele><time>2026-04-04T08:07:06.308Z</time></trkpt><trkpt lat="43.48252" lon="12.0202386"><ele>688.6666666666667</ele><time>2026-04-04T08:07:07.309Z</time></trkpt><trkpt lat="43.4825168" lon="12.0201203"><ele>688.3333333333334</ele><time>2026-04-04T08:07:08.31Z</time></trkpt><trkpt lat="43.4825306" lon="12.0200049"><ele>688.0</ele><time>2026-04-04T08:07:09.309Z</time></trkpt><trkpt lat="43.4825442" lon="12.0198971"><ele>688.0</ele><time>2026-04-04T08:07:10.309Z</time></trkpt><trkpt lat="43.4825546" lon="12.0197912"><ele>688.0</ele><time>2026-04-04T08:07:11.309Z</time></trkpt><trkpt lat="43.4825536" lon="12.0196816"><ele>688.0</ele><time>2026-04-04T08:07:12.309Z</time></trkpt><trkpt lat="43.4825476" lon="12.0195778"><ele>688.0</ele><time>2026-04-04T08:07:13.309Z</time></trkpt><trkpt lat="43.4825295" lon="12.0194751"><ele>688.0</ele><time>2026-04-04T08:07:14.309Z</time></trkpt><trkpt lat="43.4825108" lon="12.0193815"><ele>688.0</ele><time>2026-04-04T08:07:15.309Z</time></trkpt><trkpt lat="43.4824449" lon="12.0193088"><ele>688.0</ele><time>2026-04-04T08:07:16.308Z</time></trkpt><trkpt lat="43.4823831" lon="12.0192239"><ele>688.0</ele><time>2026-04-04T08:07:17.309Z</time></trkpt><trkpt lat="43.4823178" lon="12.019153"><ele>688.0</ele><time>2026-04-04T08:07:18.31Z</time></trkpt><trkpt lat="43.4822552" lon="12.0190901"><ele>688.0</ele><time>2026-04-04T08:07:19.309Z</time></trkpt><trkpt lat="43.482184" lon="12.0190371"><ele>688.0</ele><time>2026-04-04T08:07:20.309Z</time></trkpt><trkpt lat="43.4820922" lon="12.019025"><ele>688.0</ele><time>2026-04-04T08:07:21.308Z</time></trkpt><trkpt lat="43.4820186" lon="12.0190355"><ele>685.3333333333334</ele><time>2026-04-04T08:07:22.31Z</time></trkpt><trkpt lat="43.4819487" lon="12.0190618"><ele>682.6666666666667</ele><time>2026-04-04T08:07:23.309Z</time></trkpt><trkpt lat="43.4818801" lon="12.0190844"><ele>680.0</ele><time>2026-04-04T08:07:24.309Z</time></trkpt><trkpt lat="43.4818117" lon="12.0190936"><ele>677.3333333333334</ele><time>2026-04-04T08:07:25.309Z</time></trkpt><trkpt lat="43.4817163" lon="12.0189972"><ele>674.6666666666666</ele><time>2026-04-04T08:07:27.31Z</time></trkpt><trkpt lat="43.481689" lon="12.0189164"><ele>672.0</ele><time>2026-04-04T08:07:28.309Z</time></trkpt><trkpt lat="43.4816941" lon="12.0188291"><ele>672.0</ele><time>2026-04-04T08:07:29.309Z</time></trkpt><trkpt lat="43.4817222" lon="12.0187413"><ele>672.0</ele><time>2026-04-04T08:07:30.309Z</time></trkpt><trkpt lat="43.4817652" lon="12.0186515"><ele>672.0</ele><time>2026-04-04T08:07:31.308Z</time></trkpt><trkpt lat="43.4818225" lon="12.0185733"><ele>672.0</ele><time>2026-04-04T08:07:32.309Z</time></trkpt><trkpt lat="43.4818811" lon="12.0184898"><ele>672.0</ele><time>2026-04-04T08:07:33.309Z</time></trkpt><trkpt lat="43.4819379" lon="12.0184093"><ele>672.0</ele><time>2026-04-04T08:07:34.31Z</time></trkpt><trkpt lat="43.4819971" lon="12.0183398"><ele>672.8333333333334</ele><time>2026-04-04T08:07:35.309Z</time></trkpt><trkpt lat="43.4820627" lon="12.018269"><ele>673.6666666666666</ele><time>2026-04-04T08:07:36.309Z</time></trkpt><trkpt lat="43.4821232" lon="12.0182035"><ele>674.5</ele><time>2026-04-04T08:07:37.309Z</time></trkpt><trkpt lat="43.4821822" lon="12.0181495"><ele>675.3333333333333</ele><time>2026-04-04T08:07:38.309Z</time></trkpt><trkpt lat="43.4822395" lon="12.0181017"><ele>676.1666666666666</ele><time>2026-04-04T08:07:39.309Z</time></trkpt><trkpt lat="43.4823592" lon="12.0180338"><ele>677.0</ele><time>2026-04-04T08:07:41.309Z</time></trkpt><trkpt lat="43.4824811" lon="12.0179758"><ele>677.0</ele><time>2026-04-04T08:07:43.309Z</time></trkpt><trkpt lat="43.4825372" lon="12.0179329"><ele>677.0</ele><time>2026-04-04T08:07:44.309Z</time></trkpt><trkpt lat="43.4826303" lon="12.0178247"><ele>677.0</ele><time>2026-04-04T08:07:46.308Z</time></trkpt><trkpt lat="43.4826788" lon="12.0177641"><ele>677.0</ele><time>2026-04-04T08:07:47.309Z</time></trkpt><trkpt lat="43.4827237" lon="12.0176896"><ele>677.0</ele><time>2026-04-04T08:07:48.309Z</time></trkpt><trkpt lat="43.4827977" lon="12.0175919"><ele>677.0</ele><time>2026-04-04T08:07:50.308Z</time></trkpt><trkpt lat="43.4828593" lon="12.0175268"><ele>675.8333333333333</ele><time>2026-04-04T08:07:52.309Z</time></trkpt><trkpt lat="43.4829208" lon="12.0174623"><ele>674.6666666666666</ele><time>2026-04-04T08:07:54.308Z</time></trkpt><trkpt lat="43.4830074" lon="12.0174342"><ele>673.5</ele><time>2026-04-04T08:07:56.309Z</time></trkpt><trkpt lat="43.4830703" lon="12.0173667"><ele>672.3333333333334</ele><time>2026-04-04T08:07:58.31Z</time></trkpt><trkpt lat="43.4831027" lon="12.017271"><ele>671.1666666666667</ele><time>2026-04-04T08:08:00.309Z</time></trkpt><trkpt lat="43.4831434" lon="12.0171537"><ele>670.0</ele><time>2026-04-04T08:08:02.309Z</time></trkpt><trkpt lat="43.4831144" lon="12.0170441"><ele>670.0</ele><time>2026-04-04T08:08:04.309Z</time></trkpt><trkpt lat="43.483044" lon="12.0169885"><ele>670.0</ele><time>2026-04-04T08:08:06.309Z</time></trkpt><trkpt lat="43.4829814" lon="12.0169189"><ele>670.0</ele><time>2026-04-04T08:08:08.31Z</time></trkpt><trkpt lat="43.4829126" lon="12.0168224"><ele>670.0</ele><time>2026-04-04T08:08:11.309Z</time></trkpt><trkpt lat="43.4828722" lon="12.0167435"><ele>670.0</ele><time>2026-04-04T08:08:13.309Z</time></trkpt><trkpt lat="43.4828594" lon="12.0166379"><ele>670.0</ele><time>2026-04-04T08:08:15.308Z</time></trkpt><trkpt lat="43.4828402" lon="12.0165529"><ele>674.6666666666667</ele><time>2026-04-04T08:08:16.308Z</time></trkpt><trkpt lat="43.4827797" lon="12.0164401"><ele>679.3333333333334</ele><time>2026-04-04T08:08:18.309Z</time></trkpt><trkpt lat="43.4827272" lon="12.0163645"><ele>684.0</ele><time>2026-04-04T08:08:20.309Z</time></trkpt><trkpt lat="43.4826805" lon="12.0163051"><ele>688.6666666666666</ele><time>2026-04-04T08:08:22.309Z</time></trkpt><trkpt lat="43.4826302" lon="12.0162105"><ele>693.3333333333333</ele><time>2026-04-04T08:08:24.309Z</time></trkpt><trkpt lat="43.4825983" lon="12.0161315"><ele>698.0</ele><time>2026-04-04T08:08:25.309Z</time></trkpt><trkpt lat="43.4825476" lon="12.0160281"><ele>698.0</ele><time>2026-04-04T08:08:27.309Z</time></trkpt><trkpt lat="43.4825282" lon="12.015909"><ele>698.0</ele><time>2026-04-04T08:08:29.309Z</time></trkpt><trkpt lat="43.4825459" lon="12.0158141"><ele>698.0</ele><time>2026-04-04T08:08:31.309Z</time></trkpt><trkpt lat="43.4825298" lon="12.0156934"><ele>698.0</ele><time>2026-04-04T08:08:32.31Z</time></trkpt><trkpt lat="43.4825002" lon="12.0155887"><ele>698.0</ele><time>2026-04-04T08:08:33.309Z</time></trkpt><trkpt lat="43.4824465" lon="12.0154578"><ele>698.0</ele><time>2026-04-04T08:08:35.309Z</time></trkpt><trkpt lat="43.4824196" lon="12.0153396"><ele>699.6666666666666</ele><time>2026-04-04T08:08:37.309Z</time></trkpt><trkpt lat="43.4823929" lon="12.0152574"><ele>701.3333333333333</ele><time>2026-04-04T08:08:38.309Z</time></trkpt><trkpt lat="43.4823658" lon="12.015175"><ele>703.0</ele><time>2026-04-04T08:08:39.309Z</time></trkpt><trkpt lat="43.4823302" lon="12.0150628"><ele>704.6666666666666</ele><time>2026-04-04T08:08:40.309Z</time></trkpt><trkpt lat="43.4822776" lon="12.0150058"><ele>706.3333333333334</ele><time>2026-04-04T08:08:41.309Z</time></trkpt><trkpt lat="43.4822139" lon="12.0149256"><ele>708.0</ele><time>2026-04-04T08:08:42.309Z</time></trkpt><trkpt lat="43.482118" lon="12.0148686"><ele>709.1666666666666</ele><time>2026-04-04T08:08:44.309Z</time></trkpt><trkpt lat="43.4820659" lon="12.0147766"><ele>710.3333333333334</ele><time>2026-04-04T08:08:46.31Z</time></trkpt><trkpt lat="43.4820331" lon="12.0146603"><ele>711.5</ele><time>2026-04-04T08:08:48.309Z</time></trkpt><trkpt lat="43.4820057" lon="12.0145506"><ele>712.6666666666667</ele><time>2026-04-04T08:08:50.308Z</time></trkpt><trkpt lat="43.481983" lon="12.0144535"><ele>713.8333333333334</ele><time>2026-04-04T08:08:52.309Z</time></trkpt><trkpt lat="43.4819556" lon="12.0143623"><ele>715.0</ele><time>2026-04-04T08:08:55.309Z</time></trkpt><trkpt lat="43.4819514" lon="12.0142396"><ele>716.0</ele><time>2026-04-04T08:08:58.309Z</time></trkpt><trkpt lat="43.4819209" lon="12.0141464"><ele>717.0</ele><time>2026-04-04T08:09:00.309Z</time></trkpt><trkpt lat="43.4819444" lon="12.0140127"><ele>718.0</ele><time>2026-04-04T08:09:02.309Z</time></trkpt><trkpt lat="43.4820165" lon="12.0139614"><ele>719.0</ele><time>2026-04-04T08:09:05.309Z</time></trkpt><trkpt lat="43.4820854" lon="12.0139235"><ele>720.0</ele><time>2026-04-04T08:09:07.31Z</time></trkpt><trkpt lat="43.4821779" lon="12.0138934"><ele>721.0</ele><time>2026-04-04T08:09:09.31Z</time></trkpt><trkpt lat="43.4822319" lon="12.0138311"><ele>723.0</ele><time>2026-04-04T08:09:11.31Z</time></trkpt><trkpt lat="43.4822644" lon="12.0137544"><ele>725.0</ele><time>2026-04-04T08:09:13.31Z</time></trkpt><trkpt lat="43.4822754" lon="12.0136684"><ele>727.0</ele><time>2026-04-04T08:09:17.31Z</time></trkpt><trkpt lat="43.4823193" lon="12.0135164"><ele>729.0</ele><time>2026-04-04T08:09:20.31Z</time></trkpt><trkpt lat="43.482351" lon="12.0134298"><ele>731.0</ele><time>2026-04-04T08:09:22.31Z</time></trkpt><trkpt lat="43.4823613" lon="12.0133309"><ele>733.0</ele><time>2026-04-04T08:09:25.31Z</time></trkpt><trkpt lat="43.4823262" lon="12.0132128"><ele>734.2</ele><time>2026-04-04T08:09:28.31Z</time></trkpt><trkpt lat="43.482294" lon="12.0131161"><ele>735.4</ele><time>2026-04-04T08:09:30.31Z</time></trkpt><trkpt lat="43.4823024" lon="12.0129614"><ele>736.6</ele><time>2026-04-04T08:09:32.31Z</time></trkpt><trkpt lat="43.4823002" lon="12.0128708"><ele>737.8000000000001</ele><time>2026-04-04T08:09:33.31Z</time></trkpt><trkpt lat="43.4823013" lon="12.0127277"><ele>739.0</ele><time>2026-04-04T08:09:35.31Z</time></trkpt><trkpt lat="43.4823444" lon="12.01259"><ele>741.4000000000001</ele><time>2026-04-04T08:09:37.31Z</time></trkpt><trkpt lat="43.4824085" lon="12.0124517"><ele>743.8</ele><time>2026-04-04T08:09:39.31Z</time></trkpt><trkpt lat="43.4824467" lon="12.0123501"><ele>746.2</ele><time>2026-04-04T08:09:41.31Z</time></trkpt><trkpt lat="43.4824672" lon="12.0122293"><ele>748.5999999999999</ele><time>2026-04-04T08:09:43.31Z</time></trkpt><trkpt lat="43.4824944" lon="12.0120671"><ele>751.0</ele><time>2026-04-04T08:09:45.31Z</time></trkpt><trkpt lat="43.4824919" lon="12.0119242"><ele>751.0</ele><time>2026-04-04T08:09:47.31Z</time></trkpt><trkpt lat="43.4825206" lon="12.0117962"><ele>751.0</ele><time>2026-04-04T08:09:49.309Z</time></trkpt><trkpt lat="43.4825458" lon="12.0116513"><ele>751.0</ele><time>2026-04-04T08:09:51.31Z</time></trkpt><trkpt lat="43.4825768" lon="12.0115419"><ele>751.0</ele><time>2026-04-04T08:09:53.31Z</time></trkpt><trkpt lat="43.48261" lon="12.0113899"><ele>751.0</ele><time>2026-04-04T08:09:55.31Z</time></trkpt><trkpt lat="43.4826658" lon="12.0112499"><ele>752.6666666666667</ele><time>2026-04-04T08:09:57.31Z</time></trkpt><trkpt lat="43.4827011" lon="12.0111267"><ele>754.3333333333334</ele><time>2026-04-04T08:09:59.31Z</time></trkpt><trkpt lat="43.4827298" lon="12.0109916"><ele>756.0</ele><time>2026-04-04T08:10:01.309Z</time></trkpt><trkpt lat="43.4827658" lon="12.0108985"><ele>757.6666666666666</ele><time>2026-04-04T08:10:02.31Z</time></trkpt><trkpt lat="43.4827887" lon="12.0108056"><ele>759.3333333333333</ele><time>2026-04-04T08:10:03.31Z</time></trkpt><trkpt lat="43.4827979" lon="12.0107132"><ele>761.0</ele><time>2026-04-04T08:10:04.31Z</time></trkpt><trkpt lat="43.4827746" lon="12.0105771"><ele>761.3333333333333</ele><time>2026-04-04T08:10:06.31Z</time></trkpt><trkpt lat="43.4827544" lon="12.010443"><ele>761.6666666666666</ele><time>2026-04-04T08:10:08.31Z</time></trkpt><trkpt lat="43.4827756" lon="12.0103115"><ele>762.0</ele><time>2026-04-04T08:10:10.31Z</time></trkpt><trkpt lat="43.4828195" lon="12.0102203"><ele>762.3333333333334</ele><time>2026-04-04T08:10:12.309Z</time></trkpt><trkpt lat="43.4828665" lon="12.0101108"><ele>762.6666666666667</ele><time>2026-04-04T08:10:15.31Z</time></trkpt><trkpt lat="43.4828858" lon="12.0100055"><ele>763.0</ele><time>2026-04-04T08:10:17.311Z</time></trkpt><trkpt lat="43.4829097" lon="12.0098941"><ele>758.5999999999999</ele><time>2026-04-04T08:10:19.31Z</time></trkpt><trkpt lat="43.4829339" lon="12.0098062"><ele>754.1999999999999</ele><time>2026-04-04T08:10:20.31Z</time></trkpt><trkpt lat="43.4829737" lon="12.0096493"><ele>749.8</ele><time>2026-04-04T08:10:22.31Z</time></trkpt><trkpt lat="43.4830035" lon="12.009566"><ele>745.4</ele><time>2026-04-04T08:10:23.31Z</time></trkpt><trkpt lat="43.4830696" lon="12.0094431"><ele>741.0</ele><time>2026-04-04T08:10:25.31Z</time></trkpt><trkpt lat="43.4831301" lon="12.0093174"><ele>741.0</ele><time>2026-04-04T08:10:27.31Z</time></trkpt><trkpt lat="43.4831546" lon="12.0091992"><ele>741.0</ele><time>2026-04-04T08:10:29.31Z</time></trkpt><trkpt lat="43.483111" lon="12.0091014"><ele>741.0</ele><time>2026-04-04T08:10:31.31Z</time></trkpt><trkpt lat="43.4830421" lon="12.0090226"><ele>741.0</ele><time>2026-04-04T08:10:33.31Z</time></trkpt><trkpt lat="43.4829684" lon="12.0089897"><ele>741.0</ele><time>2026-04-04T08:10:34.311Z</time></trkpt><trkpt lat="43.4828377" lon="12.0089573"><ele>741.0</ele><time>2026-04-04T08:10:36.31Z</time></trkpt><trkpt lat="43.4827669" lon="12.0089293"><ele>741.0</ele><time>2026-04-04T08:10:37.31Z</time></trkpt><trkpt lat="43.4826581" lon="12.0088503"><ele>741.0</ele><time>2026-04-04T08:10:39.31Z</time></trkpt><trkpt lat="43.4825927" lon="12.0088131"><ele>741.0</ele><time>2026-04-04T08:10:40.31Z</time></trkpt><trkpt lat="43.4825211" lon="12.0087647"><ele>741.0</ele><time>2026-04-04T08:10:41.31Z</time></trkpt><trkpt lat="43.4824652" lon="12.0087023"><ele>741.0</ele><time>2026-04-04T08:10:42.31Z</time></trkpt><trkpt lat="43.4824116" lon="12.0086453"><ele>741.0</ele><time>2026-04-04T08:10:43.31Z</time></trkpt><trkpt lat="43.4823533" lon="12.0085967"><ele>741.0</ele><time>2026-04-04T08:10:44.31Z</time></trkpt><trkpt lat="43.4822571" lon="12.0085692"><ele>741.0</ele><time>2026-04-04T08:10:46.31Z</time></trkpt><trkpt lat="43.4821667" lon="12.0085576"><ele>741.0</ele><time>2026-04-04T08:10:48.31Z</time></trkpt><trkpt lat="43.4820668" lon="12.008506"><ele>741.0</ele><time>2026-04-04T08:10:50.311Z</time></trkpt><trkpt lat="43.4819521" lon="12.0084774"><ele>741.4</ele><time>2026-04-04T08:10:52.31Z</time></trkpt><trkpt lat="43.4818524" lon="12.0084056"><ele>741.8</ele><time>2026-04-04T08:10:54.31Z</time></trkpt><trkpt lat="43.4817823" lon="12.0083349"><ele>742.1999999999999</ele><time>2026-04-04T08:10:56.31Z</time></trkpt><trkpt lat="43.4817443" lon="12.0082517"><ele>742.5999999999999</ele><time>2026-04-04T08:10:58.31Z</time></trkpt><trkpt lat="43.4817182" lon="12.0081239"><ele>743.0</ele><time>2026-04-04T08:11:01.31Z</time></trkpt><trkpt lat="43.4816675" lon="12.0079849"><ele>741.5999999999999</ele><time>2026-04-04T08:11:03.31Z</time></trkpt><trkpt lat="43.4816241" lon="12.0078873"><ele>740.1999999999999</ele><time>2026-04-04T08:11:05.31Z</time></trkpt><trkpt lat="43.4815311" lon="12.0077945"><ele>738.8</ele><time>2026-04-04T08:11:07.309Z</time></trkpt><trkpt lat="43.4814816" lon="12.0077149"><ele>737.4</ele><time>2026-04-04T08:11:09.31Z</time></trkpt><trkpt lat="43.4814289" lon="12.007631"><ele>736.0</ele><time>2026-04-04T08:11:11.309Z</time></trkpt><trkpt lat="43.4813317" lon="12.0075311"><ele>736.75</ele><time>2026-04-04T08:11:13.31Z</time></trkpt><trkpt lat="43.4812314" lon="12.0074264"><ele>737.5</ele><time>2026-04-04T08:11:15.31Z</time></trkpt><trkpt lat="43.481124" lon="12.0073689"><ele>738.25</ele><time>2026-04-04T08:11:17.31Z</time></trkpt><trkpt lat="43.4810477" lon="12.0072874"><ele>739.0</ele><time>2026-04-04T08:11:19.31Z</time></trkpt><trkpt lat="43.4809607" lon="12.0071805"><ele>739.0</ele><time>2026-04-04T08:11:21.31Z</time></trkpt><trkpt lat="43.4808897" lon="12.0070755"><ele>739.0</ele><time>2026-04-04T08:11:23.309Z</time></trkpt><trkpt lat="43.4808137" lon="12.0069852"><ele>739.0</ele><time>2026-04-04T08:11:25.31Z</time></trkpt><trkpt lat="43.4807552" lon="12.0069057"><ele>739.0</ele><time>2026-04-04T08:11:26.31Z</time></trkpt><trkpt lat="43.4807023" lon="12.0068386"><ele>739.0</ele><time>2026-04-04T08:11:27.311Z</time></trkpt><trkpt lat="43.4806541" lon="12.006768"><ele>739.0</ele><time>2026-04-04T08:11:28.31Z</time></trkpt><trkpt lat="43.4806096" lon="12.0066862"><ele>739.0</ele><time>2026-04-04T08:11:29.31Z</time></trkpt><trkpt lat="43.4805692" lon="12.0066099"><ele>739.0</ele><time>2026-04-04T08:11:30.311Z</time></trkpt><trkpt lat="43.480525" lon="12.0065463"><ele>739.0</ele><time>2026-04-04T08:11:31.31Z</time></trkpt><trkpt lat="43.4804923" lon="12.0064676"><ele>739.0</ele><time>2026-04-04T08:11:32.31Z</time></trkpt><trkpt lat="43.480453" lon="12.0063949"><ele>739.0</ele><time>2026-04-04T08:11:33.31Z</time></trkpt><trkpt lat="43.4804159" lon="12.0063239"><ele>739.0</ele><time>2026-04-04T08:11:34.311Z</time></trkpt><trkpt lat="43.4803705" lon="12.0062618"><ele>739.0</ele><time>2026-04-04T08:11:35.31Z</time></trkpt><trkpt lat="43.4803101" lon="12.0061741"><ele>739.0</ele><time>2026-04-04T08:11:37.31Z</time></trkpt><trkpt lat="43.4802416" lon="12.0060845"><ele>739.0</ele><time>2026-04-04T08:11:41.31Z</time></trkpt><trkpt lat="43.4801869" lon="12.0060193"><ele>739.0</ele><time>2026-04-04T08:11:44.31Z</time></trkpt><trkpt lat="43.4801335" lon="12.0059601"><ele>739.0</ele><time>2026-04-04T08:11:46.31Z</time></trkpt><trkpt lat="43.4800955" lon="12.0058609"><ele>739.0</ele><time>2026-04-04T08:11:48.31Z</time></trkpt><trkpt lat="43.4800675" lon="12.0057416"><ele>739.0</ele><time>2026-04-04T08:11:50.31Z</time></trkpt><trkpt lat="43.4800418" lon="12.0056404"><ele>739.2</ele><time>2026-04-04T08:11:51.31Z</time></trkpt><trkpt lat="43.4800047" lon="12.0055474"><ele>739.4000000000001</ele><time>2026-04-04T08:11:52.311Z</time></trkpt><trkpt lat="43.479998" lon="12.0054283"><ele>739.6</ele><time>2026-04-04T08:11:54.309Z</time></trkpt><trkpt lat="43.4799987" lon="12.0052986"><ele>739.8</ele><time>2026-04-04T08:11:56.311Z</time></trkpt><trkpt lat="43.4800087" lon="12.0051436"><ele>740.0</ele><time>2026-04-04T08:11:58.31Z</time></trkpt><trkpt lat="43.4799907" lon="12.0050367"><ele>740.8333333333333</ele><time>2026-04-04T08:12:00.31Z</time></trkpt><trkpt lat="43.4799666" lon="12.0048901"><ele>741.6666666666666</ele><time>2026-04-04T08:12:02.31Z</time></trkpt><trkpt lat="43.4799169" lon="12.0048165"><ele>742.5</ele><time>2026-04-04T08:12:05.309Z</time></trkpt><trkpt lat="43.4798648" lon="12.0047589"><ele>743.3333333333334</ele><time>2026-04-04T08:12:14.31Z</time></trkpt><trkpt lat="43.4798504" lon="12.0046596"><ele>744.1666666666667</ele><time>2026-04-04T08:12:16.31Z</time></trkpt><trkpt lat="43.479836" lon="12.0045711"><ele>745.0</ele><time>2026-04-04T08:12:18.31Z</time></trkpt><trkpt lat="43.4798018" lon="12.0043996"><ele>745.0</ele><time>2026-04-04T08:12:20.31Z</time></trkpt><trkpt lat="43.4797542" lon="12.004326"><ele>745.0</ele><time>2026-04-04T08:12:21.311Z</time></trkpt><trkpt lat="43.4797126" lon="12.0042542"><ele>745.0</ele><time>2026-04-04T08:12:22.31Z</time></trkpt><trkpt lat="43.4796733" lon="12.0041555"><ele>745.0</ele><time>2026-04-04T08:12:23.309Z</time></trkpt><trkpt lat="43.4796567" lon="12.0040274"><ele>745.0</ele><time>2026-04-04T08:12:25.31Z</time></trkpt><trkpt lat="43.4796526" lon="12.0039339"><ele>745.0</ele><time>2026-04-04T08:12:27.31Z</time></trkpt><trkpt lat="43.4796451" lon="12.0037586"><ele>745.5</ele><time>2026-04-04T08:12:29.31Z</time></trkpt><trkpt lat="43.479644" lon="12.0036607"><ele>746.0</ele><time>2026-04-04T08:12:30.309Z</time></trkpt><trkpt lat="43.479635" lon="12.0035712"><ele>746.5</ele><time>2026-04-04T08:12:31.31Z</time></trkpt><trkpt lat="43.4796424" lon="12.0034651"><ele>747.0</ele><time>2026-04-04T08:12:32.31Z</time></trkpt><trkpt lat="43.4796044" lon="12.003383"><ele>747.5</ele><time>2026-04-04T08:12:33.31Z</time></trkpt><trkpt lat="43.4795788" lon="12.0032921"><ele>748.0</ele><time>2026-04-04T08:12:34.31Z</time></trkpt><trkpt lat="43.4795227" lon="12.0031408"><ele>753.8333333333334</ele><time>2026-04-04T08:12:36.31Z</time></trkpt><trkpt lat="43.4794624" lon="12.0031066"><ele>759.6666666666667</ele><time>2026-04-04T08:12:37.31Z</time></trkpt><trkpt lat="43.4793829" lon="12.0030545"><ele>765.5</ele><time>2026-04-04T08:12:38.31Z</time></trkpt><trkpt lat="43.4793352" lon="12.0029967"><ele>771.3333333333334</ele><time>2026-04-04T08:12:39.311Z</time></trkpt><trkpt lat="43.4792472" lon="12.0029054"><ele>777.1666666666666</ele><time>2026-04-04T08:12:41.31Z</time></trkpt><trkpt lat="43.4791757" lon="12.0028677"><ele>783.0</ele><time>2026-04-04T08:12:42.31Z</time></trkpt><trkpt lat="43.4790806" lon="12.0027921"><ele>783.0</ele><time>2026-04-04T08:12:44.31Z</time></trkpt><trkpt lat="43.4790181" lon="12.0026923"><ele>783.0</ele><time>2026-04-04T08:12:46.31Z</time></trkpt><trkpt lat="43.4789948" lon="12.0026065"><ele>783.0</ele><time>2026-04-04T08:12:48.31Z</time></trkpt><trkpt lat="43.4789933" lon="12.0025195"><ele>783.0</ele><time>2026-04-04T08:12:50.31Z</time></trkpt><trkpt lat="43.4789925" lon="12.0024277"><ele>783.0</ele><time>2026-04-04T08:12:52.31Z</time></trkpt><trkpt lat="43.478963" lon="12.0023084"><ele>783.0</ele><time>2026-04-04T08:12:54.311Z</time></trkpt><trkpt lat="43.4789148" lon="12.0022084"><ele>785.5999999999999</ele><time>2026-04-04T08:12:55.311Z</time></trkpt><trkpt lat="43.4789091" lon="12.0020693"><ele>788.1999999999999</ele><time>2026-04-04T08:12:57.31Z</time></trkpt><trkpt lat="43.4788994" lon="12.0019304"><ele>790.8</ele><time>2026-04-04T08:13:00.309Z</time></trkpt><trkpt lat="43.4788976" lon="12.0018088"><ele>793.4</ele><time>2026-04-04T08:13:03.31Z</time></trkpt><trkpt lat="43.4789122" lon="12.0016941"><ele>796.0</ele><time>2026-04-04T08:13:06.31Z</time></trkpt><trkpt lat="43.4789618" lon="12.0015795"><ele>797.8333333333333</ele><time>2026-04-04T08:13:09.31Z</time></trkpt><trkpt lat="43.4790207" lon="12.0014906"><ele>799.6666666666666</ele><time>2026-04-04T08:13:12.31Z</time></trkpt><trkpt lat="43.4790637" lon="12.0014191"><ele>801.5</ele><time>2026-04-04T08:13:14.31Z</time></trkpt><trkpt lat="43.4790895" lon="12.0013187"><ele>803.3333333333333</ele><time>2026-04-04T08:13:16.31Z</time></trkpt><trkpt lat="43.4791144" lon="12.0012357"><ele>805.1666666666666</ele><time>2026-04-04T08:13:18.31Z</time></trkpt><trkpt lat="43.4791389" lon="12.0011175"><ele>807.0</ele><time>2026-04-04T08:13:21.309Z</time></trkpt><trkpt lat="43.4791316" lon="12.0010164"><ele>805.6</ele><time>2026-04-04T08:13:23.31Z</time></trkpt><trkpt lat="43.4791368" lon="12.0008078"><ele>804.2</ele><time>2026-04-04T08:13:25.311Z</time></trkpt><trkpt lat="43.4791015" lon="12.0007263"><ele>802.8</ele><time>2026-04-04T08:13:26.311Z</time></trkpt><trkpt lat="43.4790654" lon="12.0006357"><ele>801.4</ele><time>2026-04-04T08:13:28.31Z</time></trkpt><trkpt lat="43.4790288" lon="12.0005403"><ele>800.0</ele><time>2026-04-04T08:13:30.31Z</time></trkpt><trkpt lat="43.4789551" lon="12.0004573"><ele>800.0</ele><time>2026-04-04T08:13:32.31Z</time></trkpt><trkpt lat="43.4788869" lon="12.0003631"><ele>800.0</ele><time>2026-04-04T08:13:34.31Z</time></trkpt><trkpt lat="43.4787994" lon="12.0003177"><ele>800.0</ele><time>2026-04-04T08:13:36.31Z</time></trkpt><trkpt lat="43.4786814" lon="12.00031"><ele>800.0</ele><time>2026-04-04T08:13:38.31Z</time></trkpt><trkpt lat="43.4786123" lon="12.0003127"><ele>800.0</ele><time>2026-04-04T08:13:39.309Z</time></trkpt><trkpt lat="43.4785396" lon="12.0002551"><ele>804.0000000000001</ele><time>2026-04-04T08:13:41.31Z</time></trkpt><trkpt lat="43.4784732" lon="12.0001997"><ele>808.0</ele><time>2026-04-04T08:13:43.31Z</time></trkpt><trkpt lat="43.4784075" lon="12.000125"><ele>812.0</ele><time>2026-04-04T08:13:45.31Z</time></trkpt><trkpt lat="43.4783271" lon="12.0000635"><ele>816.0</ele><time>2026-04-04T08:13:47.31Z</time></trkpt><trkpt lat="43.4782101" lon="12.0000225"><ele>820.0000000000001</ele><time>2026-04-04T08:13:49.31Z</time></trkpt><trkpt lat="43.4781468" lon="11.9999855"><ele>824.0</ele><time>2026-04-04T08:13:50.31Z</time></trkpt><trkpt lat="43.4780573" lon="11.9999384"><ele>824.0</ele><time>2026-04-04T08:13:51.31Z</time></trkpt><trkpt lat="43.4779485" lon="11.9998713"><ele>824.0</ele><time>2026-04-04T08:13:53.31Z</time></trkpt><trkpt lat="43.4778888" lon="11.9998376"><ele>824.0</ele><time>2026-04-04T08:13:54.31Z</time></trkpt><trkpt lat="43.4778277" lon="11.9997975"><ele>824.0</ele><time>2026-04-04T08:13:55.309Z</time></trkpt><trkpt lat="43.4777303" lon="11.9997113"><ele>824.0</ele><time>2026-04-04T08:13:57.31Z</time></trkpt><trkpt lat="43.4776095" lon="11.9996047"><ele>824.0000000000001</ele><time>2026-04-04T08:13:59.31Z</time></trkpt><trkpt lat="43.4775621" lon="11.9994909"><ele>824.0</ele><time>2026-04-04T08:14:01.31Z</time></trkpt><trkpt lat="43.4775327" lon="11.9994064"><ele>824.0</ele><time>2026-04-04T08:14:02.31Z</time></trkpt><trkpt lat="43.4775102" lon="11.9992993"><ele>824.0</ele><time>2026-04-04T08:14:04.31Z</time></trkpt><trkpt lat="43.477499" lon="11.9991571"><ele>824.0000000000001</ele><time>2026-04-04T08:14:06.31Z</time></trkpt><trkpt lat="43.4774686" lon="11.9990238"><ele>824.0</ele><time>2026-04-04T08:14:08.31Z</time></trkpt><trkpt lat="43.4774281" lon="11.9989127"><ele>824.0</ele><time>2026-04-04T08:14:10.31Z</time></trkpt><trkpt lat="43.4774278" lon="11.9988216"><ele>824.0</ele><time>2026-04-04T08:14:11.31Z</time></trkpt><trkpt lat="43.477425" lon="11.9987105"><ele>824.0</ele><time>2026-04-04T08:14:13.309Z</time></trkpt><trkpt lat="43.4774368" lon="11.998564"><ele>824.0</ele><time>2026-04-04T08:14:15.31Z</time></trkpt><trkpt lat="43.4774871" lon="11.9984261"><ele>824.0</ele><time>2026-04-04T08:14:17.31Z</time></trkpt><trkpt lat="43.4775511" lon="11.9983353"><ele>824.6</ele><time>2026-04-04T08:14:19.31Z</time></trkpt><trkpt lat="43.4776311" lon="11.9982773"><ele>825.2</ele><time>2026-04-04T08:14:21.31Z</time></trkpt><trkpt lat="43.4777384" lon="11.9982128"><ele>825.8000000000001</ele><time>2026-04-04T08:14:23.31Z</time></trkpt><trkpt lat="43.47784" lon="11.9981756"><ele>826.4000000000001</ele><time>2026-04-04T08:14:25.31Z</time></trkpt><trkpt lat="43.4779389" lon="11.9981064"><ele>827.0</ele><time>2026-04-04T08:14:27.31Z</time></trkpt><trkpt lat="43.4779494" lon="11.9979941"><ele>827.0000000000001</ele><time>2026-04-04T08:14:29.31Z</time></trkpt><trkpt lat="43.4779494" lon="11.9978622"><ele>827.0</ele><time>2026-04-04T08:14:31.311Z</time></trkpt><trkpt lat="43.477917" lon="11.9977222"><ele>827.0</ele><time>2026-04-04T08:14:33.309Z</time></trkpt><trkpt lat="43.4778735" lon="11.9976372"><ele>827.0</ele><time>2026-04-04T08:14:34.31Z</time></trkpt><trkpt lat="43.4778227" lon="11.997571"><ele>827.0000000000001</ele><time>2026-04-04T08:14:35.31Z</time></trkpt><trkpt lat="43.4777816" lon="11.9974929"><ele>827.0</ele><time>2026-04-04T08:14:36.31Z</time></trkpt><trkpt lat="43.4777715" lon="11.9973343"><ele>827.0000000000001</ele><time>2026-04-04T08:14:38.31Z</time></trkpt><trkpt lat="43.4777881" lon="11.9972358"><ele>827.0</ele><time>2026-04-04T08:14:40.31Z</time></trkpt><trkpt lat="43.4778524" lon="11.9971714"><ele>827.0</ele><time>2026-04-04T08:14:41.31Z</time></trkpt><trkpt lat="43.477916" lon="11.9970414"><ele>827.0</ele><time>2026-04-04T08:14:43.311Z</time></trkpt><trkpt lat="43.4779485" lon="11.996966"><ele>827.0000000000001</ele><time>2026-04-04T08:14:44.31Z</time></trkpt><trkpt lat="43.4780036" lon="11.9968268"><ele>827.0</ele><time>2026-04-04T08:14:46.31Z</time></trkpt><trkpt lat="43.4780071" lon="11.9966987"><ele>825.0000000000001</ele><time>2026-04-04T08:14:48.31Z</time></trkpt><trkpt lat="43.477994" lon="11.9965125"><ele>823.0</ele><time>2026-04-04T08:14:50.31Z</time></trkpt><trkpt lat="43.4779211" lon="11.9964723"><ele>821.0</ele><time>2026-04-04T08:14:52.309Z</time></trkpt><trkpt lat="43.4778455" lon="11.996464"><ele>819.0</ele><time>2026-04-04T08:14:54.309Z</time></trkpt><trkpt lat="43.4777827" lon="11.9964756"><ele>817.0000000000001</ele><time>2026-04-04T08:14:55.31Z</time></trkpt><trkpt lat="43.4777223" lon="11.9965057"><ele>815.0</ele><time>2026-04-04T08:15:03.31Z</time></trkpt><trkpt lat="43.4776672" lon="11.9964423"><ele>815.0</ele><time>2026-04-04T08:15:07.31Z</time></trkpt><trkpt lat="43.4776458" lon="11.9963607"><ele>815.0</ele><time>2026-04-04T08:15:09.31Z</time></trkpt><trkpt lat="43.4776278" lon="11.9962167"><ele>815.0</ele><time>2026-04-04T08:15:11.31Z</time></trkpt><trkpt lat="43.4776133" lon="11.996086"><ele>815.0</ele><time>2026-04-04T08:15:13.31Z</time></trkpt><trkpt lat="43.4776066" lon="11.9959321"><ele>815.0</ele><time>2026-04-04T08:15:15.31Z</time></trkpt><trkpt lat="43.4775955" lon="11.9957989"><ele>812.6</ele><time>2026-04-04T08:15:17.311Z</time></trkpt><trkpt lat="43.4775887" lon="11.9956745"><ele>810.2</ele><time>2026-04-04T08:15:19.31Z</time></trkpt><trkpt lat="43.4775764" lon="11.9955472"><ele>807.8</ele><time>2026-04-04T08:15:21.31Z</time></trkpt><trkpt lat="43.477572" lon="11.9954145"><ele>805.4</ele><time>2026-04-04T08:15:23.31Z</time></trkpt><trkpt lat="43.4775439" lon="11.9952725"><ele>803.0</ele><time>2026-04-04T08:15:25.309Z</time></trkpt><trkpt lat="43.4775141" lon="11.9951316"><ele>803.0000000000001</ele><time>2026-04-04T08:15:27.309Z</time></trkpt><trkpt lat="43.4775025" lon="11.9950072"><ele>803.0</ele><time>2026-04-04T08:15:29.31Z</time></trkpt><trkpt lat="43.477485" lon="11.9948966"><ele>803.0</ele><time>2026-04-04T08:15:31.31Z</time></trkpt><trkpt lat="43.4774872" lon="11.9947857"><ele>803.0</ele><time>2026-04-04T08:15:33.31Z</time></trkpt><trkpt lat="43.4774943" lon="11.9946636"><ele>803.0000000000001</ele><time>2026-04-04T08:15:35.31Z</time></trkpt><trkpt lat="43.4775148" lon="11.9945252"><ele>803.0</ele><time>2026-04-04T08:15:37.31Z</time></trkpt><trkpt lat="43.4775407" lon="11.9943678"><ele>803.4</ele><time>2026-04-04T08:15:39.31Z</time></trkpt><trkpt lat="43.4775943" lon="11.9942267"><ele>803.8</ele><time>2026-04-04T08:15:41.31Z</time></trkpt><trkpt lat="43.4776264" lon="11.9941513"><ele>804.2</ele><time>2026-04-04T08:15:42.31Z</time></trkpt><trkpt lat="43.4777116" lon="11.9940131"><ele>804.6</ele><time>2026-04-04T08:15:44.31Z</time></trkpt><trkpt lat="43.4777546" lon="11.9939351"><ele>805.0</ele><time>2026-04-04T08:15:45.31Z</time></trkpt><trkpt lat="43.4778016" lon="11.9938306"><ele>805.4999999999999</ele><time>2026-04-04T08:15:46.31Z</time></trkpt><trkpt lat="43.4778298" lon="11.993747"><ele>806.0</ele><time>2026-04-04T08:15:47.31Z</time></trkpt><trkpt lat="43.4778808" lon="11.993654"><ele>806.5</ele><time>2026-04-04T08:15:48.31Z</time></trkpt><trkpt lat="43.4779205" lon="11.9935266"><ele>807.0</ele><time>2026-04-04T08:15:49.31Z</time></trkpt><trkpt lat="43.4779578" lon="11.9934365"><ele>807.4999999999999</ele><time>2026-04-04T08:15:50.31Z</time></trkpt><trkpt lat="43.4779906" lon="11.9933385"><ele>808.0</ele><time>2026-04-04T08:15:51.31Z</time></trkpt><trkpt lat="43.4780308" lon="11.9931841"><ele>811.8333333333333</ele><time>2026-04-04T08:15:53.31Z</time></trkpt><trkpt lat="43.478053" lon="11.993093"><ele>815.6666666666666</ele><time>2026-04-04T08:15:54.31Z</time></trkpt><trkpt lat="43.4780808" lon="11.9929759"><ele>819.5</ele><time>2026-04-04T08:15:55.31Z</time></trkpt><trkpt lat="43.4780766" lon="11.9928792"><ele>823.3333333333333</ele><time>2026-04-04T08:15:57.31Z</time></trkpt><trkpt lat="43.4780354" lon="11.9927972"><ele>827.1666666666666</ele><time>2026-04-04T08:15:59.31Z</time></trkpt><trkpt lat="43.4780896" lon="11.9927254"><ele>831.0</ele><time>2026-04-04T08:16:01.31Z</time></trkpt><trkpt lat="43.4781665" lon="11.9927469"><ele>831.0</ele><time>2026-04-04T08:16:03.311Z</time></trkpt><trkpt lat="43.4782522" lon="11.9927432"><ele>831.0</ele><time>2026-04-04T08:16:05.31Z</time></trkpt><trkpt lat="43.4783359" lon="11.9927545"><ele>831.0</ele><time>2026-04-04T08:16:07.31Z</time></trkpt><trkpt lat="43.4785009" lon="11.9929374"><ele>831.0</ele><time>2026-04-04T08:16:10.31Z</time></trkpt><trkpt lat="43.4785704" lon="11.9930598"><ele>831.0</ele><time>2026-04-04T08:16:11.31Z</time></trkpt><trkpt lat="43.4786262" lon="11.9931829"><ele>831.0</ele><time>2026-04-04T08:16:12.31Z</time></trkpt><trkpt lat="43.4786728" lon="11.9932499"><ele>831.0</ele><time>2026-04-04T08:16:13.31Z</time></trkpt><trkpt lat="43.4787158" lon="11.9933474"><ele>831.0</ele><time>2026-04-04T08:16:14.309Z</time></trkpt><trkpt lat="43.4787709" lon="11.9934068"><ele>831.0</ele><time>2026-04-04T08:16:15.31Z</time></trkpt><trkpt lat="43.4788175" lon="11.9934919"><ele>831.0</ele><time>2026-04-04T08:16:16.31Z</time></trkpt><trkpt lat="43.4788757" lon="11.9936022"><ele>828.5999999999999</ele><time>2026-04-04T08:16:17.31Z</time></trkpt><trkpt lat="43.4789421" lon="11.9936136"><ele>826.2</ele><time>2026-04-04T08:16:19.31Z</time></trkpt><trkpt lat="43.4790479" lon="11.9935824"><ele>823.8</ele><time>2026-04-04T08:16:22.311Z</time></trkpt><trkpt lat="43.4791442" lon="11.9935362"><ele>821.4000000000001</ele><time>2026-04-04T08:16:24.31Z</time></trkpt><trkpt lat="43.4792542" lon="11.9934517"><ele>819.0</ele><time>2026-04-04T08:16:26.309Z</time></trkpt><trkpt lat="43.4793439" lon="11.9933476"><ele>823.5</ele><time>2026-04-04T08:16:28.31Z</time></trkpt><trkpt lat="43.4793973" lon="11.9932866"><ele>828.0</ele><time>2026-04-04T08:16:29.31Z</time></trkpt><trkpt lat="43.4794816" lon="11.9931887"><ele>832.5</ele><time>2026-04-04T08:16:31.31Z</time></trkpt><trkpt lat="43.4795313" lon="11.9930353"><ele>837.0</ele><time>2026-04-04T08:16:33.31Z</time></trkpt><trkpt lat="43.47955" lon="11.9929406"><ele>841.5</ele><time>2026-04-04T08:16:35.31Z</time></trkpt><trkpt lat="43.4795543" lon="11.992854"><ele>846.0</ele><time>2026-04-04T08:16:36.309Z</time></trkpt><trkpt lat="43.4795457" lon="11.9927197"><ele>846.0</ele><time>2026-04-04T08:16:38.309Z</time></trkpt><trkpt lat="43.479576" lon="11.9925985"><ele>846.0</ele><time>2026-04-04T08:16:40.311Z</time></trkpt><trkpt lat="43.4795713" lon="11.9924679"><ele>846.0</ele><time>2026-04-04T08:16:41.31Z</time></trkpt><trkpt lat="43.4796335" lon="11.9923734"><ele>846.0</ele><time>2026-04-04T08:16:42.31Z</time></trkpt><trkpt lat="43.4797178" lon="11.9923548"><ele>846.0</ele><time>2026-04-04T08:16:44.31Z</time></trkpt><trkpt lat="43.4798412" lon="11.9922978"><ele>849.4</ele><time>2026-04-04T08:16:46.31Z</time></trkpt><trkpt lat="43.4799581" lon="11.9922739"><ele>852.8</ele><time>2026-04-04T08:16:48.31Z</time></trkpt><trkpt lat="43.4800517" lon="11.9922622"><ele>856.1999999999999</ele><time>2026-04-04T08:16:49.31Z</time></trkpt><trkpt lat="43.4801703" lon="11.9922513"><ele>859.5999999999999</ele><time>2026-04-04T08:16:51.31Z</time></trkpt><trkpt lat="43.4802381" lon="11.9921981"><ele>863.0</ele><time>2026-04-04T08:16:53.31Z</time></trkpt><trkpt lat="43.4803195" lon="11.9920941"><ele>863.0</ele><time>2026-04-04T08:16:55.31Z</time></trkpt><trkpt lat="43.4803825" lon="11.9920479"><ele>863.0</ele><time>2026-04-04T08:16:56.309Z</time></trkpt><trkpt lat="43.4804489" lon="11.9919306"><ele>863.0</ele><time>2026-04-04T08:16:58.31Z</time></trkpt><trkpt lat="43.4805316" lon="11.9918001"><ele>863.0</ele><time>2026-04-04T08:17:00.31Z</time></trkpt><trkpt lat="43.4805639" lon="11.9917212"><ele>863.0</ele><time>2026-04-04T08:17:01.31Z</time></trkpt><trkpt lat="43.4806251" lon="11.991576"><ele>864.5000000000001</ele><time>2026-04-04T08:17:03.31Z</time></trkpt><trkpt lat="43.4806639" lon="11.9914956"><ele>866.0</ele><time>2026-04-04T08:17:04.31Z</time></trkpt><trkpt lat="43.480698" lon="11.9913844"><ele>867.5</ele><time>2026-04-04T08:17:06.31Z</time></trkpt><trkpt lat="43.4807151" lon="11.9912984"><ele>869.0</ele><time>2026-04-04T08:17:08.31Z</time></trkpt><trkpt lat="43.4806329" lon="11.9912585"><ele>870.5000000000001</ele><time>2026-04-04T08:17:12.31Z</time></trkpt><trkpt lat="43.4805695" lon="11.9912614"><ele>872.0</ele><time>2026-04-04T08:17:13.31Z</time></trkpt><trkpt lat="43.4804734" lon="11.9912796"><ele>873.0</ele><time>2026-04-04T08:17:15.31Z</time></trkpt><trkpt lat="43.4804089" lon="11.9912845"><ele>874.0</ele><time>2026-04-04T08:17:16.31Z</time></trkpt><trkpt lat="43.4803413" lon="11.9912914"><ele>875.0</ele><time>2026-04-04T08:17:17.31Z</time></trkpt><trkpt lat="43.4802694" lon="11.9912889"><ele>876.0</ele><time>2026-04-04T08:17:18.31Z</time></trkpt><trkpt lat="43.4801648" lon="11.9913227"><ele>877.0</ele><time>2026-04-04T08:17:20.31Z</time></trkpt><trkpt lat="43.4800984" lon="11.991332"><ele>878.0</ele><time>2026-04-04T08:17:21.31Z</time></trkpt><trkpt lat="43.4800382" lon="11.9912896"><ele>879.0</ele><time>2026-04-04T08:17:22.31Z</time></trkpt><trkpt lat="43.4799504" lon="11.9911964"><ele>879.0</ele><time>2026-04-04T08:17:24.31Z</time></trkpt><trkpt lat="43.4798778" lon="11.9911754"><ele>879.0000000000001</ele><time>2026-04-04T08:17:25.31Z</time></trkpt><trkpt lat="43.4797497" lon="11.9911999"><ele>879.0000000000001</ele><time>2026-04-04T08:17:27.31Z</time></trkpt><trkpt lat="43.4796848" lon="11.9912458"><ele>879.0</ele><time>2026-04-04T08:17:28.31Z</time></trkpt><trkpt lat="43.4795551" lon="11.9912896"><ele>879.0</ele><time>2026-04-04T08:17:30.31Z</time></trkpt><trkpt lat="43.4794871" lon="11.9913136"><ele>881.1666666666666</ele><time>2026-04-04T08:17:31.31Z</time></trkpt><trkpt lat="43.4793932" lon="11.9912972"><ele>883.3333333333333</ele><time>2026-04-04T08:17:32.31Z</time></trkpt><trkpt lat="43.4793125" lon="11.9912613"><ele>885.5</ele><time>2026-04-04T08:17:33.309Z</time></trkpt><trkpt lat="43.4792349" lon="11.9912632"><ele>887.6666666666666</ele><time>2026-04-04T08:17:34.31Z</time></trkpt><trkpt lat="43.4791607" lon="11.9912502"><ele>889.8333333333333</ele><time>2026-04-04T08:17:35.31Z</time></trkpt><trkpt lat="43.4790665" lon="11.9912372"><ele>892.0</ele><time>2026-04-04T08:17:37.309Z</time></trkpt><trkpt lat="43.478955" lon="11.9912177"><ele>891.9999999999999</ele><time>2026-04-04T08:17:39.311Z</time></trkpt><trkpt lat="43.478841" lon="11.9912152"><ele>892.0</ele><time>2026-04-04T08:17:41.31Z</time></trkpt><trkpt lat="43.4787645" lon="11.9911868"><ele>892.0</ele><time>2026-04-04T08:17:42.309Z</time></trkpt><trkpt lat="43.4786863" lon="11.9911668"><ele>892.0</ele><time>2026-04-04T08:17:43.31Z</time></trkpt><trkpt lat="43.4786203" lon="11.9911521"><ele>891.9999999999999</ele><time>2026-04-04T08:17:44.31Z</time></trkpt><trkpt lat="43.4785148" lon="11.991113"><ele>892.0</ele><time>2026-04-04T08:17:46.31Z</time></trkpt><trkpt lat="43.4784441" lon="11.99112"><ele>891.4000000000001</ele><time>2026-04-04T08:17:48.31Z</time></trkpt><trkpt lat="43.4783571" lon="11.9911168"><ele>890.8000000000001</ele><time>2026-04-04T08:17:50.31Z</time></trkpt><trkpt lat="43.4782808" lon="11.9910917"><ele>890.2</ele><time>2026-04-04T08:17:52.31Z</time></trkpt><trkpt lat="43.4781842" lon="11.9910503"><ele>889.6</ele><time>2026-04-04T08:17:54.31Z</time></trkpt><trkpt lat="43.4780723" lon="11.9909628"><ele>889.0</ele><time>2026-04-04T08:17:56.31Z</time></trkpt><trkpt lat="43.4779653" lon="11.9908942"><ele>888.1428571428571</ele><time>2026-04-04T08:17:58.31Z</time></trkpt><trkpt lat="43.4779018" lon="11.9908576"><ele>887.2857142857142</ele><time>2026-04-04T08:17:59.31Z</time></trkpt><trkpt lat="43.477839" lon="11.9908225"><ele>886.4285714285714</ele><time>2026-04-04T08:18:00.31Z</time></trkpt><trkpt lat="43.4777731" lon="11.9907806"><ele>885.5714285714286</ele><time>2026-04-04T08:18:01.31Z</time></trkpt><trkpt lat="43.4777108" lon="11.990746"><ele>884.7142857142857</ele><time>2026-04-04T08:18:02.31Z</time></trkpt><trkpt lat="43.4776493" lon="11.9907115"><ele>883.8571428571429</ele><time>2026-04-04T08:18:03.309Z</time></trkpt><trkpt lat="43.4775886" lon="11.9906785"><ele>883.0</ele><time>2026-04-04T08:18:04.31Z</time></trkpt><trkpt lat="43.4775287" lon="11.990644"><ele>884.4999999999999</ele><time>2026-04-04T08:18:05.309Z</time></trkpt><trkpt lat="43.4774647" lon="11.9906039"><ele>886.0</ele><time>2026-04-04T08:18:06.311Z</time></trkpt><trkpt lat="43.4773957" lon="11.9905517"><ele>887.5</ele><time>2026-04-04T08:18:07.31Z</time></trkpt><trkpt lat="43.4773179" lon="11.9905033"><ele>889.0</ele><time>2026-04-04T08:18:08.31Z</time></trkpt><trkpt lat="43.4772473" lon="11.9904672"><ele>890.4999999999999</ele><time>2026-04-04T08:18:09.31Z</time></trkpt><trkpt lat="43.4771877" lon="11.990439"><ele>892.0</ele><time>2026-04-04T08:18:10.31Z</time></trkpt><trkpt lat="43.4770715" lon="11.9903769"><ele>891.9999999999999</ele><time>2026-04-04T08:18:12.31Z</time></trkpt><trkpt lat="43.4770084" lon="11.990339"><ele>892.0</ele><time>2026-04-04T08:18:13.311Z</time></trkpt><trkpt lat="43.4768897" lon="11.9902707"><ele>892.0</ele><time>2026-04-04T08:18:15.309Z</time></trkpt><trkpt lat="43.4768285" lon="11.9902363"><ele>892.0</ele><time>2026-04-04T08:18:16.31Z</time></trkpt><trkpt lat="43.4767658" lon="11.990197"><ele>891.9999999999999</ele><time>2026-04-04T08:18:17.31Z</time></trkpt><trkpt lat="43.4767101" lon="11.9901557"><ele>892.0</ele><time>2026-04-04T08:18:18.31Z</time></trkpt><trkpt lat="43.4766476" lon="11.9900997"><ele>892.0</ele><time>2026-04-04T08:18:19.31Z</time></trkpt><trkpt lat="43.4765869" lon="11.9900506"><ele>892.0</ele><time>2026-04-04T08:18:20.31Z</time></trkpt><trkpt lat="43.4765202" lon="11.9900042"><ele>892.0</ele><time>2026-04-04T08:18:21.31Z</time></trkpt><trkpt lat="43.4764582" lon="11.9899625"><ele>892.0</ele><time>2026-04-04T08:18:22.311Z</time></trkpt><trkpt lat="43.4763975" lon="11.9899051"><ele>892.0</ele><time>2026-04-04T08:18:23.31Z</time></trkpt><trkpt lat="43.4763466" lon="11.9898384"><ele>892.0</ele><time>2026-04-04T08:18:24.31Z</time></trkpt><trkpt lat="43.4762899" lon="11.9897748"><ele>892.0</ele><time>2026-04-04T08:18:25.31Z</time></trkpt><trkpt lat="43.4762271" lon="11.9897041"><ele>892.1666666666666</ele><time>2026-04-04T08:18:26.31Z</time></trkpt><trkpt lat="43.4761674" lon="11.9896437"><ele>892.3333333333333</ele><time>2026-04-04T08:18:27.31Z</time></trkpt><trkpt lat="43.4761024" lon="11.9895825"><ele>892.5</ele><time>2026-04-04T08:18:28.31Z</time></trkpt><trkpt lat="43.4760293" lon="11.9895101"><ele>892.6666666666667</ele><time>2026-04-04T08:18:29.31Z</time></trkpt><trkpt lat="43.4759653" lon="11.9894491"><ele>892.8333333333334</ele><time>2026-04-04T08:18:30.31Z</time></trkpt><trkpt lat="43.4759126" lon="11.9893835"><ele>893.0</ele><time>2026-04-04T08:18:31.31Z</time></trkpt><trkpt lat="43.4758158" lon="11.9893498"><ele>893.0</ele><time>2026-04-04T08:18:33.309Z</time></trkpt><trkpt lat="43.4757168" lon="11.9893138"><ele>893.0</ele><time>2026-04-04T08:18:35.31Z</time></trkpt><trkpt lat="43.4755874" lon="11.9892507"><ele>893.0</ele><time>2026-04-04T08:18:37.309Z</time></trkpt><trkpt lat="43.4755169" lon="11.9892371"><ele>893.0</ele><time>2026-04-04T08:18:38.31Z</time></trkpt><trkpt lat="43.4754438" lon="11.9892404"><ele>893.0</ele><time>2026-04-04T08:18:39.31Z</time></trkpt><trkpt lat="43.4753731" lon="11.9892506"><ele>893.8571428571429</ele><time>2026-04-04T08:18:40.31Z</time></trkpt><trkpt lat="43.4752984" lon="11.9892508"><ele>894.7142857142858</ele><time>2026-04-04T08:18:41.31Z</time></trkpt><trkpt lat="43.4752218" lon="11.9892528"><ele>895.5714285714284</ele><time>2026-04-04T08:18:42.31Z</time></trkpt><trkpt lat="43.4751435" lon="11.9892544"><ele>896.4285714285713</ele><time>2026-04-04T08:18:43.309Z</time></trkpt><trkpt lat="43.4750672" lon="11.9892456"><ele>897.2857142857142</ele><time>2026-04-04T08:18:44.309Z</time></trkpt><trkpt lat="43.4750024" lon="11.989228"><ele>898.142857142857</ele><time>2026-04-04T08:18:45.31Z</time></trkpt><trkpt lat="43.4749401" lon="11.9892009"><ele>898.9999999999999</ele><time>2026-04-04T08:18:46.31Z</time></trkpt><trkpt lat="43.4748128" lon="11.9891472"><ele>899.0000000000001</ele><time>2026-04-04T08:18:48.31Z</time></trkpt><trkpt lat="43.4747438" lon="11.9891156"><ele>899.0</ele><time>2026-04-04T08:18:49.31Z</time></trkpt><trkpt lat="43.4746756" lon="11.9890764"><ele>899.0</ele><time>2026-04-04T08:18:50.31Z</time></trkpt><trkpt lat="43.4746127" lon="11.9890442"><ele>899.0</ele><time>2026-04-04T08:18:51.31Z</time></trkpt><trkpt lat="43.474499" lon="11.9890065"><ele>899.0000000000001</ele><time>2026-04-04T08:18:53.31Z</time></trkpt><trkpt lat="43.4744296" lon="11.9890125"><ele>899.0</ele><time>2026-04-04T08:18:55.31Z</time></trkpt><trkpt lat="43.4743279" lon="11.9890028"><ele>898.4285714285713</ele><time>2026-04-04T08:18:58.31Z</time></trkpt><trkpt lat="43.4742639" lon="11.9889985"><ele>897.8571428571429</ele><time>2026-04-04T08:18:59.31Z</time></trkpt><trkpt lat="43.474192" lon="11.9889499"><ele>897.2857142857142</ele><time>2026-04-04T08:19:01.31Z</time></trkpt><trkpt lat="43.4741086" lon="11.9888693"><ele>896.7142857142857</ele><time>2026-04-04T08:19:03.309Z</time></trkpt><trkpt lat="43.4740446" lon="11.9888396"><ele>896.1428571428571</ele><time>2026-04-04T08:19:04.31Z</time></trkpt><trkpt lat="43.4739819" lon="11.9888097"><ele>895.5714285714286</ele><time>2026-04-04T08:19:05.31Z</time></trkpt><trkpt lat="43.4739201" lon="11.9887859"><ele>895.0</ele><time>2026-04-04T08:19:06.31Z</time></trkpt><trkpt lat="43.4738097" lon="11.9887452"><ele>894.6666666666666</ele><time>2026-04-04T08:19:08.309Z</time></trkpt><trkpt lat="43.4737207" lon="11.9886907"><ele>894.3333333333333</ele><time>2026-04-04T08:19:10.31Z</time></trkpt><trkpt lat="43.4736813" lon="11.9886027"><ele>894.0</ele><time>2026-04-04T08:19:12.31Z</time></trkpt><trkpt lat="43.4736824" lon="11.9885082"><ele>893.6666666666667</ele><time>2026-04-04T08:19:14.31Z</time></trkpt><trkpt lat="43.4737052" lon="11.9883962"><ele>893.3333333333334</ele><time>2026-04-04T08:19:16.31Z</time></trkpt><trkpt lat="43.4737531" lon="11.9883311"><ele>893.0</ele><time>2026-04-04T08:19:17.31Z</time></trkpt><trkpt lat="43.4738284" lon="11.9882083"><ele>893.0</ele><time>2026-04-04T08:19:19.31Z</time></trkpt><trkpt lat="43.4738496" lon="11.988054"><ele>893.0</ele><time>2026-04-04T08:19:21.31Z</time></trkpt><trkpt lat="43.4738686" lon="11.9879113"><ele>893.0</ele><time>2026-04-04T08:19:23.31Z</time></trkpt><trkpt lat="43.4738752" lon="11.9877869"><ele>893.0</ele><time>2026-04-04T08:19:25.31Z</time></trkpt><trkpt lat="43.4738623" lon="11.987677"><ele>893.0</ele><time>2026-04-04T08:19:27.31Z</time></trkpt><trkpt lat="43.4738568" lon="11.9875896"><ele>892.0000000000001</ele><time>2026-04-04T08:19:29.31Z</time></trkpt><trkpt lat="43.4738891" lon="11.9875018"><ele>891.0</ele><time>2026-04-04T08:19:32.31Z</time></trkpt><trkpt lat="43.4739412" lon="11.9874103"><ele>890.0</ele><time>2026-04-04T08:19:34.31Z</time></trkpt><trkpt lat="43.4739757" lon="11.9873048"><ele>889.0</ele><time>2026-04-04T08:19:36.31Z</time></trkpt><trkpt lat="43.4740084" lon="11.9872267"><ele>888.0000000000001</ele><time>2026-04-04T08:19:38.31Z</time></trkpt><trkpt lat="43.4740229" lon="11.9870792"><ele>887.0</ele><time>2026-04-04T08:19:40.309Z</time></trkpt><trkpt lat="43.4739973" lon="11.9869179"><ele>887.0</ele><time>2026-04-04T08:19:42.311Z</time></trkpt><trkpt lat="43.4739009" lon="11.9868176"><ele>887.0</ele><time>2026-04-04T08:19:44.31Z</time></trkpt><trkpt lat="43.4738084" lon="11.9867252"><ele>887.0</ele><time>2026-04-04T08:19:46.309Z</time></trkpt><trkpt lat="43.4737602" lon="11.9866659"><ele>887.0</ele><time>2026-04-04T08:19:47.31Z</time></trkpt><trkpt lat="43.4736877" lon="11.9865423"><ele>887.0</ele><time>2026-04-04T08:19:49.309Z</time></trkpt><trkpt lat="43.4736256" lon="11.9864304"><ele>888.8</ele><time>2026-04-04T08:19:51.31Z</time></trkpt><trkpt lat="43.4735984" lon="11.9863323"><ele>890.6</ele><time>2026-04-04T08:19:53.31Z</time></trkpt><trkpt lat="43.4735996" lon="11.9862285"><ele>892.3999999999999</ele><time>2026-04-04T08:19:56.31Z</time></trkpt><trkpt lat="43.473649" lon="11.986114"><ele>894.1999999999999</ele><time>2026-04-04T08:19:59.31Z</time></trkpt><trkpt lat="43.4736978" lon="11.9859881"><ele>896.0</ele><time>2026-04-04T08:20:01.309Z</time></trkpt><trkpt lat="43.473739" lon="11.9858275"><ele>896.3333333333334</ele><time>2026-04-04T08:20:03.31Z</time></trkpt><trkpt lat="43.4737658" lon="11.9857449"><ele>896.6666666666667</ele><time>2026-04-04T08:20:04.31Z</time></trkpt><trkpt lat="43.4737858" lon="11.9856603"><ele>897.0</ele><time>2026-04-04T08:20:05.31Z</time></trkpt><trkpt lat="43.473805" lon="11.9855664"><ele>897.3333333333333</ele><time>2026-04-04T08:20:06.309Z</time></trkpt><trkpt lat="43.4738108" lon="11.9854172"><ele>897.6666666666666</ele><time>2026-04-04T08:20:07.309Z</time></trkpt><trkpt lat="43.4738201" lon="11.9853057"><ele>898.0</ele><time>2026-04-04T08:20:08.31Z</time></trkpt><trkpt lat="43.4738278" lon="11.9851767"><ele>899.0</ele><time>2026-04-04T08:20:09.31Z</time></trkpt><trkpt lat="43.4738431" lon="11.985081"><ele>900.0</ele><time>2026-04-04T08:20:10.309Z</time></trkpt><trkpt lat="43.4739002" lon="11.9849351"><ele>901.0</ele><time>2026-04-04T08:20:12.31Z</time></trkpt><trkpt lat="43.473939" lon="11.9847888"><ele>902.0</ele><time>2026-04-04T08:20:14.31Z</time></trkpt><trkpt lat="43.4739338" lon="11.9846504"><ele>903.0</ele><time>2026-04-04T08:20:16.31Z</time></trkpt><trkpt lat="43.4739123" lon="11.9844834"><ele>904.0</ele><time>2026-04-04T08:20:18.31Z</time></trkpt><trkpt lat="43.4738992" lon="11.9843838"><ele>905.0</ele><time>2026-04-04T08:20:19.31Z</time></trkpt><trkpt lat="43.4738988" lon="11.9842869"><ele>906.0</ele><time>2026-04-04T08:20:20.31Z</time></trkpt><trkpt lat="43.4738795" lon="11.9841504"><ele>907.0</ele><time>2026-04-04T08:20:22.31Z</time></trkpt><trkpt lat="43.4738585" lon="11.9840484"><ele>908.0</ele><time>2026-04-04T08:20:24.31Z</time></trkpt><trkpt lat="43.4738128" lon="11.9839177"><ele>909.0</ele><time>2026-04-04T08:20:26.31Z</time></trkpt><trkpt lat="43.4737583" lon="11.983804"><ele>909.0</ele><time>2026-04-04T08:20:28.309Z</time></trkpt><trkpt lat="43.4737053" lon="11.9836877"><ele>909.0</ele><time>2026-04-04T08:20:30.31Z</time></trkpt><trkpt lat="43.4736466" lon="11.9835967"><ele>909.0</ele><time>2026-04-04T08:20:32.31Z</time></trkpt><trkpt lat="43.4736291" lon="11.983503"><ele>909.0</ele><time>2026-04-04T08:20:34.31Z</time></trkpt><trkpt lat="43.4736365" lon="11.9834081"><ele>909.0</ele><time>2026-04-04T08:20:36.31Z</time></trkpt><trkpt lat="43.4736559" lon="11.9833188"><ele>909.0</ele><time>2026-04-04T08:20:38.31Z</time></trkpt><trkpt lat="43.47368" lon="11.9832343"><ele>911.3333333333334</ele><time>2026-04-04T08:20:40.31Z</time></trkpt><trkpt lat="43.4737269" lon="11.983163"><ele>913.6666666666667</ele><time>2026-04-04T08:20:42.31Z</time></trkpt><trkpt lat="43.4737804" lon="11.9830487"><ele>916.0</ele><time>2026-04-04T08:20:44.31Z</time></trkpt><trkpt lat="43.4738071" lon="11.9829649"><ele>918.3333333333334</ele><time>2026-04-04T08:20:45.31Z</time></trkpt><trkpt lat="43.473868" lon="11.9828164"><ele>920.6666666666667</ele><time>2026-04-04T08:20:47.31Z</time></trkpt><trkpt lat="43.4738984" lon="11.9827299"><ele>923.0</ele><time>2026-04-04T08:20:48.31Z</time></trkpt><trkpt lat="43.4739508" lon="11.982595"><ele>927.5000000000001</ele><time>2026-04-04T08:20:50.31Z</time></trkpt><trkpt lat="43.4739804" lon="11.9824834"><ele>932.0</ele><time>2026-04-04T08:20:52.309Z</time></trkpt><trkpt lat="43.474007" lon="11.9823739"><ele>936.5</ele><time>2026-04-04T08:20:54.31Z</time></trkpt><trkpt lat="43.4740503" lon="11.9822642"><ele>941.0</ele><time>2026-04-04T08:20:56.311Z</time></trkpt><trkpt lat="43.4741159" lon="11.9822005"><ele>945.5000000000001</ele><time>2026-04-04T08:20:58.31Z</time></trkpt><trkpt lat="43.4741043" lon="11.9821065"><ele>950.0</ele><time>2026-04-04T08:21:00.309Z</time></trkpt><trkpt lat="43.4740682" lon="11.9820236"><ele>950.0000000000001</ele><time>2026-04-04T08:21:03.339Z</time></trkpt><trkpt lat="43.4741052" lon="11.9819526"><ele>950.0</ele><time>2026-04-04T08:21:04.402Z</time></trkpt><trkpt lat="43.4741241" lon="11.981837"><ele>950.0</ele><time>2026-04-04T08:21:06.378Z</time></trkpt><trkpt lat="43.4741804" lon="11.9817413"><ele>950.0</ele><time>2026-04-04T08:21:08.311Z</time></trkpt><trkpt lat="43.4741866" lon="11.9816447"><ele>950.0000000000001</ele><time>2026-04-04T08:21:10.31Z</time></trkpt><trkpt lat="43.4741503" lon="11.9815108"><ele>950.0</ele><time>2026-04-04T08:21:12.311Z</time></trkpt><trkpt lat="43.4740647" lon="11.9814491"><ele>948.3333333333334</ele><time>2026-04-04T08:21:15.311Z</time></trkpt><trkpt lat="43.4739992" lon="11.9813566"><ele>946.6666666666667</ele><time>2026-04-04T08:21:17.311Z</time></trkpt><trkpt lat="43.4739458" lon="11.9812684"><ele>945.0</ele><time>2026-04-04T08:21:19.312Z</time></trkpt><trkpt lat="43.4739133" lon="11.981185"><ele>943.3333333333333</ele><time>2026-04-04T08:21:21.311Z</time></trkpt><trkpt lat="43.4738697" lon="11.981108"><ele>941.6666666666666</ele><time>2026-04-04T08:21:23.311Z</time></trkpt><trkpt lat="43.4738221" lon="11.9810346"><ele>940.0</ele><time>2026-04-04T08:21:25.311Z</time></trkpt><trkpt lat="43.4737634" lon="11.9809395"><ele>939.9999999999999</ele><time>2026-04-04T08:21:28.311Z</time></trkpt><trkpt lat="43.473707" lon="11.9808932"><ele>940.0</ele><time>2026-04-04T08:21:30.311Z</time></trkpt><trkpt lat="43.4736295" lon="11.9808748"><ele>940.0</ele><time>2026-04-04T08:21:33.311Z</time></trkpt><trkpt lat="43.4735649" lon="11.9808766"><ele>940.0</ele><time>2026-04-04T08:21:35.311Z</time></trkpt><trkpt lat="43.4735055" lon="11.9808347"><ele>939.9999999999999</ele><time>2026-04-04T08:21:37.311Z</time></trkpt><trkpt lat="43.4734377" lon="11.9807828"><ele>940.0</ele><time>2026-04-04T08:21:39.311Z</time></trkpt><trkpt lat="43.4733388" lon="11.9807631"><ele>940.6666666666666</ele><time>2026-04-04T08:21:41.311Z</time></trkpt><trkpt lat="43.4732501" lon="11.9807517"><ele>941.3333333333333</ele><time>2026-04-04T08:21:43.311Z</time></trkpt><trkpt lat="43.4731866" lon="11.9807001"><ele>942.0</ele><time>2026-04-04T08:21:45.311Z</time></trkpt><trkpt lat="43.4731525" lon="11.9806229"><ele>942.6666666666667</ele><time>2026-04-04T08:21:47.311Z</time></trkpt><trkpt lat="43.4731204" lon="11.9805286"><ele>943.3333333333334</ele><time>2026-04-04T08:21:49.311Z</time></trkpt><trkpt lat="43.4730582" lon="11.980441"><ele>944.0</ele><time>2026-04-04T08:21:51.311Z</time></trkpt><trkpt lat="43.4729775" lon="11.9804392"><ele>940.0</ele><time>2026-04-04T08:21:53.311Z</time></trkpt><trkpt lat="43.4729013" lon="11.9803901"><ele>936.0000000000001</ele><time>2026-04-04T08:21:55.312Z</time></trkpt><trkpt lat="43.472826" lon="11.9802867"><ele>932.0000000000001</ele><time>2026-04-04T08:21:57.312Z</time></trkpt><trkpt lat="43.4727708" lon="11.9802228"><ele>928.0</ele><time>2026-04-04T08:21:58.311Z</time></trkpt><trkpt lat="43.4726455" lon="11.9801766"><ele>924.0</ele><time>2026-04-04T08:22:00.31Z</time></trkpt><trkpt lat="43.4725262" lon="11.9801503"><ele>924.0</ele><time>2026-04-04T08:22:02.311Z</time></trkpt><trkpt lat="43.4724311" lon="11.9801393"><ele>924.0000000000001</ele><time>2026-04-04T08:22:04.311Z</time></trkpt><trkpt lat="43.4723529" lon="11.9801003"><ele>924.0000000000001</ele><time>2026-04-04T08:22:06.311Z</time></trkpt><trkpt lat="43.4721999" lon="11.9800185"><ele>924.0</ele><time>2026-04-04T08:22:09.311Z</time></trkpt><trkpt lat="43.4721375" lon="11.9799792"><ele>924.0</ele><time>2026-04-04T08:22:10.311Z</time></trkpt><trkpt lat="43.4720776" lon="11.979942"><ele>923.5</ele><time>2026-04-04T08:22:11.311Z</time></trkpt><trkpt lat="43.471988" lon="11.9799079"><ele>923.0</ele><time>2026-04-04T08:22:13.31Z</time></trkpt><trkpt lat="43.4719248" lon="11.9799262"><ele>922.5</ele><time>2026-04-04T08:22:15.31Z</time></trkpt><trkpt lat="43.4718413" lon="11.9799263"><ele>922.0</ele><time>2026-04-04T08:22:19.311Z</time></trkpt><trkpt lat="43.471771" lon="11.9799741"><ele>921.5</ele><time>2026-04-04T08:31:18.311Z</time></trkpt><trkpt lat="43.4716862" lon="11.9800017"><ele>921.0</ele><time>2026-04-04T08:31:20.311Z</time></trkpt><trkpt lat="43.4715727" lon="11.9800214"><ele>922.857142857143</ele><time>2026-04-04T08:31:22.311Z</time></trkpt><trkpt lat="43.4714515" lon="11.980013"><ele>924.7142857142858</ele><time>2026-04-04T08:31:24.311Z</time></trkpt><trkpt lat="43.4713871" lon="11.9800104"><ele>926.5714285714286</ele><time>2026-04-04T08:31:25.311Z</time></trkpt><trkpt lat="43.4713229" lon="11.9800087"><ele>928.4285714285714</ele><time>2026-04-04T08:31:26.311Z</time></trkpt><trkpt lat="43.4712597" lon="11.979997"><ele>930.2857142857142</ele><time>2026-04-04T08:31:27.31Z</time></trkpt><trkpt lat="43.4711916" lon="11.9799922"><ele>932.142857142857</ele><time>2026-04-04T08:31:28.311Z</time></trkpt><trkpt lat="43.4711254" lon="11.9799889"><ele>933.9999999999999</ele><time>2026-04-04T08:31:29.311Z</time></trkpt><trkpt lat="43.4710568" lon="11.9799858"><ele>935.5714285714284</ele><time>2026-04-04T08:31:30.311Z</time></trkpt><trkpt lat="43.4709845" lon="11.9799834"><ele>937.1428571428571</ele><time>2026-04-04T08:31:31.311Z</time></trkpt><trkpt lat="43.4709121" lon="11.9799831"><ele>938.7142857142857</ele><time>2026-04-04T08:31:32.311Z</time></trkpt><trkpt lat="43.4708404" lon="11.9799852"><ele>940.2857142857142</ele><time>2026-04-04T08:31:33.311Z</time></trkpt><trkpt lat="43.4707733" lon="11.979993"><ele>941.8571428571429</ele><time>2026-04-04T08:31:34.311Z</time></trkpt><trkpt lat="43.4707039" lon="11.9800044"><ele>943.4285714285714</ele><time>2026-04-04T08:31:35.311Z</time></trkpt><trkpt lat="43.4706321" lon="11.9800112"><ele>945.0</ele><time>2026-04-04T08:31:36.311Z</time></trkpt><trkpt lat="43.4705604" lon="11.9799904"><ele>945.0</ele><time>2026-04-04T08:31:37.311Z</time></trkpt><trkpt lat="43.4704891" lon="11.9799526"><ele>945.0</ele><time>2026-04-04T08:31:38.311Z</time></trkpt><trkpt lat="43.4704223" lon="11.9799002"><ele>945.0</ele><time>2026-04-04T08:31:39.311Z</time></trkpt><trkpt lat="43.4703604" lon="11.9798354"><ele>945.0</ele><time>2026-04-04T08:31:40.31Z</time></trkpt><trkpt lat="43.4703009" lon="11.97976"><ele>945.0</ele><time>2026-04-04T08:31:41.31Z</time></trkpt><trkpt lat="43.4702442" lon="11.9796833"><ele>945.0</ele><time>2026-04-04T08:31:42.311Z</time></trkpt><trkpt lat="43.4701428" lon="11.9795215"><ele>945.2</ele><time>2026-04-04T08:31:44.311Z</time></trkpt><trkpt lat="43.4700918" lon="11.97946"><ele>945.4</ele><time>2026-04-04T08:31:45.311Z</time></trkpt><trkpt lat="43.4700015" lon="11.9793981"><ele>945.5999999999999</ele><time>2026-04-04T08:31:47.31Z</time></trkpt><trkpt lat="43.4699109" lon="11.9793826"><ele>945.8</ele><time>2026-04-04T08:32:02.311Z</time></trkpt><trkpt lat="43.4698189" lon="11.9793657"><ele>946.0</ele><time>2026-04-04T08:32:04.311Z</time></trkpt><trkpt lat="43.4696945" lon="11.9793076"><ele>946.0</ele><time>2026-04-04T08:32:06.311Z</time></trkpt><trkpt lat="43.469631" lon="11.9792849"><ele>945.9999999999999</ele><time>2026-04-04T08:32:07.311Z</time></trkpt><trkpt lat="43.4695195" lon="11.9792443"><ele>945.9999999999999</ele><time>2026-04-04T08:32:09.311Z</time></trkpt><trkpt lat="43.4693974" lon="11.979236"><ele>946.0</ele><time>2026-04-04T08:32:11.311Z</time></trkpt><trkpt lat="43.4693233" lon="11.9792244"><ele>946.0</ele><time>2026-04-04T08:32:12.311Z</time></trkpt><trkpt lat="43.4692382" lon="11.9792051"><ele>946.1666666666666</ele><time>2026-04-04T08:32:13.311Z</time></trkpt><trkpt lat="43.4691554" lon="11.9792044"><ele>946.3333333333333</ele><time>2026-04-04T08:32:14.311Z</time></trkpt><trkpt lat="43.4690756" lon="11.9792331"><ele>946.5</ele><time>2026-04-04T08:32:15.311Z</time></trkpt><trkpt lat="43.4689942" lon="11.9792791"><ele>946.6666666666667</ele><time>2026-04-04T08:32:16.311Z</time></trkpt><trkpt lat="43.468918" lon="11.9793236"><ele>946.8333333333334</ele><time>2026-04-04T08:32:17.311Z</time></trkpt><trkpt lat="43.4688389" lon="11.9793632"><ele>947.0</ele><time>2026-04-04T08:32:18.31Z</time></trkpt><trkpt lat="43.4687595" lon="11.9794062"><ele>948.6</ele><time>2026-04-04T08:32:19.311Z</time></trkpt><trkpt lat="43.4686987" lon="11.9794303"><ele>950.2</ele><time>2026-04-04T08:32:20.311Z</time></trkpt><trkpt lat="43.4685979" lon="11.9794237"><ele>951.8</ele><time>2026-04-04T08:32:22.311Z</time></trkpt><trkpt lat="43.4685305" lon="11.9794208"><ele>953.4</ele><time>2026-04-04T08:32:23.31Z</time></trkpt><trkpt lat="43.4684251" lon="11.9794838"><ele>955.0</ele><time>2026-04-04T08:32:25.31Z</time></trkpt><trkpt lat="43.4683243" lon="11.9795461"><ele>955.0</ele><time>2026-04-04T08:32:27.311Z</time></trkpt><trkpt lat="43.4682988" lon="11.9796695"><ele>955.0</ele><time>2026-04-04T08:32:29.311Z</time></trkpt><trkpt lat="43.4683007" lon="11.9798084"><ele>955.0</ele><time>2026-04-04T08:32:31.311Z</time></trkpt><trkpt lat="43.4682919" lon="11.9799202"><ele>955.0</ele><time>2026-04-04T08:32:33.311Z</time></trkpt><trkpt lat="43.4682422" lon="11.9800127"><ele>955.0</ele><time>2026-04-04T08:32:35.311Z</time></trkpt><trkpt lat="43.4681463" lon="11.9801108"><ele>954.9999999999999</ele><time>2026-04-04T08:32:37.311Z</time></trkpt><trkpt lat="43.4680939" lon="11.980177"><ele>955.0</ele><time>2026-04-04T08:32:38.311Z</time></trkpt><trkpt lat="43.4680396" lon="11.9802445"><ele>955.0</ele><time>2026-04-04T08:32:39.31Z</time></trkpt><trkpt lat="43.4679796" lon="11.9803166"><ele>955.0</ele><time>2026-04-04T08:32:40.31Z</time></trkpt><trkpt lat="43.4679189" lon="11.9803929"><ele>954.9999999999999</ele><time>2026-04-04T08:32:41.311Z</time></trkpt><trkpt lat="43.4678565" lon="11.9804683"><ele>955.0</ele><time>2026-04-04T08:32:42.311Z</time></trkpt><trkpt lat="43.4677931" lon="11.9805387"><ele>956.0</ele><time>2026-04-04T08:32:43.312Z</time></trkpt><trkpt lat="43.4677297" lon="11.9806031"><ele>957.0</ele><time>2026-04-04T08:32:44.31Z</time></trkpt><trkpt lat="43.4676396" lon="11.9806732"><ele>958.0</ele><time>2026-04-04T08:32:46.311Z</time></trkpt><trkpt lat="43.4675521" lon="11.9807008"><ele>959.0</ele><time>2026-04-04T08:32:48.311Z</time></trkpt><trkpt lat="43.4674471" lon="11.9806688"><ele>960.0</ele><time>2026-04-04T08:32:50.311Z</time></trkpt><trkpt lat="43.4673273" lon="11.9806228"><ele>960.0</ele><time>2026-04-04T08:32:52.311Z</time></trkpt><trkpt lat="43.4672147" lon="11.9805902"><ele>960.0</ele><time>2026-04-04T08:32:54.312Z</time></trkpt><trkpt lat="43.4671192" lon="11.9805955"><ele>960.0</ele><time>2026-04-04T08:32:56.311Z</time></trkpt><trkpt lat="43.4670364" lon="11.9806161"><ele>960.0</ele><time>2026-04-04T08:32:58.311Z</time></trkpt><trkpt lat="43.4669435" lon="11.9806539"><ele>960.0</ele><time>2026-04-04T08:33:00.311Z</time></trkpt><trkpt lat="43.4668414" lon="11.9807113"><ele>958.2</ele><time>2026-04-04T08:33:02.311Z</time></trkpt><trkpt lat="43.466727" lon="11.9807933"><ele>956.4</ele><time>2026-04-04T08:33:04.311Z</time></trkpt><trkpt lat="43.466669" lon="11.9808356"><ele>954.5999999999999</ele><time>2026-04-04T08:33:05.31Z</time></trkpt><trkpt lat="43.4665517" lon="11.9809099"><ele>952.8</ele><time>2026-04-04T08:33:07.311Z</time></trkpt><trkpt lat="43.4664507" lon="11.9809845"><ele>951.0</ele><time>2026-04-04T08:33:09.311Z</time></trkpt><trkpt lat="43.4663643" lon="11.9810311"><ele>949.8</ele><time>2026-04-04T08:33:11.311Z</time></trkpt><trkpt lat="43.4662774" lon="11.9810321"><ele>948.5999999999999</ele><time>2026-04-04T08:33:13.311Z</time></trkpt><trkpt lat="43.4661945" lon="11.9810382"><ele>947.4</ele><time>2026-04-04T08:33:15.311Z</time></trkpt><trkpt lat="43.4661028" lon="11.9810509"><ele>946.2</ele><time>2026-04-04T08:33:17.311Z</time></trkpt><trkpt lat="43.4660008" lon="11.9810605"><ele>945.0</ele><time>2026-04-04T08:33:19.312Z</time></trkpt><trkpt lat="43.4658892" lon="11.9810584"><ele>945.0</ele><time>2026-04-04T08:33:21.311Z</time></trkpt><trkpt lat="43.4657852" lon="11.9810702"><ele>945.0</ele><time>2026-04-04T08:33:23.311Z</time></trkpt><trkpt lat="43.465717" lon="11.9810733"><ele>945.0</ele><time>2026-04-04T08:33:24.311Z</time></trkpt><trkpt lat="43.465653" lon="11.9810761"><ele>945.0</ele><time>2026-04-04T08:33:25.311Z</time></trkpt><trkpt lat="43.4655258" lon="11.9810676"><ele>945.0</ele><time>2026-04-04T08:33:27.311Z</time></trkpt><trkpt lat="43.4654457" lon="11.9810709"><ele>945.0</ele><time>2026-04-04T08:33:28.311Z</time></trkpt><trkpt lat="43.4653685" lon="11.9810657"><ele>944.3333333333334</ele><time>2026-04-04T08:33:29.312Z</time></trkpt><trkpt lat="43.4652464" lon="11.9810471"><ele>943.6666666666667</ele><time>2026-04-04T08:33:31.311Z</time></trkpt><trkpt lat="43.4651353" lon="11.9810026"><ele>943.0</ele><time>2026-04-04T08:33:33.311Z</time></trkpt><trkpt lat="43.4650728" lon="11.9809775"><ele>942.3333333333334</ele><time>2026-04-04T08:33:34.31Z</time></trkpt><trkpt lat="43.4649982" lon="11.9809638"><ele>941.6666666666667</ele><time>2026-04-04T08:33:35.311Z</time></trkpt><trkpt lat="43.4649345" lon="11.9809487"><ele>941.0</ele><time>2026-04-04T08:33:36.311Z</time></trkpt><trkpt lat="43.464822" lon="11.9809181"><ele>941.0000000000001</ele><time>2026-04-04T08:33:38.311Z</time></trkpt><trkpt lat="43.4647125" lon="11.980877"><ele>941.0</ele><time>2026-04-04T08:33:40.311Z</time></trkpt><trkpt lat="43.4646172" lon="11.9808363"><ele>941.0</ele><time>2026-04-04T08:33:42.311Z</time></trkpt><trkpt lat="43.4645427" lon="11.9808447"><ele>941.0</ele><time>2026-04-04T08:33:44.312Z</time></trkpt><trkpt lat="43.4644733" lon="11.9808355"><ele>941.0000000000001</ele><time>2026-04-04T08:33:46.311Z</time></trkpt><trkpt lat="43.4644116" lon="11.9808596"><ele>941.0</ele><time>2026-04-04T08:33:49.311Z</time></trkpt><trkpt lat="43.464348" lon="11.9808643"><ele>937.8</ele><time>2026-04-04T08:33:51.312Z</time></trkpt><trkpt lat="43.4642742" lon="11.9808739"><ele>934.5999999999999</ele><time>2026-04-04T08:33:53.311Z</time></trkpt><trkpt lat="43.4642042" lon="11.9809074"><ele>931.4</ele><time>2026-04-04T08:33:55.311Z</time></trkpt><trkpt lat="43.4641269" lon="11.9809557"><ele>928.2</ele><time>2026-04-04T08:33:57.31Z</time></trkpt><trkpt lat="43.4640398" lon="11.9810249"><ele>925.0</ele><time>2026-04-04T08:33:59.311Z</time></trkpt><trkpt lat="43.4639268" lon="11.9811011"><ele>925.0</ele><time>2026-04-04T08:34:01.311Z</time></trkpt><trkpt lat="43.4638475" lon="11.9811376"><ele>925.0</ele><time>2026-04-04T08:34:02.311Z</time></trkpt><trkpt lat="43.4637222" lon="11.9811756"><ele>925.0</ele><time>2026-04-04T08:34:04.311Z</time></trkpt><trkpt lat="43.4636049" lon="11.9811615"><ele>925.0</ele><time>2026-04-04T08:34:06.311Z</time></trkpt><trkpt lat="43.4634896" lon="11.9811598"><ele>925.0</ele><time>2026-04-04T08:34:08.311Z</time></trkpt><trkpt lat="43.4633742" lon="11.9811585"><ele>921.4999999999999</ele><time>2026-04-04T08:34:10.31Z</time></trkpt><trkpt lat="43.4632804" lon="11.9811518"><ele>918.0</ele><time>2026-04-04T08:34:12.311Z</time></trkpt><trkpt lat="43.4632016" lon="11.9811551"><ele>914.5</ele><time>2026-04-04T08:34:14.311Z</time></trkpt><trkpt lat="43.4631373" lon="11.9811711"><ele>911.0</ele><time>2026-04-04T08:34:16.311Z</time></trkpt><trkpt lat="43.4630538" lon="11.9811299"><ele>907.4999999999999</ele><time>2026-04-04T08:34:19.311Z</time></trkpt><trkpt lat="43.4629506" lon="11.981068"><ele>904.0</ele><time>2026-04-04T08:34:21.311Z</time></trkpt><trkpt lat="43.4628569" lon="11.9810029"><ele>900.1666666666666</ele><time>2026-04-04T08:34:23.311Z</time></trkpt><trkpt lat="43.4627813" lon="11.9809286"><ele>896.3333333333333</ele><time>2026-04-04T08:34:25.311Z</time></trkpt><trkpt lat="43.462713" lon="11.9809121"><ele>892.5</ele><time>2026-04-04T08:34:27.311Z</time></trkpt><trkpt lat="43.4626133" lon="11.9809638"><ele>888.6666666666667</ele><time>2026-04-04T08:34:29.311Z</time></trkpt><trkpt lat="43.4625241" lon="11.980951"><ele>884.8333333333334</ele><time>2026-04-04T08:34:31.311Z</time></trkpt><trkpt lat="43.4624454" lon="11.9809189"><ele>881.0</ele><time>2026-04-04T08:34:33.311Z</time></trkpt><trkpt lat="43.4623695" lon="11.9808678"><ele>882.1999999999999</ele><time>2026-04-04T08:34:35.311Z</time></trkpt><trkpt lat="43.462286" lon="11.9808007"><ele>883.3999999999999</ele><time>2026-04-04T08:34:37.311Z</time></trkpt><trkpt lat="43.462198" lon="11.9807476"><ele>884.6</ele><time>2026-04-04T08:34:39.311Z</time></trkpt><trkpt lat="43.4620977" lon="11.9806922"><ele>885.8</ele><time>2026-04-04T08:34:41.311Z</time></trkpt><trkpt lat="43.4620112" lon="11.9806318"><ele>887.0</ele><time>2026-04-04T08:34:43.311Z</time></trkpt><trkpt lat="43.4619113" lon="11.9806001"><ele>886.9999999999999</ele><time>2026-04-04T08:34:45.311Z</time></trkpt><trkpt lat="43.4618375" lon="11.9805909"><ele>887.0</ele><time>2026-04-04T08:34:47.31Z</time></trkpt><trkpt lat="43.4617752" lon="11.9806201"><ele>887.0</ele><time>2026-04-04T08:34:51.311Z</time></trkpt><trkpt lat="43.461694" lon="11.9806354"><ele>887.0</ele><time>2026-04-04T08:34:59.311Z</time></trkpt><trkpt lat="43.4616114" lon="11.9805957"><ele>887.0</ele><time>2026-04-04T08:35:02.311Z</time></trkpt><trkpt lat="43.4615448" lon="11.9806021"><ele>886.9999999999999</ele><time>2026-04-04T08:35:04.311Z</time></trkpt><trkpt lat="43.4614829" lon="11.9806338"><ele>887.0</ele><time>2026-04-04T08:35:06.31Z</time></trkpt><trkpt lat="43.4614205" lon="11.9806633"><ele>887.0</ele><time>2026-04-04T08:35:08.31Z</time></trkpt><trkpt lat="43.4613651" lon="11.9807523"><ele>887.0</ele><time>2026-04-04T08:35:11.311Z</time></trkpt><trkpt lat="43.4612727" lon="11.9808302"><ele>887.0</ele><time>2026-04-04T08:35:13.311Z</time></trkpt><trkpt lat="43.4611553" lon="11.9808439"><ele>887.0</ele><time>2026-04-04T08:35:15.311Z</time></trkpt><trkpt lat="43.4610897" lon="11.9808141"><ele>887.0</ele><time>2026-04-04T08:35:16.311Z</time></trkpt><trkpt lat="43.4609893" lon="11.9808089"><ele>884.8333333333334</ele><time>2026-04-04T08:35:18.311Z</time></trkpt><trkpt lat="43.4608994" lon="11.9807932"><ele>882.6666666666667</ele><time>2026-04-04T08:35:20.311Z</time></trkpt><trkpt lat="43.4607949" lon="11.9807429"><ele>880.5</ele><time>2026-04-04T08:35:22.311Z</time></trkpt><trkpt lat="43.4606855" lon="11.9807382"><ele>878.3333333333333</ele><time>2026-04-04T08:35:24.311Z</time></trkpt><trkpt lat="43.4606335" lon="11.9807912"><ele>876.1666666666666</ele><time>2026-04-04T08:35:26.311Z</time></trkpt><trkpt lat="43.4605669" lon="11.980827"><ele>874.0</ele><time>2026-04-04T08:35:28.311Z</time></trkpt><trkpt lat="43.4604871" lon="11.9808584"><ele>869.2</ele><time>2026-04-04T08:35:31.311Z</time></trkpt><trkpt lat="43.4604047" lon="11.980826"><ele>864.4000000000001</ele><time>2026-04-04T08:35:34.311Z</time></trkpt><trkpt lat="43.4602929" lon="11.9807971"><ele>859.6</ele><time>2026-04-04T08:35:37.311Z</time></trkpt><trkpt lat="43.4602074" lon="11.9808287"><ele>854.8</ele><time>2026-04-04T08:35:39.311Z</time></trkpt><trkpt lat="43.4601138" lon="11.9808761"><ele>850.0</ele><time>2026-04-04T08:35:41.311Z</time></trkpt><trkpt lat="43.4600519" lon="11.9809026"><ele>849.4999999999999</ele><time>2026-04-04T08:35:43.31Z</time></trkpt><trkpt lat="43.4599827" lon="11.9808968"><ele>849.0</ele><time>2026-04-04T08:35:45.311Z</time></trkpt><trkpt lat="43.4599127" lon="11.9808693"><ele>848.5</ele><time>2026-04-04T08:35:47.311Z</time></trkpt><trkpt lat="43.4598344" lon="11.9808736"><ele>848.0</ele><time>2026-04-04T08:35:49.312Z</time></trkpt><trkpt lat="43.4597435" lon="11.9809341"><ele>847.4999999999999</ele><time>2026-04-04T08:35:51.311Z</time></trkpt><trkpt lat="43.4597064" lon="11.9810162"><ele>847.0</ele><time>2026-04-04T08:35:53.311Z</time></trkpt><trkpt lat="43.4596435" lon="11.9810643"><ele>844.8333333333333</ele><time>2026-04-04T08:35:55.31Z</time></trkpt><trkpt lat="43.4595869" lon="11.9811033"><ele>842.6666666666666</ele><time>2026-04-04T08:35:57.311Z</time></trkpt><trkpt lat="43.4595126" lon="11.9812135"><ele>840.5</ele><time>2026-04-04T08:35:59.31Z</time></trkpt><trkpt lat="43.4594141" lon="11.9812676"><ele>838.3333333333333</ele><time>2026-04-04T08:36:01.311Z</time></trkpt><trkpt lat="43.4593367" lon="11.9812499"><ele>836.1666666666666</ele><time>2026-04-04T08:36:02.31Z</time></trkpt><trkpt lat="43.4592683" lon="11.9812482"><ele>834.0</ele><time>2026-04-04T08:36:03.311Z</time></trkpt><trkpt lat="43.4591418" lon="11.9812486"><ele>834.0</ele><time>2026-04-04T08:36:05.311Z</time></trkpt><trkpt lat="43.4590738" lon="11.9812585"><ele>834.0</ele><time>2026-04-04T08:36:06.311Z</time></trkpt><trkpt lat="43.4590138" lon="11.9812941"><ele>834.0</ele><time>2026-04-04T08:36:07.311Z</time></trkpt><trkpt lat="43.4589443" lon="11.9813153"><ele>834.0</ele><time>2026-04-04T08:36:08.311Z</time></trkpt><trkpt lat="43.4588816" lon="11.98133"><ele>834.0</ele><time>2026-04-04T08:36:09.311Z</time></trkpt><trkpt lat="43.45877" lon="11.9813424"><ele>834.0</ele><time>2026-04-04T08:36:11.311Z</time></trkpt><trkpt lat="43.4586706" lon="11.9813848"><ele>833.6</ele><time>2026-04-04T08:36:14.311Z</time></trkpt><trkpt lat="43.4585652" lon="11.9814189"><ele>833.2</ele><time>2026-04-04T08:36:16.311Z</time></trkpt><trkpt lat="43.4584384" lon="11.9814191"><ele>832.8000000000001</ele><time>2026-04-04T08:36:18.31Z</time></trkpt><trkpt lat="43.4583701" lon="11.9814488"><ele>832.4000000000001</ele><time>2026-04-04T08:36:19.311Z</time></trkpt><trkpt lat="43.4582538" lon="11.9815251"><ele>832.0</ele><time>2026-04-04T08:36:21.311Z</time></trkpt><trkpt lat="43.4581494" lon="11.9815794"><ele>832.0</ele><time>2026-04-04T08:36:23.311Z</time></trkpt><trkpt lat="43.4580509" lon="11.9816633"><ele>832.0</ele><time>2026-04-04T08:36:25.31Z</time></trkpt><trkpt lat="43.457993" lon="11.9817108"><ele>832.0</ele><time>2026-04-04T08:36:26.311Z</time></trkpt><trkpt lat="43.4578891" lon="11.9817953"><ele>832.0</ele><time>2026-04-04T08:36:28.311Z</time></trkpt><trkpt lat="43.4578191" lon="11.9819236"><ele>832.0</ele><time>2026-04-04T08:36:30.311Z</time></trkpt><trkpt lat="43.4577625" lon="11.9819785"><ele>829.8</ele><time>2026-04-04T08:36:31.311Z</time></trkpt><trkpt lat="43.4577041" lon="11.9820506"><ele>827.6</ele><time>2026-04-04T08:36:33.31Z</time></trkpt><trkpt lat="43.4575939" lon="11.9821351"><ele>825.4</ele><time>2026-04-04T08:36:35.311Z</time></trkpt><trkpt lat="43.4575204" lon="11.9821959"><ele>823.1999999999999</ele><time>2026-04-04T08:36:36.311Z</time></trkpt><trkpt lat="43.457464" lon="11.9822585"><ele>821.0</ele><time>2026-04-04T08:36:37.311Z</time></trkpt><trkpt lat="43.457376" lon="11.9823294"><ele>821.0</ele><time>2026-04-04T08:36:39.311Z</time></trkpt><trkpt lat="43.4572373" lon="11.9824198"><ele>821.0</ele><time>2026-04-04T08:36:42.252Z</time></trkpt><trkpt lat="43.4571509" lon="11.9824615"><ele>821.0</ele><time>2026-04-04T08:36:43.312Z</time></trkpt><trkpt lat="43.4570217" lon="11.9824441"><ele>821.0</ele><time>2026-04-04T08:36:45.312Z</time></trkpt><trkpt lat="43.456931" lon="11.9824199"><ele>819.3333333333334</ele><time>2026-04-04T08:36:47.311Z</time></trkpt><trkpt lat="43.456859" lon="11.9823918"><ele>817.6666666666667</ele><time>2026-04-04T08:36:50.312Z</time></trkpt><trkpt lat="43.456808" lon="11.9823129"><ele>816.0</ele><time>2026-04-04T08:36:52.312Z</time></trkpt><trkpt lat="43.4567173" lon="11.9822358"><ele>814.3333333333333</ele><time>2026-04-04T08:36:55.326Z</time></trkpt><trkpt lat="43.4566488" lon="11.9821908"><ele>812.6666666666666</ele><time>2026-04-04T08:36:56.312Z</time></trkpt><trkpt lat="43.4565746" lon="11.9821266"><ele>811.0</ele><time>2026-04-04T08:36:58.312Z</time></trkpt><trkpt lat="43.4565109" lon="11.9820501"><ele>810.9999999999999</ele><time>2026-04-04T08:37:00.311Z</time></trkpt><trkpt lat="43.4564411" lon="11.9819597"><ele>811.0</ele><time>2026-04-04T08:37:02.312Z</time></trkpt><trkpt lat="43.4563593" lon="11.9818712"><ele>811.0</ele><time>2026-04-04T08:37:04.312Z</time></trkpt><trkpt lat="43.4562871" lon="11.981812"><ele>811.0</ele><time>2026-04-04T08:37:06.313Z</time></trkpt><trkpt lat="43.4562269" lon="11.98177"><ele>810.9999999999999</ele><time>2026-04-04T08:37:08.312Z</time></trkpt><trkpt lat="43.456159" lon="11.9817254"><ele>811.0</ele><time>2026-04-04T08:37:10.312Z</time></trkpt><trkpt lat="43.4561047" lon="11.9816421"><ele>807.4999999999999</ele><time>2026-04-04T08:37:13.311Z</time></trkpt><trkpt lat="43.4560448" lon="11.9815787"><ele>804.0</ele><time>2026-04-04T08:37:15.312Z</time></trkpt><trkpt lat="43.4559943" lon="11.9815252"><ele>800.5</ele><time>2026-04-04T08:37:17.312Z</time></trkpt><trkpt lat="43.4559236" lon="11.9814579"><ele>797.0</ele><time>2026-04-04T08:37:20.311Z</time></trkpt><trkpt lat="43.4558656" lon="11.9814087"><ele>793.4999999999999</ele><time>2026-04-04T08:37:22.312Z</time></trkpt><trkpt lat="43.4558065" lon="11.981337"><ele>790.0</ele><time>2026-04-04T08:37:24.312Z</time></trkpt><trkpt lat="43.4557445" lon="11.9812299"><ele>790.0</ele><time>2026-04-04T08:37:26.312Z</time></trkpt><trkpt lat="43.4556484" lon="11.9810878"><ele>790.0</ele><time>2026-04-04T08:37:28.311Z</time></trkpt><trkpt lat="43.4555991" lon="11.9810047"><ele>790.0</ele><time>2026-04-04T08:37:30.312Z</time></trkpt><trkpt lat="43.4555544" lon="11.9808849"><ele>790.0</ele><time>2026-04-04T08:37:32.312Z</time></trkpt><trkpt lat="43.4555004" lon="11.9807913"><ele>790.0</ele><time>2026-04-04T08:37:34.312Z</time></trkpt><trkpt lat="43.4554382" lon="11.9806952"><ele>785.0</ele><time>2026-04-04T08:37:36.312Z</time></trkpt><trkpt lat="43.4553687" lon="11.9805808"><ele>780.0</ele><time>2026-04-04T08:37:38.312Z</time></trkpt><trkpt lat="43.4553137" lon="11.9804721"><ele>775.0</ele><time>2026-04-04T08:37:40.312Z</time></trkpt><trkpt lat="43.455254" lon="11.9803764"><ele>770.0</ele><time>2026-04-04T08:37:42.311Z</time></trkpt><trkpt lat="43.4552006" lon="11.9802715"><ele>765.0</ele><time>2026-04-04T08:37:44.312Z</time></trkpt><trkpt lat="43.4551553" lon="11.9801701"><ele>765.0</ele><time>2026-04-04T08:37:46.312Z</time></trkpt><trkpt lat="43.4551216" lon="11.980088"><ele>765.0</ele><time>2026-04-04T08:37:47.311Z</time></trkpt><trkpt lat="43.4550877" lon="11.979988"><ele>765.0</ele><time>2026-04-04T08:37:49.312Z</time></trkpt><trkpt lat="43.455042" lon="11.9798945"><ele>765.0</ele><time>2026-04-04T08:37:51.312Z</time></trkpt><trkpt lat="43.4549969" lon="11.9798095"><ele>765.0</ele><time>2026-04-04T08:37:53.312Z</time></trkpt><trkpt lat="43.4549798" lon="11.9796668"><ele>765.0</ele><time>2026-04-04T08:37:55.312Z</time></trkpt><trkpt lat="43.4549599" lon="11.9795378"><ele>764.5</ele><time>2026-04-04T08:37:57.312Z</time></trkpt><trkpt lat="43.4549233" lon="11.979458"><ele>764.0</ele><time>2026-04-04T08:37:59.312Z</time></trkpt><trkpt lat="43.4548793" lon="11.979374"><ele>763.5</ele><time>2026-04-04T08:38:03.312Z</time></trkpt><trkpt lat="43.454859" lon="11.9792849"><ele>763.0</ele><time>2026-04-04T08:38:05.312Z</time></trkpt><trkpt lat="43.4548326" lon="11.9791646"><ele>762.5</ele><time>2026-04-04T08:38:07.312Z</time></trkpt><trkpt lat="43.4548138" lon="11.9790721"><ele>762.0</ele><time>2026-04-04T08:38:09.312Z</time></trkpt><trkpt lat="43.4547766" lon="11.9789744"><ele>760.0</ele><time>2026-04-04T08:38:12.312Z</time></trkpt><trkpt lat="43.4547418" lon="11.9788928"><ele>758.0</ele><time>2026-04-04T08:38:14.312Z</time></trkpt><trkpt lat="43.4547355" lon="11.9788033"><ele>756.0</ele><time>2026-04-04T08:38:18.313Z</time></trkpt><trkpt lat="43.4548124" lon="11.9787588"><ele>754.0</ele><time>2026-04-04T08:38:21.312Z</time></trkpt><trkpt lat="43.4548935" lon="11.9787564"><ele>752.0</ele><time>2026-04-04T08:38:23.312Z</time></trkpt><trkpt lat="43.45497" lon="11.9788001"><ele>750.0</ele><time>2026-04-04T08:38:25.312Z</time></trkpt><trkpt lat="43.4550636" lon="11.9787837"><ele>750.0</ele><time>2026-04-04T08:38:28.311Z</time></trkpt><trkpt lat="43.4551671" lon="11.9786996"><ele>750.0</ele><time>2026-04-04T08:38:30.311Z</time></trkpt><trkpt lat="43.455232" lon="11.9785879"><ele>750.0</ele><time>2026-04-04T08:38:32.311Z</time></trkpt><trkpt lat="43.4552691" lon="11.9784578"><ele>750.0</ele><time>2026-04-04T08:38:34.312Z</time></trkpt><trkpt lat="43.4553084" lon="11.9783704"><ele>750.0</ele><time>2026-04-04T08:38:36.312Z</time></trkpt><trkpt lat="43.4553579" lon="11.978283"><ele>747.1666666666666</ele><time>2026-04-04T08:38:38.312Z</time></trkpt><trkpt lat="43.4554078" lon="11.9782193"><ele>744.3333333333334</ele><time>2026-04-04T08:38:39.312Z</time></trkpt><trkpt lat="43.4555013" lon="11.9781375"><ele>741.5</ele><time>2026-04-04T08:38:41.312Z</time></trkpt><trkpt lat="43.4555879" lon="11.9782043"><ele>738.6666666666667</ele><time>2026-04-04T08:38:44.312Z</time></trkpt><trkpt lat="43.4556368" lon="11.9782827"><ele>735.8333333333334</ele><time>2026-04-04T08:38:46.312Z</time></trkpt><trkpt lat="43.4556984" lon="11.9783189"><ele>733.0</ele><time>2026-04-04T08:38:48.312Z</time></trkpt><trkpt lat="43.4557675" lon="11.9783152"><ele>733.0</ele><time>2026-04-04T08:38:51.312Z</time></trkpt><trkpt lat="43.4558981" lon="11.9782929"><ele>733.0</ele><time>2026-04-04T08:38:53.312Z</time></trkpt><trkpt lat="43.4559622" lon="11.9783121"><ele>733.0</ele><time>2026-04-04T08:38:55.312Z</time></trkpt><trkpt lat="43.4560198" lon="11.9782536"><ele>733.0</ele><time>2026-04-04T08:38:57.312Z</time></trkpt><trkpt lat="43.4560243" lon="11.9781351"><ele>733.0</ele><time>2026-04-04T08:39:00.312Z</time></trkpt><trkpt lat="43.4560104" lon="11.9780238"><ele>733.0</ele><time>2026-04-04T08:39:02.312Z</time></trkpt><trkpt lat="43.4559854" lon="11.9778892"><ele>733.0</ele><time>2026-04-04T08:39:04.311Z</time></trkpt><trkpt lat="43.4559802" lon="11.9777741"><ele>733.0</ele><time>2026-04-04T08:39:06.312Z</time></trkpt><trkpt lat="43.4559624" lon="11.9776513"><ele>733.0</ele><time>2026-04-04T08:39:07.312Z</time></trkpt><trkpt lat="43.4559361" lon="11.9775562"><ele>733.0</ele><time>2026-04-04T08:39:08.312Z</time></trkpt><trkpt lat="43.4559279" lon="11.9774257"><ele>733.0</ele><time>2026-04-04T08:39:09.311Z</time></trkpt><trkpt lat="43.4559327" lon="11.9773264"><ele>733.0</ele><time>2026-04-04T08:39:11.312Z</time></trkpt><trkpt lat="43.4559678" lon="11.9771832"><ele>729.5999999999999</ele><time>2026-04-04T08:39:13.311Z</time></trkpt><trkpt lat="43.4559968" lon="11.9770259"><ele>726.1999999999999</ele><time>2026-04-04T08:39:15.312Z</time></trkpt><trkpt lat="43.456052" lon="11.9769472"><ele>722.8</ele><time>2026-04-04T08:39:17.313Z</time></trkpt><trkpt lat="43.4561063" lon="11.976881"><ele>719.4</ele><time>2026-04-04T08:39:18.312Z</time></trkpt><trkpt lat="43.4561881" lon="11.9768147"><ele>716.0</ele><time>2026-04-04T08:39:20.312Z</time></trkpt><trkpt lat="43.4562811" lon="11.9767882"><ele>716.8333333333333</ele><time>2026-04-04T08:39:22.311Z</time></trkpt><trkpt lat="43.4563559" lon="11.9767704"><ele>717.6666666666666</ele><time>2026-04-04T08:39:24.313Z</time></trkpt><trkpt lat="43.4564286" lon="11.9767488"><ele>718.5</ele><time>2026-04-04T08:39:26.312Z</time></trkpt><trkpt lat="43.4565147" lon="11.9766966"><ele>719.3333333333334</ele><time>2026-04-04T08:39:28.311Z</time></trkpt><trkpt lat="43.4565595" lon="11.9765484"><ele>720.1666666666667</ele><time>2026-04-04T08:39:31.313Z</time></trkpt><trkpt lat="43.4565848" lon="11.9764388"><ele>721.0</ele><time>2026-04-04T08:39:33.312Z</time></trkpt><trkpt lat="43.4566293" lon="11.9763315"><ele>721.0</ele><time>2026-04-04T08:39:35.312Z</time></trkpt><trkpt lat="43.4566841" lon="11.9762223"><ele>721.0</ele><time>2026-04-04T08:39:37.313Z</time></trkpt><trkpt lat="43.4567268" lon="11.9761508"><ele>721.0</ele><time>2026-04-04T08:39:38.312Z</time></trkpt><trkpt lat="43.4568279" lon="11.9760569"><ele>721.0</ele><time>2026-04-04T08:39:40.312Z</time></trkpt><trkpt lat="43.4568459" lon="11.9759278"><ele>721.0</ele><time>2026-04-04T08:39:41.311Z</time></trkpt><trkpt lat="43.4568589" lon="11.9757556"><ele>718.8333333333334</ele><time>2026-04-04T08:39:43.311Z</time></trkpt><trkpt lat="43.4568904" lon="11.9756222"><ele>716.6666666666667</ele><time>2026-04-04T08:39:45.312Z</time></trkpt><trkpt lat="43.456925" lon="11.9755403"><ele>714.5</ele><time>2026-04-04T08:39:46.312Z</time></trkpt><trkpt lat="43.4569542" lon="11.9754003"><ele>712.3333333333334</ele><time>2026-04-04T08:39:48.312Z</time></trkpt><trkpt lat="43.4569926" lon="11.9752863"><ele>710.1666666666666</ele><time>2026-04-04T08:39:50.312Z</time></trkpt><trkpt lat="43.4570076" lon="11.9751919"><ele>708.0</ele><time>2026-04-04T08:39:51.312Z</time></trkpt><trkpt lat="43.456974" lon="11.9751126"><ele>708.0</ele><time>2026-04-04T08:39:52.312Z</time></trkpt><trkpt lat="43.4569315" lon="11.9750359"><ele>708.0</ele><time>2026-04-04T08:39:54.312Z</time></trkpt><trkpt lat="43.4569145" lon="11.9749487"><ele>708.0</ele><time>2026-04-04T08:39:57.312Z</time></trkpt><trkpt lat="43.4568777" lon="11.974851"><ele>708.0</ele><time>2026-04-04T08:39:59.312Z</time></trkpt><trkpt lat="43.4568289" lon="11.9747788"><ele>708.0</ele><time>2026-04-04T08:40:01.312Z</time></trkpt><trkpt lat="43.4567675" lon="11.974705"><ele>708.0</ele><time>2026-04-04T08:40:03.312Z</time></trkpt><trkpt lat="43.4567021" lon="11.9746061"><ele>707.2</ele><time>2026-04-04T08:40:05.313Z</time></trkpt><trkpt lat="43.456648" lon="11.9745567"><ele>706.4</ele><time>2026-04-04T08:40:06.312Z</time></trkpt><trkpt lat="43.456585" lon="11.9745088"><ele>705.6</ele><time>2026-04-04T08:40:07.311Z</time></trkpt><trkpt lat="43.4565002" lon="11.9743534"><ele>704.8000000000001</ele><time>2026-04-04T08:40:09.311Z</time></trkpt><trkpt lat="43.4564568" lon="11.9742863"><ele>704.0</ele><time>2026-04-04T08:40:10.312Z</time></trkpt><trkpt lat="43.4564121" lon="11.9741464"><ele>704.0</ele><time>2026-04-04T08:40:12.311Z</time></trkpt><trkpt lat="43.4563606" lon="11.9740457"><ele>704.0</ele><time>2026-04-04T08:40:14.312Z</time></trkpt><trkpt lat="43.4563062" lon="11.9739847"><ele>704.0</ele><time>2026-04-04T08:40:16.312Z</time></trkpt><trkpt lat="43.4562711" lon="11.9739021"><ele>704.0</ele><time>2026-04-04T08:40:18.313Z</time></trkpt><trkpt lat="43.456237" lon="11.9738136"><ele>704.0</ele><time>2026-04-04T08:40:20.312Z</time></trkpt><trkpt lat="43.4561935" lon="11.9737253"><ele>704.0</ele><time>2026-04-04T08:40:22.312Z</time></trkpt><trkpt lat="43.4561509" lon="11.9736303"><ele>700.6666666666666</ele><time>2026-04-04T08:40:23.311Z</time></trkpt><trkpt lat="43.4561228" lon="11.9735321"><ele>697.3333333333333</ele><time>2026-04-04T08:40:24.312Z</time></trkpt><trkpt lat="43.4560931" lon="11.9734483"><ele>694.0</ele><time>2026-04-04T08:40:25.312Z</time></trkpt><trkpt lat="43.4560405" lon="11.973294"><ele>690.6666666666666</ele><time>2026-04-04T08:40:27.313Z</time></trkpt><trkpt lat="43.4559912" lon="11.9731624"><ele>687.3333333333334</ele><time>2026-04-04T08:40:28.312Z</time></trkpt><trkpt lat="43.4559684" lon="11.9730738"><ele>684.0</ele><time>2026-04-04T08:40:29.312Z</time></trkpt><trkpt lat="43.4559594" lon="11.9729818"><ele>684.0</ele><time>2026-04-04T08:40:30.312Z</time></trkpt><trkpt lat="43.4559494" lon="11.9728439"><ele>684.0</ele><time>2026-04-04T08:40:32.311Z</time></trkpt><trkpt lat="43.4559101" lon="11.9726944"><ele>684.0</ele><time>2026-04-04T08:40:34.312Z</time></trkpt><trkpt lat="43.4559183" lon="11.9725392"><ele>684.0</ele><time>2026-04-04T08:40:36.312Z</time></trkpt><trkpt lat="43.4559317" lon="11.9723554"><ele>684.2</ele><time>2026-04-04T08:40:38.312Z</time></trkpt><trkpt lat="43.4559754" lon="11.9722459"><ele>684.4000000000001</ele><time>2026-04-04T08:40:40.313Z</time></trkpt><trkpt lat="43.4559817" lon="11.9721303"><ele>684.6</ele><time>2026-04-04T08:40:42.311Z</time></trkpt><trkpt lat="43.4559324" lon="11.9719404"><ele>684.8</ele><time>2026-04-04T08:40:44.312Z</time></trkpt><trkpt lat="43.4559446" lon="11.9717987"><ele>685.0</ele><time>2026-04-04T08:40:46.312Z</time></trkpt><trkpt lat="43.4560101" lon="11.9716966"><ele>683.8</ele><time>2026-04-04T08:40:48.313Z</time></trkpt><trkpt lat="43.4560727" lon="11.9715737"><ele>682.6</ele><time>2026-04-04T08:40:50.312Z</time></trkpt><trkpt lat="43.4561103" lon="11.9714693"><ele>681.4000000000001</ele><time>2026-04-04T08:40:52.312Z</time></trkpt><trkpt lat="43.4561824" lon="11.9714577"><ele>680.2</ele><time>2026-04-04T08:40:55.312Z</time></trkpt><trkpt lat="43.4562801" lon="11.9714367"><ele>679.0</ele><time>2026-04-04T08:40:57.312Z</time></trkpt><trkpt lat="43.4563703" lon="11.9714789"><ele>678.8000000000001</ele><time>2026-04-04T08:40:59.312Z</time></trkpt><trkpt lat="43.4564319" lon="11.9714978"><ele>678.6</ele><time>2026-04-04T08:41:00.312Z</time></trkpt><trkpt lat="43.4565423" lon="11.9715571"><ele>678.4</ele><time>2026-04-04T08:41:02.312Z</time></trkpt><trkpt lat="43.4566011" lon="11.971591"><ele>678.2</ele><time>2026-04-04T08:41:03.312Z</time></trkpt><trkpt lat="43.4566777" lon="11.971665"><ele>678.0</ele><time>2026-04-04T08:41:04.312Z</time></trkpt><trkpt lat="43.4567889" lon="11.9716909"><ele>678.8</ele><time>2026-04-04T08:41:06.311Z</time></trkpt><trkpt lat="43.4568667" lon="11.9717416"><ele>679.5999999999999</ele><time>2026-04-04T08:41:09.312Z</time></trkpt><trkpt lat="43.456927" lon="11.9717672"><ele>680.4000000000001</ele><time>2026-04-04T08:41:10.312Z</time></trkpt><trkpt lat="43.4570206" lon="11.9717934"><ele>681.2</ele><time>2026-04-04T08:41:11.311Z</time></trkpt><trkpt lat="43.4571314" lon="11.971826"><ele>682.0</ele><time>2026-04-04T08:41:13.312Z</time></trkpt><trkpt lat="43.4572087" lon="11.9719272"><ele>682.0</ele><time>2026-04-04T08:41:15.311Z</time></trkpt><trkpt lat="43.4572843" lon="11.971986"><ele>682.0</ele><time>2026-04-04T08:41:17.311Z</time></trkpt><trkpt lat="43.4573462" lon="11.9720663"><ele>682.0</ele><time>2026-04-04T08:41:19.311Z</time></trkpt><trkpt lat="43.4574525" lon="11.972187"><ele>682.0</ele><time>2026-04-04T08:41:21.312Z</time></trkpt><trkpt lat="43.4575367" lon="11.9722726"><ele>682.0</ele><time>2026-04-04T08:41:23.312Z</time></trkpt><trkpt lat="43.4576036" lon="11.9722833"><ele>682.0</ele><time>2026-04-04T08:41:24.312Z</time></trkpt><trkpt lat="43.4576978" lon="11.9723672"><ele>682.0</ele><time>2026-04-04T08:41:26.312Z</time></trkpt><trkpt lat="43.4577932" lon="11.9724488"><ele>682.0</ele><time>2026-04-04T08:41:28.312Z</time></trkpt><trkpt lat="43.4578587" lon="11.9725037"><ele>682.0</ele><time>2026-04-04T08:41:29.312Z</time></trkpt><trkpt lat="43.457917" lon="11.9725527"><ele>682.0</ele><time>2026-04-04T08:41:31.312Z</time></trkpt><trkpt lat="43.4579009" lon="11.972458"><ele>682.0</ele><time>2026-04-04T08:41:36.312Z</time></trkpt><trkpt lat="43.4578889" lon="11.9723521"><ele>682.0</ele><time>2026-04-04T08:41:40.312Z</time></trkpt><trkpt lat="43.457902" lon="11.9722466"><ele>682.0</ele><time>2026-04-04T08:41:43.311Z</time></trkpt><trkpt lat="43.4578898" lon="11.9721447"><ele>682.0</ele><time>2026-04-04T08:41:46.311Z</time></trkpt><trkpt lat="43.4578963" lon="11.9720337"><ele>682.0</ele><time>2026-04-04T08:41:49.312Z</time></trkpt><trkpt lat="43.4579394" lon="11.9718958"><ele>682.0</ele><time>2026-04-04T08:41:52.312Z</time></trkpt><trkpt lat="43.4579751" lon="11.9717527"><ele>680.3333333333334</ele><time>2026-04-04T08:41:54.312Z</time></trkpt><trkpt lat="43.4580329" lon="11.9716548"><ele>678.6666666666667</ele><time>2026-04-04T08:41:56.312Z</time></trkpt><trkpt lat="43.4580739" lon="11.9715526"><ele>677.0</ele><time>2026-04-04T08:41:57.312Z</time></trkpt><trkpt lat="43.4581063" lon="11.971473"><ele>675.3333333333334</ele><time>2026-04-04T08:41:58.312Z</time></trkpt><trkpt lat="43.45817" lon="11.9713611"><ele>673.6666666666666</ele><time>2026-04-04T08:42:00.312Z</time></trkpt><trkpt lat="43.4581737" lon="11.9712377"><ele>672.0</ele><time>2026-04-04T08:42:02.312Z</time></trkpt><trkpt lat="43.4581795" lon="11.9710955"><ele>672.0</ele><time>2026-04-04T08:42:04.312Z</time></trkpt><trkpt lat="43.4582138" lon="11.9709675"><ele>672.0</ele><time>2026-04-04T08:42:06.312Z</time></trkpt><trkpt lat="43.4582448" lon="11.9708547"><ele>672.0</ele><time>2026-04-04T08:42:07.312Z</time></trkpt><trkpt lat="43.4583205" lon="11.9708716"><ele>672.0</ele><time>2026-04-04T08:42:10.312Z</time></trkpt><trkpt lat="43.4583613" lon="11.9709463"><ele>672.0</ele><time>2026-04-04T08:42:13.312Z</time></trkpt><trkpt lat="43.458386" lon="11.9710462"><ele>672.0</ele><time>2026-04-04T08:42:15.311Z</time></trkpt><trkpt lat="43.4584436" lon="11.9711577"><ele>672.0</ele><time>2026-04-04T08:42:17.312Z</time></trkpt><trkpt lat="43.4585785" lon="11.9711112"><ele>672.0</ele><time>2026-04-04T08:42:19.313Z</time></trkpt><trkpt lat="43.4586773" lon="11.9710668"><ele>672.0</ele><time>2026-04-04T08:42:21.312Z</time></trkpt><trkpt lat="43.4587685" lon="11.9710013"><ele>672.0</ele><time>2026-04-04T08:42:23.312Z</time></trkpt><trkpt lat="43.4588455" lon="11.9709274"><ele>672.0</ele><time>2026-04-04T08:42:25.312Z</time></trkpt><trkpt lat="43.4589152" lon="11.9708834"><ele>672.5</ele><time>2026-04-04T08:42:27.312Z</time></trkpt><trkpt lat="43.4589825" lon="11.9708911"><ele>673.0</ele><time>2026-04-04T08:42:29.312Z</time></trkpt><trkpt lat="43.4590483" lon="11.9709621"><ele>673.5</ele><time>2026-04-04T08:42:31.312Z</time></trkpt><trkpt lat="43.4591282" lon="11.9710457"><ele>674.0</ele><time>2026-04-04T08:42:33.311Z</time></trkpt><trkpt lat="43.4591938" lon="11.9711087"><ele>674.5</ele><time>2026-04-04T08:42:34.312Z</time></trkpt><trkpt lat="43.4592573" lon="11.9710849"><ele>675.0</ele><time>2026-04-04T08:42:35.311Z</time></trkpt><trkpt lat="43.4593549" lon="11.9710653"><ele>675.0</ele><time>2026-04-04T08:42:37.312Z</time></trkpt><trkpt lat="43.4594823" lon="11.9710062"><ele>675.0</ele><time>2026-04-04T08:42:39.312Z</time></trkpt><trkpt lat="43.4595902" lon="11.9709777"><ele>675.0</ele><time>2026-04-04T08:42:40.312Z</time></trkpt><trkpt lat="43.4596642" lon="11.9708854"><ele>675.0</ele><time>2026-04-04T08:42:42.312Z</time></trkpt><trkpt lat="43.4597435" lon="11.9708151"><ele>675.0</ele><time>2026-04-04T08:42:44.312Z</time></trkpt><trkpt lat="43.4598052" lon="11.9707654"><ele>672.2</ele><time>2026-04-04T08:42:45.312Z</time></trkpt><trkpt lat="43.4599183" lon="11.9706911"><ele>669.4</ele><time>2026-04-04T08:42:47.312Z</time></trkpt><trkpt lat="43.4600005" lon="11.9706916"><ele>666.5999999999999</ele><time>2026-04-04T08:42:48.312Z</time></trkpt><trkpt lat="43.4601099" lon="11.9706674"><ele>663.8</ele><time>2026-04-04T08:42:50.312Z</time></trkpt><trkpt lat="43.4602041" lon="11.9706528"><ele>661.0</ele><time>2026-04-04T08:42:52.312Z</time></trkpt><trkpt lat="43.4602842" lon="11.9706816"><ele>661.0</ele><time>2026-04-04T08:42:53.312Z</time></trkpt><trkpt lat="43.4603843" lon="11.9707338"><ele>661.0</ele><time>2026-04-04T08:42:55.312Z</time></trkpt><trkpt lat="43.460435" lon="11.9708093"><ele>661.0</ele><time>2026-04-04T08:42:56.312Z</time></trkpt><trkpt lat="43.4604958" lon="11.970865"><ele>661.0</ele><time>2026-04-04T08:42:57.311Z</time></trkpt><trkpt lat="43.4605665" lon="11.9709058"><ele>661.0</ele><time>2026-04-04T08:42:58.312Z</time></trkpt><trkpt lat="43.4606482" lon="11.970882"><ele>661.0</ele><time>2026-04-04T08:43:00.312Z</time></trkpt><trkpt lat="43.4607205" lon="11.9708749"><ele>660.8</ele><time>2026-04-04T08:43:02.312Z</time></trkpt><trkpt lat="43.4608396" lon="11.9708943"><ele>660.5999999999999</ele><time>2026-04-04T08:43:05.312Z</time></trkpt><trkpt lat="43.4609498" lon="11.9709014"><ele>660.4</ele><time>2026-04-04T08:43:07.312Z</time></trkpt><trkpt lat="43.4610504" lon="11.9708378"><ele>660.2</ele><time>2026-04-04T08:43:09.312Z</time></trkpt><trkpt lat="43.4611388" lon="11.9707585"><ele>660.0</ele><time>2026-04-04T08:43:11.312Z</time></trkpt><trkpt lat="43.461206" lon="11.9707027"><ele>660.0</ele><time>2026-04-04T08:43:13.312Z</time></trkpt><trkpt lat="43.461271" lon="11.970697"><ele>660.0</ele><time>2026-04-04T08:43:15.312Z</time></trkpt><trkpt lat="43.4613292" lon="11.9706222"><ele>660.0</ele><time>2026-04-04T08:43:19.312Z</time></trkpt><trkpt lat="43.4613443" lon="11.9705027"><ele>660.0</ele><time>2026-04-04T08:43:21.312Z</time></trkpt><trkpt lat="43.4613166" lon="11.9703309"><ele>660.0</ele><time>2026-04-04T08:43:22.312Z</time></trkpt><trkpt lat="43.4612956" lon="11.9701434"><ele>657.6</ele><time>2026-04-04T08:43:23.312Z</time></trkpt><trkpt lat="43.4612777" lon="11.96999"><ele>655.2</ele><time>2026-04-04T08:43:25.312Z</time></trkpt><trkpt lat="43.4612474" lon="11.9698584"><ele>652.8</ele><time>2026-04-04T08:43:26.312Z</time></trkpt><trkpt lat="43.461234" lon="11.9697432"><ele>650.4</ele><time>2026-04-04T08:43:28.312Z</time></trkpt><trkpt lat="43.4611605" lon="11.9696766"><ele>648.0</ele><time>2026-04-04T08:43:30.312Z</time></trkpt><trkpt lat="43.4610793" lon="11.9696173"><ele>648.0</ele><time>2026-04-04T08:43:32.311Z</time></trkpt><trkpt lat="43.4610113" lon="11.9695165"><ele>648.0</ele><time>2026-04-04T08:43:34.312Z</time></trkpt><trkpt lat="43.4609937" lon="11.969373"><ele>648.0</ele><time>2026-04-04T08:43:36.311Z</time></trkpt><trkpt lat="43.4609625" lon="11.9692328"><ele>648.0</ele><time>2026-04-04T08:43:38.312Z</time></trkpt><trkpt lat="43.4609239" lon="11.9690808"><ele>648.0</ele><time>2026-04-04T08:43:40.312Z</time></trkpt><trkpt lat="43.4608933" lon="11.9689229"><ele>650.0</ele><time>2026-04-04T08:43:42.312Z</time></trkpt><trkpt lat="43.4608851" lon="11.968785"><ele>652.0</ele><time>2026-04-04T08:43:44.312Z</time></trkpt><trkpt lat="43.4608645" lon="11.9686131"><ele>654.0</ele><time>2026-04-04T08:43:46.312Z</time></trkpt><trkpt lat="43.4608548" lon="11.9685271"><ele>656.0</ele><time>2026-04-04T08:43:47.312Z</time></trkpt><trkpt lat="43.4608533" lon="11.9683792"><ele>658.0</ele><time>2026-04-04T08:43:49.312Z</time></trkpt><trkpt lat="43.4609028" lon="11.9682745"><ele>659.4</ele><time>2026-04-04T08:43:51.312Z</time></trkpt><trkpt lat="43.4609553" lon="11.9681265"><ele>660.8</ele><time>2026-04-04T08:43:53.311Z</time></trkpt><trkpt lat="43.4609982" lon="11.9679804"><ele>662.2</ele><time>2026-04-04T08:43:55.311Z</time></trkpt><trkpt lat="43.4609952" lon="11.9678733"><ele>663.6</ele><time>2026-04-04T08:43:56.312Z</time></trkpt><trkpt lat="43.4610137" lon="11.9677256"><ele>665.0</ele><time>2026-04-04T08:43:58.312Z</time></trkpt><trkpt lat="43.4610453" lon="11.9676086"><ele>666.0</ele><time>2026-04-04T08:44:00.312Z</time></trkpt><trkpt lat="43.4610176" lon="11.967407"><ele>667.0</ele><time>2026-04-04T08:44:01.312Z</time></trkpt><trkpt lat="43.461001" lon="11.9672837"><ele>668.0</ele><time>2026-04-04T08:44:03.312Z</time></trkpt><trkpt lat="43.4609091" lon="11.9672101"><ele>669.0</ele><time>2026-04-04T08:44:05.311Z</time></trkpt><trkpt lat="43.4608743" lon="11.9671202"><ele>670.0</ele><time>2026-04-04T08:44:06.311Z</time></trkpt><trkpt lat="43.4608331" lon="11.9670065"><ele>670.0</ele><time>2026-04-04T08:44:08.311Z</time></trkpt><trkpt lat="43.460822" lon="11.9668336"><ele>670.0</ele><time>2026-04-04T08:44:10.313Z</time></trkpt><trkpt lat="43.4608712" lon="11.9667359"><ele>670.0</ele><time>2026-04-04T08:44:12.311Z</time></trkpt><trkpt lat="43.4609065" lon="11.9665976"><ele>670.0</ele><time>2026-04-04T08:44:13.311Z</time></trkpt><trkpt lat="43.460941" lon="11.9664949"><ele>670.0</ele><time>2026-04-04T08:44:15.312Z</time></trkpt><trkpt lat="43.4609517" lon="11.9664066"><ele>671.2</ele><time>2026-04-04T08:44:16.312Z</time></trkpt><trkpt lat="43.4609794" lon="11.966311"><ele>672.4</ele><time>2026-04-04T08:44:17.312Z</time></trkpt><trkpt lat="43.46096" lon="11.9661994"><ele>673.5999999999999</ele><time>2026-04-04T08:44:18.312Z</time></trkpt><trkpt lat="43.4609493" lon="11.9660193"><ele>674.8</ele><time>2026-04-04T08:44:19.312Z</time></trkpt><trkpt lat="43.4609441" lon="11.9659302"><ele>676.0</ele><time>2026-04-04T08:44:20.312Z</time></trkpt><trkpt lat="43.4609555" lon="11.9657815"><ele>676.4</ele><time>2026-04-04T08:44:22.312Z</time></trkpt><trkpt lat="43.4609055" lon="11.9656819"><ele>676.8</ele><time>2026-04-04T08:44:24.312Z</time></trkpt><trkpt lat="43.4608331" lon="11.9655591"><ele>677.1999999999999</ele><time>2026-04-04T08:44:26.312Z</time></trkpt><trkpt lat="43.460796" lon="11.9654761"><ele>677.5999999999999</ele><time>2026-04-04T08:44:28.312Z</time></trkpt><trkpt lat="43.4608266" lon="11.9653315"><ele>678.0</ele><time>2026-04-04T08:44:30.312Z</time></trkpt><trkpt lat="43.4608496" lon="11.965172"><ele>678.0</ele><time>2026-04-04T08:44:32.312Z</time></trkpt><trkpt lat="43.4608865" lon="11.9650938"><ele>678.0</ele><time>2026-04-04T08:44:33.312Z</time></trkpt><trkpt lat="43.460948" lon="11.964979"><ele>678.0</ele><time>2026-04-04T08:44:35.312Z</time></trkpt><trkpt lat="43.4609667" lon="11.964856"><ele>678.0</ele><time>2026-04-04T08:44:36.312Z</time></trkpt><trkpt lat="43.4609903" lon="11.964666"><ele>678.0</ele><time>2026-04-04T08:44:38.311Z</time></trkpt><trkpt lat="43.4609769" lon="11.9645193"><ele>678.8</ele><time>2026-04-04T08:44:39.312Z</time></trkpt><trkpt lat="43.460967" lon="11.9644284"><ele>679.5999999999999</ele><time>2026-04-04T08:44:41.312Z</time></trkpt><trkpt lat="43.4609506" lon="11.9643345"><ele>680.4000000000001</ele><time>2026-04-04T08:44:42.312Z</time></trkpt><trkpt lat="43.4608947" lon="11.9642158"><ele>681.2</ele><time>2026-04-04T08:44:43.312Z</time></trkpt><trkpt lat="43.4608134" lon="11.9640704"><ele>682.0</ele><time>2026-04-04T08:44:45.312Z</time></trkpt><trkpt lat="43.4607339" lon="11.9639309"><ele>684.2</ele><time>2026-04-04T08:44:47.312Z</time></trkpt><trkpt lat="43.4607058" lon="11.9637791"><ele>686.4000000000001</ele><time>2026-04-04T08:44:49.312Z</time></trkpt><trkpt lat="43.460749" lon="11.9636331"><ele>688.5999999999999</ele><time>2026-04-04T08:44:51.312Z</time></trkpt><trkpt lat="43.4608277" lon="11.9635466"><ele>690.8</ele><time>2026-04-04T08:44:53.312Z</time></trkpt><trkpt lat="43.4609252" lon="11.963499"><ele>693.0</ele><time>2026-04-04T08:44:55.312Z</time></trkpt><trkpt lat="43.4610154" lon="11.9634161"><ele>693.0</ele><time>2026-04-04T08:44:57.313Z</time></trkpt><trkpt lat="43.4610819" lon="11.9633826"><ele>693.0</ele><time>2026-04-04T08:44:58.312Z</time></trkpt><trkpt lat="43.4611636" lon="11.9633488"><ele>693.0</ele><time>2026-04-04T08:44:59.312Z</time></trkpt><trkpt lat="43.4612375" lon="11.9633284"><ele>693.0</ele><time>2026-04-04T08:45:00.312Z</time></trkpt><trkpt lat="43.461307" lon="11.9633002"><ele>693.0</ele><time>2026-04-04T08:45:01.312Z</time></trkpt><trkpt lat="43.4612968" lon="11.9631123"><ele>693.0</ele><time>2026-04-04T08:45:03.312Z</time></trkpt><trkpt lat="43.4612813" lon="11.9629609"><ele>692.5999999999999</ele><time>2026-04-04T08:45:05.312Z</time></trkpt><trkpt lat="43.4612229" lon="11.9627974"><ele>692.1999999999999</ele><time>2026-04-04T08:45:07.312Z</time></trkpt><trkpt lat="43.4611194" lon="11.9626794"><ele>691.8</ele><time>2026-04-04T08:45:09.312Z</time></trkpt><trkpt lat="43.4610703" lon="11.96262"><ele>691.4</ele><time>2026-04-04T08:45:10.312Z</time></trkpt><trkpt lat="43.4610244" lon="11.9625563"><ele>691.0</ele><time>2026-04-04T08:45:11.312Z</time></trkpt><trkpt lat="43.4609606" lon="11.96245"><ele>690.5</ele><time>2026-04-04T08:45:13.312Z</time></trkpt><trkpt lat="43.4609391" lon="11.9623331"><ele>690.0</ele><time>2026-04-04T08:45:16.311Z</time></trkpt><trkpt lat="43.4609498" lon="11.9622376"><ele>689.5</ele><time>2026-04-04T08:45:19.312Z</time></trkpt><trkpt lat="43.4610261" lon="11.9622338"><ele>689.0</ele><time>2026-04-04T08:45:25.312Z</time></trkpt><trkpt lat="43.4611069" lon="11.9623321"><ele>688.5</ele><time>2026-04-04T08:45:27.312Z</time></trkpt><trkpt lat="43.4611392" lon="11.9624262"><ele>688.0</ele><time>2026-04-04T08:45:28.312Z</time></trkpt><trkpt lat="43.4611936" lon="11.9624873"><ele>692.4</ele><time>2026-04-04T08:45:29.312Z</time></trkpt><trkpt lat="43.4613033" lon="11.9625442"><ele>696.8</ele><time>2026-04-04T08:45:30.312Z</time></trkpt><trkpt lat="43.4613918" lon="11.9626171"><ele>701.2</ele><time>2026-04-04T08:45:31.312Z</time></trkpt><trkpt lat="43.4614765" lon="11.9626479"><ele>705.6</ele><time>2026-04-04T08:45:32.312Z</time></trkpt><trkpt lat="43.4615603" lon="11.9626792"><ele>710.0</ele><time>2026-04-04T08:45:33.312Z</time></trkpt><trkpt lat="43.4616433" lon="11.962716"><ele>710.0</ele><time>2026-04-04T08:45:34.312Z</time></trkpt><trkpt lat="43.4617069" lon="11.9627249"><ele>710.0</ele><time>2026-04-04T08:45:35.312Z</time></trkpt><trkpt lat="43.4618578" lon="11.9627394"><ele>710.0</ele><time>2026-04-04T08:45:37.312Z</time></trkpt><trkpt lat="43.4619235" lon="11.9627531"><ele>710.0</ele><time>2026-04-04T08:45:38.312Z</time></trkpt><trkpt lat="43.4619931" lon="11.9627041"><ele>710.0</ele><time>2026-04-04T08:45:40.312Z</time></trkpt><trkpt lat="43.462078" lon="11.9626285"><ele>713.5</ele><time>2026-04-04T08:45:42.312Z</time></trkpt><trkpt lat="43.4621652" lon="11.9626521"><ele>717.0</ele><time>2026-04-04T08:45:44.312Z</time></trkpt><trkpt lat="43.4622556" lon="11.9626832"><ele>720.5</ele><time>2026-04-04T08:45:45.312Z</time></trkpt><trkpt lat="43.4623214" lon="11.9627162"><ele>724.0</ele><time>2026-04-04T08:45:46.312Z</time></trkpt><trkpt lat="43.4623964" lon="11.9627646"><ele>727.5</ele><time>2026-04-04T08:45:47.311Z</time></trkpt><trkpt lat="43.4624862" lon="11.962744"><ele>731.0</ele><time>2026-04-04T08:45:48.312Z</time></trkpt><trkpt lat="43.4625694" lon="11.9627135"><ele>731.0</ele><time>2026-04-04T08:45:49.312Z</time></trkpt><trkpt lat="43.4626423" lon="11.9625986"><ele>731.0</ele><time>2026-04-04T08:45:50.312Z</time></trkpt><trkpt lat="43.4626219" lon="11.9624301"><ele>731.0</ele><time>2026-04-04T08:45:51.312Z</time></trkpt><trkpt lat="43.462666" lon="11.9623633"><ele>731.0</ele><time>2026-04-04T08:45:52.312Z</time></trkpt><trkpt lat="43.4627074" lon="11.9622889"><ele>731.0</ele><time>2026-04-04T08:45:53.312Z</time></trkpt><trkpt lat="43.4627486" lon="11.962205"><ele>731.0</ele><time>2026-04-04T08:45:54.312Z</time></trkpt><trkpt lat="43.4627993" lon="11.9621391"><ele>730.1999999999999</ele><time>2026-04-04T08:45:55.311Z</time></trkpt><trkpt lat="43.462849" lon="11.9620823"><ele>729.4</ele><time>2026-04-04T08:45:56.311Z</time></trkpt><trkpt lat="43.4628959" lon="11.9620111"><ele>728.6</ele><time>2026-04-04T08:45:57.312Z</time></trkpt><trkpt lat="43.4629594" lon="11.9619151"><ele>727.8</ele><time>2026-04-04T08:45:58.312Z</time></trkpt><trkpt lat="43.4630776" lon="11.9617909"><ele>727.0</ele><time>2026-04-04T08:46:00.312Z</time></trkpt><trkpt lat="43.4631455" lon="11.9617342"><ele>729.4000000000001</ele><time>2026-04-04T08:46:01.312Z</time></trkpt><trkpt lat="43.4632113" lon="11.9616848"><ele>731.8000000000001</ele><time>2026-04-04T08:46:02.312Z</time></trkpt><trkpt lat="43.4633358" lon="11.961713"><ele>734.2</ele><time>2026-04-04T08:46:04.312Z</time></trkpt><trkpt lat="43.4634427" lon="11.9617372"><ele>736.6</ele><time>2026-04-04T08:46:06.312Z</time></trkpt><trkpt lat="43.4635445" lon="11.9617903"><ele>739.0</ele><time>2026-04-04T08:46:08.312Z</time></trkpt><trkpt lat="43.4636188" lon="11.9619142"><ele>740.6666666666667</ele><time>2026-04-04T08:46:09.312Z</time></trkpt><trkpt lat="43.4636527" lon="11.9619926"><ele>742.3333333333334</ele><time>2026-04-04T08:46:10.312Z</time></trkpt><trkpt lat="43.4636615" lon="11.9620882"><ele>744.0</ele><time>2026-04-04T08:46:11.312Z</time></trkpt><trkpt lat="43.4637371" lon="11.9622652"><ele>745.6666666666666</ele><time>2026-04-04T08:46:12.312Z</time></trkpt><trkpt lat="43.4637556" lon="11.962352"><ele>747.3333333333333</ele><time>2026-04-04T08:46:13.312Z</time></trkpt><trkpt lat="43.4637983" lon="11.9624663"><ele>749.0</ele><time>2026-04-04T08:46:15.312Z</time></trkpt><trkpt lat="43.4638579" lon="11.9626101"><ele>752.1666666666666</ele><time>2026-04-04T08:46:17.312Z</time></trkpt><trkpt lat="43.4638871" lon="11.9627645"><ele>755.3333333333333</ele><time>2026-04-04T08:46:19.312Z</time></trkpt><trkpt lat="43.4638891" lon="11.9628552"><ele>758.5</ele><time>2026-04-04T08:46:20.312Z</time></trkpt><trkpt lat="43.4639156" lon="11.9629603"><ele>761.6666666666666</ele><time>2026-04-04T08:46:21.312Z</time></trkpt><trkpt lat="43.4639268" lon="11.9630611"><ele>764.8333333333334</ele><time>2026-04-04T08:46:22.312Z</time></trkpt><trkpt lat="43.4639332" lon="11.9631665"><ele>768.0</ele><time>2026-04-04T08:46:23.312Z</time></trkpt><trkpt lat="43.4639477" lon="11.9632512"><ele>768.0</ele><time>2026-04-04T08:46:24.312Z</time></trkpt><trkpt lat="43.4639602" lon="11.9633544"><ele>768.0</ele><time>2026-04-04T08:46:25.312Z</time></trkpt><trkpt lat="43.4639917" lon="11.9634349"><ele>768.0</ele><time>2026-04-04T08:46:26.312Z</time></trkpt><trkpt lat="43.4640713" lon="11.9635602"><ele>768.0</ele><time>2026-04-04T08:46:28.313Z</time></trkpt><trkpt lat="43.4641403" lon="11.9636323"><ele>768.0</ele><time>2026-04-04T08:46:30.311Z</time></trkpt><trkpt lat="43.4642332" lon="11.9636602"><ele>768.0</ele><time>2026-04-04T08:46:32.312Z</time></trkpt><trkpt lat="43.464316" lon="11.9636954"><ele>770.8</ele><time>2026-04-04T08:46:34.312Z</time></trkpt><trkpt lat="43.4643841" lon="11.9637968"><ele>773.5999999999999</ele><time>2026-04-04T08:46:37.312Z</time></trkpt><trkpt lat="43.4643407" lon="11.9639327"><ele>776.4000000000001</ele><time>2026-04-04T08:46:38.311Z</time></trkpt><trkpt lat="43.4643571" lon="11.9640823"><ele>779.2</ele><time>2026-04-04T08:46:41.312Z</time></trkpt><trkpt lat="43.464368" lon="11.9641935"><ele>782.0</ele><time>2026-04-04T08:46:55.312Z</time></trkpt><trkpt lat="43.4643699" lon="11.9642826"><ele>784.0000000000001</ele><time>2026-04-04T08:47:06.311Z</time></trkpt><trkpt lat="43.4643825" lon="11.9643782"><ele>786.0</ele><time>2026-04-04T08:47:09.311Z</time></trkpt><trkpt lat="43.4644181" lon="11.9644899"><ele>788.0</ele><time>2026-04-04T08:47:15.312Z</time></trkpt><trkpt lat="43.4644697" lon="11.9645967"><ele>790.0</ele><time>2026-04-04T08:47:18.312Z</time></trkpt><trkpt lat="43.4644789" lon="11.9646958"><ele>792.0000000000001</ele><time>2026-04-04T08:47:20.371Z</time></trkpt><trkpt lat="43.4644833" lon="11.9648082"><ele>794.0</ele><time>2026-04-04T08:47:22.312Z</time></trkpt><trkpt lat="43.4645052" lon="11.9649211"><ele>796.0</ele><time>2026-04-04T08:47:24.312Z</time></trkpt><trkpt lat="43.4645818" lon="11.9650507"><ele>798.0</ele><time>2026-04-04T08:47:26.312Z</time></trkpt><trkpt lat="43.4646278" lon="11.965126"><ele>800.0</ele><time>2026-04-04T08:47:27.312Z</time></trkpt><trkpt lat="43.4646802" lon="11.9652572"><ele>802.0</ele><time>2026-04-04T08:47:29.311Z</time></trkpt><trkpt lat="43.4647085" lon="11.9653462"><ele>804.0</ele><time>2026-04-04T08:47:31.313Z</time></trkpt><trkpt lat="43.4647449" lon="11.9654701"><ele>805.8000000000001</ele><time>2026-04-04T08:47:33.312Z</time></trkpt><trkpt lat="43.4648272" lon="11.9655738"><ele>807.6</ele><time>2026-04-04T08:47:35.312Z</time></trkpt><trkpt lat="43.4648861" lon="11.9656656"><ele>809.4</ele><time>2026-04-04T08:47:37.312Z</time></trkpt><trkpt lat="43.4649352" lon="11.9657883"><ele>811.2</ele><time>2026-04-04T08:47:39.312Z</time></trkpt><trkpt lat="43.4649706" lon="11.9659333"><ele>813.0</ele><time>2026-04-04T08:47:41.312Z</time></trkpt><trkpt lat="43.4649932" lon="11.9660474"><ele>815.1666666666666</ele><time>2026-04-04T08:47:43.312Z</time></trkpt><trkpt lat="43.4650001" lon="11.9661584"><ele>817.3333333333333</ele><time>2026-04-04T08:47:46.312Z</time></trkpt><trkpt lat="43.4650188" lon="11.9663097"><ele>819.5</ele><time>2026-04-04T08:47:49.312Z</time></trkpt><trkpt lat="43.4649859" lon="11.9664259"><ele>821.6666666666666</ele><time>2026-04-04T08:47:51.373Z</time></trkpt><trkpt lat="43.4649448" lon="11.9665446"><ele>823.8333333333333</ele><time>2026-04-04T08:47:53.405Z</time></trkpt><trkpt lat="43.464922" lon="11.9666285"><ele>826.0</ele><time>2026-04-04T08:47:56.295Z</time></trkpt><trkpt lat="43.4649901" lon="11.9667254"><ele>827.5999999999999</ele><time>2026-04-04T08:47:59.379Z</time></trkpt><trkpt lat="43.4650677" lon="11.9667525"><ele>829.2</ele><time>2026-04-04T08:48:00.312Z</time></trkpt><trkpt lat="43.4651506" lon="11.9668233"><ele>830.8</ele><time>2026-04-04T08:48:02.312Z</time></trkpt><trkpt lat="43.4652426" lon="11.9668886"><ele>832.4000000000001</ele><time>2026-04-04T08:48:04.312Z</time></trkpt><trkpt lat="43.4653121" lon="11.9669671"><ele>834.0</ele><time>2026-04-04T08:48:06.335Z</time></trkpt><trkpt lat="43.4653703" lon="11.9670559"><ele>834.0</ele><time>2026-04-04T08:48:08.379Z</time></trkpt><trkpt lat="43.4654114" lon="11.9671485"><ele>834.0</ele><time>2026-04-04T08:48:10.311Z</time></trkpt><trkpt lat="43.4654592" lon="11.96725"><ele>834.0</ele><time>2026-04-04T08:48:12.312Z</time></trkpt><trkpt lat="43.4655422" lon="11.9673283"><ele>834.0</ele><time>2026-04-04T08:48:14.311Z</time></trkpt><trkpt lat="43.4656276" lon="11.9673996"><ele>834.0</ele><time>2026-04-04T08:48:16.312Z</time></trkpt><trkpt lat="43.465631" lon="11.9675104"><ele>834.0</ele><time>2026-04-04T08:48:18.312Z</time></trkpt><trkpt lat="43.465667" lon="11.967619"><ele>837.6</ele><time>2026-04-04T08:48:20.312Z</time></trkpt><trkpt lat="43.4657086" lon="11.967685"><ele>841.2</ele><time>2026-04-04T08:48:22.311Z</time></trkpt><trkpt lat="43.4657914" lon="11.9676182"><ele>844.8000000000001</ele><time>2026-04-04T08:48:24.388Z</time></trkpt><trkpt lat="43.4658764" lon="11.9676456"><ele>848.4000000000001</ele><time>2026-04-04T08:48:27.376Z</time></trkpt><trkpt lat="43.4659346" lon="11.9677035"><ele>852.0</ele><time>2026-04-04T08:48:29.313Z</time></trkpt><trkpt lat="43.4659486" lon="11.9679185"><ele>852.0</ele><time>2026-04-04T08:48:31.378Z</time></trkpt><trkpt lat="43.4659441" lon="11.9680382"><ele>852.0</ele><time>2026-04-04T08:48:32.391Z</time></trkpt><trkpt lat="43.4659231" lon="11.968181"><ele>852.0</ele><time>2026-04-04T08:48:33.312Z</time></trkpt><trkpt lat="43.4659265" lon="11.968279"><ele>852.0</ele><time>2026-04-04T08:48:35.389Z</time></trkpt><trkpt lat="43.465953" lon="11.9684747"><ele>852.0</ele><time>2026-04-04T08:48:36.311Z</time></trkpt><trkpt lat="43.4659705" lon="11.9685972"><ele>852.5</ele><time>2026-04-04T08:48:37.311Z</time></trkpt><trkpt lat="43.4659863" lon="11.9687179"><ele>853.0</ele><time>2026-04-04T08:48:38.312Z</time></trkpt><trkpt lat="43.4659998" lon="11.9688188"><ele>853.5</ele><time>2026-04-04T08:48:39.312Z</time></trkpt><trkpt lat="43.4660224" lon="11.968936"><ele>854.0</ele><time>2026-04-04T08:48:40.311Z</time></trkpt><trkpt lat="43.466091" lon="11.9689675"><ele>854.5</ele><time>2026-04-04T08:48:42.312Z</time></trkpt><trkpt lat="43.4661615" lon="11.9689555"><ele>855.0</ele><time>2026-04-04T08:48:43.312Z</time></trkpt><trkpt lat="43.4662307" lon="11.9689348"><ele>856.5</ele><time>2026-04-04T08:48:45.312Z</time></trkpt><trkpt lat="43.4663011" lon="11.9689059"><ele>858.0</ele><time>2026-04-04T08:48:47.312Z</time></trkpt><trkpt lat="43.4663836" lon="11.968915"><ele>859.5</ele><time>2026-04-04T08:48:48.312Z</time></trkpt><trkpt lat="43.4664666" lon="11.9689745"><ele>861.0</ele><time>2026-04-04T08:48:50.312Z</time></trkpt><trkpt lat="43.4664851" lon="11.9690598"><ele>862.5</ele><time>2026-04-04T08:48:52.313Z</time></trkpt><trkpt lat="43.4665299" lon="11.9691539"><ele>864.0</ele><time>2026-04-04T08:48:54.313Z</time></trkpt><trkpt lat="43.4665934" lon="11.9693135"><ele>866.0</ele><time>2026-04-04T08:48:56.312Z</time></trkpt><trkpt lat="43.4666081" lon="11.9694579"><ele>868.0000000000001</ele><time>2026-04-04T08:48:58.313Z</time></trkpt><trkpt lat="43.4665885" lon="11.9695419"><ele>870.0000000000001</ele><time>2026-04-04T08:48:59.312Z</time></trkpt><trkpt lat="43.4665523" lon="11.9697231"><ele>872.0</ele><time>2026-04-04T08:49:01.312Z</time></trkpt><trkpt lat="43.4666077" lon="11.9698266"><ele>874.0</ele><time>2026-04-04T08:49:08.312Z</time></trkpt><trkpt lat="43.4666572" lon="11.9699412"><ele>876.5</ele><time>2026-04-04T08:49:11.311Z</time></trkpt><trkpt lat="43.4667244" lon="11.9702105"><ele>879.0</ele><time>2026-04-04T08:49:13.312Z</time></trkpt><trkpt lat="43.4667703" lon="11.9703748"><ele>881.5</ele><time>2026-04-04T08:49:15.312Z</time></trkpt><trkpt lat="43.4668281" lon="11.9704116"><ele>884.0</ele><time>2026-04-04T08:49:17.312Z</time></trkpt><trkpt lat="43.466877" lon="11.9704908"><ele>884.0</ele><time>2026-04-04T08:49:18.312Z</time></trkpt><trkpt lat="43.4668562" lon="11.9706193"><ele>884.0000000000001</ele><time>2026-04-04T08:49:20.312Z</time></trkpt><trkpt lat="43.4668408" lon="11.9707519"><ele>884.0000000000001</ele><time>2026-04-04T08:49:22.313Z</time></trkpt><trkpt lat="43.4668498" lon="11.9708531"><ele>884.0</ele><time>2026-04-04T08:49:23.312Z</time></trkpt><trkpt lat="43.4668771" lon="11.9709482"><ele>884.0</ele><time>2026-04-04T08:49:25.313Z</time></trkpt><trkpt lat="43.4669317" lon="11.9710947"><ele>885.0000000000001</ele><time>2026-04-04T08:49:27.312Z</time></trkpt><trkpt lat="43.4669426" lon="11.9711806"><ele>886.0</ele><time>2026-04-04T08:49:28.311Z</time></trkpt><trkpt lat="43.46698" lon="11.9713097"><ele>887.0</ele><time>2026-04-04T08:49:30.312Z</time></trkpt><trkpt lat="43.4670403" lon="11.9714109"><ele>888.0</ele><time>2026-04-04T08:49:33.312Z</time></trkpt><trkpt lat="43.4670895" lon="11.9714838"><ele>889.0000000000001</ele><time>2026-04-04T08:49:35.312Z</time></trkpt><trkpt lat="43.4671339" lon="11.9715809"><ele>890.0</ele><time>2026-04-04T08:49:37.312Z</time></trkpt><trkpt lat="43.4671933" lon="11.9716753"><ele>892.8</ele><time>2026-04-04T08:49:39.311Z</time></trkpt><trkpt lat="43.4672217" lon="11.9717536"><ele>895.6</ele><time>2026-04-04T08:49:41.312Z</time></trkpt><trkpt lat="43.4672367" lon="11.9718593"><ele>898.4000000000001</ele><time>2026-04-04T08:52:16.313Z</time></trkpt><trkpt lat="43.4673034" lon="11.9719342"><ele>901.2</ele><time>2026-04-04T08:52:18.313Z</time></trkpt><trkpt lat="43.4673767" lon="11.9720515"><ele>904.0</ele><time>2026-04-04T08:52:20.313Z</time></trkpt><trkpt lat="43.4674384" lon="11.9722259"><ele>903.9999999999999</ele><time>2026-04-04T08:52:22.313Z</time></trkpt><trkpt lat="43.467454" lon="11.9723479"><ele>904.0</ele><time>2026-04-04T08:52:23.313Z</time></trkpt><trkpt lat="43.4674771" lon="11.9724382"><ele>904.0</ele><time>2026-04-04T08:52:24.313Z</time></trkpt><trkpt lat="43.4675584" lon="11.9725529"><ele>904.0</ele><time>2026-04-04T08:52:26.312Z</time></trkpt><trkpt lat="43.4676126" lon="11.9726119"><ele>903.9999999999999</ele><time>2026-04-04T08:52:27.313Z</time></trkpt><trkpt lat="43.467673" lon="11.9726704"><ele>904.0</ele><time>2026-04-04T08:52:28.314Z</time></trkpt><trkpt lat="43.4677775" lon="11.9727499"><ele>902.3333333333333</ele><time>2026-04-04T08:52:30.312Z</time></trkpt><trkpt lat="43.4678689" lon="11.9727757"><ele>900.6666666666666</ele><time>2026-04-04T08:52:32.313Z</time></trkpt><trkpt lat="43.467922" lon="11.9727257"><ele>899.0</ele><time>2026-04-04T08:52:33.313Z</time></trkpt><trkpt lat="43.4679899" lon="11.9726127"><ele>897.3333333333333</ele><time>2026-04-04T08:52:35.313Z</time></trkpt><trkpt lat="43.4680223" lon="11.9725181"><ele>895.6666666666666</ele><time>2026-04-04T08:52:36.313Z</time></trkpt><trkpt lat="43.4680524" lon="11.9724373"><ele>894.0</ele><time>2026-04-04T08:52:37.313Z</time></trkpt><trkpt lat="43.4680959" lon="11.9723613"><ele>898.8000000000001</ele><time>2026-04-04T08:52:38.313Z</time></trkpt><trkpt lat="43.4681972" lon="11.9723962"><ele>903.6000000000001</ele><time>2026-04-04T08:52:39.313Z</time></trkpt><trkpt lat="43.4682651" lon="11.9723872"><ele>908.4</ele><time>2026-04-04T08:52:40.313Z</time></trkpt><trkpt lat="43.4683364" lon="11.9723924"><ele>913.2</ele><time>2026-04-04T08:52:41.313Z</time></trkpt><trkpt lat="43.4684703" lon="11.9724102"><ele>918.0</ele><time>2026-04-04T08:52:42.312Z</time></trkpt><trkpt lat="43.4685426" lon="11.9724325"><ele>918.0</ele><time>2026-04-04T08:52:43.313Z</time></trkpt><trkpt lat="43.468572" lon="11.9725196"><ele>918.0</ele><time>2026-04-04T08:52:44.313Z</time></trkpt><trkpt lat="43.4686221" lon="11.9725777"><ele>918.0</ele><time>2026-04-04T08:52:45.313Z</time></trkpt><trkpt lat="43.468695" lon="11.9726313"><ele>918.0</ele><time>2026-04-04T08:52:47.313Z</time></trkpt><trkpt lat="43.4687108" lon="11.9725459"><ele>918.0</ele><time>2026-04-04T08:52:50.313Z</time></trkpt><trkpt lat="43.4687361" lon="11.9724587"><ele>918.0</ele><time>2026-04-04T08:53:05.313Z</time></trkpt><trkpt lat="43.4687755" lon="11.9723561"><ele>918.0</ele><time>2026-04-04T08:53:08.312Z</time></trkpt><trkpt lat="43.4688363" lon="11.9722624"><ele>920.0</ele><time>2026-04-04T08:53:11.313Z</time></trkpt><trkpt lat="43.468886" lon="11.9721878"><ele>922.0</ele><time>2026-04-04T08:53:14.313Z</time></trkpt><trkpt lat="43.4689399" lon="11.9721306"><ele>924.0</ele><time>2026-04-04T08:53:16.313Z</time></trkpt><trkpt lat="43.4689987" lon="11.9720466"><ele>926.0</ele><time>2026-04-04T08:53:18.312Z</time></trkpt><trkpt lat="43.4690519" lon="11.9719626"><ele>928.0</ele><time>2026-04-04T08:53:20.312Z</time></trkpt><trkpt lat="43.4691018" lon="11.9718672"><ele>930.0</ele><time>2026-04-04T08:53:22.313Z</time></trkpt><trkpt lat="43.4691759" lon="11.9717722"><ele>927.2</ele><time>2026-04-04T08:53:24.313Z</time></trkpt><trkpt lat="43.469263" lon="11.9716351"><ele>924.4</ele><time>2026-04-04T08:53:26.313Z</time></trkpt><trkpt lat="43.4693126" lon="11.971548"><ele>921.5999999999999</ele><time>2026-04-04T08:53:27.313Z</time></trkpt><trkpt lat="43.4693646" lon="11.9714517"><ele>918.8</ele><time>2026-04-04T08:53:28.313Z</time></trkpt><trkpt lat="43.469426" lon="11.9713638"><ele>916.0</ele><time>2026-04-04T08:53:29.313Z</time></trkpt><trkpt lat="43.4694818" lon="11.971277"><ele>915.9999999999999</ele><time>2026-04-04T08:53:30.313Z</time></trkpt><trkpt lat="43.4695331" lon="11.9711825"><ele>916.0</ele><time>2026-04-04T08:53:31.312Z</time></trkpt><trkpt lat="43.4695814" lon="11.9710952"><ele>916.0</ele><time>2026-04-04T08:53:32.313Z</time></trkpt><trkpt lat="43.469627" lon="11.9710096"><ele>916.0</ele><time>2026-04-04T08:53:33.313Z</time></trkpt><trkpt lat="43.4696736" lon="11.9709298"><ele>915.9999999999999</ele><time>2026-04-04T08:53:34.313Z</time></trkpt><trkpt lat="43.4697158" lon="11.9708466"><ele>916.0</ele><time>2026-04-04T08:53:35.312Z</time></trkpt><trkpt lat="43.4697588" lon="11.9707587"><ele>915.1666666666666</ele><time>2026-04-04T08:53:36.313Z</time></trkpt><trkpt lat="43.4697998" lon="11.9706682"><ele>914.3333333333333</ele><time>2026-04-04T08:53:37.312Z</time></trkpt><trkpt lat="43.4698479" lon="11.9705838"><ele>913.5</ele><time>2026-04-04T08:53:38.312Z</time></trkpt><trkpt lat="43.4698968" lon="11.9705014"><ele>912.6666666666667</ele><time>2026-04-04T08:53:39.312Z</time></trkpt><trkpt lat="43.4699538" lon="11.9704233"><ele>911.8333333333334</ele><time>2026-04-04T08:53:40.313Z</time></trkpt><trkpt lat="43.470016" lon="11.9703524"><ele>911.0</ele><time>2026-04-04T08:53:41.313Z</time></trkpt><trkpt lat="43.4700798" lon="11.9702863"><ele>911.0</ele><time>2026-04-04T08:53:42.313Z</time></trkpt><trkpt lat="43.4701402" lon="11.9702166"><ele>910.9999999999999</ele><time>2026-04-04T08:53:43.313Z</time></trkpt><trkpt lat="43.4702008" lon="11.9701498"><ele>910.9999999999999</ele><time>2026-04-04T08:53:44.313Z</time></trkpt><trkpt lat="43.4702604" lon="11.9700829"><ele>911.0</ele><time>2026-04-04T08:53:45.313Z</time></trkpt><trkpt lat="43.4703918" lon="11.969935"><ele>911.0</ele><time>2026-04-04T08:53:47.313Z</time></trkpt><trkpt lat="43.4704566" lon="11.969857"><ele>910.0000000000001</ele><time>2026-04-04T08:53:48.313Z</time></trkpt><trkpt lat="43.4705214" lon="11.9697798"><ele>909.0</ele><time>2026-04-04T08:53:49.312Z</time></trkpt><trkpt lat="43.4705875" lon="11.9697053"><ele>908.0</ele><time>2026-04-04T08:53:50.312Z</time></trkpt><trkpt lat="43.4706466" lon="11.9696252"><ele>907.0</ele><time>2026-04-04T08:53:51.313Z</time></trkpt><trkpt lat="43.4707042" lon="11.9695448"><ele>906.0000000000001</ele><time>2026-04-04T08:53:52.313Z</time></trkpt><trkpt lat="43.4707605" lon="11.9694597"><ele>905.0</ele><time>2026-04-04T08:53:53.313Z</time></trkpt><trkpt lat="43.4708132" lon="11.9693721"><ele>905.0000000000001</ele><time>2026-04-04T08:53:54.313Z</time></trkpt><trkpt lat="43.4708635" lon="11.9692845"><ele>905.0</ele><time>2026-04-04T08:53:55.312Z</time></trkpt><trkpt lat="43.4709156" lon="11.9692013"><ele>905.0</ele><time>2026-04-04T08:53:56.313Z</time></trkpt><trkpt lat="43.4709772" lon="11.9691298"><ele>905.0</ele><time>2026-04-04T08:53:57.312Z</time></trkpt><trkpt lat="43.4710451" lon="11.9690652"><ele>905.0000000000001</ele><time>2026-04-04T08:53:58.313Z</time></trkpt><trkpt lat="43.4711229" lon="11.9690105"><ele>905.0</ele><time>2026-04-04T08:53:59.313Z</time></trkpt><trkpt lat="43.4712031" lon="11.9689598"><ele>904.1666666666667</ele><time>2026-04-04T08:54:00.313Z</time></trkpt><trkpt lat="43.4712757" lon="11.9689013"><ele>903.3333333333334</ele><time>2026-04-04T08:54:01.313Z</time></trkpt><trkpt lat="43.4713347" lon="11.9688238"><ele>902.5</ele><time>2026-04-04T08:54:02.313Z</time></trkpt><trkpt lat="43.4713815" lon="11.9687273"><ele>901.6666666666667</ele><time>2026-04-04T08:54:03.313Z</time></trkpt><trkpt lat="43.471412" lon="11.9686208"><ele>900.8333333333334</ele><time>2026-04-04T08:54:04.313Z</time></trkpt><trkpt lat="43.4714343" lon="11.9685094"><ele>900.0</ele><time>2026-04-04T08:54:05.313Z</time></trkpt><trkpt lat="43.4714532" lon="11.9683967"><ele>898.6</ele><time>2026-04-04T08:54:06.313Z</time></trkpt><trkpt lat="43.471476" lon="11.9682815"><ele>897.2</ele><time>2026-04-04T08:54:07.313Z</time></trkpt><trkpt lat="43.4715034" lon="11.968163"><ele>895.8</ele><time>2026-04-04T08:54:08.313Z</time></trkpt><trkpt lat="43.4715243" lon="11.9680396"><ele>894.4</ele><time>2026-04-04T08:54:09.313Z</time></trkpt><trkpt lat="43.4715497" lon="11.9679076"><ele>893.0</ele><time>2026-04-04T08:54:10.312Z</time></trkpt><trkpt lat="43.4715707" lon="11.9677695"><ele>893.0</ele><time>2026-04-04T08:54:11.313Z</time></trkpt><trkpt lat="43.4715921" lon="11.9676247"><ele>893.0</ele><time>2026-04-04T08:54:12.313Z</time></trkpt><trkpt lat="43.4716126" lon="11.9674784"><ele>893.0</ele><time>2026-04-04T08:54:13.313Z</time></trkpt><trkpt lat="43.471634" lon="11.9673319"><ele>893.0</ele><time>2026-04-04T08:54:14.313Z</time></trkpt><trkpt lat="43.4716546" lon="11.9671931"><ele>893.0</ele><time>2026-04-04T08:54:15.313Z</time></trkpt><trkpt lat="43.4716745" lon="11.9670516"><ele>891.4</ele><time>2026-04-04T08:54:16.313Z</time></trkpt><trkpt lat="43.471704" lon="11.9669092"><ele>889.8</ele><time>2026-04-04T08:54:17.313Z</time></trkpt><trkpt lat="43.4717539" lon="11.9667861"><ele>888.2</ele><time>2026-04-04T08:54:18.313Z</time></trkpt><trkpt lat="43.4717945" lon="11.9666577"><ele>886.6</ele><time>2026-04-04T08:54:19.313Z</time></trkpt><trkpt lat="43.4718326" lon="11.9665306"><ele>885.0</ele><time>2026-04-04T08:54:20.312Z</time></trkpt><trkpt lat="43.4718765" lon="11.9664092"><ele>883.8333333333334</ele><time>2026-04-04T08:54:21.313Z</time></trkpt><trkpt lat="43.4719267" lon="11.9663006"><ele>882.6666666666667</ele><time>2026-04-04T08:54:22.313Z</time></trkpt><trkpt lat="43.4719796" lon="11.9662018"><ele>881.5</ele><time>2026-04-04T08:54:23.313Z</time></trkpt><trkpt lat="43.4720382" lon="11.9661097"><ele>880.3333333333334</ele><time>2026-04-04T08:54:24.314Z</time></trkpt><trkpt lat="43.4721075" lon="11.9660452"><ele>879.1666666666667</ele><time>2026-04-04T08:54:25.312Z</time></trkpt><trkpt lat="43.47218" lon="11.9659668"><ele>878.0</ele><time>2026-04-04T08:54:26.312Z</time></trkpt><trkpt lat="43.472248" lon="11.965923"><ele>878.0</ele><time>2026-04-04T08:54:27.313Z</time></trkpt><trkpt lat="43.4723139" lon="11.9660041"><ele>878.0</ele><time>2026-04-04T08:54:28.313Z</time></trkpt><trkpt lat="43.4724361" lon="11.9660645"><ele>878.0</ele><time>2026-04-04T08:54:30.313Z</time></trkpt><trkpt lat="43.4725099" lon="11.9661231"><ele>878.0</ele><time>2026-04-04T08:54:31.313Z</time></trkpt><trkpt lat="43.472588" lon="11.9661909"><ele>878.0</ele><time>2026-04-04T08:54:32.313Z</time></trkpt><trkpt lat="43.4726672" lon="11.9662798"><ele>878.0</ele><time>2026-04-04T08:54:33.313Z</time></trkpt><trkpt lat="43.4727252" lon="11.9663757"><ele>878.0</ele><time>2026-04-04T08:54:34.313Z</time></trkpt><trkpt lat="43.4727745" lon="11.9664757"><ele>878.0</ele><time>2026-04-04T08:54:35.314Z</time></trkpt><trkpt lat="43.4728336" lon="11.9665824"><ele>878.0</ele><time>2026-04-04T08:54:36.312Z</time></trkpt><trkpt lat="43.4728967" lon="11.9666875"><ele>878.0</ele><time>2026-04-04T08:54:37.313Z</time></trkpt><trkpt lat="43.4729406" lon="11.9667897"><ele>877.0</ele><time>2026-04-04T08:54:38.313Z</time></trkpt><trkpt lat="43.473" lon="11.9668859"><ele>876.0</ele><time>2026-04-04T08:54:39.313Z</time></trkpt><trkpt lat="43.4730562" lon="11.9669843"><ele>875.0</ele><time>2026-04-04T08:54:40.313Z</time></trkpt><trkpt lat="43.4731341" lon="11.9669716"><ele>874.0</ele><time>2026-04-04T08:54:41.313Z</time></trkpt><trkpt lat="43.4732471" lon="11.9670035"><ele>873.0</ele><time>2026-04-04T08:54:42.313Z</time></trkpt><trkpt lat="43.4733358" lon="11.9670482"><ele>873.0</ele><time>2026-04-04T08:54:43.313Z</time></trkpt><trkpt lat="43.4734366" lon="11.9670622"><ele>873.0</ele><time>2026-04-04T08:54:44.312Z</time></trkpt><trkpt lat="43.4735278" lon="11.9670709"><ele>873.0</ele><time>2026-04-04T08:54:45.313Z</time></trkpt><trkpt lat="43.4736262" lon="11.9670765"><ele>873.0</ele><time>2026-04-04T08:54:46.313Z</time></trkpt><trkpt lat="43.4737332" lon="11.9670836"><ele>873.0</ele><time>2026-04-04T08:54:47.313Z</time></trkpt><trkpt lat="43.4738418" lon="11.9670929"><ele>871.0</ele><time>2026-04-04T08:54:48.313Z</time></trkpt><trkpt lat="43.4739539" lon="11.9670937"><ele>869.0</ele><time>2026-04-04T08:54:49.312Z</time></trkpt><trkpt lat="43.4740277" lon="11.9670898"><ele>867.0</ele><time>2026-04-04T08:54:50.313Z</time></trkpt><trkpt lat="43.4741614" lon="11.96707"><ele>865.0</ele><time>2026-04-04T08:54:52.313Z</time></trkpt><trkpt lat="43.4742207" lon="11.967037"><ele>863.0</ele><time>2026-04-04T08:54:53.313Z</time></trkpt><trkpt lat="43.4742991" lon="11.9670578"><ele>863.0000000000001</ele><time>2026-04-04T08:54:55.313Z</time></trkpt><trkpt lat="43.4743507" lon="11.9671526"><ele>863.0</ele><time>2026-04-04T08:54:57.313Z</time></trkpt><trkpt lat="43.474383" lon="11.9672461"><ele>863.0</ele><time>2026-04-04T08:54:59.313Z</time></trkpt><trkpt lat="43.4743907" lon="11.9673448"><ele>863.0</ele><time>2026-04-04T08:55:01.313Z</time></trkpt><trkpt lat="43.4743957" lon="11.9674572"><ele>863.0000000000001</ele><time>2026-04-04T08:55:03.312Z</time></trkpt><trkpt lat="43.4743902" lon="11.9675466"><ele>863.0</ele><time>2026-04-04T08:55:04.312Z</time></trkpt><trkpt lat="43.4743868" lon="11.967646"><ele>864.0</ele><time>2026-04-04T08:55:05.313Z</time></trkpt><trkpt lat="43.4744143" lon="11.9677974"><ele>865.0</ele><time>2026-04-04T08:55:07.313Z</time></trkpt><trkpt lat="43.4744732" lon="11.9679257"><ele>866.0</ele><time>2026-04-04T08:55:09.313Z</time></trkpt><trkpt lat="43.4745385" lon="11.9680456"><ele>867.0</ele><time>2026-04-04T08:55:11.313Z</time></trkpt><trkpt lat="43.4746025" lon="11.9681821"><ele>865.75</ele><time>2026-04-04T08:55:13.313Z</time></trkpt><trkpt lat="43.47468" lon="11.9683103"><ele>864.5</ele><time>2026-04-04T08:55:15.313Z</time></trkpt><trkpt lat="43.4747388" lon="11.9684402"><ele>863.25</ele><time>2026-04-04T08:55:17.312Z</time></trkpt><trkpt lat="43.474751" lon="11.9685868"><ele>862.0</ele><time>2026-04-04T08:55:19.313Z</time></trkpt><trkpt lat="43.4746915" lon="11.968718"><ele>862.8</ele><time>2026-04-04T08:55:21.313Z</time></trkpt><trkpt lat="43.4745855" lon="11.968763"><ele>863.6</ele><time>2026-04-04T08:55:23.313Z</time></trkpt><trkpt lat="43.4744787" lon="11.9687184"><ele>864.3999999999999</ele><time>2026-04-04T08:55:25.313Z</time></trkpt><trkpt lat="43.4743702" lon="11.9686793"><ele>865.1999999999999</ele><time>2026-04-04T08:55:27.313Z</time></trkpt><trkpt lat="43.4742662" lon="11.9687256"><ele>866.0</ele><time>2026-04-04T08:55:29.313Z</time></trkpt><trkpt lat="43.474208" lon="11.9687823"><ele>866.0</ele><time>2026-04-04T08:55:30.312Z</time></trkpt><trkpt lat="43.4741215" lon="11.9689351"><ele>865.9999999999999</ele><time>2026-04-04T08:55:32.313Z</time></trkpt><trkpt lat="43.4740824" lon="11.9690849"><ele>865.9999999999999</ele><time>2026-04-04T08:55:33.313Z</time></trkpt><trkpt lat="43.4740902" lon="11.9692024"><ele>866.0</ele><time>2026-04-04T08:55:34.313Z</time></trkpt><trkpt lat="43.4740911" lon="11.9693271"><ele>866.0</ele><time>2026-04-04T08:55:35.313Z</time></trkpt><trkpt lat="43.4740524" lon="11.9694728"><ele>865.8</ele><time>2026-04-04T08:55:37.313Z</time></trkpt><trkpt lat="43.4740418" lon="11.9696323"><ele>865.5999999999999</ele><time>2026-04-04T08:55:39.313Z</time></trkpt><trkpt lat="43.474055" lon="11.9697504"><ele>865.4</ele><time>2026-04-04T08:55:40.313Z</time></trkpt><trkpt lat="43.4741103" lon="11.9699003"><ele>865.2</ele><time>2026-04-04T08:55:42.314Z</time></trkpt><trkpt lat="43.4741918" lon="11.9699774"><ele>865.0</ele><time>2026-04-04T08:55:44.312Z</time></trkpt><trkpt lat="43.4742608" lon="11.9699863"><ele>864.9999999999999</ele><time>2026-04-04T08:55:46.313Z</time></trkpt><trkpt lat="43.4743364" lon="11.9699775"><ele>865.0</ele><time>2026-04-04T08:55:48.313Z</time></trkpt><trkpt lat="43.4744194" lon="11.9699808"><ele>865.0</ele><time>2026-04-04T08:55:50.312Z</time></trkpt><trkpt lat="43.4745343" lon="11.9699847"><ele>865.0</ele><time>2026-04-04T08:55:52.313Z</time></trkpt><trkpt lat="43.4746067" lon="11.9700093"><ele>864.9999999999999</ele><time>2026-04-04T08:55:53.313Z</time></trkpt><trkpt lat="43.4746726" lon="11.9700886"><ele>865.0</ele><time>2026-04-04T08:55:56.313Z</time></trkpt><trkpt lat="43.4747276" lon="11.9701513"><ele>860.4999999999999</ele><time>2026-04-04T08:55:58.313Z</time></trkpt><trkpt lat="43.4747848" lon="11.9702217"><ele>856.0</ele><time>2026-04-04T08:55:59.313Z</time></trkpt><trkpt lat="43.4748323" lon="11.9703048"><ele>851.5</ele><time>2026-04-04T08:56:01.313Z</time></trkpt><trkpt lat="43.4748624" lon="11.9704277"><ele>847.0</ele><time>2026-04-04T08:56:04.313Z</time></trkpt><trkpt lat="43.4749052" lon="11.9705017"><ele>842.4999999999999</ele><time>2026-04-04T08:56:07.313Z</time></trkpt><trkpt lat="43.474917" lon="11.970614"><ele>838.0</ele><time>2026-04-04T08:56:11.313Z</time></trkpt><trkpt lat="43.474911" lon="11.9707126"><ele>837.9999999999999</ele><time>2026-04-04T08:56:13.313Z</time></trkpt><trkpt lat="43.4749289" lon="11.9708092"><ele>838.0</ele><time>2026-04-04T08:56:15.313Z</time></trkpt><trkpt lat="43.4749358" lon="11.9709251"><ele>838.0</ele><time>2026-04-04T08:56:18.313Z</time></trkpt><trkpt lat="43.4749776" lon="11.9710376"><ele>838.0</ele><time>2026-04-04T08:56:20.313Z</time></trkpt><trkpt lat="43.4750459" lon="11.9711187"><ele>837.9999999999999</ele><time>2026-04-04T08:56:22.313Z</time></trkpt><trkpt lat="43.4751057" lon="11.9712414"><ele>838.0</ele><time>2026-04-04T08:56:24.312Z</time></trkpt><trkpt lat="43.4751624" lon="11.97136"><ele>836.9999999999999</ele><time>2026-04-04T08:56:26.313Z</time></trkpt><trkpt lat="43.4752321" lon="11.9714288"><ele>836.0</ele><time>2026-04-04T08:56:28.312Z</time></trkpt><trkpt lat="43.4752751" lon="11.9713255"><ele>835.0</ele><time>2026-04-04T08:56:31.313Z</time></trkpt><trkpt lat="43.4753491" lon="11.971282"><ele>834.0</ele><time>2026-04-04T08:56:34.313Z</time></trkpt><trkpt lat="43.4754227" lon="11.9712605"><ele>832.9999999999999</ele><time>2026-04-04T08:56:36.313Z</time></trkpt><trkpt lat="43.4755085" lon="11.9712242"><ele>832.0</ele><time>2026-04-04T08:56:39.312Z</time></trkpt><trkpt lat="43.4755717" lon="11.9712171"><ele>832.0</ele><time>2026-04-04T08:56:43.312Z</time></trkpt><trkpt lat="43.4756599" lon="11.9712103"><ele>832.0</ele><time>2026-04-04T08:56:47.313Z</time></trkpt><trkpt lat="43.4757243" lon="11.9712548"><ele>832.0</ele><time>2026-04-04T08:56:49.313Z</time></trkpt><trkpt lat="43.4758582" lon="11.9712576"><ele>832.0</ele><time>2026-04-04T08:56:51.313Z</time></trkpt><trkpt lat="43.475951" lon="11.9712705"><ele>832.0</ele><time>2026-04-04T08:56:54.313Z</time></trkpt><trkpt lat="43.4760129" lon="11.9712532"><ele>831.9999999999999</ele><time>2026-04-04T08:56:56.313Z</time></trkpt><trkpt lat="43.4760866" lon="11.9712493"><ele>832.0</ele><time>2026-04-04T08:56:58.312Z</time></trkpt><trkpt lat="43.4761683" lon="11.9712623"><ele>832.0</ele><time>2026-04-04T08:57:00.312Z</time></trkpt><trkpt lat="43.4762513" lon="11.9712902"><ele>832.0</ele><time>2026-04-04T08:57:02.313Z</time></trkpt><trkpt lat="43.4763082" lon="11.9713753"><ele>831.9999999999999</ele><time>2026-04-04T08:57:04.313Z</time></trkpt><trkpt lat="43.4763513" lon="11.9714583"><ele>832.0</ele><time>2026-04-04T08:57:06.313Z</time></trkpt><trkpt lat="43.4763991" lon="11.9715442"><ele>830.2</ele><time>2026-04-04T08:57:08.313Z</time></trkpt><trkpt lat="43.4764651" lon="11.9716155"><ele>828.4000000000001</ele><time>2026-04-04T08:57:20.313Z</time></trkpt><trkpt lat="43.4765449" lon="11.971638"><ele>826.5999999999999</ele><time>2026-04-04T08:57:25.312Z</time></trkpt><trkpt lat="43.4766334" lon="11.9716705"><ele>824.8</ele><time>2026-04-04T08:57:28.313Z</time></trkpt><trkpt lat="43.476702" lon="11.9716903"><ele>823.0</ele><time>2026-04-04T08:57:30.313Z</time></trkpt><trkpt lat="43.4768042" lon="11.9717837"><ele>823.0</ele><time>2026-04-04T08:57:32.313Z</time></trkpt><trkpt lat="43.4769019" lon="11.9718777"><ele>823.0</ele><time>2026-04-04T08:57:34.313Z</time></trkpt><trkpt lat="43.4769391" lon="11.971989"><ele>823.0</ele><time>2026-04-04T08:57:36.313Z</time></trkpt><trkpt lat="43.4770352" lon="11.9721596"><ele>823.0</ele><time>2026-04-04T08:57:37.313Z</time></trkpt><trkpt lat="43.4771093" lon="11.9722565"><ele>819.1666666666666</ele><time>2026-04-04T08:57:39.313Z</time></trkpt><trkpt lat="43.4771728" lon="11.9723112"><ele>815.3333333333333</ele><time>2026-04-04T08:57:41.313Z</time></trkpt><trkpt lat="43.4772448" lon="11.9723288"><ele>811.5</ele><time>2026-04-04T08:58:22.314Z</time></trkpt><trkpt lat="43.4773151" lon="11.9723476"><ele>807.6666666666667</ele><time>2026-04-04T08:58:32.313Z</time></trkpt><trkpt lat="43.4773743" lon="11.9724213"><ele>803.8333333333334</ele><time>2026-04-04T08:58:34.313Z</time></trkpt><trkpt lat="43.4774219" lon="11.9725264"><ele>800.0</ele><time>2026-04-04T08:58:36.313Z</time></trkpt><trkpt lat="43.4774546" lon="11.9726325"><ele>798.0000000000001</ele><time>2026-04-04T08:58:38.313Z</time></trkpt><trkpt lat="43.4774487" lon="11.9727205"><ele>796.0</ele><time>2026-04-04T08:58:40.313Z</time></trkpt><trkpt lat="43.4774073" lon="11.9727894"><ele>794.0</ele><time>2026-04-04T08:58:42.312Z</time></trkpt><trkpt lat="43.4773614" lon="11.9728719"><ele>792.0</ele><time>2026-04-04T08:58:44.313Z</time></trkpt><trkpt lat="43.477309" lon="11.9730113"><ele>790.0000000000001</ele><time>2026-04-04T08:58:46.313Z</time></trkpt><trkpt lat="43.4772245" lon="11.9731402"><ele>788.0</ele><time>2026-04-04T08:58:48.313Z</time></trkpt><trkpt lat="43.4771658" lon="11.973196"><ele>788.0000000000001</ele><time>2026-04-04T08:58:49.313Z</time></trkpt><trkpt lat="43.4771177" lon="11.9732592"><ele>788.0</ele><time>2026-04-04T08:58:50.313Z</time></trkpt><trkpt lat="43.4770505" lon="11.9733042"><ele>788.0</ele><time>2026-04-04T08:58:51.313Z</time></trkpt><trkpt lat="43.4770253" lon="11.9734309"><ele>788.0</ele><time>2026-04-04T08:58:53.313Z</time></trkpt><trkpt lat="43.4770593" lon="11.9735488"><ele>788.0000000000001</ele><time>2026-04-04T08:58:55.313Z</time></trkpt><trkpt lat="43.4771281" lon="11.9736746"><ele>788.0</ele><time>2026-04-04T08:58:57.313Z</time></trkpt><trkpt lat="43.4771477" lon="11.973768"><ele>787.8</ele><time>2026-04-04T08:58:58.313Z</time></trkpt><trkpt lat="43.4771596" lon="11.9738706"><ele>787.5999999999999</ele><time>2026-04-04T08:58:59.313Z</time></trkpt><trkpt lat="43.4771565" lon="11.9739806"><ele>787.4000000000001</ele><time>2026-04-04T08:59:00.313Z</time></trkpt><trkpt lat="43.4771456" lon="11.9741573"><ele>787.2</ele><time>2026-04-04T08:59:02.313Z</time></trkpt><trkpt lat="43.4771285" lon="11.9743153"><ele>787.0</ele><time>2026-04-04T08:59:04.313Z</time></trkpt><trkpt lat="43.4770787" lon="11.97449"><ele>791.2</ele><time>2026-04-04T08:59:06.313Z</time></trkpt><trkpt lat="43.4770345" lon="11.9745989"><ele>795.4000000000001</ele><time>2026-04-04T08:59:07.313Z</time></trkpt><trkpt lat="43.4769178" lon="11.9747596"><ele>799.5999999999999</ele><time>2026-04-04T08:59:09.312Z</time></trkpt><trkpt lat="43.4769171" lon="11.9748477"><ele>803.8</ele><time>2026-04-04T08:59:12.313Z</time></trkpt><trkpt lat="43.4769408" lon="11.9749779"><ele>808.0</ele><time>2026-04-04T08:59:16.313Z</time></trkpt><trkpt lat="43.4769758" lon="11.9750794"><ele>807.9999999999999</ele><time>2026-04-04T08:59:18.313Z</time></trkpt><trkpt lat="43.4770433" lon="11.975183"><ele>808.0</ele><time>2026-04-04T08:59:19.313Z</time></trkpt><trkpt lat="43.4770862" lon="11.9752491"><ele>808.0</ele><time>2026-04-04T08:59:20.313Z</time></trkpt><trkpt lat="43.4771187" lon="11.9753427"><ele>808.0</ele><time>2026-04-04T08:59:22.313Z</time></trkpt><trkpt lat="43.4771512" lon="11.9754675"><ele>807.9999999999999</ele><time>2026-04-04T08:59:24.313Z</time></trkpt><trkpt lat="43.4772251" lon="11.9754521"><ele>808.0</ele><time>2026-04-04T08:59:31.313Z</time></trkpt><trkpt lat="43.477309" lon="11.9754216"><ele>805.6666666666666</ele><time>2026-04-04T08:59:34.313Z</time></trkpt><trkpt lat="43.4773999" lon="11.9753614"><ele>803.3333333333333</ele><time>2026-04-04T08:59:36.312Z</time></trkpt><trkpt lat="43.4774472" lon="11.9752585"><ele>801.0</ele><time>2026-04-04T08:59:39.313Z</time></trkpt><trkpt lat="43.4774985" lon="11.9751688"><ele>798.6666666666667</ele><time>2026-04-04T08:59:42.313Z</time></trkpt><trkpt lat="43.4775635" lon="11.9751247"><ele>796.3333333333334</ele><time>2026-04-04T08:59:45.313Z</time></trkpt><trkpt lat="43.4776238" lon="11.975083"><ele>794.0</ele><time>2026-04-04T08:59:55.314Z</time></trkpt><trkpt lat="43.4776735" lon="11.9750292"><ele>794.0</ele><time>2026-04-04T09:00:13.313Z</time></trkpt><trkpt lat="43.4777615" lon="11.9750218"><ele>794.0</ele><time>2026-04-04T09:00:30.313Z</time></trkpt><trkpt lat="43.4778282" lon="11.9750344"><ele>794.0</ele><time>2026-04-04T09:00:58.313Z</time></trkpt><trkpt lat="43.4778582" lon="11.9749435"><ele>794.0</ele><time>2026-04-04T09:01:03.313Z</time></trkpt><trkpt lat="43.4779084" lon="11.9748772"><ele>794.0</ele><time>2026-04-04T09:01:10.313Z</time></trkpt><trkpt lat="43.4779181" lon="11.9747901"><ele>794.0</ele><time>2026-04-04T09:01:12.313Z</time></trkpt><trkpt lat="43.4779282" lon="11.9746727"><ele>794.0</ele><time>2026-04-04T09:01:18.313Z</time></trkpt><trkpt lat="43.4779571" lon="11.9745534"><ele>790.8333333333334</ele><time>2026-04-04T09:01:21.313Z</time></trkpt><trkpt lat="43.477984" lon="11.9744468"><ele>787.6666666666667</ele><time>2026-04-04T09:01:24.313Z</time></trkpt><trkpt lat="43.4780009" lon="11.974324"><ele>784.5</ele><time>2026-04-04T09:01:27.312Z</time></trkpt><trkpt lat="43.4780015" lon="11.9742213"><ele>781.3333333333333</ele><time>2026-04-04T09:01:29.314Z</time></trkpt><trkpt lat="43.4779759" lon="11.9741222"><ele>778.1666666666666</ele><time>2026-04-04T09:01:31.313Z</time></trkpt><trkpt lat="43.4779866" lon="11.974012"><ele>775.0</ele><time>2026-04-04T09:01:34.313Z</time></trkpt><trkpt lat="43.4780004" lon="11.9739185"><ele>772.8333333333333</ele><time>2026-04-04T09:01:36.313Z</time></trkpt><trkpt lat="43.4780275" lon="11.973821"><ele>770.6666666666666</ele><time>2026-04-04T09:01:45.312Z</time></trkpt><trkpt lat="43.4780902" lon="11.9738352"><ele>768.5</ele><time>2026-04-04T09:01:51.313Z</time></trkpt><trkpt lat="43.4781457" lon="11.9737893"><ele>766.3333333333333</ele><time>2026-04-04T09:01:59.313Z</time></trkpt><trkpt lat="43.4781938" lon="11.9737314"><ele>764.1666666666666</ele><time>2026-04-04T09:02:04.314Z</time></trkpt><trkpt lat="43.4783279" lon="11.9736682"><ele>762.0</ele><time>2026-04-04T09:02:20.313Z</time></trkpt><trkpt lat="43.4783842" lon="11.9735987"><ele>762.0</ele><time>2026-04-04T09:02:25.314Z</time></trkpt><trkpt lat="43.4784508" lon="11.9735199"><ele>762.0</ele><time>2026-04-04T09:02:30.313Z</time></trkpt><trkpt lat="43.4785246" lon="11.9734854"><ele>762.0</ele><time>2026-04-04T09:02:33.313Z</time></trkpt><trkpt lat="43.4786019" lon="11.9734845"><ele>762.0</ele><time>2026-04-04T09:02:37.313Z</time></trkpt><trkpt lat="43.4786735" lon="11.9735047"><ele>762.0</ele><time>2026-04-04T09:03:23.313Z</time></trkpt><trkpt lat="43.4787758" lon="11.9734955"><ele>762.0</ele><time>2026-04-04T09:03:26.313Z</time></trkpt><trkpt lat="43.4788484" lon="11.9734647"><ele>764.8</ele><time>2026-04-04T09:03:28.314Z</time></trkpt><trkpt lat="43.4789199" lon="11.9734049"><ele>767.6</ele><time>2026-04-04T09:03:30.313Z</time></trkpt><trkpt lat="43.4789907" lon="11.9733473"><ele>770.4</ele><time>2026-04-04T09:03:32.313Z</time></trkpt><trkpt lat="43.4790962" lon="11.9733097"><ele>773.1999999999999</ele><time>2026-04-04T09:03:34.313Z</time></trkpt><trkpt lat="43.4791756" lon="11.9732487"><ele>776.0</ele><time>2026-04-04T09:03:36.313Z</time></trkpt><trkpt lat="43.47925" lon="11.9731939"><ele>771.3333333333334</ele><time>2026-04-04T09:03:38.313Z</time></trkpt><trkpt lat="43.4793083" lon="11.9731021"><ele>766.6666666666667</ele><time>2026-04-04T09:03:40.313Z</time></trkpt><trkpt lat="43.4793556" lon="11.9730139"><ele>762.0</ele><time>2026-04-04T09:03:42.313Z</time></trkpt><trkpt lat="43.4794087" lon="11.9729451"><ele>757.3333333333334</ele><time>2026-04-04T09:03:44.312Z</time></trkpt><trkpt lat="43.4794835" lon="11.9729277"><ele>752.6666666666667</ele><time>2026-04-04T09:03:46.313Z</time></trkpt><trkpt lat="43.4795633" lon="11.9728913"><ele>748.0</ele><time>2026-04-04T09:03:48.313Z</time></trkpt><trkpt lat="43.4796708" lon="11.9728243"><ele>747.7142857142857</ele><time>2026-04-04T09:03:50.313Z</time></trkpt><trkpt lat="43.4797244" lon="11.9727494"><ele>747.4285714285714</ele><time>2026-04-04T09:03:52.313Z</time></trkpt><trkpt lat="43.4797423" lon="11.9726294"><ele>747.1428571428571</ele><time>2026-04-04T09:03:54.314Z</time></trkpt><trkpt lat="43.4797981" lon="11.9725858"><ele>746.8571428571429</ele><time>2026-04-04T09:03:58.313Z</time></trkpt><trkpt lat="43.4798168" lon="11.9724854"><ele>746.5714285714287</ele><time>2026-04-04T09:04:03.313Z</time></trkpt><trkpt lat="43.4798293" lon="11.972391"><ele>746.2857142857143</ele><time>2026-04-04T09:04:10.313Z</time></trkpt><trkpt lat="43.4798794" lon="11.9723195"><ele>746.0</ele><time>2026-04-04T09:04:13.313Z</time></trkpt><trkpt lat="43.4799417" lon="11.9722712"><ele>743.0</ele><time>2026-04-04T09:04:15.313Z</time></trkpt><trkpt lat="43.4800061" lon="11.9722012"><ele>740.0</ele><time>2026-04-04T09:04:17.313Z</time></trkpt><trkpt lat="43.4800762" lon="11.9721404"><ele>737.0</ele><time>2026-04-04T09:04:20.313Z</time></trkpt><trkpt lat="43.480135" lon="11.9721082"><ele>734.0</ele><time>2026-04-04T09:04:22.313Z</time></trkpt><trkpt lat="43.480197" lon="11.9720624"><ele>731.0</ele><time>2026-04-04T09:04:24.314Z</time></trkpt><trkpt lat="43.4802702" lon="11.9719983"><ele>728.0</ele><time>2026-04-04T09:04:27.314Z</time></trkpt><trkpt lat="43.480352" lon="11.971936"><ele>728.0</ele><time>2026-04-04T09:04:29.313Z</time></trkpt><trkpt lat="43.4804163" lon="11.9718903"><ele>728.0</ele><time>2026-04-04T09:04:31.314Z</time></trkpt><trkpt lat="43.4804858" lon="11.9718414"><ele>728.0</ele><time>2026-04-04T09:04:33.314Z</time></trkpt><trkpt lat="43.4805524" lon="11.9718213"><ele>728.0</ele><time>2026-04-04T09:04:35.314Z</time></trkpt><trkpt lat="43.4806285" lon="11.9718371"><ele>728.0</ele><time>2026-04-04T09:04:37.314Z</time></trkpt><trkpt lat="43.4807034" lon="11.9718645"><ele>728.0</ele><time>2026-04-04T09:04:39.314Z</time></trkpt><trkpt lat="43.480781" lon="11.9719006"><ele>726.1666666666666</ele><time>2026-04-04T09:04:41.314Z</time></trkpt><trkpt lat="43.4808495" lon="11.971946"><ele>724.3333333333333</ele><time>2026-04-04T09:04:43.315Z</time></trkpt><trkpt lat="43.4809246" lon="11.9719998"><ele>722.5</ele><time>2026-04-04T09:04:45.313Z</time></trkpt><trkpt lat="43.481014" lon="11.9720364"><ele>720.6666666666666</ele><time>2026-04-04T09:04:47.314Z</time></trkpt><trkpt lat="43.4810911" lon="11.9720672"><ele>718.8333333333334</ele><time>2026-04-04T09:04:49.314Z</time></trkpt><trkpt lat="43.4811781" lon="11.9720934"><ele>717.0</ele><time>2026-04-04T09:04:51.315Z</time></trkpt><trkpt lat="43.4812591" lon="11.9721576"><ele>715.0</ele><time>2026-04-04T09:04:53.314Z</time></trkpt><trkpt lat="43.4813176" lon="11.9722232"><ele>713.0</ele><time>2026-04-04T09:04:54.314Z</time></trkpt><trkpt lat="43.4813993" lon="11.9722866"><ele>711.0</ele><time>2026-04-04T09:04:56.314Z</time></trkpt><trkpt lat="43.4815051" lon="11.9722674"><ele>709.0</ele><time>2026-04-04T09:04:57.314Z</time></trkpt><trkpt lat="43.4815925" lon="11.9722975"><ele>707.0</ele><time>2026-04-04T09:04:58.315Z</time></trkpt><trkpt lat="43.4817039" lon="11.9723351"><ele>707.0</ele><time>2026-04-04T09:05:00.314Z</time></trkpt><trkpt lat="43.4817769" lon="11.9723779"><ele>707.0</ele><time>2026-04-04T09:05:02.314Z</time></trkpt><trkpt lat="43.4818939" lon="11.9723977"><ele>707.0</ele><time>2026-04-04T09:05:04.314Z</time></trkpt><trkpt lat="43.4819732" lon="11.9724893"><ele>707.0</ele><time>2026-04-04T09:05:07.314Z</time></trkpt><trkpt lat="43.4820577" lon="11.9725739"><ele>707.0</ele><time>2026-04-04T09:05:09.314Z</time></trkpt><trkpt lat="43.482156" lon="11.9726098"><ele>705.8</ele><time>2026-04-04T09:05:11.314Z</time></trkpt><trkpt lat="43.4822564" lon="11.9725921"><ele>704.6</ele><time>2026-04-04T09:05:13.314Z</time></trkpt><trkpt lat="43.4823614" lon="11.9726545"><ele>703.4</ele><time>2026-04-04T09:05:15.315Z</time></trkpt><trkpt lat="43.4824315" lon="11.9727466"><ele>702.1999999999999</ele><time>2026-04-04T09:05:17.314Z</time></trkpt><trkpt lat="43.4825261" lon="11.9728203"><ele>701.0</ele><time>2026-04-04T09:05:19.314Z</time></trkpt><trkpt lat="43.4826091" lon="11.9728741"><ele>701.0</ele><time>2026-04-04T09:05:21.313Z</time></trkpt><trkpt lat="43.4826835" lon="11.9729319"><ele>701.0</ele><time>2026-04-04T09:05:23.314Z</time></trkpt><trkpt lat="43.4827399" lon="11.9730119"><ele>701.0</ele><time>2026-04-04T09:05:25.313Z</time></trkpt><trkpt lat="43.4827857" lon="11.9730952"><ele>701.0</ele><time>2026-04-04T09:05:27.314Z</time></trkpt><trkpt lat="43.4828585" lon="11.9731686"><ele>701.0</ele><time>2026-04-04T09:05:29.314Z</time></trkpt><trkpt lat="43.4829428" lon="11.9732394"><ele>701.0</ele><time>2026-04-04T09:05:31.314Z</time></trkpt><trkpt lat="43.4829825" lon="11.9733203"><ele>699.5999999999999</ele><time>2026-04-04T09:05:32.314Z</time></trkpt><trkpt lat="43.4830505" lon="11.9734378"><ele>698.2</ele><time>2026-04-04T09:05:34.314Z</time></trkpt><trkpt lat="43.4831464" lon="11.9735287"><ele>696.8</ele><time>2026-04-04T09:05:36.314Z</time></trkpt><trkpt lat="43.4831735" lon="11.9736533"><ele>695.4000000000001</ele><time>2026-04-04T09:05:38.314Z</time></trkpt><trkpt lat="43.4832041" lon="11.9737314"><ele>694.0</ele><time>2026-04-04T09:05:39.314Z</time></trkpt><trkpt lat="43.4832486" lon="11.9738075"><ele>694.0</ele><time>2026-04-04T09:05:40.314Z</time></trkpt><trkpt lat="43.4833063" lon="11.9739184"><ele>694.0</ele><time>2026-04-04T09:05:43.314Z</time></trkpt><trkpt lat="43.4833714" lon="11.9740103"><ele>694.0</ele><time>2026-04-04T09:05:45.314Z</time></trkpt><trkpt lat="43.4834263" lon="11.9740536"><ele>694.0</ele><time>2026-04-04T09:05:47.314Z</time></trkpt><trkpt lat="43.4835078" lon="11.9741175"><ele>694.0</ele><time>2026-04-04T09:05:50.314Z</time></trkpt><trkpt lat="43.4835894" lon="11.9742606"><ele>695.5</ele><time>2026-04-04T09:05:52.314Z</time></trkpt><trkpt lat="43.4836437" lon="11.9743414"><ele>697.0</ele><time>2026-04-04T09:05:53.314Z</time></trkpt><trkpt lat="43.483685" lon="11.9744291"><ele>698.5</ele><time>2026-04-04T09:05:54.314Z</time></trkpt><trkpt lat="43.4837193" lon="11.97453"><ele>700.0</ele><time>2026-04-04T09:05:55.314Z</time></trkpt><trkpt lat="43.483745" lon="11.9746134"><ele>701.5</ele><time>2026-04-04T09:05:56.314Z</time></trkpt><trkpt lat="43.4837649" lon="11.9747227"><ele>703.0</ele><time>2026-04-04T09:05:58.313Z</time></trkpt><trkpt lat="43.4837822" lon="11.9748347"><ele>703.5</ele><time>2026-04-04T09:06:00.314Z</time></trkpt><trkpt lat="43.4838304" lon="11.9749794"><ele>704.0</ele><time>2026-04-04T09:06:02.314Z</time></trkpt><trkpt lat="43.4838259" lon="11.9751523"><ele>704.5</ele><time>2026-04-04T09:06:04.314Z</time></trkpt><trkpt lat="43.4837816" lon="11.9752728"><ele>705.0</ele><time>2026-04-04T09:06:05.314Z</time></trkpt><trkpt lat="43.4837559" lon="11.9754235"><ele>705.0</ele><time>2026-04-04T09:06:06.314Z</time></trkpt><trkpt lat="43.4837355" lon="11.975521"><ele>705.0</ele><time>2026-04-04T09:06:07.314Z</time></trkpt><trkpt lat="43.4837601" lon="11.9756433"><ele>705.0</ele><time>2026-04-04T09:06:08.314Z</time></trkpt><trkpt lat="43.4837676" lon="11.9757689"><ele>705.0</ele><time>2026-04-04T09:06:09.314Z</time></trkpt><trkpt lat="43.4837695" lon="11.9758743"><ele>705.0</ele><time>2026-04-04T09:06:10.314Z</time></trkpt><trkpt lat="43.4837811" lon="11.976001"><ele>705.0</ele><time>2026-04-04T09:06:12.314Z</time></trkpt><trkpt lat="43.4838242" lon="11.9760713"><ele>702.6</ele><time>2026-04-04T09:06:14.314Z</time></trkpt><trkpt lat="43.4839034" lon="11.9761077"><ele>700.2</ele><time>2026-04-04T09:06:16.314Z</time></trkpt><trkpt lat="43.4839873" lon="11.9762525"><ele>697.8</ele><time>2026-04-04T09:06:18.313Z</time></trkpt><trkpt lat="43.4839694" lon="11.9763872"><ele>695.4</ele><time>2026-04-04T09:06:19.314Z</time></trkpt><trkpt lat="43.4839427" lon="11.9764939"><ele>693.0</ele><time>2026-04-04T09:06:20.314Z</time></trkpt><trkpt lat="43.4839261" lon="11.9766078"><ele>695.3333333333334</ele><time>2026-04-04T09:06:21.314Z</time></trkpt><trkpt lat="43.4839214" lon="11.9767101"><ele>697.6666666666666</ele><time>2026-04-04T09:06:22.314Z</time></trkpt><trkpt lat="43.4839907" lon="11.976783"><ele>700.0</ele><time>2026-04-04T09:06:25.314Z</time></trkpt><trkpt lat="43.484098" lon="11.976744"><ele>702.3333333333333</ele><time>2026-04-04T09:06:28.313Z</time></trkpt><trkpt lat="43.48417" lon="11.9767098"><ele>704.6666666666666</ele><time>2026-04-04T09:06:29.315Z</time></trkpt><trkpt lat="43.4842521" lon="11.9767441"><ele>707.0</ele><time>2026-04-04T09:06:31.314Z</time></trkpt><trkpt lat="43.4843203" lon="11.9767721"><ele>707.0</ele><time>2026-04-04T09:06:32.313Z</time></trkpt><trkpt lat="43.4843887" lon="11.9767937"><ele>707.0</ele><time>2026-04-04T09:06:33.314Z</time></trkpt><trkpt lat="43.4844294" lon="11.9769706"><ele>707.0</ele><time>2026-04-04T09:06:35.315Z</time></trkpt><trkpt lat="43.4844724" lon="11.9771766"><ele>707.0</ele><time>2026-04-04T09:06:36.314Z</time></trkpt><trkpt lat="43.484503" lon="11.977311"><ele>707.0</ele><time>2026-04-04T09:06:37.314Z</time></trkpt><trkpt lat="43.4845337" lon="11.9774277"><ele>707.0</ele><time>2026-04-04T09:06:38.314Z</time></trkpt><trkpt lat="43.4845823" lon="11.9775262"><ele>707.0</ele><time>2026-04-04T09:06:39.315Z</time></trkpt><trkpt lat="43.4846074" lon="11.9776445"><ele>707.0</ele><time>2026-04-04T09:06:40.313Z</time></trkpt><trkpt lat="43.484657" lon="11.9777507"><ele>707.0</ele><time>2026-04-04T09:06:42.314Z</time></trkpt><trkpt lat="43.4846959" lon="11.9778601"><ele>707.0</ele><time>2026-04-04T09:06:46.315Z</time></trkpt><trkpt lat="43.4846887" lon="11.9779498"><ele>700.0</ele><time>2026-04-04T09:06:47.314Z</time></trkpt><trkpt lat="43.4846753" lon="11.9781047"><ele>693.0</ele><time>2026-04-04T09:06:49.314Z</time></trkpt><trkpt lat="43.4846805" lon="11.9782091"><ele>686.0</ele><time>2026-04-04T09:06:50.314Z</time></trkpt><trkpt lat="43.4846548" lon="11.9783641"><ele>679.0</ele><time>2026-04-04T09:06:52.313Z</time></trkpt><trkpt lat="43.4846637" lon="11.9784994"><ele>672.0</ele><time>2026-04-04T09:06:53.313Z</time></trkpt><trkpt lat="43.4846064" lon="11.9786335"><ele>674.6</ele><time>2026-04-04T09:06:55.314Z</time></trkpt><trkpt lat="43.4845321" lon="11.9787213"><ele>677.2</ele><time>2026-04-04T09:06:57.315Z</time></trkpt><trkpt lat="43.484472" lon="11.9787753"><ele>679.8</ele><time>2026-04-04T09:06:59.314Z</time></trkpt><trkpt lat="43.4844147" lon="11.9788542"><ele>682.4</ele><time>2026-04-04T09:07:02.314Z</time></trkpt><trkpt lat="43.4843563" lon="11.9789352"><ele>685.0</ele><time>2026-04-04T09:07:04.314Z</time></trkpt><trkpt lat="43.484302" lon="11.9792052"><ele>685.0</ele><time>2026-04-04T09:07:06.314Z</time></trkpt><trkpt lat="43.4842777" lon="11.9792882"><ele>685.0</ele><time>2026-04-04T09:07:07.314Z</time></trkpt><trkpt lat="43.4843016" lon="11.9794086"><ele>685.0</ele><time>2026-04-04T09:07:09.313Z</time></trkpt><trkpt lat="43.4843568" lon="11.9795294"><ele>685.0</ele><time>2026-04-04T09:07:11.314Z</time></trkpt><trkpt lat="43.4843515" lon="11.9797009"><ele>685.0</ele><time>2026-04-04T09:07:13.314Z</time></trkpt><trkpt lat="43.4843203" lon="11.9798289"><ele>685.0</ele><time>2026-04-04T09:07:15.313Z</time></trkpt><trkpt lat="43.4842876" lon="11.9799519"><ele>685.0</ele><time>2026-04-04T09:07:17.314Z</time></trkpt><trkpt lat="43.484265" lon="11.9801355"><ele>685.0</ele><time>2026-04-04T09:07:19.314Z</time></trkpt><trkpt lat="43.4842343" lon="11.9802276"><ele>685.0</ele><time>2026-04-04T09:07:20.314Z</time></trkpt><trkpt lat="43.4842058" lon="11.9803395"><ele>685.0</ele><time>2026-04-04T09:07:21.314Z</time></trkpt><trkpt lat="43.4841706" lon="11.9804938"><ele>684.8333333333334</ele><time>2026-04-04T09:07:23.313Z</time></trkpt><trkpt lat="43.484139" lon="11.9806098"><ele>684.6666666666667</ele><time>2026-04-04T09:07:24.314Z</time></trkpt><trkpt lat="43.4841232" lon="11.9807315"><ele>684.5</ele><time>2026-04-04T09:07:25.314Z</time></trkpt><trkpt lat="43.4841095" lon="11.9808236"><ele>684.3333333333334</ele><time>2026-04-04T09:07:26.314Z</time></trkpt><trkpt lat="43.4840898" lon="11.9809237"><ele>684.1666666666666</ele><time>2026-04-04T09:07:27.314Z</time></trkpt><trkpt lat="43.4840455" lon="11.9810744"><ele>684.0</ele><time>2026-04-04T09:07:29.314Z</time></trkpt><trkpt lat="43.484007" lon="11.9812331"><ele>684.0</ele><time>2026-04-04T09:07:31.314Z</time></trkpt><trkpt lat="43.4839845" lon="11.9813328"><ele>684.0</ele><time>2026-04-04T09:07:33.314Z</time></trkpt><trkpt lat="43.483967" lon="11.9814597"><ele>684.0</ele><time>2026-04-04T09:07:36.314Z</time></trkpt><trkpt lat="43.4839739" lon="11.9815712"><ele>684.0</ele><time>2026-04-04T09:07:39.314Z</time></trkpt><trkpt lat="43.4839834" lon="11.98166"><ele>684.0</ele><time>2026-04-04T09:07:41.314Z</time></trkpt><trkpt lat="43.4840125" lon="11.9817772"><ele>684.0</ele><time>2026-04-04T09:07:43.314Z</time></trkpt><trkpt lat="43.4840253" lon="11.9818623"><ele>684.0</ele><time>2026-04-04T09:07:45.314Z</time></trkpt><trkpt lat="43.4840921" lon="11.9818591"><ele>684.0</ele><time>2026-04-04T09:07:49.314Z</time></trkpt><trkpt lat="43.4841469" lon="11.9818036"><ele>684.0</ele><time>2026-04-04T09:07:52.314Z</time></trkpt><trkpt lat="43.4841838" lon="11.9816969"><ele>684.0</ele><time>2026-04-04T09:07:54.314Z</time></trkpt><trkpt lat="43.484253" lon="11.9816079"><ele>684.0</ele><time>2026-04-04T09:07:56.314Z</time></trkpt><trkpt lat="43.4843401" lon="11.9814636"><ele>684.0</ele><time>2026-04-04T09:07:58.314Z</time></trkpt><trkpt lat="43.4843951" lon="11.9812681"><ele>684.0</ele><time>2026-04-04T09:07:59.314Z</time></trkpt><trkpt lat="43.4844686" lon="11.9811862"><ele>684.0</ele><time>2026-04-04T09:08:00.314Z</time></trkpt><trkpt lat="43.4845395" lon="11.9811228"><ele>684.0</ele><time>2026-04-04T09:08:01.313Z</time></trkpt><trkpt lat="43.4846114" lon="11.9810498"><ele>684.0</ele><time>2026-04-04T09:08:02.314Z</time></trkpt><trkpt lat="43.4846943" lon="11.9809796"><ele>683.2</ele><time>2026-04-04T09:08:03.314Z</time></trkpt><trkpt lat="43.4847572" lon="11.9809229"><ele>682.4000000000001</ele><time>2026-04-04T09:08:04.314Z</time></trkpt><trkpt lat="43.4848397" lon="11.980769"><ele>681.6</ele><time>2026-04-04T09:08:05.314Z</time></trkpt><trkpt lat="43.4848963" lon="11.980708"><ele>680.8</ele><time>2026-04-04T09:08:06.313Z</time></trkpt><trkpt lat="43.4849769" lon="11.9806704"><ele>680.0</ele><time>2026-04-04T09:08:08.315Z</time></trkpt><trkpt lat="43.4850695" lon="11.9806118"><ele>680.0</ele><time>2026-04-04T09:08:10.314Z</time></trkpt><trkpt lat="43.4851413" lon="11.9806702"><ele>680.0</ele><time>2026-04-04T09:08:12.314Z</time></trkpt><trkpt lat="43.4852129" lon="11.980748"><ele>680.0</ele><time>2026-04-04T09:08:14.314Z</time></trkpt><trkpt lat="43.485269" lon="11.9808716"><ele>680.0</ele><time>2026-04-04T09:08:15.314Z</time></trkpt><trkpt lat="43.4853101" lon="11.9809471"><ele>680.0</ele><time>2026-04-04T09:08:16.314Z</time></trkpt><trkpt lat="43.4854342" lon="11.9810341"><ele>689.2</ele><time>2026-04-04T09:08:18.313Z</time></trkpt><trkpt lat="43.4855166" lon="11.9809829"><ele>698.4</ele><time>2026-04-04T09:08:20.314Z</time></trkpt><trkpt lat="43.4856466" lon="11.980922"><ele>707.5999999999999</ele><time>2026-04-04T09:08:21.314Z</time></trkpt><trkpt lat="43.4857193" lon="11.9808987"><ele>716.8</ele><time>2026-04-04T09:08:22.314Z</time></trkpt><trkpt lat="43.485816" lon="11.9808896"><ele>726.0</ele><time>2026-04-04T09:08:23.314Z</time></trkpt><trkpt lat="43.4859036" lon="11.9809663"><ele>726.0</ele><time>2026-04-04T09:08:25.314Z</time></trkpt><trkpt lat="43.4859972" lon="11.9810892"><ele>726.0</ele><time>2026-04-04T09:08:27.313Z</time></trkpt><trkpt lat="43.4860596" lon="11.9811217"><ele>726.0</ele><time>2026-04-04T09:08:29.314Z</time></trkpt><trkpt lat="43.4861176" lon="11.9810108"><ele>726.0</ele><time>2026-04-04T09:08:31.313Z</time></trkpt><trkpt lat="43.4862017" lon="11.9809175"><ele>726.0</ele><time>2026-04-04T09:08:33.314Z</time></trkpt><trkpt lat="43.4862907" lon="11.9808461"><ele>726.5999999999999</ele><time>2026-04-04T09:08:35.314Z</time></trkpt><trkpt lat="43.486387" lon="11.9808396"><ele>727.2</ele><time>2026-04-04T09:08:37.314Z</time></trkpt><trkpt lat="43.4864651" lon="11.9808748"><ele>727.8</ele><time>2026-04-04T09:08:39.314Z</time></trkpt><trkpt lat="43.4866066" lon="11.9809294"><ele>728.4000000000001</ele><time>2026-04-04T09:08:41.314Z</time></trkpt><trkpt lat="43.4867109" lon="11.9809297"><ele>729.0</ele><time>2026-04-04T09:08:42.314Z</time></trkpt><trkpt lat="43.4868168" lon="11.9809636"><ele>729.0</ele><time>2026-04-04T09:08:44.314Z</time></trkpt><trkpt lat="43.4869077" lon="11.9810368"><ele>729.0</ele><time>2026-04-04T09:08:46.314Z</time></trkpt><trkpt lat="43.4871247" lon="11.9810235"><ele>729.0</ele><time>2026-04-04T09:08:51.314Z</time></trkpt><trkpt lat="43.4870732" lon="11.9808057"><ele>724.8333333333334</ele><time>2026-04-04T09:08:54.314Z</time></trkpt><trkpt lat="43.487059" lon="11.9807095"><ele>720.6666666666666</ele><time>2026-04-04T09:08:55.313Z</time></trkpt><trkpt lat="43.487043" lon="11.9805783"><ele>716.5</ele><time>2026-04-04T09:08:56.313Z</time></trkpt><trkpt lat="43.4870355" lon="11.98047"><ele>712.3333333333333</ele><time>2026-04-04T09:08:57.314Z</time></trkpt><trkpt lat="43.4870634" lon="11.9803835"><ele>708.1666666666666</ele><time>2026-04-04T09:08:58.314Z</time></trkpt><trkpt lat="43.4870497" lon="11.9802887"><ele>704.0</ele><time>2026-04-04T09:08:59.314Z</time></trkpt><trkpt lat="43.4870618" lon="11.9801604"><ele>704.0</ele><time>2026-04-04T09:09:00.314Z</time></trkpt><trkpt lat="43.4870826" lon="11.9800546"><ele>704.0</ele><time>2026-04-04T09:09:01.314Z</time></trkpt><trkpt lat="43.4871028" lon="11.9799546"><ele>704.0</ele><time>2026-04-04T09:09:02.314Z</time></trkpt><trkpt lat="43.4872102" lon="11.9798289"><ele>704.0</ele><time>2026-04-04T09:09:04.314Z</time></trkpt><trkpt lat="43.4872766" lon="11.9798218"><ele>704.0</ele><time>2026-04-04T09:09:05.314Z</time></trkpt><trkpt lat="43.4873731" lon="11.9797547"><ele>703.0</ele><time>2026-04-04T09:09:07.314Z</time></trkpt><trkpt lat="43.4874755" lon="11.9796946"><ele>702.0</ele><time>2026-04-04T09:09:09.314Z</time></trkpt><trkpt lat="43.4875357" lon="11.9796505"><ele>701.0</ele><time>2026-04-04T09:09:10.315Z</time></trkpt><trkpt lat="43.4876296" lon="11.9796173"><ele>700.0</ele><time>2026-04-04T09:09:12.314Z</time></trkpt><trkpt lat="43.4876242" lon="11.9797891"><ele>699.0</ele><time>2026-04-04T09:09:15.315Z</time></trkpt><trkpt lat="43.4876027" lon="11.9799394"><ele>701.3333333333334</ele><time>2026-04-04T09:09:17.314Z</time></trkpt><trkpt lat="43.4876342" lon="11.9800365"><ele>703.6666666666666</ele><time>2026-04-04T09:09:18.314Z</time></trkpt><trkpt lat="43.4876697" lon="11.9801188"><ele>706.0</ele><time>2026-04-04T09:09:19.314Z</time></trkpt><trkpt lat="43.4877018" lon="11.9801948"><ele>708.3333333333333</ele><time>2026-04-04T09:09:20.314Z</time></trkpt><trkpt lat="43.4877496" lon="11.9803454"><ele>710.6666666666666</ele><time>2026-04-04T09:09:22.314Z</time></trkpt><trkpt lat="43.4877314" lon="11.980466"><ele>713.0</ele><time>2026-04-04T09:09:23.314Z</time></trkpt><trkpt lat="43.4876788" lon="11.9805198"><ele>713.0</ele><time>2026-04-04T09:09:24.314Z</time></trkpt><trkpt lat="43.4875464" lon="11.9806874"><ele>713.0</ele><time>2026-04-04T09:09:26.313Z</time></trkpt><trkpt lat="43.4875008" lon="11.9807743"><ele>713.0</ele><time>2026-04-04T09:09:27.314Z</time></trkpt><trkpt lat="43.4874805" lon="11.980886"><ele>713.0</ele><time>2026-04-04T09:09:29.314Z</time></trkpt><trkpt lat="43.4874861" lon="11.9810541"><ele>716.5999999999999</ele><time>2026-04-04T09:09:31.314Z</time></trkpt><trkpt lat="43.4874917" lon="11.9811529"><ele>720.1999999999999</ele><time>2026-04-04T09:09:32.315Z</time></trkpt><trkpt lat="43.4875594" lon="11.9812188"><ele>723.8</ele><time>2026-04-04T09:09:33.314Z</time></trkpt><trkpt lat="43.4876202" lon="11.9812948"><ele>727.4</ele><time>2026-04-04T09:09:34.314Z</time></trkpt><trkpt lat="43.487665" lon="11.981455"><ele>731.0</ele><time>2026-04-04T09:09:36.314Z</time></trkpt><trkpt lat="43.4876427" lon="11.981623"><ele>734.8</ele><time>2026-04-04T09:09:37.314Z</time></trkpt><trkpt lat="43.4876869" lon="11.9817807"><ele>738.5999999999999</ele><time>2026-04-04T09:09:39.314Z</time></trkpt><trkpt lat="43.4877493" lon="11.981919"><ele>742.4</ele><time>2026-04-04T09:09:41.314Z</time></trkpt><trkpt lat="43.4877756" lon="11.982018"><ele>746.2</ele><time>2026-04-04T09:09:42.314Z</time></trkpt><trkpt lat="43.4877958" lon="11.9821245"><ele>750.0</ele><time>2026-04-04T09:09:43.314Z</time></trkpt><trkpt lat="43.4878417" lon="11.9822275"><ele>750.0</ele><time>2026-04-04T09:09:45.314Z</time></trkpt><trkpt lat="43.4878812" lon="11.9822971"><ele>750.0</ele><time>2026-04-04T09:09:47.314Z</time></trkpt><trkpt lat="43.4879289" lon="11.98239"><ele>750.0</ele><time>2026-04-04T09:09:50.314Z</time></trkpt><trkpt lat="43.4878811" lon="11.9824513"><ele>750.0</ele><time>2026-04-04T09:09:53.314Z</time></trkpt><trkpt lat="43.4877711" lon="11.9823157"><ele>750.0</ele><time>2026-04-04T09:09:55.314Z</time></trkpt><trkpt lat="43.4876921" lon="11.982265"><ele>750.0</ele><time>2026-04-04T09:09:57.314Z</time></trkpt><trkpt lat="43.4876221" lon="11.9822381"><ele>750.0</ele><time>2026-04-04T09:09:59.313Z</time></trkpt><trkpt lat="43.4875475" lon="11.9822415"><ele>750.0</ele><time>2026-04-04T09:10:01.314Z</time></trkpt><trkpt lat="43.4874468" lon="11.9822981"><ele>750.0</ele><time>2026-04-04T09:10:03.314Z</time></trkpt><trkpt lat="43.4873726" lon="11.9823498"><ele>750.0</ele><time>2026-04-04T09:10:05.314Z</time></trkpt><trkpt lat="43.4872829" lon="11.9823898"><ele>750.0</ele><time>2026-04-04T09:10:07.313Z</time></trkpt><trkpt lat="43.4871963" lon="11.9824508"><ele>750.0</ele><time>2026-04-04T09:10:09.314Z</time></trkpt><trkpt lat="43.4871307" lon="11.9824366"><ele>750.0</ele><time>2026-04-04T09:10:10.313Z</time></trkpt><trkpt lat="43.4870189" lon="11.9825048"><ele>750.0</ele><time>2026-04-04T09:10:12.314Z</time></trkpt><trkpt lat="43.4869348" lon="11.9825827"><ele>750.0</ele><time>2026-04-04T09:10:14.314Z</time></trkpt><trkpt lat="43.4868776" lon="11.9827042"><ele>750.0</ele><time>2026-04-04T09:10:16.314Z</time></trkpt><trkpt lat="43.4868963" lon="11.9828233"><ele>753.4</ele><time>2026-04-04T09:10:18.314Z</time></trkpt><trkpt lat="43.4869264" lon="11.9829136"><ele>756.8</ele><time>2026-04-04T09:10:20.314Z</time></trkpt><trkpt lat="43.4869584" lon="11.9830227"><ele>760.2</ele><time>2026-04-04T09:10:22.314Z</time></trkpt><trkpt lat="43.487049" lon="11.9831705"><ele>763.6</ele><time>2026-04-04T09:10:24.314Z</time></trkpt><trkpt lat="43.4870727" lon="11.9833239"><ele>767.0</ele><time>2026-04-04T09:10:26.314Z</time></trkpt><trkpt lat="43.4870826" lon="11.98341"><ele>769.6666666666666</ele><time>2026-04-04T09:10:27.313Z</time></trkpt><trkpt lat="43.4870677" lon="11.9834989"><ele>772.3333333333333</ele><time>2026-04-04T09:10:28.314Z</time></trkpt><trkpt lat="43.4870665" lon="11.9836598"><ele>775.0</ele><time>2026-04-04T09:10:30.314Z</time></trkpt><trkpt lat="43.4870279" lon="11.9838114"><ele>777.6666666666666</ele><time>2026-04-04T09:10:32.314Z</time></trkpt><trkpt lat="43.4870055" lon="11.9838936"><ele>780.3333333333334</ele><time>2026-04-04T09:10:33.314Z</time></trkpt><trkpt lat="43.4869949" lon="11.9839958"><ele>783.0</ele><time>2026-04-04T09:10:34.313Z</time></trkpt><trkpt lat="43.486999" lon="11.984094"><ele>781.4</ele><time>2026-04-04T09:10:35.315Z</time></trkpt><trkpt lat="43.4870249" lon="11.9842312"><ele>779.8</ele><time>2026-04-04T09:10:37.314Z</time></trkpt><trkpt lat="43.4871068" lon="11.9843262"><ele>778.2</ele><time>2026-04-04T09:10:39.314Z</time></trkpt><trkpt lat="43.4871869" lon="11.984449"><ele>776.6</ele><time>2026-04-04T09:10:41.314Z</time></trkpt><trkpt lat="43.4871609" lon="11.9845905"><ele>775.0</ele><time>2026-04-04T09:10:43.314Z</time></trkpt><trkpt lat="43.4871099" lon="11.9846575"><ele>779.2</ele><time>2026-04-04T09:10:44.314Z</time></trkpt><trkpt lat="43.4869953" lon="11.9846344"><ele>783.4</ele><time>2026-04-04T09:10:46.314Z</time></trkpt><trkpt lat="43.486881" lon="11.9846488"><ele>787.5999999999999</ele><time>2026-04-04T09:10:48.314Z</time></trkpt><trkpt lat="43.4867788" lon="11.9845927"><ele>791.8</ele><time>2026-04-04T09:10:49.314Z</time></trkpt><trkpt lat="43.4866767" lon="11.984619"><ele>796.0</ele><time>2026-04-04T09:10:51.314Z</time></trkpt><trkpt lat="43.4865834" lon="11.9846456"><ele>796.0</ele><time>2026-04-04T09:10:53.314Z</time></trkpt><trkpt lat="43.4865746" lon="11.9847606"><ele>796.0</ele><time>2026-04-04T09:10:55.314Z</time></trkpt><trkpt lat="43.4865755" lon="11.9849125"><ele>796.0</ele><time>2026-04-04T09:10:57.313Z</time></trkpt><trkpt lat="43.4865787" lon="11.9851116"><ele>796.0</ele><time>2026-04-04T09:10:59.314Z</time></trkpt><trkpt lat="43.4865815" lon="11.985235"><ele>796.0</ele><time>2026-04-04T09:11:01.313Z</time></trkpt><trkpt lat="43.4865926" lon="11.9853796"><ele>798.5999999999999</ele><time>2026-04-04T09:11:03.315Z</time></trkpt><trkpt lat="43.4866399" lon="11.9855199"><ele>801.2</ele><time>2026-04-04T09:11:05.315Z</time></trkpt><trkpt lat="43.4867025" lon="11.985712"><ele>803.8</ele><time>2026-04-04T09:11:07.313Z</time></trkpt><trkpt lat="43.4867324" lon="11.9857955"><ele>806.4000000000001</ele><time>2026-04-04T09:11:08.314Z</time></trkpt><trkpt lat="43.4867552" lon="11.9859317"><ele>809.0</ele><time>2026-04-04T09:11:10.314Z</time></trkpt><trkpt lat="43.4867486" lon="11.9860184"><ele>810.5000000000001</ele><time>2026-04-04T09:11:12.314Z</time></trkpt><trkpt lat="43.4867569" lon="11.9861052"><ele>812.0</ele><time>2026-04-04T09:11:14.313Z</time></trkpt><trkpt lat="43.486757" lon="11.9862166"><ele>813.5</ele><time>2026-04-04T09:11:17.314Z</time></trkpt><trkpt lat="43.4867552" lon="11.9863679"><ele>815.0</ele><time>2026-04-04T09:11:20.314Z</time></trkpt><trkpt lat="43.4867629" lon="11.9864763"><ele>816.5000000000001</ele><time>2026-04-04T09:11:22.314Z</time></trkpt><trkpt lat="43.4867722" lon="11.986589"><ele>818.0</ele><time>2026-04-04T09:11:24.315Z</time></trkpt><trkpt lat="43.4868025" lon="11.9867122"><ele>819.8333333333334</ele><time>2026-04-04T09:11:26.314Z</time></trkpt><trkpt lat="43.4868563" lon="11.9868214"><ele>821.6666666666667</ele><time>2026-04-04T09:11:28.314Z</time></trkpt><trkpt lat="43.4869102" lon="11.9868855"><ele>823.5</ele><time>2026-04-04T09:11:30.314Z</time></trkpt><trkpt lat="43.4869692" lon="11.9869616"><ele>825.3333333333333</ele><time>2026-04-04T09:11:31.313Z</time></trkpt><trkpt lat="43.4870343" lon="11.9870194"><ele>827.1666666666666</ele><time>2026-04-04T09:11:32.314Z</time></trkpt><trkpt lat="43.4870907" lon="11.9871413"><ele>829.0</ele><time>2026-04-04T09:11:34.315Z</time></trkpt><trkpt lat="43.48715" lon="11.9872534"><ele>827.8000000000001</ele><time>2026-04-04T09:11:36.314Z</time></trkpt><trkpt lat="43.4872421" lon="11.9873907"><ele>826.6</ele><time>2026-04-04T09:11:38.314Z</time></trkpt><trkpt lat="43.4873192" lon="11.9874625"><ele>825.4</ele><time>2026-04-04T09:11:39.314Z</time></trkpt><trkpt lat="43.4873929" lon="11.9875693"><ele>824.2</ele><time>2026-04-04T09:11:41.314Z</time></trkpt><trkpt lat="43.4874254" lon="11.9876652"><ele>823.0</ele><time>2026-04-04T09:11:42.314Z</time></trkpt><trkpt lat="43.4874844" lon="11.987808"><ele>823.0</ele><time>2026-04-04T09:11:44.314Z</time></trkpt><trkpt lat="43.4875788" lon="11.9879408"><ele>823.0</ele><time>2026-04-04T09:11:45.314Z</time></trkpt><trkpt lat="43.4876062" lon="11.9880747"><ele>823.0</ele><time>2026-04-04T09:11:47.314Z</time></trkpt><trkpt lat="43.4876573" lon="11.9882159"><ele>823.0</ele><time>2026-04-04T09:11:49.314Z</time></trkpt><trkpt lat="43.4877377" lon="11.9882758"><ele>823.0</ele><time>2026-04-04T09:11:50.314Z</time></trkpt><trkpt lat="43.4877768" lon="11.9883649"><ele>823.4</ele><time>2026-04-04T09:11:52.314Z</time></trkpt><trkpt lat="43.4878202" lon="11.9884682"><ele>823.8</ele><time>2026-04-04T09:11:54.314Z</time></trkpt><trkpt lat="43.4878723" lon="11.9885559"><ele>824.2</ele><time>2026-04-04T09:11:56.314Z</time></trkpt><trkpt lat="43.4879122" lon="11.9886236"><ele>824.6</ele><time>2026-04-04T09:11:58.313Z</time></trkpt><trkpt lat="43.4879947" lon="11.9886622"><ele>825.0</ele><time>2026-04-04T09:12:00.313Z</time></trkpt><trkpt lat="43.488137" lon="11.988636"><ele>825.0</ele><time>2026-04-04T09:12:02.314Z</time></trkpt><trkpt lat="43.4882582" lon="11.9886111"><ele>825.0</ele><time>2026-04-04T09:12:04.314Z</time></trkpt><trkpt lat="43.4883761" lon="11.9885684"><ele>825.0</ele><time>2026-04-04T09:12:06.314Z</time></trkpt><trkpt lat="43.4884397" lon="11.9885469"><ele>825.0</ele><time>2026-04-04T09:12:07.313Z</time></trkpt><trkpt lat="43.488588" lon="11.988475"><ele>825.0</ele><time>2026-04-04T09:12:09.314Z</time></trkpt><trkpt lat="43.4887041" lon="11.9884593"><ele>825.0</ele><time>2026-04-04T09:12:11.313Z</time></trkpt><trkpt lat="43.4887559" lon="11.9885625"><ele>825.0</ele><time>2026-04-04T09:12:13.314Z</time></trkpt><trkpt lat="43.4888174" lon="11.9886763"><ele>825.0</ele><time>2026-04-04T09:12:15.314Z</time></trkpt><trkpt lat="43.4888986" lon="11.9887968"><ele>825.0</ele><time>2026-04-04T09:12:17.314Z</time></trkpt><trkpt lat="43.4890084" lon="11.9889308"><ele>827.0</ele><time>2026-04-04T09:12:19.314Z</time></trkpt><trkpt lat="43.4891124" lon="11.9890488"><ele>829.0</ele><time>2026-04-04T09:12:21.314Z</time></trkpt><trkpt lat="43.4891631" lon="11.9891143"><ele>831.0</ele><time>2026-04-04T09:12:22.314Z</time></trkpt><trkpt lat="43.4893399" lon="11.9891876"><ele>833.0</ele><time>2026-04-04T09:12:23.314Z</time></trkpt><trkpt lat="43.4893857" lon="11.9892643"><ele>833.0000000000001</ele><time>2026-04-04T09:12:28.314Z</time></trkpt><trkpt lat="43.4893815" lon="11.9893726"><ele>833.0</ele><time>2026-04-04T09:12:32.314Z</time></trkpt><trkpt lat="43.4893939" lon="11.9894581"><ele>833.0</ele><time>2026-04-04T09:12:35.314Z</time></trkpt><trkpt lat="43.4894729" lon="11.9895"><ele>833.0</ele><time>2026-04-04T09:12:39.314Z</time></trkpt><trkpt lat="43.4895374" lon="11.9895074"><ele>833.0000000000001</ele><time>2026-04-04T09:12:40.314Z</time></trkpt><trkpt lat="43.489653" lon="11.989494"><ele>833.0</ele><time>2026-04-04T09:12:42.314Z</time></trkpt><trkpt lat="43.4897242" lon="11.9894836"><ele>832.0</ele><time>2026-04-04T09:12:44.314Z</time></trkpt><trkpt lat="43.4898487" lon="11.9895065"><ele>831.0</ele><time>2026-04-04T09:12:45.313Z</time></trkpt><trkpt lat="43.4899118" lon="11.9895541"><ele>830.0</ele><time>2026-04-04T09:12:46.314Z</time></trkpt><trkpt lat="43.4899831" lon="11.9895985"><ele>829.0</ele><time>2026-04-04T09:12:47.314Z</time></trkpt><trkpt lat="43.4900912" lon="11.98965"><ele>828.0</ele><time>2026-04-04T09:12:48.314Z</time></trkpt><trkpt lat="43.490218" lon="11.9896963"><ele>828.0</ele><time>2026-04-04T09:12:50.314Z</time></trkpt><trkpt lat="43.4903487" lon="11.9897039"><ele>828.0</ele><time>2026-04-04T09:12:51.314Z</time></trkpt><trkpt lat="43.490445" lon="11.9896969"><ele>828.0</ele><time>2026-04-04T09:12:52.314Z</time></trkpt><trkpt lat="43.4905189" lon="11.9896618"><ele>828.0</ele><time>2026-04-04T09:12:53.314Z</time></trkpt><trkpt lat="43.4906009" lon="11.9896339"><ele>828.0</ele><time>2026-04-04T09:12:54.314Z</time></trkpt><trkpt lat="43.4907746" lon="11.9895654"><ele>828.2</ele><time>2026-04-04T09:12:56.314Z</time></trkpt><trkpt lat="43.4909148" lon="11.9895312"><ele>828.4</ele><time>2026-04-04T09:12:57.314Z</time></trkpt><trkpt lat="43.4909972" lon="11.9894925"><ele>828.6</ele><time>2026-04-04T09:12:58.314Z</time></trkpt><trkpt lat="43.4911439" lon="11.9894843"><ele>828.8000000000001</ele><time>2026-04-04T09:13:00.314Z</time></trkpt><trkpt lat="43.4912136" lon="11.9894781"><ele>829.0</ele><time>2026-04-04T09:13:01.314Z</time></trkpt><trkpt lat="43.4913301" lon="11.989476"><ele>829.6</ele><time>2026-04-04T09:13:03.314Z</time></trkpt><trkpt lat="43.4914362" lon="11.9895006"><ele>830.2</ele><time>2026-04-04T09:13:05.314Z</time></trkpt><trkpt lat="43.4915641" lon="11.9894994"><ele>830.8000000000001</ele><time>2026-04-04T09:13:07.314Z</time></trkpt><trkpt lat="43.4916841" lon="11.9894807"><ele>831.4000000000001</ele><time>2026-04-04T09:13:09.314Z</time></trkpt><trkpt lat="43.4917393" lon="11.9894264"><ele>832.0</ele><time>2026-04-04T09:13:11.314Z</time></trkpt><trkpt lat="43.491821" lon="11.989344"><ele>832.0</ele><time>2026-04-04T09:13:13.314Z</time></trkpt><trkpt lat="43.4919155" lon="11.9892512"><ele>832.0</ele><time>2026-04-04T09:13:15.314Z</time></trkpt><trkpt lat="43.4919859" lon="11.9891944"><ele>832.0</ele><time>2026-04-04T09:13:16.314Z</time></trkpt><trkpt lat="43.4921091" lon="11.9891575"><ele>832.0</ele><time>2026-04-04T09:13:18.314Z</time></trkpt><trkpt lat="43.4921619" lon="11.989089"><ele>832.0</ele><time>2026-04-04T09:13:19.314Z</time></trkpt><trkpt lat="43.4922484" lon="11.9890109"><ele>832.6666666666666</ele><time>2026-04-04T09:13:21.314Z</time></trkpt><trkpt lat="43.4922958" lon="11.9889496"><ele>833.3333333333333</ele><time>2026-04-04T09:13:22.314Z</time></trkpt><trkpt lat="43.4923371" lon="11.9888607"><ele>834.0</ele><time>2026-04-04T09:13:23.314Z</time></trkpt><trkpt lat="43.492384" lon="11.9887443"><ele>834.6666666666667</ele><time>2026-04-04T09:13:24.314Z</time></trkpt><trkpt lat="43.4924154" lon="11.9886573"><ele>835.3333333333334</ele><time>2026-04-04T09:13:25.314Z</time></trkpt><trkpt lat="43.4924474" lon="11.9885542"><ele>836.0</ele><time>2026-04-04T09:13:26.314Z</time></trkpt><trkpt lat="43.4924727" lon="11.988428"><ele>833.6666666666667</ele><time>2026-04-04T09:13:28.314Z</time></trkpt><trkpt lat="43.4924813" lon="11.9883236"><ele>831.3333333333334</ele><time>2026-04-04T09:13:30.314Z</time></trkpt><trkpt lat="43.4924942" lon="11.988144"><ele>829.0</ele><time>2026-04-04T09:13:32.314Z</time></trkpt><trkpt lat="43.492509" lon="11.9880535"><ele>826.6666666666667</ele><time>2026-04-04T09:13:33.314Z</time></trkpt><trkpt lat="43.492513" lon="11.9879466"><ele>824.3333333333334</ele><time>2026-04-04T09:13:34.313Z</time></trkpt><trkpt lat="43.4925048" lon="11.9878427"><ele>822.0</ele><time>2026-04-04T09:13:35.314Z</time></trkpt><trkpt lat="43.4925608" lon="11.9877902"><ele>822.0</ele><time>2026-04-04T09:13:36.314Z</time></trkpt><trkpt lat="43.4926098" lon="11.9876438"><ele>822.0</ele><time>2026-04-04T09:13:38.314Z</time></trkpt><trkpt lat="43.4927071" lon="11.9876318"><ele>822.0</ele><time>2026-04-04T09:13:39.314Z</time></trkpt><trkpt lat="43.49282" lon="11.9876421"><ele>822.0</ele><time>2026-04-04T09:13:41.314Z</time></trkpt><trkpt lat="43.4928833" lon="11.9876399"><ele>822.0</ele><time>2026-04-04T09:13:42.314Z</time></trkpt><trkpt lat="43.4929678" lon="11.98765"><ele>822.8</ele><time>2026-04-04T09:13:43.314Z</time></trkpt><trkpt lat="43.4930337" lon="11.9876747"><ele>823.6</ele><time>2026-04-04T09:13:45.314Z</time></trkpt><trkpt lat="43.4931388" lon="11.9876961"><ele>824.4</ele><time>2026-04-04T09:13:47.314Z</time></trkpt><trkpt lat="43.4932103" lon="11.9876813"><ele>825.1999999999999</ele><time>2026-04-04T09:13:49.314Z</time></trkpt><trkpt lat="43.4933207" lon="11.9876427"><ele>826.0</ele><time>2026-04-04T09:13:51.314Z</time></trkpt><trkpt lat="43.493436" lon="11.9876069"><ele>826.0</ele><time>2026-04-04T09:13:53.314Z</time></trkpt><trkpt lat="43.4935629" lon="11.9875386"><ele>826.0</ele><time>2026-04-04T09:13:55.314Z</time></trkpt><trkpt lat="43.4936342" lon="11.987506"><ele>826.0</ele><time>2026-04-04T09:13:56.314Z</time></trkpt><trkpt lat="43.4937098" lon="11.9874734"><ele>826.0</ele><time>2026-04-04T09:13:57.314Z</time></trkpt><trkpt lat="43.4938291" lon="11.987452"><ele>826.0</ele><time>2026-04-04T09:13:59.314Z</time></trkpt><trkpt lat="43.4939437" lon="11.9874473"><ele>823.8</ele><time>2026-04-04T09:14:01.314Z</time></trkpt><trkpt lat="43.4940487" lon="11.9874309"><ele>821.5999999999999</ele><time>2026-04-04T09:14:03.314Z</time></trkpt><trkpt lat="43.4941382" lon="11.9873935"><ele>819.4</ele><time>2026-04-04T09:14:05.314Z</time></trkpt><trkpt lat="43.4942291" lon="11.9873004"><ele>817.2</ele><time>2026-04-04T09:14:07.314Z</time></trkpt><trkpt lat="43.4943128" lon="11.9871714"><ele>815.0</ele><time>2026-04-04T09:14:09.314Z</time></trkpt><trkpt lat="43.4943505" lon="11.9870617"><ele>815.0000000000001</ele><time>2026-04-04T09:14:10.314Z</time></trkpt><trkpt lat="43.4943697" lon="11.986921"><ele>815.0</ele><time>2026-04-04T09:14:12.314Z</time></trkpt><trkpt lat="43.4944033" lon="11.9868421"><ele>815.0</ele><time>2026-04-04T09:14:13.314Z</time></trkpt><trkpt lat="43.4944252" lon="11.9867392"><ele>815.0</ele><time>2026-04-04T09:14:14.314Z</time></trkpt><trkpt lat="43.4944694" lon="11.9865756"><ele>815.0000000000001</ele><time>2026-04-04T09:14:16.315Z</time></trkpt><trkpt lat="43.4944888" lon="11.9864778"><ele>815.0</ele><time>2026-04-04T09:14:17.314Z</time></trkpt><trkpt lat="43.4944884" lon="11.9863692"><ele>815.6666666666667</ele><time>2026-04-04T09:14:18.314Z</time></trkpt><trkpt lat="43.4945043" lon="11.9862692"><ele>816.3333333333334</ele><time>2026-04-04T09:14:19.314Z</time></trkpt><trkpt lat="43.4945199" lon="11.9861684"><ele>817.0</ele><time>2026-04-04T09:14:20.314Z</time></trkpt><trkpt lat="43.4945328" lon="11.9860757"><ele>817.6666666666667</ele><time>2026-04-04T09:14:21.314Z</time></trkpt><trkpt lat="43.4945439" lon="11.9858915"><ele>818.3333333333334</ele><time>2026-04-04T09:14:23.314Z</time></trkpt><trkpt lat="43.4945441" lon="11.9858017"><ele>819.0</ele><time>2026-04-04T09:14:24.314Z</time></trkpt><trkpt lat="43.4945838" lon="11.9856874"><ele>814.1666666666666</ele><time>2026-04-04T09:14:26.314Z</time></trkpt><trkpt lat="43.4946063" lon="11.9855797"><ele>809.3333333333333</ele><time>2026-04-04T09:14:28.314Z</time></trkpt><trkpt lat="43.4946365" lon="11.9854367"><ele>804.5</ele><time>2026-04-04T09:14:30.314Z</time></trkpt><trkpt lat="43.4946426" lon="11.9853473"><ele>799.6666666666666</ele><time>2026-04-04T09:14:31.314Z</time></trkpt><trkpt lat="43.4946477" lon="11.9852575"><ele>794.8333333333333</ele><time>2026-04-04T09:14:32.313Z</time></trkpt><trkpt lat="43.4946665" lon="11.98511"><ele>790.0</ele><time>2026-04-04T09:14:34.314Z</time></trkpt><trkpt lat="43.4946717" lon="11.9849826"><ele>788.4</ele><time>2026-04-04T09:14:36.314Z</time></trkpt><trkpt lat="43.4946929" lon="11.9848338"><ele>786.8</ele><time>2026-04-04T09:14:38.314Z</time></trkpt><trkpt lat="43.4947313" lon="11.9847105"><ele>785.2</ele><time>2026-04-04T09:14:41.314Z</time></trkpt><trkpt lat="43.4947897" lon="11.9845994"><ele>783.6</ele><time>2026-04-04T09:14:43.314Z</time></trkpt><trkpt lat="43.4948724" lon="11.9845086"><ele>782.0</ele><time>2026-04-04T09:14:45.315Z</time></trkpt><trkpt lat="43.4949379" lon="11.9844144"><ele>782.0000000000001</ele><time>2026-04-04T09:14:47.314Z</time></trkpt><trkpt lat="43.4950248" lon="11.9843125"><ele>782.0</ele><time>2026-04-04T09:14:49.313Z</time></trkpt><trkpt lat="43.4950795" lon="11.9842389"><ele>782.0</ele><time>2026-04-04T09:14:50.314Z</time></trkpt><trkpt lat="43.4951299" lon="11.9841706"><ele>782.0</ele><time>2026-04-04T09:14:51.314Z</time></trkpt><trkpt lat="43.4951801" lon="11.9841151"><ele>782.0000000000001</ele><time>2026-04-04T09:14:52.314Z</time></trkpt><trkpt lat="43.4952675" lon="11.9840012"><ele>782.0</ele><time>2026-04-04T09:14:54.314Z</time></trkpt><trkpt lat="43.4953503" lon="11.9838983"><ele>780.8</ele><time>2026-04-04T09:14:56.315Z</time></trkpt><trkpt lat="43.4954276" lon="11.9838064"><ele>779.6</ele><time>2026-04-04T09:14:58.314Z</time></trkpt><trkpt lat="43.4954734" lon="11.983673"><ele>778.4</ele><time>2026-04-04T09:15:00.314Z</time></trkpt><trkpt lat="43.4954734" lon="11.9835464"><ele>777.1999999999999</ele><time>2026-04-04T09:15:01.314Z</time></trkpt><trkpt lat="43.4954472" lon="11.9834045"><ele>776.0</ele><time>2026-04-04T09:15:03.314Z</time></trkpt><trkpt lat="43.4954174" lon="11.9832513"><ele>775.2857142857142</ele><time>2026-04-04T09:15:05.314Z</time></trkpt><trkpt lat="43.4954132" lon="11.9831584"><ele>774.5714285714287</ele><time>2026-04-04T09:15:06.313Z</time></trkpt><trkpt lat="43.4954123" lon="11.9830674"><ele>773.8571428571429</ele><time>2026-04-04T09:15:07.314Z</time></trkpt><trkpt lat="43.495421" lon="11.982964"><ele>773.1428571428571</ele><time>2026-04-04T09:15:08.314Z</time></trkpt><trkpt lat="43.4954272" lon="11.9828634"><ele>772.4285714285713</ele><time>2026-04-04T09:15:09.314Z</time></trkpt><trkpt lat="43.4954327" lon="11.9827654"><ele>771.7142857142858</ele><time>2026-04-04T09:15:10.313Z</time></trkpt><trkpt lat="43.495429" lon="11.9826676"><ele>771.0</ele><time>2026-04-04T09:15:11.314Z</time></trkpt><trkpt lat="43.4954272" lon="11.982578"><ele>770.0</ele><time>2026-04-04T09:15:12.314Z</time></trkpt><trkpt lat="43.4954293" lon="11.9824832"><ele>769.0</ele><time>2026-04-04T09:15:13.314Z</time></trkpt><trkpt lat="43.4953969" lon="11.9823906"><ele>768.0</ele><time>2026-04-04T09:15:14.315Z</time></trkpt><trkpt lat="43.4953685" lon="11.982311"><ele>767.0</ele><time>2026-04-04T09:15:15.314Z</time></trkpt><trkpt lat="43.4953412" lon="11.9822327"><ele>766.0</ele><time>2026-04-04T09:15:16.314Z</time></trkpt><trkpt lat="43.4953156" lon="11.9821298"><ele>765.0</ele><time>2026-04-04T09:15:17.314Z</time></trkpt><trkpt lat="43.4953427" lon="11.9820448"><ele>764.0</ele><time>2026-04-04T09:15:18.313Z</time></trkpt><trkpt lat="43.4953533" lon="11.9819387"><ele>764.0</ele><time>2026-04-04T09:15:19.315Z</time></trkpt><trkpt lat="43.4953577" lon="11.9818342"><ele>764.0</ele><time>2026-04-04T09:15:20.315Z</time></trkpt><trkpt lat="43.4954033" lon="11.981761"><ele>764.0</ele><time>2026-04-04T09:15:21.314Z</time></trkpt><trkpt lat="43.4954449" lon="11.9816942"><ele>764.0</ele><time>2026-04-04T09:15:22.314Z</time></trkpt><trkpt lat="43.4955131" lon="11.9815932"><ele>764.0</ele><time>2026-04-04T09:15:24.314Z</time></trkpt><trkpt lat="43.4955702" lon="11.9815262"><ele>764.0</ele><time>2026-04-04T09:15:26.314Z</time></trkpt><trkpt lat="43.4956559" lon="11.9814423"><ele>761.6</ele><time>2026-04-04T09:15:28.313Z</time></trkpt><trkpt lat="43.4957416" lon="11.9813861"><ele>759.2</ele><time>2026-04-04T09:15:30.314Z</time></trkpt><trkpt lat="43.495799" lon="11.981329"><ele>756.8000000000001</ele><time>2026-04-04T09:15:32.314Z</time></trkpt><trkpt lat="43.4958952" lon="11.9813106"><ele>754.4000000000001</ele><time>2026-04-04T09:15:34.314Z</time></trkpt><trkpt lat="43.4959959" lon="11.9812819"><ele>752.0</ele><time>2026-04-04T09:15:36.314Z</time></trkpt><trkpt lat="43.496089" lon="11.9812792"><ele>752.0</ele><time>2026-04-04T09:15:38.314Z</time></trkpt><trkpt lat="43.4961785" lon="11.9812893"><ele>752.0</ele><time>2026-04-04T09:15:40.314Z</time></trkpt><trkpt lat="43.4962422" lon="11.9813197"><ele>752.0</ele><time>2026-04-04T09:15:41.313Z</time></trkpt><trkpt lat="43.4963391" lon="11.981352"><ele>752.0</ele><time>2026-04-04T09:15:43.315Z</time></trkpt><trkpt lat="43.4964274" lon="11.9813804"><ele>752.0</ele><time>2026-04-04T09:15:45.314Z</time></trkpt><trkpt lat="43.4965293" lon="11.9813958"><ele>750.1666666666666</ele><time>2026-04-04T09:15:47.314Z</time></trkpt><trkpt lat="43.496611" lon="11.981434"><ele>748.3333333333333</ele><time>2026-04-04T09:15:49.314Z</time></trkpt><trkpt lat="43.4966738" lon="11.9814876"><ele>746.5</ele><time>2026-04-04T09:15:51.314Z</time></trkpt><trkpt lat="43.4967634" lon="11.9815175"><ele>744.6666666666666</ele><time>2026-04-04T09:15:53.314Z</time></trkpt><trkpt lat="43.4968411" lon="11.9815705"><ele>742.8333333333334</ele><time>2026-04-04T09:15:55.314Z</time></trkpt><trkpt lat="43.4968939" lon="11.9816487"><ele>741.0</ele><time>2026-04-04T09:15:57.314Z</time></trkpt><trkpt lat="43.496951" lon="11.9815963"><ele>741.0</ele><time>2026-04-04T09:16:00.314Z</time></trkpt><trkpt lat="43.4969363" lon="11.9814865"><ele>741.0</ele><time>2026-04-04T09:16:02.314Z</time></trkpt><trkpt lat="43.4968906" lon="11.9813737"><ele>741.0</ele><time>2026-04-04T09:16:04.314Z</time></trkpt><trkpt lat="43.4968332" lon="11.9812568"><ele>741.0</ele><time>2026-04-04T09:16:06.314Z</time></trkpt><trkpt lat="43.496797" lon="11.9811827"><ele>741.0</ele><time>2026-04-04T09:16:07.314Z</time></trkpt><trkpt lat="43.4967541" lon="11.981104"><ele>741.0</ele><time>2026-04-04T09:16:08.314Z</time></trkpt><trkpt lat="43.4967152" lon="11.981016"><ele>741.0</ele><time>2026-04-04T09:16:09.314Z</time></trkpt><trkpt lat="43.4966772" lon="11.9809274"><ele>741.0</ele><time>2026-04-04T09:16:10.315Z</time></trkpt><trkpt lat="43.4966514" lon="11.9808372"><ele>741.0</ele><time>2026-04-04T09:16:11.315Z</time></trkpt><trkpt lat="43.4966714" lon="11.9806908"><ele>741.0</ele><time>2026-04-04T09:16:13.314Z</time></trkpt><trkpt lat="43.4967304" lon="11.9805398"><ele>741.0</ele><time>2026-04-04T09:16:15.314Z</time></trkpt><trkpt lat="43.4967652" lon="11.9804635"><ele>741.0</ele><time>2026-04-04T09:16:16.314Z</time></trkpt><trkpt lat="43.4967945" lon="11.9803727"><ele>739.3333333333334</ele><time>2026-04-04T09:16:17.314Z</time></trkpt><trkpt lat="43.4968178" lon="11.9802654"><ele>737.6666666666666</ele><time>2026-04-04T09:16:18.314Z</time></trkpt><trkpt lat="43.4968249" lon="11.9801475"><ele>736.0</ele><time>2026-04-04T09:16:19.314Z</time></trkpt><trkpt lat="43.4968301" lon="11.9800277"><ele>734.3333333333333</ele><time>2026-04-04T09:16:20.313Z</time></trkpt><trkpt lat="43.4968475" lon="11.9799326"><ele>732.6666666666666</ele><time>2026-04-04T09:16:21.314Z</time></trkpt><trkpt lat="43.4968451" lon="11.9798363"><ele>731.0</ele><time>2026-04-04T09:16:22.314Z</time></trkpt><trkpt lat="43.4968259" lon="11.9797141"><ele>730.6666666666666</ele><time>2026-04-04T09:16:23.314Z</time></trkpt><trkpt lat="43.4967974" lon="11.9796227"><ele>730.3333333333333</ele><time>2026-04-04T09:16:24.315Z</time></trkpt><trkpt lat="43.4967792" lon="11.9795061"><ele>730.0</ele><time>2026-04-04T09:16:25.314Z</time></trkpt><trkpt lat="43.4967672" lon="11.9793851"><ele>729.6666666666666</ele><time>2026-04-04T09:16:26.314Z</time></trkpt><trkpt lat="43.4967682" lon="11.9792604"><ele>729.3333333333334</ele><time>2026-04-04T09:16:27.314Z</time></trkpt><trkpt lat="43.4967679" lon="11.9791242"><ele>729.0</ele><time>2026-04-04T09:16:28.314Z</time></trkpt><trkpt lat="43.4967568" lon="11.9789817"><ele>729.8000000000001</ele><time>2026-04-04T09:16:29.313Z</time></trkpt><trkpt lat="43.4967344" lon="11.978839"><ele>730.6</ele><time>2026-04-04T09:16:30.314Z</time></trkpt><trkpt lat="43.4967074" lon="11.9786994"><ele>731.4</ele><time>2026-04-04T09:16:31.313Z</time></trkpt><trkpt lat="43.4966846" lon="11.9785769"><ele>732.2</ele><time>2026-04-04T09:16:32.314Z</time></trkpt><trkpt lat="43.49667" lon="11.9784671"><ele>733.0</ele><time>2026-04-04T09:16:33.314Z</time></trkpt><trkpt lat="43.4966824" lon="11.9783741"><ele>733.8333333333334</ele><time>2026-04-04T09:16:34.314Z</time></trkpt><trkpt lat="43.4967212" lon="11.9783032"><ele>734.6666666666667</ele><time>2026-04-04T09:16:35.314Z</time></trkpt><trkpt lat="43.4967827" lon="11.9782518"><ele>735.5</ele><time>2026-04-04T09:16:36.314Z</time></trkpt><trkpt lat="43.4968461" lon="11.978222"><ele>736.3333333333334</ele><time>2026-04-04T09:16:37.314Z</time></trkpt><trkpt lat="43.4969232" lon="11.9782057"><ele>737.1666666666666</ele><time>2026-04-04T09:16:38.314Z</time></trkpt><trkpt lat="43.497014" lon="11.9781869"><ele>738.0</ele><time>2026-04-04T09:16:39.314Z</time></trkpt><trkpt lat="43.4971073" lon="11.9781669"><ele>738.8</ele><time>2026-04-04T09:16:40.314Z</time></trkpt><trkpt lat="43.4972041" lon="11.9781448"><ele>739.5999999999999</ele><time>2026-04-04T09:16:41.314Z</time></trkpt><trkpt lat="43.4972871" lon="11.9780843"><ele>740.4000000000001</ele><time>2026-04-04T09:16:42.314Z</time></trkpt><trkpt lat="43.497366" lon="11.9780219"><ele>741.2</ele><time>2026-04-04T09:16:43.314Z</time></trkpt><trkpt lat="43.4974146" lon="11.9779269"><ele>742.0</ele><time>2026-04-04T09:16:44.313Z</time></trkpt><trkpt lat="43.4974603" lon="11.9778202"><ele>742.0</ele><time>2026-04-04T09:16:45.314Z</time></trkpt><trkpt lat="43.4974956" lon="11.9777061"><ele>742.0</ele><time>2026-04-04T09:16:46.315Z</time></trkpt><trkpt lat="43.4975349" lon="11.977582"><ele>742.0</ele><time>2026-04-04T09:16:47.314Z</time></trkpt><trkpt lat="43.4975759" lon="11.9774638"><ele>742.0</ele><time>2026-04-04T09:16:48.314Z</time></trkpt><trkpt lat="43.4976265" lon="11.9773578"><ele>742.0</ele><time>2026-04-04T09:16:49.314Z</time></trkpt><trkpt lat="43.4976822" lon="11.9772697"><ele>743.0</ele><time>2026-04-04T09:16:50.314Z</time></trkpt><trkpt lat="43.4977424" lon="11.9771967"><ele>744.0</ele><time>2026-04-04T09:16:51.314Z</time></trkpt><trkpt lat="43.4978137" lon="11.9771309"><ele>745.0</ele><time>2026-04-04T09:16:52.314Z</time></trkpt><trkpt lat="43.4978991" lon="11.9770836"><ele>746.0</ele><time>2026-04-04T09:16:53.313Z</time></trkpt><trkpt lat="43.4979768" lon="11.9770319"><ele>747.0</ele><time>2026-04-04T09:16:54.314Z</time></trkpt><trkpt lat="43.49806" lon="11.9770457"><ele>748.0</ele><time>2026-04-04T09:16:55.313Z</time></trkpt><trkpt lat="43.4981353" lon="11.9770273"><ele>749.3333333333334</ele><time>2026-04-04T09:16:56.314Z</time></trkpt><trkpt lat="43.4982136" lon="11.9770434"><ele>750.6666666666667</ele><time>2026-04-04T09:16:57.313Z</time></trkpt><trkpt lat="43.4982881" lon="11.9770604"><ele>752.0</ele><time>2026-04-04T09:16:58.314Z</time></trkpt><trkpt lat="43.4983705" lon="11.9770886"><ele>753.3333333333334</ele><time>2026-04-04T09:16:59.314Z</time></trkpt><trkpt lat="43.4984463" lon="11.9771173"><ele>754.6666666666666</ele><time>2026-04-04T09:17:00.314Z</time></trkpt><trkpt lat="43.4985225" lon="11.9771302"><ele>756.0</ele><time>2026-04-04T09:17:01.314Z</time></trkpt><trkpt lat="43.4985884" lon="11.9771081"><ele>756.0</ele><time>2026-04-04T09:17:02.314Z</time></trkpt><trkpt lat="43.4986586" lon="11.9770521"><ele>756.0</ele><time>2026-04-04T09:17:04.314Z</time></trkpt><trkpt lat="43.4986897" lon="11.9768825"><ele>756.0</ele><time>2026-04-04T09:17:06.314Z</time></trkpt><trkpt lat="43.4987067" lon="11.9767695"><ele>756.0</ele><time>2026-04-04T09:17:07.313Z</time></trkpt><trkpt lat="43.4987383" lon="11.9766716"><ele>756.0</ele><time>2026-04-04T09:17:08.314Z</time></trkpt><trkpt lat="43.4987956" lon="11.9765423"><ele>756.0</ele><time>2026-04-04T09:17:10.313Z</time></trkpt><trkpt lat="43.4988564" lon="11.9763882"><ele>756.0</ele><time>2026-04-04T09:17:12.314Z</time></trkpt><trkpt lat="43.4989081" lon="11.9763285"><ele>756.0</ele><time>2026-04-04T09:17:13.314Z</time></trkpt><trkpt lat="43.4990049" lon="11.9762541"><ele>756.0</ele><time>2026-04-04T09:17:15.314Z</time></trkpt><trkpt lat="43.4990537" lon="11.9761923"><ele>756.0</ele><time>2026-04-04T09:17:16.313Z</time></trkpt><trkpt lat="43.4991464" lon="11.9760994"><ele>756.0</ele><time>2026-04-04T09:17:18.315Z</time></trkpt><trkpt lat="43.4991992" lon="11.9760508"><ele>756.0</ele><time>2026-04-04T09:17:19.314Z</time></trkpt><trkpt lat="43.4992966" lon="11.9759809"><ele>756.0</ele><time>2026-04-04T09:17:21.314Z</time></trkpt><trkpt lat="43.4993822" lon="11.9759061"><ele>756.0</ele><time>2026-04-04T09:17:23.314Z</time></trkpt><trkpt lat="43.4994764" lon="11.9758349"><ele>756.0</ele><time>2026-04-04T09:17:25.314Z</time></trkpt><trkpt lat="43.4995606" lon="11.975784"><ele>754.0</ele><time>2026-04-04T09:17:27.314Z</time></trkpt><trkpt lat="43.4996246" lon="11.9757169"><ele>752.0</ele><time>2026-04-04T09:17:28.314Z</time></trkpt><trkpt lat="43.4996679" lon="11.9757914"><ele>750.0</ele><time>2026-04-04T09:17:29.314Z</time></trkpt><trkpt lat="43.4997339" lon="11.9757923"><ele>748.0</ele><time>2026-04-04T09:17:30.314Z</time></trkpt><trkpt lat="43.4998109" lon="11.9757767"><ele>746.0</ele><time>2026-04-04T09:17:32.314Z</time></trkpt><trkpt lat="43.4998736" lon="11.9757672"><ele>744.0</ele><time>2026-04-04T09:17:34.314Z</time></trkpt><trkpt lat="43.4999668" lon="11.9757658"><ele>744.0</ele><time>2026-04-04T09:17:36.314Z</time></trkpt><trkpt lat="43.5000355" lon="11.9758138"><ele>744.0</ele><time>2026-04-04T09:17:38.313Z</time></trkpt><trkpt lat="43.5001115" lon="11.9758654"><ele>744.0</ele><time>2026-04-04T09:17:40.314Z</time></trkpt><trkpt lat="43.5001604" lon="11.9759577"><ele>744.0</ele><time>2026-04-04T09:17:42.314Z</time></trkpt><trkpt lat="43.5002314" lon="11.9760565"><ele>744.0</ele><time>2026-04-04T09:17:44.314Z</time></trkpt><trkpt lat="43.50028" lon="11.9761543"><ele>744.0</ele><time>2026-04-04T09:17:46.313Z</time></trkpt><trkpt lat="43.500322" lon="11.9762511"><ele>747.4000000000001</ele><time>2026-04-04T09:17:48.314Z</time></trkpt><trkpt lat="43.5003835" lon="11.976329"><ele>750.8</ele><time>2026-04-04T09:17:51.313Z</time></trkpt><trkpt lat="43.5004765" lon="11.9764065"><ele>754.2</ele><time>2026-04-04T09:17:53.314Z</time></trkpt><trkpt lat="43.5005193" lon="11.9765203"><ele>757.5999999999999</ele><time>2026-04-04T09:17:55.314Z</time></trkpt><trkpt lat="43.5006107" lon="11.9765989"><ele>761.0</ele><time>2026-04-04T09:17:57.314Z</time></trkpt><trkpt lat="43.5006976" lon="11.9766416"><ele>761.0</ele><time>2026-04-04T09:17:59.313Z</time></trkpt><trkpt lat="43.5007757" lon="11.9766431"><ele>761.0</ele><time>2026-04-04T09:18:00.314Z</time></trkpt><trkpt lat="43.5008464" lon="11.9767194"><ele>761.0</ele><time>2026-04-04T09:18:03.315Z</time></trkpt><trkpt lat="43.5009431" lon="11.9767518"><ele>761.0</ele><time>2026-04-04T09:18:04.315Z</time></trkpt><trkpt lat="43.5010185" lon="11.9767566"><ele>761.0</ele><time>2026-04-04T09:18:06.315Z</time></trkpt><trkpt lat="43.5010847" lon="11.9767144"><ele>761.0</ele><time>2026-04-04T09:18:08.314Z</time></trkpt><trkpt lat="43.501157" lon="11.9766708"><ele>761.0</ele><time>2026-04-04T09:18:10.315Z</time></trkpt><trkpt lat="43.501238" lon="11.9766278"><ele>761.0</ele><time>2026-04-04T09:18:12.315Z</time></trkpt><trkpt lat="43.5013206" lon="11.9765715"><ele>761.0</ele><time>2026-04-04T09:18:14.315Z</time></trkpt><trkpt lat="43.5014048" lon="11.9764885"><ele>761.0</ele><time>2026-04-04T09:18:16.315Z</time></trkpt><trkpt lat="43.5015023" lon="11.9764232"><ele>761.0</ele><time>2026-04-04T09:18:18.315Z</time></trkpt><trkpt lat="43.5016179" lon="11.9763858"><ele>761.5999999999999</ele><time>2026-04-04T09:18:20.315Z</time></trkpt><trkpt lat="43.5017434" lon="11.9763631"><ele>762.2</ele><time>2026-04-04T09:18:22.314Z</time></trkpt><trkpt lat="43.5018699" lon="11.9763531"><ele>762.8</ele><time>2026-04-04T09:18:24.315Z</time></trkpt><trkpt lat="43.5019377" lon="11.9763439"><ele>763.4000000000001</ele><time>2026-04-04T09:18:25.315Z</time></trkpt><trkpt lat="43.5020014" lon="11.9763502"><ele>764.0</ele><time>2026-04-04T09:18:26.315Z</time></trkpt><trkpt lat="43.5020725" lon="11.9763589"><ele>763.1666666666666</ele><time>2026-04-04T09:18:27.314Z</time></trkpt><trkpt lat="43.5021442" lon="11.9763664"><ele>762.3333333333333</ele><time>2026-04-04T09:18:28.315Z</time></trkpt><trkpt lat="43.5022167" lon="11.9763765"><ele>761.5</ele><time>2026-04-04T09:18:29.315Z</time></trkpt><trkpt lat="43.5022872" lon="11.9763972"><ele>760.6666666666666</ele><time>2026-04-04T09:18:30.315Z</time></trkpt><trkpt lat="43.5023626" lon="11.9764181"><ele>759.8333333333334</ele><time>2026-04-04T09:18:31.315Z</time></trkpt><trkpt lat="43.5024405" lon="11.9764464"><ele>759.0</ele><time>2026-04-04T09:18:32.315Z</time></trkpt><trkpt lat="43.502517" lon="11.9764776"><ele>759.0</ele><time>2026-04-04T09:18:33.315Z</time></trkpt><trkpt lat="43.5025941" lon="11.9765151"><ele>759.0</ele><time>2026-04-04T09:18:34.315Z</time></trkpt><trkpt lat="43.5026648" lon="11.9765644"><ele>759.0</ele><time>2026-04-04T09:18:35.316Z</time></trkpt><trkpt lat="43.5027375" lon="11.9766292"><ele>759.0</ele><time>2026-04-04T09:18:36.315Z</time></trkpt><trkpt lat="43.5028069" lon="11.9767001"><ele>759.0</ele><time>2026-04-04T09:18:37.315Z</time></trkpt><trkpt lat="43.5028714" lon="11.9767736"><ele>759.0</ele><time>2026-04-04T09:18:38.315Z</time></trkpt><trkpt lat="43.5029215" lon="11.9768507"><ele>760.3333333333334</ele><time>2026-04-04T09:18:39.315Z</time></trkpt><trkpt lat="43.5029715" lon="11.976926"><ele>761.6666666666666</ele><time>2026-04-04T09:18:40.315Z</time></trkpt><trkpt lat="43.5030193" lon="11.9769996"><ele>763.0</ele><time>2026-04-04T09:18:41.314Z</time></trkpt><trkpt lat="43.5030775" lon="11.9770481"><ele>764.3333333333333</ele><time>2026-04-04T09:18:42.315Z</time></trkpt><trkpt lat="43.5031923" lon="11.9770691"><ele>765.6666666666666</ele><time>2026-04-04T09:18:44.314Z</time></trkpt><trkpt lat="43.5032516" lon="11.9770211"><ele>767.0</ele><time>2026-04-04T09:18:45.315Z</time></trkpt><trkpt lat="43.5033271" lon="11.9770025"><ele>767.0</ele><time>2026-04-04T09:18:46.315Z</time></trkpt><trkpt lat="43.5034442" lon="11.9770108"><ele>767.0</ele><time>2026-04-04T09:18:48.315Z</time></trkpt><trkpt lat="43.5035163" lon="11.9770405"><ele>767.0</ele><time>2026-04-04T09:18:49.315Z</time></trkpt><trkpt lat="43.5035864" lon="11.9770899"><ele>767.0</ele><time>2026-04-04T09:18:50.315Z</time></trkpt><trkpt lat="43.5036617" lon="11.9771426"><ele>767.0</ele><time>2026-04-04T09:18:51.316Z</time></trkpt><trkpt lat="43.503738" lon="11.9771912"><ele>767.0</ele><time>2026-04-04T09:18:52.315Z</time></trkpt><trkpt lat="43.5038058" lon="11.9772455"><ele>767.5</ele><time>2026-04-04T09:18:53.315Z</time></trkpt><trkpt lat="43.5038848" lon="11.9773015"><ele>768.0</ele><time>2026-04-04T09:18:54.315Z</time></trkpt><trkpt lat="43.5039643" lon="11.9773548"><ele>768.5</ele><time>2026-04-04T09:18:55.315Z</time></trkpt><trkpt lat="43.5040347" lon="11.9774048"><ele>769.0</ele><time>2026-04-04T09:18:56.315Z</time></trkpt><trkpt lat="43.5041203" lon="11.9774594"><ele>769.5000000000001</ele><time>2026-04-04T09:18:57.315Z</time></trkpt><trkpt lat="43.50419" lon="11.977507"><ele>770.0</ele><time>2026-04-04T09:18:58.315Z</time></trkpt><trkpt lat="43.5042681" lon="11.9775492"><ele>770.0000000000001</ele><time>2026-04-04T09:18:59.316Z</time></trkpt><trkpt lat="43.5043413" lon="11.9775855"><ele>770.0</ele><time>2026-04-04T09:19:00.315Z</time></trkpt><trkpt lat="43.5044172" lon="11.9776267"><ele>770.0</ele><time>2026-04-04T09:19:01.315Z</time></trkpt><trkpt lat="43.5044895" lon="11.9776694"><ele>770.0</ele><time>2026-04-04T09:19:02.315Z</time></trkpt><trkpt lat="43.5045539" lon="11.9777206"><ele>770.0000000000001</ele><time>2026-04-04T09:19:03.315Z</time></trkpt><trkpt lat="43.5046168" lon="11.9777921"><ele>770.0</ele><time>2026-04-04T09:19:04.315Z</time></trkpt><trkpt lat="43.5046753" lon="11.9778628"><ele>768.0</ele><time>2026-04-04T09:19:05.315Z</time></trkpt><trkpt lat="43.5047349" lon="11.9779323"><ele>766.0</ele><time>2026-04-04T09:19:06.314Z</time></trkpt><trkpt lat="43.5047932" lon="11.9780052"><ele>764.0</ele><time>2026-04-04T09:19:07.314Z</time></trkpt><trkpt lat="43.5048981" lon="11.9780845"><ele>762.0</ele><time>2026-04-04T09:19:09.315Z</time></trkpt><trkpt lat="43.505007" lon="11.9780663"><ele>760.0</ele><time>2026-04-04T09:19:11.315Z</time></trkpt><trkpt lat="43.5050653" lon="11.9780298"><ele>760.0</ele><time>2026-04-04T09:19:12.315Z</time></trkpt><trkpt lat="43.5051152" lon="11.9779488"><ele>760.0</ele><time>2026-04-04T09:19:13.315Z</time></trkpt><trkpt lat="43.5051639" lon="11.9778551"><ele>760.0</ele><time>2026-04-04T09:19:14.315Z</time></trkpt><trkpt lat="43.5052085" lon="11.9777493"><ele>760.0</ele><time>2026-04-04T09:19:15.315Z</time></trkpt><trkpt lat="43.5052486" lon="11.9776468"><ele>760.0</ele><time>2026-04-04T09:19:16.314Z</time></trkpt><trkpt lat="43.5053616" lon="11.9774645"><ele>760.7142857142858</ele><time>2026-04-04T09:19:18.315Z</time></trkpt><trkpt lat="43.5054252" lon="11.977393"><ele>761.4285714285714</ele><time>2026-04-04T09:19:19.315Z</time></trkpt><trkpt lat="43.505488" lon="11.9773335"><ele>762.1428571428571</ele><time>2026-04-04T09:19:20.314Z</time></trkpt><trkpt lat="43.5055535" lon="11.9772952"><ele>762.8571428571429</ele><time>2026-04-04T09:19:21.314Z</time></trkpt><trkpt lat="43.5056248" lon="11.9772612"><ele>763.5714285714286</ele><time>2026-04-04T09:19:22.315Z</time></trkpt><trkpt lat="43.5056928" lon="11.9772239"><ele>764.2857142857143</ele><time>2026-04-04T09:19:23.314Z</time></trkpt><trkpt lat="43.5057495" lon="11.9771683"><ele>765.0</ele><time>2026-04-04T09:19:24.315Z</time></trkpt><trkpt lat="43.5058007" lon="11.9771033"><ele>765.0</ele><time>2026-04-04T09:19:25.315Z</time></trkpt><trkpt lat="43.5058213" lon="11.976989"><ele>765.0</ele><time>2026-04-04T09:19:26.315Z</time></trkpt><trkpt lat="43.5058379" lon="11.9768825"><ele>765.0</ele><time>2026-04-04T09:19:27.315Z</time></trkpt><trkpt lat="43.5058736" lon="11.9767947"><ele>765.0</ele><time>2026-04-04T09:19:28.315Z</time></trkpt><trkpt lat="43.5059056" lon="11.9767115"><ele>765.0</ele><time>2026-04-04T09:19:29.315Z</time></trkpt><trkpt lat="43.5059351" lon="11.9766328"><ele>765.0</ele><time>2026-04-04T09:19:30.314Z</time></trkpt><trkpt lat="43.506018" lon="11.9765284"><ele>763.25</ele><time>2026-04-04T09:19:32.315Z</time></trkpt><trkpt lat="43.5061179" lon="11.9764607"><ele>761.5</ele><time>2026-04-04T09:19:34.315Z</time></trkpt><trkpt lat="43.5062231" lon="11.976392"><ele>759.75</ele><time>2026-04-04T09:19:36.315Z</time></trkpt><trkpt lat="43.5063378" lon="11.9763258"><ele>758.0</ele><time>2026-04-04T09:19:38.315Z</time></trkpt><trkpt lat="43.506438" lon="11.9762397"><ele>757.5</ele><time>2026-04-04T09:19:40.315Z</time></trkpt><trkpt lat="43.5065015" lon="11.9761928"><ele>757.0</ele><time>2026-04-04T09:19:41.315Z</time></trkpt><trkpt lat="43.5065492" lon="11.9761342"><ele>756.5</ele><time>2026-04-04T09:19:42.315Z</time></trkpt><trkpt lat="43.5066092" lon="11.9760576"><ele>756.0</ele><time>2026-04-04T09:19:44.314Z</time></trkpt><trkpt lat="43.5066471" lon="11.9759528"><ele>755.5</ele><time>2026-04-04T09:19:46.315Z</time></trkpt><trkpt lat="43.5066683" lon="11.9757883"><ele>755.0</ele><time>2026-04-04T09:19:48.315Z</time></trkpt><trkpt lat="43.5066839" lon="11.9756951"><ele>753.8</ele><time>2026-04-04T09:19:49.315Z</time></trkpt><trkpt lat="43.5067062" lon="11.975529"><ele>752.6</ele><time>2026-04-04T09:19:51.314Z</time></trkpt><trkpt lat="43.5067107" lon="11.975434"><ele>751.4000000000001</ele><time>2026-04-04T09:19:52.314Z</time></trkpt><trkpt lat="43.5067271" lon="11.9753319"><ele>750.2</ele><time>2026-04-04T09:19:53.316Z</time></trkpt><trkpt lat="43.5067398" lon="11.9752349"><ele>749.0</ele><time>2026-04-04T09:19:54.315Z</time></trkpt><trkpt lat="43.5067499" lon="11.975074"><ele>747.6</ele><time>2026-04-04T09:19:56.315Z</time></trkpt><trkpt lat="43.5067535" lon="11.9749786"><ele>746.2</ele><time>2026-04-04T09:19:57.314Z</time></trkpt><trkpt lat="43.5067606" lon="11.9748078"><ele>744.8000000000001</ele><time>2026-04-04T09:19:59.315Z</time></trkpt><trkpt lat="43.5068506" lon="11.9747157"><ele>743.4000000000001</ele><time>2026-04-04T09:20:01.315Z</time></trkpt><trkpt lat="43.5069543" lon="11.9746511"><ele>742.0</ele><time>2026-04-04T09:20:03.315Z</time></trkpt><trkpt lat="43.5070597" lon="11.9746067"><ele>740.6</ele><time>2026-04-04T09:20:05.315Z</time></trkpt><trkpt lat="43.5071722" lon="11.9746199"><ele>739.2</ele><time>2026-04-04T09:20:07.315Z</time></trkpt><trkpt lat="43.5072942" lon="11.9746665"><ele>737.8</ele><time>2026-04-04T09:20:09.314Z</time></trkpt><trkpt lat="43.5073593" lon="11.9746994"><ele>736.4</ele><time>2026-04-04T09:20:10.315Z</time></trkpt><trkpt lat="43.5074211" lon="11.9747295"><ele>735.0</ele><time>2026-04-04T09:20:11.315Z</time></trkpt><trkpt lat="43.5075423" lon="11.9747966"><ele>735.0</ele><time>2026-04-04T09:20:13.315Z</time></trkpt><trkpt lat="43.507606" lon="11.9748396"><ele>735.0</ele><time>2026-04-04T09:20:14.315Z</time></trkpt><trkpt lat="43.5076681" lon="11.9748759"><ele>735.0</ele><time>2026-04-04T09:20:15.315Z</time></trkpt><trkpt lat="43.5077246" lon="11.9749146"><ele>735.0</ele><time>2026-04-04T09:20:16.315Z</time></trkpt><trkpt lat="43.5077847" lon="11.9749497"><ele>735.0</ele><time>2026-04-04T09:20:17.315Z</time></trkpt><trkpt lat="43.5078825" lon="11.9750171"><ele>735.0</ele><time>2026-04-04T09:20:19.315Z</time></trkpt><trkpt lat="43.5079977" lon="11.9750867"><ele>732.8</ele><time>2026-04-04T09:20:21.315Z</time></trkpt><trkpt lat="43.5080568" lon="11.9751213"><ele>730.6</ele><time>2026-04-04T09:20:22.315Z</time></trkpt><trkpt lat="43.50816" lon="11.9751869"><ele>728.4000000000001</ele><time>2026-04-04T09:20:24.315Z</time></trkpt><trkpt lat="43.5082495" lon="11.9752414"><ele>726.2</ele><time>2026-04-04T09:20:26.315Z</time></trkpt><trkpt lat="43.5083451" lon="11.9752645"><ele>724.0</ele><time>2026-04-04T09:20:28.314Z</time></trkpt><trkpt lat="43.5084512" lon="11.9752421"><ele>724.0</ele><time>2026-04-04T09:20:30.315Z</time></trkpt><trkpt lat="43.5085563" lon="11.9751589"><ele>724.0</ele><time>2026-04-04T09:20:32.315Z</time></trkpt><trkpt lat="43.508619" lon="11.9751142"><ele>724.0</ele><time>2026-04-04T09:20:33.315Z</time></trkpt><trkpt lat="43.5086821" lon="11.9750968"><ele>724.0</ele><time>2026-04-04T09:20:34.315Z</time></trkpt><trkpt lat="43.5087585" lon="11.9750328"><ele>724.0</ele><time>2026-04-04T09:20:36.315Z</time></trkpt><trkpt lat="43.5088206" lon="11.9749963"><ele>724.0</ele><time>2026-04-04T09:20:38.315Z</time></trkpt><trkpt lat="43.5088707" lon="11.9748936"><ele>723.8000000000001</ele><time>2026-04-04T09:20:41.315Z</time></trkpt><trkpt lat="43.5088632" lon="11.9747841"><ele>723.6</ele><time>2026-04-04T09:20:43.314Z</time></trkpt><trkpt lat="43.5088293" lon="11.9746759"><ele>723.4</ele><time>2026-04-04T09:20:45.315Z</time></trkpt><trkpt lat="43.5087874" lon="11.9745474"><ele>723.2</ele><time>2026-04-04T09:20:47.315Z</time></trkpt><trkpt lat="43.5087513" lon="11.9744604"><ele>723.0</ele><time>2026-04-04T09:20:48.315Z</time></trkpt><trkpt lat="43.5086761" lon="11.9742953"><ele>722.6666666666666</ele><time>2026-04-04T09:20:50.315Z</time></trkpt><trkpt lat="43.5086201" lon="11.9742029"><ele>722.3333333333334</ele><time>2026-04-04T09:20:51.315Z</time></trkpt><trkpt lat="43.508557" lon="11.9741188"><ele>722.0</ele><time>2026-04-04T09:20:52.315Z</time></trkpt><trkpt lat="43.5085277" lon="11.9740393"><ele>721.6666666666667</ele><time>2026-04-04T09:20:53.314Z</time></trkpt><trkpt lat="43.5084863" lon="11.9739678"><ele>721.3333333333334</ele><time>2026-04-04T09:20:54.315Z</time></trkpt><trkpt lat="43.5084584" lon="11.9738769"><ele>721.0</ele><time>2026-04-04T09:20:55.315Z</time></trkpt><trkpt lat="43.5084138" lon="11.9737709"><ele>721.0</ele><time>2026-04-04T09:20:56.315Z</time></trkpt><trkpt lat="43.5083516" lon="11.9737095"><ele>721.0</ele><time>2026-04-04T09:20:57.315Z</time></trkpt><trkpt lat="43.5082902" lon="11.9736349"><ele>721.0</ele><time>2026-04-04T09:20:58.315Z</time></trkpt><trkpt lat="43.5082391" lon="11.9735522"><ele>721.0</ele><time>2026-04-04T09:20:59.315Z</time></trkpt><trkpt lat="43.5081752" lon="11.9734741"><ele>721.0</ele><time>2026-04-04T09:21:00.315Z</time></trkpt><trkpt lat="43.5081227" lon="11.9733797"><ele>721.0</ele><time>2026-04-04T09:21:01.316Z</time></trkpt><trkpt lat="43.508063" lon="11.9732931"><ele>721.5</ele><time>2026-04-04T09:21:02.314Z</time></trkpt><trkpt lat="43.5080024" lon="11.9732127"><ele>722.0</ele><time>2026-04-04T09:21:03.315Z</time></trkpt><trkpt lat="43.5079445" lon="11.9731313"><ele>722.5</ele><time>2026-04-04T09:21:04.315Z</time></trkpt><trkpt lat="43.507889" lon="11.9730699"><ele>723.0</ele><time>2026-04-04T09:21:05.315Z</time></trkpt><trkpt lat="43.5078083" lon="11.9729994"><ele>723.5</ele><time>2026-04-04T09:21:07.314Z</time></trkpt><trkpt lat="43.5077193" lon="11.9729309"><ele>724.0</ele><time>2026-04-04T09:21:09.315Z</time></trkpt><trkpt lat="43.5076274" lon="11.9728138"><ele>721.8333333333334</ele><time>2026-04-04T09:21:11.314Z</time></trkpt><trkpt lat="43.5075737" lon="11.9727373"><ele>719.6666666666667</ele><time>2026-04-04T09:21:12.315Z</time></trkpt><trkpt lat="43.5074938" lon="11.9726249"><ele>717.5</ele><time>2026-04-04T09:21:14.316Z</time></trkpt><trkpt lat="43.5074759" lon="11.972531"><ele>715.3333333333334</ele><time>2026-04-04T09:21:15.315Z</time></trkpt><trkpt lat="43.5074683" lon="11.9724275"><ele>713.1666666666666</ele><time>2026-04-04T09:21:16.315Z</time></trkpt><trkpt lat="43.507461" lon="11.972306"><ele>711.0</ele><time>2026-04-04T09:21:17.315Z</time></trkpt><trkpt lat="43.5074596" lon="11.9722017"><ele>710.5</ele><time>2026-04-04T09:21:18.315Z</time></trkpt><trkpt lat="43.5074566" lon="11.9720816"><ele>710.0</ele><time>2026-04-04T09:21:19.315Z</time></trkpt><trkpt lat="43.5074703" lon="11.9719838"><ele>709.5</ele><time>2026-04-04T09:21:20.315Z</time></trkpt><trkpt lat="43.5074826" lon="11.9718667"><ele>709.0</ele><time>2026-04-04T09:21:21.314Z</time></trkpt><trkpt lat="43.5074962" lon="11.9717365"><ele>708.5</ele><time>2026-04-04T09:21:22.315Z</time></trkpt><trkpt lat="43.5075093" lon="11.9716212"><ele>708.0</ele><time>2026-04-04T09:21:23.315Z</time></trkpt><trkpt lat="43.5075275" lon="11.9715127"><ele>707.4285714285714</ele><time>2026-04-04T09:21:24.315Z</time></trkpt><trkpt lat="43.507554" lon="11.9714083"><ele>706.8571428571428</ele><time>2026-04-04T09:21:25.315Z</time></trkpt><trkpt lat="43.5075809" lon="11.971313"><ele>706.2857142857142</ele><time>2026-04-04T09:21:26.314Z</time></trkpt><trkpt lat="43.5076022" lon="11.9712159"><ele>705.7142857142858</ele><time>2026-04-04T09:21:27.314Z</time></trkpt><trkpt lat="43.5076316" lon="11.9711276"><ele>705.1428571428571</ele><time>2026-04-04T09:21:28.315Z</time></trkpt><trkpt lat="43.5076547" lon="11.9710373"><ele>704.5714285714286</ele><time>2026-04-04T09:21:29.315Z</time></trkpt><trkpt lat="43.507674" lon="11.9709472"><ele>704.0</ele><time>2026-04-04T09:21:30.315Z</time></trkpt><trkpt lat="43.507691" lon="11.9708567"><ele>702.5</ele><time>2026-04-04T09:21:31.315Z</time></trkpt><trkpt lat="43.5077094" lon="11.9707546"><ele>701.0</ele><time>2026-04-04T09:21:32.315Z</time></trkpt><trkpt lat="43.5077297" lon="11.9706518"><ele>699.5</ele><time>2026-04-04T09:21:33.315Z</time></trkpt><trkpt lat="43.5077658" lon="11.9705095"><ele>698.0</ele><time>2026-04-04T09:21:35.315Z</time></trkpt><trkpt lat="43.5078144" lon="11.970418"><ele>696.5</ele><time>2026-04-04T09:21:37.315Z</time></trkpt><trkpt lat="43.5078482" lon="11.9703412"><ele>695.0</ele><time>2026-04-04T09:21:39.315Z</time></trkpt><trkpt lat="43.5078703" lon="11.9702598"><ele>695.0</ele><time>2026-04-04T09:21:41.315Z</time></trkpt><trkpt lat="43.5078479" lon="11.9701644"><ele>695.0</ele><time>2026-04-04T09:21:43.315Z</time></trkpt><trkpt lat="43.5077865" lon="11.9701347"><ele>695.0</ele><time>2026-04-04T09:21:45.314Z</time></trkpt><trkpt lat="43.5077048" lon="11.9700817"><ele>695.0</ele><time>2026-04-04T09:21:47.315Z</time></trkpt><trkpt lat="43.5076225" lon="11.9700207"><ele>695.0</ele><time>2026-04-04T09:21:49.316Z</time></trkpt><trkpt lat="43.5075648" lon="11.9699431"><ele>695.0</ele><time>2026-04-04T09:21:50.315Z</time></trkpt><trkpt lat="43.5075214" lon="11.969801"><ele>692.6666666666666</ele><time>2026-04-04T09:21:52.315Z</time></trkpt><trkpt lat="43.5075035" lon="11.9697096"><ele>690.3333333333333</ele><time>2026-04-04T09:21:53.315Z</time></trkpt><trkpt lat="43.5074747" lon="11.9696022"><ele>688.0</ele><time>2026-04-04T09:21:56.314Z</time></trkpt><trkpt lat="43.5074165" lon="11.9694722"><ele>685.6666666666666</ele><time>2026-04-04T09:21:58.315Z</time></trkpt><trkpt lat="43.5073772" lon="11.9693625"><ele>683.3333333333334</ele><time>2026-04-04T09:22:00.314Z</time></trkpt><trkpt lat="43.5073489" lon="11.9692733"><ele>681.0</ele><time>2026-04-04T09:22:02.314Z</time></trkpt><trkpt lat="43.5072956" lon="11.9691616"><ele>678.0</ele><time>2026-04-04T09:22:05.315Z</time></trkpt><trkpt lat="43.50722" lon="11.9690492"><ele>675.0</ele><time>2026-04-04T09:22:07.315Z</time></trkpt><trkpt lat="43.5071466" lon="11.9689576"><ele>672.0</ele><time>2026-04-04T09:22:09.315Z</time></trkpt><trkpt lat="43.5071064" lon="11.968888"><ele>669.0</ele><time>2026-04-04T09:22:10.315Z</time></trkpt><trkpt lat="43.507082" lon="11.9687555"><ele>666.0</ele><time>2026-04-04T09:22:12.315Z</time></trkpt><trkpt lat="43.5070871" lon="11.9685744"><ele>666.0</ele><time>2026-04-04T09:22:14.315Z</time></trkpt><trkpt lat="43.5070802" lon="11.9684856"><ele>666.0</ele><time>2026-04-04T09:22:15.315Z</time></trkpt><trkpt lat="43.5070632" lon="11.9683922"><ele>666.0</ele><time>2026-04-04T09:22:16.315Z</time></trkpt><trkpt lat="43.5069919" lon="11.968234"><ele>666.0</ele><time>2026-04-04T09:22:18.315Z</time></trkpt><trkpt lat="43.5069388" lon="11.9681477"><ele>666.0</ele><time>2026-04-04T09:22:19.315Z</time></trkpt><trkpt lat="43.5068974" lon="11.9680578"><ele>666.0</ele><time>2026-04-04T09:22:20.315Z</time></trkpt><trkpt lat="43.5068531" lon="11.9679915"><ele>663.4</ele><time>2026-04-04T09:22:21.315Z</time></trkpt><trkpt lat="43.5068159" lon="11.9679098"><ele>660.8</ele><time>2026-04-04T09:22:22.315Z</time></trkpt><trkpt lat="43.5067209" lon="11.9677898"><ele>658.1999999999999</ele><time>2026-04-04T09:22:24.315Z</time></trkpt><trkpt lat="43.5066543" lon="11.9677601"><ele>655.5999999999999</ele><time>2026-04-04T09:22:25.315Z</time></trkpt><trkpt lat="43.5065718" lon="11.9676508"><ele>653.0</ele><time>2026-04-04T09:22:27.314Z</time></trkpt><trkpt lat="43.5065147" lon="11.9676005"><ele>653.3333333333333</ele><time>2026-04-04T09:22:28.315Z</time></trkpt><trkpt lat="43.5064637" lon="11.967523"><ele>653.6666666666666</ele><time>2026-04-04T09:22:29.315Z</time></trkpt><trkpt lat="43.506456" lon="11.9674285"><ele>654.0</ele><time>2026-04-04T09:22:30.315Z</time></trkpt><trkpt lat="43.5063805" lon="11.9672623"><ele>654.3333333333334</ele><time>2026-04-04T09:22:32.315Z</time></trkpt><trkpt lat="43.5063391" lon="11.9671777"><ele>654.6666666666667</ele><time>2026-04-04T09:22:33.315Z</time></trkpt><trkpt lat="43.5063157" lon="11.967071"><ele>655.0</ele><time>2026-04-04T09:22:35.314Z</time></trkpt><trkpt lat="43.5062415" lon="11.9669793"><ele>651.6666666666667</ele><time>2026-04-04T09:22:37.315Z</time></trkpt><trkpt lat="43.5061854" lon="11.9669152"><ele>648.3333333333334</ele><time>2026-04-04T09:22:39.315Z</time></trkpt><trkpt lat="43.5061028" lon="11.966877"><ele>645.0</ele><time>2026-04-04T09:22:42.315Z</time></trkpt><trkpt lat="43.5060388" lon="11.9667745"><ele>641.6666666666666</ele><time>2026-04-04T09:22:45.315Z</time></trkpt><trkpt lat="43.5059969" lon="11.9666624"><ele>638.3333333333333</ele><time>2026-04-04T09:22:47.316Z</time></trkpt><trkpt lat="43.505929" lon="11.9666083"><ele>635.0</ele><time>2026-04-04T09:22:49.315Z</time></trkpt><trkpt lat="43.5058256" lon="11.966585"><ele>634.6666666666666</ele><time>2026-04-04T09:22:52.315Z</time></trkpt><trkpt lat="43.5057987" lon="11.9664932"><ele>634.3333333333333</ele><time>2026-04-04T09:22:53.315Z</time></trkpt><trkpt lat="43.5057726" lon="11.9663673"><ele>634.0</ele><time>2026-04-04T09:22:55.315Z</time></trkpt><trkpt lat="43.5057703" lon="11.9662703"><ele>633.6666666666666</ele><time>2026-04-04T09:22:57.315Z</time></trkpt><trkpt lat="43.5057998" lon="11.9661436"><ele>633.3333333333334</ele><time>2026-04-04T09:23:00.315Z</time></trkpt><trkpt lat="43.5058324" lon="11.9660643"><ele>633.0</ele><time>2026-04-04T09:23:02.315Z</time></trkpt><trkpt lat="43.5058627" lon="11.9659805"><ele>633.0</ele><time>2026-04-04T09:23:04.314Z</time></trkpt><trkpt lat="43.5059209" lon="11.9658993"><ele>633.0</ele><time>2026-04-04T09:23:06.314Z</time></trkpt><trkpt lat="43.5059853" lon="11.9658692"><ele>633.0</ele><time>2026-04-04T09:23:08.315Z</time></trkpt><trkpt lat="43.5060517" lon="11.9658779"><ele>633.0</ele><time>2026-04-04T09:23:10.315Z</time></trkpt><trkpt lat="43.5061269" lon="11.9659001"><ele>633.0</ele><time>2026-04-04T09:23:12.315Z</time></trkpt><trkpt lat="43.5061984" lon="11.9659496"><ele>633.0</ele><time>2026-04-04T09:23:15.315Z</time></trkpt><trkpt lat="43.5062793" lon="11.9659895"><ele>633.8</ele><time>2026-04-04T09:23:17.315Z</time></trkpt><trkpt lat="43.5063792" lon="11.9660107"><ele>634.5999999999999</ele><time>2026-04-04T09:23:19.315Z</time></trkpt><trkpt lat="43.5064705" lon="11.9659986"><ele>635.4000000000001</ele><time>2026-04-04T09:23:22.316Z</time></trkpt><trkpt lat="43.5065711" lon="11.9659732"><ele>636.2</ele><time>2026-04-04T09:23:25.315Z</time></trkpt><trkpt lat="43.5066687" lon="11.9659543"><ele>637.0</ele><time>2026-04-04T09:23:26.315Z</time></trkpt><trkpt lat="43.5067203" lon="11.9658952"><ele>632.8333333333334</ele><time>2026-04-04T09:23:27.315Z</time></trkpt><trkpt lat="43.5067695" lon="11.9658313"><ele>628.6666666666667</ele><time>2026-04-04T09:23:28.315Z</time></trkpt><trkpt lat="43.5068347" lon="11.9657316"><ele>624.5</ele><time>2026-04-04T09:23:29.315Z</time></trkpt><trkpt lat="43.5069007" lon="11.9657288"><ele>620.3333333333334</ele><time>2026-04-04T09:23:30.316Z</time></trkpt><trkpt lat="43.5070062" lon="11.96568"><ele>616.1666666666666</ele><time>2026-04-04T09:23:32.315Z</time></trkpt><trkpt lat="43.5070434" lon="11.9655984"><ele>612.0</ele><time>2026-04-04T09:23:34.315Z</time></trkpt><trkpt lat="43.5070035" lon="11.9655"><ele>612.0</ele><time>2026-04-04T09:23:36.315Z</time></trkpt><trkpt lat="43.506961" lon="11.9654169"><ele>612.0</ele><time>2026-04-04T09:23:37.315Z</time></trkpt><trkpt lat="43.5068633" lon="11.9652944"><ele>612.0</ele><time>2026-04-04T09:23:39.315Z</time></trkpt><trkpt lat="43.5068509" lon="11.9651719"><ele>612.0</ele><time>2026-04-04T09:23:41.315Z</time></trkpt><trkpt lat="43.5068419" lon="11.9650456"><ele>612.0</ele><time>2026-04-04T09:23:43.316Z</time></trkpt><trkpt lat="43.5068442" lon="11.9649211"><ele>607.8000000000001</ele><time>2026-04-04T09:23:44.315Z</time></trkpt><trkpt lat="43.5068348" lon="11.9648089"><ele>603.6</ele><time>2026-04-04T09:23:45.315Z</time></trkpt><trkpt lat="43.5067777" lon="11.9646656"><ele>599.4000000000001</ele><time>2026-04-04T09:23:47.315Z</time></trkpt><trkpt lat="43.5067377" lon="11.9645832"><ele>595.2</ele><time>2026-04-04T09:23:48.315Z</time></trkpt><trkpt lat="43.5066858" lon="11.9645241"><ele>591.0</ele><time>2026-04-04T09:23:49.315Z</time></trkpt><trkpt lat="43.5066134" lon="11.9643722"><ele>591.0</ele><time>2026-04-04T09:23:51.314Z</time></trkpt><trkpt lat="43.5065894" lon="11.9642802"><ele>591.0</ele><time>2026-04-04T09:23:52.315Z</time></trkpt><trkpt lat="43.5064989" lon="11.9641612"><ele>591.0</ele><time>2026-04-04T09:23:54.315Z</time></trkpt><trkpt lat="43.5064483" lon="11.9640765"><ele>591.0</ele><time>2026-04-04T09:23:55.315Z</time></trkpt><trkpt lat="43.5063987" lon="11.9639999"><ele>591.0</ele><time>2026-04-04T09:23:56.315Z</time></trkpt><trkpt lat="43.5063482" lon="11.9639174"><ele>591.0</ele><time>2026-04-04T09:23:57.315Z</time></trkpt><trkpt lat="43.5063033" lon="11.9638505"><ele>589.4</ele><time>2026-04-04T09:23:58.315Z</time></trkpt><trkpt lat="43.5062607" lon="11.9637836"><ele>587.8</ele><time>2026-04-04T09:23:59.315Z</time></trkpt><trkpt lat="43.5061836" lon="11.9636851"><ele>586.1999999999999</ele><time>2026-04-04T09:24:01.315Z</time></trkpt><trkpt lat="43.5061282" lon="11.9635515"><ele>584.6</ele><time>2026-04-04T09:24:03.315Z</time></trkpt><trkpt lat="43.5060635" lon="11.9634048"><ele>583.0</ele><time>2026-04-04T09:24:05.315Z</time></trkpt><trkpt lat="43.506013" lon="11.9633494"><ele>581.1666666666667</ele><time>2026-04-04T09:24:07.315Z</time></trkpt><trkpt lat="43.5059572" lon="11.963233"><ele>579.3333333333334</ele><time>2026-04-04T09:24:09.315Z</time></trkpt><trkpt lat="43.50592" lon="11.9631483"><ele>577.5</ele><time>2026-04-04T09:24:10.314Z</time></trkpt><trkpt lat="43.5059312" lon="11.9630332"><ele>575.6666666666666</ele><time>2026-04-04T09:24:12.314Z</time></trkpt><trkpt lat="43.5059701" lon="11.9629534"><ele>573.8333333333333</ele><time>2026-04-04T09:24:14.315Z</time></trkpt><trkpt lat="43.506021" lon="11.9628601"><ele>572.0</ele><time>2026-04-04T09:24:16.315Z</time></trkpt><trkpt lat="43.506047" lon="11.9627557"><ele>572.0</ele><time>2026-04-04T09:24:18.315Z</time></trkpt><trkpt lat="43.5060237" lon="11.9626608"><ele>572.0</ele><time>2026-04-04T09:24:20.314Z</time></trkpt><trkpt lat="43.5059966" lon="11.9625607"><ele>572.0</ele><time>2026-04-04T09:24:22.315Z</time></trkpt><trkpt lat="43.5059837" lon="11.9624726"><ele>572.0</ele><time>2026-04-04T09:24:25.315Z</time></trkpt><trkpt lat="43.5059601" lon="11.9623689"><ele>572.0</ele><time>2026-04-04T09:24:29.314Z</time></trkpt><trkpt lat="43.5059135" lon="11.962294"><ele>572.0</ele><time>2026-04-04T09:24:31.315Z</time></trkpt><trkpt lat="43.5058626" lon="11.9621997"><ele>569.2</ele><time>2026-04-04T09:24:33.316Z</time></trkpt><trkpt lat="43.5058018" lon="11.9621276"><ele>566.4000000000001</ele><time>2026-04-04T09:24:35.315Z</time></trkpt><trkpt lat="43.5057116" lon="11.9620918"><ele>563.5999999999999</ele><time>2026-04-04T09:24:37.315Z</time></trkpt><trkpt lat="43.5056123" lon="11.962055"><ele>560.8</ele><time>2026-04-04T09:24:38.315Z</time></trkpt><trkpt lat="43.5054732" lon="11.9620911"><ele>558.0</ele><time>2026-04-04T09:24:40.315Z</time></trkpt><trkpt lat="43.5054157" lon="11.9621478"><ele>554.5</ele><time>2026-04-04T09:24:42.315Z</time></trkpt><trkpt lat="43.5053258" lon="11.9622228"><ele>551.0</ele><time>2026-04-04T09:24:44.315Z</time></trkpt><trkpt lat="43.5052709" lon="11.9622992"><ele>547.5</ele><time>2026-04-04T09:24:46.315Z</time></trkpt><trkpt lat="43.5052366" lon="11.9624082"><ele>544.0</ele><time>2026-04-04T09:24:48.315Z</time></trkpt><trkpt lat="43.5051907" lon="11.9624702"><ele>540.5</ele><time>2026-04-04T09:24:50.315Z</time></trkpt><trkpt lat="43.5051459" lon="11.9623957"><ele>537.0</ele><time>2026-04-04T09:24:53.316Z</time></trkpt><trkpt lat="43.5052365" lon="11.9622812"><ele>537.0</ele><time>2026-04-04T09:24:54.316Z</time></trkpt><trkpt lat="43.5052763" lon="11.9621598"><ele>537.0</ele><time>2026-04-04T09:24:56.315Z</time></trkpt><trkpt lat="43.5052925" lon="11.9620092"><ele>537.0</ele><time>2026-04-04T09:24:58.315Z</time></trkpt><trkpt lat="43.5053156" lon="11.9618838"><ele>537.0</ele><time>2026-04-04T09:24:59.315Z</time></trkpt><trkpt lat="43.5053539" lon="11.9617408"><ele>537.0</ele><time>2026-04-04T09:25:01.315Z</time></trkpt><trkpt lat="43.5053796" lon="11.9615985"><ele>535.1666666666666</ele><time>2026-04-04T09:25:03.314Z</time></trkpt><trkpt lat="43.5053564" lon="11.9615067"><ele>533.3333333333334</ele><time>2026-04-04T09:25:04.314Z</time></trkpt><trkpt lat="43.5052744" lon="11.9614218"><ele>531.5</ele><time>2026-04-04T09:25:06.315Z</time></trkpt><trkpt lat="43.5052294" lon="11.9613602"><ele>529.6666666666667</ele><time>2026-04-04T09:25:08.315Z</time></trkpt><trkpt lat="43.5052203" lon="11.9611912"><ele>527.8333333333334</ele><time>2026-04-04T09:25:10.315Z</time></trkpt><trkpt lat="43.5051996" lon="11.9610955"><ele>526.0</ele><time>2026-04-04T09:25:11.315Z</time></trkpt><trkpt lat="43.5051735" lon="11.9610145"><ele>526.0</ele><time>2026-04-04T09:25:12.315Z</time></trkpt><trkpt lat="43.5051309" lon="11.9608885"><ele>526.0</ele><time>2026-04-04T09:25:14.315Z</time></trkpt><trkpt lat="43.5051236" lon="11.9607596"><ele>526.0</ele><time>2026-04-04T09:25:16.314Z</time></trkpt><trkpt lat="43.5051411" lon="11.9606603"><ele>526.0</ele><time>2026-04-04T09:25:18.315Z</time></trkpt><trkpt lat="43.5051694" lon="11.9605659"><ele>526.0</ele><time>2026-04-04T09:25:19.315Z</time></trkpt><trkpt lat="43.5052118" lon="11.9606487"><ele>526.0</ele><time>2026-04-04T09:25:20.314Z</time></trkpt><trkpt lat="43.5052739" lon="11.9606722"><ele>525.0</ele><time>2026-04-04T09:25:22.315Z</time></trkpt><trkpt lat="43.5052844" lon="11.9605598"><ele>524.0</ele><time>2026-04-04T09:25:25.315Z</time></trkpt><trkpt lat="43.505228" lon="11.9604993"><ele>523.0</ele><time>2026-04-04T09:25:27.315Z</time></trkpt><trkpt lat="43.5051404" lon="11.9604743"><ele>522.0</ele><time>2026-04-04T09:25:29.315Z</time></trkpt><trkpt lat="43.5050579" lon="11.9604568"><ele>521.0</ele><time>2026-04-04T09:25:31.315Z</time></trkpt><trkpt lat="43.5049745" lon="11.9604383"><ele>520.0</ele><time>2026-04-04T09:25:33.315Z</time></trkpt><trkpt lat="43.5048891" lon="11.9604581"><ele>520.0</ele><time>2026-04-04T09:25:36.315Z</time></trkpt><trkpt lat="43.5047614" lon="11.9603956"><ele>520.0</ele><time>2026-04-04T09:25:38.315Z</time></trkpt><trkpt lat="43.5046708" lon="11.9604021"><ele>520.0</ele><time>2026-04-04T09:25:41.315Z</time></trkpt><trkpt lat="43.5046" lon="11.960463"><ele>520.0</ele><time>2026-04-04T09:25:43.314Z</time></trkpt><trkpt lat="43.5045251" lon="11.9605492"><ele>520.0</ele><time>2026-04-04T09:25:45.315Z</time></trkpt><trkpt lat="43.5045015" lon="11.960635"><ele>516.2</ele><time>2026-04-04T09:25:46.315Z</time></trkpt><trkpt lat="43.5045335" lon="11.9607106"><ele>512.4</ele><time>2026-04-04T09:25:47.315Z</time></trkpt><trkpt lat="43.5045231" lon="11.9608988"><ele>508.6</ele><time>2026-04-04T09:25:49.315Z</time></trkpt><trkpt lat="43.5044584" lon="11.9610235"><ele>504.8</ele><time>2026-04-04T09:25:51.315Z</time></trkpt><trkpt lat="43.5044026" lon="11.9611506"><ele>501.0</ele><time>2026-04-04T09:25:53.315Z</time></trkpt><trkpt lat="43.5043189" lon="11.961255"><ele>501.0</ele><time>2026-04-04T09:25:55.316Z</time></trkpt><trkpt lat="43.5042988" lon="11.9613855"><ele>501.0</ele><time>2026-04-04T09:25:57.314Z</time></trkpt><trkpt lat="43.5042225" lon="11.9615099"><ele>501.0</ele><time>2026-04-04T09:25:59.315Z</time></trkpt><trkpt lat="43.5041675" lon="11.9615596"><ele>501.0</ele><time>2026-04-04T09:26:01.315Z</time></trkpt><trkpt lat="43.5041261" lon="11.9614636"><ele>501.0</ele><time>2026-04-04T09:26:04.315Z</time></trkpt><trkpt lat="43.504111" lon="11.9613519"><ele>501.0</ele><time>2026-04-04T09:26:07.315Z</time></trkpt><trkpt lat="43.5041097" lon="11.9612087"><ele>501.0</ele><time>2026-04-04T09:26:09.315Z</time></trkpt><trkpt lat="43.5041147" lon="11.9610385"><ele>501.0</ele><time>2026-04-04T09:26:11.315Z</time></trkpt><trkpt lat="43.5041405" lon="11.9608756"><ele>501.0</ele><time>2026-04-04T09:26:12.315Z</time></trkpt><trkpt lat="43.5041554" lon="11.9606743"><ele>501.0</ele><time>2026-04-04T09:26:14.314Z</time></trkpt><trkpt lat="43.5041305" lon="11.9605281"><ele>499.0</ele><time>2026-04-04T09:26:16.315Z</time></trkpt><trkpt lat="43.504121" lon="11.9603452"><ele>497.0</ele><time>2026-04-04T09:26:18.315Z</time></trkpt><trkpt lat="43.5041251" lon="11.9602328"><ele>495.0</ele><time>2026-04-04T09:26:21.315Z</time></trkpt><trkpt lat="43.5041418" lon="11.9601268"><ele>493.0</ele><time>2026-04-04T09:26:23.315Z</time></trkpt><trkpt lat="43.504173" lon="11.9600138"><ele>491.0</ele><time>2026-04-04T09:26:25.315Z</time></trkpt><trkpt lat="43.5042066" lon="11.9599104"><ele>487.66666666666663</ele><time>2026-04-04T09:26:27.315Z</time></trkpt><trkpt lat="43.5042355" lon="11.95981"><ele>484.3333333333333</ele><time>2026-04-04T09:26:29.315Z</time></trkpt><trkpt lat="43.5042866" lon="11.9597238"><ele>481.0</ele><time>2026-04-04T09:26:32.315Z</time></trkpt><trkpt lat="43.5043308" lon="11.9596039"><ele>477.66666666666663</ele><time>2026-04-04T09:26:34.315Z</time></trkpt><trkpt lat="43.504355" lon="11.9595053"><ele>474.3333333333333</ele><time>2026-04-04T09:26:35.315Z</time></trkpt><trkpt lat="43.5043905" lon="11.9594271"><ele>471.0</ele><time>2026-04-04T09:26:36.314Z</time></trkpt><trkpt lat="43.5044507" lon="11.9593495"><ele>471.0</ele><time>2026-04-04T09:26:38.315Z</time></trkpt><trkpt lat="43.5045008" lon="11.9592844"><ele>471.0</ele><time>2026-04-04T09:26:40.315Z</time></trkpt><trkpt lat="43.5045491" lon="11.9591958"><ele>471.0</ele><time>2026-04-04T09:26:43.315Z</time></trkpt><trkpt lat="43.5046077" lon="11.9591575"><ele>471.0</ele><time>2026-04-04T09:26:45.315Z</time></trkpt><trkpt lat="43.504681" lon="11.9591069"><ele>471.0</ele><time>2026-04-04T09:26:47.314Z</time></trkpt><trkpt lat="43.5047569" lon="11.9590418"><ele>471.0</ele><time>2026-04-04T09:26:49.315Z</time></trkpt><trkpt lat="43.5048249" lon="11.958934"><ele>470.6666666666667</ele><time>2026-04-04T09:26:51.314Z</time></trkpt><trkpt lat="43.5048714" lon="11.9588339"><ele>470.33333333333337</ele><time>2026-04-04T09:26:52.314Z</time></trkpt><trkpt lat="43.5049151" lon="11.9587636"><ele>470.0</ele><time>2026-04-04T09:26:54.314Z</time></trkpt><trkpt lat="43.5049457" lon="11.9586814"><ele>469.6666666666667</ele><time>2026-04-04T09:26:56.315Z</time></trkpt><trkpt lat="43.5049587" lon="11.9585825"><ele>469.33333333333337</ele><time>2026-04-04T09:26:58.314Z</time></trkpt><trkpt lat="43.5049745" lon="11.958457"><ele>469.0</ele><time>2026-04-04T09:27:00.315Z</time></trkpt><trkpt lat="43.5049755" lon="11.9583652"><ele>465.83333333333337</ele><time>2026-04-04T09:27:02.315Z</time></trkpt><trkpt lat="43.5048753" lon="11.958338"><ele>462.6666666666667</ele><time>2026-04-04T09:27:04.315Z</time></trkpt><trkpt lat="43.5047873" lon="11.958306"><ele>459.5</ele><time>2026-04-04T09:27:06.314Z</time></trkpt><trkpt lat="43.5047163" lon="11.9583162"><ele>456.33333333333337</ele><time>2026-04-04T09:27:08.315Z</time></trkpt><trkpt lat="43.5046444" lon="11.9583584"><ele>453.1666666666667</ele><time>2026-04-04T09:27:11.315Z</time></trkpt><trkpt lat="43.5045668" lon="11.9584133"><ele>450.0</ele><time>2026-04-04T09:27:15.315Z</time></trkpt><trkpt lat="43.5045045" lon="11.9584881"><ele>450.0</ele><time>2026-04-04T09:27:17.315Z</time></trkpt><trkpt lat="43.5044518" lon="11.9585536"><ele>450.0</ele><time>2026-04-04T09:27:19.315Z</time></trkpt><trkpt lat="43.5043953" lon="11.958614"><ele>450.0</ele><time>2026-04-04T09:27:22.315Z</time></trkpt><trkpt lat="43.5043379" lon="11.9586531"><ele>450.0</ele><time>2026-04-04T09:27:28.315Z</time></trkpt><trkpt lat="43.5042939" lon="11.9587179"><ele>450.0</ele><time>2026-04-04T09:27:33.314Z</time></trkpt><trkpt lat="43.5042069" lon="11.9587668"><ele>450.0</ele><time>2026-04-04T09:27:36.314Z</time></trkpt><trkpt lat="43.5041093" lon="11.9587612"><ele>450.0</ele><time>2026-04-04T09:27:38.315Z</time></trkpt><trkpt lat="43.5040098" lon="11.9587167"><ele>450.0</ele><time>2026-04-04T09:27:40.315Z</time></trkpt><trkpt lat="43.5039764" lon="11.9586157"><ele>450.0</ele><time>2026-04-04T09:27:45.315Z</time></trkpt><trkpt lat="43.5040297" lon="11.9583614"><ele>450.0</ele><time>2026-04-04T09:27:46.314Z</time></trkpt><trkpt lat="43.5040029" lon="11.9582438"><ele>447.8333333333333</ele><time>2026-04-04T09:27:48.315Z</time></trkpt><trkpt lat="43.5040062" lon="11.9581409"><ele>445.66666666666663</ele><time>2026-04-04T09:27:50.315Z</time></trkpt><trkpt lat="43.5040097" lon="11.9580467"><ele>443.5</ele><time>2026-04-04T09:27:52.315Z</time></trkpt><trkpt lat="43.5040377" lon="11.9579422"><ele>441.3333333333333</ele><time>2026-04-04T09:27:54.315Z</time></trkpt><trkpt lat="43.5041056" lon="11.9578604"><ele>439.16666666666663</ele><time>2026-04-04T09:27:56.315Z</time></trkpt><trkpt lat="43.5041675" lon="11.9577733"><ele>437.0</ele><time>2026-04-04T09:27:57.315Z</time></trkpt><trkpt lat="43.5042054" lon="11.9576909"><ele>436.99999999999994</ele><time>2026-04-04T09:27:58.315Z</time></trkpt><trkpt lat="43.5042453" lon="11.9576236"><ele>437.0</ele><time>2026-04-04T09:27:59.315Z</time></trkpt><trkpt lat="43.5042888" lon="11.9575144"><ele>437.0</ele><time>2026-04-04T09:28:00.314Z</time></trkpt><trkpt lat="43.5043255" lon="11.9574363"><ele>437.0</ele><time>2026-04-04T09:28:01.315Z</time></trkpt><trkpt lat="43.5043858" lon="11.9573028"><ele>436.99999999999994</ele><time>2026-04-04T09:28:03.315Z</time></trkpt><trkpt lat="43.5044294" lon="11.9572235"><ele>437.0</ele><time>2026-04-04T09:28:05.315Z</time></trkpt><trkpt lat="43.5044851" lon="11.9571492"><ele>436.49999999999994</ele><time>2026-04-04T09:28:07.315Z</time></trkpt><trkpt lat="43.5045491" lon="11.9571338"><ele>436.0</ele><time>2026-04-04T09:28:10.315Z</time></trkpt><trkpt lat="43.5046243" lon="11.9571222"><ele>435.5</ele><time>2026-04-04T09:28:13.315Z</time></trkpt><trkpt lat="43.5047135" lon="11.9570859"><ele>435.0</ele><time>2026-04-04T09:28:16.315Z</time></trkpt><trkpt lat="43.5048135" lon="11.9570665"><ele>434.49999999999994</ele><time>2026-04-04T09:28:18.314Z</time></trkpt><trkpt lat="43.5049179" lon="11.9570891"><ele>434.0</ele><time>2026-04-04T09:28:20.314Z</time></trkpt><trkpt lat="43.5049866" lon="11.9571291"><ele>433.49999999999994</ele><time>2026-04-04T09:28:22.315Z</time></trkpt><trkpt lat="43.5050642" lon="11.9571652"><ele>433.0</ele><time>2026-04-04T09:28:24.315Z</time></trkpt><trkpt lat="43.5051631" lon="11.9571834"><ele>432.5</ele><time>2026-04-04T09:28:26.315Z</time></trkpt><trkpt lat="43.5052362" lon="11.9572228"><ele>432.0</ele><time>2026-04-04T09:28:28.315Z</time></trkpt><trkpt lat="43.5053061" lon="11.9572801"><ele>431.49999999999994</ele><time>2026-04-04T09:28:30.315Z</time></trkpt><trkpt lat="43.5053798" lon="11.9573353"><ele>431.0</ele><time>2026-04-04T09:28:32.316Z</time></trkpt><trkpt lat="43.5054418" lon="11.9573642"><ele>430.49999999999994</ele><time>2026-04-04T09:28:35.314Z</time></trkpt><trkpt lat="43.5055333" lon="11.9573806"><ele>430.0</ele><time>2026-04-04T09:28:39.315Z</time></trkpt><trkpt lat="43.5056516" lon="11.9573532"><ele>429.5</ele><time>2026-04-04T09:28:41.314Z</time></trkpt><trkpt lat="43.5057261" lon="11.9573276"><ele>429.0</ele><time>2026-04-04T09:28:43.315Z</time></trkpt><trkpt lat="43.5057874" lon="11.9572949"><ele>428.49999999999994</ele><time>2026-04-04T09:28:46.314Z</time></trkpt><trkpt lat="43.5058447" lon="11.9572315"><ele>428.0</ele><time>2026-04-04T09:28:49.315Z</time></trkpt><trkpt lat="43.5059406" lon="11.9572678"><ele>427.99999999999994</ele><time>2026-04-04T09:28:54.315Z</time></trkpt><trkpt lat="43.5060171" lon="11.9572925"><ele>428.0</ele><time>2026-04-04T09:28:56.315Z</time></trkpt><trkpt lat="43.5061045" lon="11.9573126"><ele>428.0</ele><time>2026-04-04T09:29:38.314Z</time></trkpt><trkpt lat="43.5061738" lon="11.957276"><ele>428.0</ele><time>2026-04-04T09:29:42.315Z</time></trkpt><trkpt lat="43.5062435" lon="11.9572477"><ele>427.99999999999994</ele><time>2026-04-04T09:29:50.316Z</time></trkpt><trkpt lat="43.5063011" lon="11.957181"><ele>428.0</ele><time>2026-04-04T09:29:54.314Z</time></trkpt><trkpt lat="43.5063539" lon="11.9571112"><ele>428.49999999999994</ele><time>2026-04-04T09:29:57.315Z</time></trkpt><trkpt lat="43.5064489" lon="11.9570575"><ele>429.0</ele><time>2026-04-04T09:29:59.315Z</time></trkpt><trkpt lat="43.5065113" lon="11.957016"><ele>429.5</ele><time>2026-04-04T09:30:05.315Z</time></trkpt><trkpt lat="43.5065514" lon="11.9569482"><ele>430.0</ele><time>2026-04-04T09:30:08.315Z</time></trkpt><trkpt lat="43.5066139" lon="11.9568519"><ele>430.49999999999994</ele><time>2026-04-04T09:30:10.315Z</time></trkpt><trkpt lat="43.5067025" lon="11.9567528"><ele>431.0</ele><time>2026-04-04T09:30:12.315Z</time></trkpt><trkpt lat="43.5067725" lon="11.9567135"><ele>430.49999999999994</ele><time>2026-04-04T09:30:14.315Z</time></trkpt><trkpt lat="43.5068221" lon="11.9566423"><ele>430.0</ele><time>2026-04-04T09:30:16.314Z</time></trkpt><trkpt lat="43.506866" lon="11.9565644"><ele>429.5</ele><time>2026-04-04T09:30:18.315Z</time></trkpt><trkpt lat="43.5069241" lon="11.9564624"><ele>429.0</ele><time>2026-04-04T09:30:20.316Z</time></trkpt><trkpt lat="43.5069955" lon="11.9563625"><ele>428.49999999999994</ele><time>2026-04-04T09:30:22.315Z</time></trkpt><trkpt lat="43.5070649" lon="11.9562599"><ele>428.0</ele><time>2026-04-04T09:30:24.315Z</time></trkpt><trkpt lat="43.5071287" lon="11.9562114"><ele>428.0</ele><time>2026-04-04T09:30:26.316Z</time></trkpt><trkpt lat="43.507199" lon="11.9561763"><ele>427.99999999999994</ele><time>2026-04-04T09:30:28.315Z</time></trkpt><trkpt lat="43.5072772" lon="11.9562279"><ele>427.99999999999994</ele><time>2026-04-04T09:30:31.315Z</time></trkpt><trkpt lat="43.5073318" lon="11.9562779"><ele>428.0</ele><time>2026-04-04T09:30:33.316Z</time></trkpt><trkpt lat="43.507393" lon="11.9563176"><ele>428.0</ele><time>2026-04-04T09:30:34.317Z</time></trkpt><trkpt lat="43.5075392" lon="11.9564826"><ele>428.0</ele><time>2026-04-04T09:30:35.316Z</time></trkpt><trkpt lat="43.5076338" lon="11.9565145"><ele>428.0</ele><time>2026-04-04T09:30:36.316Z</time></trkpt><trkpt lat="43.5077754" lon="11.9565272"><ele>428.0</ele><time>2026-04-04T09:30:37.316Z</time></trkpt><trkpt lat="43.5079124" lon="11.95652"><ele>428.0</ele><time>2026-04-04T09:30:38.315Z</time></trkpt><trkpt lat="43.5080416" lon="11.956487"><ele>428.2</ele><time>2026-04-04T09:30:39.316Z</time></trkpt><trkpt lat="43.5081736" lon="11.9564315"><ele>428.4</ele><time>2026-04-04T09:30:40.316Z</time></trkpt><trkpt lat="43.5082512" lon="11.9563729"><ele>428.59999999999997</ele><time>2026-04-04T09:30:41.315Z</time></trkpt><trkpt lat="43.5083306" lon="11.9563029"><ele>428.79999999999995</ele><time>2026-04-04T09:30:42.316Z</time></trkpt><trkpt lat="43.5083913" lon="11.9562191"><ele>429.0</ele><time>2026-04-04T09:30:43.316Z</time></trkpt><trkpt lat="43.5084364" lon="11.9561483"><ele>429.0</ele><time>2026-04-04T09:30:44.316Z</time></trkpt><trkpt lat="43.5085079" lon="11.9560628"><ele>429.0</ele><time>2026-04-04T09:30:45.316Z</time></trkpt><trkpt lat="43.5085615" lon="11.9559154"><ele>429.0</ele><time>2026-04-04T09:30:46.316Z</time></trkpt><trkpt lat="43.5086745" lon="11.9559736"><ele>429.0</ele><time>2026-04-04T09:30:48.316Z</time></trkpt><trkpt lat="43.5087661" lon="11.9560265"><ele>429.0</ele><time>2026-04-04T09:30:50.315Z</time></trkpt><trkpt lat="43.5088478" lon="11.9560972"><ele>428.0</ele><time>2026-04-04T09:30:52.316Z</time></trkpt><trkpt lat="43.5089905" lon="11.9560962"><ele>427.0</ele><time>2026-04-04T09:30:54.316Z</time></trkpt><trkpt lat="43.5090333" lon="11.9561975"><ele>426.0</ele><time>2026-04-04T09:30:56.316Z</time></trkpt><trkpt lat="43.5090925" lon="11.9563696"><ele>425.0</ele><time>2026-04-04T09:30:57.316Z</time></trkpt><trkpt lat="43.5091204" lon="11.9564694"><ele>424.0</ele><time>2026-04-04T09:30:58.316Z</time></trkpt><trkpt lat="43.5091789" lon="11.956536"><ele>424.0</ele><time>2026-04-04T09:30:59.316Z</time></trkpt><trkpt lat="43.5092403" lon="11.956634"><ele>424.0</ele><time>2026-04-04T09:31:01.316Z</time></trkpt><trkpt lat="43.5092882" lon="11.9566973"><ele>424.0</ele><time>2026-04-04T09:31:29.316Z</time></trkpt><trkpt lat="43.5094306" lon="11.9566258"><ele>424.0</ele><time>2026-04-04T09:31:32.317Z</time></trkpt><trkpt lat="43.5095266" lon="11.9565532"><ele>424.0</ele><time>2026-04-04T09:31:34.316Z</time></trkpt><trkpt lat="43.5095739" lon="11.9564855"><ele>422.83333333333337</ele><time>2026-04-04T09:31:36.316Z</time></trkpt><trkpt lat="43.5096282" lon="11.9564071"><ele>421.6666666666667</ele><time>2026-04-04T09:31:38.316Z</time></trkpt><trkpt lat="43.5096884" lon="11.9563523"><ele>420.5</ele><time>2026-04-04T09:31:40.316Z</time></trkpt><trkpt lat="43.5097358" lon="11.9562662"><ele>419.33333333333337</ele><time>2026-04-04T09:31:42.316Z</time></trkpt><trkpt lat="43.5097947" lon="11.9561941"><ele>418.1666666666667</ele><time>2026-04-04T09:31:43.316Z</time></trkpt><trkpt lat="43.509876" lon="11.95614"><ele>417.0</ele><time>2026-04-04T09:31:44.316Z</time></trkpt><trkpt lat="43.5099549" lon="11.9560964"><ele>417.0</ele><time>2026-04-04T09:31:45.316Z</time></trkpt><trkpt lat="43.5100487" lon="11.9561036"><ele>417.0</ele><time>2026-04-04T09:31:46.315Z</time></trkpt><trkpt lat="43.51015" lon="11.9561169"><ele>417.0</ele><time>2026-04-04T09:31:47.316Z</time></trkpt><trkpt lat="43.5102658" lon="11.9561067"><ele>417.0</ele><time>2026-04-04T09:31:48.316Z</time></trkpt><trkpt lat="43.5103645" lon="11.9560625"><ele>417.0</ele><time>2026-04-04T09:31:49.316Z</time></trkpt><trkpt lat="43.5104732" lon="11.9560298"><ele>416.8333333333333</ele><time>2026-04-04T09:31:50.316Z</time></trkpt><trkpt lat="43.5105522" lon="11.9560343"><ele>416.66666666666663</ele><time>2026-04-04T09:31:51.316Z</time></trkpt><trkpt lat="43.5106494" lon="11.9560295"><ele>416.5</ele><time>2026-04-04T09:31:52.316Z</time></trkpt><trkpt lat="43.5107255" lon="11.9560139"><ele>416.3333333333333</ele><time>2026-04-04T09:31:54.316Z</time></trkpt><trkpt lat="43.5107911" lon="11.9559934"><ele>416.16666666666663</ele><time>2026-04-04T09:31:56.316Z</time></trkpt><trkpt lat="43.5108848" lon="11.9559865"><ele>416.0</ele><time>2026-04-04T09:31:58.316Z</time></trkpt><trkpt lat="43.5109577" lon="11.9560207"><ele>415.99999999999994</ele><time>2026-04-04T09:32:00.315Z</time></trkpt><trkpt lat="43.5110333" lon="11.9560372"><ele>416.0</ele><time>2026-04-04T09:32:02.316Z</time></trkpt><trkpt lat="43.5111659" lon="11.9560515"><ele>416.0</ele><time>2026-04-04T09:32:04.316Z</time></trkpt><trkpt lat="43.5112264" lon="11.9561048"><ele>416.0</ele><time>2026-04-04T09:32:07.316Z</time></trkpt><trkpt lat="43.5113017" lon="11.9561312"><ele>415.99999999999994</ele><time>2026-04-04T09:32:09.316Z</time></trkpt><trkpt lat="43.5113656" lon="11.9561964"><ele>416.0</ele><time>2026-04-04T09:32:12.316Z</time></trkpt><trkpt lat="43.5114456" lon="11.9561788"><ele>417.16666666666663</ele><time>2026-04-04T09:32:15.316Z</time></trkpt><trkpt lat="43.5115177" lon="11.9561922"><ele>418.3333333333333</ele><time>2026-04-04T09:32:18.316Z</time></trkpt><trkpt lat="43.5115818" lon="11.9561866"><ele>419.5</ele><time>2026-04-04T09:32:21.316Z</time></trkpt><trkpt lat="43.5116603" lon="11.956229"><ele>420.66666666666663</ele><time>2026-04-04T09:32:23.316Z</time></trkpt><trkpt lat="43.5117458" lon="11.9562743"><ele>421.8333333333333</ele><time>2026-04-04T09:32:26.316Z</time></trkpt><trkpt lat="43.5118784" lon="11.9562878"><ele>423.0</ele><time>2026-04-04T09:32:32.316Z</time></trkpt><trkpt lat="43.5119425" lon="11.9562565"><ele>423.0</ele><time>2026-04-04T09:32:35.316Z</time></trkpt><trkpt lat="43.5120114" lon="11.9562238"><ele>423.0</ele><time>2026-04-04T09:32:38.316Z</time></trkpt><trkpt lat="43.5121065" lon="11.9562217"><ele>423.0</ele><time>2026-04-04T09:32:41.316Z</time></trkpt><trkpt lat="43.5121829" lon="11.9562115"><ele>423.0</ele><time>2026-04-04T09:32:43.316Z</time></trkpt><trkpt lat="43.5122443" lon="11.9561904"><ele>423.0</ele><time>2026-04-04T09:32:45.316Z</time></trkpt><trkpt lat="43.5123338" lon="11.9561439"><ele>423.0</ele><time>2026-04-04T09:32:47.316Z</time></trkpt><trkpt lat="43.5124298" lon="11.9560781"><ele>424.4</ele><time>2026-04-04T09:32:49.316Z</time></trkpt><trkpt lat="43.5125206" lon="11.9560044"><ele>425.79999999999995</ele><time>2026-04-04T09:32:50.316Z</time></trkpt><trkpt lat="43.5126536" lon="11.9559946"><ele>427.2</ele><time>2026-04-04T09:32:52.315Z</time></trkpt><trkpt lat="43.5127045" lon="11.955938"><ele>428.6</ele><time>2026-04-04T09:32:53.316Z</time></trkpt><trkpt lat="43.512773" lon="11.9558757"><ele>430.0</ele><time>2026-04-04T09:32:54.316Z</time></trkpt><trkpt lat="43.5128335" lon="11.9558004"><ele>425.6</ele><time>2026-04-04T09:32:55.316Z</time></trkpt><trkpt lat="43.5129028" lon="11.9557592"><ele>421.2</ele><time>2026-04-04T09:32:56.316Z</time></trkpt><trkpt lat="43.5129672" lon="11.9556321"><ele>416.79999999999995</ele><time>2026-04-04T09:32:57.316Z</time></trkpt><trkpt lat="43.5130539" lon="11.9555959"><ele>412.4</ele><time>2026-04-04T09:32:58.316Z</time></trkpt><trkpt lat="43.5131399" lon="11.9555989"><ele>408.0</ele><time>2026-04-04T09:32:59.316Z</time></trkpt><trkpt lat="43.5132313" lon="11.9555845"><ele>407.5</ele><time>2026-04-04T09:33:01.316Z</time></trkpt><trkpt lat="43.5133248" lon="11.9555499"><ele>407.0</ele><time>2026-04-04T09:33:03.316Z</time></trkpt><trkpt lat="43.5133908" lon="11.9555119"><ele>406.5</ele><time>2026-04-04T09:33:05.316Z</time></trkpt><trkpt lat="43.5134586" lon="11.955541"><ele>406.0</ele><time>2026-04-04T09:33:07.316Z</time></trkpt><trkpt lat="43.513526" lon="11.9555376"><ele>405.5</ele><time>2026-04-04T09:33:09.316Z</time></trkpt><trkpt lat="43.5136089" lon="11.9554864"><ele>405.0</ele><time>2026-04-04T09:33:12.316Z</time></trkpt><trkpt lat="43.513683" lon="11.9554163"><ele>405.0</ele><time>2026-04-04T09:33:15.317Z</time></trkpt><trkpt lat="43.5137331" lon="11.9553444"><ele>405.0</ele><time>2026-04-04T09:33:17.316Z</time></trkpt><trkpt lat="43.5137924" lon="11.9552766"><ele>405.0</ele><time>2026-04-04T09:33:19.316Z</time></trkpt><trkpt lat="43.513857" lon="11.9552111"><ele>405.0</ele><time>2026-04-04T09:33:21.316Z</time></trkpt><trkpt lat="43.5139145" lon="11.9551485"><ele>405.0</ele><time>2026-04-04T09:33:23.316Z</time></trkpt><trkpt lat="43.5139758" lon="11.9550755"><ele>405.0</ele><time>2026-04-04T09:33:26.316Z</time></trkpt><trkpt lat="43.5139971" lon="11.9549267"><ele>402.8</ele><time>2026-04-04T09:33:28.316Z</time></trkpt><trkpt lat="43.5140086" lon="11.9548395"><ele>400.6</ele><time>2026-04-04T09:33:29.316Z</time></trkpt><trkpt lat="43.5140575" lon="11.9547065"><ele>398.4</ele><time>2026-04-04T09:33:31.316Z</time></trkpt><trkpt lat="43.5141499" lon="11.954681"><ele>396.2</ele><time>2026-04-04T09:33:33.316Z</time></trkpt><trkpt lat="43.5142601" lon="11.9547496"><ele>394.0</ele><time>2026-04-04T09:33:35.316Z</time></trkpt><trkpt lat="43.5143494" lon="11.9548207"><ele>394.0</ele><time>2026-04-04T09:33:36.315Z</time></trkpt><trkpt lat="43.514434" lon="11.9548603"><ele>394.0</ele><time>2026-04-04T09:33:37.316Z</time></trkpt><trkpt lat="43.5145268" lon="11.9549055"><ele>394.0</ele><time>2026-04-04T09:33:38.317Z</time></trkpt><trkpt lat="43.5146285" lon="11.9549525"><ele>394.0</ele><time>2026-04-04T09:33:39.317Z</time></trkpt><trkpt lat="43.5147223" lon="11.9549868"><ele>394.0</ele><time>2026-04-04T09:33:40.315Z</time></trkpt><trkpt lat="43.5148422" lon="11.9549396"><ele>394.6666666666667</ele><time>2026-04-04T09:33:41.316Z</time></trkpt><trkpt lat="43.5149302" lon="11.9549363"><ele>395.33333333333337</ele><time>2026-04-04T09:33:42.316Z</time></trkpt><trkpt lat="43.5150251" lon="11.9549242"><ele>396.0</ele><time>2026-04-04T09:33:43.316Z</time></trkpt><trkpt lat="43.5150944" lon="11.9548733"><ele>396.66666666666663</ele><time>2026-04-04T09:33:44.316Z</time></trkpt><trkpt lat="43.5151785" lon="11.9548243"><ele>397.3333333333333</ele><time>2026-04-04T09:33:45.316Z</time></trkpt><trkpt lat="43.5152163" lon="11.9547384"><ele>398.0</ele><time>2026-04-04T09:33:46.316Z</time></trkpt><trkpt lat="43.5152793" lon="11.9546711"><ele>397.99999999999994</ele><time>2026-04-04T09:33:47.315Z</time></trkpt><trkpt lat="43.5152848" lon="11.9545834"><ele>398.0</ele><time>2026-04-04T09:33:49.316Z</time></trkpt><trkpt lat="43.5153513" lon="11.9545141"><ele>398.0</ele><time>2026-04-04T09:33:51.315Z</time></trkpt><trkpt lat="43.5154291" lon="11.9544956"><ele>398.0</ele><time>2026-04-04T09:33:52.316Z</time></trkpt><trkpt lat="43.5155384" lon="11.9544323"><ele>397.99999999999994</ele><time>2026-04-04T09:33:54.316Z</time></trkpt><trkpt lat="43.5155991" lon="11.9543922"><ele>398.0</ele><time>2026-04-04T09:33:55.316Z</time></trkpt><trkpt lat="43.5156828" lon="11.9542673"><ele>397.0</ele><time>2026-04-04T09:33:56.316Z</time></trkpt><trkpt lat="43.5157755" lon="11.9541341"><ele>396.0</ele><time>2026-04-04T09:33:57.316Z</time></trkpt><trkpt lat="43.5158652" lon="11.9539483"><ele>395.0</ele><time>2026-04-04T09:33:58.316Z</time></trkpt><trkpt lat="43.5159582" lon="11.9538024"><ele>394.0</ele><time>2026-04-04T09:33:59.316Z</time></trkpt><trkpt lat="43.5160153" lon="11.9537021"><ele>394.00000000000006</ele><time>2026-04-04T09:34:00.315Z</time></trkpt><trkpt lat="43.5160849" lon="11.9535953"><ele>394.0</ele><time>2026-04-04T09:34:01.316Z</time></trkpt><trkpt lat="43.5161534" lon="11.9534959"><ele>394.0</ele><time>2026-04-04T09:34:02.316Z</time></trkpt><trkpt lat="43.5162179" lon="11.9534588"><ele>394.0</ele><time>2026-04-04T09:34:03.316Z</time></trkpt><trkpt lat="43.5162808" lon="11.9534035"><ele>394.00000000000006</ele><time>2026-04-04T09:34:06.316Z</time></trkpt><trkpt lat="43.516329" lon="11.9533233"><ele>394.0</ele><time>2026-04-04T09:34:08.316Z</time></trkpt><trkpt lat="43.5163975" lon="11.9532498"><ele>394.0</ele><time>2026-04-04T09:34:10.316Z</time></trkpt><trkpt lat="43.5164719" lon="11.9531757"><ele>394.0</ele><time>2026-04-04T09:34:13.316Z</time></trkpt><trkpt lat="43.5165273" lon="11.9530844"><ele>394.0</ele><time>2026-04-04T09:34:15.316Z</time></trkpt><trkpt lat="43.5165841" lon="11.9529581"><ele>394.0</ele><time>2026-04-04T09:34:17.316Z</time></trkpt><trkpt lat="43.5166822" lon="11.9528058"><ele>394.0</ele><time>2026-04-04T09:34:19.316Z</time></trkpt><trkpt lat="43.5167383" lon="11.952761"><ele>394.00000000000006</ele><time>2026-04-04T09:34:20.316Z</time></trkpt><trkpt lat="43.5168097" lon="11.9527531"><ele>394.0</ele><time>2026-04-04T09:34:21.316Z</time></trkpt><trkpt lat="43.5169113" lon="11.952739"><ele>394.0</ele><time>2026-04-04T09:34:23.315Z</time></trkpt><trkpt lat="43.516971" lon="11.9527053"><ele>394.0</ele><time>2026-04-04T09:34:24.315Z</time></trkpt><trkpt lat="43.5170703" lon="11.9526572"><ele>394.00000000000006</ele><time>2026-04-04T09:34:25.317Z</time></trkpt><trkpt lat="43.5171305" lon="11.9525746"><ele>394.0</ele><time>2026-04-04T09:34:27.316Z</time></trkpt><trkpt lat="43.5171843" lon="11.9526201"><ele>393.83333333333337</ele><time>2026-04-04T09:34:31.316Z</time></trkpt><trkpt lat="43.5172428" lon="11.9525706"><ele>393.6666666666667</ele><time>2026-04-04T09:34:34.316Z</time></trkpt><trkpt lat="43.5173207" lon="11.9524798"><ele>393.5</ele><time>2026-04-04T09:34:37.317Z</time></trkpt><trkpt lat="43.517383" lon="11.9524373"><ele>393.33333333333337</ele><time>2026-04-04T09:34:38.315Z</time></trkpt><trkpt lat="43.5174443" lon="11.9524111"><ele>393.1666666666667</ele><time>2026-04-04T09:34:39.316Z</time></trkpt><trkpt lat="43.517542" lon="11.9522724"><ele>393.0</ele><time>2026-04-04T09:34:41.316Z</time></trkpt><trkpt lat="43.517623" lon="11.9521857"><ele>391.25</ele><time>2026-04-04T09:34:42.316Z</time></trkpt><trkpt lat="43.5177447" lon="11.9521011"><ele>389.5</ele><time>2026-04-04T09:34:43.316Z</time></trkpt><trkpt lat="43.5178762" lon="11.9520334"><ele>387.75</ele><time>2026-04-04T09:34:44.316Z</time></trkpt><trkpt lat="43.5179536" lon="11.9519872"><ele>386.0</ele><time>2026-04-04T09:34:45.316Z</time></trkpt><trkpt lat="43.5180358" lon="11.9519402"><ele>385.8</ele><time>2026-04-04T09:34:46.317Z</time></trkpt><trkpt lat="43.5181306" lon="11.9518658"><ele>385.6</ele><time>2026-04-04T09:34:47.315Z</time></trkpt><trkpt lat="43.5182141" lon="11.9517969"><ele>385.4</ele><time>2026-04-04T09:34:48.316Z</time></trkpt><trkpt lat="43.5183056" lon="11.9517669"><ele>385.2</ele><time>2026-04-04T09:34:49.316Z</time></trkpt><trkpt lat="43.5183692" lon="11.9517208"><ele>385.0</ele><time>2026-04-04T09:34:50.317Z</time></trkpt><trkpt lat="43.5184459" lon="11.9516712"><ele>386.33333333333337</ele><time>2026-04-04T09:34:51.316Z</time></trkpt><trkpt lat="43.518521" lon="11.9516196"><ele>387.6666666666667</ele><time>2026-04-04T09:34:52.315Z</time></trkpt><trkpt lat="43.5185938" lon="11.951553"><ele>389.0</ele><time>2026-04-04T09:34:53.316Z</time></trkpt><trkpt lat="43.5186707" lon="11.951481"><ele>390.33333333333337</ele><time>2026-04-04T09:34:54.316Z</time></trkpt><trkpt lat="43.5187428" lon="11.9513838"><ele>391.6666666666667</ele><time>2026-04-04T09:34:55.316Z</time></trkpt><trkpt lat="43.518779" lon="11.9513062"><ele>393.0</ele><time>2026-04-04T09:34:56.316Z</time></trkpt><trkpt lat="43.5188367" lon="11.9512104"><ele>393.0</ele><time>2026-04-04T09:34:57.316Z</time></trkpt><trkpt lat="43.5189372" lon="11.9511417"><ele>393.0</ele><time>2026-04-04T09:34:59.316Z</time></trkpt><trkpt lat="43.5190028" lon="11.9510825"><ele>393.0</ele><time>2026-04-04T09:35:00.316Z</time></trkpt><trkpt lat="43.519062" lon="11.9510114"><ele>393.0</ele><time>2026-04-04T09:35:01.316Z</time></trkpt><trkpt lat="43.5191316" lon="11.9509416"><ele>393.0</ele><time>2026-04-04T09:35:02.316Z</time></trkpt><trkpt lat="43.5191987" lon="11.9508878"><ele>393.0</ele><time>2026-04-04T09:35:03.316Z</time></trkpt><trkpt lat="43.5192981" lon="11.9507917"><ele>395.6666666666667</ele><time>2026-04-04T09:35:04.316Z</time></trkpt><trkpt lat="43.5193688" lon="11.9507314"><ele>398.33333333333337</ele><time>2026-04-04T09:35:05.316Z</time></trkpt><trkpt lat="43.5194376" lon="11.9507002"><ele>401.0</ele><time>2026-04-04T09:35:06.315Z</time></trkpt><trkpt lat="43.5195005" lon="11.9506678"><ele>403.6666666666667</ele><time>2026-04-04T09:35:07.316Z</time></trkpt><trkpt lat="43.5195778" lon="11.9506179"><ele>406.33333333333337</ele><time>2026-04-04T09:35:09.316Z</time></trkpt><trkpt lat="43.5196731" lon="11.9505707"><ele>409.0</ele><time>2026-04-04T09:35:11.316Z</time></trkpt><trkpt lat="43.5197947" lon="11.9505399"><ele>409.0</ele><time>2026-04-04T09:35:13.315Z</time></trkpt><trkpt lat="43.5198569" lon="11.9505239"><ele>409.0</ele><time>2026-04-04T09:35:14.316Z</time></trkpt><trkpt lat="43.5199494" lon="11.9505209"><ele>409.0</ele><time>2026-04-04T09:35:16.316Z</time></trkpt><trkpt lat="43.520013" lon="11.9505476"><ele>409.0</ele><time>2026-04-04T09:35:18.315Z</time></trkpt><trkpt lat="43.5200853" lon="11.9505961"><ele>409.0</ele><time>2026-04-04T09:35:20.316Z</time></trkpt><trkpt lat="43.5201414" lon="11.9506459"><ele>409.0</ele><time>2026-04-04T09:35:22.315Z</time></trkpt><trkpt lat="43.5202039" lon="11.950682"><ele>409.0</ele><time>2026-04-04T09:35:24.316Z</time></trkpt><trkpt lat="43.5202602" lon="11.9507247"><ele>409.00000000000006</ele><time>2026-04-04T09:35:26.315Z</time></trkpt><trkpt lat="43.5203343" lon="11.9507434"><ele>409.0</ele><time>2026-04-04T09:35:29.316Z</time></trkpt><trkpt lat="43.5204345" lon="11.9506248"><ele>409.0</ele><time>2026-04-04T09:35:31.316Z</time></trkpt><trkpt lat="43.5204952" lon="11.9505795"><ele>409.0</ele><time>2026-04-04T09:35:32.316Z</time></trkpt><trkpt lat="43.5205588" lon="11.9505412"><ele>409.00000000000006</ele><time>2026-04-04T09:35:33.316Z</time></trkpt><trkpt lat="43.5206263" lon="11.9504649"><ele>409.0</ele><time>2026-04-04T09:35:35.316Z</time></trkpt><trkpt lat="43.5207122" lon="11.9504412"><ele>406.83333333333337</ele><time>2026-04-04T09:35:36.316Z</time></trkpt><trkpt lat="43.5207794" lon="11.9504227"><ele>404.6666666666667</ele><time>2026-04-04T09:35:37.316Z</time></trkpt><trkpt lat="43.5208528" lon="11.9503997"><ele>402.5</ele><time>2026-04-04T09:35:38.316Z</time></trkpt><trkpt lat="43.5209315" lon="11.9503659"><ele>400.33333333333337</ele><time>2026-04-04T09:35:39.316Z</time></trkpt><trkpt lat="43.5210279" lon="11.9503248"><ele>398.1666666666667</ele><time>2026-04-04T09:35:40.316Z</time></trkpt><trkpt lat="43.5211017" lon="11.950298"><ele>396.0</ele><time>2026-04-04T09:35:41.316Z</time></trkpt><trkpt lat="43.5211716" lon="11.9502835"><ele>393.3333333333333</ele><time>2026-04-04T09:35:42.316Z</time></trkpt><trkpt lat="43.5212532" lon="11.950247"><ele>390.6666666666667</ele><time>2026-04-04T09:35:43.316Z</time></trkpt><trkpt lat="43.5213368" lon="11.9502027"><ele>388.0</ele><time>2026-04-04T09:35:44.316Z</time></trkpt><trkpt lat="43.5214125" lon="11.9501542"><ele>385.33333333333337</ele><time>2026-04-04T09:35:45.315Z</time></trkpt><trkpt lat="43.5214958" lon="11.9501432"><ele>382.6666666666667</ele><time>2026-04-04T09:35:46.316Z</time></trkpt><trkpt lat="43.5215618" lon="11.9501729"><ele>380.0</ele><time>2026-04-04T09:35:47.316Z</time></trkpt><trkpt lat="43.5214984" lon="11.9503618"><ele>380.0</ele><time>2026-04-04T09:35:49.317Z</time></trkpt><trkpt lat="43.5215004" lon="11.9504729"><ele>380.0</ele><time>2026-04-04T09:35:50.316Z</time></trkpt><trkpt lat="43.5214971" lon="11.9505754"><ele>380.0</ele><time>2026-04-04T09:35:51.316Z</time></trkpt><trkpt lat="43.5215056" lon="11.9506779"><ele>380.0</ele><time>2026-04-04T09:35:52.316Z</time></trkpt><trkpt lat="43.5215109" lon="11.9507666"><ele>380.0</ele><time>2026-04-04T09:35:53.316Z</time></trkpt><trkpt lat="43.5215189" lon="11.9508773"><ele>380.0</ele><time>2026-04-04T09:35:54.316Z</time></trkpt><trkpt lat="43.5215246" lon="11.9509798"><ele>379.6</ele><time>2026-04-04T09:35:55.316Z</time></trkpt><trkpt lat="43.5215422" lon="11.9511365"><ele>379.2</ele><time>2026-04-04T09:35:56.316Z</time></trkpt><trkpt lat="43.5215564" lon="11.9512534"><ele>378.79999999999995</ele><time>2026-04-04T09:35:57.316Z</time></trkpt><trkpt lat="43.5215703" lon="11.9514324"><ele>378.4</ele><time>2026-04-04T09:35:59.316Z</time></trkpt><trkpt lat="43.5216296" lon="11.9515317"><ele>378.0</ele><time>2026-04-04T09:36:01.316Z</time></trkpt><trkpt lat="43.5216821" lon="11.9516089"><ele>378.0</ele><time>2026-04-04T09:36:02.316Z</time></trkpt><trkpt lat="43.5217411" lon="11.9517203"><ele>378.0</ele><time>2026-04-04T09:36:04.316Z</time></trkpt><trkpt lat="43.5218056" lon="11.9517507"><ele>378.0</ele><time>2026-04-04T09:36:11.316Z</time></trkpt><trkpt lat="43.5218749" lon="11.9517289"><ele>378.0</ele><time>2026-04-04T09:36:14.316Z</time></trkpt><trkpt lat="43.5219537" lon="11.9516733"><ele>378.0</ele><time>2026-04-04T09:36:17.316Z</time></trkpt><trkpt lat="43.5220189" lon="11.9516321"><ele>378.0</ele><time>2026-04-04T09:36:19.316Z</time></trkpt><trkpt lat="43.5220699" lon="11.9515544"><ele>381.4</ele><time>2026-04-04T09:36:21.316Z</time></trkpt><trkpt lat="43.5221186" lon="11.9514818"><ele>384.79999999999995</ele><time>2026-04-04T09:36:23.316Z</time></trkpt><trkpt lat="43.522181" lon="11.9514047"><ele>388.2</ele><time>2026-04-04T09:36:25.316Z</time></trkpt><trkpt lat="43.522246" lon="11.9513284"><ele>391.6</ele><time>2026-04-04T09:36:27.316Z</time></trkpt><trkpt lat="43.5223056" lon="11.9511468"><ele>395.0</ele><time>2026-04-04T09:36:29.315Z</time></trkpt><trkpt lat="43.5223634" lon="11.951074"><ele>394.99999999999994</ele><time>2026-04-04T09:36:31.316Z</time></trkpt><trkpt lat="43.5224136" lon="11.9510133"><ele>395.0</ele><time>2026-04-04T09:36:33.316Z</time></trkpt><trkpt lat="43.5224647" lon="11.9509071"><ele>395.0</ele><time>2026-04-04T09:36:36.316Z</time></trkpt><trkpt lat="43.5225131" lon="11.9508315"><ele>395.0</ele><time>2026-04-04T09:36:38.315Z</time></trkpt><trkpt lat="43.522574" lon="11.9507424"><ele>394.99999999999994</ele><time>2026-04-04T09:36:40.316Z</time></trkpt><trkpt lat="43.5226297" lon="11.9506207"><ele>395.0</ele><time>2026-04-04T09:36:42.315Z</time></trkpt><trkpt lat="43.5226799" lon="11.9504992"><ele>393.3333333333333</ele><time>2026-04-04T09:36:44.315Z</time></trkpt><trkpt lat="43.5227413" lon="11.9504257"><ele>391.66666666666663</ele><time>2026-04-04T09:36:46.316Z</time></trkpt><trkpt lat="43.5228186" lon="11.95032"><ele>390.0</ele><time>2026-04-04T09:36:48.316Z</time></trkpt><trkpt lat="43.5228651" lon="11.9502594"><ele>388.33333333333337</ele><time>2026-04-04T09:36:49.316Z</time></trkpt><trkpt lat="43.5229027" lon="11.9501874"><ele>386.6666666666667</ele><time>2026-04-04T09:36:50.316Z</time></trkpt><trkpt lat="43.5229835" lon="11.9500979"><ele>385.0</ele><time>2026-04-04T09:36:52.316Z</time></trkpt><trkpt lat="43.5230386" lon="11.9500394"><ele>383.2</ele><time>2026-04-04T09:36:53.317Z</time></trkpt><trkpt lat="43.5231209" lon="11.950006"><ele>381.4</ele><time>2026-04-04T09:36:55.316Z</time></trkpt><trkpt lat="43.5231943" lon="11.9499967"><ele>379.6</ele><time>2026-04-04T09:36:58.316Z</time></trkpt><trkpt lat="43.5232958" lon="11.9499318"><ele>377.8</ele><time>2026-04-04T09:37:00.317Z</time></trkpt><trkpt lat="43.5234093" lon="11.9497935"><ele>376.0</ele><time>2026-04-04T09:37:02.316Z</time></trkpt><trkpt lat="43.5235125" lon="11.9497441"><ele>376.0</ele><time>2026-04-04T09:37:04.316Z</time></trkpt><trkpt lat="43.5235751" lon="11.9497052"><ele>376.0</ele><time>2026-04-04T09:37:05.316Z</time></trkpt><trkpt lat="43.5236455" lon="11.9496842"><ele>376.0</ele><time>2026-04-04T09:37:06.317Z</time></trkpt><trkpt lat="43.5237234" lon="11.9496783"><ele>376.0</ele><time>2026-04-04T09:37:07.316Z</time></trkpt><trkpt lat="43.5237863" lon="11.9496195"><ele>376.0</ele><time>2026-04-04T09:37:08.317Z</time></trkpt><trkpt lat="43.5238918" lon="11.9495703"><ele>376.0</ele><time>2026-04-04T09:37:09.316Z</time></trkpt><trkpt lat="43.5239997" lon="11.949544"><ele>378.16666666666663</ele><time>2026-04-04T09:37:11.317Z</time></trkpt><trkpt lat="43.5240874" lon="11.9495626"><ele>380.3333333333333</ele><time>2026-04-04T09:37:13.316Z</time></trkpt><trkpt lat="43.5241756" lon="11.9494935"><ele>382.5</ele><time>2026-04-04T09:37:15.316Z</time></trkpt><trkpt lat="43.5242502" lon="11.9494486"><ele>384.66666666666663</ele><time>2026-04-04T09:37:17.316Z</time></trkpt><trkpt lat="43.5243241" lon="11.9494316"><ele>386.8333333333333</ele><time>2026-04-04T09:37:20.316Z</time></trkpt><trkpt lat="43.5243972" lon="11.9494658"><ele>389.0</ele><time>2026-04-04T09:37:24.316Z</time></trkpt><trkpt lat="43.52446" lon="11.9494556"><ele>388.99999999999994</ele><time>2026-04-04T09:37:29.316Z</time></trkpt><trkpt lat="43.5245237" lon="11.9494457"><ele>389.0</ele><time>2026-04-04T09:37:32.315Z</time></trkpt><trkpt lat="43.5245805" lon="11.9493453"><ele>389.0</ele><time>2026-04-04T09:37:36.316Z</time></trkpt><trkpt lat="43.5246444" lon="11.9492626"><ele>389.0</ele><time>2026-04-04T09:37:38.316Z</time></trkpt><trkpt lat="43.524716" lon="11.9492232"><ele>388.99999999999994</ele><time>2026-04-04T09:37:40.316Z</time></trkpt><trkpt lat="43.5247814" lon="11.9491926"><ele>389.0</ele><time>2026-04-04T09:37:43.316Z</time></trkpt><trkpt lat="43.5248528" lon="11.9491789"><ele>386.79999999999995</ele><time>2026-04-04T09:37:46.316Z</time></trkpt><trkpt lat="43.5249274" lon="11.9490763"><ele>384.59999999999997</ele><time>2026-04-04T09:37:48.316Z</time></trkpt><trkpt lat="43.5250081" lon="11.9489565"><ele>382.4</ele><time>2026-04-04T09:37:50.317Z</time></trkpt><trkpt lat="43.5250502" lon="11.9488559"><ele>380.2</ele><time>2026-04-04T09:37:52.316Z</time></trkpt><trkpt lat="43.525097" lon="11.9487847"><ele>378.0</ele><time>2026-04-04T09:37:54.316Z</time></trkpt><trkpt lat="43.5251337" lon="11.9486995"><ele>378.0</ele><time>2026-04-04T09:37:56.316Z</time></trkpt><trkpt lat="43.5251647" lon="11.9485945"><ele>378.0</ele><time>2026-04-04T09:37:59.316Z</time></trkpt><trkpt lat="43.5251898" lon="11.9485087"><ele>378.0</ele><time>2026-04-04T09:38:02.316Z</time></trkpt><trkpt lat="43.5252325" lon="11.9484399"><ele>378.0</ele><time>2026-04-04T09:38:06.317Z</time></trkpt><trkpt lat="43.5253031" lon="11.9483622"><ele>378.0</ele><time>2026-04-04T09:38:09.316Z</time></trkpt><trkpt lat="43.5253994" lon="11.948205"><ele>377.5</ele><time>2026-04-04T09:38:11.316Z</time></trkpt><trkpt lat="43.5254548" lon="11.9481499"><ele>377.0</ele><time>2026-04-04T09:38:12.315Z</time></trkpt><trkpt lat="43.5255199" lon="11.9480823"><ele>376.5</ele><time>2026-04-04T09:38:13.315Z</time></trkpt><trkpt lat="43.5256226" lon="11.9479483"><ele>376.0</ele><time>2026-04-04T09:38:15.316Z</time></trkpt><trkpt lat="43.5256636" lon="11.947882"><ele>375.5</ele><time>2026-04-04T09:38:16.317Z</time></trkpt><trkpt lat="43.5257044" lon="11.9477818"><ele>375.0</ele><time>2026-04-04T09:38:17.315Z</time></trkpt><trkpt lat="43.5257761" lon="11.9477548"><ele>375.0</ele><time>2026-04-04T09:38:19.316Z</time></trkpt><trkpt lat="43.5258386" lon="11.9476716"><ele>375.0</ele><time>2026-04-04T09:38:21.316Z</time></trkpt><trkpt lat="43.5259138" lon="11.9476177"><ele>375.0</ele><time>2026-04-04T09:38:25.316Z</time></trkpt><trkpt lat="43.5259743" lon="11.9475355"><ele>375.0</ele><time>2026-04-04T09:38:28.316Z</time></trkpt><trkpt lat="43.5260397" lon="11.9474615"><ele>375.0</ele><time>2026-04-04T09:38:31.316Z</time></trkpt><trkpt lat="43.5261079" lon="11.9473966"><ele>375.0</ele><time>2026-04-04T09:38:33.316Z</time></trkpt><trkpt lat="43.5261869" lon="11.9473094"><ele>374.8</ele><time>2026-04-04T09:38:35.316Z</time></trkpt><trkpt lat="43.5262301" lon="11.947209"><ele>374.6</ele><time>2026-04-04T09:38:37.316Z</time></trkpt><trkpt lat="43.52626" lon="11.9471"><ele>374.4</ele><time>2026-04-04T09:38:39.315Z</time></trkpt><trkpt lat="43.5263325" lon="11.9468716"><ele>374.2</ele><time>2026-04-04T09:38:41.315Z</time></trkpt><trkpt lat="43.5263481" lon="11.9467523"><ele>374.0</ele><time>2026-04-04T09:38:42.317Z</time></trkpt><trkpt lat="43.5263811" lon="11.9466538"><ele>374.0</ele><time>2026-04-04T09:38:43.316Z</time></trkpt><trkpt lat="43.5264138" lon="11.9465611"><ele>374.0</ele><time>2026-04-04T09:38:44.316Z</time></trkpt><trkpt lat="43.5264749" lon="11.9464392"><ele>374.0</ele><time>2026-04-04T09:38:46.316Z</time></trkpt><trkpt lat="43.5264992" lon="11.9463199"><ele>374.0</ele><time>2026-04-04T09:38:48.315Z</time></trkpt><trkpt lat="43.526439" lon="11.9462363"><ele>374.0</ele><time>2026-04-04T09:38:50.316Z</time></trkpt><trkpt lat="43.5263758" lon="11.9461503"><ele>374.0</ele><time>2026-04-04T09:38:52.316Z</time></trkpt><trkpt lat="43.5263148" lon="11.9460693"><ele>374.0</ele><time>2026-04-04T09:38:55.316Z</time></trkpt><trkpt lat="43.5262784" lon="11.9459832"><ele>374.0</ele><time>2026-04-04T09:38:58.316Z</time></trkpt><trkpt lat="43.5262822" lon="11.9458466"><ele>374.0</ele><time>2026-04-04T09:39:01.316Z</time></trkpt><trkpt lat="43.5263193" lon="11.9457586"><ele>374.0</ele><time>2026-04-04T09:39:03.316Z</time></trkpt><trkpt lat="43.5263783" lon="11.9456777"><ele>374.0</ele><time>2026-04-04T09:39:05.315Z</time></trkpt><trkpt lat="43.526439" lon="11.9456243"><ele>374.0</ele><time>2026-04-04T09:39:07.316Z</time></trkpt><trkpt lat="43.5264834" lon="11.9455612"><ele>372.6</ele><time>2026-04-04T09:39:09.316Z</time></trkpt><trkpt lat="43.5265172" lon="11.945409"><ele>371.2</ele><time>2026-04-04T09:39:11.316Z</time></trkpt><trkpt lat="43.5265279" lon="11.9452786"><ele>369.8</ele><time>2026-04-04T09:39:13.316Z</time></trkpt><trkpt lat="43.5265871" lon="11.9451516"><ele>368.40000000000003</ele><time>2026-04-04T09:39:15.316Z</time></trkpt><trkpt lat="43.5266237" lon="11.9450007"><ele>367.0</ele><time>2026-04-04T09:39:17.316Z</time></trkpt><trkpt lat="43.5266329" lon="11.9448985"><ele>366.3333333333333</ele><time>2026-04-04T09:39:19.316Z</time></trkpt><trkpt lat="43.5266448" lon="11.9447918"><ele>365.66666666666663</ele><time>2026-04-04T09:39:21.316Z</time></trkpt><trkpt lat="43.5266923" lon="11.9447088"><ele>365.0</ele><time>2026-04-04T09:39:23.316Z</time></trkpt><trkpt lat="43.526735" lon="11.9446112"><ele>364.3333333333333</ele><time>2026-04-04T09:39:25.316Z</time></trkpt><trkpt lat="43.5268103" lon="11.9446369"><ele>363.6666666666667</ele><time>2026-04-04T09:39:28.316Z</time></trkpt><trkpt lat="43.526886" lon="11.9446228"><ele>363.0</ele><time>2026-04-04T09:39:31.316Z</time></trkpt><trkpt lat="43.52696" lon="11.9445398"><ele>363.0</ele><time>2026-04-04T09:39:33.316Z</time></trkpt><trkpt lat="43.5270252" lon="11.9444867"><ele>363.0</ele><time>2026-04-04T09:39:34.316Z</time></trkpt><trkpt lat="43.5270958" lon="11.944392"><ele>363.0</ele><time>2026-04-04T09:39:36.316Z</time></trkpt><trkpt lat="43.5271682" lon="11.9442893"><ele>363.0</ele><time>2026-04-04T09:39:38.316Z</time></trkpt><trkpt lat="43.5272198" lon="11.9441782"><ele>363.0</ele><time>2026-04-04T09:39:41.316Z</time></trkpt><trkpt lat="43.5272508" lon="11.9440992"><ele>363.0</ele><time>2026-04-04T09:39:44.316Z</time></trkpt><trkpt lat="43.5272918" lon="11.9439912"><ele>362.0</ele><time>2026-04-04T09:39:47.315Z</time></trkpt><trkpt lat="43.5273489" lon="11.9438784"><ele>361.0</ele><time>2026-04-04T09:39:49.316Z</time></trkpt><trkpt lat="43.5274659" lon="11.9437996"><ele>360.0</ele><time>2026-04-04T09:39:51.316Z</time></trkpt><trkpt lat="43.5275444" lon="11.9438799"><ele>359.0</ele><time>2026-04-04T09:39:53.316Z</time></trkpt><trkpt lat="43.5276125" lon="11.9439477"><ele>358.0</ele><time>2026-04-04T09:39:55.316Z</time></trkpt><trkpt lat="43.5277118" lon="11.9439957"><ele>358.0</ele><time>2026-04-04T09:39:58.316Z</time></trkpt><trkpt lat="43.527793" lon="11.9440484"><ele>358.0</ele><time>2026-04-04T09:40:00.316Z</time></trkpt><trkpt lat="43.5278641" lon="11.9441018"><ele>358.0</ele><time>2026-04-04T09:40:02.316Z</time></trkpt><trkpt lat="43.5279104" lon="11.9441622"><ele>358.0</ele><time>2026-04-04T09:40:05.316Z</time></trkpt><trkpt lat="43.5279745" lon="11.9441854"><ele>358.0</ele><time>2026-04-04T09:40:07.316Z</time></trkpt><trkpt lat="43.528068" lon="11.9441877"><ele>358.0</ele><time>2026-04-04T09:40:09.315Z</time></trkpt><trkpt lat="43.5281515" lon="11.9441404"><ele>358.16666666666663</ele><time>2026-04-04T09:40:10.317Z</time></trkpt><trkpt lat="43.5282479" lon="11.9441288"><ele>358.3333333333333</ele><time>2026-04-04T09:40:11.316Z</time></trkpt><trkpt lat="43.5283167" lon="11.9441322"><ele>358.5</ele><time>2026-04-04T09:40:12.316Z</time></trkpt><trkpt lat="43.5283933" lon="11.9441595"><ele>358.6666666666667</ele><time>2026-04-04T09:40:13.316Z</time></trkpt><trkpt lat="43.5284733" lon="11.9441251"><ele>358.83333333333337</ele><time>2026-04-04T09:40:15.315Z</time></trkpt><trkpt lat="43.528546" lon="11.9440464"><ele>359.0</ele><time>2026-04-04T09:40:17.316Z</time></trkpt><trkpt lat="43.5286107" lon="11.9439833"><ele>359.0</ele><time>2026-04-04T09:40:19.316Z</time></trkpt><trkpt lat="43.5286536" lon="11.943914"><ele>359.0</ele><time>2026-04-04T09:40:20.316Z</time></trkpt><trkpt lat="43.528709" lon="11.9438673"><ele>359.0</ele><time>2026-04-04T09:40:22.316Z</time></trkpt><trkpt lat="43.5288379" lon="11.9438225"><ele>359.0</ele><time>2026-04-04T09:40:24.316Z</time></trkpt><trkpt lat="43.5289041" lon="11.9437826"><ele>359.0</ele><time>2026-04-04T09:40:25.316Z</time></trkpt><trkpt lat="43.5289688" lon="11.9437175"><ele>359.0</ele><time>2026-04-04T09:40:27.316Z</time></trkpt><trkpt lat="43.5289855" lon="11.943601"><ele>358.83333333333337</ele><time>2026-04-04T09:40:29.316Z</time></trkpt><trkpt lat="43.5289572" lon="11.9434891"><ele>358.6666666666667</ele><time>2026-04-04T09:40:31.316Z</time></trkpt><trkpt lat="43.5289686" lon="11.9433912"><ele>358.5</ele><time>2026-04-04T09:40:33.316Z</time></trkpt><trkpt lat="43.5289982" lon="11.9433033"><ele>358.3333333333333</ele><time>2026-04-04T09:40:35.316Z</time></trkpt><trkpt lat="43.5290759" lon="11.9432243"><ele>358.16666666666663</ele><time>2026-04-04T09:40:38.315Z</time></trkpt><trkpt lat="43.5291435" lon="11.9431746"><ele>358.0</ele><time>2026-04-04T09:40:40.316Z</time></trkpt><trkpt lat="43.5292131" lon="11.9431577"><ele>358.0</ele><time>2026-04-04T09:42:15.316Z</time></trkpt><trkpt lat="43.5292764" lon="11.9431166"><ele>358.0</ele><time>2026-04-04T09:42:17.316Z</time></trkpt><trkpt lat="43.5293733" lon="11.9431337"><ele>358.0</ele><time>2026-04-04T09:42:19.316Z</time></trkpt><trkpt lat="43.5294607" lon="11.9431489"><ele>358.0</ele><time>2026-04-04T09:42:21.315Z</time></trkpt><trkpt lat="43.529552" lon="11.9431566"><ele>358.0</ele><time>2026-04-04T09:42:23.316Z</time></trkpt><trkpt lat="43.5296571" lon="11.9431568"><ele>357.59999999999997</ele><time>2026-04-04T09:42:25.315Z</time></trkpt><trkpt lat="43.5297902" lon="11.9431825"><ele>357.2</ele><time>2026-04-04T09:42:27.316Z</time></trkpt><trkpt lat="43.5298617" lon="11.9431798"><ele>356.8</ele><time>2026-04-04T09:42:28.316Z</time></trkpt><trkpt lat="43.5299413" lon="11.9431557"><ele>356.4</ele><time>2026-04-04T09:42:29.316Z</time></trkpt><trkpt lat="43.5300255" lon="11.9431589"><ele>356.0</ele><time>2026-04-04T09:42:30.316Z</time></trkpt><trkpt lat="43.5301078" lon="11.9431519"><ele>356.0</ele><time>2026-04-04T09:42:31.315Z</time></trkpt><trkpt lat="43.5301876" lon="11.9431794"><ele>356.0</ele><time>2026-04-04T09:42:32.316Z</time></trkpt><trkpt lat="43.5302957" lon="11.9431792"><ele>356.0</ele><time>2026-04-04T09:42:33.316Z</time></trkpt><trkpt lat="43.5303755" lon="11.9431851"><ele>356.0</ele><time>2026-04-04T09:42:34.316Z</time></trkpt><trkpt lat="43.5304741" lon="11.9431955"><ele>356.0</ele><time>2026-04-04T09:42:35.316Z</time></trkpt><trkpt lat="43.5305808" lon="11.9432099"><ele>355.6</ele><time>2026-04-04T09:42:36.316Z</time></trkpt><trkpt lat="43.5306876" lon="11.9432117"><ele>355.20000000000005</ele><time>2026-04-04T09:42:37.315Z</time></trkpt><trkpt lat="43.5307837" lon="11.9432108"><ele>354.79999999999995</ele><time>2026-04-04T09:42:38.316Z</time></trkpt><trkpt lat="43.5308777" lon="11.9432078"><ele>354.4</ele><time>2026-04-04T09:42:39.316Z</time></trkpt><trkpt lat="43.5309796" lon="11.9431991"><ele>354.0</ele><time>2026-04-04T09:42:40.316Z</time></trkpt><trkpt lat="43.5310737" lon="11.9431909"><ele>354.0</ele><time>2026-04-04T09:42:41.316Z</time></trkpt><trkpt lat="43.5311893" lon="11.9431901"><ele>354.0</ele><time>2026-04-04T09:42:42.316Z</time></trkpt><trkpt lat="43.5312735" lon="11.9431779"><ele>354.0</ele><time>2026-04-04T09:42:43.316Z</time></trkpt><trkpt lat="43.5313672" lon="11.9431376"><ele>354.0</ele><time>2026-04-04T09:42:44.316Z</time></trkpt><trkpt lat="43.5314143" lon="11.9430663"><ele>354.0</ele><time>2026-04-04T09:42:45.316Z</time></trkpt><trkpt lat="43.5314746" lon="11.9429803"><ele>355.2</ele><time>2026-04-04T09:42:46.316Z</time></trkpt><trkpt lat="43.531538" lon="11.9428639"><ele>356.4</ele><time>2026-04-04T09:42:47.316Z</time></trkpt><trkpt lat="43.5315881" lon="11.9427399"><ele>357.6</ele><time>2026-04-04T09:42:48.316Z</time></trkpt><trkpt lat="43.5316455" lon="11.9426111"><ele>358.8</ele><time>2026-04-04T09:42:49.316Z</time></trkpt><trkpt lat="43.5317011" lon="11.9424701"><ele>360.0</ele><time>2026-04-04T09:42:50.316Z</time></trkpt><trkpt lat="43.531757" lon="11.9423262"><ele>360.0</ele><time>2026-04-04T09:42:51.316Z</time></trkpt><trkpt lat="43.531812" lon="11.9421881"><ele>360.0</ele><time>2026-04-04T09:42:52.316Z</time></trkpt><trkpt lat="43.5318612" lon="11.9420449"><ele>360.0</ele><time>2026-04-04T09:42:53.316Z</time></trkpt><trkpt lat="43.5319095" lon="11.9419157"><ele>360.0</ele><time>2026-04-04T09:42:54.315Z</time></trkpt><trkpt lat="43.5319526" lon="11.9417921"><ele>360.0</ele><time>2026-04-04T09:42:55.315Z</time></trkpt><trkpt lat="43.5319944" lon="11.9416828"><ele>361.6</ele><time>2026-04-04T09:42:56.315Z</time></trkpt><trkpt lat="43.5320631" lon="11.9415727"><ele>363.2</ele><time>2026-04-04T09:42:57.316Z</time></trkpt><trkpt lat="43.5321371" lon="11.9414744"><ele>364.79999999999995</ele><time>2026-04-04T09:42:58.316Z</time></trkpt><trkpt lat="43.532228" lon="11.9414103"><ele>366.4</ele><time>2026-04-04T09:42:59.316Z</time></trkpt><trkpt lat="43.5323144" lon="11.9413445"><ele>368.0</ele><time>2026-04-04T09:43:00.315Z</time></trkpt><trkpt lat="43.5324173" lon="11.9412912"><ele>368.0</ele><time>2026-04-04T09:43:01.316Z</time></trkpt><trkpt lat="43.5325244" lon="11.9412479"><ele>368.0</ele><time>2026-04-04T09:43:02.316Z</time></trkpt><trkpt lat="43.5326323" lon="11.9411735"><ele>368.0</ele><time>2026-04-04T09:43:03.317Z</time></trkpt><trkpt lat="43.5327524" lon="11.9411286"><ele>368.0</ele><time>2026-04-04T09:43:04.316Z</time></trkpt><trkpt lat="43.5328573" lon="11.941055"><ele>369.59999999999997</ele><time>2026-04-04T09:43:05.316Z</time></trkpt><trkpt lat="43.5329637" lon="11.9410101"><ele>371.2</ele><time>2026-04-04T09:43:06.316Z</time></trkpt><trkpt lat="43.5330695" lon="11.9409647"><ele>372.8</ele><time>2026-04-04T09:43:07.316Z</time></trkpt><trkpt lat="43.5331767" lon="11.940918"><ele>374.4</ele><time>2026-04-04T09:43:08.315Z</time></trkpt><trkpt lat="43.5332793" lon="11.9408539"><ele>376.0</ele><time>2026-04-04T09:43:09.316Z</time></trkpt><trkpt lat="43.5333827" lon="11.9408118"><ele>371.0</ele><time>2026-04-04T09:43:10.316Z</time></trkpt><trkpt lat="43.5334843" lon="11.9407623"><ele>366.0</ele><time>2026-04-04T09:43:11.315Z</time></trkpt><trkpt lat="43.5335915" lon="11.9407673"><ele>361.0</ele><time>2026-04-04T09:43:12.316Z</time></trkpt><trkpt lat="43.5336909" lon="11.9407813"><ele>356.0</ele><time>2026-04-04T09:43:13.317Z</time></trkpt><trkpt lat="43.5337682" lon="11.9408282"><ele>351.0</ele><time>2026-04-04T09:43:14.316Z</time></trkpt><trkpt lat="43.533847" lon="11.9408819"><ele>353.6</ele><time>2026-04-04T09:43:15.316Z</time></trkpt><trkpt lat="43.5339249" lon="11.9409301"><ele>356.20000000000005</ele><time>2026-04-04T09:43:16.316Z</time></trkpt><trkpt lat="43.5340021" lon="11.9409646"><ele>358.79999999999995</ele><time>2026-04-04T09:43:17.315Z</time></trkpt><trkpt lat="43.5340916" lon="11.9409715"><ele>361.4</ele><time>2026-04-04T09:43:18.316Z</time></trkpt><trkpt lat="43.5341837" lon="11.9409687"><ele>364.0</ele><time>2026-04-04T09:43:19.316Z</time></trkpt><trkpt lat="43.5342854" lon="11.9409575"><ele>364.0</ele><time>2026-04-04T09:43:20.316Z</time></trkpt><trkpt lat="43.5343885" lon="11.9409341"><ele>364.0</ele><time>2026-04-04T09:43:21.316Z</time></trkpt><trkpt lat="43.5344897" lon="11.9409014"><ele>364.0</ele><time>2026-04-04T09:43:22.316Z</time></trkpt><trkpt lat="43.5345934" lon="11.9408654"><ele>364.0</ele><time>2026-04-04T09:43:23.315Z</time></trkpt><trkpt lat="43.5346779" lon="11.9407856"><ele>364.0</ele><time>2026-04-04T09:43:24.316Z</time></trkpt><trkpt lat="43.5347666" lon="11.9406983"><ele>364.4</ele><time>2026-04-04T09:43:25.316Z</time></trkpt><trkpt lat="43.5348509" lon="11.9406043"><ele>364.79999999999995</ele><time>2026-04-04T09:43:26.316Z</time></trkpt><trkpt lat="43.5349369" lon="11.9405083"><ele>365.20000000000005</ele><time>2026-04-04T09:43:27.316Z</time></trkpt><trkpt lat="43.5350196" lon="11.9404195"><ele>365.6</ele><time>2026-04-04T09:43:28.316Z</time></trkpt><trkpt lat="43.5350985" lon="11.9403109"><ele>366.0</ele><time>2026-04-04T09:43:29.315Z</time></trkpt><trkpt lat="43.5351817" lon="11.9402179"><ele>366.0</ele><time>2026-04-04T09:43:30.316Z</time></trkpt><trkpt lat="43.5352704" lon="11.940135"><ele>366.0</ele><time>2026-04-04T09:43:31.315Z</time></trkpt><trkpt lat="43.5353706" lon="11.94007"><ele>366.0</ele><time>2026-04-04T09:43:32.316Z</time></trkpt><trkpt lat="43.5354682" lon="11.9400101"><ele>366.0</ele><time>2026-04-04T09:43:33.316Z</time></trkpt><trkpt lat="43.5355741" lon="11.9399537"><ele>366.0</ele><time>2026-04-04T09:43:34.316Z</time></trkpt><trkpt lat="43.5356712" lon="11.9399014"><ele>365.4</ele><time>2026-04-04T09:43:35.316Z</time></trkpt><trkpt lat="43.5357808" lon="11.9398512"><ele>364.8</ele><time>2026-04-04T09:43:36.315Z</time></trkpt><trkpt lat="43.5358892" lon="11.9398079"><ele>364.2</ele><time>2026-04-04T09:43:37.317Z</time></trkpt><trkpt lat="43.535999" lon="11.9397699"><ele>363.59999999999997</ele><time>2026-04-04T09:43:38.316Z</time></trkpt><trkpt lat="43.5361017" lon="11.9397652"><ele>363.0</ele><time>2026-04-04T09:43:39.316Z</time></trkpt><trkpt lat="43.5362152" lon="11.939739"><ele>363.4</ele><time>2026-04-04T09:43:40.316Z</time></trkpt><trkpt lat="43.5363306" lon="11.9396936"><ele>363.79999999999995</ele><time>2026-04-04T09:43:41.316Z</time></trkpt><trkpt lat="43.536444" lon="11.9396942"><ele>364.2</ele><time>2026-04-04T09:43:42.316Z</time></trkpt><trkpt lat="43.5365485" lon="11.9396761"><ele>364.6</ele><time>2026-04-04T09:43:43.316Z</time></trkpt><trkpt lat="43.5366526" lon="11.9396819"><ele>365.0</ele><time>2026-04-04T09:43:44.316Z</time></trkpt><trkpt lat="43.536742" lon="11.9396988"><ele>365.0</ele><time>2026-04-04T09:43:45.316Z</time></trkpt><trkpt lat="43.5368299" lon="11.9397428"><ele>365.0</ele><time>2026-04-04T09:43:46.315Z</time></trkpt><trkpt lat="43.5369129" lon="11.9398105"><ele>365.0</ele><time>2026-04-04T09:43:47.316Z</time></trkpt><trkpt lat="43.5369833" lon="11.939901"><ele>365.0</ele><time>2026-04-04T09:43:48.316Z</time></trkpt><trkpt lat="43.5370494" lon="11.9400123"><ele>365.0</ele><time>2026-04-04T09:43:49.316Z</time></trkpt><trkpt lat="43.5371155" lon="11.9401304"><ele>364.25</ele><time>2026-04-04T09:43:50.316Z</time></trkpt><trkpt lat="43.5371775" lon="11.9402523"><ele>363.5</ele><time>2026-04-04T09:43:51.316Z</time></trkpt><trkpt lat="43.5372452" lon="11.9403782"><ele>362.75</ele><time>2026-04-04T09:43:52.316Z</time></trkpt><trkpt lat="43.5373247" lon="11.9404988"><ele>362.0</ele><time>2026-04-04T09:43:53.316Z</time></trkpt><trkpt lat="43.5374052" lon="11.9406056"><ele>362.0</ele><time>2026-04-04T09:43:54.316Z</time></trkpt><trkpt lat="43.5374746" lon="11.9407137"><ele>362.0</ele><time>2026-04-04T09:43:55.316Z</time></trkpt><trkpt lat="43.5375435" lon="11.9408237"><ele>362.0</ele><time>2026-04-04T09:43:56.315Z</time></trkpt><trkpt lat="43.5375928" lon="11.9409095"><ele>362.0</ele><time>2026-04-04T09:43:57.315Z</time></trkpt><trkpt lat="43.5376503" lon="11.9410215"><ele>362.0</ele><time>2026-04-04T09:43:58.315Z</time></trkpt><trkpt lat="43.5376971" lon="11.9411174"><ele>363.33333333333337</ele><time>2026-04-04T09:43:59.316Z</time></trkpt><trkpt lat="43.5377498" lon="11.9412181"><ele>364.6666666666667</ele><time>2026-04-04T09:44:00.315Z</time></trkpt><trkpt lat="43.5378409" lon="11.9412628"><ele>366.0</ele><time>2026-04-04T09:44:01.316Z</time></trkpt><trkpt lat="43.5379115" lon="11.9413125"><ele>367.3333333333333</ele><time>2026-04-04T09:44:02.316Z</time></trkpt><trkpt lat="43.537984" lon="11.9413393"><ele>368.66666666666663</ele><time>2026-04-04T09:44:03.316Z</time></trkpt><trkpt lat="43.5380731" lon="11.9413318"><ele>370.0</ele><time>2026-04-04T09:44:04.315Z</time></trkpt><trkpt lat="43.5382155" lon="11.9412209"><ele>370.0</ele><time>2026-04-04T09:44:06.316Z</time></trkpt><trkpt lat="43.5382828" lon="11.9411519"><ele>370.0</ele><time>2026-04-04T09:44:07.316Z</time></trkpt><trkpt lat="43.5383499" lon="11.9410739"><ele>370.0</ele><time>2026-04-04T09:44:08.316Z</time></trkpt><trkpt lat="43.5384245" lon="11.9409623"><ele>370.0</ele><time>2026-04-04T09:44:09.315Z</time></trkpt><trkpt lat="43.5385075" lon="11.9408754"><ele>370.0</ele><time>2026-04-04T09:44:10.316Z</time></trkpt><trkpt lat="43.5385754" lon="11.9408409"><ele>368.0</ele><time>2026-04-04T09:44:11.316Z</time></trkpt><trkpt lat="43.5386524" lon="11.940786"><ele>366.0</ele><time>2026-04-04T09:44:12.316Z</time></trkpt><trkpt lat="43.538746" lon="11.9406781"><ele>364.0</ele><time>2026-04-04T09:44:13.316Z</time></trkpt><trkpt lat="43.5388532" lon="11.9406484"><ele>362.0</ele><time>2026-04-04T09:44:14.316Z</time></trkpt><trkpt lat="43.5389485" lon="11.940661"><ele>360.0</ele><time>2026-04-04T09:44:15.316Z</time></trkpt><trkpt lat="43.5390531" lon="11.9406676"><ele>360.0</ele><time>2026-04-04T09:44:16.316Z</time></trkpt><trkpt lat="43.5391791" lon="11.9406882"><ele>360.0</ele><time>2026-04-04T09:44:17.315Z</time></trkpt><trkpt lat="43.5392859" lon="11.9407026"><ele>360.0</ele><time>2026-04-04T09:44:18.316Z</time></trkpt><trkpt lat="43.5394124" lon="11.9407185"><ele>360.0</ele><time>2026-04-04T09:44:19.315Z</time></trkpt><trkpt lat="43.53953" lon="11.9407291"><ele>359.8</ele><time>2026-04-04T09:44:20.316Z</time></trkpt><trkpt lat="43.5396473" lon="11.9407332"><ele>359.6</ele><time>2026-04-04T09:44:21.315Z</time></trkpt><trkpt lat="43.5397537" lon="11.9407511"><ele>359.4</ele><time>2026-04-04T09:44:22.316Z</time></trkpt><trkpt lat="43.5398602" lon="11.9407761"><ele>359.2</ele><time>2026-04-04T09:44:23.315Z</time></trkpt><trkpt lat="43.5399667" lon="11.9407815"><ele>359.0</ele><time>2026-04-04T09:44:24.316Z</time></trkpt><trkpt lat="43.5400678" lon="11.9407878"><ele>359.0</ele><time>2026-04-04T09:44:25.316Z</time></trkpt><trkpt lat="43.5401806" lon="11.9407848"><ele>359.0</ele><time>2026-04-04T09:44:26.316Z</time></trkpt><trkpt lat="43.5403053" lon="11.9407937"><ele>359.0</ele><time>2026-04-04T09:44:27.316Z</time></trkpt><trkpt lat="43.5403939" lon="11.940758"><ele>359.0</ele><time>2026-04-04T09:44:28.316Z</time></trkpt><trkpt lat="43.5404864" lon="11.9407332"><ele>359.0</ele><time>2026-04-04T09:44:29.316Z</time></trkpt><trkpt lat="43.5405664" lon="11.9407099"><ele>360.0</ele><time>2026-04-04T09:44:30.316Z</time></trkpt><trkpt lat="43.5406542" lon="11.9406641"><ele>361.0</ele><time>2026-04-04T09:44:31.316Z</time></trkpt><trkpt lat="43.5407356" lon="11.9405787"><ele>362.0</ele><time>2026-04-04T09:44:32.316Z</time></trkpt><trkpt lat="43.5408098" lon="11.9404815"><ele>363.0</ele><time>2026-04-04T09:44:33.316Z</time></trkpt><trkpt lat="43.5408965" lon="11.9403723"><ele>364.0</ele><time>2026-04-04T09:44:34.316Z</time></trkpt><trkpt lat="43.5409757" lon="11.9402625"><ele>364.0</ele><time>2026-04-04T09:44:35.316Z</time></trkpt><trkpt lat="43.5410618" lon="11.9401565"><ele>364.0</ele><time>2026-04-04T09:44:36.316Z</time></trkpt><trkpt lat="43.5411458" lon="11.9400627"><ele>364.0</ele><time>2026-04-04T09:44:37.316Z</time></trkpt><trkpt lat="43.5412161" lon="11.939962"><ele>364.0</ele><time>2026-04-04T09:44:38.316Z</time></trkpt><trkpt lat="43.5412864" lon="11.9398585"><ele>364.0</ele><time>2026-04-04T09:44:39.317Z</time></trkpt><trkpt lat="43.5413542" lon="11.9397518"><ele>361.4</ele><time>2026-04-04T09:44:40.316Z</time></trkpt><trkpt lat="43.5414197" lon="11.9396317"><ele>358.79999999999995</ele><time>2026-04-04T09:44:41.316Z</time></trkpt><trkpt lat="43.5414808" lon="11.93952"><ele>356.20000000000005</ele><time>2026-04-04T09:44:42.316Z</time></trkpt><trkpt lat="43.5415565" lon="11.9393988"><ele>353.6</ele><time>2026-04-04T09:44:43.316Z</time></trkpt><trkpt lat="43.5416289" lon="11.9392674"><ele>351.0</ele><time>2026-04-04T09:44:44.316Z</time></trkpt><trkpt lat="43.5417004" lon="11.9391459"><ele>347.4</ele><time>2026-04-04T09:44:45.316Z</time></trkpt><trkpt lat="43.5417729" lon="11.9390371"><ele>343.8</ele><time>2026-04-04T09:44:46.315Z</time></trkpt><trkpt lat="43.5418448" lon="11.9389226"><ele>340.2</ele><time>2026-04-04T09:44:47.316Z</time></trkpt><trkpt lat="43.5418975" lon="11.9388016"><ele>336.59999999999997</ele><time>2026-04-04T09:44:48.316Z</time></trkpt><trkpt lat="43.5419657" lon="11.9386965"><ele>333.0</ele><time>2026-04-04T09:44:49.315Z</time></trkpt><trkpt lat="43.5420288" lon="11.9385769"><ele>333.79999999999995</ele><time>2026-04-04T09:44:50.316Z</time></trkpt><trkpt lat="43.5420955" lon="11.9384622"><ele>334.6</ele><time>2026-04-04T09:44:51.315Z</time></trkpt><trkpt lat="43.5421739" lon="11.9383515"><ele>335.4</ele><time>2026-04-04T09:44:52.316Z</time></trkpt><trkpt lat="43.5422431" lon="11.9382362"><ele>336.20000000000005</ele><time>2026-04-04T09:44:53.316Z</time></trkpt><trkpt lat="43.5423202" lon="11.9381592"><ele>337.0</ele><time>2026-04-04T09:44:54.315Z</time></trkpt><trkpt lat="43.5423912" lon="11.9380067"><ele>337.0</ele><time>2026-04-04T09:44:55.315Z</time></trkpt><trkpt lat="43.5424609" lon="11.9378806"><ele>337.0</ele><time>2026-04-04T09:44:56.315Z</time></trkpt><trkpt lat="43.5425142" lon="11.9377976"><ele>337.0</ele><time>2026-04-04T09:44:57.317Z</time></trkpt><trkpt lat="43.5425463" lon="11.937689"><ele>337.0</ele><time>2026-04-04T09:44:58.316Z</time></trkpt><trkpt lat="43.5425718" lon="11.9375777"><ele>337.0</ele><time>2026-04-04T09:44:59.316Z</time></trkpt><trkpt lat="43.5426046" lon="11.9374657"><ele>338.0</ele><time>2026-04-04T09:45:00.316Z</time></trkpt><trkpt lat="43.5426458" lon="11.9373646"><ele>339.0</ele><time>2026-04-04T09:45:01.316Z</time></trkpt><trkpt lat="43.5426978" lon="11.9372796"><ele>340.0</ele><time>2026-04-04T09:45:02.316Z</time></trkpt><trkpt lat="43.5427674" lon="11.9372455"><ele>341.0</ele><time>2026-04-04T09:45:03.316Z</time></trkpt><trkpt lat="43.5428266" lon="11.9371541"><ele>342.0</ele><time>2026-04-04T09:45:04.317Z</time></trkpt><trkpt lat="43.5428812" lon="11.9370583"><ele>343.0</ele><time>2026-04-04T09:45:05.317Z</time></trkpt><trkpt lat="43.5429382" lon="11.9369559"><ele>343.0</ele><time>2026-04-04T09:45:06.317Z</time></trkpt><trkpt lat="43.5430006" lon="11.9368463"><ele>343.0</ele><time>2026-04-04T09:45:07.316Z</time></trkpt><trkpt lat="43.5430619" lon="11.9367432"><ele>343.0</ele><time>2026-04-04T09:45:08.316Z</time></trkpt><trkpt lat="43.5431369" lon="11.9366506"><ele>343.0</ele><time>2026-04-04T09:45:09.315Z</time></trkpt><trkpt lat="43.5432187" lon="11.9365544"><ele>343.0</ele><time>2026-04-04T09:45:10.315Z</time></trkpt><trkpt lat="43.5432949" lon="11.9364647"><ele>340.2</ele><time>2026-04-04T09:45:11.316Z</time></trkpt><trkpt lat="43.543372" lon="11.9363662"><ele>337.4</ele><time>2026-04-04T09:45:12.316Z</time></trkpt><trkpt lat="43.5434459" lon="11.9362929"><ele>334.59999999999997</ele><time>2026-04-04T09:45:13.316Z</time></trkpt><trkpt lat="43.5435249" lon="11.9362091"><ele>331.79999999999995</ele><time>2026-04-04T09:45:14.316Z</time></trkpt><trkpt lat="43.5436041" lon="11.936139"><ele>329.0</ele><time>2026-04-04T09:45:15.316Z</time></trkpt><trkpt lat="43.5436848" lon="11.9360659"><ele>328.4</ele><time>2026-04-04T09:45:16.316Z</time></trkpt><trkpt lat="43.5437667" lon="11.9359862"><ele>327.79999999999995</ele><time>2026-04-04T09:45:17.315Z</time></trkpt><trkpt lat="43.5438464" lon="11.9359331"><ele>327.20000000000005</ele><time>2026-04-04T09:45:18.316Z</time></trkpt><trkpt lat="43.543922" lon="11.9358672"><ele>326.6</ele><time>2026-04-04T09:45:19.316Z</time></trkpt><trkpt lat="43.5439928" lon="11.9357887"><ele>326.0</ele><time>2026-04-04T09:45:20.316Z</time></trkpt><trkpt lat="43.5440603" lon="11.9357151"><ele>326.0</ele><time>2026-04-04T09:45:21.316Z</time></trkpt><trkpt lat="43.544115" lon="11.9356517"><ele>326.0</ele><time>2026-04-04T09:45:22.316Z</time></trkpt><trkpt lat="43.5441766" lon="11.9355917"><ele>326.0</ele><time>2026-04-04T09:45:23.316Z</time></trkpt><trkpt lat="43.5442489" lon="11.9355705"><ele>326.0</ele><time>2026-04-04T09:45:24.316Z</time></trkpt><trkpt lat="43.5443037" lon="11.9355015"><ele>326.0</ele><time>2026-04-04T09:45:25.316Z</time></trkpt><trkpt lat="43.5443704" lon="11.9354016"><ele>326.0</ele><time>2026-04-04T09:45:26.316Z</time></trkpt><trkpt lat="43.544434" lon="11.9353356"><ele>326.0</ele><time>2026-04-04T09:45:27.317Z</time></trkpt><trkpt lat="43.5445059" lon="11.9352673"><ele>326.0</ele><time>2026-04-04T09:45:28.316Z</time></trkpt><trkpt lat="43.5445996" lon="11.9352064"><ele>326.0</ele><time>2026-04-04T09:45:29.316Z</time></trkpt><trkpt lat="43.5446766" lon="11.9351377"><ele>326.0</ele><time>2026-04-04T09:45:30.316Z</time></trkpt><trkpt lat="43.5447661" lon="11.9350799"><ele>326.0</ele><time>2026-04-04T09:45:31.316Z</time></trkpt><trkpt lat="43.544839" lon="11.9350236"><ele>324.6</ele><time>2026-04-04T09:45:32.316Z</time></trkpt><trkpt lat="43.5449331" lon="11.9349753"><ele>323.20000000000005</ele><time>2026-04-04T09:45:33.316Z</time></trkpt><trkpt lat="43.5450188" lon="11.9349116"><ele>321.79999999999995</ele><time>2026-04-04T09:45:34.315Z</time></trkpt><trkpt lat="43.5451007" lon="11.9348318"><ele>320.4</ele><time>2026-04-04T09:45:35.316Z</time></trkpt><trkpt lat="43.545182" lon="11.934749"><ele>319.0</ele><time>2026-04-04T09:45:36.316Z</time></trkpt><trkpt lat="43.5452707" lon="11.9346754"><ele>319.0</ele><time>2026-04-04T09:45:37.316Z</time></trkpt><trkpt lat="43.5453716" lon="11.9346053"><ele>319.0</ele><time>2026-04-04T09:45:38.316Z</time></trkpt><trkpt lat="43.5454351" lon="11.9345079"><ele>319.0</ele><time>2026-04-04T09:45:39.316Z</time></trkpt><trkpt lat="43.5455246" lon="11.9344435"><ele>319.0</ele><time>2026-04-04T09:45:40.316Z</time></trkpt><trkpt lat="43.5456064" lon="11.934368"><ele>319.0</ele><time>2026-04-04T09:45:41.316Z</time></trkpt><trkpt lat="43.5456744" lon="11.9343141"><ele>320.2</ele><time>2026-04-04T09:45:42.316Z</time></trkpt><trkpt lat="43.5457473" lon="11.9342635"><ele>321.4</ele><time>2026-04-04T09:45:43.315Z</time></trkpt><trkpt lat="43.5458168" lon="11.9342164"><ele>322.6</ele><time>2026-04-04T09:45:44.317Z</time></trkpt><trkpt lat="43.5459049" lon="11.9341687"><ele>323.8</ele><time>2026-04-04T09:45:46.316Z</time></trkpt><trkpt lat="43.546005" lon="11.9341159"><ele>325.0</ele><time>2026-04-04T09:45:48.316Z</time></trkpt><trkpt lat="43.5460926" lon="11.9340326"><ele>323.3333333333333</ele><time>2026-04-04T09:45:50.316Z</time></trkpt><trkpt lat="43.5461557" lon="11.934005"><ele>321.66666666666663</ele><time>2026-04-04T09:45:51.316Z</time></trkpt><trkpt lat="43.5462807" lon="11.9340058"><ele>320.0</ele><time>2026-04-04T09:45:53.316Z</time></trkpt><trkpt lat="43.5463547" lon="11.9340114"><ele>318.3333333333333</ele><time>2026-04-04T09:45:54.316Z</time></trkpt><trkpt lat="43.5464212" lon="11.9340026"><ele>316.6666666666667</ele><time>2026-04-04T09:45:55.316Z</time></trkpt><trkpt lat="43.5464956" lon="11.9339864"><ele>315.0</ele><time>2026-04-04T09:45:56.316Z</time></trkpt><trkpt lat="43.5465617" lon="11.9339671"><ele>315.0</ele><time>2026-04-04T09:45:57.316Z</time></trkpt><trkpt lat="43.546642" lon="11.9339517"><ele>315.0</ele><time>2026-04-04T09:45:58.316Z</time></trkpt><trkpt lat="43.5467289" lon="11.9339426"><ele>315.0</ele><time>2026-04-04T09:45:59.316Z</time></trkpt><trkpt lat="43.546793" lon="11.9338912"><ele>315.0</ele><time>2026-04-04T09:46:00.316Z</time></trkpt><trkpt lat="43.546899" lon="11.9338034"><ele>315.0</ele><time>2026-04-04T09:46:02.315Z</time></trkpt><trkpt lat="43.5469892" lon="11.9337801"><ele>318.1666666666667</ele><time>2026-04-04T09:46:03.316Z</time></trkpt><trkpt lat="43.5470709" lon="11.9337488"><ele>321.3333333333333</ele><time>2026-04-04T09:46:04.316Z</time></trkpt><trkpt lat="43.5471386" lon="11.933717"><ele>324.5</ele><time>2026-04-04T09:46:05.316Z</time></trkpt><trkpt lat="43.5472087" lon="11.9336827"><ele>327.66666666666663</ele><time>2026-04-04T09:46:06.316Z</time></trkpt><trkpt lat="43.5473193" lon="11.9335842"><ele>330.8333333333333</ele><time>2026-04-04T09:46:08.315Z</time></trkpt><trkpt lat="43.5473704" lon="11.933532"><ele>334.0</ele><time>2026-04-04T09:46:09.316Z</time></trkpt><trkpt lat="43.5474221" lon="11.933465"><ele>331.16666666666663</ele><time>2026-04-04T09:46:10.316Z</time></trkpt><trkpt lat="43.5474763" lon="11.9333877"><ele>328.3333333333333</ele><time>2026-04-04T09:46:11.316Z</time></trkpt><trkpt lat="43.5475318" lon="11.9333028"><ele>325.5</ele><time>2026-04-04T09:46:12.316Z</time></trkpt><trkpt lat="43.5475805" lon="11.9332094"><ele>322.6666666666667</ele><time>2026-04-04T09:46:13.316Z</time></trkpt><trkpt lat="43.5476265" lon="11.933097"><ele>319.83333333333337</ele><time>2026-04-04T09:46:14.316Z</time></trkpt><trkpt lat="43.547682" lon="11.9329858"><ele>317.0</ele><time>2026-04-04T09:46:15.316Z</time></trkpt><trkpt lat="43.5477426" lon="11.9328575"><ele>317.0</ele><time>2026-04-04T09:46:16.316Z</time></trkpt><trkpt lat="43.547805" lon="11.932711"><ele>317.0</ele><time>2026-04-04T09:46:17.315Z</time></trkpt><trkpt lat="43.5478685" lon="11.9325774"><ele>317.0</ele><time>2026-04-04T09:46:18.315Z</time></trkpt><trkpt lat="43.5479229" lon="11.9324662"><ele>317.0</ele><time>2026-04-04T09:46:19.316Z</time></trkpt><trkpt lat="43.5479682" lon="11.9323534"><ele>317.0</ele><time>2026-04-04T09:46:20.315Z</time></trkpt><trkpt lat="43.5480045" lon="11.9322403"><ele>316.6666666666667</ele><time>2026-04-04T09:46:21.316Z</time></trkpt><trkpt lat="43.5480376" lon="11.9321275"><ele>316.33333333333337</ele><time>2026-04-04T09:46:22.316Z</time></trkpt><trkpt lat="43.548073" lon="11.9320226"><ele>316.0</ele><time>2026-04-04T09:46:23.316Z</time></trkpt><trkpt lat="43.5481049" lon="11.9319176"><ele>315.6666666666667</ele><time>2026-04-04T09:46:24.316Z</time></trkpt><trkpt lat="43.5481325" lon="11.9318216"><ele>315.3333333333333</ele><time>2026-04-04T09:46:25.316Z</time></trkpt><trkpt lat="43.5481622" lon="11.9317231"><ele>315.0</ele><time>2026-04-04T09:46:26.315Z</time></trkpt><trkpt lat="43.5481898" lon="11.9316269"><ele>315.0</ele><time>2026-04-04T09:46:27.317Z</time></trkpt><trkpt lat="43.5482219" lon="11.9315354"><ele>315.0</ele><time>2026-04-04T09:46:28.317Z</time></trkpt><trkpt lat="43.5482527" lon="11.9314513"><ele>315.0</ele><time>2026-04-04T09:46:29.316Z</time></trkpt><trkpt lat="43.5482851" lon="11.9313653"><ele>315.0</ele><time>2026-04-04T09:46:30.316Z</time></trkpt><trkpt lat="43.5483645" lon="11.9312586"><ele>315.0</ele><time>2026-04-04T09:46:32.316Z</time></trkpt><trkpt lat="43.5484189" lon="11.9312111"><ele>315.0</ele><time>2026-04-04T09:46:33.316Z</time></trkpt><trkpt lat="43.5484872" lon="11.9311759"><ele>315.0</ele><time>2026-04-04T09:46:34.317Z</time></trkpt><trkpt lat="43.5485624" lon="11.931151"><ele>315.0</ele><time>2026-04-04T09:46:35.316Z</time></trkpt><trkpt lat="43.5486383" lon="11.9311451"><ele>315.0</ele><time>2026-04-04T09:46:36.315Z</time></trkpt><trkpt lat="43.5487096" lon="11.9311524"><ele>315.0</ele><time>2026-04-04T09:46:37.316Z</time></trkpt><trkpt lat="43.5487765" lon="11.9311748"><ele>315.0</ele><time>2026-04-04T09:46:38.316Z</time></trkpt><trkpt lat="43.5488356" lon="11.9312128"><ele>315.0</ele><time>2026-04-04T09:46:39.316Z</time></trkpt><trkpt lat="43.5488974" lon="11.9312555"><ele>315.0</ele><time>2026-04-04T09:46:40.316Z</time></trkpt><trkpt lat="43.5489619" lon="11.9313018"><ele>315.6666666666667</ele><time>2026-04-04T09:46:41.315Z</time></trkpt><trkpt lat="43.5490275" lon="11.9313525"><ele>316.3333333333333</ele><time>2026-04-04T09:46:42.316Z</time></trkpt><trkpt lat="43.5490976" lon="11.9314018"><ele>317.0</ele><time>2026-04-04T09:46:43.316Z</time></trkpt><trkpt lat="43.549175" lon="11.9314489"><ele>317.66666666666663</ele><time>2026-04-04T09:46:44.316Z</time></trkpt><trkpt lat="43.5492546" lon="11.9315052"><ele>318.3333333333333</ele><time>2026-04-04T09:46:45.316Z</time></trkpt><trkpt lat="43.5493308" lon="11.931574"><ele>319.0</ele><time>2026-04-04T09:46:46.316Z</time></trkpt><trkpt lat="43.5494125" lon="11.9316487"><ele>319.0</ele><time>2026-04-04T09:46:47.316Z</time></trkpt><trkpt lat="43.549502" lon="11.9317122"><ele>319.0</ele><time>2026-04-04T09:46:48.316Z</time></trkpt><trkpt lat="43.5495955" lon="11.9317745"><ele>319.0</ele><time>2026-04-04T09:46:49.316Z</time></trkpt><trkpt lat="43.5496937" lon="11.9318416"><ele>319.0</ele><time>2026-04-04T09:46:50.315Z</time></trkpt><trkpt lat="43.5497963" lon="11.931915"><ele>319.0</ele><time>2026-04-04T09:46:51.316Z</time></trkpt><trkpt lat="43.5500097" lon="11.9320254"><ele>318.66666666666663</ele><time>2026-04-04T09:46:53.316Z</time></trkpt><trkpt lat="43.5501104" lon="11.9320426"><ele>318.3333333333333</ele><time>2026-04-04T09:46:54.317Z</time></trkpt><trkpt lat="43.5501993" lon="11.9320449"><ele>318.0</ele><time>2026-04-04T09:46:55.316Z</time></trkpt><trkpt lat="43.550278" lon="11.9320393"><ele>317.6666666666667</ele><time>2026-04-04T09:46:56.316Z</time></trkpt><trkpt lat="43.550346" lon="11.9320416"><ele>317.33333333333337</ele><time>2026-04-04T09:46:57.316Z</time></trkpt><trkpt lat="43.5504157" lon="11.9320475"><ele>317.0</ele><time>2026-04-04T09:46:59.316Z</time></trkpt><trkpt lat="43.5504839" lon="11.9320223"><ele>317.83333333333337</ele><time>2026-04-04T09:47:02.316Z</time></trkpt><trkpt lat="43.5505453" lon="11.9319041"><ele>318.6666666666667</ele><time>2026-04-04T09:47:04.316Z</time></trkpt><trkpt lat="43.5505769" lon="11.9318238"><ele>319.5</ele><time>2026-04-04T09:47:05.316Z</time></trkpt><trkpt lat="43.5506237" lon="11.9317349"><ele>320.3333333333333</ele><time>2026-04-04T09:47:06.316Z</time></trkpt><trkpt lat="43.5506798" lon="11.931647"><ele>321.16666666666663</ele><time>2026-04-04T09:47:07.316Z</time></trkpt><trkpt lat="43.5507455" lon="11.9315515"><ele>322.0</ele><time>2026-04-04T09:47:08.316Z</time></trkpt><trkpt lat="43.5508166" lon="11.9314504"><ele>322.0</ele><time>2026-04-04T09:47:09.316Z</time></trkpt><trkpt lat="43.5508887" lon="11.931351"><ele>322.0</ele><time>2026-04-04T09:47:10.315Z</time></trkpt><trkpt lat="43.5509498" lon="11.931241"><ele>322.0</ele><time>2026-04-04T09:47:11.316Z</time></trkpt><trkpt lat="43.5510078" lon="11.9311159"><ele>322.0</ele><time>2026-04-04T09:47:12.316Z</time></trkpt><trkpt lat="43.5510579" lon="11.9309767"><ele>322.0</ele><time>2026-04-04T09:47:13.316Z</time></trkpt><trkpt lat="43.5511006" lon="11.9308279"><ele>320.0</ele><time>2026-04-04T09:47:14.316Z</time></trkpt><trkpt lat="43.5511364" lon="11.9306717"><ele>318.0</ele><time>2026-04-04T09:47:15.316Z</time></trkpt><trkpt lat="43.5511703" lon="11.930512"><ele>316.0</ele><time>2026-04-04T09:47:16.316Z</time></trkpt><trkpt lat="43.5512041" lon="11.9303486"><ele>314.0</ele><time>2026-04-04T09:47:17.316Z</time></trkpt><trkpt lat="43.5512368" lon="11.9301881"><ele>314.0</ele><time>2026-04-04T09:47:18.316Z</time></trkpt><trkpt lat="43.5512695" lon="11.9300397"><ele>314.0</ele><time>2026-04-04T09:47:19.316Z</time></trkpt><trkpt lat="43.5512987" lon="11.9299039"><ele>314.0</ele><time>2026-04-04T09:47:20.316Z</time></trkpt><trkpt lat="43.5513226" lon="11.9297754"><ele>314.0</ele><time>2026-04-04T09:47:21.316Z</time></trkpt><trkpt lat="43.5513374" lon="11.9296593"><ele>314.0</ele><time>2026-04-04T09:47:22.316Z</time></trkpt><trkpt lat="43.5513412" lon="11.9295333"><ele>314.0</ele><time>2026-04-04T09:47:23.316Z</time></trkpt><trkpt lat="43.5513235" lon="11.9294033"><ele>314.0</ele><time>2026-04-04T09:47:24.316Z</time></trkpt><trkpt lat="43.5512811" lon="11.9292828"><ele>314.0</ele><time>2026-04-04T09:47:25.316Z</time></trkpt><trkpt lat="43.5512165" lon="11.9291823"><ele>314.0</ele><time>2026-04-04T09:47:26.316Z</time></trkpt><trkpt lat="43.5511344" lon="11.9291113"><ele>314.0</ele><time>2026-04-04T09:47:27.316Z</time></trkpt><trkpt lat="43.551044" lon="11.929065"><ele>315.4</ele><time>2026-04-04T09:47:28.316Z</time></trkpt><trkpt lat="43.5509509" lon="11.9290351"><ele>316.79999999999995</ele><time>2026-04-04T09:47:29.316Z</time></trkpt><trkpt lat="43.5508569" lon="11.9290151"><ele>318.20000000000005</ele><time>2026-04-04T09:47:30.316Z</time></trkpt><trkpt lat="43.5507636" lon="11.9289962"><ele>319.6</ele><time>2026-04-04T09:47:31.316Z</time></trkpt><trkpt lat="43.5506707" lon="11.9289772"><ele>321.0</ele><time>2026-04-04T09:47:32.316Z</time></trkpt><trkpt lat="43.5505766" lon="11.9289571"><ele>321.0</ele><time>2026-04-04T09:47:33.316Z</time></trkpt><trkpt lat="43.5504834" lon="11.9289396"><ele>321.0</ele><time>2026-04-04T09:47:34.316Z</time></trkpt><trkpt lat="43.5503856" lon="11.9289188"><ele>321.0</ele><time>2026-04-04T09:47:35.316Z</time></trkpt><trkpt lat="43.5502949" lon="11.9288967"><ele>321.0</ele><time>2026-04-04T09:47:36.316Z</time></trkpt><trkpt lat="43.5502081" lon="11.9288779"><ele>321.0</ele><time>2026-04-04T09:47:37.316Z</time></trkpt><trkpt lat="43.5501349" lon="11.9288599"><ele>321.0</ele><time>2026-04-04T09:47:38.316Z</time></trkpt><trkpt lat="43.5500708" lon="11.9288452"><ele>319.3333333333333</ele><time>2026-04-04T09:47:39.316Z</time></trkpt><trkpt lat="43.5499679" lon="11.9288293"><ele>317.6666666666667</ele><time>2026-04-04T09:47:41.316Z</time></trkpt><trkpt lat="43.5498926" lon="11.9288223"><ele>316.0</ele><time>2026-04-04T09:47:44.316Z</time></trkpt><trkpt lat="43.5499165" lon="11.9289097"><ele>314.33333333333337</ele><time>2026-04-04T09:47:47.316Z</time></trkpt><trkpt lat="43.5498636" lon="11.9288409"><ele>312.6666666666667</ele><time>2026-04-04T09:49:54.316Z</time></trkpt><trkpt lat="43.5498202" lon="11.9287731"><ele>311.0</ele><time>2026-04-04T09:50:02.315Z</time></trkpt><trkpt lat="43.549847" lon="11.9286794"><ele>311.0</ele><time>2026-04-04T09:57:33.317Z</time></trkpt><trkpt lat="43.5497883" lon="11.9287156"><ele>311.0</ele><time>2026-04-04T09:58:13.352Z</time></trkpt></trkseg><trkseg><trkpt lat="43.5498686" lon="11.9289138"><ele>311.0</ele><time>2026-04-04T10:38:50.316Z</time></trkpt><trkpt lat="43.5499391" lon="11.9289415"><ele>311.0</ele><time>2026-04-04T10:38:57.313Z</time></trkpt><trkpt lat="43.5499987" lon="11.9288987"><ele>311.0</ele><time>2026-04-04T10:42:52.315Z</time></trkpt><trkpt lat="43.5500723" lon="11.9289062"><ele>311.0</ele><time>2026-04-04T10:42:53.319Z</time></trkpt><trkpt lat="43.5501411" lon="11.9289185"><ele>311.0</ele><time>2026-04-04T10:42:54.321Z</time></trkpt><trkpt lat="43.5502121" lon="11.9289208"><ele>311.0</ele><time>2026-04-04T10:42:55.312Z</time></trkpt><trkpt lat="43.550281" lon="11.9289357"><ele>311.0</ele><time>2026-04-04T10:42:56.323Z</time></trkpt><trkpt lat="43.5503449" lon="11.9289509"><ele>312.6666666666667</ele><time>2026-04-04T10:42:57.322Z</time></trkpt><trkpt lat="43.5504089" lon="11.9289647"><ele>314.33333333333337</ele><time>2026-04-04T10:42:58.32Z</time></trkpt><trkpt lat="43.5504757" lon="11.9289815"><ele>316.0</ele><time>2026-04-04T10:42:59.31Z</time></trkpt><trkpt lat="43.5505454" lon="11.9289943"><ele>317.6666666666667</ele><time>2026-04-04T10:43:00.323Z</time></trkpt><trkpt lat="43.5506637" lon="11.9290044"><ele>319.3333333333333</ele><time>2026-04-04T10:43:02.323Z</time></trkpt><trkpt lat="43.5507316" lon="11.9290191"><ele>321.0</ele><time>2026-04-04T10:43:03.318Z</time></trkpt><trkpt lat="43.5507973" lon="11.9290375"><ele>321.0</ele><time>2026-04-04T10:43:04.314Z</time></trkpt><trkpt lat="43.5508642" lon="11.9290563"><ele>321.0</ele><time>2026-04-04T10:43:05.321Z</time></trkpt><trkpt lat="43.550929" lon="11.9290752"><ele>321.0</ele><time>2026-04-04T10:43:06.322Z</time></trkpt><trkpt lat="43.5509919" lon="11.9290951"><ele>321.0</ele><time>2026-04-04T10:43:07.311Z</time></trkpt><trkpt lat="43.5510993" lon="11.9291443"><ele>321.0</ele><time>2026-04-04T10:43:09.312Z</time></trkpt><trkpt lat="43.5511884" lon="11.9292097"><ele>321.0</ele><time>2026-04-04T10:43:11.317Z</time></trkpt><trkpt lat="43.5512532" lon="11.9292884"><ele>319.8333333333333</ele><time>2026-04-04T10:43:13.32Z</time></trkpt><trkpt lat="43.5512913" lon="11.9293827"><ele>318.6666666666667</ele><time>2026-04-04T10:43:15.318Z</time></trkpt><trkpt lat="43.5513138" lon="11.9294647"><ele>317.5</ele><time>2026-04-04T10:43:17.313Z</time></trkpt><trkpt lat="43.5513208" lon="11.9295754"><ele>316.33333333333337</ele><time>2026-04-04T10:43:19.31Z</time></trkpt><trkpt lat="43.5513101" lon="11.9296917"><ele>315.1666666666667</ele><time>2026-04-04T10:43:21.316Z</time></trkpt><trkpt lat="43.551297" lon="11.9298227"><ele>314.0</ele><time>2026-04-04T10:43:23.314Z</time></trkpt><trkpt lat="43.5512625" lon="11.9299948"><ele>314.0</ele><time>2026-04-04T10:43:25.321Z</time></trkpt><trkpt lat="43.5512407" lon="11.9300965"><ele>314.0</ele><time>2026-04-04T10:43:26.323Z</time></trkpt><trkpt lat="43.5512125" lon="11.9302063"><ele>314.0</ele><time>2026-04-04T10:43:27.316Z</time></trkpt><trkpt lat="43.551189" lon="11.9303179"><ele>314.0</ele><time>2026-04-04T10:43:28.323Z</time></trkpt><trkpt lat="43.5511646" lon="11.930437"><ele>314.0</ele><time>2026-04-04T10:43:29.32Z</time></trkpt><trkpt lat="43.5511366" lon="11.9305635"><ele>314.0</ele><time>2026-04-04T10:43:30.321Z</time></trkpt><trkpt lat="43.5511054" lon="11.9306974"><ele>313.59999999999997</ele><time>2026-04-04T10:43:31.31Z</time></trkpt><trkpt lat="43.5510714" lon="11.9308325"><ele>313.2</ele><time>2026-04-04T10:43:32.315Z</time></trkpt><trkpt lat="43.5510304" lon="11.9309633"><ele>312.79999999999995</ele><time>2026-04-04T10:43:33.314Z</time></trkpt><trkpt lat="43.5509773" lon="11.9310904"><ele>312.4</ele><time>2026-04-04T10:43:34.32Z</time></trkpt><trkpt lat="43.5509115" lon="11.9312124"><ele>312.0</ele><time>2026-04-04T10:43:35.319Z</time></trkpt><trkpt lat="43.5508389" lon="11.931327"><ele>314.5</ele><time>2026-04-04T10:43:36.312Z</time></trkpt><trkpt lat="43.550758" lon="11.9314353"><ele>317.0</ele><time>2026-04-04T10:43:37.317Z</time></trkpt><trkpt lat="43.5506786" lon="11.9315512"><ele>319.5</ele><time>2026-04-04T10:43:38.322Z</time></trkpt><trkpt lat="43.5506043" lon="11.9316717"><ele>322.0</ele><time>2026-04-04T10:43:39.32Z</time></trkpt><trkpt lat="43.5505367" lon="11.9318025"><ele>325.25</ele><time>2026-04-04T10:43:40.323Z</time></trkpt><trkpt lat="43.5504815" lon="11.9319469"><ele>328.5</ele><time>2026-04-04T10:43:41.316Z</time></trkpt><trkpt lat="43.5504437" lon="11.932106"><ele>331.75</ele><time>2026-04-04T10:43:42.317Z</time></trkpt><trkpt lat="43.5504219" lon="11.9322656"><ele>335.0</ele><time>2026-04-04T10:43:43.318Z</time></trkpt><trkpt lat="43.5504124" lon="11.9324352"><ele>337.0</ele><time>2026-04-04T10:43:44.315Z</time></trkpt><trkpt lat="43.5503861" lon="11.932613"><ele>339.0</ele><time>2026-04-04T10:43:45.318Z</time></trkpt><trkpt lat="43.5503628" lon="11.9327859"><ele>341.0</ele><time>2026-04-04T10:43:46.314Z</time></trkpt><trkpt lat="43.5503371" lon="11.9329568"><ele>343.0</ele><time>2026-04-04T10:43:47.314Z</time></trkpt><trkpt lat="43.550312" lon="11.9331302"><ele>338.25</ele><time>2026-04-04T10:43:48.322Z</time></trkpt><trkpt lat="43.5502882" lon="11.9333074"><ele>333.5</ele><time>2026-04-04T10:43:49.32Z</time></trkpt><trkpt lat="43.5502636" lon="11.9334825"><ele>328.75</ele><time>2026-04-04T10:43:50.32Z</time></trkpt><trkpt lat="43.5502407" lon="11.933657"><ele>324.0</ele><time>2026-04-04T10:43:51.316Z</time></trkpt><trkpt lat="43.5502259" lon="11.9338314"><ele>324.0</ele><time>2026-04-04T10:43:52.32Z</time></trkpt><trkpt lat="43.550227" lon="11.9340006"><ele>324.0</ele><time>2026-04-04T10:43:53.32Z</time></trkpt><trkpt lat="43.5502511" lon="11.9341789"><ele>324.0</ele><time>2026-04-04T10:43:54.319Z</time></trkpt><trkpt lat="43.5502879" lon="11.9343451"><ele>324.0</ele><time>2026-04-04T10:43:55.316Z</time></trkpt><trkpt lat="43.5503263" lon="11.9345177"><ele>326.5</ele><time>2026-04-04T10:43:56.31Z</time></trkpt><trkpt lat="43.5503588" lon="11.9346872"><ele>329.0</ele><time>2026-04-04T10:43:57.311Z</time></trkpt><trkpt lat="43.550389" lon="11.9348575"><ele>331.5</ele><time>2026-04-04T10:43:58.323Z</time></trkpt><trkpt lat="43.550418" lon="11.9350276"><ele>334.0</ele><time>2026-04-04T10:43:59.319Z</time></trkpt><trkpt lat="43.5504549" lon="11.9351912"><ele>335.0</ele><time>2026-04-04T10:44:00.312Z</time></trkpt><trkpt lat="43.550503" lon="11.9353476"><ele>336.0</ele><time>2026-04-04T10:44:01.323Z</time></trkpt><trkpt lat="43.5505597" lon="11.9354928"><ele>337.0</ele><time>2026-04-04T10:44:02.316Z</time></trkpt><trkpt lat="43.5506292" lon="11.9356304"><ele>338.0</ele><time>2026-04-04T10:44:03.319Z</time></trkpt><trkpt lat="43.5507054" lon="11.9357519"><ele>338.0</ele><time>2026-04-04T10:44:04.312Z</time></trkpt><trkpt lat="43.5507933" lon="11.9358622"><ele>338.0</ele><time>2026-04-04T10:44:05.317Z</time></trkpt><trkpt lat="43.550887" lon="11.9359695"><ele>338.0</ele><time>2026-04-04T10:44:06.32Z</time></trkpt><trkpt lat="43.5509762" lon="11.9360836"><ele>338.0</ele><time>2026-04-04T10:44:07.315Z</time></trkpt><trkpt lat="43.5510574" lon="11.9362079"><ele>338.25</ele><time>2026-04-04T10:44:08.31Z</time></trkpt><trkpt lat="43.5511296" lon="11.9363464"><ele>338.5</ele><time>2026-04-04T10:44:09.311Z</time></trkpt><trkpt lat="43.5511981" lon="11.9364925"><ele>338.75</ele><time>2026-04-04T10:44:10.316Z</time></trkpt><trkpt lat="43.5512557" lon="11.9366463"><ele>339.0</ele><time>2026-04-04T10:44:11.313Z</time></trkpt><trkpt lat="43.5513068" lon="11.9368058"><ele>341.5</ele><time>2026-04-04T10:44:12.312Z</time></trkpt><trkpt lat="43.55135" lon="11.9369683"><ele>344.0</ele><time>2026-04-04T10:44:13.314Z</time></trkpt><trkpt lat="43.5513838" lon="11.9371304"><ele>346.5</ele><time>2026-04-04T10:44:14.316Z</time></trkpt><trkpt lat="43.5514195" lon="11.9372861"><ele>349.0</ele><time>2026-04-04T10:44:15.319Z</time></trkpt><trkpt lat="43.5514757" lon="11.9374333"><ele>347.5</ele><time>2026-04-04T10:44:16.322Z</time></trkpt><trkpt lat="43.5515463" lon="11.9375658"><ele>346.0</ele><time>2026-04-04T10:44:17.314Z</time></trkpt><trkpt lat="43.5516305" lon="11.9376927"><ele>344.5</ele><time>2026-04-04T10:44:18.31Z</time></trkpt><trkpt lat="43.5517179" lon="11.9378207"><ele>343.0</ele><time>2026-04-04T10:44:19.31Z</time></trkpt><trkpt lat="43.5518012" lon="11.9379547"><ele>343.0</ele><time>2026-04-04T10:44:20.311Z</time></trkpt><trkpt lat="43.5518706" lon="11.9381013"><ele>343.0</ele><time>2026-04-04T10:44:21.311Z</time></trkpt><trkpt lat="43.5519287" lon="11.938258"><ele>343.0</ele><time>2026-04-04T10:44:22.322Z</time></trkpt><trkpt lat="43.5519754" lon="11.9384191"><ele>343.0</ele><time>2026-04-04T10:44:23.309Z</time></trkpt><trkpt lat="43.5520275" lon="11.9385787"><ele>344.0</ele><time>2026-04-04T10:44:24.322Z</time></trkpt><trkpt lat="43.5520824" lon="11.9387379"><ele>345.0</ele><time>2026-04-04T10:44:25.314Z</time></trkpt><trkpt lat="43.5521328" lon="11.9389014"><ele>346.0</ele><time>2026-04-04T10:44:26.323Z</time></trkpt><trkpt lat="43.5521893" lon="11.9390613"><ele>347.0</ele><time>2026-04-04T10:44:27.315Z</time></trkpt><trkpt lat="43.5522464" lon="11.9392175"><ele>347.0</ele><time>2026-04-04T10:44:28.31Z</time></trkpt><trkpt lat="43.5523044" lon="11.9393746"><ele>347.0</ele><time>2026-04-04T10:44:29.32Z</time></trkpt><trkpt lat="43.5523666" lon="11.9395263"><ele>347.0</ele><time>2026-04-04T10:44:30.311Z</time></trkpt><trkpt lat="43.5524321" lon="11.939673"><ele>347.0</ele><time>2026-04-04T10:44:31.321Z</time></trkpt><trkpt lat="43.5525001" lon="11.9398162"><ele>347.0</ele><time>2026-04-04T10:44:32.31Z</time></trkpt><trkpt lat="43.5525677" lon="11.9399565"><ele>347.0</ele><time>2026-04-04T10:44:33.312Z</time></trkpt><trkpt lat="43.552631" lon="11.9400963"><ele>347.0</ele><time>2026-04-04T10:44:34.314Z</time></trkpt><trkpt lat="43.5526916" lon="11.9402355"><ele>347.0</ele><time>2026-04-04T10:44:35.316Z</time></trkpt><trkpt lat="43.5527473" lon="11.9403758"><ele>348.75</ele><time>2026-04-04T10:44:36.319Z</time></trkpt><trkpt lat="43.5527929" lon="11.940521"><ele>350.5</ele><time>2026-04-04T10:44:37.311Z</time></trkpt><trkpt lat="43.5528272" lon="11.9406714"><ele>352.25</ele><time>2026-04-04T10:44:38.323Z</time></trkpt><trkpt lat="43.5528468" lon="11.9408286"><ele>354.0</ele><time>2026-04-04T10:44:39.323Z</time></trkpt><trkpt lat="43.5528574" lon="11.9409914"><ele>354.75</ele><time>2026-04-04T10:44:40.314Z</time></trkpt><trkpt lat="43.5528562" lon="11.941153"><ele>355.5</ele><time>2026-04-04T10:44:41.315Z</time></trkpt><trkpt lat="43.5528431" lon="11.9413138"><ele>356.25</ele><time>2026-04-04T10:44:42.312Z</time></trkpt><trkpt lat="43.5528282" lon="11.9414772"><ele>357.0</ele><time>2026-04-04T10:44:43.323Z</time></trkpt><trkpt lat="43.5528156" lon="11.9416458"><ele>356.75</ele><time>2026-04-04T10:44:44.322Z</time></trkpt><trkpt lat="43.5528046" lon="11.9418187"><ele>356.5</ele><time>2026-04-04T10:44:45.312Z</time></trkpt><trkpt lat="43.552796" lon="11.9419942"><ele>356.25</ele><time>2026-04-04T10:44:46.317Z</time></trkpt><trkpt lat="43.5527926" lon="11.9421733"><ele>356.0</ele><time>2026-04-04T10:44:47.317Z</time></trkpt><trkpt lat="43.552791" lon="11.942352"><ele>356.0</ele><time>2026-04-04T10:44:48.312Z</time></trkpt><trkpt lat="43.5527931" lon="11.9425313"><ele>356.0</ele><time>2026-04-04T10:44:49.32Z</time></trkpt><trkpt lat="43.5527988" lon="11.9427135"><ele>356.0</ele><time>2026-04-04T10:44:50.311Z</time></trkpt><trkpt lat="43.5528061" lon="11.9428899"><ele>356.0</ele><time>2026-04-04T10:44:51.317Z</time></trkpt><trkpt lat="43.5528145" lon="11.9430566"><ele>355.4</ele><time>2026-04-04T10:44:52.323Z</time></trkpt><trkpt lat="43.5528233" lon="11.9432115"><ele>354.8</ele><time>2026-04-04T10:44:53.321Z</time></trkpt><trkpt lat="43.552835" lon="11.9433514"><ele>354.2</ele><time>2026-04-04T10:44:54.312Z</time></trkpt><trkpt lat="43.552847" lon="11.9434838"><ele>353.59999999999997</ele><time>2026-04-04T10:44:55.312Z</time></trkpt><trkpt lat="43.5528543" lon="11.9436159"><ele>353.0</ele><time>2026-04-04T10:44:56.317Z</time></trkpt><trkpt lat="43.5528556" lon="11.9437384"><ele>354.1666666666667</ele><time>2026-04-04T10:44:57.321Z</time></trkpt><trkpt lat="43.5528614" lon="11.9438431"><ele>355.33333333333337</ele><time>2026-04-04T10:44:58.319Z</time></trkpt><trkpt lat="43.5528664" lon="11.9439358"><ele>356.5</ele><time>2026-04-04T10:44:59.313Z</time></trkpt><trkpt lat="43.5528738" lon="11.9440856"><ele>357.6666666666667</ele><time>2026-04-04T10:45:01.316Z</time></trkpt><trkpt lat="43.5529012" lon="11.9442385"><ele>358.8333333333333</ele><time>2026-04-04T10:45:03.314Z</time></trkpt><trkpt lat="43.5528911" lon="11.9443258"><ele>360.0</ele><time>2026-04-04T10:45:04.314Z</time></trkpt><trkpt lat="43.5528733" lon="11.9446285"><ele>360.3333333333333</ele><time>2026-04-04T10:45:08.292Z</time></trkpt><trkpt lat="43.5528675" lon="11.9447709"><ele>360.6666666666667</ele><time>2026-04-04T10:45:09.317Z</time></trkpt><trkpt lat="43.5528585" lon="11.9448702"><ele>361.0</ele><time>2026-04-04T10:45:10.316Z</time></trkpt><trkpt lat="43.5528382" lon="11.9449688"><ele>361.33333333333337</ele><time>2026-04-04T10:45:11.316Z</time></trkpt><trkpt lat="43.5528052" lon="11.9450596"><ele>361.6666666666667</ele><time>2026-04-04T10:45:12.316Z</time></trkpt><trkpt lat="43.5527819" lon="11.9451419"><ele>362.0</ele><time>2026-04-04T10:45:13.317Z</time></trkpt><trkpt lat="43.5527427" lon="11.9452927"><ele>363.6666666666667</ele><time>2026-04-04T10:45:15.316Z</time></trkpt><trkpt lat="43.5527114" lon="11.9453994"><ele>365.33333333333337</ele><time>2026-04-04T10:45:17.316Z</time></trkpt><trkpt lat="43.5526721" lon="11.945482"><ele>367.0</ele><time>2026-04-04T10:45:20.315Z</time></trkpt><trkpt lat="43.5527292" lon="11.9455229"><ele>368.6666666666667</ele><time>2026-04-04T10:45:31.315Z</time></trkpt><trkpt lat="43.5527699" lon="11.9454254"><ele>370.3333333333333</ele><time>2026-04-04T10:45:33.315Z</time></trkpt><trkpt lat="43.5527856" lon="11.9453179"><ele>372.0</ele><time>2026-04-04T10:45:34.316Z</time></trkpt><trkpt lat="43.5528039" lon="11.9452182"><ele>372.0</ele><time>2026-04-04T10:45:35.316Z</time></trkpt><trkpt lat="43.5528246" lon="11.9451179"><ele>372.0</ele><time>2026-04-04T10:45:36.316Z</time></trkpt><trkpt lat="43.5528464" lon="11.945005"><ele>372.0</ele><time>2026-04-04T10:45:37.316Z</time></trkpt><trkpt lat="43.5528678" lon="11.944895"><ele>372.0</ele><time>2026-04-04T10:45:38.316Z</time></trkpt><trkpt lat="43.5528808" lon="11.9447827"><ele>372.0</ele><time>2026-04-04T10:45:39.316Z</time></trkpt><trkpt lat="43.5528919" lon="11.9446648"><ele>372.0</ele><time>2026-04-04T10:45:40.316Z</time></trkpt><trkpt lat="43.5528964" lon="11.9445484"><ele>371.1666666666667</ele><time>2026-04-04T10:45:41.315Z</time></trkpt><trkpt lat="43.5528943" lon="11.9444319"><ele>370.3333333333333</ele><time>2026-04-04T10:45:42.316Z</time></trkpt><trkpt lat="43.5528905" lon="11.9443175"><ele>369.5</ele><time>2026-04-04T10:45:43.316Z</time></trkpt><trkpt lat="43.5528831" lon="11.9441991"><ele>368.66666666666663</ele><time>2026-04-04T10:45:44.316Z</time></trkpt><trkpt lat="43.5528742" lon="11.9440848"><ele>367.8333333333333</ele><time>2026-04-04T10:45:45.316Z</time></trkpt><trkpt lat="43.5528721" lon="11.9439728"><ele>367.0</ele><time>2026-04-04T10:45:46.316Z</time></trkpt><trkpt lat="43.5528692" lon="11.9438665"><ele>365.8333333333333</ele><time>2026-04-04T10:45:47.316Z</time></trkpt><trkpt lat="43.5528613" lon="11.9437666"><ele>364.66666666666663</ele><time>2026-04-04T10:45:48.316Z</time></trkpt><trkpt lat="43.5528575" lon="11.9436584"><ele>363.5</ele><time>2026-04-04T10:45:49.317Z</time></trkpt><trkpt lat="43.5528573" lon="11.9435583"><ele>362.3333333333333</ele><time>2026-04-04T10:45:50.316Z</time></trkpt><trkpt lat="43.5528572" lon="11.9434174"><ele>361.1666666666667</ele><time>2026-04-04T10:45:52.316Z</time></trkpt><trkpt lat="43.5529028" lon="11.9433547"><ele>360.0</ele><time>2026-04-04T10:45:54.315Z</time></trkpt><trkpt lat="43.5529677" lon="11.9433429"><ele>361.1666666666667</ele><time>2026-04-04T10:45:56.316Z</time></trkpt><trkpt lat="43.5530391" lon="11.9434007"><ele>362.3333333333333</ele><time>2026-04-04T10:46:11.316Z</time></trkpt><trkpt lat="43.5531119" lon="11.943513"><ele>363.5</ele><time>2026-04-04T10:46:13.317Z</time></trkpt><trkpt lat="43.5531692" lon="11.9435703"><ele>364.66666666666663</ele><time>2026-04-04T10:46:14.317Z</time></trkpt><trkpt lat="43.5532353" lon="11.9436288"><ele>365.8333333333333</ele><time>2026-04-04T10:46:15.316Z</time></trkpt><trkpt lat="43.553322" lon="11.9436726"><ele>367.0</ele><time>2026-04-04T10:46:16.316Z</time></trkpt><trkpt lat="43.5534086" lon="11.943716"><ele>367.0</ele><time>2026-04-04T10:46:17.316Z</time></trkpt><trkpt lat="43.5535059" lon="11.9437536"><ele>367.0</ele><time>2026-04-04T10:46:18.316Z</time></trkpt><trkpt lat="43.5536041" lon="11.9437894"><ele>367.0</ele><time>2026-04-04T10:46:19.316Z</time></trkpt><trkpt lat="43.5536953" lon="11.9438359"><ele>367.0</ele><time>2026-04-04T10:46:20.315Z</time></trkpt><trkpt lat="43.553872" lon="11.9439275"><ele>366.66666666666663</ele><time>2026-04-04T10:46:22.315Z</time></trkpt><trkpt lat="43.5539528" lon="11.943948"><ele>366.3333333333333</ele><time>2026-04-04T10:46:23.316Z</time></trkpt><trkpt lat="43.5540253" lon="11.9439433"><ele>366.0</ele><time>2026-04-04T10:46:24.316Z</time></trkpt><trkpt lat="43.5540892" lon="11.9439286"><ele>365.6666666666667</ele><time>2026-04-04T10:46:25.316Z</time></trkpt><trkpt lat="43.5541885" lon="11.9439886"><ele>365.33333333333337</ele><time>2026-04-04T10:46:27.316Z</time></trkpt><trkpt lat="43.5542522" lon="11.9440426"><ele>365.0</ele><time>2026-04-04T10:46:28.315Z</time></trkpt><trkpt lat="43.5543239" lon="11.9441222"><ele>365.0</ele><time>2026-04-04T10:46:29.317Z</time></trkpt><trkpt lat="43.5543814" lon="11.9441871"><ele>365.0</ele><time>2026-04-04T10:46:30.316Z</time></trkpt><trkpt lat="43.5544577" lon="11.9443578"><ele>365.0</ele><time>2026-04-04T10:46:32.316Z</time></trkpt><trkpt lat="43.5545215" lon="11.9444448"><ele>365.0</ele><time>2026-04-04T10:46:33.316Z</time></trkpt><trkpt lat="43.5546016" lon="11.944507"><ele>365.0</ele><time>2026-04-04T10:46:34.316Z</time></trkpt><trkpt lat="43.5547149" lon="11.9445645"><ele>368.0</ele><time>2026-04-04T10:46:35.315Z</time></trkpt><trkpt lat="43.554852" lon="11.9446438"><ele>371.0</ele><time>2026-04-04T10:46:37.316Z</time></trkpt><trkpt lat="43.5548956" lon="11.9447204"><ele>374.0</ele><time>2026-04-04T10:46:38.316Z</time></trkpt><trkpt lat="43.5549529" lon="11.9447894"><ele>377.0</ele><time>2026-04-04T10:46:39.316Z</time></trkpt><trkpt lat="43.5550163" lon="11.9448608"><ele>380.0</ele><time>2026-04-04T10:46:40.316Z</time></trkpt><trkpt lat="43.5550851" lon="11.9449311"><ele>380.0</ele><time>2026-04-04T10:46:41.316Z</time></trkpt><trkpt lat="43.5551449" lon="11.9450035"><ele>380.0</ele><time>2026-04-04T10:46:42.315Z</time></trkpt><trkpt lat="43.5551925" lon="11.945099"><ele>380.0</ele><time>2026-04-04T10:46:43.316Z</time></trkpt><trkpt lat="43.5552497" lon="11.9452034"><ele>380.0</ele><time>2026-04-04T10:46:44.316Z</time></trkpt><trkpt lat="43.555289" lon="11.9452829"><ele>380.0</ele><time>2026-04-04T10:46:45.316Z</time></trkpt><trkpt lat="43.5553324" lon="11.9453479"><ele>380.0</ele><time>2026-04-04T10:46:46.316Z</time></trkpt><trkpt lat="43.5554091" lon="11.945472"><ele>382.33333333333337</ele><time>2026-04-04T10:46:48.316Z</time></trkpt><trkpt lat="43.5554793" lon="11.9455896"><ele>384.6666666666667</ele><time>2026-04-04T10:46:50.316Z</time></trkpt><trkpt lat="43.5555318" lon="11.9456427"><ele>387.0</ele><time>2026-04-04T10:46:51.315Z</time></trkpt><trkpt lat="43.5555843" lon="11.9457114"><ele>389.33333333333337</ele><time>2026-04-04T10:46:52.317Z</time></trkpt><trkpt lat="43.5556398" lon="11.9458254"><ele>391.6666666666667</ele><time>2026-04-04T10:46:54.316Z</time></trkpt><trkpt lat="43.5556357" lon="11.9459231"><ele>394.0</ele><time>2026-04-04T10:46:56.317Z</time></trkpt><trkpt lat="43.5556161" lon="11.9460212"><ele>395.8571428571429</ele><time>2026-04-04T10:46:59.316Z</time></trkpt><trkpt lat="43.5555908" lon="11.9461112"><ele>397.7142857142857</ele><time>2026-04-04T10:47:06.316Z</time></trkpt><trkpt lat="43.5555492" lon="11.9461842"><ele>399.57142857142856</ele><time>2026-04-04T10:49:16.316Z</time></trkpt><trkpt lat="43.5554915" lon="11.9462571"><ele>401.42857142857144</ele><time>2026-04-04T10:49:19.316Z</time></trkpt><trkpt lat="43.555429" lon="11.9463371"><ele>403.2857142857143</ele><time>2026-04-04T10:49:23.316Z</time></trkpt><trkpt lat="43.5553749" lon="11.9464015"><ele>405.14285714285717</ele><time>2026-04-04T10:49:25.317Z</time></trkpt><trkpt lat="43.5553211" lon="11.9464516"><ele>407.0</ele><time>2026-04-04T10:49:27.316Z</time></trkpt><trkpt lat="43.5552675" lon="11.9465065"><ele>408.0</ele><time>2026-04-04T10:49:29.316Z</time></trkpt><trkpt lat="43.5551749" lon="11.9466032"><ele>409.0</ele><time>2026-04-04T10:49:31.316Z</time></trkpt><trkpt lat="43.5550909" lon="11.9467139"><ele>410.0</ele><time>2026-04-04T10:49:33.316Z</time></trkpt><trkpt lat="43.5550315" lon="11.9468031"><ele>411.0</ele><time>2026-04-04T10:49:35.316Z</time></trkpt><trkpt lat="43.5549817" lon="11.946873"><ele>412.0</ele><time>2026-04-04T10:49:50.316Z</time></trkpt><trkpt lat="43.5549253" lon="11.9469221"><ele>412.00000000000006</ele><time>2026-04-04T10:49:53.316Z</time></trkpt><trkpt lat="43.5548689" lon="11.9469824"><ele>412.0</ele><time>2026-04-04T10:49:55.316Z</time></trkpt><trkpt lat="43.5547987" lon="11.9469836"><ele>412.0</ele><time>2026-04-04T10:49:57.316Z</time></trkpt><trkpt lat="43.5547378" lon="11.9468955"><ele>412.0</ele><time>2026-04-04T10:49:59.316Z</time></trkpt><trkpt lat="43.55474" lon="11.9467969"><ele>412.00000000000006</ele><time>2026-04-04T10:50:00.317Z</time></trkpt><trkpt lat="43.5547263" lon="11.9466389"><ele>412.0</ele><time>2026-04-04T10:50:01.316Z</time></trkpt><trkpt lat="43.5547071" lon="11.946555"><ele>412.0</ele><time>2026-04-04T10:50:02.316Z</time></trkpt><trkpt lat="43.5546537" lon="11.9464993"><ele>412.0</ele><time>2026-04-04T10:50:04.316Z</time></trkpt><trkpt lat="43.5545608" lon="11.9465614"><ele>412.0</ele><time>2026-04-04T10:50:06.315Z</time></trkpt><trkpt lat="43.5544726" lon="11.946569"><ele>412.0</ele><time>2026-04-04T10:50:07.316Z</time></trkpt><trkpt lat="43.5543791" lon="11.9466358"><ele>412.0</ele><time>2026-04-04T10:50:09.316Z</time></trkpt><trkpt lat="43.5542987" lon="11.9467341"><ele>418.6</ele><time>2026-04-04T10:50:11.316Z</time></trkpt><trkpt lat="43.5543274" lon="11.946847"><ele>425.20000000000005</ele><time>2026-04-04T10:50:13.317Z</time></trkpt><trkpt lat="43.5543492" lon="11.9469459"><ele>431.8</ele><time>2026-04-04T10:50:15.316Z</time></trkpt><trkpt lat="43.554294" lon="11.9470302"><ele>438.4</ele><time>2026-04-04T10:50:17.315Z</time></trkpt><trkpt lat="43.5542203" lon="11.9471643"><ele>445.0</ele><time>2026-04-04T10:50:19.316Z</time></trkpt><trkpt lat="43.5541428" lon="11.9472736"><ele>445.0</ele><time>2026-04-04T10:50:21.315Z</time></trkpt><trkpt lat="43.5540874" lon="11.9473974"><ele>445.0</ele><time>2026-04-04T10:50:23.316Z</time></trkpt><trkpt lat="43.5540284" lon="11.9475146"><ele>445.0</ele><time>2026-04-04T10:50:25.316Z</time></trkpt><trkpt lat="43.5539783" lon="11.9476923"><ele>445.0</ele><time>2026-04-04T10:50:27.316Z</time></trkpt><trkpt lat="43.5539528" lon="11.9477787"><ele>445.0</ele><time>2026-04-04T10:50:28.316Z</time></trkpt><trkpt lat="43.5539483" lon="11.947892"><ele>448.2</ele><time>2026-04-04T10:50:29.316Z</time></trkpt><trkpt lat="43.5539945" lon="11.9480064"><ele>451.4</ele><time>2026-04-04T10:50:31.315Z</time></trkpt><trkpt lat="43.553964" lon="11.9481605"><ele>454.6</ele><time>2026-04-04T10:50:33.316Z</time></trkpt><trkpt lat="43.5538896" lon="11.9482879"><ele>457.8</ele><time>2026-04-04T10:50:35.316Z</time></trkpt><trkpt lat="43.5538245" lon="11.9483612"><ele>461.0</ele><time>2026-04-04T10:50:37.316Z</time></trkpt><trkpt lat="43.5537905" lon="11.9484562"><ele>464.99999999999994</ele><time>2026-04-04T10:50:39.316Z</time></trkpt><trkpt lat="43.5538368" lon="11.9485566"><ele>469.0</ele><time>2026-04-04T10:50:42.316Z</time></trkpt><trkpt lat="43.5539037" lon="11.9486165"><ele>473.0</ele><time>2026-04-04T10:50:44.316Z</time></trkpt><trkpt lat="43.5540006" lon="11.9486242"><ele>477.0</ele><time>2026-04-04T10:50:46.315Z</time></trkpt><trkpt lat="43.5540975" lon="11.9486536"><ele>480.99999999999994</ele><time>2026-04-04T10:50:48.316Z</time></trkpt><trkpt lat="43.5541539" lon="11.9486948"><ele>485.0</ele><time>2026-04-04T10:50:49.316Z</time></trkpt><trkpt lat="43.5542331" lon="11.9487584"><ele>484.99999999999994</ele><time>2026-04-04T10:50:50.316Z</time></trkpt><trkpt lat="43.5543053" lon="11.9487976"><ele>485.0</ele><time>2026-04-04T10:50:51.316Z</time></trkpt><trkpt lat="43.5543646" lon="11.948842"><ele>485.0</ele><time>2026-04-04T10:50:52.316Z</time></trkpt><trkpt lat="43.5543868" lon="11.9489282"><ele>485.0</ele><time>2026-04-04T10:50:54.316Z</time></trkpt><trkpt lat="43.5543519" lon="11.9490731"><ele>484.99999999999994</ele><time>2026-04-04T10:50:57.316Z</time></trkpt><trkpt lat="43.5542876" lon="11.9491643"><ele>485.0</ele><time>2026-04-04T10:50:59.316Z</time></trkpt><trkpt lat="43.5542286" lon="11.9492388"><ele>488.3333333333333</ele><time>2026-04-04T10:51:01.316Z</time></trkpt><trkpt lat="43.5542037" lon="11.949339"><ele>491.66666666666663</ele><time>2026-04-04T10:51:03.316Z</time></trkpt><trkpt lat="43.5542227" lon="11.9494401"><ele>495.0</ele><time>2026-04-04T10:51:06.316Z</time></trkpt><trkpt lat="43.5543502" lon="11.949428"><ele>498.33333333333337</ele><time>2026-04-04T10:51:08.316Z</time></trkpt><trkpt lat="43.5544203" lon="11.9494221"><ele>501.6666666666667</ele><time>2026-04-04T10:51:10.316Z</time></trkpt><trkpt lat="43.5543805" lon="11.9495069"><ele>505.0</ele><time>2026-04-04T10:51:14.316Z</time></trkpt><trkpt lat="43.554325" lon="11.949586"><ele>505.00000000000006</ele><time>2026-04-04T10:51:16.315Z</time></trkpt><trkpt lat="43.5542918" lon="11.9497001"><ele>505.0</ele><time>2026-04-04T10:51:18.316Z</time></trkpt><trkpt lat="43.5543408" lon="11.949759"><ele>505.0</ele><time>2026-04-04T10:51:21.316Z</time></trkpt><trkpt lat="43.5543948" lon="11.9498051"><ele>505.0</ele><time>2026-04-04T10:51:23.316Z</time></trkpt><trkpt lat="43.5544818" lon="11.9498505"><ele>505.00000000000006</ele><time>2026-04-04T10:51:25.316Z</time></trkpt><trkpt lat="43.5545564" lon="11.9498933"><ele>505.0</ele><time>2026-04-04T10:51:27.316Z</time></trkpt><trkpt lat="43.5545509" lon="11.9499853"><ele>505.00000000000006</ele><time>2026-04-04T10:51:30.316Z</time></trkpt><trkpt lat="43.5544707" lon="11.9500339"><ele>505.0</ele><time>2026-04-04T10:51:32.316Z</time></trkpt><trkpt lat="43.5544036" lon="11.9500669"><ele>505.0</ele><time>2026-04-04T10:51:34.316Z</time></trkpt><trkpt lat="43.5543776" lon="11.9501595"><ele>505.0</ele><time>2026-04-04T10:51:36.315Z</time></trkpt><trkpt lat="43.5543953" lon="11.9502652"><ele>505.00000000000006</ele><time>2026-04-04T10:51:37.316Z</time></trkpt><trkpt lat="43.5544569" lon="11.9503822"><ele>505.0</ele><time>2026-04-04T10:51:38.316Z</time></trkpt><trkpt lat="43.5544968" lon="11.9504527"><ele>511.0</ele><time>2026-04-04T10:51:40.315Z</time></trkpt><trkpt lat="43.5546101" lon="11.9504719"><ele>517.0</ele><time>2026-04-04T10:51:42.316Z</time></trkpt><trkpt lat="43.5547705" lon="11.9505125"><ele>523.0</ele><time>2026-04-04T10:51:44.315Z</time></trkpt><trkpt lat="43.5548885" lon="11.950545"><ele>529.0</ele><time>2026-04-04T10:51:45.317Z</time></trkpt><trkpt lat="43.5549812" lon="11.9506431"><ele>529.0</ele><time>2026-04-04T10:51:47.316Z</time></trkpt><trkpt lat="43.555036" lon="11.9506883"><ele>529.0</ele><time>2026-04-04T10:51:48.316Z</time></trkpt><trkpt lat="43.5550857" lon="11.9507814"><ele>529.0</ele><time>2026-04-04T10:51:50.315Z</time></trkpt><trkpt lat="43.5551537" lon="11.9508783"><ele>529.0</ele><time>2026-04-04T10:51:52.316Z</time></trkpt><trkpt lat="43.5552149" lon="11.951005"><ele>529.0</ele><time>2026-04-04T10:51:54.316Z</time></trkpt><trkpt lat="43.555257" lon="11.9510783"><ele>529.0</ele><time>2026-04-04T10:51:55.316Z</time></trkpt><trkpt lat="43.5553097" lon="11.9511433"><ele>526.8</ele><time>2026-04-04T10:51:56.316Z</time></trkpt><trkpt lat="43.5553347" lon="11.951293"><ele>524.5999999999999</ele><time>2026-04-04T10:51:58.316Z</time></trkpt><trkpt lat="43.5553692" lon="11.9514403"><ele>522.4</ele><time>2026-04-04T10:52:00.316Z</time></trkpt><trkpt lat="43.5553911" lon="11.9515386"><ele>520.1999999999999</ele><time>2026-04-04T10:52:01.316Z</time></trkpt><trkpt lat="43.5553529" lon="11.9516133"><ele>518.0</ele><time>2026-04-04T10:52:03.316Z</time></trkpt><trkpt lat="43.5552552" lon="11.9516171"><ele>523.4</ele><time>2026-04-04T10:52:05.316Z</time></trkpt><trkpt lat="43.5551787" lon="11.9514931"><ele>528.8</ele><time>2026-04-04T10:52:06.316Z</time></trkpt><trkpt lat="43.5550669" lon="11.9514271"><ele>534.2</ele><time>2026-04-04T10:52:08.316Z</time></trkpt><trkpt lat="43.5549949" lon="11.9513826"><ele>539.6</ele><time>2026-04-04T10:52:09.316Z</time></trkpt><trkpt lat="43.5548898" lon="11.9514416"><ele>545.0</ele><time>2026-04-04T10:52:11.316Z</time></trkpt><trkpt lat="43.5548331" lon="11.9514851"><ele>545.0</ele><time>2026-04-04T10:52:12.316Z</time></trkpt><trkpt lat="43.5547461" lon="11.9516321"><ele>545.0</ele><time>2026-04-04T10:52:14.316Z</time></trkpt><trkpt lat="43.5547116" lon="11.9517538"><ele>545.0</ele><time>2026-04-04T10:52:16.316Z</time></trkpt><trkpt lat="43.5547289" lon="11.9519194"><ele>545.0</ele><time>2026-04-04T10:52:18.316Z</time></trkpt><trkpt lat="43.5547283" lon="11.952049"><ele>545.0</ele><time>2026-04-04T10:52:19.316Z</time></trkpt><trkpt lat="43.5547477" lon="11.9521553"><ele>546.0</ele><time>2026-04-04T10:52:20.317Z</time></trkpt><trkpt lat="43.5547552" lon="11.9522789"><ele>547.0</ele><time>2026-04-04T10:52:21.316Z</time></trkpt><trkpt lat="43.554743" lon="11.9523886"><ele>548.0</ele><time>2026-04-04T10:52:22.316Z</time></trkpt><trkpt lat="43.5547286" lon="11.9525559"><ele>549.0</ele><time>2026-04-04T10:52:24.316Z</time></trkpt><trkpt lat="43.5547178" lon="11.9526498"><ele>550.0</ele><time>2026-04-04T10:52:25.316Z</time></trkpt><trkpt lat="43.5547016" lon="11.9527402"><ele>551.0</ele><time>2026-04-04T10:52:26.316Z</time></trkpt><trkpt lat="43.5546835" lon="11.9528378"><ele>551.6666666666666</ele><time>2026-04-04T10:52:27.316Z</time></trkpt><trkpt lat="43.5546676" lon="11.9529378"><ele>552.3333333333333</ele><time>2026-04-04T10:52:28.315Z</time></trkpt><trkpt lat="43.5546565" lon="11.9530351"><ele>553.0</ele><time>2026-04-04T10:52:29.316Z</time></trkpt><trkpt lat="43.5546493" lon="11.9531441"><ele>553.6666666666666</ele><time>2026-04-04T10:52:30.316Z</time></trkpt><trkpt lat="43.5546367" lon="11.9532388"><ele>554.3333333333334</ele><time>2026-04-04T10:52:31.315Z</time></trkpt><trkpt lat="43.5546358" lon="11.9533472"><ele>555.0</ele><time>2026-04-04T10:52:32.316Z</time></trkpt><trkpt lat="43.5546452" lon="11.9534532"><ele>555.8</ele><time>2026-04-04T10:52:33.316Z</time></trkpt><trkpt lat="43.5546593" lon="11.9535587"><ele>556.6</ele><time>2026-04-04T10:52:34.316Z</time></trkpt><trkpt lat="43.554674" lon="11.9536746"><ele>557.4</ele><time>2026-04-04T10:52:35.316Z</time></trkpt><trkpt lat="43.5546888" lon="11.9538109"><ele>558.2</ele><time>2026-04-04T10:52:36.316Z</time></trkpt><trkpt lat="43.5546997" lon="11.9539467"><ele>559.0</ele><time>2026-04-04T10:52:37.316Z</time></trkpt><trkpt lat="43.5547125" lon="11.9540824"><ele>559.0</ele><time>2026-04-04T10:52:38.316Z</time></trkpt><trkpt lat="43.5547249" lon="11.9541912"><ele>559.0</ele><time>2026-04-04T10:52:39.316Z</time></trkpt><trkpt lat="43.5547335" lon="11.9543134"><ele>559.0</ele><time>2026-04-04T10:52:40.316Z</time></trkpt><trkpt lat="43.5547332" lon="11.9544276"><ele>559.0</ele><time>2026-04-04T10:52:41.316Z</time></trkpt><trkpt lat="43.5547058" lon="11.9545213"><ele>559.0</ele><time>2026-04-04T10:52:42.316Z</time></trkpt><trkpt lat="43.5546622" lon="11.9546193"><ele>559.0</ele><time>2026-04-04T10:52:43.316Z</time></trkpt><trkpt lat="43.5545431" lon="11.9546551"><ele>560.5</ele><time>2026-04-04T10:52:45.315Z</time></trkpt><trkpt lat="43.5544695" lon="11.9546673"><ele>562.0</ele><time>2026-04-04T10:52:46.316Z</time></trkpt><trkpt lat="43.5543725" lon="11.9546769"><ele>563.5</ele><time>2026-04-04T10:52:47.316Z</time></trkpt><trkpt lat="43.5543007" lon="11.9547081"><ele>565.0</ele><time>2026-04-04T10:52:48.316Z</time></trkpt><trkpt lat="43.554229" lon="11.9547439"><ele>566.5</ele><time>2026-04-04T10:52:49.315Z</time></trkpt><trkpt lat="43.5541683" lon="11.9547935"><ele>568.0</ele><time>2026-04-04T10:52:50.316Z</time></trkpt><trkpt lat="43.5541026" lon="11.9548671"><ele>568.0</ele><time>2026-04-04T10:52:51.316Z</time></trkpt><trkpt lat="43.5540192" lon="11.9549491"><ele>568.0</ele><time>2026-04-04T10:52:52.316Z</time></trkpt><trkpt lat="43.5539237" lon="11.9550515"><ele>568.0</ele><time>2026-04-04T10:52:53.316Z</time></trkpt><trkpt lat="43.5538555" lon="11.9551248"><ele>568.0</ele><time>2026-04-04T10:52:54.316Z</time></trkpt><trkpt lat="43.5537958" lon="11.9552152"><ele>568.0</ele><time>2026-04-04T10:52:55.316Z</time></trkpt><trkpt lat="43.5537613" lon="11.9553724"><ele>569.4</ele><time>2026-04-04T10:52:57.315Z</time></trkpt><trkpt lat="43.5537184" lon="11.9555068"><ele>570.8</ele><time>2026-04-04T10:52:59.316Z</time></trkpt><trkpt lat="43.553723" lon="11.9555988"><ele>572.2</ele><time>2026-04-04T10:53:00.316Z</time></trkpt><trkpt lat="43.5537283" lon="11.9557175"><ele>573.6</ele><time>2026-04-04T10:53:01.316Z</time></trkpt><trkpt lat="43.5537771" lon="11.9558757"><ele>575.0</ele><time>2026-04-04T10:53:03.316Z</time></trkpt><trkpt lat="43.5538494" lon="11.9560541"><ele>575.0</ele><time>2026-04-04T10:53:05.316Z</time></trkpt><trkpt lat="43.5539015" lon="11.9561448"><ele>575.0</ele><time>2026-04-04T10:53:06.316Z</time></trkpt><trkpt lat="43.5539496" lon="11.9562424"><ele>575.0</ele><time>2026-04-04T10:53:07.316Z</time></trkpt><trkpt lat="43.5539906" lon="11.9563771"><ele>575.0</ele><time>2026-04-04T10:53:08.316Z</time></trkpt><trkpt lat="43.5540197" lon="11.956506"><ele>575.0</ele><time>2026-04-04T10:53:09.316Z</time></trkpt><trkpt lat="43.5540343" lon="11.9566166"><ele>575.8333333333333</ele><time>2026-04-04T10:53:10.316Z</time></trkpt><trkpt lat="43.5540532" lon="11.9567449"><ele>576.6666666666666</ele><time>2026-04-04T10:53:11.316Z</time></trkpt><trkpt lat="43.5540636" lon="11.956864"><ele>577.5</ele><time>2026-04-04T10:53:12.316Z</time></trkpt><trkpt lat="43.5540504" lon="11.9569639"><ele>578.3333333333334</ele><time>2026-04-04T10:53:13.316Z</time></trkpt><trkpt lat="43.5540161" lon="11.9570456"><ele>579.1666666666667</ele><time>2026-04-04T10:53:14.316Z</time></trkpt><trkpt lat="43.553971" lon="11.9571132"><ele>580.0</ele><time>2026-04-04T10:53:15.316Z</time></trkpt><trkpt lat="43.553913" lon="11.957163"><ele>580.0</ele><time>2026-04-04T10:53:16.316Z</time></trkpt><trkpt lat="43.5538633" lon="11.9572361"><ele>580.0</ele><time>2026-04-04T10:53:17.316Z</time></trkpt><trkpt lat="43.553851" lon="11.957353"><ele>580.0</ele><time>2026-04-04T10:53:19.315Z</time></trkpt><trkpt lat="43.5538845" lon="11.9574921"><ele>580.0</ele><time>2026-04-04T10:53:21.315Z</time></trkpt><trkpt lat="43.5539262" lon="11.9575737"><ele>580.0</ele><time>2026-04-04T10:53:22.315Z</time></trkpt><trkpt lat="43.5539763" lon="11.9576437"><ele>580.0</ele><time>2026-04-04T10:53:23.315Z</time></trkpt><trkpt lat="43.5540212" lon="11.9577071"><ele>582.5</ele><time>2026-04-04T10:53:24.315Z</time></trkpt><trkpt lat="43.5540725" lon="11.9577838"><ele>585.0</ele><time>2026-04-04T10:53:25.314Z</time></trkpt><trkpt lat="43.5541222" lon="11.957895"><ele>587.5</ele><time>2026-04-04T10:53:26.315Z</time></trkpt><trkpt lat="43.5541854" lon="11.9579674"><ele>590.0</ele><time>2026-04-04T10:53:27.315Z</time></trkpt><trkpt lat="43.5542457" lon="11.9580711"><ele>592.5</ele><time>2026-04-04T10:53:28.316Z</time></trkpt><trkpt lat="43.5542945" lon="11.9581625"><ele>595.0</ele><time>2026-04-04T10:53:29.314Z</time></trkpt><trkpt lat="43.5543141" lon="11.9582483"><ele>596.2</ele><time>2026-04-04T10:53:30.315Z</time></trkpt><trkpt lat="43.5542927" lon="11.9584208"><ele>597.4</ele><time>2026-04-04T10:53:32.315Z</time></trkpt><trkpt lat="43.5542533" lon="11.9585166"><ele>598.6</ele><time>2026-04-04T10:53:33.315Z</time></trkpt><trkpt lat="43.5541937" lon="11.9586024"><ele>599.8</ele><time>2026-04-04T10:53:34.315Z</time></trkpt><trkpt lat="43.5541368" lon="11.9586919"><ele>601.0</ele><time>2026-04-04T10:53:35.315Z</time></trkpt><trkpt lat="43.5540831" lon="11.9587637"><ele>601.0</ele><time>2026-04-04T10:53:36.315Z</time></trkpt><trkpt lat="43.5540402" lon="11.958828"><ele>601.0</ele><time>2026-04-04T10:53:37.315Z</time></trkpt><trkpt lat="43.5540427" lon="11.958942"><ele>601.0</ele><time>2026-04-04T10:53:38.315Z</time></trkpt><trkpt lat="43.5540255" lon="11.9590494"><ele>601.0</ele><time>2026-04-04T10:53:39.314Z</time></trkpt><trkpt lat="43.553993" lon="11.9591407"><ele>601.0</ele><time>2026-04-04T10:53:40.314Z</time></trkpt><trkpt lat="43.5539735" lon="11.9592573"><ele>601.0</ele><time>2026-04-04T10:53:41.315Z</time></trkpt><trkpt lat="43.55395" lon="11.9593602"><ele>602.3333333333334</ele><time>2026-04-04T10:53:42.315Z</time></trkpt><trkpt lat="43.5539213" lon="11.9594678"><ele>603.6666666666667</ele><time>2026-04-04T10:53:43.316Z</time></trkpt><trkpt lat="43.553883" lon="11.9595797"><ele>605.0</ele><time>2026-04-04T10:53:44.316Z</time></trkpt><trkpt lat="43.5538593" lon="11.9597026"><ele>606.3333333333334</ele><time>2026-04-04T10:53:45.315Z</time></trkpt><trkpt lat="43.5538479" lon="11.9598174"><ele>607.6666666666666</ele><time>2026-04-04T10:53:46.315Z</time></trkpt><trkpt lat="43.5538537" lon="11.959922"><ele>609.0</ele><time>2026-04-04T10:53:47.314Z</time></trkpt><trkpt lat="43.5538557" lon="11.960031"><ele>610.6666666666666</ele><time>2026-04-04T10:53:48.315Z</time></trkpt><trkpt lat="43.5538617" lon="11.9601441"><ele>612.3333333333334</ele><time>2026-04-04T10:53:49.314Z</time></trkpt><trkpt lat="43.5538761" lon="11.9602397"><ele>614.0</ele><time>2026-04-04T10:53:50.315Z</time></trkpt><trkpt lat="43.5538823" lon="11.9603513"><ele>615.6666666666667</ele><time>2026-04-04T10:53:51.315Z</time></trkpt><trkpt lat="43.553888" lon="11.9604566"><ele>617.3333333333334</ele><time>2026-04-04T10:53:52.315Z</time></trkpt><trkpt lat="43.5538926" lon="11.9605722"><ele>619.0</ele><time>2026-04-04T10:53:53.315Z</time></trkpt><trkpt lat="43.553901" lon="11.9606907"><ele>619.0</ele><time>2026-04-04T10:53:54.316Z</time></trkpt><trkpt lat="43.5539048" lon="11.9607943"><ele>619.0</ele><time>2026-04-04T10:53:55.315Z</time></trkpt><trkpt lat="43.5539131" lon="11.9609248"><ele>619.0</ele><time>2026-04-04T10:53:56.315Z</time></trkpt><trkpt lat="43.5539216" lon="11.961038"><ele>619.0</ele><time>2026-04-04T10:53:57.315Z</time></trkpt><trkpt lat="43.5539376" lon="11.9611467"><ele>619.0</ele><time>2026-04-04T10:53:58.314Z</time></trkpt><trkpt lat="43.5539423" lon="11.9612431"><ele>619.0</ele><time>2026-04-04T10:53:59.315Z</time></trkpt><trkpt lat="43.5539523" lon="11.9613368"><ele>619.4</ele><time>2026-04-04T10:54:00.315Z</time></trkpt><trkpt lat="43.5539647" lon="11.9615087"><ele>619.8</ele><time>2026-04-04T10:54:02.315Z</time></trkpt><trkpt lat="43.553988" lon="11.9616905"><ele>620.2</ele><time>2026-04-04T10:54:04.315Z</time></trkpt><trkpt lat="43.5540124" lon="11.9617885"><ele>620.6</ele><time>2026-04-04T10:54:05.315Z</time></trkpt><trkpt lat="43.5540136" lon="11.961879"><ele>621.0</ele><time>2026-04-04T10:54:06.315Z</time></trkpt><trkpt lat="43.5540318" lon="11.9619804"><ele>620.5</ele><time>2026-04-04T10:54:07.315Z</time></trkpt><trkpt lat="43.5540467" lon="11.9620924"><ele>620.0</ele><time>2026-04-04T10:54:08.314Z</time></trkpt><trkpt lat="43.5540721" lon="11.9621859"><ele>619.5</ele><time>2026-04-04T10:54:09.315Z</time></trkpt><trkpt lat="43.5540757" lon="11.9622799"><ele>619.0</ele><time>2026-04-04T10:54:10.315Z</time></trkpt><trkpt lat="43.5541256" lon="11.96245"><ele>618.5</ele><time>2026-04-04T10:54:12.315Z</time></trkpt><trkpt lat="43.5541458" lon="11.9625737"><ele>618.0</ele><time>2026-04-04T10:54:13.315Z</time></trkpt><trkpt lat="43.5541737" lon="11.9627225"><ele>618.0</ele><time>2026-04-04T10:54:14.315Z</time></trkpt><trkpt lat="43.5541645" lon="11.9628683"><ele>618.0</ele><time>2026-04-04T10:54:16.314Z</time></trkpt><trkpt lat="43.5541141" lon="11.9629623"><ele>618.0</ele><time>2026-04-04T10:54:17.315Z</time></trkpt><trkpt lat="43.5540686" lon="11.9630745"><ele>618.0</ele><time>2026-04-04T10:54:18.315Z</time></trkpt><trkpt lat="43.5540443" lon="11.9631984"><ele>618.0</ele><time>2026-04-04T10:54:19.315Z</time></trkpt><trkpt lat="43.5540529" lon="11.9633018"><ele>618.0</ele><time>2026-04-04T10:54:20.315Z</time></trkpt><trkpt lat="43.5540766" lon="11.9634065"><ele>618.0</ele><time>2026-04-04T10:54:21.315Z</time></trkpt><trkpt lat="43.554099" lon="11.9635141"><ele>618.0</ele><time>2026-04-04T10:54:22.315Z</time></trkpt><trkpt lat="43.5541367" lon="11.9636158"><ele>618.0</ele><time>2026-04-04T10:54:23.315Z</time></trkpt><trkpt lat="43.5541829" lon="11.9637126"><ele>618.0</ele><time>2026-04-04T10:54:24.315Z</time></trkpt><trkpt lat="43.5542234" lon="11.9638054"><ele>618.0</ele><time>2026-04-04T10:54:25.315Z</time></trkpt><trkpt lat="43.5542711" lon="11.9638673"><ele>618.0</ele><time>2026-04-04T10:54:26.315Z</time></trkpt><trkpt lat="43.5543302" lon="11.9639463"><ele>618.0</ele><time>2026-04-04T10:54:27.315Z</time></trkpt><trkpt lat="43.5543953" lon="11.9640617"><ele>618.0</ele><time>2026-04-04T10:54:28.315Z</time></trkpt><trkpt lat="43.5544611" lon="11.9641614"><ele>618.0</ele><time>2026-04-04T10:54:29.315Z</time></trkpt><trkpt lat="43.5545296" lon="11.9642533"><ele>618.0</ele><time>2026-04-04T10:54:30.315Z</time></trkpt><trkpt lat="43.5545913" lon="11.9643149"><ele>618.8333333333334</ele><time>2026-04-04T10:54:31.315Z</time></trkpt><trkpt lat="43.5546556" lon="11.9643909"><ele>619.6666666666666</ele><time>2026-04-04T10:54:32.315Z</time></trkpt><trkpt lat="43.5547234" lon="11.964464"><ele>620.5</ele><time>2026-04-04T10:54:33.315Z</time></trkpt><trkpt lat="43.5547913" lon="11.9645339"><ele>621.3333333333333</ele><time>2026-04-04T10:54:34.315Z</time></trkpt><trkpt lat="43.5548698" lon="11.9646024"><ele>622.1666666666666</ele><time>2026-04-04T10:54:35.315Z</time></trkpt><trkpt lat="43.5549421" lon="11.9646631"><ele>623.0</ele><time>2026-04-04T10:54:36.314Z</time></trkpt><trkpt lat="43.5550212" lon="11.9647136"><ele>623.0</ele><time>2026-04-04T10:54:37.315Z</time></trkpt><trkpt lat="43.5550949" lon="11.9647773"><ele>623.0</ele><time>2026-04-04T10:54:38.315Z</time></trkpt><trkpt lat="43.5551557" lon="11.9648407"><ele>623.0</ele><time>2026-04-04T10:54:39.315Z</time></trkpt><trkpt lat="43.5552133" lon="11.9648759"><ele>623.0</ele><time>2026-04-04T10:54:40.315Z</time></trkpt><trkpt lat="43.5552775" lon="11.9649131"><ele>623.0</ele><time>2026-04-04T10:54:41.315Z</time></trkpt><trkpt lat="43.5553913" lon="11.9649734"><ele>623.0</ele><time>2026-04-04T10:54:43.315Z</time></trkpt><trkpt lat="43.5554527" lon="11.9649952"><ele>623.4</ele><time>2026-04-04T10:54:44.315Z</time></trkpt><trkpt lat="43.5555541" lon="11.9649614"><ele>623.8</ele><time>2026-04-04T10:54:46.314Z</time></trkpt><trkpt lat="43.5556492" lon="11.9649427"><ele>624.2</ele><time>2026-04-04T10:54:48.314Z</time></trkpt><trkpt lat="43.5556943" lon="11.9650231"><ele>624.6</ele><time>2026-04-04T10:54:50.315Z</time></trkpt><trkpt lat="43.5556011" lon="11.9650645"><ele>625.0</ele><time>2026-04-04T10:54:53.314Z</time></trkpt><trkpt lat="43.5555223" lon="11.9651089"><ele>625.0</ele><time>2026-04-04T10:54:55.315Z</time></trkpt><trkpt lat="43.5554355" lon="11.9651593"><ele>625.0</ele><time>2026-04-04T10:54:57.314Z</time></trkpt><trkpt lat="43.5553241" lon="11.9652085"><ele>625.0</ele><time>2026-04-04T10:54:59.316Z</time></trkpt><trkpt lat="43.5552574" lon="11.9652149"><ele>625.0</ele><time>2026-04-04T10:55:00.315Z</time></trkpt><trkpt lat="43.5551887" lon="11.9652075"><ele>625.0</ele><time>2026-04-04T10:55:01.315Z</time></trkpt><trkpt lat="43.5551168" lon="11.9651886"><ele>625.0</ele><time>2026-04-04T10:55:02.315Z</time></trkpt><trkpt lat="43.5550409" lon="11.965171"><ele>622.3333333333334</ele><time>2026-04-04T10:55:03.315Z</time></trkpt><trkpt lat="43.5549608" lon="11.9651635"><ele>619.6666666666667</ele><time>2026-04-04T10:55:04.315Z</time></trkpt><trkpt lat="43.5548771" lon="11.965164"><ele>617.0</ele><time>2026-04-04T10:55:05.315Z</time></trkpt><trkpt lat="43.5547952" lon="11.9651982"><ele>614.3333333333334</ele><time>2026-04-04T10:55:06.315Z</time></trkpt><trkpt lat="43.5547143" lon="11.9652339"><ele>611.6666666666666</ele><time>2026-04-04T10:55:07.315Z</time></trkpt><trkpt lat="43.5546413" lon="11.9652832"><ele>609.0</ele><time>2026-04-04T10:55:08.314Z</time></trkpt><trkpt lat="43.5545546" lon="11.9653279"><ele>608.0</ele><time>2026-04-04T10:55:09.315Z</time></trkpt><trkpt lat="43.5544686" lon="11.9653654"><ele>607.0</ele><time>2026-04-04T10:55:10.315Z</time></trkpt><trkpt lat="43.5543734" lon="11.9653963"><ele>606.0</ele><time>2026-04-04T10:55:11.315Z</time></trkpt><trkpt lat="43.5542782" lon="11.965411"><ele>605.0</ele><time>2026-04-04T10:55:12.314Z</time></trkpt><trkpt lat="43.5541838" lon="11.9654125"><ele>604.0</ele><time>2026-04-04T10:55:13.315Z</time></trkpt><trkpt lat="43.5540908" lon="11.9654007"><ele>604.0</ele><time>2026-04-04T10:55:14.315Z</time></trkpt><trkpt lat="43.5539974" lon="11.9653753"><ele>604.0</ele><time>2026-04-04T10:55:15.315Z</time></trkpt><trkpt lat="43.5539029" lon="11.965339"><ele>604.0</ele><time>2026-04-04T10:55:16.315Z</time></trkpt><trkpt lat="43.5538076" lon="11.965294"><ele>604.0</ele><time>2026-04-04T10:55:17.315Z</time></trkpt><trkpt lat="43.5537116" lon="11.9652404"><ele>604.0</ele><time>2026-04-04T10:55:18.315Z</time></trkpt><trkpt lat="43.5536172" lon="11.9651825"><ele>603.0</ele><time>2026-04-04T10:55:19.315Z</time></trkpt><trkpt lat="43.5535289" lon="11.9651316"><ele>602.0</ele><time>2026-04-04T10:55:20.314Z</time></trkpt><trkpt lat="43.5534415" lon="11.9650861"><ele>601.0</ele><time>2026-04-04T10:55:21.315Z</time></trkpt><trkpt lat="43.5533548" lon="11.9650552"><ele>600.0</ele><time>2026-04-04T10:55:22.315Z</time></trkpt><trkpt lat="43.5532656" lon="11.965048"><ele>599.0</ele><time>2026-04-04T10:55:23.315Z</time></trkpt><trkpt lat="43.5531896" lon="11.9650706"><ele>598.0</ele><time>2026-04-04T10:55:24.314Z</time></trkpt><trkpt lat="43.5531238" lon="11.965102"><ele>598.0</ele><time>2026-04-04T10:55:25.316Z</time></trkpt><trkpt lat="43.5530453" lon="11.9651692"><ele>598.0</ele><time>2026-04-04T10:55:26.315Z</time></trkpt><trkpt lat="43.5529812" lon="11.9652448"><ele>598.0</ele><time>2026-04-04T10:55:27.315Z</time></trkpt><trkpt lat="43.5529278" lon="11.965323"><ele>598.0</ele><time>2026-04-04T10:55:28.315Z</time></trkpt><trkpt lat="43.5528716" lon="11.9654137"><ele>598.0</ele><time>2026-04-04T10:55:29.315Z</time></trkpt><trkpt lat="43.5528186" lon="11.9655065"><ele>598.0</ele><time>2026-04-04T10:55:30.315Z</time></trkpt><trkpt lat="43.5527673" lon="11.9656101"><ele>598.1999999999999</ele><time>2026-04-04T10:55:31.316Z</time></trkpt><trkpt lat="43.5527164" lon="11.9657171"><ele>598.4</ele><time>2026-04-04T10:55:32.315Z</time></trkpt><trkpt lat="43.5526635" lon="11.965822"><ele>598.5999999999999</ele><time>2026-04-04T10:55:33.314Z</time></trkpt><trkpt lat="43.5526065" lon="11.9659288"><ele>598.8</ele><time>2026-04-04T10:55:34.315Z</time></trkpt><trkpt lat="43.5525444" lon="11.9660314"><ele>599.0</ele><time>2026-04-04T10:55:35.315Z</time></trkpt><trkpt lat="43.5524774" lon="11.9661355"><ele>599.6</ele><time>2026-04-04T10:55:36.315Z</time></trkpt><trkpt lat="43.5524024" lon="11.9662355"><ele>600.2</ele><time>2026-04-04T10:55:37.315Z</time></trkpt><trkpt lat="43.5523235" lon="11.9663321"><ele>600.8000000000001</ele><time>2026-04-04T10:55:38.315Z</time></trkpt><trkpt lat="43.5522425" lon="11.9664202"><ele>601.4</ele><time>2026-04-04T10:55:39.315Z</time></trkpt><trkpt lat="43.5521617" lon="11.9665059"><ele>602.0</ele><time>2026-04-04T10:55:40.315Z</time></trkpt><trkpt lat="43.5520872" lon="11.9665836"><ele>601.4</ele><time>2026-04-04T10:55:41.315Z</time></trkpt><trkpt lat="43.5520174" lon="11.9666626"><ele>600.8000000000001</ele><time>2026-04-04T10:55:42.315Z</time></trkpt><trkpt lat="43.5519473" lon="11.9667439"><ele>600.2</ele><time>2026-04-04T10:55:43.314Z</time></trkpt><trkpt lat="43.5518824" lon="11.9668265"><ele>599.6</ele><time>2026-04-04T10:55:44.315Z</time></trkpt><trkpt lat="43.5518044" lon="11.9669508"><ele>599.0</ele><time>2026-04-04T10:55:46.314Z</time></trkpt><trkpt lat="43.5517591" lon="11.9670277"><ele>599.0</ele><time>2026-04-04T10:55:47.315Z</time></trkpt><trkpt lat="43.5517144" lon="11.9671179"><ele>599.0</ele><time>2026-04-04T10:55:48.315Z</time></trkpt><trkpt lat="43.5516569" lon="11.9672124"><ele>599.0</ele><time>2026-04-04T10:55:49.315Z</time></trkpt><trkpt lat="43.5515988" lon="11.9673118"><ele>599.0</ele><time>2026-04-04T10:55:50.315Z</time></trkpt><trkpt lat="43.5515418" lon="11.9674099"><ele>599.0</ele><time>2026-04-04T10:55:51.315Z</time></trkpt><trkpt lat="43.5514853" lon="11.9674916"><ele>599.0</ele><time>2026-04-04T10:55:52.315Z</time></trkpt><trkpt lat="43.5514213" lon="11.9675889"><ele>598.1666666666666</ele><time>2026-04-04T10:55:53.315Z</time></trkpt><trkpt lat="43.5513576" lon="11.9676825"><ele>597.3333333333333</ele><time>2026-04-04T10:55:54.315Z</time></trkpt><trkpt lat="43.5512791" lon="11.9677332"><ele>596.5</ele><time>2026-04-04T10:55:55.314Z</time></trkpt><trkpt lat="43.551198" lon="11.9677713"><ele>595.6666666666666</ele><time>2026-04-04T10:55:56.315Z</time></trkpt><trkpt lat="43.5511205" lon="11.9677767"><ele>594.8333333333334</ele><time>2026-04-04T10:55:57.314Z</time></trkpt><trkpt lat="43.5510467" lon="11.9677249"><ele>594.0</ele><time>2026-04-04T10:55:58.315Z</time></trkpt><trkpt lat="43.5509827" lon="11.9676871"><ele>593.8333333333334</ele><time>2026-04-04T10:55:59.315Z</time></trkpt><trkpt lat="43.5509243" lon="11.9676443"><ele>593.6666666666666</ele><time>2026-04-04T10:56:00.314Z</time></trkpt><trkpt lat="43.55085" lon="11.9675054"><ele>593.5</ele><time>2026-04-04T10:56:02.315Z</time></trkpt><trkpt lat="43.5508006" lon="11.9674379"><ele>593.3333333333333</ele><time>2026-04-04T10:56:03.315Z</time></trkpt><trkpt lat="43.5507555" lon="11.9673581"><ele>593.1666666666666</ele><time>2026-04-04T10:56:04.315Z</time></trkpt><trkpt lat="43.5507099" lon="11.9672717"><ele>593.0</ele><time>2026-04-04T10:56:05.315Z</time></trkpt><trkpt lat="43.5506571" lon="11.9671793"><ele>593.0</ele><time>2026-04-04T10:56:06.315Z</time></trkpt><trkpt lat="43.5506003" lon="11.9670816"><ele>593.0</ele><time>2026-04-04T10:56:07.315Z</time></trkpt><trkpt lat="43.5505401" lon="11.9669881"><ele>593.0</ele><time>2026-04-04T10:56:08.315Z</time></trkpt><trkpt lat="43.5504819" lon="11.9668874"><ele>593.0</ele><time>2026-04-04T10:56:09.316Z</time></trkpt><trkpt lat="43.5504113" lon="11.9667933"><ele>593.0</ele><time>2026-04-04T10:56:10.315Z</time></trkpt><trkpt lat="43.5503391" lon="11.9666984"><ele>592.8</ele><time>2026-04-04T10:56:11.314Z</time></trkpt><trkpt lat="43.5502624" lon="11.9665965"><ele>592.5999999999999</ele><time>2026-04-04T10:56:12.315Z</time></trkpt><trkpt lat="43.5501849" lon="11.966499"><ele>592.4000000000001</ele><time>2026-04-04T10:56:13.315Z</time></trkpt><trkpt lat="43.5501022" lon="11.9664042"><ele>592.2</ele><time>2026-04-04T10:56:14.314Z</time></trkpt><trkpt lat="43.5500224" lon="11.9663009"><ele>592.0</ele><time>2026-04-04T10:56:15.315Z</time></trkpt><trkpt lat="43.5499454" lon="11.966192"><ele>592.0</ele><time>2026-04-04T10:56:16.315Z</time></trkpt><trkpt lat="43.5498721" lon="11.9660814"><ele>592.0</ele><time>2026-04-04T10:56:17.315Z</time></trkpt><trkpt lat="43.5497991" lon="11.9659827"><ele>592.0</ele><time>2026-04-04T10:56:18.316Z</time></trkpt><trkpt lat="43.5497208" lon="11.9658889"><ele>592.0</ele><time>2026-04-04T10:56:19.315Z</time></trkpt><trkpt lat="43.5496329" lon="11.9658129"><ele>592.0</ele><time>2026-04-04T10:56:20.315Z</time></trkpt><trkpt lat="43.5495384" lon="11.9657662"><ele>589.6</ele><time>2026-04-04T10:56:21.315Z</time></trkpt><trkpt lat="43.5494374" lon="11.9657226"><ele>587.2</ele><time>2026-04-04T10:56:22.315Z</time></trkpt><trkpt lat="43.5493448" lon="11.9656733"><ele>584.8</ele><time>2026-04-04T10:56:23.315Z</time></trkpt><trkpt lat="43.5492544" lon="11.9655984"><ele>582.4</ele><time>2026-04-04T10:56:24.315Z</time></trkpt><trkpt lat="43.5491689" lon="11.9655052"><ele>580.0</ele><time>2026-04-04T10:56:25.315Z</time></trkpt><trkpt lat="43.5490939" lon="11.9653971"><ele>580.0</ele><time>2026-04-04T10:56:26.315Z</time></trkpt><trkpt lat="43.5490259" lon="11.9652845"><ele>580.0</ele><time>2026-04-04T10:56:27.315Z</time></trkpt><trkpt lat="43.5489627" lon="11.965174"><ele>580.0</ele><time>2026-04-04T10:56:28.315Z</time></trkpt><trkpt lat="43.5489137" lon="11.9650773"><ele>580.0</ele><time>2026-04-04T10:56:29.316Z</time></trkpt><trkpt lat="43.5488711" lon="11.9649917"><ele>580.0</ele><time>2026-04-04T10:56:30.314Z</time></trkpt><trkpt lat="43.5488275" lon="11.9649169"><ele>580.0</ele><time>2026-04-04T10:56:31.315Z</time></trkpt><trkpt lat="43.5487275" lon="11.9648126"><ele>579.2</ele><time>2026-04-04T10:56:33.315Z</time></trkpt><trkpt lat="43.5486172" lon="11.9647345"><ele>578.4</ele><time>2026-04-04T10:56:35.315Z</time></trkpt><trkpt lat="43.5485183" lon="11.9646758"><ele>577.6</ele><time>2026-04-04T10:56:37.315Z</time></trkpt><trkpt lat="43.5484604" lon="11.9646416"><ele>576.8</ele><time>2026-04-04T10:56:39.315Z</time></trkpt><trkpt lat="43.5483795" lon="11.9645774"><ele>576.0</ele><time>2026-04-04T10:56:43.315Z</time></trkpt><trkpt lat="43.54829" lon="11.9645399"><ele>576.0</ele><time>2026-04-04T10:56:44.315Z</time></trkpt><trkpt lat="43.5481755" lon="11.964476"><ele>576.0</ele><time>2026-04-04T10:56:45.314Z</time></trkpt><trkpt lat="43.548055" lon="11.9643953"><ele>576.0</ele><time>2026-04-04T10:56:46.315Z</time></trkpt><trkpt lat="43.547926" lon="11.964294"><ele>576.0</ele><time>2026-04-04T10:56:47.316Z</time></trkpt><trkpt lat="43.5477955" lon="11.9642033"><ele>577.25</ele><time>2026-04-04T10:56:48.315Z</time></trkpt><trkpt lat="43.547681" lon="11.9641043"><ele>578.5</ele><time>2026-04-04T10:56:49.315Z</time></trkpt><trkpt lat="43.5475859" lon="11.9639322"><ele>579.75</ele><time>2026-04-04T10:56:51.315Z</time></trkpt><trkpt lat="43.5474342" lon="11.9638858"><ele>581.0</ele><time>2026-04-04T10:56:53.313Z</time></trkpt><trkpt lat="43.547295" lon="11.9639379"><ele>581.0</ele><time>2026-04-04T10:56:54.314Z</time></trkpt><trkpt lat="43.5471821" lon="11.9639412"><ele>581.0</ele><time>2026-04-04T10:56:55.315Z</time></trkpt><trkpt lat="43.5470707" lon="11.963938"><ele>581.0</ele><time>2026-04-04T10:56:56.315Z</time></trkpt><trkpt lat="43.546972" lon="11.9639218"><ele>581.0</ele><time>2026-04-04T10:56:57.315Z</time></trkpt><trkpt lat="43.5468846" lon="11.9638919"><ele>581.0</ele><time>2026-04-04T10:56:58.315Z</time></trkpt><trkpt lat="43.5467974" lon="11.9638169"><ele>581.8</ele><time>2026-04-04T10:56:59.315Z</time></trkpt><trkpt lat="43.5467049" lon="11.9637422"><ele>582.6</ele><time>2026-04-04T10:57:00.315Z</time></trkpt><trkpt lat="43.546627" lon="11.9636535"><ele>583.4</ele><time>2026-04-04T10:57:01.315Z</time></trkpt><trkpt lat="43.5465672" lon="11.9635477"><ele>584.2</ele><time>2026-04-04T10:57:02.315Z</time></trkpt><trkpt lat="43.5465254" lon="11.9634356"><ele>585.0</ele><time>2026-04-04T10:57:03.315Z</time></trkpt><trkpt lat="43.5465136" lon="11.9633318"><ele>584.6666666666666</ele><time>2026-04-04T10:57:04.314Z</time></trkpt><trkpt lat="43.5464966" lon="11.9632446"><ele>584.3333333333334</ele><time>2026-04-04T10:57:05.315Z</time></trkpt><trkpt lat="43.546453" lon="11.9631663"><ele>584.0</ele><time>2026-04-04T10:57:06.314Z</time></trkpt><trkpt lat="43.5463893" lon="11.9631119"><ele>583.6666666666667</ele><time>2026-04-04T10:57:07.315Z</time></trkpt><trkpt lat="43.546314" lon="11.963075"><ele>583.3333333333334</ele><time>2026-04-04T10:57:08.315Z</time></trkpt><trkpt lat="43.546233" lon="11.9630567"><ele>583.0</ele><time>2026-04-04T10:57:09.315Z</time></trkpt><trkpt lat="43.5461324" lon="11.9630537"><ele>583.0</ele><time>2026-04-04T10:57:10.314Z</time></trkpt><trkpt lat="43.545999" lon="11.9630522"><ele>583.0</ele><time>2026-04-04T10:57:11.315Z</time></trkpt><trkpt lat="43.5458868" lon="11.9630237"><ele>583.0</ele><time>2026-04-04T10:57:12.315Z</time></trkpt><trkpt lat="43.5457749" lon="11.962992"><ele>583.0</ele><time>2026-04-04T10:57:13.315Z</time></trkpt><trkpt lat="43.5456612" lon="11.9629541"><ele>583.0</ele><time>2026-04-04T10:57:14.315Z</time></trkpt><trkpt lat="43.5455558" lon="11.9629216"><ele>583.0</ele><time>2026-04-04T10:57:15.315Z</time></trkpt><trkpt lat="43.5454534" lon="11.9629054"><ele>583.0</ele><time>2026-04-04T10:57:16.315Z</time></trkpt><trkpt lat="43.5453591" lon="11.9629106"><ele>583.0</ele><time>2026-04-04T10:57:17.314Z</time></trkpt><trkpt lat="43.5452783" lon="11.962947"><ele>583.0</ele><time>2026-04-04T10:57:18.315Z</time></trkpt><trkpt lat="43.5452079" lon="11.9630078"><ele>583.1666666666667</ele><time>2026-04-04T10:57:19.315Z</time></trkpt><trkpt lat="43.5451549" lon="11.9630929"><ele>583.3333333333334</ele><time>2026-04-04T10:57:20.314Z</time></trkpt><trkpt lat="43.545118" lon="11.9631986"><ele>583.5</ele><time>2026-04-04T10:57:21.314Z</time></trkpt><trkpt lat="43.5450946" lon="11.9633105"><ele>583.6666666666666</ele><time>2026-04-04T10:57:22.314Z</time></trkpt><trkpt lat="43.545067" lon="11.9634205"><ele>583.8333333333333</ele><time>2026-04-04T10:57:23.315Z</time></trkpt><trkpt lat="43.54502" lon="11.9635191"><ele>584.0</ele><time>2026-04-04T10:57:24.315Z</time></trkpt><trkpt lat="43.5449527" lon="11.963595"><ele>584.0</ele><time>2026-04-04T10:57:25.315Z</time></trkpt><trkpt lat="43.5448767" lon="11.9636627"><ele>584.0</ele><time>2026-04-04T10:57:26.315Z</time></trkpt><trkpt lat="43.5447978" lon="11.963724"><ele>584.0</ele><time>2026-04-04T10:57:27.315Z</time></trkpt><trkpt lat="43.5447118" lon="11.9637751"><ele>584.0</ele><time>2026-04-04T10:57:28.315Z</time></trkpt><trkpt lat="43.54462" lon="11.9638321"><ele>584.0</ele><time>2026-04-04T10:57:29.315Z</time></trkpt><trkpt lat="43.5445237" lon="11.9638691"><ele>584.2</ele><time>2026-04-04T10:57:30.315Z</time></trkpt><trkpt lat="43.5444311" lon="11.9639153"><ele>584.4</ele><time>2026-04-04T10:57:31.315Z</time></trkpt><trkpt lat="43.5443343" lon="11.9639742"><ele>584.6</ele><time>2026-04-04T10:57:32.314Z</time></trkpt><trkpt lat="43.544239" lon="11.9640408"><ele>584.8</ele><time>2026-04-04T10:57:33.315Z</time></trkpt><trkpt lat="43.5441467" lon="11.9641171"><ele>585.0</ele><time>2026-04-04T10:57:34.316Z</time></trkpt><trkpt lat="43.5440573" lon="11.9641989"><ele>587.0</ele><time>2026-04-04T10:57:35.315Z</time></trkpt><trkpt lat="43.5439646" lon="11.9642821"><ele>589.0</ele><time>2026-04-04T10:57:36.315Z</time></trkpt><trkpt lat="43.5438741" lon="11.9643664"><ele>591.0</ele><time>2026-04-04T10:57:37.314Z</time></trkpt><trkpt lat="43.5437843" lon="11.9644567"><ele>593.0</ele><time>2026-04-04T10:57:38.315Z</time></trkpt><trkpt lat="43.543698" lon="11.9645426"><ele>595.0</ele><time>2026-04-04T10:57:39.315Z</time></trkpt><trkpt lat="43.5435997" lon="11.9646084"><ele>595.0</ele><time>2026-04-04T10:57:40.315Z</time></trkpt><trkpt lat="43.5434947" lon="11.9646383"><ele>595.0</ele><time>2026-04-04T10:57:41.315Z</time></trkpt><trkpt lat="43.5433871" lon="11.9646302"><ele>595.0</ele><time>2026-04-04T10:57:42.315Z</time></trkpt><trkpt lat="43.5432762" lon="11.9646167"><ele>595.0</ele><time>2026-04-04T10:57:43.314Z</time></trkpt><trkpt lat="43.5431659" lon="11.9646369"><ele>595.0</ele><time>2026-04-04T10:57:44.316Z</time></trkpt><trkpt lat="43.5430627" lon="11.9646854"><ele>595.0</ele><time>2026-04-04T10:57:45.314Z</time></trkpt><trkpt lat="43.5429704" lon="11.9647653"><ele>595.0</ele><time>2026-04-04T10:57:46.315Z</time></trkpt><trkpt lat="43.5428965" lon="11.964867"><ele>595.0</ele><time>2026-04-04T10:57:47.316Z</time></trkpt><trkpt lat="43.5428405" lon="11.9649864"><ele>595.0</ele><time>2026-04-04T10:57:48.315Z</time></trkpt><trkpt lat="43.5427862" lon="11.965094"><ele>595.0</ele><time>2026-04-04T10:57:49.315Z</time></trkpt><trkpt lat="43.5427354" lon="11.9651973"><ele>595.4</ele><time>2026-04-04T10:57:50.315Z</time></trkpt><trkpt lat="43.5426924" lon="11.9652843"><ele>595.8</ele><time>2026-04-04T10:57:51.315Z</time></trkpt><trkpt lat="43.5426256" lon="11.9654091"><ele>596.2</ele><time>2026-04-04T10:57:53.315Z</time></trkpt><trkpt lat="43.5425781" lon="11.965496"><ele>596.6</ele><time>2026-04-04T10:58:01.314Z</time></trkpt><trkpt lat="43.5425787" lon="11.9656111"><ele>597.0</ele><time>2026-04-04T10:58:43.315Z</time></trkpt><trkpt lat="43.5426627" lon="11.9656906"><ele>597.0</ele><time>2026-04-04T10:58:45.315Z</time></trkpt><trkpt lat="43.5426999" lon="11.9657633"><ele>597.0</ele><time>2026-04-04T10:58:46.315Z</time></trkpt><trkpt lat="43.5427127" lon="11.965915"><ele>597.0</ele><time>2026-04-04T10:58:48.314Z</time></trkpt><trkpt lat="43.5427144" lon="11.9660097"><ele>597.0</ele><time>2026-04-04T10:58:49.315Z</time></trkpt><trkpt lat="43.5426894" lon="11.9661498"><ele>597.0</ele><time>2026-04-04T10:58:50.315Z</time></trkpt><trkpt lat="43.5426716" lon="11.9662746"><ele>597.0</ele><time>2026-04-04T10:58:51.314Z</time></trkpt><trkpt lat="43.5426626" lon="11.9664021"><ele>596.8000000000001</ele><time>2026-04-04T10:58:52.315Z</time></trkpt><trkpt lat="43.542656" lon="11.9665178"><ele>596.6</ele><time>2026-04-04T10:58:53.315Z</time></trkpt><trkpt lat="43.5426347" lon="11.9666864"><ele>596.4000000000001</ele><time>2026-04-04T10:58:55.315Z</time></trkpt><trkpt lat="43.5425976" lon="11.9668236"><ele>596.2</ele><time>2026-04-04T10:58:57.315Z</time></trkpt><trkpt lat="43.542569" lon="11.9669814"><ele>596.0</ele><time>2026-04-04T10:58:59.315Z</time></trkpt><trkpt lat="43.5425835" lon="11.9671591"><ele>593.8</ele><time>2026-04-04T10:59:01.315Z</time></trkpt><trkpt lat="43.5425947" lon="11.9672598"><ele>591.6</ele><time>2026-04-04T10:59:02.315Z</time></trkpt><trkpt lat="43.5426095" lon="11.967354"><ele>589.4</ele><time>2026-04-04T10:59:03.315Z</time></trkpt><trkpt lat="43.5426317" lon="11.9675349"><ele>587.2</ele><time>2026-04-04T10:59:05.315Z</time></trkpt><trkpt lat="43.5426657" lon="11.9677048"><ele>585.0</ele><time>2026-04-04T10:59:07.315Z</time></trkpt><trkpt lat="43.5426865" lon="11.9677937"><ele>582.4</ele><time>2026-04-04T10:59:08.315Z</time></trkpt><trkpt lat="43.5427069" lon="11.9678889"><ele>579.8</ele><time>2026-04-04T10:59:09.315Z</time></trkpt><trkpt lat="43.5427327" lon="11.9680621"><ele>577.2</ele><time>2026-04-04T10:59:11.315Z</time></trkpt><trkpt lat="43.5427571" lon="11.9682237"><ele>574.6</ele><time>2026-04-04T10:59:13.315Z</time></trkpt><trkpt lat="43.5427808" lon="11.9683137"><ele>572.0</ele><time>2026-04-04T10:59:14.316Z</time></trkpt><trkpt lat="43.5428046" lon="11.9684131"><ele>569.0</ele><time>2026-04-04T10:59:15.315Z</time></trkpt><trkpt lat="43.5428653" lon="11.9685831"><ele>566.0</ele><time>2026-04-04T10:59:17.315Z</time></trkpt><trkpt lat="43.5429158" lon="11.9687188"><ele>563.0</ele><time>2026-04-04T10:59:19.315Z</time></trkpt><trkpt lat="43.5429762" lon="11.9688293"><ele>560.0</ele><time>2026-04-04T10:59:21.316Z</time></trkpt><trkpt lat="43.5430295" lon="11.9689488"><ele>560.0</ele><time>2026-04-04T10:59:23.315Z</time></trkpt><trkpt lat="43.543074" lon="11.9690553"><ele>560.0</ele><time>2026-04-04T10:59:25.315Z</time></trkpt><trkpt lat="43.5430818" lon="11.9691958"><ele>560.0</ele><time>2026-04-04T10:59:27.314Z</time></trkpt><trkpt lat="43.5431011" lon="11.969291"><ele>560.0</ele><time>2026-04-04T10:59:29.315Z</time></trkpt><trkpt lat="43.5431432" lon="11.9693938"><ele>560.0</ele><time>2026-04-04T10:59:31.316Z</time></trkpt><trkpt lat="43.5431913" lon="11.9694856"><ele>560.0</ele><time>2026-04-04T10:59:33.315Z</time></trkpt><trkpt lat="43.5432339" lon="11.9695586"><ele>558.5</ele><time>2026-04-04T10:59:35.315Z</time></trkpt><trkpt lat="43.5432988" lon="11.9696225"><ele>557.0</ele><time>2026-04-04T10:59:37.315Z</time></trkpt><trkpt lat="43.5433765" lon="11.9696514"><ele>555.5</ele><time>2026-04-04T10:59:39.315Z</time></trkpt><trkpt lat="43.5434486" lon="11.9696919"><ele>554.0</ele><time>2026-04-04T10:59:41.315Z</time></trkpt><trkpt lat="43.5435099" lon="11.969744"><ele>552.5</ele><time>2026-04-04T10:59:43.315Z</time></trkpt><trkpt lat="43.5435754" lon="11.9698007"><ele>551.0</ele><time>2026-04-04T10:59:45.315Z</time></trkpt><trkpt lat="43.5436424" lon="11.9698644"><ele>548.6</ele><time>2026-04-04T10:59:47.315Z</time></trkpt><trkpt lat="43.5437473" lon="11.9699587"><ele>546.2</ele><time>2026-04-04T10:59:49.314Z</time></trkpt><trkpt lat="43.5438586" lon="11.969986"><ele>543.8</ele><time>2026-04-04T10:59:51.315Z</time></trkpt><trkpt lat="43.5439026" lon="11.970094"><ele>541.4</ele><time>2026-04-04T10:59:53.316Z</time></trkpt><trkpt lat="43.5439562" lon="11.9701887"><ele>539.0</ele><time>2026-04-04T10:59:55.316Z</time></trkpt><trkpt lat="43.5439927" lon="11.9703162"><ele>538.5</ele><time>2026-04-04T10:59:57.315Z</time></trkpt><trkpt lat="43.5440295" lon="11.970475"><ele>538.0</ele><time>2026-04-04T10:59:59.315Z</time></trkpt><trkpt lat="43.5440667" lon="11.9705678"><ele>537.5</ele><time>2026-04-04T11:00:02.315Z</time></trkpt><trkpt lat="43.5441545" lon="11.9705135"><ele>537.0</ele><time>2026-04-04T11:00:06.315Z</time></trkpt><trkpt lat="43.5441957" lon="11.9704438"><ele>536.5</ele><time>2026-04-04T11:00:08.315Z</time></trkpt><trkpt lat="43.5442305" lon="11.9703657"><ele>536.0</ele><time>2026-04-04T11:00:10.315Z</time></trkpt><trkpt lat="43.544256" lon="11.9702791"><ele>536.0</ele><time>2026-04-04T11:00:12.314Z</time></trkpt><trkpt lat="43.5442818" lon="11.9701796"><ele>536.0</ele><time>2026-04-04T11:00:15.316Z</time></trkpt><trkpt lat="43.5443069" lon="11.9700748"><ele>536.0</ele><time>2026-04-04T11:00:19.315Z</time></trkpt><trkpt lat="43.5442985" lon="11.9699693"><ele>536.0</ele><time>2026-04-04T11:00:24.315Z</time></trkpt><trkpt lat="43.5442872" lon="11.9698783"><ele>536.0</ele><time>2026-04-04T11:00:29.314Z</time></trkpt><trkpt lat="43.5442736" lon="11.9697661"><ele>536.0</ele><time>2026-04-04T11:00:33.315Z</time></trkpt><trkpt lat="43.5442528" lon="11.9696706"><ele>536.5</ele><time>2026-04-04T11:00:36.315Z</time></trkpt><trkpt lat="43.5442381" lon="11.9695675"><ele>537.0</ele><time>2026-04-04T11:00:46.315Z</time></trkpt><trkpt lat="43.5442423" lon="11.9694772"><ele>537.5</ele><time>2026-04-04T11:01:02.315Z</time></trkpt><trkpt lat="43.5442474" lon="11.9693825"><ele>538.0</ele><time>2026-04-04T11:01:04.315Z</time></trkpt><trkpt lat="43.5443084" lon="11.9693333"><ele>538.5</ele><time>2026-04-04T11:01:07.315Z</time></trkpt><trkpt lat="43.5443749" lon="11.969359"><ele>539.0</ele><time>2026-04-04T11:01:10.314Z</time></trkpt><trkpt lat="43.544488" lon="11.9694727"><ele>532.0</ele><time>2026-04-04T11:01:12.315Z</time></trkpt><trkpt lat="43.5445634" lon="11.969583"><ele>525.0</ele><time>2026-04-04T11:01:14.314Z</time></trkpt><trkpt lat="43.5446397" lon="11.9696858"><ele>518.0</ele><time>2026-04-04T11:01:16.314Z</time></trkpt><trkpt lat="43.5447062" lon="11.9697745"><ele>511.0</ele><time>2026-04-04T11:01:18.315Z</time></trkpt><trkpt lat="43.5447918" lon="11.9698428"><ele>504.0</ele><time>2026-04-04T11:01:20.315Z</time></trkpt><trkpt lat="43.5448798" lon="11.9698515"><ele>504.0</ele><time>2026-04-04T11:01:22.315Z</time></trkpt><trkpt lat="43.5449611" lon="11.9699634"><ele>504.0</ele><time>2026-04-04T11:01:24.315Z</time></trkpt><trkpt lat="43.5450206" lon="11.9701053"><ele>504.0</ele><time>2026-04-04T11:01:26.315Z</time></trkpt><trkpt lat="43.5450667" lon="11.9702436"><ele>504.0</ele><time>2026-04-04T11:01:28.315Z</time></trkpt><trkpt lat="43.5451028" lon="11.9703794"><ele>504.0</ele><time>2026-04-04T11:01:30.316Z</time></trkpt><trkpt lat="43.5451002" lon="11.9705237"><ele>503.7142857142857</ele><time>2026-04-04T11:01:32.316Z</time></trkpt><trkpt lat="43.5450611" lon="11.9706044"><ele>503.42857142857144</ele><time>2026-04-04T11:01:35.315Z</time></trkpt><trkpt lat="43.5450352" lon="11.9707088"><ele>503.1428571428571</ele><time>2026-04-04T11:01:37.314Z</time></trkpt><trkpt lat="43.5450236" lon="11.970815"><ele>502.85714285714283</ele><time>2026-04-04T11:01:40.315Z</time></trkpt><trkpt lat="43.5450285" lon="11.9709071"><ele>502.57142857142856</ele><time>2026-04-04T11:01:42.315Z</time></trkpt><trkpt lat="43.5450189" lon="11.9710092"><ele>502.2857142857142</ele><time>2026-04-04T11:01:44.316Z</time></trkpt><trkpt lat="43.5450141" lon="11.9711009"><ele>501.99999999999994</ele><time>2026-04-04T11:01:46.315Z</time></trkpt><trkpt lat="43.5450289" lon="11.971214"><ele>500.1666666666667</ele><time>2026-04-04T11:01:48.314Z</time></trkpt><trkpt lat="43.5450204" lon="11.9713227"><ele>498.33333333333337</ele><time>2026-04-04T11:01:50.315Z</time></trkpt><trkpt lat="43.5450022" lon="11.9714342"><ele>496.5</ele><time>2026-04-04T11:01:53.315Z</time></trkpt><trkpt lat="43.5450031" lon="11.9715558"><ele>494.66666666666663</ele><time>2026-04-04T11:01:57.315Z</time></trkpt><trkpt lat="43.5450098" lon="11.9716834"><ele>492.8333333333333</ele><time>2026-04-04T11:02:00.314Z</time></trkpt><trkpt lat="43.5450263" lon="11.9717763"><ele>491.0</ele><time>2026-04-04T11:02:02.315Z</time></trkpt><trkpt lat="43.5450243" lon="11.9718702"><ele>489.2857142857143</ele><time>2026-04-04T11:02:04.315Z</time></trkpt><trkpt lat="43.5450161" lon="11.9719653"><ele>487.57142857142856</ele><time>2026-04-04T11:02:07.315Z</time></trkpt><trkpt lat="43.5450099" lon="11.9720534"><ele>485.85714285714283</ele><time>2026-04-04T11:02:11.315Z</time></trkpt><trkpt lat="43.5449717" lon="11.9721428"><ele>484.1428571428571</ele><time>2026-04-04T11:02:15.315Z</time></trkpt><trkpt lat="43.5449336" lon="11.9722171"><ele>482.42857142857144</ele><time>2026-04-04T11:02:17.314Z</time></trkpt><trkpt lat="43.544908" lon="11.9723009"><ele>480.71428571428567</ele><time>2026-04-04T11:02:19.315Z</time></trkpt><trkpt lat="43.5448798" lon="11.9724169"><ele>479.0</ele><time>2026-04-04T11:02:21.315Z</time></trkpt><trkpt lat="43.5448629" lon="11.9725273"><ele>479.3333333333333</ele><time>2026-04-04T11:02:23.315Z</time></trkpt><trkpt lat="43.5448146" lon="11.9726536"><ele>479.66666666666663</ele><time>2026-04-04T11:02:26.315Z</time></trkpt><trkpt lat="43.5447616" lon="11.9727336"><ele>480.0</ele><time>2026-04-04T11:02:29.315Z</time></trkpt><trkpt lat="43.5446936" lon="11.9727893"><ele>480.33333333333337</ele><time>2026-04-04T11:02:31.315Z</time></trkpt><trkpt lat="43.5445939" lon="11.9728247"><ele>480.6666666666667</ele><time>2026-04-04T11:02:33.314Z</time></trkpt><trkpt lat="43.5445255" lon="11.9728738"><ele>481.0</ele><time>2026-04-04T11:02:36.315Z</time></trkpt><trkpt lat="43.5444472" lon="11.9728437"><ele>481.00000000000006</ele><time>2026-04-04T11:03:14.315Z</time></trkpt><trkpt lat="43.5443532" lon="11.9727997"><ele>481.0</ele><time>2026-04-04T11:03:17.315Z</time></trkpt><trkpt lat="43.5442611" lon="11.97281"><ele>481.0</ele><time>2026-04-04T11:03:19.315Z</time></trkpt><trkpt lat="43.5442012" lon="11.9728771"><ele>481.0</ele><time>2026-04-04T11:03:21.315Z</time></trkpt><trkpt lat="43.5442208" lon="11.9729672"><ele>481.00000000000006</ele><time>2026-04-04T11:03:25.315Z</time></trkpt><trkpt lat="43.5442475" lon="11.9730951"><ele>481.0</ele><time>2026-04-04T11:03:29.315Z</time></trkpt><trkpt lat="43.5442425" lon="11.9732457"><ele>481.0</ele><time>2026-04-04T11:03:31.315Z</time></trkpt><trkpt lat="43.5442434" lon="11.9733384"><ele>481.0</ele><time>2026-04-04T11:03:33.314Z</time></trkpt><trkpt lat="43.5441751" lon="11.9734305"><ele>481.0</ele><time>2026-04-04T11:03:36.315Z</time></trkpt><trkpt lat="43.5441238" lon="11.9735128"><ele>481.0</ele><time>2026-04-04T11:03:38.315Z</time></trkpt><trkpt lat="43.5440654" lon="11.9736277"><ele>481.0</ele><time>2026-04-04T11:03:40.315Z</time></trkpt><trkpt lat="43.5439607" lon="11.9736573"><ele>482.6666666666667</ele><time>2026-04-04T11:03:42.315Z</time></trkpt><trkpt lat="43.5439051" lon="11.9736136"><ele>484.33333333333337</ele><time>2026-04-04T11:03:43.315Z</time></trkpt><trkpt lat="43.5438306" lon="11.9736883"><ele>486.0</ele><time>2026-04-04T11:03:45.315Z</time></trkpt><trkpt lat="43.5437742" lon="11.9737761"><ele>487.66666666666663</ele><time>2026-04-04T11:03:47.315Z</time></trkpt><trkpt lat="43.5437014" lon="11.9738486"><ele>489.3333333333333</ele><time>2026-04-04T11:03:49.314Z</time></trkpt><trkpt lat="43.5436524" lon="11.9739362"><ele>491.0</ele><time>2026-04-04T11:03:51.315Z</time></trkpt><trkpt lat="43.5436446" lon="11.9740692"><ele>491.49999999999994</ele><time>2026-04-04T11:03:53.315Z</time></trkpt><trkpt lat="43.54364" lon="11.9741644"><ele>492.0</ele><time>2026-04-04T11:03:54.315Z</time></trkpt><trkpt lat="43.543624" lon="11.9743165"><ele>492.5</ele><time>2026-04-04T11:03:56.315Z</time></trkpt><trkpt lat="43.5436131" lon="11.9744076"><ele>493.0</ele><time>2026-04-04T11:03:57.315Z</time></trkpt><trkpt lat="43.543596" lon="11.9745083"><ele>493.49999999999994</ele><time>2026-04-04T11:03:58.315Z</time></trkpt><trkpt lat="43.543609" lon="11.9746482"><ele>494.0</ele><time>2026-04-04T11:04:00.315Z</time></trkpt><trkpt lat="43.5436099" lon="11.9747795"><ele>496.8333333333333</ele><time>2026-04-04T11:04:02.315Z</time></trkpt><trkpt lat="43.5436196" lon="11.9749314"><ele>499.66666666666663</ele><time>2026-04-04T11:04:04.315Z</time></trkpt><trkpt lat="43.543639" lon="11.9750144"><ele>502.5</ele><time>2026-04-04T11:04:05.315Z</time></trkpt><trkpt lat="43.5436527" lon="11.9751055"><ele>505.33333333333337</ele><time>2026-04-04T11:04:06.315Z</time></trkpt><trkpt lat="43.543677" lon="11.9752458"><ele>508.1666666666667</ele><time>2026-04-04T11:04:08.314Z</time></trkpt><trkpt lat="43.543682" lon="11.9753869"><ele>511.0</ele><time>2026-04-04T11:04:10.315Z</time></trkpt><trkpt lat="43.5436604" lon="11.9755128"><ele>514.2</ele><time>2026-04-04T11:04:12.315Z</time></trkpt><trkpt lat="43.5436107" lon="11.9756188"><ele>517.4000000000001</ele><time>2026-04-04T11:04:14.315Z</time></trkpt><trkpt lat="43.5435804" lon="11.9757586"><ele>520.6</ele><time>2026-04-04T11:04:16.315Z</time></trkpt><trkpt lat="43.5435942" lon="11.9758852"><ele>523.8000000000001</ele><time>2026-04-04T11:04:18.315Z</time></trkpt><trkpt lat="43.543617" lon="11.9760186"><ele>527.0</ele><time>2026-04-04T11:04:20.315Z</time></trkpt><trkpt lat="43.5436263" lon="11.9761545"><ele>529.0</ele><time>2026-04-04T11:04:22.315Z</time></trkpt><trkpt lat="43.5436312" lon="11.9762949"><ele>531.0</ele><time>2026-04-04T11:04:24.315Z</time></trkpt><trkpt lat="43.5436145" lon="11.9764201"><ele>533.0</ele><time>2026-04-04T11:04:26.315Z</time></trkpt><trkpt lat="43.5436007" lon="11.9765232"><ele>535.0</ele><time>2026-04-04T11:04:28.315Z</time></trkpt><trkpt lat="43.5435914" lon="11.9766498"><ele>537.0</ele><time>2026-04-04T11:04:30.315Z</time></trkpt><trkpt lat="43.5435831" lon="11.9767935"><ele>539.1666666666666</ele><time>2026-04-04T11:04:32.315Z</time></trkpt><trkpt lat="43.5435479" lon="11.9769154"><ele>541.3333333333334</ele><time>2026-04-04T11:04:34.315Z</time></trkpt><trkpt lat="43.5435228" lon="11.9770375"><ele>543.5</ele><time>2026-04-04T11:04:36.314Z</time></trkpt><trkpt lat="43.5435095" lon="11.9771365"><ele>545.6666666666667</ele><time>2026-04-04T11:04:37.315Z</time></trkpt><trkpt lat="43.5434951" lon="11.9772373"><ele>547.8333333333334</ele><time>2026-04-04T11:04:38.315Z</time></trkpt><trkpt lat="43.5435423" lon="11.9773549"><ele>550.0</ele><time>2026-04-04T11:04:40.315Z</time></trkpt><trkpt lat="43.5436429" lon="11.9774422"><ele>552.5</ele><time>2026-04-04T11:04:42.314Z</time></trkpt><trkpt lat="43.5436689" lon="11.9775986"><ele>555.0</ele><time>2026-04-04T11:04:44.315Z</time></trkpt><trkpt lat="43.5436681" lon="11.9776979"><ele>557.5</ele><time>2026-04-04T11:04:45.315Z</time></trkpt><trkpt lat="43.5436685" lon="11.9777955"><ele>560.0</ele><time>2026-04-04T11:04:46.315Z</time></trkpt><trkpt lat="43.5436597" lon="11.9779052"><ele>562.5</ele><time>2026-04-04T11:04:47.315Z</time></trkpt><trkpt lat="43.5436465" lon="11.977996"><ele>565.0</ele><time>2026-04-04T11:04:48.315Z</time></trkpt><trkpt lat="43.5436208" lon="11.9781689"><ele>565.0</ele><time>2026-04-04T11:04:50.315Z</time></trkpt><trkpt lat="43.5436038" lon="11.9782622"><ele>565.0</ele><time>2026-04-04T11:04:51.315Z</time></trkpt><trkpt lat="43.5435805" lon="11.9783591"><ele>565.0</ele><time>2026-04-04T11:04:52.315Z</time></trkpt><trkpt lat="43.5435452" lon="11.9784506"><ele>565.0</ele><time>2026-04-04T11:04:53.315Z</time></trkpt><trkpt lat="43.5434753" lon="11.9785655"><ele>565.0</ele><time>2026-04-04T11:04:55.315Z</time></trkpt><trkpt lat="43.5434303" lon="11.9787111"><ele>565.0</ele><time>2026-04-04T11:04:57.315Z</time></trkpt><trkpt lat="43.5434542" lon="11.9787923"><ele>567.6</ele><time>2026-04-04T11:04:58.315Z</time></trkpt><trkpt lat="43.5434768" lon="11.9789096"><ele>570.2</ele><time>2026-04-04T11:05:00.315Z</time></trkpt><trkpt lat="43.5434498" lon="11.9789955"><ele>572.8</ele><time>2026-04-04T11:05:03.315Z</time></trkpt><trkpt lat="43.5433664" lon="11.9789334"><ele>575.4</ele><time>2026-04-04T11:05:58.315Z</time></trkpt><trkpt lat="43.5432548" lon="11.978818"><ele>578.0</ele><time>2026-04-04T11:06:00.315Z</time></trkpt><trkpt lat="43.5431823" lon="11.9787299"><ele>578.0</ele><time>2026-04-04T11:06:01.316Z</time></trkpt><trkpt lat="43.54311" lon="11.9786619"><ele>578.0</ele><time>2026-04-04T11:06:02.314Z</time></trkpt><trkpt lat="43.5430295" lon="11.9785994"><ele>578.0</ele><time>2026-04-04T11:06:03.316Z</time></trkpt><trkpt lat="43.5429469" lon="11.9785144"><ele>578.0</ele><time>2026-04-04T11:06:04.315Z</time></trkpt><trkpt lat="43.542866" lon="11.9784571"><ele>578.0</ele><time>2026-04-04T11:06:05.316Z</time></trkpt><trkpt lat="43.5427479" lon="11.9783703"><ele>578.75</ele><time>2026-04-04T11:06:06.315Z</time></trkpt><trkpt lat="43.5425998" lon="11.9782283"><ele>579.5</ele><time>2026-04-04T11:06:07.315Z</time></trkpt><trkpt lat="43.5424973" lon="11.9781192"><ele>580.25</ele><time>2026-04-04T11:06:08.316Z</time></trkpt><trkpt lat="43.5424188" lon="11.9780106"><ele>581.0</ele><time>2026-04-04T11:06:09.316Z</time></trkpt><trkpt lat="43.5423385" lon="11.97793"><ele>581.0</ele><time>2026-04-04T11:06:10.315Z</time></trkpt><trkpt lat="43.5422697" lon="11.9778603"><ele>581.0</ele><time>2026-04-04T11:06:11.315Z</time></trkpt><trkpt lat="43.5422089" lon="11.9778077"><ele>581.0</ele><time>2026-04-04T11:06:12.315Z</time></trkpt><trkpt lat="43.5421167" lon="11.9777856"><ele>581.0</ele><time>2026-04-04T11:06:14.314Z</time></trkpt><trkpt lat="43.5420346" lon="11.9778008"><ele>581.0</ele><time>2026-04-04T11:06:18.315Z</time></trkpt><trkpt lat="43.5419967" lon="11.9777299"><ele>581.0</ele><time>2026-04-04T11:06:20.315Z</time></trkpt><trkpt lat="43.5419387" lon="11.977636"><ele>580.8333333333333</ele><time>2026-04-04T11:06:22.315Z</time></trkpt><trkpt lat="43.5418685" lon="11.9775119"><ele>580.6666666666666</ele><time>2026-04-04T11:06:24.315Z</time></trkpt><trkpt lat="43.541823" lon="11.9774414"><ele>580.5</ele><time>2026-04-04T11:06:25.315Z</time></trkpt><trkpt lat="43.5417765" lon="11.9773632"><ele>580.3333333333334</ele><time>2026-04-04T11:06:26.315Z</time></trkpt><trkpt lat="43.5417285" lon="11.97729"><ele>580.1666666666667</ele><time>2026-04-04T11:06:27.314Z</time></trkpt><trkpt lat="43.5416759" lon="11.9772192"><ele>580.0</ele><time>2026-04-04T11:06:28.315Z</time></trkpt><trkpt lat="43.541622" lon="11.9771544"><ele>580.0</ele><time>2026-04-04T11:06:29.315Z</time></trkpt><trkpt lat="43.5415702" lon="11.9770741"><ele>580.0</ele><time>2026-04-04T11:06:30.314Z</time></trkpt><trkpt lat="43.5415167" lon="11.9769905"><ele>580.0</ele><time>2026-04-04T11:06:31.315Z</time></trkpt><trkpt lat="43.5414677" lon="11.9769224"><ele>580.0</ele><time>2026-04-04T11:06:32.315Z</time></trkpt><trkpt lat="43.5414268" lon="11.9768559"><ele>580.0</ele><time>2026-04-04T11:06:33.315Z</time></trkpt><trkpt lat="43.5413586" lon="11.9767378"><ele>580.0</ele><time>2026-04-04T11:06:35.315Z</time></trkpt><trkpt lat="43.5412938" lon="11.9766285"><ele>579.0</ele><time>2026-04-04T11:06:37.315Z</time></trkpt><trkpt lat="43.5412237" lon="11.9765219"><ele>578.0</ele><time>2026-04-04T11:06:39.315Z</time></trkpt><trkpt lat="43.5411474" lon="11.9764105"><ele>577.0</ele><time>2026-04-04T11:06:41.315Z</time></trkpt><trkpt lat="43.5410585" lon="11.9763207"><ele>576.0</ele><time>2026-04-04T11:06:43.314Z</time></trkpt><trkpt lat="43.5409622" lon="11.9762341"><ele>575.0</ele><time>2026-04-04T11:06:45.315Z</time></trkpt><trkpt lat="43.5408589" lon="11.9761429"><ele>574.8571428571429</ele><time>2026-04-04T11:06:47.314Z</time></trkpt><trkpt lat="43.5408021" lon="11.9760915"><ele>574.7142857142857</ele><time>2026-04-04T11:06:48.315Z</time></trkpt><trkpt lat="43.5407431" lon="11.9760313"><ele>574.5714285714286</ele><time>2026-04-04T11:06:49.315Z</time></trkpt><trkpt lat="43.5406838" lon="11.9759675"><ele>574.4285714285714</ele><time>2026-04-04T11:06:50.315Z</time></trkpt><trkpt lat="43.5406248" lon="11.9759006"><ele>574.2857142857142</ele><time>2026-04-04T11:06:51.315Z</time></trkpt><trkpt lat="43.5405626" lon="11.975837"><ele>574.1428571428571</ele><time>2026-04-04T11:06:52.315Z</time></trkpt><trkpt lat="43.5405053" lon="11.9757741"><ele>574.0</ele><time>2026-04-04T11:06:53.314Z</time></trkpt><trkpt lat="43.5404005" lon="11.9756513"><ele>575.4285714285714</ele><time>2026-04-04T11:06:55.315Z</time></trkpt><trkpt lat="43.5403445" lon="11.9755894"><ele>576.8571428571429</ele><time>2026-04-04T11:06:56.315Z</time></trkpt><trkpt lat="43.5402876" lon="11.9755335"><ele>578.2857142857142</ele><time>2026-04-04T11:06:57.315Z</time></trkpt><trkpt lat="43.5402263" lon="11.9754882"><ele>579.7142857142858</ele><time>2026-04-04T11:06:58.315Z</time></trkpt><trkpt lat="43.5401579" lon="11.9754534"><ele>581.1428571428571</ele><time>2026-04-04T11:06:59.315Z</time></trkpt><trkpt lat="43.5400845" lon="11.9754246"><ele>582.5714285714286</ele><time>2026-04-04T11:07:00.315Z</time></trkpt><trkpt lat="43.5400103" lon="11.975396"><ele>584.0</ele><time>2026-04-04T11:07:01.315Z</time></trkpt><trkpt lat="43.5399324" lon="11.9753651"><ele>584.0</ele><time>2026-04-04T11:07:02.314Z</time></trkpt><trkpt lat="43.5398532" lon="11.9753378"><ele>584.0</ele><time>2026-04-04T11:07:03.315Z</time></trkpt><trkpt lat="43.5397759" lon="11.9753166"><ele>584.0</ele><time>2026-04-04T11:07:04.315Z</time></trkpt><trkpt lat="43.539706" lon="11.9752978"><ele>584.0</ele><time>2026-04-04T11:07:05.315Z</time></trkpt><trkpt lat="43.5396351" lon="11.9752877"><ele>584.0</ele><time>2026-04-04T11:07:06.315Z</time></trkpt><trkpt lat="43.5395647" lon="11.9752832"><ele>584.0</ele><time>2026-04-04T11:07:07.315Z</time></trkpt><trkpt lat="43.5394929" lon="11.9752741"><ele>584.0</ele><time>2026-04-04T11:07:08.315Z</time></trkpt><trkpt lat="43.5394283" lon="11.9752719"><ele>586.6666666666666</ele><time>2026-04-04T11:07:09.314Z</time></trkpt><trkpt lat="43.5393364" lon="11.9753739"><ele>589.3333333333333</ele><time>2026-04-04T11:07:11.314Z</time></trkpt><trkpt lat="43.5393008" lon="11.9754636"><ele>592.0</ele><time>2026-04-04T11:07:12.315Z</time></trkpt><trkpt lat="43.5392673" lon="11.9755613"><ele>594.6666666666666</ele><time>2026-04-04T11:07:13.315Z</time></trkpt><trkpt lat="43.5392306" lon="11.975662"><ele>597.3333333333334</ele><time>2026-04-04T11:07:14.315Z</time></trkpt><trkpt lat="43.5391906" lon="11.9757631"><ele>600.0</ele><time>2026-04-04T11:07:15.315Z</time></trkpt><trkpt lat="43.5391507" lon="11.9758516"><ele>600.0</ele><time>2026-04-04T11:07:16.315Z</time></trkpt><trkpt lat="43.5391174" lon="11.9759383"><ele>600.0</ele><time>2026-04-04T11:07:17.315Z</time></trkpt><trkpt lat="43.5390786" lon="11.9760732"><ele>600.0</ele><time>2026-04-04T11:07:19.314Z</time></trkpt><trkpt lat="43.539019" lon="11.9761252"><ele>600.0</ele><time>2026-04-04T11:07:22.316Z</time></trkpt><trkpt lat="43.538992" lon="11.9760383"><ele>600.0</ele><time>2026-04-04T11:07:24.315Z</time></trkpt><trkpt lat="43.5390012" lon="11.9758938"><ele>600.0</ele><time>2026-04-04T11:07:26.315Z</time></trkpt><trkpt lat="43.5390008" lon="11.9757932"><ele>599.9999999999999</ele><time>2026-04-04T11:07:27.315Z</time></trkpt><trkpt lat="43.5389946" lon="11.9756879"><ele>600.0</ele><time>2026-04-04T11:07:28.315Z</time></trkpt><trkpt lat="43.5389943" lon="11.975585"><ele>600.0</ele><time>2026-04-04T11:07:29.314Z</time></trkpt><trkpt lat="43.5389947" lon="11.9754901"><ele>600.0</ele><time>2026-04-04T11:07:30.315Z</time></trkpt><trkpt lat="43.5389967" lon="11.9753982"><ele>600.0</ele><time>2026-04-04T11:07:31.315Z</time></trkpt><trkpt lat="43.5389928" lon="11.9753026"><ele>599.9999999999999</ele><time>2026-04-04T11:07:32.315Z</time></trkpt><trkpt lat="43.5389902" lon="11.9752034"><ele>600.0</ele><time>2026-04-04T11:07:33.315Z</time></trkpt><trkpt lat="43.5389853" lon="11.975109"><ele>600.1428571428571</ele><time>2026-04-04T11:07:34.314Z</time></trkpt><trkpt lat="43.5389823" lon="11.9750177"><ele>600.2857142857142</ele><time>2026-04-04T11:07:35.314Z</time></trkpt><trkpt lat="43.5389781" lon="11.974924"><ele>600.4285714285713</ele><time>2026-04-04T11:07:36.315Z</time></trkpt><trkpt lat="43.5389724" lon="11.9748273"><ele>600.5714285714286</ele><time>2026-04-04T11:07:37.315Z</time></trkpt><trkpt lat="43.5389688" lon="11.9747272"><ele>600.7142857142858</ele><time>2026-04-04T11:07:38.315Z</time></trkpt><trkpt lat="43.5389702" lon="11.9746316"><ele>600.8571428571428</ele><time>2026-04-04T11:07:39.315Z</time></trkpt><trkpt lat="43.5389769" lon="11.974541"><ele>601.0</ele><time>2026-04-04T11:07:40.315Z</time></trkpt><trkpt lat="43.5389868" lon="11.9744523"><ele>601.0</ele><time>2026-04-04T11:07:41.315Z</time></trkpt><trkpt lat="43.5390003" lon="11.9742966"><ele>601.0</ele><time>2026-04-04T11:07:43.315Z</time></trkpt><trkpt lat="43.5390146" lon="11.9741969"><ele>601.0</ele><time>2026-04-04T11:07:45.315Z</time></trkpt><trkpt lat="43.539001" lon="11.9740829"><ele>601.0</ele><time>2026-04-04T11:07:47.314Z</time></trkpt><trkpt lat="43.5389514" lon="11.9739693"><ele>601.0</ele><time>2026-04-04T11:07:49.315Z</time></trkpt><trkpt lat="43.5388794" lon="11.97388"><ele>601.4</ele><time>2026-04-04T11:07:51.315Z</time></trkpt><trkpt lat="43.5388147" lon="11.9737847"><ele>601.8</ele><time>2026-04-04T11:07:53.315Z</time></trkpt><trkpt lat="43.5387385" lon="11.9736688"><ele>602.1999999999999</ele><time>2026-04-04T11:07:55.315Z</time></trkpt><trkpt lat="43.5386956" lon="11.9734963"><ele>602.6</ele><time>2026-04-04T11:07:57.316Z</time></trkpt><trkpt lat="43.5386773" lon="11.9734017"><ele>603.0</ele><time>2026-04-04T11:07:58.315Z</time></trkpt><trkpt lat="43.5386547" lon="11.9733008"><ele>604.3333333333334</ele><time>2026-04-04T11:07:59.314Z</time></trkpt><trkpt lat="43.5386398" lon="11.9731973"><ele>605.6666666666666</ele><time>2026-04-04T11:08:00.315Z</time></trkpt><trkpt lat="43.538627" lon="11.9731035"><ele>607.0</ele><time>2026-04-04T11:08:01.314Z</time></trkpt><trkpt lat="43.5386052" lon="11.9730059"><ele>608.3333333333333</ele><time>2026-04-04T11:08:02.316Z</time></trkpt><trkpt lat="43.5385826" lon="11.9728939"><ele>609.6666666666666</ele><time>2026-04-04T11:08:03.315Z</time></trkpt><trkpt lat="43.5385588" lon="11.97279"><ele>611.0</ele><time>2026-04-04T11:08:04.315Z</time></trkpt><trkpt lat="43.5385399" lon="11.9726609"><ele>611.0</ele><time>2026-04-04T11:08:05.315Z</time></trkpt><trkpt lat="43.5385135" lon="11.9725447"><ele>611.0</ele><time>2026-04-04T11:08:06.315Z</time></trkpt><trkpt lat="43.5384861" lon="11.9724147"><ele>611.0</ele><time>2026-04-04T11:08:07.315Z</time></trkpt><trkpt lat="43.5384544" lon="11.9722931"><ele>611.0</ele><time>2026-04-04T11:08:08.315Z</time></trkpt><trkpt lat="43.5384291" lon="11.9721885"><ele>611.0</ele><time>2026-04-04T11:08:09.315Z</time></trkpt><trkpt lat="43.5384004" lon="11.9720933"><ele>611.0</ele><time>2026-04-04T11:08:10.315Z</time></trkpt><trkpt lat="43.5383831" lon="11.9720096"><ele>612.1666666666666</ele><time>2026-04-04T11:08:11.314Z</time></trkpt><trkpt lat="43.5383612" lon="11.9718854"><ele>613.3333333333333</ele><time>2026-04-04T11:08:13.315Z</time></trkpt><trkpt lat="43.5383426" lon="11.971783"><ele>614.5</ele><time>2026-04-04T11:08:16.315Z</time></trkpt><trkpt lat="43.5383108" lon="11.9716643"><ele>615.6666666666666</ele><time>2026-04-04T11:08:19.315Z</time></trkpt><trkpt lat="43.5383135" lon="11.9715648"><ele>616.8333333333334</ele><time>2026-04-04T11:08:21.315Z</time></trkpt><trkpt lat="43.5383265" lon="11.9714541"><ele>618.0</ele><time>2026-04-04T11:08:24.315Z</time></trkpt><trkpt lat="43.5383154" lon="11.9715685"><ele>618.0</ele><time>2026-04-04T11:08:33.315Z</time></trkpt><trkpt lat="43.5383202" lon="11.9716834"><ele>618.0</ele><time>2026-04-04T11:08:35.315Z</time></trkpt><trkpt lat="43.5382997" lon="11.9717854"><ele>618.0</ele><time>2026-04-04T11:08:38.315Z</time></trkpt><trkpt lat="43.538267" lon="11.9717078"><ele>618.0</ele><time>2026-04-04T11:09:16.314Z</time></trkpt><trkpt lat="43.5382164" lon="11.9716165"><ele>618.0</ele><time>2026-04-04T11:09:18.315Z</time></trkpt><trkpt lat="43.5381567" lon="11.9714848"><ele>618.0</ele><time>2026-04-04T11:09:20.315Z</time></trkpt><trkpt lat="43.5381271" lon="11.971404"><ele>619.0</ele><time>2026-04-04T11:09:21.315Z</time></trkpt><trkpt lat="43.5380889" lon="11.9713189"><ele>620.0</ele><time>2026-04-04T11:09:22.315Z</time></trkpt><trkpt lat="43.5380331" lon="11.9712442"><ele>621.0</ele><time>2026-04-04T11:09:23.315Z</time></trkpt><trkpt lat="43.5379701" lon="11.9711692"><ele>622.0</ele><time>2026-04-04T11:09:24.315Z</time></trkpt><trkpt lat="43.5379171" lon="11.9710802"><ele>623.0</ele><time>2026-04-04T11:09:25.315Z</time></trkpt><trkpt lat="43.5378772" lon="11.9709716"><ele>624.0</ele><time>2026-04-04T11:09:26.315Z</time></trkpt><trkpt lat="43.5378549" lon="11.9708722"><ele>627.8333333333334</ele><time>2026-04-04T11:09:27.316Z</time></trkpt><trkpt lat="43.5378323" lon="11.9707739"><ele>631.6666666666666</ele><time>2026-04-04T11:09:28.316Z</time></trkpt><trkpt lat="43.5378119" lon="11.970666"><ele>635.5</ele><time>2026-04-04T11:09:30.315Z</time></trkpt><trkpt lat="43.5377825" lon="11.9705759"><ele>639.3333333333333</ele><time>2026-04-04T11:09:32.315Z</time></trkpt><trkpt lat="43.537759" lon="11.9704882"><ele>643.1666666666666</ele><time>2026-04-04T11:09:34.315Z</time></trkpt><trkpt lat="43.5377221" lon="11.9704013"><ele>647.0</ele><time>2026-04-04T11:09:42.315Z</time></trkpt><trkpt lat="43.5376346" lon="11.9704472"><ele>647.0</ele><time>2026-04-04T11:09:46.316Z</time></trkpt><trkpt lat="43.5375581" lon="11.9705616"><ele>647.0</ele><time>2026-04-04T11:09:48.314Z</time></trkpt><trkpt lat="43.5374766" lon="11.9706817"><ele>647.0</ele><time>2026-04-04T11:09:50.315Z</time></trkpt><trkpt lat="43.5374091" lon="11.9707859"><ele>647.0</ele><time>2026-04-04T11:09:52.314Z</time></trkpt><trkpt lat="43.5373516" lon="11.9708808"><ele>647.0</ele><time>2026-04-04T11:10:35.314Z</time></trkpt><trkpt lat="43.5373176" lon="11.9709639"><ele>644.8333333333333</ele><time>2026-04-04T11:10:37.315Z</time></trkpt><trkpt lat="43.5372744" lon="11.9710938"><ele>642.6666666666666</ele><time>2026-04-04T11:10:39.315Z</time></trkpt><trkpt lat="43.5372414" lon="11.9711765"><ele>640.5</ele><time>2026-04-04T11:10:40.315Z</time></trkpt><trkpt lat="43.5372064" lon="11.971249"><ele>638.3333333333334</ele><time>2026-04-04T11:10:41.315Z</time></trkpt><trkpt lat="43.5371623" lon="11.9713168"><ele>636.1666666666667</ele><time>2026-04-04T11:10:42.315Z</time></trkpt><trkpt lat="43.5370706" lon="11.9713984"><ele>634.0</ele><time>2026-04-04T11:10:44.315Z</time></trkpt><trkpt lat="43.5369794" lon="11.9714359"><ele>634.0</ele><time>2026-04-04T11:10:46.315Z</time></trkpt><trkpt lat="43.5368844" lon="11.971427"><ele>634.0</ele><time>2026-04-04T11:10:48.315Z</time></trkpt><trkpt lat="43.5368132" lon="11.971398"><ele>634.0</ele><time>2026-04-04T11:10:49.315Z</time></trkpt><trkpt lat="43.5367225" lon="11.9713439"><ele>634.0</ele><time>2026-04-04T11:10:50.315Z</time></trkpt><trkpt lat="43.536631" lon="11.9712838"><ele>634.0</ele><time>2026-04-04T11:10:51.315Z</time></trkpt><trkpt lat="43.5365548" lon="11.9712391"><ele>634.0</ele><time>2026-04-04T11:10:52.315Z</time></trkpt><trkpt lat="43.5364703" lon="11.9712074"><ele>634.0</ele><time>2026-04-04T11:10:53.314Z</time></trkpt><trkpt lat="43.5363933" lon="11.9711651"><ele>634.0</ele><time>2026-04-04T11:10:54.315Z</time></trkpt><trkpt lat="43.5363067" lon="11.9711281"><ele>634.0</ele><time>2026-04-04T11:10:55.315Z</time></trkpt><trkpt lat="43.5362392" lon="11.9711022"><ele>634.0</ele><time>2026-04-04T11:10:56.315Z</time></trkpt><trkpt lat="43.5361433" lon="11.9710846"><ele>634.0</ele><time>2026-04-04T11:10:57.315Z</time></trkpt><trkpt lat="43.5360395" lon="11.9710657"><ele>631.1666666666667</ele><time>2026-04-04T11:10:58.315Z</time></trkpt><trkpt lat="43.5359466" lon="11.9710872"><ele>628.3333333333334</ele><time>2026-04-04T11:10:59.315Z</time></trkpt><trkpt lat="43.5358588" lon="11.971063"><ele>625.5</ele><time>2026-04-04T11:11:00.315Z</time></trkpt><trkpt lat="43.5357825" lon="11.9710157"><ele>622.6666666666666</ele><time>2026-04-04T11:11:01.315Z</time></trkpt><trkpt lat="43.5357074" lon="11.9709284"><ele>619.8333333333333</ele><time>2026-04-04T11:11:02.316Z</time></trkpt><trkpt lat="43.5356359" lon="11.9709126"><ele>617.0</ele><time>2026-04-04T11:11:03.315Z</time></trkpt><trkpt lat="43.5355645" lon="11.9708846"><ele>617.0</ele><time>2026-04-04T11:11:04.315Z</time></trkpt><trkpt lat="43.5354901" lon="11.9708632"><ele>617.0</ele><time>2026-04-04T11:11:05.315Z</time></trkpt><trkpt lat="43.5353555" lon="11.9708764"><ele>617.0</ele><time>2026-04-04T11:11:07.315Z</time></trkpt><trkpt lat="43.5352888" lon="11.9708199"><ele>617.0</ele><time>2026-04-04T11:11:10.314Z</time></trkpt><trkpt lat="43.5352038" lon="11.9707688"><ele>617.0</ele><time>2026-04-04T11:11:13.315Z</time></trkpt><trkpt lat="43.5351407" lon="11.9707772"><ele>617.0</ele><time>2026-04-04T11:11:15.315Z</time></trkpt><trkpt lat="43.5350647" lon="11.9708262"><ele>615.6666666666666</ele><time>2026-04-04T11:11:17.315Z</time></trkpt><trkpt lat="43.5350031" lon="11.9707935"><ele>614.3333333333333</ele><time>2026-04-04T11:11:19.315Z</time></trkpt><trkpt lat="43.5349849" lon="11.9707079"><ele>613.0</ele><time>2026-04-04T11:11:21.315Z</time></trkpt><trkpt lat="43.5350018" lon="11.9705994"><ele>611.6666666666666</ele><time>2026-04-04T11:11:23.315Z</time></trkpt><trkpt lat="43.5350073" lon="11.9704603"><ele>610.3333333333334</ele><time>2026-04-04T11:11:25.315Z</time></trkpt><trkpt lat="43.5350063" lon="11.970333"><ele>609.0</ele><time>2026-04-04T11:11:27.315Z</time></trkpt><trkpt lat="43.5349838" lon="11.9702197"><ele>609.0</ele><time>2026-04-04T11:11:29.315Z</time></trkpt><trkpt lat="43.534969" lon="11.9701256"><ele>609.0</ele><time>2026-04-04T11:11:31.315Z</time></trkpt><trkpt lat="43.5349849" lon="11.9700055"><ele>609.0</ele><time>2026-04-04T11:11:33.316Z</time></trkpt><trkpt lat="43.5350314" lon="11.9699081"><ele>609.0</ele><time>2026-04-04T11:11:35.315Z</time></trkpt><trkpt lat="43.5350298" lon="11.9697674"><ele>609.0</ele><time>2026-04-04T11:11:38.315Z</time></trkpt><trkpt lat="43.5350147" lon="11.9696761"><ele>609.0</ele><time>2026-04-04T11:11:40.315Z</time></trkpt><trkpt lat="43.5350151" lon="11.9695726"><ele>609.1666666666666</ele><time>2026-04-04T11:11:42.315Z</time></trkpt><trkpt lat="43.5349779" lon="11.9694955"><ele>609.3333333333334</ele><time>2026-04-04T11:11:44.315Z</time></trkpt><trkpt lat="43.5349106" lon="11.9694873"><ele>609.5</ele><time>2026-04-04T11:11:47.315Z</time></trkpt><trkpt lat="43.5348183" lon="11.9695507"><ele>609.6666666666667</ele><time>2026-04-04T11:11:49.315Z</time></trkpt><trkpt lat="43.5347288" lon="11.969518"><ele>609.8333333333334</ele><time>2026-04-04T11:11:52.315Z</time></trkpt><trkpt lat="43.5347386" lon="11.9694314"><ele>610.0</ele><time>2026-04-04T11:11:54.315Z</time></trkpt><trkpt lat="43.5347873" lon="11.9693467"><ele>610.0</ele><time>2026-04-04T11:11:57.315Z</time></trkpt><trkpt lat="43.5348457" lon="11.9692833"><ele>610.0</ele><time>2026-04-04T11:11:59.315Z</time></trkpt><trkpt lat="43.5349011" lon="11.9692178"><ele>610.0</ele><time>2026-04-04T11:12:01.315Z</time></trkpt><trkpt lat="43.5349547" lon="11.9691369"><ele>610.0</ele><time>2026-04-04T11:12:05.315Z</time></trkpt><trkpt lat="43.5349898" lon="11.969058"><ele>610.0</ele><time>2026-04-04T11:12:08.315Z</time></trkpt><trkpt lat="43.5349819" lon="11.9689717"><ele>610.0</ele><time>2026-04-04T11:12:13.315Z</time></trkpt><trkpt lat="43.5349188" lon="11.969"><ele>610.0</ele><time>2026-04-04T11:12:20.315Z</time></trkpt><trkpt lat="43.5348352" lon="11.9689522"><ele>608.6</ele><time>2026-04-04T11:12:23.315Z</time></trkpt><trkpt lat="43.5347369" lon="11.9688853"><ele>607.2</ele><time>2026-04-04T11:12:25.315Z</time></trkpt><trkpt lat="43.534628" lon="11.9688452"><ele>605.8</ele><time>2026-04-04T11:12:26.315Z</time></trkpt><trkpt lat="43.5345234" lon="11.9688365"><ele>604.4</ele><time>2026-04-04T11:12:28.315Z</time></trkpt><trkpt lat="43.5344588" lon="11.9688859"><ele>603.0</ele><time>2026-04-04T11:12:29.314Z</time></trkpt><trkpt lat="43.5343625" lon="11.9689217"><ele>598.0</ele><time>2026-04-04T11:12:30.314Z</time></trkpt><trkpt lat="43.5342888" lon="11.9689285"><ele>593.0</ele><time>2026-04-04T11:12:31.315Z</time></trkpt><trkpt lat="43.5341685" lon="11.968963"><ele>588.0</ele><time>2026-04-04T11:12:33.315Z</time></trkpt><trkpt lat="43.5341011" lon="11.9689904"><ele>583.0</ele><time>2026-04-04T11:12:34.315Z</time></trkpt><trkpt lat="43.5340235" lon="11.9690194"><ele>578.0</ele><time>2026-04-04T11:12:35.314Z</time></trkpt><trkpt lat="43.5338976" lon="11.9689782"><ele>578.0</ele><time>2026-04-04T11:12:37.315Z</time></trkpt><trkpt lat="43.5338478" lon="11.9688812"><ele>578.0</ele><time>2026-04-04T11:12:38.315Z</time></trkpt><trkpt lat="43.5338131" lon="11.9688069"><ele>578.0</ele><time>2026-04-04T11:12:39.315Z</time></trkpt><trkpt lat="43.5337545" lon="11.968753"><ele>578.0</ele><time>2026-04-04T11:12:40.314Z</time></trkpt><trkpt lat="43.533694" lon="11.9686864"><ele>578.0</ele><time>2026-04-04T11:12:41.315Z</time></trkpt><trkpt lat="43.533627" lon="11.9686465"><ele>578.0</ele><time>2026-04-04T11:12:42.314Z</time></trkpt><trkpt lat="43.5335458" lon="11.9686362"><ele>573.1999999999999</ele><time>2026-04-04T11:12:43.315Z</time></trkpt><trkpt lat="43.5334552" lon="11.9686137"><ele>568.4</ele><time>2026-04-04T11:12:44.315Z</time></trkpt><trkpt lat="43.533362" lon="11.9685831"><ele>563.5999999999999</ele><time>2026-04-04T11:12:45.315Z</time></trkpt><trkpt lat="43.5332635" lon="11.9685631"><ele>558.8</ele><time>2026-04-04T11:12:46.315Z</time></trkpt><trkpt lat="43.5331974" lon="11.9685461"><ele>554.0</ele><time>2026-04-04T11:12:47.315Z</time></trkpt><trkpt lat="43.5330933" lon="11.9685446"><ele>554.0</ele><time>2026-04-04T11:12:48.316Z</time></trkpt><trkpt lat="43.5330125" lon="11.9685217"><ele>554.0</ele><time>2026-04-04T11:12:49.315Z</time></trkpt><trkpt lat="43.532945" lon="11.9685796"><ele>554.0</ele><time>2026-04-04T11:12:50.315Z</time></trkpt><trkpt lat="43.5328899" lon="11.9686333"><ele>554.0</ele><time>2026-04-04T11:12:51.315Z</time></trkpt><trkpt lat="43.5328195" lon="11.9687332"><ele>554.0</ele><time>2026-04-04T11:12:53.315Z</time></trkpt><trkpt lat="43.5327847" lon="11.9688186"><ele>554.0</ele><time>2026-04-04T11:12:54.315Z</time></trkpt><trkpt lat="43.5327309" lon="11.9688916"><ele>551.0</ele><time>2026-04-04T11:12:55.315Z</time></trkpt><trkpt lat="43.5326749" lon="11.9689698"><ele>548.0</ele><time>2026-04-04T11:12:56.314Z</time></trkpt><trkpt lat="43.5326259" lon="11.9690413"><ele>545.0</ele><time>2026-04-04T11:12:57.315Z</time></trkpt><trkpt lat="43.5325247" lon="11.9691237"><ele>542.0</ele><time>2026-04-04T11:12:59.315Z</time></trkpt><trkpt lat="43.5324358" lon="11.969157"><ele>539.0</ele><time>2026-04-04T11:13:01.315Z</time></trkpt><trkpt lat="43.5323779" lon="11.9691118"><ele>536.0</ele><time>2026-04-04T11:13:04.314Z</time></trkpt><trkpt lat="43.5323603" lon="11.9690086"><ele>536.0</ele><time>2026-04-04T11:13:07.315Z</time></trkpt><trkpt lat="43.5323701" lon="11.9688591"><ele>536.0</ele><time>2026-04-04T11:13:09.314Z</time></trkpt><trkpt lat="43.5323869" lon="11.9687186"><ele>536.0</ele><time>2026-04-04T11:13:11.315Z</time></trkpt><trkpt lat="43.5323498" lon="11.9685945"><ele>536.0</ele><time>2026-04-04T11:13:13.315Z</time></trkpt><trkpt lat="43.5323086" lon="11.9684674"><ele>536.0</ele><time>2026-04-04T11:13:15.315Z</time></trkpt><trkpt lat="43.5322406" lon="11.9684409"><ele>536.0</ele><time>2026-04-04T11:13:17.315Z</time></trkpt><trkpt lat="43.5321877" lon="11.9683669"><ele>536.0</ele><time>2026-04-04T11:13:19.315Z</time></trkpt><trkpt lat="43.5321523" lon="11.9682812"><ele>536.0</ele><time>2026-04-04T11:13:22.315Z</time></trkpt><trkpt lat="43.5320771" lon="11.9683002"><ele>536.0</ele><time>2026-04-04T11:13:26.314Z</time></trkpt><trkpt lat="43.5319719" lon="11.9683858"><ele>536.0</ele><time>2026-04-04T11:13:29.315Z</time></trkpt><trkpt lat="43.5319006" lon="11.9684408"><ele>536.0</ele><time>2026-04-04T11:13:31.315Z</time></trkpt><trkpt lat="43.5317891" lon="11.9684993"><ele>534.25</ele><time>2026-04-04T11:13:33.315Z</time></trkpt><trkpt lat="43.5317057" lon="11.9685076"><ele>532.5</ele><time>2026-04-04T11:13:35.315Z</time></trkpt><trkpt lat="43.5315769" lon="11.9685425"><ele>530.75</ele><time>2026-04-04T11:13:37.315Z</time></trkpt><trkpt lat="43.531448" lon="11.9685548"><ele>529.0</ele><time>2026-04-04T11:13:39.315Z</time></trkpt><trkpt lat="43.5313652" lon="11.9684646"><ele>529.0</ele><time>2026-04-04T11:13:41.314Z</time></trkpt><trkpt lat="43.5312949" lon="11.9683667"><ele>529.0</ele><time>2026-04-04T11:13:43.314Z</time></trkpt><trkpt lat="43.5312158" lon="11.9681898"><ele>529.0</ele><time>2026-04-04T11:13:45.316Z</time></trkpt><trkpt lat="43.5311678" lon="11.9680277"><ele>529.0</ele><time>2026-04-04T11:13:47.315Z</time></trkpt><trkpt lat="43.5311335" lon="11.9678967"><ele>530.6666666666667</ele><time>2026-04-04T11:13:49.315Z</time></trkpt><trkpt lat="43.5311202" lon="11.9678003"><ele>532.3333333333334</ele><time>2026-04-04T11:13:51.315Z</time></trkpt><trkpt lat="43.5310537" lon="11.9676189"><ele>534.0</ele><time>2026-04-04T11:13:53.315Z</time></trkpt><trkpt lat="43.5310068" lon="11.9675502"><ele>535.6666666666666</ele><time>2026-04-04T11:13:55.315Z</time></trkpt><trkpt lat="43.5309452" lon="11.9674648"><ele>537.3333333333333</ele><time>2026-04-04T11:13:57.315Z</time></trkpt><trkpt lat="43.5308724" lon="11.9674426"><ele>539.0</ele><time>2026-04-04T11:13:59.315Z</time></trkpt><trkpt lat="43.5308177" lon="11.9675426"><ele>539.0</ele><time>2026-04-04T11:14:02.315Z</time></trkpt><trkpt lat="43.5307831" lon="11.9676807"><ele>539.0</ele><time>2026-04-04T11:14:04.315Z</time></trkpt><trkpt lat="43.5307553" lon="11.9677826"><ele>539.0</ele><time>2026-04-04T11:14:05.315Z</time></trkpt><trkpt lat="43.5306965" lon="11.9679249"><ele>539.0</ele><time>2026-04-04T11:14:07.314Z</time></trkpt><trkpt lat="43.5306273" lon="11.9680548"><ele>539.0</ele><time>2026-04-04T11:14:09.315Z</time></trkpt><trkpt lat="43.5305496" lon="11.9681487"><ele>539.0</ele><time>2026-04-04T11:14:11.314Z</time></trkpt><trkpt lat="43.5304575" lon="11.9682248"><ele>539.0</ele><time>2026-04-04T11:14:13.315Z</time></trkpt><trkpt lat="43.5303682" lon="11.968156"><ele>539.0</ele><time>2026-04-04T11:14:15.315Z</time></trkpt><trkpt lat="43.5302393" lon="11.9681179"><ele>539.0</ele><time>2026-04-04T11:14:17.314Z</time></trkpt><trkpt lat="43.5301612" lon="11.9680932"><ele>539.0</ele><time>2026-04-04T11:14:18.315Z</time></trkpt><trkpt lat="43.530053" lon="11.9679992"><ele>538.5</ele><time>2026-04-04T11:14:20.315Z</time></trkpt><trkpt lat="43.5299809" lon="11.9679675"><ele>538.0</ele><time>2026-04-04T11:14:22.315Z</time></trkpt><trkpt lat="43.5299144" lon="11.9679584"><ele>537.5</ele><time>2026-04-04T11:14:23.315Z</time></trkpt><trkpt lat="43.5298502" lon="11.9679594"><ele>537.0</ele><time>2026-04-04T11:14:26.314Z</time></trkpt><trkpt lat="43.5297833" lon="11.9680961"><ele>536.5</ele><time>2026-04-04T11:14:32.315Z</time></trkpt><trkpt lat="43.5297219" lon="11.9680499"><ele>536.0</ele><time>2026-04-04T11:14:36.315Z</time></trkpt><trkpt lat="43.5296722" lon="11.9679674"><ele>536.0</ele><time>2026-04-04T11:14:39.315Z</time></trkpt><trkpt lat="43.5296024" lon="11.9679566"><ele>536.0</ele><time>2026-04-04T11:14:42.315Z</time></trkpt><trkpt lat="43.5295461" lon="11.9680066"><ele>536.0</ele><time>2026-04-04T11:14:44.315Z</time></trkpt><trkpt lat="43.5295666" lon="11.9682196"><ele>536.0</ele><time>2026-04-04T11:14:45.315Z</time></trkpt><trkpt lat="43.5295791" lon="11.9683094"><ele>536.0</ele><time>2026-04-04T11:14:46.315Z</time></trkpt><trkpt lat="43.5296118" lon="11.9684456"><ele>534.8</ele><time>2026-04-04T11:14:48.315Z</time></trkpt><trkpt lat="43.5296519" lon="11.9685998"><ele>533.6</ele><time>2026-04-04T11:14:50.314Z</time></trkpt><trkpt lat="43.5296981" lon="11.9687597"><ele>532.4</ele><time>2026-04-04T11:14:52.315Z</time></trkpt><trkpt lat="43.5297306" lon="11.9688376"><ele>531.2</ele><time>2026-04-04T11:14:53.316Z</time></trkpt><trkpt lat="43.5297849" lon="11.9689637"><ele>530.0</ele><time>2026-04-04T11:14:54.315Z</time></trkpt><trkpt lat="43.5297873" lon="11.9691234"><ele>529.4</ele><time>2026-04-04T11:14:56.315Z</time></trkpt><trkpt lat="43.5297833" lon="11.9692104"><ele>528.8</ele><time>2026-04-04T11:14:57.315Z</time></trkpt><trkpt lat="43.5297604" lon="11.9693523"><ele>528.2</ele><time>2026-04-04T11:14:59.315Z</time></trkpt><trkpt lat="43.5297151" lon="11.9694735"><ele>527.6</ele><time>2026-04-04T11:15:01.314Z</time></trkpt><trkpt lat="43.5296716" lon="11.9695862"><ele>527.0</ele><time>2026-04-04T11:15:03.315Z</time></trkpt><trkpt lat="43.5296115" lon="11.9696789"><ele>529.0</ele><time>2026-04-04T11:15:05.315Z</time></trkpt><trkpt lat="43.5295337" lon="11.969739"><ele>531.0</ele><time>2026-04-04T11:15:08.315Z</time></trkpt><trkpt lat="43.5295093" lon="11.9698265"><ele>533.0</ele><time>2026-04-04T11:15:11.315Z</time></trkpt><trkpt lat="43.5295529" lon="11.9699267"><ele>535.0</ele><time>2026-04-04T11:15:14.315Z</time></trkpt><trkpt lat="43.529592" lon="11.9700367"><ele>537.0</ele><time>2026-04-04T11:15:17.315Z</time></trkpt><trkpt lat="43.5296182" lon="11.9701336"><ele>539.0</ele><time>2026-04-04T11:15:19.315Z</time></trkpt><trkpt lat="43.5296149" lon="11.9702405"><ele>534.6666666666666</ele><time>2026-04-04T11:15:21.315Z</time></trkpt><trkpt lat="43.529582" lon="11.970323"><ele>530.3333333333333</ele><time>2026-04-04T11:15:23.315Z</time></trkpt><trkpt lat="43.5295057" lon="11.970361"><ele>526.0</ele><time>2026-04-04T11:15:25.315Z</time></trkpt><trkpt lat="43.5294289" lon="11.9703437"><ele>521.6666666666666</ele><time>2026-04-04T11:15:27.315Z</time></trkpt><trkpt lat="43.5293558" lon="11.970316"><ele>517.3333333333334</ele><time>2026-04-04T11:15:29.315Z</time></trkpt><trkpt lat="43.5292517" lon="11.9702467"><ele>513.0</ele><time>2026-04-04T11:15:31.315Z</time></trkpt><trkpt lat="43.5291457" lon="11.9701812"><ele>513.0</ele><time>2026-04-04T11:15:33.315Z</time></trkpt><trkpt lat="43.5290676" lon="11.9701432"><ele>513.0</ele><time>2026-04-04T11:15:34.315Z</time></trkpt><trkpt lat="43.5289925" lon="11.9701254"><ele>513.0</ele><time>2026-04-04T11:15:35.314Z</time></trkpt><trkpt lat="43.5289262" lon="11.9701005"><ele>513.0</ele><time>2026-04-04T11:15:36.315Z</time></trkpt><trkpt lat="43.5288583" lon="11.9700657"><ele>513.0</ele><time>2026-04-04T11:15:37.315Z</time></trkpt><trkpt lat="43.5287471" lon="11.9699957"><ele>513.0</ele><time>2026-04-04T11:15:39.315Z</time></trkpt><trkpt lat="43.5286876" lon="11.9699424"><ele>512.0</ele><time>2026-04-04T11:15:40.315Z</time></trkpt><trkpt lat="43.5286369" lon="11.9698826"><ele>511.0</ele><time>2026-04-04T11:15:41.315Z</time></trkpt><trkpt lat="43.5285841" lon="11.969831"><ele>510.0</ele><time>2026-04-04T11:15:42.315Z</time></trkpt><trkpt lat="43.5285004" lon="11.9697619"><ele>509.0</ele><time>2026-04-04T11:15:44.314Z</time></trkpt><trkpt lat="43.5284079" lon="11.9697813"><ele>508.0</ele><time>2026-04-04T11:15:46.315Z</time></trkpt><trkpt lat="43.528342" lon="11.969859"><ele>507.0</ele><time>2026-04-04T11:15:48.315Z</time></trkpt><trkpt lat="43.5283208" lon="11.9700297"><ele>507.0</ele><time>2026-04-04T11:15:51.315Z</time></trkpt><trkpt lat="43.5283051" lon="11.9701145"><ele>507.0</ele><time>2026-04-04T11:15:52.315Z</time></trkpt><trkpt lat="43.5282755" lon="11.9702426"><ele>507.0</ele><time>2026-04-04T11:15:54.316Z</time></trkpt><trkpt lat="43.5282333" lon="11.9703183"><ele>507.0</ele><time>2026-04-04T11:15:57.315Z</time></trkpt><trkpt lat="43.528215" lon="11.9704196"><ele>507.0</ele><time>2026-04-04T11:16:00.316Z</time></trkpt><trkpt lat="43.5282677" lon="11.9704982"><ele>507.0</ele><time>2026-04-04T11:16:04.315Z</time></trkpt><trkpt lat="43.5283455" lon="11.9705627"><ele>507.0</ele><time>2026-04-04T11:16:07.315Z</time></trkpt><trkpt lat="43.5284225" lon="11.9706101"><ele>507.0</ele><time>2026-04-04T11:16:10.315Z</time></trkpt><trkpt lat="43.528413" lon="11.9707211"><ele>507.0</ele><time>2026-04-04T11:16:13.315Z</time></trkpt><trkpt lat="43.5283609" lon="11.9707916"><ele>507.0</ele><time>2026-04-04T11:16:16.315Z</time></trkpt><trkpt lat="43.5282842" lon="11.9708224"><ele>507.0</ele><time>2026-04-04T11:16:18.315Z</time></trkpt><trkpt lat="43.5281963" lon="11.9708714"><ele>507.0</ele><time>2026-04-04T11:16:20.315Z</time></trkpt><trkpt lat="43.5281361" lon="11.9709188"><ele>505.1428571428571</ele><time>2026-04-04T11:16:21.315Z</time></trkpt><trkpt lat="43.5280611" lon="11.9709493"><ele>503.28571428571433</ele><time>2026-04-04T11:16:23.315Z</time></trkpt><trkpt lat="43.5280126" lon="11.971043"><ele>501.42857142857144</ele><time>2026-04-04T11:16:26.315Z</time></trkpt><trkpt lat="43.5280304" lon="11.9711312"><ele>499.57142857142856</ele><time>2026-04-04T11:16:28.315Z</time></trkpt><trkpt lat="43.5281008" lon="11.9711819"><ele>497.71428571428567</ele><time>2026-04-04T11:16:30.315Z</time></trkpt><trkpt lat="43.5281681" lon="11.9712141"><ele>495.8571428571429</ele><time>2026-04-04T11:16:32.315Z</time></trkpt><trkpt lat="43.5282334" lon="11.9712493"><ele>494.0</ele><time>2026-04-04T11:16:34.315Z</time></trkpt><trkpt lat="43.5283089" lon="11.9712899"><ele>493.99999999999994</ele><time>2026-04-04T11:16:36.314Z</time></trkpt><trkpt lat="43.5284006" lon="11.9713471"><ele>494.0</ele><time>2026-04-04T11:16:38.315Z</time></trkpt><trkpt lat="43.5284759" lon="11.9713631"><ele>494.0</ele><time>2026-04-04T11:16:42.315Z</time></trkpt><trkpt lat="43.5285395" lon="11.9713983"><ele>494.0</ele><time>2026-04-04T11:16:57.315Z</time></trkpt><trkpt lat="43.5285513" lon="11.9715077"><ele>493.99999999999994</ele><time>2026-04-04T11:17:04.315Z</time></trkpt><trkpt lat="43.5286268" lon="11.9715695"><ele>494.0</ele><time>2026-04-04T11:17:07.314Z</time></trkpt><trkpt lat="43.5286847" lon="11.9716099"><ele>493.99999999999994</ele><time>2026-04-04T11:17:09.315Z</time></trkpt><trkpt lat="43.5287496" lon="11.9716866"><ele>494.0</ele><time>2026-04-04T11:17:11.315Z</time></trkpt><trkpt lat="43.5288113" lon="11.9717422"><ele>494.0</ele><time>2026-04-04T11:17:13.315Z</time></trkpt><trkpt lat="43.5288807" lon="11.9717229"><ele>494.0</ele><time>2026-04-04T11:17:17.315Z</time></trkpt><trkpt lat="43.5289727" lon="11.9717076"><ele>493.99999999999994</ele><time>2026-04-04T11:17:20.315Z</time></trkpt><trkpt lat="43.5290434" lon="11.9717231"><ele>494.0</ele><time>2026-04-04T11:17:22.315Z</time></trkpt><trkpt lat="43.5291033" lon="11.9717709"><ele>493.99999999999994</ele><time>2026-04-04T11:17:23.315Z</time></trkpt><trkpt lat="43.5291843" lon="11.9718355"><ele>494.0</ele><time>2026-04-04T11:17:25.314Z</time></trkpt><trkpt lat="43.5292732" lon="11.9718406"><ele>494.0</ele><time>2026-04-04T11:17:27.315Z</time></trkpt><trkpt lat="43.5293818" lon="11.9718377"><ele>494.0</ele><time>2026-04-04T11:17:29.315Z</time></trkpt><trkpt lat="43.5294636" lon="11.9718583"><ele>493.99999999999994</ele><time>2026-04-04T11:17:30.314Z</time></trkpt><trkpt lat="43.5295316" lon="11.9718643"><ele>494.0</ele><time>2026-04-04T11:17:31.315Z</time></trkpt><trkpt lat="43.5296267" lon="11.9718735"><ele>491.8333333333333</ele><time>2026-04-04T11:17:32.314Z</time></trkpt><trkpt lat="43.5297119" lon="11.9718653"><ele>489.66666666666663</ele><time>2026-04-04T11:17:33.315Z</time></trkpt><trkpt lat="43.5297971" lon="11.9719129"><ele>487.5</ele><time>2026-04-04T11:17:35.315Z</time></trkpt><trkpt lat="43.5298622" lon="11.9719211"><ele>485.33333333333337</ele><time>2026-04-04T11:17:37.315Z</time></trkpt><trkpt lat="43.5299327" lon="11.9719267"><ele>483.1666666666667</ele><time>2026-04-04T11:20:06.315Z</time></trkpt><trkpt lat="43.5299531" lon="11.9720322"><ele>481.0</ele><time>2026-04-04T11:20:09.315Z</time></trkpt><trkpt lat="43.5299882" lon="11.9721051"><ele>481.0</ele><time>2026-04-04T11:20:11.316Z</time></trkpt><trkpt lat="43.5300582" lon="11.9721499"><ele>481.0</ele><time>2026-04-04T11:20:14.315Z</time></trkpt><trkpt lat="43.5301374" lon="11.9721562"><ele>481.0</ele><time>2026-04-04T11:20:16.315Z</time></trkpt><trkpt lat="43.5302512" lon="11.9721998"><ele>481.0</ele><time>2026-04-04T11:20:19.315Z</time></trkpt><trkpt lat="43.5303422" lon="11.9723123"><ele>481.0</ele><time>2026-04-04T11:20:21.315Z</time></trkpt><trkpt lat="43.5304554" lon="11.972357"><ele>481.0</ele><time>2026-04-04T11:20:22.315Z</time></trkpt><trkpt lat="43.5305434" lon="11.9724232"><ele>481.0</ele><time>2026-04-04T11:20:24.315Z</time></trkpt><trkpt lat="43.530577" lon="11.9725924"><ele>481.0</ele><time>2026-04-04T11:20:26.316Z</time></trkpt><trkpt lat="43.5306062" lon="11.9727031"><ele>481.0</ele><time>2026-04-04T11:20:28.314Z</time></trkpt><trkpt lat="43.5306352" lon="11.972784"><ele>481.0</ele><time>2026-04-04T11:20:30.314Z</time></trkpt><trkpt lat="43.5307194" lon="11.9728211"><ele>480.00000000000006</ele><time>2026-04-04T11:20:33.313Z</time></trkpt><trkpt lat="43.5307118" lon="11.9729128"><ele>479.0</ele><time>2026-04-04T11:20:49.314Z</time></trkpt><trkpt lat="43.5307595" lon="11.9729951"><ele>478.0</ele><time>2026-04-04T11:20:57.313Z</time></trkpt><trkpt lat="43.5308109" lon="11.9730746"><ele>477.0</ele><time>2026-04-04T11:20:59.314Z</time></trkpt><trkpt lat="43.5308947" lon="11.9731685"><ele>476.00000000000006</ele><time>2026-04-04T11:21:01.314Z</time></trkpt><trkpt lat="43.5309729" lon="11.9732458"><ele>475.0</ele><time>2026-04-04T11:21:03.314Z</time></trkpt><trkpt lat="43.531039" lon="11.9733498"><ele>474.0</ele><time>2026-04-04T11:21:05.314Z</time></trkpt><trkpt lat="43.5311234" lon="11.9734202"><ele>473.0</ele><time>2026-04-04T11:21:07.314Z</time></trkpt><trkpt lat="43.5311821" lon="11.9734684"><ele>472.0</ele><time>2026-04-04T11:21:08.313Z</time></trkpt><trkpt lat="43.5312325" lon="11.9735443"><ele>471.0</ele><time>2026-04-04T11:21:10.314Z</time></trkpt><trkpt lat="43.5313112" lon="11.9736688"><ele>470.0</ele><time>2026-04-04T11:21:12.313Z</time></trkpt><trkpt lat="43.5314019" lon="11.9738105"><ele>469.99999999999994</ele><time>2026-04-04T11:21:14.314Z</time></trkpt><trkpt lat="43.5314469" lon="11.9738731"><ele>470.0</ele><time>2026-04-04T11:21:16.314Z</time></trkpt><trkpt lat="43.5314833" lon="11.9739617"><ele>470.0</ele><time>2026-04-04T11:21:18.314Z</time></trkpt><trkpt lat="43.5315527" lon="11.9740348"><ele>470.0</ele><time>2026-04-04T11:21:20.314Z</time></trkpt><trkpt lat="43.5316053" lon="11.9740901"><ele>469.99999999999994</ele><time>2026-04-04T11:21:22.314Z</time></trkpt><trkpt lat="43.5316648" lon="11.9741864"><ele>470.0</ele><time>2026-04-04T11:21:25.314Z</time></trkpt><trkpt lat="43.5316786" lon="11.9742943"><ele>469.99999999999994</ele><time>2026-04-04T11:21:27.314Z</time></trkpt><trkpt lat="43.5317198" lon="11.9744411"><ele>470.0</ele><time>2026-04-04T11:21:30.315Z</time></trkpt><trkpt lat="43.5317524" lon="11.9745291"><ele>470.0</ele><time>2026-04-04T11:21:56.314Z</time></trkpt><trkpt lat="43.531816" lon="11.974561"><ele>470.0</ele><time>2026-04-04T11:22:01.314Z</time></trkpt><trkpt lat="43.5318545" lon="11.9746459"><ele>469.99999999999994</ele><time>2026-04-04T11:22:03.314Z</time></trkpt><trkpt lat="43.5318863" lon="11.9747365"><ele>470.0</ele><time>2026-04-04T11:22:05.313Z</time></trkpt><trkpt lat="43.5319058" lon="11.9748481"><ele>469.99999999999994</ele><time>2026-04-04T11:22:08.313Z</time></trkpt><trkpt lat="43.5319164" lon="11.9749356"><ele>470.0</ele><time>2026-04-04T11:22:10.314Z</time></trkpt><trkpt lat="43.5319153" lon="11.9751066"><ele>470.0</ele><time>2026-04-04T11:22:12.314Z</time></trkpt><trkpt lat="43.531931" lon="11.9752308"><ele>470.0</ele><time>2026-04-04T11:22:14.315Z</time></trkpt><trkpt lat="43.5319346" lon="11.9753272"><ele>469.99999999999994</ele><time>2026-04-04T11:22:16.314Z</time></trkpt><trkpt lat="43.5319985" lon="11.9753558"><ele>470.0</ele><time>2026-04-04T11:24:46.314Z</time></trkpt><trkpt lat="43.5320209" lon="11.9754566"><ele>468.8</ele><time>2026-04-04T11:24:50.314Z</time></trkpt><trkpt lat="43.532071" lon="11.9755703"><ele>467.6</ele><time>2026-04-04T11:24:53.314Z</time></trkpt><trkpt lat="43.5321178" lon="11.9756774"><ele>466.4</ele><time>2026-04-04T11:24:55.314Z</time></trkpt><trkpt lat="43.532144" lon="11.9757975"><ele>465.2</ele><time>2026-04-04T11:24:57.314Z</time></trkpt><trkpt lat="43.5321678" lon="11.9759458"><ele>464.0</ele><time>2026-04-04T11:24:59.313Z</time></trkpt><trkpt lat="43.5321793" lon="11.9760416"><ele>462.8333333333333</ele><time>2026-04-04T11:25:00.314Z</time></trkpt><trkpt lat="43.5322296" lon="11.9761983"><ele>461.66666666666663</ele><time>2026-04-04T11:25:02.314Z</time></trkpt><trkpt lat="43.5322504" lon="11.9763029"><ele>460.5</ele><time>2026-04-04T11:25:03.315Z</time></trkpt><trkpt lat="43.5322608" lon="11.9763954"><ele>459.33333333333337</ele><time>2026-04-04T11:25:04.315Z</time></trkpt><trkpt lat="43.5322926" lon="11.9765138"><ele>458.1666666666667</ele><time>2026-04-04T11:25:05.314Z</time></trkpt><trkpt lat="43.5323221" lon="11.9766186"><ele>457.0</ele><time>2026-04-04T11:25:06.314Z</time></trkpt><trkpt lat="43.5323325" lon="11.9767296"><ele>455.25</ele><time>2026-04-04T11:25:07.314Z</time></trkpt><trkpt lat="43.5324285" lon="11.9767472"><ele>453.5</ele><time>2026-04-04T11:25:08.313Z</time></trkpt><trkpt lat="43.532468" lon="11.9768669"><ele>451.75</ele><time>2026-04-04T11:25:10.315Z</time></trkpt><trkpt lat="43.5324948" lon="11.9771218"><ele>450.0</ele><time>2026-04-04T11:25:12.314Z</time></trkpt><trkpt lat="43.5325337" lon="11.9773059"><ele>450.0</ele><time>2026-04-04T11:25:14.314Z</time></trkpt><trkpt lat="43.5325415" lon="11.9774394"><ele>450.0</ele><time>2026-04-04T11:25:15.314Z</time></trkpt><trkpt lat="43.5325872" lon="11.9775724"><ele>450.0</ele><time>2026-04-04T11:25:16.314Z</time></trkpt><trkpt lat="43.5326527" lon="11.9777058"><ele>450.0</ele><time>2026-04-04T11:25:17.314Z</time></trkpt><trkpt lat="43.5328171" lon="11.9777888"><ele>450.2</ele><time>2026-04-04T11:25:19.314Z</time></trkpt><trkpt lat="43.5328331" lon="11.9778816"><ele>450.4</ele><time>2026-04-04T11:25:21.314Z</time></trkpt><trkpt lat="43.5328653" lon="11.9780139"><ele>450.6</ele><time>2026-04-04T11:25:23.314Z</time></trkpt><trkpt lat="43.5328804" lon="11.9781007"><ele>450.8</ele><time>2026-04-04T11:25:24.314Z</time></trkpt><trkpt lat="43.5329457" lon="11.9782786"><ele>451.0</ele><time>2026-04-04T11:25:26.314Z</time></trkpt><trkpt lat="43.5329932" lon="11.9783905"><ele>451.00000000000006</ele><time>2026-04-04T11:25:27.314Z</time></trkpt><trkpt lat="43.5329858" lon="11.9784828"><ele>451.0</ele><time>2026-04-04T11:25:45.314Z</time></trkpt><trkpt lat="43.5330195" lon="11.9785737"><ele>451.0</ele><time>2026-04-04T11:25:48.315Z</time></trkpt><trkpt lat="43.5330474" lon="11.978666"><ele>451.0</ele><time>2026-04-04T11:25:50.314Z</time></trkpt><trkpt lat="43.5331303" lon="11.9787441"><ele>451.00000000000006</ele><time>2026-04-04T11:25:52.314Z</time></trkpt><trkpt lat="43.5332258" lon="11.978836"><ele>451.0</ele><time>2026-04-04T11:25:54.314Z</time></trkpt><trkpt lat="43.5332764" lon="11.9788934"><ele>451.0</ele><time>2026-04-04T11:25:55.314Z</time></trkpt><trkpt lat="43.5333217" lon="11.979006"><ele>451.0</ele><time>2026-04-04T11:25:56.314Z</time></trkpt><trkpt lat="43.5333663" lon="11.9790981"><ele>451.0</ele><time>2026-04-04T11:25:57.314Z</time></trkpt><trkpt lat="43.5334117" lon="11.9791782"><ele>451.0</ele><time>2026-04-04T11:25:58.314Z</time></trkpt><trkpt lat="43.5334504" lon="11.9792544"><ele>451.0</ele><time>2026-04-04T11:25:59.315Z</time></trkpt><trkpt lat="43.5334884" lon="11.9793254"><ele>451.0</ele><time>2026-04-04T11:26:00.314Z</time></trkpt><trkpt lat="43.5335388" lon="11.979393"><ele>451.0</ele><time>2026-04-04T11:26:01.314Z</time></trkpt><trkpt lat="43.5335771" lon="11.9794797"><ele>450.1666666666667</ele><time>2026-04-04T11:26:02.314Z</time></trkpt><trkpt lat="43.5336099" lon="11.9795669"><ele>449.33333333333337</ele><time>2026-04-04T11:26:03.314Z</time></trkpt><trkpt lat="43.5336506" lon="11.9796818"><ele>448.5</ele><time>2026-04-04T11:26:04.314Z</time></trkpt><trkpt lat="43.5336991" lon="11.9797744"><ele>447.66666666666663</ele><time>2026-04-04T11:26:06.314Z</time></trkpt><trkpt lat="43.5337397" lon="11.9798573"><ele>446.8333333333333</ele><time>2026-04-04T11:26:08.313Z</time></trkpt><trkpt lat="43.5337729" lon="11.979948"><ele>446.0</ele><time>2026-04-04T11:26:10.314Z</time></trkpt><trkpt lat="43.5337863" lon="11.9800607"><ele>445.99999999999994</ele><time>2026-04-04T11:26:12.313Z</time></trkpt><trkpt lat="43.5337829" lon="11.9801616"><ele>446.0</ele><time>2026-04-04T11:26:14.314Z</time></trkpt><trkpt lat="43.5337907" lon="11.9802676"><ele>446.0</ele><time>2026-04-04T11:26:16.314Z</time></trkpt><trkpt lat="43.5337873" lon="11.9803667"><ele>446.0</ele><time>2026-04-04T11:26:18.314Z</time></trkpt><trkpt lat="43.5337977" lon="11.9804912"><ele>445.99999999999994</ele><time>2026-04-04T11:26:20.314Z</time></trkpt><trkpt lat="43.5338359" lon="11.9806254"><ele>446.0</ele><time>2026-04-04T11:26:22.313Z</time></trkpt><trkpt lat="43.5338601" lon="11.980744"><ele>445.66666666666663</ele><time>2026-04-04T11:26:24.314Z</time></trkpt><trkpt lat="43.5338859" lon="11.9808509"><ele>445.3333333333333</ele><time>2026-04-04T11:26:27.314Z</time></trkpt><trkpt lat="43.5339041" lon="11.9809478"><ele>445.0</ele><time>2026-04-04T11:26:30.313Z</time></trkpt><trkpt lat="43.5339156" lon="11.9810396"><ele>444.66666666666663</ele><time>2026-04-04T11:26:32.314Z</time></trkpt><trkpt lat="43.5339481" lon="11.9811285"><ele>444.3333333333333</ele><time>2026-04-04T11:26:34.314Z</time></trkpt><trkpt lat="43.5339805" lon="11.9812181"><ele>444.0</ele><time>2026-04-04T11:26:36.314Z</time></trkpt><trkpt lat="43.5339594" lon="11.9813459"><ele>444.0</ele><time>2026-04-04T11:26:38.314Z</time></trkpt><trkpt lat="43.5339172" lon="11.9814694"><ele>444.0</ele><time>2026-04-04T11:26:40.313Z</time></trkpt><trkpt lat="43.5338261" lon="11.9816045"><ele>444.0</ele><time>2026-04-04T11:26:42.313Z</time></trkpt><trkpt lat="43.5338157" lon="11.9817236"><ele>444.0</ele><time>2026-04-04T11:26:44.314Z</time></trkpt><trkpt lat="43.5338726" lon="11.9818514"><ele>444.0</ele><time>2026-04-04T11:26:46.314Z</time></trkpt><trkpt lat="43.5339141" lon="11.9819374"><ele>443.2857142857143</ele><time>2026-04-04T11:26:47.314Z</time></trkpt><trkpt lat="43.5339453" lon="11.9820282"><ele>442.5714285714286</ele><time>2026-04-04T11:26:48.314Z</time></trkpt><trkpt lat="43.5339695" lon="11.982114"><ele>441.8571428571429</ele><time>2026-04-04T11:26:50.314Z</time></trkpt><trkpt lat="43.5340147" lon="11.9822148"><ele>441.1428571428571</ele><time>2026-04-04T11:26:53.314Z</time></trkpt><trkpt lat="43.5340527" lon="11.9822946"><ele>440.42857142857144</ele><time>2026-04-04T11:26:57.314Z</time></trkpt><trkpt lat="43.5340866" lon="11.9823691"><ele>439.7142857142857</ele><time>2026-04-04T11:27:00.314Z</time></trkpt><trkpt lat="43.5341366" lon="11.9824402"><ele>439.0</ele><time>2026-04-04T11:27:04.314Z</time></trkpt><trkpt lat="43.5341662" lon="11.9825338"><ele>438.50000000000006</ele><time>2026-04-04T11:27:11.313Z</time></trkpt><trkpt lat="43.5341625" lon="11.9826331"><ele>438.0</ele><time>2026-04-04T11:27:21.314Z</time></trkpt><trkpt lat="43.5341385" lon="11.9827461"><ele>437.5</ele><time>2026-04-04T11:27:26.314Z</time></trkpt><trkpt lat="43.5341643" lon="11.982847"><ele>437.0</ele><time>2026-04-04T11:27:28.314Z</time></trkpt><trkpt lat="43.5342126" lon="11.9829547"><ele>436.50000000000006</ele><time>2026-04-04T11:27:30.314Z</time></trkpt><trkpt lat="43.5342439" lon="11.9830323"><ele>436.0</ele><time>2026-04-04T11:27:31.314Z</time></trkpt><trkpt lat="43.5342709" lon="11.9831231"><ele>436.0</ele><time>2026-04-04T11:27:32.314Z</time></trkpt><trkpt lat="43.5343345" lon="11.9832553"><ele>436.0</ele><time>2026-04-04T11:27:34.314Z</time></trkpt><trkpt lat="43.534382" lon="11.9833388"><ele>436.0</ele><time>2026-04-04T11:27:35.314Z</time></trkpt><trkpt lat="43.5344284" lon="11.9834843"><ele>436.0</ele><time>2026-04-04T11:27:37.314Z</time></trkpt><trkpt lat="43.53445" lon="11.9835997"><ele>436.0</ele><time>2026-04-04T11:27:38.314Z</time></trkpt><trkpt lat="43.5344723" lon="11.9836978"><ele>436.33333333333337</ele><time>2026-04-04T11:27:39.314Z</time></trkpt><trkpt lat="43.5345214" lon="11.9838414"><ele>436.6666666666667</ele><time>2026-04-04T11:27:41.314Z</time></trkpt><trkpt lat="43.5345266" lon="11.9839346"><ele>437.0</ele><time>2026-04-04T11:27:42.314Z</time></trkpt><trkpt lat="43.5345379" lon="11.9840945"><ele>437.33333333333337</ele><time>2026-04-04T11:27:44.313Z</time></trkpt><trkpt lat="43.5345405" lon="11.9841942"><ele>437.6666666666667</ele><time>2026-04-04T11:27:45.314Z</time></trkpt><trkpt lat="43.5345246" lon="11.9842831"><ele>438.0</ele><time>2026-04-04T11:27:46.314Z</time></trkpt><trkpt lat="43.534519" lon="11.9843757"><ele>437.2</ele><time>2026-04-04T11:27:47.314Z</time></trkpt><trkpt lat="43.5345155" lon="11.9845301"><ele>436.4</ele><time>2026-04-04T11:27:57.314Z</time></trkpt><trkpt lat="43.5344953" lon="11.9846468"><ele>435.59999999999997</ele><time>2026-04-04T11:28:18.314Z</time></trkpt><trkpt lat="43.5344975" lon="11.9847483"><ele>434.79999999999995</ele><time>2026-04-04T11:28:23.314Z</time></trkpt><trkpt lat="43.5344805" lon="11.9848492"><ele>434.0</ele><time>2026-04-04T11:28:26.314Z</time></trkpt><trkpt lat="43.5344813" lon="11.9849954"><ele>433.79999999999995</ele><time>2026-04-04T11:28:28.314Z</time></trkpt><trkpt lat="43.534476" lon="11.9851388"><ele>433.59999999999997</ele><time>2026-04-04T11:28:30.314Z</time></trkpt><trkpt lat="43.5344975" lon="11.9852755"><ele>433.4</ele><time>2026-04-04T11:28:32.313Z</time></trkpt><trkpt lat="43.534549" lon="11.9854037"><ele>433.2</ele><time>2026-04-04T11:28:34.314Z</time></trkpt><trkpt lat="43.534614" lon="11.9855606"><ele>433.0</ele><time>2026-04-04T11:28:36.314Z</time></trkpt><trkpt lat="43.5346311" lon="11.9856684"><ele>433.0</ele><time>2026-04-04T11:28:37.314Z</time></trkpt><trkpt lat="43.5346365" lon="11.985811"><ele>432.99999999999994</ele><time>2026-04-04T11:28:39.314Z</time></trkpt><trkpt lat="43.5346283" lon="11.985906"><ele>432.99999999999994</ele><time>2026-04-04T11:28:40.315Z</time></trkpt><trkpt lat="43.5346491" lon="11.986028"><ele>433.0</ele><time>2026-04-04T11:28:42.314Z</time></trkpt><trkpt lat="43.5346897" lon="11.9861665"><ele>433.0</ele><time>2026-04-04T11:28:44.313Z</time></trkpt><trkpt lat="43.5347427" lon="11.9862846"><ele>433.0</ele><time>2026-04-04T11:28:45.314Z</time></trkpt><trkpt lat="43.5347987" lon="11.9864122"><ele>432.99999999999994</ele><time>2026-04-04T11:28:46.313Z</time></trkpt><trkpt lat="43.53485" lon="11.9865053"><ele>432.99999999999994</ele><time>2026-04-04T11:28:47.313Z</time></trkpt><trkpt lat="43.5349034" lon="11.9866648"><ele>433.0</ele><time>2026-04-04T11:28:49.313Z</time></trkpt><trkpt lat="43.5349083" lon="11.9867817"><ele>433.0</ele><time>2026-04-04T11:28:50.314Z</time></trkpt><trkpt lat="43.5348918" lon="11.9869115"><ele>432.1666666666667</ele><time>2026-04-04T11:28:52.314Z</time></trkpt><trkpt lat="43.5348985" lon="11.9870007"><ele>431.33333333333337</ele><time>2026-04-04T11:28:53.314Z</time></trkpt><trkpt lat="43.5349072" lon="11.987101"><ele>430.5</ele><time>2026-04-04T11:28:54.315Z</time></trkpt><trkpt lat="43.5349251" lon="11.9871998"><ele>429.66666666666663</ele><time>2026-04-04T11:28:55.314Z</time></trkpt><trkpt lat="43.5348963" lon="11.9873646"><ele>428.8333333333333</ele><time>2026-04-04T11:28:57.314Z</time></trkpt><trkpt lat="43.5348913" lon="11.9874592"><ele>428.0</ele><time>2026-04-04T11:28:58.314Z</time></trkpt><trkpt lat="43.5348999" lon="11.9875972"><ele>426.16666666666663</ele><time>2026-04-04T11:29:00.314Z</time></trkpt><trkpt lat="43.5349036" lon="11.9877388"><ele>424.3333333333333</ele><time>2026-04-04T11:29:03.314Z</time></trkpt><trkpt lat="43.5349414" lon="11.9878385"><ele>422.5</ele><time>2026-04-04T11:29:05.314Z</time></trkpt><trkpt lat="43.5349671" lon="11.987932"><ele>420.66666666666663</ele><time>2026-04-04T11:29:07.314Z</time></trkpt><trkpt lat="43.5349931" lon="11.9880164"><ele>418.8333333333333</ele><time>2026-04-04T11:29:08.314Z</time></trkpt><trkpt lat="43.534972" lon="11.9881111"><ele>417.0</ele><time>2026-04-04T11:29:09.314Z</time></trkpt><trkpt lat="43.534976" lon="11.9882246"><ele>417.0</ele><time>2026-04-04T11:29:10.314Z</time></trkpt><trkpt lat="43.5350096" lon="11.9883342"><ele>417.0</ele><time>2026-04-04T11:29:12.313Z</time></trkpt><trkpt lat="43.5350545" lon="11.9884615"><ele>417.0</ele><time>2026-04-04T11:29:14.313Z</time></trkpt><trkpt lat="43.5351147" lon="11.9885465"><ele>417.0</ele><time>2026-04-04T11:29:17.314Z</time></trkpt><trkpt lat="43.5351478" lon="11.9886285"><ele>417.0</ele><time>2026-04-04T11:29:19.314Z</time></trkpt><trkpt lat="43.5351792" lon="11.988727"><ele>417.0</ele><time>2026-04-04T11:29:21.314Z</time></trkpt><trkpt lat="43.535216" lon="11.9888476"><ele>415.6666666666667</ele><time>2026-04-04T11:29:23.314Z</time></trkpt><trkpt lat="43.5352374" lon="11.9889747"><ele>414.33333333333337</ele><time>2026-04-04T11:29:26.314Z</time></trkpt><trkpt lat="43.5352362" lon="11.9890838"><ele>413.0</ele><time>2026-04-04T11:29:28.313Z</time></trkpt><trkpt lat="43.5352208" lon="11.9892024"><ele>411.6666666666667</ele><time>2026-04-04T11:29:30.314Z</time></trkpt><trkpt lat="43.5352497" lon="11.9893227"><ele>410.33333333333337</ele><time>2026-04-04T11:29:32.314Z</time></trkpt><trkpt lat="43.535242" lon="11.9894281"><ele>409.0</ele><time>2026-04-04T11:29:34.314Z</time></trkpt><trkpt lat="43.5352118" lon="11.9895351"><ele>408.33333333333337</ele><time>2026-04-04T11:29:36.314Z</time></trkpt><trkpt lat="43.5351865" lon="11.9896418"><ele>407.6666666666667</ele><time>2026-04-04T11:29:38.314Z</time></trkpt><trkpt lat="43.5351657" lon="11.9897367"><ele>407.0</ele><time>2026-04-04T11:30:06.314Z</time></trkpt><trkpt lat="43.535143" lon="11.9895951"><ele>406.33333333333337</ele><time>2026-04-04T11:30:23.314Z</time></trkpt><trkpt lat="43.5351156" lon="11.9894692"><ele>405.6666666666667</ele><time>2026-04-04T11:30:27.314Z</time></trkpt><trkpt lat="43.5351034" lon="11.9893723"><ele>405.0</ele><time>2026-04-04T11:30:28.314Z</time></trkpt><trkpt lat="43.5350649" lon="11.9892553"><ele>405.0</ele><time>2026-04-04T11:30:30.314Z</time></trkpt><trkpt lat="43.5350065" lon="11.9891333"><ele>405.0</ele><time>2026-04-04T11:30:32.314Z</time></trkpt><trkpt lat="43.5349531" lon="11.9890369"><ele>405.0</ele><time>2026-04-04T11:30:34.314Z</time></trkpt><trkpt lat="43.5348915" lon="11.9890613"><ele>405.0</ele><time>2026-04-04T11:30:37.314Z</time></trkpt><trkpt lat="43.534901" lon="11.9892256"><ele>405.0</ele><time>2026-04-04T11:30:39.314Z</time></trkpt><trkpt lat="43.5348779" lon="11.9893633"><ele>404.99999999999994</ele><time>2026-04-04T11:30:41.314Z</time></trkpt><trkpt lat="43.5348612" lon="11.9894508"><ele>405.0</ele><time>2026-04-04T11:30:42.314Z</time></trkpt><trkpt lat="43.5348423" lon="11.989539"><ele>405.0</ele><time>2026-04-04T11:30:43.314Z</time></trkpt><trkpt lat="43.5348454" lon="11.9896401"><ele>405.0</ele><time>2026-04-04T11:30:44.313Z</time></trkpt><trkpt lat="43.5348515" lon="11.9897432"><ele>405.0</ele><time>2026-04-04T11:30:45.314Z</time></trkpt><trkpt lat="43.5348575" lon="11.9898404"><ele>404.99999999999994</ele><time>2026-04-04T11:30:46.314Z</time></trkpt><trkpt lat="43.534832" lon="11.9899632"><ele>405.0</ele><time>2026-04-04T11:30:48.313Z</time></trkpt><trkpt lat="43.5347605" lon="11.9899628"><ele>405.0</ele><time>2026-04-04T11:30:50.314Z</time></trkpt><trkpt lat="43.5346982" lon="11.9899086"><ele>405.0</ele><time>2026-04-04T11:30:52.313Z</time></trkpt><trkpt lat="43.5346958" lon="11.989789"><ele>405.0</ele><time>2026-04-04T11:30:54.313Z</time></trkpt><trkpt lat="43.5346824" lon="11.9896987"><ele>405.0</ele><time>2026-04-04T11:30:57.314Z</time></trkpt><trkpt lat="43.5345833" lon="11.9896852"><ele>405.0</ele><time>2026-04-04T11:31:02.314Z</time></trkpt><trkpt lat="43.5345327" lon="11.9897573"><ele>405.0</ele><time>2026-04-04T11:31:03.314Z</time></trkpt><trkpt lat="43.5344513" lon="11.9897427"><ele>408.1666666666667</ele><time>2026-04-04T11:31:06.314Z</time></trkpt><trkpt lat="43.5344446" lon="11.9896041"><ele>411.33333333333337</ele><time>2026-04-04T11:31:10.314Z</time></trkpt><trkpt lat="43.5344216" lon="11.9895076"><ele>414.5</ele><time>2026-04-04T11:31:12.314Z</time></trkpt><trkpt lat="43.5343719" lon="11.9894496"><ele>417.6666666666667</ele><time>2026-04-04T11:31:14.314Z</time></trkpt><trkpt lat="43.5342916" lon="11.9894846"><ele>420.83333333333337</ele><time>2026-04-04T11:31:17.313Z</time></trkpt><trkpt lat="43.534201" lon="11.9894552"><ele>424.0</ele><time>2026-04-04T11:31:19.314Z</time></trkpt><trkpt lat="43.5341108" lon="11.989413"><ele>424.0</ele><time>2026-04-04T11:31:21.314Z</time></trkpt><trkpt lat="43.5340403" lon="11.9893267"><ele>424.0</ele><time>2026-04-04T11:31:23.314Z</time></trkpt><trkpt lat="43.5340132" lon="11.9891983"><ele>424.0</ele><time>2026-04-04T11:31:25.314Z</time></trkpt><trkpt lat="43.5339864" lon="11.9890763"><ele>424.0</ele><time>2026-04-04T11:31:27.314Z</time></trkpt><trkpt lat="43.5339321" lon="11.989014"><ele>424.0</ele><time>2026-04-04T11:31:28.314Z</time></trkpt><trkpt lat="43.5338452" lon="11.9889136"><ele>426.00000000000006</ele><time>2026-04-04T11:31:30.313Z</time></trkpt><trkpt lat="43.5337893" lon="11.9888632"><ele>428.0</ele><time>2026-04-04T11:31:31.314Z</time></trkpt><trkpt lat="43.5337363" lon="11.9887856"><ele>430.0</ele><time>2026-04-04T11:31:32.314Z</time></trkpt><trkpt lat="43.5336821" lon="11.9887182"><ele>432.0</ele><time>2026-04-04T11:31:33.315Z</time></trkpt><trkpt lat="43.533634" lon="11.9886451"><ele>434.00000000000006</ele><time>2026-04-04T11:31:34.315Z</time></trkpt><trkpt lat="43.533539" lon="11.9885238"><ele>436.0</ele><time>2026-04-04T11:31:36.314Z</time></trkpt><trkpt lat="43.5334881" lon="11.9884418"><ele>440.0</ele><time>2026-04-04T11:31:37.314Z</time></trkpt><trkpt lat="43.5334632" lon="11.9882839"><ele>444.0</ele><time>2026-04-04T11:31:39.313Z</time></trkpt><trkpt lat="43.5334309" lon="11.9881094"><ele>448.0</ele><time>2026-04-04T11:31:41.314Z</time></trkpt><trkpt lat="43.5334528" lon="11.9879648"><ele>452.0</ele><time>2026-04-04T11:31:43.314Z</time></trkpt><trkpt lat="43.5334523" lon="11.9878716"><ele>456.0</ele><time>2026-04-04T11:31:44.314Z</time></trkpt><trkpt lat="43.5334491" lon="11.9877765"><ele>456.0</ele><time>2026-04-04T11:31:45.314Z</time></trkpt><trkpt lat="43.5334408" lon="11.987685"><ele>455.99999999999994</ele><time>2026-04-04T11:31:46.314Z</time></trkpt><trkpt lat="43.5334401" lon="11.9875712"><ele>456.0</ele><time>2026-04-04T11:31:47.314Z</time></trkpt><trkpt lat="43.5334389" lon="11.9874707"><ele>456.0</ele><time>2026-04-04T11:31:48.314Z</time></trkpt><trkpt lat="43.5334168" lon="11.9873604"><ele>455.99999999999994</ele><time>2026-04-04T11:31:49.314Z</time></trkpt><trkpt lat="43.5334157" lon="11.9872578"><ele>456.0</ele><time>2026-04-04T11:31:50.314Z</time></trkpt><trkpt lat="43.5334002" lon="11.9871654"><ele>456.0</ele><time>2026-04-04T11:31:51.314Z</time></trkpt><trkpt lat="43.5333578" lon="11.9870047"><ele>457.6</ele><time>2026-04-04T11:31:53.314Z</time></trkpt><trkpt lat="43.5333282" lon="11.9869273"><ele>459.20000000000005</ele><time>2026-04-04T11:31:54.314Z</time></trkpt><trkpt lat="43.5332973" lon="11.9868039"><ele>460.79999999999995</ele><time>2026-04-04T11:31:56.314Z</time></trkpt><trkpt lat="43.5333022" lon="11.9866768"><ele>462.4</ele><time>2026-04-04T11:31:58.314Z</time></trkpt><trkpt lat="43.5332905" lon="11.9865331"><ele>464.0</ele><time>2026-04-04T11:32:00.315Z</time></trkpt><trkpt lat="43.5332694" lon="11.9864002"><ele>466.2</ele><time>2026-04-04T11:32:02.313Z</time></trkpt><trkpt lat="43.5333248" lon="11.9863064"><ele>468.4</ele><time>2026-04-04T11:32:04.313Z</time></trkpt><trkpt lat="43.5333273" lon="11.986175"><ele>470.6</ele><time>2026-04-04T11:32:07.314Z</time></trkpt><trkpt lat="43.5332512" lon="11.9861086"><ele>472.8</ele><time>2026-04-04T11:32:09.314Z</time></trkpt><trkpt lat="43.5331361" lon="11.9860628"><ele>475.0</ele><time>2026-04-04T11:32:11.314Z</time></trkpt><trkpt lat="43.5330709" lon="11.9860352"><ele>475.0</ele><time>2026-04-04T11:32:12.314Z</time></trkpt><trkpt lat="43.5329744" lon="11.985988"><ele>475.0</ele><time>2026-04-04T11:32:14.315Z</time></trkpt><trkpt lat="43.5329051" lon="11.9859084"><ele>475.0</ele><time>2026-04-04T11:32:16.314Z</time></trkpt><trkpt lat="43.5329338" lon="11.9857796"><ele>475.0</ele><time>2026-04-04T11:32:19.314Z</time></trkpt><trkpt lat="43.5329621" lon="11.9856197"><ele>475.0</ele><time>2026-04-04T11:32:21.314Z</time></trkpt><trkpt lat="43.5329416" lon="11.9854577"><ele>476.6</ele><time>2026-04-04T11:32:23.314Z</time></trkpt><trkpt lat="43.5329023" lon="11.985317"><ele>478.2</ele><time>2026-04-04T11:32:25.314Z</time></trkpt><trkpt lat="43.5328756" lon="11.9852097"><ele>479.79999999999995</ele><time>2026-04-04T11:32:27.314Z</time></trkpt><trkpt lat="43.5328171" lon="11.9850413"><ele>481.4</ele><time>2026-04-04T11:32:29.313Z</time></trkpt><trkpt lat="43.5327528" lon="11.9849296"><ele>483.0</ele><time>2026-04-04T11:32:31.313Z</time></trkpt><trkpt lat="43.5327062" lon="11.9848533"><ele>488.2</ele><time>2026-04-04T11:33:17.314Z</time></trkpt><trkpt lat="43.5326785" lon="11.9847291"><ele>493.4</ele><time>2026-04-04T11:33:20.313Z</time></trkpt><trkpt lat="43.5326633" lon="11.9846394"><ele>498.59999999999997</ele><time>2026-04-04T11:33:21.314Z</time></trkpt><trkpt lat="43.5326307" lon="11.9845589"><ele>503.79999999999995</ele><time>2026-04-04T11:33:22.314Z</time></trkpt><trkpt lat="43.5325441" lon="11.9844662"><ele>509.0</ele><time>2026-04-04T11:33:24.314Z</time></trkpt><trkpt lat="43.5324321" lon="11.9845088"><ele>508.99999999999994</ele><time>2026-04-04T11:33:26.314Z</time></trkpt><trkpt lat="43.5323257" lon="11.9844928"><ele>509.0</ele><time>2026-04-04T11:33:28.314Z</time></trkpt><trkpt lat="43.5322294" lon="11.9844475"><ele>509.0</ele><time>2026-04-04T11:33:30.314Z</time></trkpt><trkpt lat="43.5321773" lon="11.984372"><ele>509.0</ele><time>2026-04-04T11:33:32.315Z</time></trkpt><trkpt lat="43.5321905" lon="11.9842789"><ele>508.99999999999994</ele><time>2026-04-04T11:33:34.315Z</time></trkpt><trkpt lat="43.5322581" lon="11.9842188"><ele>509.0</ele><time>2026-04-04T11:33:36.314Z</time></trkpt><trkpt lat="43.5323353" lon="11.9841965"><ele>510.8333333333333</ele><time>2026-04-04T11:33:38.314Z</time></trkpt><trkpt lat="43.5323844" lon="11.9841036"><ele>512.6666666666666</ele><time>2026-04-04T11:33:40.314Z</time></trkpt><trkpt lat="43.5324011" lon="11.983995"><ele>514.5</ele><time>2026-04-04T11:33:42.314Z</time></trkpt><trkpt lat="43.5324001" lon="11.9838747"><ele>516.3333333333334</ele><time>2026-04-04T11:33:44.314Z</time></trkpt><trkpt lat="43.5323758" lon="11.9837559"><ele>518.1666666666667</ele><time>2026-04-04T11:33:46.314Z</time></trkpt><trkpt lat="43.5323294" lon="11.9836402"><ele>520.0</ele><time>2026-04-04T11:33:48.314Z</time></trkpt><trkpt lat="43.5322545" lon="11.9835428"><ele>520.0</ele><time>2026-04-04T11:33:50.313Z</time></trkpt><trkpt lat="43.5321777" lon="11.983453"><ele>520.0</ele><time>2026-04-04T11:33:52.313Z</time></trkpt><trkpt lat="43.5321053" lon="11.9833486"><ele>520.0</ele><time>2026-04-04T11:33:54.313Z</time></trkpt><trkpt lat="43.5320611" lon="11.9832136"><ele>520.0</ele><time>2026-04-04T11:33:56.314Z</time></trkpt><trkpt lat="43.5320084" lon="11.9830947"><ele>520.0</ele><time>2026-04-04T11:33:58.314Z</time></trkpt><trkpt lat="43.531962" lon="11.9830327"><ele>525.75</ele><time>2026-04-04T11:33:59.314Z</time></trkpt><trkpt lat="43.5317899" lon="11.9829539"><ele>531.5</ele><time>2026-04-04T11:34:02.313Z</time></trkpt><trkpt lat="43.5317215" lon="11.9829332"><ele>537.25</ele><time>2026-04-04T11:34:03.314Z</time></trkpt><trkpt lat="43.5315993" lon="11.9828919"><ele>543.0</ele><time>2026-04-04T11:34:05.314Z</time></trkpt><trkpt lat="43.5314948" lon="11.9828315"><ele>543.0</ele><time>2026-04-04T11:34:07.314Z</time></trkpt><trkpt lat="43.5314224" lon="11.9827855"><ele>543.0</ele><time>2026-04-04T11:34:08.314Z</time></trkpt><trkpt lat="43.5313524" lon="11.9827473"><ele>543.0</ele><time>2026-04-04T11:34:09.315Z</time></trkpt><trkpt lat="43.5312366" lon="11.9826768"><ele>543.0</ele><time>2026-04-04T11:34:11.313Z</time></trkpt><trkpt lat="43.5311445" lon="11.9826668"><ele>543.0</ele><time>2026-04-04T11:34:12.315Z</time></trkpt><trkpt lat="43.5310659" lon="11.9826593"><ele>544.6666666666666</ele><time>2026-04-04T11:34:13.314Z</time></trkpt><trkpt lat="43.5310066" lon="11.9826927"><ele>546.3333333333334</ele><time>2026-04-04T11:34:14.314Z</time></trkpt><trkpt lat="43.5308853" lon="11.9827315"><ele>548.0</ele><time>2026-04-04T11:34:16.314Z</time></trkpt><trkpt lat="43.5307762" lon="11.9827188"><ele>549.6666666666667</ele><time>2026-04-04T11:34:18.314Z</time></trkpt><trkpt lat="43.5307133" lon="11.9827235"><ele>551.3333333333334</ele><time>2026-04-04T11:34:19.314Z</time></trkpt><trkpt lat="43.5306448" lon="11.9827177"><ele>553.0</ele><time>2026-04-04T11:34:20.314Z</time></trkpt><trkpt lat="43.5305753" lon="11.982717"><ele>553.0</ele><time>2026-04-04T11:34:21.314Z</time></trkpt><trkpt lat="43.5304942" lon="11.9826781"><ele>553.0</ele><time>2026-04-04T11:34:22.314Z</time></trkpt><trkpt lat="43.5304217" lon="11.9826457"><ele>553.0</ele><time>2026-04-04T11:34:23.315Z</time></trkpt><trkpt lat="43.5303547" lon="11.9826098"><ele>553.0</ele><time>2026-04-04T11:34:24.314Z</time></trkpt><trkpt lat="43.5302967" lon="11.982569"><ele>553.0</ele><time>2026-04-04T11:34:25.314Z</time></trkpt><trkpt lat="43.5301819" lon="11.9825027"><ele>553.0</ele><time>2026-04-04T11:34:27.314Z</time></trkpt><trkpt lat="43.5301179" lon="11.9824734"><ele>558.1666666666667</ele><time>2026-04-04T11:34:28.315Z</time></trkpt><trkpt lat="43.5300547" lon="11.9824479"><ele>563.3333333333334</ele><time>2026-04-04T11:34:29.314Z</time></trkpt><trkpt lat="43.5299895" lon="11.9824417"><ele>568.5</ele><time>2026-04-04T11:34:30.314Z</time></trkpt><trkpt lat="43.5299261" lon="11.982431"><ele>573.6666666666666</ele><time>2026-04-04T11:34:31.314Z</time></trkpt><trkpt lat="43.529803" lon="11.9823846"><ele>578.8333333333333</ele><time>2026-04-04T11:34:33.315Z</time></trkpt><trkpt lat="43.5297307" lon="11.9823597"><ele>584.0</ele><time>2026-04-04T11:34:34.314Z</time></trkpt><trkpt lat="43.5296111" lon="11.9823057"><ele>585.2</ele><time>2026-04-04T11:34:36.314Z</time></trkpt><trkpt lat="43.5295344" lon="11.9822671"><ele>586.4</ele><time>2026-04-04T11:34:37.314Z</time></trkpt><trkpt lat="43.5294549" lon="11.9822312"><ele>587.6</ele><time>2026-04-04T11:34:38.313Z</time></trkpt><trkpt lat="43.5293485" lon="11.9822002"><ele>588.8</ele><time>2026-04-04T11:34:39.314Z</time></trkpt><trkpt lat="43.5292699" lon="11.9821682"><ele>590.0</ele><time>2026-04-04T11:34:40.314Z</time></trkpt><trkpt lat="43.529181" lon="11.9821226"><ele>590.0</ele><time>2026-04-04T11:34:41.314Z</time></trkpt><trkpt lat="43.529106" lon="11.9820773"><ele>590.0</ele><time>2026-04-04T11:34:42.314Z</time></trkpt><trkpt lat="43.5290293" lon="11.9820306"><ele>590.0</ele><time>2026-04-04T11:34:43.315Z</time></trkpt><trkpt lat="43.528946" lon="11.9819849"><ele>590.0</ele><time>2026-04-04T11:34:44.314Z</time></trkpt><trkpt lat="43.5288686" lon="11.9819337"><ele>590.0</ele><time>2026-04-04T11:34:45.314Z</time></trkpt><trkpt lat="43.5287872" lon="11.9818823"><ele>590.0</ele><time>2026-04-04T11:34:46.313Z</time></trkpt><trkpt lat="43.5287152" lon="11.9818172"><ele>590.5</ele><time>2026-04-04T11:34:47.314Z</time></trkpt><trkpt lat="43.5286433" lon="11.9817511"><ele>591.0</ele><time>2026-04-04T11:34:48.314Z</time></trkpt><trkpt lat="43.528581" lon="11.9816636"><ele>591.5</ele><time>2026-04-04T11:34:49.314Z</time></trkpt><trkpt lat="43.5285363" lon="11.9815933"><ele>592.0</ele><time>2026-04-04T11:34:50.314Z</time></trkpt><trkpt lat="43.5284921" lon="11.981508"><ele>592.5</ele><time>2026-04-04T11:34:51.314Z</time></trkpt><trkpt lat="43.5284513" lon="11.9814251"><ele>593.0</ele><time>2026-04-04T11:34:52.314Z</time></trkpt><trkpt lat="43.5283994" lon="11.9813311"><ele>594.3333333333333</ele><time>2026-04-04T11:34:53.314Z</time></trkpt><trkpt lat="43.5283329" lon="11.9812514"><ele>595.6666666666666</ele><time>2026-04-04T11:34:54.313Z</time></trkpt><trkpt lat="43.528273" lon="11.981175"><ele>597.0</ele><time>2026-04-04T11:34:55.314Z</time></trkpt><trkpt lat="43.5282238" lon="11.9811056"><ele>598.3333333333334</ele><time>2026-04-04T11:34:56.314Z</time></trkpt><trkpt lat="43.5281711" lon="11.9810339"><ele>599.6666666666667</ele><time>2026-04-04T11:34:57.314Z</time></trkpt><trkpt lat="43.528113" lon="11.9809255"><ele>601.0</ele><time>2026-04-04T11:34:58.314Z</time></trkpt><trkpt lat="43.5280619" lon="11.9808315"><ele>601.0</ele><time>2026-04-04T11:34:59.313Z</time></trkpt><trkpt lat="43.5279948" lon="11.980724"><ele>601.0</ele><time>2026-04-04T11:35:00.314Z</time></trkpt><trkpt lat="43.5279243" lon="11.9806163"><ele>601.0</ele><time>2026-04-04T11:35:01.314Z</time></trkpt><trkpt lat="43.5278552" lon="11.9805195"><ele>601.0</ele><time>2026-04-04T11:35:02.314Z</time></trkpt><trkpt lat="43.5277876" lon="11.9804334"><ele>601.0</ele><time>2026-04-04T11:35:03.314Z</time></trkpt><trkpt lat="43.5276552" lon="11.9803023"><ele>604.5</ele><time>2026-04-04T11:35:05.314Z</time></trkpt><trkpt lat="43.5275851" lon="11.980268"><ele>608.0</ele><time>2026-04-04T11:35:06.314Z</time></trkpt><trkpt lat="43.527519" lon="11.9802345"><ele>611.5</ele><time>2026-04-04T11:35:07.314Z</time></trkpt><trkpt lat="43.5274539" lon="11.9801805"><ele>615.0</ele><time>2026-04-04T11:35:08.314Z</time></trkpt><trkpt lat="43.5274076" lon="11.980113"><ele>618.5</ele><time>2026-04-04T11:35:09.314Z</time></trkpt><trkpt lat="43.5273688" lon="11.9799696"><ele>622.0</ele><time>2026-04-04T11:35:11.314Z</time></trkpt><trkpt lat="43.527311" lon="11.9798054"><ele>622.0</ele><time>2026-04-04T11:35:13.314Z</time></trkpt><trkpt lat="43.5272606" lon="11.9797216"><ele>622.0</ele><time>2026-04-04T11:35:14.314Z</time></trkpt><trkpt lat="43.527211" lon="11.9796559"><ele>622.0</ele><time>2026-04-04T11:35:15.314Z</time></trkpt><trkpt lat="43.5271582" lon="11.9795639"><ele>622.0</ele><time>2026-04-04T11:35:16.314Z</time></trkpt><trkpt lat="43.5271145" lon="11.9794834"><ele>622.0</ele><time>2026-04-04T11:35:17.314Z</time></trkpt><trkpt lat="43.5270593" lon="11.9793981"><ele>622.0</ele><time>2026-04-04T11:35:18.314Z</time></trkpt><trkpt lat="43.5270067" lon="11.9793172"><ele>625.1666666666667</ele><time>2026-04-04T11:35:19.314Z</time></trkpt><trkpt lat="43.5269568" lon="11.9792484"><ele>628.3333333333334</ele><time>2026-04-04T11:35:20.313Z</time></trkpt><trkpt lat="43.5268549" lon="11.9791224"><ele>631.5</ele><time>2026-04-04T11:35:22.314Z</time></trkpt><trkpt lat="43.5268068" lon="11.9790459"><ele>634.6666666666666</ele><time>2026-04-04T11:35:23.314Z</time></trkpt><trkpt lat="43.526766" lon="11.9789595"><ele>637.8333333333333</ele><time>2026-04-04T11:35:24.315Z</time></trkpt><trkpt lat="43.5267197" lon="11.9788687"><ele>641.0</ele><time>2026-04-04T11:35:25.314Z</time></trkpt><trkpt lat="43.526689" lon="11.978781"><ele>641.1666666666666</ele><time>2026-04-04T11:35:26.314Z</time></trkpt><trkpt lat="43.5266644" lon="11.9786797"><ele>641.3333333333333</ele><time>2026-04-04T11:35:27.314Z</time></trkpt><trkpt lat="43.5266356" lon="11.9785871"><ele>641.5</ele><time>2026-04-04T11:35:28.314Z</time></trkpt><trkpt lat="43.5265981" lon="11.9784973"><ele>641.6666666666666</ele><time>2026-04-04T11:35:29.315Z</time></trkpt><trkpt lat="43.5265396" lon="11.978411"><ele>641.8333333333334</ele><time>2026-04-04T11:35:30.313Z</time></trkpt><trkpt lat="43.5264858" lon="11.9783268"><ele>642.0</ele><time>2026-04-04T11:35:31.314Z</time></trkpt><trkpt lat="43.5264417" lon="11.9782514"><ele>642.0</ele><time>2026-04-04T11:35:32.314Z</time></trkpt><trkpt lat="43.5263701" lon="11.9781216"><ele>642.0</ele><time>2026-04-04T11:35:34.313Z</time></trkpt><trkpt lat="43.5262862" lon="11.9780095"><ele>642.0</ele><time>2026-04-04T11:35:36.314Z</time></trkpt><trkpt lat="43.5261961" lon="11.97791"><ele>642.0</ele><time>2026-04-04T11:35:38.314Z</time></trkpt><trkpt lat="43.5260898" lon="11.9778471"><ele>642.9999999999999</ele><time>2026-04-04T11:35:40.314Z</time></trkpt><trkpt lat="43.5260273" lon="11.9778108"><ele>644.0</ele><time>2026-04-04T11:35:41.314Z</time></trkpt><trkpt lat="43.5259569" lon="11.9777718"><ele>645.0</ele><time>2026-04-04T11:35:42.313Z</time></trkpt><trkpt lat="43.5258915" lon="11.9777215"><ele>646.0</ele><time>2026-04-04T11:35:43.314Z</time></trkpt><trkpt lat="43.5258314" lon="11.9776701"><ele>647.0</ele><time>2026-04-04T11:35:44.314Z</time></trkpt><trkpt lat="43.5257718" lon="11.9776206"><ele>647.9999999999999</ele><time>2026-04-04T11:35:45.314Z</time></trkpt><trkpt lat="43.5257163" lon="11.9775757"><ele>649.0</ele><time>2026-04-04T11:35:46.314Z</time></trkpt><trkpt lat="43.5256482" lon="11.977527"><ele>648.1666666666667</ele><time>2026-04-04T11:35:47.315Z</time></trkpt><trkpt lat="43.5255781" lon="11.9774702"><ele>647.3333333333334</ele><time>2026-04-04T11:35:48.314Z</time></trkpt><trkpt lat="43.5255113" lon="11.9774179"><ele>646.5</ele><time>2026-04-04T11:35:49.314Z</time></trkpt><trkpt lat="43.5254423" lon="11.9773688"><ele>645.6666666666666</ele><time>2026-04-04T11:35:50.314Z</time></trkpt><trkpt lat="43.5253281" lon="11.9772826"><ele>644.8333333333333</ele><time>2026-04-04T11:35:52.314Z</time></trkpt><trkpt lat="43.5252642" lon="11.9772349"><ele>644.0</ele><time>2026-04-04T11:35:53.314Z</time></trkpt><trkpt lat="43.5251713" lon="11.9771482"><ele>643.6</ele><time>2026-04-04T11:35:55.314Z</time></trkpt><trkpt lat="43.5251083" lon="11.977087"><ele>643.2</ele><time>2026-04-04T11:35:57.314Z</time></trkpt><trkpt lat="43.5250441" lon="11.977067"><ele>642.8000000000001</ele><time>2026-04-04T11:35:59.314Z</time></trkpt><trkpt lat="43.524954" lon="11.9770549"><ele>642.4000000000001</ele><time>2026-04-04T11:36:01.314Z</time></trkpt><trkpt lat="43.5248126" lon="11.9769664"><ele>642.0</ele><time>2026-04-04T11:36:04.314Z</time></trkpt><trkpt lat="43.524708" lon="11.9769232"><ele>642.0</ele><time>2026-04-04T11:36:06.314Z</time></trkpt><trkpt lat="43.5245946" lon="11.9769016"><ele>642.0</ele><time>2026-04-04T11:36:08.314Z</time></trkpt><trkpt lat="43.5244748" lon="11.9768925"><ele>642.0</ele><time>2026-04-04T11:36:10.314Z</time></trkpt><trkpt lat="43.5243566" lon="11.9768575"><ele>642.0</ele><time>2026-04-04T11:36:12.314Z</time></trkpt><trkpt lat="43.5242539" lon="11.97679"><ele>642.0</ele><time>2026-04-04T11:36:14.314Z</time></trkpt><trkpt lat="43.5241514" lon="11.9766974"><ele>642.0</ele><time>2026-04-04T11:36:16.315Z</time></trkpt><trkpt lat="43.5240916" lon="11.9766416"><ele>642.0</ele><time>2026-04-04T11:36:17.314Z</time></trkpt><trkpt lat="43.5240389" lon="11.9765772"><ele>642.0</ele><time>2026-04-04T11:36:18.314Z</time></trkpt><trkpt lat="43.5239591" lon="11.9764616"><ele>642.0</ele><time>2026-04-04T11:36:20.314Z</time></trkpt><trkpt lat="43.5238771" lon="11.9763851"><ele>642.0</ele><time>2026-04-04T11:36:22.314Z</time></trkpt><trkpt lat="43.5237801" lon="11.9763735"><ele>642.0</ele><time>2026-04-04T11:36:24.314Z</time></trkpt><trkpt lat="43.523683" lon="11.9764142"><ele>642.0</ele><time>2026-04-04T11:36:26.314Z</time></trkpt><trkpt lat="43.5235722" lon="11.9764368"><ele>642.0</ele><time>2026-04-04T11:36:28.313Z</time></trkpt><trkpt lat="43.5234563" lon="11.9764102"><ele>642.0</ele><time>2026-04-04T11:36:30.314Z</time></trkpt><trkpt lat="43.5233368" lon="11.9763606"><ele>641.1666666666666</ele><time>2026-04-04T11:36:32.314Z</time></trkpt><trkpt lat="43.5232705" lon="11.9763371"><ele>640.3333333333334</ele><time>2026-04-04T11:36:33.313Z</time></trkpt><trkpt lat="43.5231995" lon="11.9763174"><ele>639.5</ele><time>2026-04-04T11:36:34.314Z</time></trkpt><trkpt lat="43.5230594" lon="11.9762649"><ele>638.6666666666667</ele><time>2026-04-04T11:36:36.314Z</time></trkpt><trkpt lat="43.5229908" lon="11.9762362"><ele>637.8333333333334</ele><time>2026-04-04T11:36:37.314Z</time></trkpt><trkpt lat="43.5229309" lon="11.9761894"><ele>637.0</ele><time>2026-04-04T11:36:38.314Z</time></trkpt><trkpt lat="43.5228436" lon="11.9760754"><ele>635.5</ele><time>2026-04-04T11:36:40.314Z</time></trkpt><trkpt lat="43.5227814" lon="11.9759216"><ele>634.0</ele><time>2026-04-04T11:36:42.314Z</time></trkpt><trkpt lat="43.5227639" lon="11.975833"><ele>632.5</ele><time>2026-04-04T11:36:43.314Z</time></trkpt><trkpt lat="43.5227534" lon="11.9757371"><ele>631.0</ele><time>2026-04-04T11:36:44.313Z</time></trkpt><trkpt lat="43.5227407" lon="11.9756372"><ele>629.5</ele><time>2026-04-04T11:36:45.314Z</time></trkpt><trkpt lat="43.5227252" lon="11.9755368"><ele>628.0</ele><time>2026-04-04T11:36:46.314Z</time></trkpt><trkpt lat="43.522704" lon="11.9754424"><ele>630.9999999999999</ele><time>2026-04-04T11:36:47.314Z</time></trkpt><trkpt lat="43.5226678" lon="11.9753521"><ele>634.0</ele><time>2026-04-04T11:36:48.313Z</time></trkpt><trkpt lat="43.5226308" lon="11.975269"><ele>637.0</ele><time>2026-04-04T11:36:49.314Z</time></trkpt><trkpt lat="43.5225934" lon="11.9751914"><ele>640.0</ele><time>2026-04-04T11:36:50.314Z</time></trkpt><trkpt lat="43.5225439" lon="11.975123"><ele>643.0</ele><time>2026-04-04T11:36:51.313Z</time></trkpt><trkpt lat="43.5224973" lon="11.9750568"><ele>645.9999999999999</ele><time>2026-04-04T11:36:52.314Z</time></trkpt><trkpt lat="43.5224422" lon="11.9749961"><ele>649.0</ele><time>2026-04-04T11:36:53.314Z</time></trkpt><trkpt lat="43.5223834" lon="11.9749416"><ele>650.0</ele><time>2026-04-04T11:36:54.314Z</time></trkpt><trkpt lat="43.5223169" lon="11.9748987"><ele>651.0</ele><time>2026-04-04T11:36:55.314Z</time></trkpt><trkpt lat="43.5222467" lon="11.9748566"><ele>652.0</ele><time>2026-04-04T11:36:56.314Z</time></trkpt><trkpt lat="43.5221742" lon="11.9748123"><ele>653.0</ele><time>2026-04-04T11:36:57.314Z</time></trkpt><trkpt lat="43.5221031" lon="11.974767"><ele>654.0</ele><time>2026-04-04T11:36:58.314Z</time></trkpt><trkpt lat="43.5220301" lon="11.9747281"><ele>655.0</ele><time>2026-04-04T11:36:59.314Z</time></trkpt><trkpt lat="43.5219588" lon="11.974693"><ele>656.5714285714286</ele><time>2026-04-04T11:37:00.315Z</time></trkpt><trkpt lat="43.5218934" lon="11.9746572"><ele>658.1428571428571</ele><time>2026-04-04T11:37:01.314Z</time></trkpt><trkpt lat="43.5218377" lon="11.9746148"><ele>659.7142857142858</ele><time>2026-04-04T11:37:02.314Z</time></trkpt><trkpt lat="43.5217818" lon="11.9745705"><ele>661.2857142857142</ele><time>2026-04-04T11:37:03.314Z</time></trkpt><trkpt lat="43.5217234" lon="11.9745223"><ele>662.8571428571428</ele><time>2026-04-04T11:37:04.314Z</time></trkpt><trkpt lat="43.5216641" lon="11.9744653"><ele>664.4285714285714</ele><time>2026-04-04T11:37:05.314Z</time></trkpt><trkpt lat="43.521613" lon="11.9743983"><ele>666.0</ele><time>2026-04-04T11:37:06.314Z</time></trkpt><trkpt lat="43.5215724" lon="11.9743222"><ele>666.0</ele><time>2026-04-04T11:37:07.314Z</time></trkpt><trkpt lat="43.5215307" lon="11.9742384"><ele>666.0</ele><time>2026-04-04T11:37:08.313Z</time></trkpt><trkpt lat="43.521491" lon="11.9741453"><ele>666.0</ele><time>2026-04-04T11:37:09.314Z</time></trkpt><trkpt lat="43.5214422" lon="11.9740536"><ele>666.0</ele><time>2026-04-04T11:37:10.314Z</time></trkpt><trkpt lat="43.5213878" lon="11.9739613"><ele>666.0</ele><time>2026-04-04T11:37:11.314Z</time></trkpt><trkpt lat="43.5213377" lon="11.973868"><ele>666.0</ele><time>2026-04-04T11:37:12.313Z</time></trkpt><trkpt lat="43.5212916" lon="11.9737713"><ele>666.5</ele><time>2026-04-04T11:37:13.314Z</time></trkpt><trkpt lat="43.5212441" lon="11.9736726"><ele>667.0</ele><time>2026-04-04T11:37:14.315Z</time></trkpt><trkpt lat="43.5211936" lon="11.9735752"><ele>667.5</ele><time>2026-04-04T11:37:15.314Z</time></trkpt><trkpt lat="43.5211326" lon="11.9734797"><ele>668.0</ele><time>2026-04-04T11:37:16.313Z</time></trkpt><trkpt lat="43.5210703" lon="11.9733909"><ele>668.5</ele><time>2026-04-04T11:37:17.314Z</time></trkpt><trkpt lat="43.5210102" lon="11.9733058"><ele>669.0</ele><time>2026-04-04T11:37:18.313Z</time></trkpt><trkpt lat="43.5209574" lon="11.9732092"><ele>672.6</ele><time>2026-04-04T11:37:19.314Z</time></trkpt><trkpt lat="43.5209154" lon="11.9730982"><ele>676.2</ele><time>2026-04-04T11:37:20.314Z</time></trkpt><trkpt lat="43.5208865" lon="11.9729741"><ele>679.8000000000001</ele><time>2026-04-04T11:37:21.314Z</time></trkpt><trkpt lat="43.5208633" lon="11.9728598"><ele>683.4000000000001</ele><time>2026-04-04T11:37:22.314Z</time></trkpt><trkpt lat="43.5208263" lon="11.9727449"><ele>687.0</ele><time>2026-04-04T11:37:23.314Z</time></trkpt><trkpt lat="43.5207794" lon="11.9726415"><ele>687.0</ele><time>2026-04-04T11:37:24.314Z</time></trkpt><trkpt lat="43.5207273" lon="11.9725387"><ele>687.0</ele><time>2026-04-04T11:37:25.314Z</time></trkpt><trkpt lat="43.5206709" lon="11.9724428"><ele>687.0</ele><time>2026-04-04T11:37:26.314Z</time></trkpt><trkpt lat="43.5206173" lon="11.9723547"><ele>687.0</ele><time>2026-04-04T11:37:27.314Z</time></trkpt><trkpt lat="43.5205674" lon="11.9722836"><ele>687.0</ele><time>2026-04-04T11:37:28.314Z</time></trkpt><trkpt lat="43.5204745" lon="11.972168"><ele>689.2</ele><time>2026-04-04T11:37:30.313Z</time></trkpt><trkpt lat="43.5203677" lon="11.9720816"><ele>691.4000000000001</ele><time>2026-04-04T11:37:32.313Z</time></trkpt><trkpt lat="43.520266" lon="11.9720387"><ele>693.5999999999999</ele><time>2026-04-04T11:37:34.314Z</time></trkpt><trkpt lat="43.5201727" lon="11.972004"><ele>695.8</ele><time>2026-04-04T11:37:36.314Z</time></trkpt><trkpt lat="43.5200678" lon="11.9719626"><ele>698.0</ele><time>2026-04-04T11:37:38.314Z</time></trkpt><trkpt lat="43.5199709" lon="11.9718691"><ele>698.0</ele><time>2026-04-04T11:37:40.314Z</time></trkpt><trkpt lat="43.5198894" lon="11.9717443"><ele>698.0</ele><time>2026-04-04T11:37:42.314Z</time></trkpt><trkpt lat="43.5198022" lon="11.9716188"><ele>698.0</ele><time>2026-04-04T11:37:44.314Z</time></trkpt><trkpt lat="43.5197595" lon="11.9715537"><ele>698.0</ele><time>2026-04-04T11:37:45.314Z</time></trkpt><trkpt lat="43.5196851" lon="11.9714488"><ele>698.0</ele><time>2026-04-04T11:37:47.314Z</time></trkpt><trkpt lat="43.5196139" lon="11.9713545"><ele>697.8333333333333</ele><time>2026-04-04T11:37:49.314Z</time></trkpt><trkpt lat="43.519537" lon="11.9712653"><ele>697.6666666666666</ele><time>2026-04-04T11:37:51.314Z</time></trkpt><trkpt lat="43.5194819" lon="11.9711909"><ele>697.5</ele><time>2026-04-04T11:37:53.314Z</time></trkpt><trkpt lat="43.5194294" lon="11.9711417"><ele>697.3333333333334</ele><time>2026-04-04T11:37:56.314Z</time></trkpt><trkpt lat="43.5193565" lon="11.9711286"><ele>697.1666666666667</ele><time>2026-04-04T11:38:00.314Z</time></trkpt><trkpt lat="43.5192709" lon="11.9711834"><ele>697.0</ele><time>2026-04-04T11:38:02.314Z</time></trkpt><trkpt lat="43.5191074" lon="11.9712887"><ele>697.0</ele><time>2026-04-04T11:38:05.314Z</time></trkpt><trkpt lat="43.5190492" lon="11.9713253"><ele>697.0</ele><time>2026-04-04T11:38:06.314Z</time></trkpt><trkpt lat="43.5189911" lon="11.9713629"><ele>697.0</ele><time>2026-04-04T11:38:07.315Z</time></trkpt><trkpt lat="43.5189266" lon="11.9713495"><ele>697.0</ele><time>2026-04-04T11:38:08.314Z</time></trkpt><trkpt lat="43.5188611" lon="11.971337"><ele>697.0</ele><time>2026-04-04T11:38:09.314Z</time></trkpt><trkpt lat="43.5187956" lon="11.9713257"><ele>697.0</ele><time>2026-04-04T11:38:10.315Z</time></trkpt><trkpt lat="43.5187254" lon="11.971316"><ele>697.0</ele><time>2026-04-04T11:38:11.314Z</time></trkpt><trkpt lat="43.5186347" lon="11.9713274"><ele>699.0</ele><time>2026-04-04T11:38:12.314Z</time></trkpt><trkpt lat="43.5185607" lon="11.9713139"><ele>701.0</ele><time>2026-04-04T11:38:13.314Z</time></trkpt><trkpt lat="43.5184922" lon="11.9713058"><ele>703.0</ele><time>2026-04-04T11:38:14.314Z</time></trkpt><trkpt lat="43.5184097" lon="11.9712988"><ele>705.0</ele><time>2026-04-04T11:38:15.314Z</time></trkpt><trkpt lat="43.5183328" lon="11.9712836"><ele>707.0</ele><time>2026-04-04T11:38:16.314Z</time></trkpt><trkpt lat="43.5182563" lon="11.9712806"><ele>709.0</ele><time>2026-04-04T11:38:17.314Z</time></trkpt><trkpt lat="43.518187" lon="11.9712825"><ele>709.0</ele><time>2026-04-04T11:38:18.314Z</time></trkpt><trkpt lat="43.5180735" lon="11.9712659"><ele>709.0</ele><time>2026-04-04T11:38:20.313Z</time></trkpt><trkpt lat="43.517949" lon="11.9712473"><ele>709.0</ele><time>2026-04-04T11:38:22.314Z</time></trkpt><trkpt lat="43.5178777" lon="11.9712547"><ele>709.0</ele><time>2026-04-04T11:38:23.314Z</time></trkpt><trkpt lat="43.5177604" lon="11.9712562"><ele>709.0</ele><time>2026-04-04T11:38:25.315Z</time></trkpt><trkpt lat="43.5176863" lon="11.9712614"><ele>710.0</ele><time>2026-04-04T11:38:26.314Z</time></trkpt><trkpt lat="43.5176091" lon="11.971278"><ele>711.0</ele><time>2026-04-04T11:38:27.313Z</time></trkpt><trkpt lat="43.5175466" lon="11.9713295"><ele>712.0</ele><time>2026-04-04T11:38:28.314Z</time></trkpt><trkpt lat="43.517475" lon="11.9714585"><ele>713.0</ele><time>2026-04-04T11:38:30.314Z</time></trkpt><trkpt lat="43.5173998" lon="11.9715874"><ele>714.0</ele><time>2026-04-04T11:38:32.314Z</time></trkpt><trkpt lat="43.5173673" lon="11.9716645"><ele>715.6</ele><time>2026-04-04T11:38:33.314Z</time></trkpt><trkpt lat="43.5173166" lon="11.9717941"><ele>717.2</ele><time>2026-04-04T11:38:35.314Z</time></trkpt><trkpt lat="43.5172307" lon="11.9718846"><ele>718.8000000000001</ele><time>2026-04-04T11:38:37.313Z</time></trkpt><trkpt lat="43.5171449" lon="11.971891"><ele>720.4000000000001</ele><time>2026-04-04T11:38:39.314Z</time></trkpt><trkpt lat="43.5170855" lon="11.9718605"><ele>722.0</ele><time>2026-04-04T11:38:40.314Z</time></trkpt><trkpt lat="43.516991" lon="11.9717995"><ele>722.0</ele><time>2026-04-04T11:38:42.314Z</time></trkpt><trkpt lat="43.5168977" lon="11.9717309"><ele>722.0</ele><time>2026-04-04T11:38:44.314Z</time></trkpt><trkpt lat="43.516783" lon="11.9716705"><ele>722.0</ele><time>2026-04-04T11:38:46.314Z</time></trkpt><trkpt lat="43.5167227" lon="11.9716366"><ele>722.0</ele><time>2026-04-04T11:38:47.314Z</time></trkpt><trkpt lat="43.5165978" lon="11.9715785"><ele>722.0</ele><time>2026-04-04T11:38:49.314Z</time></trkpt><trkpt lat="43.5164867" lon="11.9715491"><ele>720.5</ele><time>2026-04-04T11:38:51.314Z</time></trkpt><trkpt lat="43.5164202" lon="11.9715257"><ele>719.0</ele><time>2026-04-04T11:38:52.314Z</time></trkpt><trkpt lat="43.5163266" lon="11.97155"><ele>717.5</ele><time>2026-04-04T11:38:54.314Z</time></trkpt><trkpt lat="43.51627" lon="11.9716265"><ele>716.0</ele><time>2026-04-04T11:38:56.314Z</time></trkpt><trkpt lat="43.5162295" lon="11.9717229"><ele>714.5</ele><time>2026-04-04T11:38:57.314Z</time></trkpt><trkpt lat="43.5161469" lon="11.9718504"><ele>713.0</ele><time>2026-04-04T11:38:59.314Z</time></trkpt><trkpt lat="43.516096" lon="11.971993"><ele>712.8</ele><time>2026-04-04T11:39:01.314Z</time></trkpt><trkpt lat="43.5160682" lon="11.9720721"><ele>712.5999999999999</ele><time>2026-04-04T11:39:02.314Z</time></trkpt><trkpt lat="43.5160259" lon="11.972217"><ele>712.4000000000001</ele><time>2026-04-04T11:39:04.314Z</time></trkpt><trkpt lat="43.5159909" lon="11.9723691"><ele>712.2</ele><time>2026-04-04T11:39:06.314Z</time></trkpt><trkpt lat="43.5159926" lon="11.9725152"><ele>712.0</ele><time>2026-04-04T11:39:08.314Z</time></trkpt><trkpt lat="43.5160026" lon="11.9726534"><ele>712.8</ele><time>2026-04-04T11:39:10.313Z</time></trkpt><trkpt lat="43.5160231" lon="11.9727662"><ele>713.6</ele><time>2026-04-04T11:39:12.314Z</time></trkpt><trkpt lat="43.5160431" lon="11.9729062"><ele>714.4</ele><time>2026-04-04T11:39:14.314Z</time></trkpt><trkpt lat="43.5160297" lon="11.9730525"><ele>715.1999999999999</ele><time>2026-04-04T11:39:16.314Z</time></trkpt><trkpt lat="43.5160579" lon="11.9732121"><ele>716.0</ele><time>2026-04-04T11:39:18.314Z</time></trkpt><trkpt lat="43.5160874" lon="11.9732962"><ele>716.0</ele><time>2026-04-04T11:39:19.313Z</time></trkpt><trkpt lat="43.5161094" lon="11.9733862"><ele>716.0</ele><time>2026-04-04T11:39:20.314Z</time></trkpt><trkpt lat="43.516128" lon="11.973482"><ele>716.0</ele><time>2026-04-04T11:39:21.313Z</time></trkpt><trkpt lat="43.5161363" lon="11.9735786"><ele>716.0</ele><time>2026-04-04T11:39:22.314Z</time></trkpt><trkpt lat="43.5161395" lon="11.9736692"><ele>716.0</ele><time>2026-04-04T11:39:23.314Z</time></trkpt><trkpt lat="43.5161192" lon="11.9738023"><ele>716.0</ele><time>2026-04-04T11:39:25.314Z</time></trkpt><trkpt lat="43.5160749" lon="11.9738839"><ele>716.0</ele><time>2026-04-04T11:39:27.314Z</time></trkpt><trkpt lat="43.5160171" lon="11.9739271"><ele>716.0</ele><time>2026-04-04T11:39:29.314Z</time></trkpt><trkpt lat="43.515938" lon="11.9739625"><ele>716.0</ele><time>2026-04-04T11:39:32.314Z</time></trkpt><trkpt lat="43.5158806" lon="11.9740487"><ele>716.0</ele><time>2026-04-04T11:39:36.314Z</time></trkpt><trkpt lat="43.5158804" lon="11.9741387"><ele>716.0</ele><time>2026-04-04T11:39:38.314Z</time></trkpt><trkpt lat="43.5159362" lon="11.9742528"><ele>716.0</ele><time>2026-04-04T11:39:40.313Z</time></trkpt><trkpt lat="43.5159881" lon="11.9743689"><ele>714.5</ele><time>2026-04-04T11:39:42.314Z</time></trkpt><trkpt lat="43.5160467" lon="11.974465"><ele>713.0</ele><time>2026-04-04T11:39:44.313Z</time></trkpt><trkpt lat="43.5161075" lon="11.974531"><ele>711.5</ele><time>2026-04-04T11:39:46.314Z</time></trkpt><trkpt lat="43.5161928" lon="11.9745432"><ele>710.0</ele><time>2026-04-04T11:39:49.314Z</time></trkpt><trkpt lat="43.5162688" lon="11.9745689"><ele>708.5</ele><time>2026-04-04T11:39:51.313Z</time></trkpt><trkpt lat="43.5163461" lon="11.9745893"><ele>707.0</ele><time>2026-04-04T11:39:53.314Z</time></trkpt><trkpt lat="43.5164361" lon="11.97458"><ele>705.5</ele><time>2026-04-04T11:39:55.315Z</time></trkpt><trkpt lat="43.5165327" lon="11.9745641"><ele>704.0</ele><time>2026-04-04T11:39:57.314Z</time></trkpt><trkpt lat="43.516611" lon="11.9745335"><ele>702.5</ele><time>2026-04-04T11:39:59.314Z</time></trkpt><trkpt lat="43.5166732" lon="11.9744982"><ele>701.0</ele><time>2026-04-04T11:40:01.314Z</time></trkpt><trkpt lat="43.516737" lon="11.9744624"><ele>699.5</ele><time>2026-04-04T11:40:02.313Z</time></trkpt><trkpt lat="43.5168416" lon="11.9744012"><ele>698.0</ele><time>2026-04-04T11:40:04.314Z</time></trkpt><trkpt lat="43.5169363" lon="11.9743889"><ele>698.0</ele><time>2026-04-04T11:40:06.313Z</time></trkpt><trkpt lat="43.5170391" lon="11.9744268"><ele>698.0</ele><time>2026-04-04T11:40:08.314Z</time></trkpt><trkpt lat="43.5171302" lon="11.9744856"><ele>698.0</ele><time>2026-04-04T11:40:10.314Z</time></trkpt><trkpt lat="43.5172166" lon="11.9745363"><ele>698.0</ele><time>2026-04-04T11:40:12.314Z</time></trkpt><trkpt lat="43.5173196" lon="11.9745579"><ele>698.0</ele><time>2026-04-04T11:40:14.314Z</time></trkpt><trkpt lat="43.5173993" lon="11.9745595"><ele>698.5</ele><time>2026-04-04T11:40:16.314Z</time></trkpt><trkpt lat="43.5174767" lon="11.9745964"><ele>699.0</ele><time>2026-04-04T11:40:20.315Z</time></trkpt><trkpt lat="43.5175335" lon="11.9746399"><ele>699.5</ele><time>2026-04-04T11:40:22.313Z</time></trkpt><trkpt lat="43.5176019" lon="11.9746795"><ele>700.0</ele><time>2026-04-04T11:40:24.315Z</time></trkpt><trkpt lat="43.5176518" lon="11.9747464"><ele>700.5</ele><time>2026-04-04T11:40:26.314Z</time></trkpt><trkpt lat="43.5176803" lon="11.9748614"><ele>701.0</ele><time>2026-04-04T11:40:28.314Z</time></trkpt><trkpt lat="43.5176848" lon="11.9749653"><ele>701.0</ele><time>2026-04-04T11:40:30.314Z</time></trkpt><trkpt lat="43.5176916" lon="11.9750572"><ele>701.0</ele><time>2026-04-04T11:40:32.314Z</time></trkpt><trkpt lat="43.5177044" lon="11.975144"><ele>701.0</ele><time>2026-04-04T11:40:34.314Z</time></trkpt><trkpt lat="43.5177375" lon="11.9752218"><ele>701.0</ele><time>2026-04-04T11:40:36.314Z</time></trkpt><trkpt lat="43.5177998" lon="11.9753161"><ele>701.0</ele><time>2026-04-04T11:40:39.313Z</time></trkpt><trkpt lat="43.5178568" lon="11.9753905"><ele>701.0</ele><time>2026-04-04T11:40:41.315Z</time></trkpt><trkpt lat="43.5179425" lon="11.9754989"><ele>701.0</ele><time>2026-04-04T11:40:44.314Z</time></trkpt><trkpt lat="43.5179986" lon="11.9755698"><ele>701.0</ele><time>2026-04-04T11:40:46.314Z</time></trkpt><trkpt lat="43.5180602" lon="11.9756487"><ele>701.0</ele><time>2026-04-04T11:40:48.314Z</time></trkpt><trkpt lat="43.5181143" lon="11.9757382"><ele>701.0</ele><time>2026-04-04T11:40:50.313Z</time></trkpt><trkpt lat="43.5181619" lon="11.9758239"><ele>701.0</ele><time>2026-04-04T11:40:52.315Z</time></trkpt><trkpt lat="43.5182153" lon="11.9759129"><ele>701.0</ele><time>2026-04-04T11:40:54.313Z</time></trkpt><trkpt lat="43.5182598" lon="11.9760013"><ele>698.5</ele><time>2026-04-04T11:40:56.314Z</time></trkpt><trkpt lat="43.5183104" lon="11.9760922"><ele>696.0</ele><time>2026-04-04T11:40:58.314Z</time></trkpt><trkpt lat="43.5183579" lon="11.9761846"><ele>693.5</ele><time>2026-04-04T11:41:00.314Z</time></trkpt><trkpt lat="43.5184127" lon="11.9762739"><ele>691.0</ele><time>2026-04-04T11:41:02.314Z</time></trkpt><trkpt lat="43.5184632" lon="11.9763368"><ele>688.5</ele><time>2026-04-04T11:41:04.314Z</time></trkpt><trkpt lat="43.5185038" lon="11.9764068"><ele>686.0</ele><time>2026-04-04T11:41:17.315Z</time></trkpt><trkpt lat="43.5185615" lon="11.9765075"><ele>686.0</ele><time>2026-04-04T11:41:20.314Z</time></trkpt><trkpt lat="43.518614" lon="11.9765887"><ele>686.0</ele><time>2026-04-04T11:41:22.315Z</time></trkpt><trkpt lat="43.5186643" lon="11.9766615"><ele>686.0</ele><time>2026-04-04T11:41:24.314Z</time></trkpt><trkpt lat="43.5187163" lon="11.9767325"><ele>686.0</ele><time>2026-04-04T11:41:26.314Z</time></trkpt><trkpt lat="43.5187678" lon="11.9768217"><ele>686.0</ele><time>2026-04-04T11:41:28.314Z</time></trkpt><trkpt lat="43.518819" lon="11.9769161"><ele>686.0</ele><time>2026-04-04T11:41:30.313Z</time></trkpt><trkpt lat="43.5188663" lon="11.9770008"><ele>686.0</ele><time>2026-04-04T11:41:32.314Z</time></trkpt><trkpt lat="43.5189035" lon="11.9770879"><ele>686.0</ele><time>2026-04-04T11:41:34.314Z</time></trkpt><trkpt lat="43.5189393" lon="11.977177"><ele>686.0</ele><time>2026-04-04T11:41:36.314Z</time></trkpt><trkpt lat="43.5189783" lon="11.9772772"><ele>686.0</ele><time>2026-04-04T11:41:39.314Z</time></trkpt><trkpt lat="43.5189541" lon="11.9773647"><ele>686.0</ele><time>2026-04-04T11:41:44.315Z</time></trkpt><trkpt lat="43.5189134" lon="11.9774417"><ele>686.0</ele><time>2026-04-04T11:42:20.313Z</time></trkpt><trkpt lat="43.5189718" lon="11.9775286"><ele>684.5714285714286</ele><time>2026-04-04T11:42:23.314Z</time></trkpt><trkpt lat="43.5190369" lon="11.9775417"><ele>683.1428571428571</ele><time>2026-04-04T11:42:25.314Z</time></trkpt><trkpt lat="43.5190911" lon="11.9775881"><ele>681.7142857142858</ele><time>2026-04-04T11:42:27.314Z</time></trkpt><trkpt lat="43.519121" lon="11.9776819"><ele>680.2857142857142</ele><time>2026-04-04T11:42:29.314Z</time></trkpt><trkpt lat="43.519145" lon="11.9777774"><ele>678.8571428571429</ele><time>2026-04-04T11:42:31.314Z</time></trkpt><trkpt lat="43.5191536" lon="11.9778737"><ele>677.4285714285714</ele><time>2026-04-04T11:42:33.313Z</time></trkpt><trkpt lat="43.5191638" lon="11.9779641"><ele>676.0</ele><time>2026-04-04T11:42:35.314Z</time></trkpt><trkpt lat="43.5191746" lon="11.9780526"><ele>676.0</ele><time>2026-04-04T11:42:37.314Z</time></trkpt><trkpt lat="43.5192083" lon="11.97816"><ele>676.0</ele><time>2026-04-04T11:42:40.314Z</time></trkpt><trkpt lat="43.5192652" lon="11.9782607"><ele>676.0</ele><time>2026-04-04T11:42:43.314Z</time></trkpt><trkpt lat="43.5192693" lon="11.9783706"><ele>676.0</ele><time>2026-04-04T11:42:45.314Z</time></trkpt><trkpt lat="43.5192649" lon="11.978485"><ele>676.0</ele><time>2026-04-04T11:42:47.313Z</time></trkpt><trkpt lat="43.5192621" lon="11.9786009"><ele>676.0</ele><time>2026-04-04T11:42:49.314Z</time></trkpt><trkpt lat="43.5192517" lon="11.9787171"><ele>674.5</ele><time>2026-04-04T11:42:51.313Z</time></trkpt><trkpt lat="43.5192501" lon="11.9788509"><ele>673.0</ele><time>2026-04-04T11:42:53.315Z</time></trkpt><trkpt lat="43.5192622" lon="11.9789757"><ele>671.5</ele><time>2026-04-04T11:42:55.314Z</time></trkpt><trkpt lat="43.5192784" lon="11.9790635"><ele>670.0</ele><time>2026-04-04T11:42:57.314Z</time></trkpt><trkpt lat="43.5192889" lon="11.9791851"><ele>668.5</ele><time>2026-04-04T11:43:00.314Z</time></trkpt><trkpt lat="43.5192298" lon="11.9792214"><ele>667.0</ele><time>2026-04-04T11:43:03.314Z</time></trkpt><trkpt lat="43.519163" lon="11.9792191"><ele>667.0</ele><time>2026-04-04T11:43:05.313Z</time></trkpt><trkpt lat="43.5190677" lon="11.9792142"><ele>667.0</ele><time>2026-04-04T11:43:07.313Z</time></trkpt><trkpt lat="43.5190011" lon="11.9791686"><ele>667.0</ele><time>2026-04-04T11:43:09.314Z</time></trkpt><trkpt lat="43.5189217" lon="11.9790943"><ele>667.0</ele><time>2026-04-04T11:43:11.315Z</time></trkpt><trkpt lat="43.5188275" lon="11.9790813"><ele>667.0</ele><time>2026-04-04T11:43:13.314Z</time></trkpt><trkpt lat="43.5187504" lon="11.9791345"><ele>667.0</ele><time>2026-04-04T11:43:15.314Z</time></trkpt><trkpt lat="43.5186835" lon="11.9792055"><ele>663.1666666666667</ele><time>2026-04-04T11:43:18.314Z</time></trkpt><trkpt lat="43.5186355" lon="11.9792661"><ele>659.3333333333334</ele><time>2026-04-04T11:43:20.313Z</time></trkpt><trkpt lat="43.5185728" lon="11.979348"><ele>655.5</ele><time>2026-04-04T11:43:23.314Z</time></trkpt><trkpt lat="43.5185056" lon="11.9793527"><ele>651.6666666666666</ele><time>2026-04-04T11:43:25.314Z</time></trkpt><trkpt lat="43.5184177" lon="11.9793726"><ele>647.8333333333333</ele><time>2026-04-04T11:43:28.314Z</time></trkpt><trkpt lat="43.5183426" lon="11.9793831"><ele>644.0</ele><time>2026-04-04T11:43:30.314Z</time></trkpt><trkpt lat="43.5182464" lon="11.9793443"><ele>644.0</ele><time>2026-04-04T11:43:32.314Z</time></trkpt><trkpt lat="43.5181331" lon="11.9793186"><ele>644.0</ele><time>2026-04-04T11:43:34.313Z</time></trkpt><trkpt lat="43.5180112" lon="11.9793309"><ele>644.0</ele><time>2026-04-04T11:43:36.314Z</time></trkpt><trkpt lat="43.5179251" lon="11.9793979"><ele>644.0</ele><time>2026-04-04T11:43:38.314Z</time></trkpt><trkpt lat="43.5178945" lon="11.9794933"><ele>644.0</ele><time>2026-04-04T11:43:40.314Z</time></trkpt><trkpt lat="43.5178691" lon="11.9796042"><ele>639.3333333333333</ele><time>2026-04-04T11:43:42.314Z</time></trkpt><trkpt lat="43.5178342" lon="11.9797195"><ele>634.6666666666666</ele><time>2026-04-04T11:43:44.314Z</time></trkpt><trkpt lat="43.5178179" lon="11.9798277"><ele>630.0</ele><time>2026-04-04T11:43:46.314Z</time></trkpt><trkpt lat="43.5178112" lon="11.9799249"><ele>625.3333333333334</ele><time>2026-04-04T11:43:48.314Z</time></trkpt><trkpt lat="43.5177308" lon="11.9799385"><ele>620.6666666666667</ele><time>2026-04-04T11:43:51.314Z</time></trkpt><trkpt lat="43.5176876" lon="11.9798711"><ele>616.0</ele><time>2026-04-04T11:43:53.314Z</time></trkpt><trkpt lat="43.517648" lon="11.9797355"><ele>616.0</ele><time>2026-04-04T11:43:55.313Z</time></trkpt><trkpt lat="43.5176026" lon="11.9795592"><ele>616.0</ele><time>2026-04-04T11:43:57.314Z</time></trkpt><trkpt lat="43.517581" lon="11.9794655"><ele>616.0</ele><time>2026-04-04T11:43:58.314Z</time></trkpt><trkpt lat="43.5175633" lon="11.979382"><ele>616.0</ele><time>2026-04-04T11:43:59.314Z</time></trkpt><trkpt lat="43.5175304" lon="11.9792293"><ele>616.0</ele><time>2026-04-04T11:44:01.314Z</time></trkpt><trkpt lat="43.5174802" lon="11.979079"><ele>617.6666666666667</ele><time>2026-04-04T11:44:03.313Z</time></trkpt><trkpt lat="43.5174439" lon="11.9789829"><ele>619.3333333333334</ele><time>2026-04-04T11:44:04.314Z</time></trkpt><trkpt lat="43.5173935" lon="11.9788988"><ele>621.0</ele><time>2026-04-04T11:44:05.314Z</time></trkpt><trkpt lat="43.5173435" lon="11.9788166"><ele>622.6666666666666</ele><time>2026-04-04T11:44:06.315Z</time></trkpt><trkpt lat="43.5173177" lon="11.9786572"><ele>624.3333333333333</ele><time>2026-04-04T11:44:08.314Z</time></trkpt><trkpt lat="43.5172937" lon="11.9785605"><ele>626.0</ele><time>2026-04-04T11:44:09.315Z</time></trkpt><trkpt lat="43.5172355" lon="11.9784658"><ele>625.6</ele><time>2026-04-04T11:44:10.314Z</time></trkpt><trkpt lat="43.5172042" lon="11.9783404"><ele>625.2</ele><time>2026-04-04T11:44:12.314Z</time></trkpt><trkpt lat="43.5171767" lon="11.9782395"><ele>624.8</ele><time>2026-04-04T11:44:14.314Z</time></trkpt><trkpt lat="43.5170716" lon="11.9782488"><ele>624.4</ele><time>2026-04-04T11:44:17.314Z</time></trkpt><trkpt lat="43.5169858" lon="11.9781999"><ele>624.0</ele><time>2026-04-04T11:44:19.313Z</time></trkpt><trkpt lat="43.516915" lon="11.9781453"><ele>624.0</ele><time>2026-04-04T11:44:21.314Z</time></trkpt><trkpt lat="43.5168517" lon="11.9781757"><ele>624.0</ele><time>2026-04-04T11:44:23.314Z</time></trkpt><trkpt lat="43.5167843" lon="11.9783251"><ele>624.0</ele><time>2026-04-04T11:44:25.313Z</time></trkpt><trkpt lat="43.5167428" lon="11.9783949"><ele>624.0</ele><time>2026-04-04T11:44:26.314Z</time></trkpt><trkpt lat="43.5166853" lon="11.9784389"><ele>624.0</ele><time>2026-04-04T11:44:27.314Z</time></trkpt><trkpt lat="43.5165924" lon="11.9785294"><ele>624.0</ele><time>2026-04-04T11:44:29.313Z</time></trkpt><trkpt lat="43.5165451" lon="11.9785905"><ele>623.8333333333334</ele><time>2026-04-04T11:44:30.314Z</time></trkpt><trkpt lat="43.5164906" lon="11.9786506"><ele>623.6666666666666</ele><time>2026-04-04T11:44:31.314Z</time></trkpt><trkpt lat="43.5164369" lon="11.9786977"><ele>623.5</ele><time>2026-04-04T11:44:32.314Z</time></trkpt><trkpt lat="43.5163388" lon="11.9786855"><ele>623.3333333333333</ele><time>2026-04-04T11:44:34.315Z</time></trkpt><trkpt lat="43.5162753" lon="11.9786199"><ele>623.1666666666666</ele><time>2026-04-04T11:44:36.313Z</time></trkpt><trkpt lat="43.51621" lon="11.978554"><ele>623.0</ele><time>2026-04-04T11:44:38.313Z</time></trkpt><trkpt lat="43.5161146" lon="11.9785963"><ele>623.0</ele><time>2026-04-04T11:44:40.313Z</time></trkpt><trkpt lat="43.5160795" lon="11.9787433"><ele>623.0</ele><time>2026-04-04T11:44:42.313Z</time></trkpt><trkpt lat="43.5160759" lon="11.9788351"><ele>623.0</ele><time>2026-04-04T11:44:43.314Z</time></trkpt><trkpt lat="43.5160725" lon="11.9789295"><ele>623.0</ele><time>2026-04-04T11:44:44.314Z</time></trkpt><trkpt lat="43.5160657" lon="11.9790887"><ele>623.0</ele><time>2026-04-04T11:44:46.314Z</time></trkpt><trkpt lat="43.5160535" lon="11.9792433"><ele>620.3333333333333</ele><time>2026-04-04T11:44:48.314Z</time></trkpt><trkpt lat="43.5160442" lon="11.9793481"><ele>617.6666666666666</ele><time>2026-04-04T11:44:49.313Z</time></trkpt><trkpt lat="43.5160257" lon="11.9794477"><ele>615.0</ele><time>2026-04-04T11:44:50.314Z</time></trkpt><trkpt lat="43.5160065" lon="11.979568"><ele>612.3333333333334</ele><time>2026-04-04T11:44:51.314Z</time></trkpt><trkpt lat="43.5159722" lon="11.9796528"><ele>609.6666666666667</ele><time>2026-04-04T11:44:52.314Z</time></trkpt><trkpt lat="43.5159358" lon="11.9797376"><ele>607.0</ele><time>2026-04-04T11:44:53.313Z</time></trkpt><trkpt lat="43.5158897" lon="11.9798066"><ele>607.0</ele><time>2026-04-04T11:44:54.314Z</time></trkpt><trkpt lat="43.5158247" lon="11.9799475"><ele>607.0</ele><time>2026-04-04T11:44:56.314Z</time></trkpt><trkpt lat="43.5157943" lon="11.9800296"><ele>607.0</ele><time>2026-04-04T11:44:57.314Z</time></trkpt><trkpt lat="43.5157368" lon="11.9802005"><ele>607.0</ele><time>2026-04-04T11:44:59.315Z</time></trkpt><trkpt lat="43.5157001" lon="11.980293"><ele>607.0</ele><time>2026-04-04T11:45:00.314Z</time></trkpt><trkpt lat="43.5156618" lon="11.9803647"><ele>606.8333333333334</ele><time>2026-04-04T11:45:01.314Z</time></trkpt><trkpt lat="43.5156175" lon="11.9804364"><ele>606.6666666666667</ele><time>2026-04-04T11:45:02.314Z</time></trkpt><trkpt lat="43.5155668" lon="11.9805141"><ele>606.5</ele><time>2026-04-04T11:45:03.314Z</time></trkpt><trkpt lat="43.5155215" lon="11.9805963"><ele>606.3333333333334</ele><time>2026-04-04T11:45:04.314Z</time></trkpt><trkpt lat="43.5154734" lon="11.980679"><ele>606.1666666666666</ele><time>2026-04-04T11:45:05.314Z</time></trkpt><trkpt lat="43.5154237" lon="11.9807574"><ele>606.0</ele><time>2026-04-04T11:45:06.314Z</time></trkpt><trkpt lat="43.5153647" lon="11.9808296"><ele>603.2</ele><time>2026-04-04T11:45:07.314Z</time></trkpt><trkpt lat="43.5153059" lon="11.9808934"><ele>600.4000000000001</ele><time>2026-04-04T11:45:08.314Z</time></trkpt><trkpt lat="43.515211" lon="11.9809879"><ele>597.6</ele><time>2026-04-04T11:45:10.313Z</time></trkpt><trkpt lat="43.5151529" lon="11.9811199"><ele>594.8000000000001</ele><time>2026-04-04T11:45:12.314Z</time></trkpt><trkpt lat="43.5150666" lon="11.9812008"><ele>592.0</ele><time>2026-04-04T11:45:14.313Z</time></trkpt><trkpt lat="43.5149694" lon="11.981251"><ele>592.0</ele><time>2026-04-04T11:45:16.314Z</time></trkpt><trkpt lat="43.5148731" lon="11.9813629"><ele>592.0</ele><time>2026-04-04T11:45:18.314Z</time></trkpt><trkpt lat="43.5148112" lon="11.9814428"><ele>592.0</ele><time>2026-04-04T11:45:19.314Z</time></trkpt><trkpt lat="43.5147233" lon="11.9815435"><ele>592.0</ele><time>2026-04-04T11:45:21.315Z</time></trkpt><trkpt lat="43.5146724" lon="11.9816003"><ele>592.0</ele><time>2026-04-04T11:45:22.314Z</time></trkpt><trkpt lat="43.514573" lon="11.9816161"><ele>592.8333333333334</ele><time>2026-04-04T11:45:24.314Z</time></trkpt><trkpt lat="43.5145061" lon="11.9816374"><ele>593.6666666666667</ele><time>2026-04-04T11:47:30.314Z</time></trkpt><trkpt lat="43.5144093" lon="11.9816614"><ele>594.5</ele><time>2026-04-04T11:47:32.314Z</time></trkpt><trkpt lat="43.5142882" lon="11.9816289"><ele>595.3333333333334</ele><time>2026-04-04T11:47:34.314Z</time></trkpt><trkpt lat="43.514227" lon="11.9816025"><ele>596.1666666666666</ele><time>2026-04-04T11:47:35.314Z</time></trkpt><trkpt lat="43.5141624" lon="11.9815946"><ele>597.0</ele><time>2026-04-04T11:47:36.314Z</time></trkpt><trkpt lat="43.5140941" lon="11.9816086"><ele>597.0</ele><time>2026-04-04T11:47:37.313Z</time></trkpt><trkpt lat="43.514012" lon="11.9816161"><ele>597.0</ele><time>2026-04-04T11:47:38.314Z</time></trkpt><trkpt lat="43.5139352" lon="11.9816292"><ele>597.0</ele><time>2026-04-04T11:47:39.314Z</time></trkpt><trkpt lat="43.5138604" lon="11.9816424"><ele>597.0</ele><time>2026-04-04T11:47:40.314Z</time></trkpt><trkpt lat="43.513789" lon="11.9816816"><ele>597.0</ele><time>2026-04-04T11:47:41.314Z</time></trkpt><trkpt lat="43.5137175" lon="11.9817245"><ele>597.0</ele><time>2026-04-04T11:47:42.313Z</time></trkpt><trkpt lat="43.5136313" lon="11.9817745"><ele>594.6</ele><time>2026-04-04T11:47:43.315Z</time></trkpt><trkpt lat="43.5135476" lon="11.9817289"><ele>592.2</ele><time>2026-04-04T11:47:44.314Z</time></trkpt><trkpt lat="43.5134326" lon="11.981683"><ele>589.8</ele><time>2026-04-04T11:47:45.314Z</time></trkpt><trkpt lat="43.5133313" lon="11.9816472"><ele>587.4</ele><time>2026-04-04T11:47:46.314Z</time></trkpt><trkpt lat="43.5132759" lon="11.9815172"><ele>585.0</ele><time>2026-04-04T11:47:48.314Z</time></trkpt><trkpt lat="43.5132061" lon="11.9814249"><ele>585.0</ele><time>2026-04-04T11:47:50.313Z</time></trkpt><trkpt lat="43.5131405" lon="11.9813244"><ele>585.0</ele><time>2026-04-04T11:47:52.314Z</time></trkpt><trkpt lat="43.5130728" lon="11.9811886"><ele>585.0</ele><time>2026-04-04T11:47:54.314Z</time></trkpt><trkpt lat="43.5130202" lon="11.9810492"><ele>585.0</ele><time>2026-04-04T11:47:56.314Z</time></trkpt><trkpt lat="43.5129487" lon="11.9809177"><ele>586.6666666666666</ele><time>2026-04-04T11:47:58.314Z</time></trkpt><trkpt lat="43.5128866" lon="11.9808049"><ele>588.3333333333334</ele><time>2026-04-04T11:48:00.314Z</time></trkpt><trkpt lat="43.5127987" lon="11.980688"><ele>590.0</ele><time>2026-04-04T11:48:02.315Z</time></trkpt><trkpt lat="43.5127314" lon="11.9806062"><ele>591.6666666666667</ele><time>2026-04-04T11:48:05.313Z</time></trkpt><trkpt lat="43.5126732" lon="11.9805683"><ele>593.3333333333334</ele><time>2026-04-04T11:48:06.313Z</time></trkpt><trkpt lat="43.5126077" lon="11.9805367"><ele>595.0</ele><time>2026-04-04T11:48:08.314Z</time></trkpt><trkpt lat="43.5125479" lon="11.9806405"><ele>595.0</ele><time>2026-04-04T11:48:11.314Z</time></trkpt><trkpt lat="43.5125072" lon="11.9807708"><ele>595.0</ele><time>2026-04-04T11:48:13.314Z</time></trkpt><trkpt lat="43.5124386" lon="11.9808399"><ele>595.0</ele><time>2026-04-04T11:48:14.313Z</time></trkpt><trkpt lat="43.5124051" lon="11.9809171"><ele>595.0</ele><time>2026-04-04T11:48:15.314Z</time></trkpt><trkpt lat="43.5123444" lon="11.9810774"><ele>595.0</ele><time>2026-04-04T11:48:17.314Z</time></trkpt><trkpt lat="43.5123116" lon="11.9811755"><ele>591.5</ele><time>2026-04-04T11:48:18.313Z</time></trkpt><trkpt lat="43.5122827" lon="11.9812653"><ele>588.0</ele><time>2026-04-04T11:48:19.314Z</time></trkpt><trkpt lat="43.5122437" lon="11.9813665"><ele>584.5</ele><time>2026-04-04T11:48:20.314Z</time></trkpt><trkpt lat="43.5122083" lon="11.9814591"><ele>581.0</ele><time>2026-04-04T11:48:21.314Z</time></trkpt><trkpt lat="43.5121702" lon="11.9815514"><ele>577.5</ele><time>2026-04-04T11:48:22.313Z</time></trkpt><trkpt lat="43.5121216" lon="11.9816411"><ele>574.0</ele><time>2026-04-04T11:48:24.313Z</time></trkpt><trkpt lat="43.5120509" lon="11.9817255"><ele>575.0</ele><time>2026-04-04T11:48:27.314Z</time></trkpt><trkpt lat="43.5119677" lon="11.9817352"><ele>576.0</ele><time>2026-04-04T11:48:30.314Z</time></trkpt><trkpt lat="43.5118706" lon="11.9816864"><ele>577.0</ele><time>2026-04-04T11:49:06.314Z</time></trkpt><trkpt lat="43.5117667" lon="11.9816583"><ele>578.0</ele><time>2026-04-04T11:49:08.315Z</time></trkpt><trkpt lat="43.5116454" lon="11.9815917"><ele>579.0</ele><time>2026-04-04T11:49:10.314Z</time></trkpt><trkpt lat="43.5115875" lon="11.9815392"><ele>579.0</ele><time>2026-04-04T11:49:11.314Z</time></trkpt><trkpt lat="43.5115309" lon="11.9814846"><ele>579.0</ele><time>2026-04-04T11:49:12.313Z</time></trkpt><trkpt lat="43.5114731" lon="11.9814365"><ele>579.0</ele><time>2026-04-04T11:49:13.314Z</time></trkpt><trkpt lat="43.5113739" lon="11.9813478"><ele>579.0</ele><time>2026-04-04T11:49:15.314Z</time></trkpt><trkpt lat="43.5112827" lon="11.9812902"><ele>579.0</ele><time>2026-04-04T11:49:17.314Z</time></trkpt><trkpt lat="43.5112105" lon="11.981257"><ele>579.0</ele><time>2026-04-04T11:49:19.314Z</time></trkpt><trkpt lat="43.5111219" lon="11.9812279"><ele>581.6666666666666</ele><time>2026-04-04T11:49:21.314Z</time></trkpt><trkpt lat="43.511049" lon="11.9812086"><ele>584.3333333333334</ele><time>2026-04-04T11:49:23.314Z</time></trkpt><trkpt lat="43.5109829" lon="11.9812184"><ele>587.0</ele><time>2026-04-04T11:49:25.314Z</time></trkpt><trkpt lat="43.5109179" lon="11.9812578"><ele>589.6666666666667</ele><time>2026-04-04T11:49:27.314Z</time></trkpt><trkpt lat="43.5108779" lon="11.9813635"><ele>592.3333333333334</ele><time>2026-04-04T11:49:29.314Z</time></trkpt><trkpt lat="43.5109223" lon="11.9814376"><ele>595.0</ele><time>2026-04-04T11:49:31.313Z</time></trkpt><trkpt lat="43.5109914" lon="11.9815183"><ele>595.0</ele><time>2026-04-04T11:49:33.314Z</time></trkpt><trkpt lat="43.5110406" lon="11.9815922"><ele>595.0</ele><time>2026-04-04T11:49:35.314Z</time></trkpt><trkpt lat="43.5110759" lon="11.9816718"><ele>595.0</ele><time>2026-04-04T11:49:37.314Z</time></trkpt><trkpt lat="43.5110949" lon="11.9817603"><ele>595.0</ele><time>2026-04-04T11:49:39.315Z</time></trkpt><trkpt lat="43.5111256" lon="11.9818707"><ele>595.0</ele><time>2026-04-04T11:49:41.314Z</time></trkpt><trkpt lat="43.5111586" lon="11.9819733"><ele>595.0</ele><time>2026-04-04T11:49:43.314Z</time></trkpt><trkpt lat="43.5111912" lon="11.9820604"><ele>595.0</ele><time>2026-04-04T11:49:45.314Z</time></trkpt><trkpt lat="43.511262" lon="11.982219"><ele>591.6666666666667</ele><time>2026-04-04T11:49:47.314Z</time></trkpt><trkpt lat="43.511313" lon="11.9823755"><ele>588.3333333333334</ele><time>2026-04-04T11:49:49.314Z</time></trkpt><trkpt lat="43.5113513" lon="11.9824604"><ele>585.0</ele><time>2026-04-04T11:49:50.314Z</time></trkpt><trkpt lat="43.5113809" lon="11.982544"><ele>581.6666666666666</ele><time>2026-04-04T11:49:51.314Z</time></trkpt><trkpt lat="43.5114188" lon="11.9826247"><ele>578.3333333333333</ele><time>2026-04-04T11:49:52.314Z</time></trkpt><trkpt lat="43.511458" lon="11.9826986"><ele>575.0</ele><time>2026-04-04T11:49:53.314Z</time></trkpt><trkpt lat="43.5115063" lon="11.9827797"><ele>575.0</ele><time>2026-04-04T11:49:54.314Z</time></trkpt><trkpt lat="43.5115857" lon="11.9828888"><ele>575.0</ele><time>2026-04-04T11:49:56.314Z</time></trkpt><trkpt lat="43.5116564" lon="11.983005"><ele>575.0</ele><time>2026-04-04T11:49:58.314Z</time></trkpt><trkpt lat="43.5117014" lon="11.9831329"><ele>575.0</ele><time>2026-04-04T11:50:00.314Z</time></trkpt><trkpt lat="43.5117369" lon="11.98327"><ele>575.0</ele><time>2026-04-04T11:50:02.314Z</time></trkpt><trkpt lat="43.5117663" lon="11.9834253"><ele>576.2</ele><time>2026-04-04T11:50:04.313Z</time></trkpt><trkpt lat="43.5117856" lon="11.9835576"><ele>577.4</ele><time>2026-04-04T11:50:06.315Z</time></trkpt><trkpt lat="43.5118093" lon="11.9836968"><ele>578.6</ele><time>2026-04-04T11:50:08.314Z</time></trkpt><trkpt lat="43.5118349" lon="11.9838274"><ele>579.8</ele><time>2026-04-04T11:50:10.314Z</time></trkpt><trkpt lat="43.5118803" lon="11.9839603"><ele>581.0</ele><time>2026-04-04T11:50:12.314Z</time></trkpt><trkpt lat="43.5119223" lon="11.9840285"><ele>581.0</ele><time>2026-04-04T11:50:13.314Z</time></trkpt><trkpt lat="43.5119704" lon="11.9841002"><ele>581.0</ele><time>2026-04-04T11:50:14.314Z</time></trkpt><trkpt lat="43.5120182" lon="11.9841644"><ele>581.0</ele><time>2026-04-04T11:50:15.314Z</time></trkpt><trkpt lat="43.5120691" lon="11.9842361"><ele>581.0</ele><time>2026-04-04T11:50:16.314Z</time></trkpt><trkpt lat="43.5121114" lon="11.9843063"><ele>581.0</ele><time>2026-04-04T11:50:17.313Z</time></trkpt><trkpt lat="43.5121448" lon="11.9844538"><ele>581.0</ele><time>2026-04-04T11:50:19.314Z</time></trkpt><trkpt lat="43.5121097" lon="11.9845995"><ele>581.2</ele><time>2026-04-04T11:50:21.314Z</time></trkpt><trkpt lat="43.5120406" lon="11.9847"><ele>581.4000000000001</ele><time>2026-04-04T11:50:23.314Z</time></trkpt><trkpt lat="43.5119738" lon="11.9848027"><ele>581.6</ele><time>2026-04-04T11:50:25.315Z</time></trkpt><trkpt lat="43.5119124" lon="11.9849552"><ele>581.8000000000001</ele><time>2026-04-04T11:50:27.314Z</time></trkpt><trkpt lat="43.5118836" lon="11.985047"><ele>582.0</ele><time>2026-04-04T11:50:28.314Z</time></trkpt><trkpt lat="43.5118583" lon="11.9851357"><ele>580.1666666666666</ele><time>2026-04-04T11:50:29.314Z</time></trkpt><trkpt lat="43.5118595" lon="11.9852497"><ele>578.3333333333334</ele><time>2026-04-04T11:50:30.314Z</time></trkpt><trkpt lat="43.5118372" lon="11.9853352"><ele>576.5</ele><time>2026-04-04T11:50:31.314Z</time></trkpt><trkpt lat="43.5118157" lon="11.9854258"><ele>574.6666666666667</ele><time>2026-04-04T11:50:32.314Z</time></trkpt><trkpt lat="43.5117827" lon="11.9855355"><ele>572.8333333333334</ele><time>2026-04-04T11:50:33.314Z</time></trkpt><trkpt lat="43.5117523" lon="11.9857115"><ele>571.0</ele><time>2026-04-04T11:50:35.314Z</time></trkpt><trkpt lat="43.5116781" lon="11.9858537"><ele>566.6</ele><time>2026-04-04T11:50:37.314Z</time></trkpt><trkpt lat="43.5115805" lon="11.9859382"><ele>562.2</ele><time>2026-04-04T11:50:39.314Z</time></trkpt><trkpt lat="43.5115234" lon="11.9860085"><ele>557.8</ele><time>2026-04-04T11:50:41.314Z</time></trkpt><trkpt lat="43.5114874" lon="11.9861276"><ele>553.4</ele><time>2026-04-04T11:50:43.314Z</time></trkpt><trkpt lat="43.5114231" lon="11.9862621"><ele>549.0</ele><time>2026-04-04T11:50:45.314Z</time></trkpt><trkpt lat="43.5113587" lon="11.9863538"><ele>549.0</ele><time>2026-04-04T11:50:47.314Z</time></trkpt><trkpt lat="43.5112677" lon="11.9864313"><ele>549.0</ele><time>2026-04-04T11:50:49.313Z</time></trkpt><trkpt lat="43.5111657" lon="11.9864507"><ele>549.0</ele><time>2026-04-04T11:50:51.314Z</time></trkpt><trkpt lat="43.5110643" lon="11.9864269"><ele>549.0</ele><time>2026-04-04T11:50:53.313Z</time></trkpt><trkpt lat="43.5109812" lon="11.9863697"><ele>549.0</ele><time>2026-04-04T11:50:55.314Z</time></trkpt><trkpt lat="43.5108755" lon="11.9863233"><ele>551.4</ele><time>2026-04-04T11:50:57.313Z</time></trkpt><trkpt lat="43.5108004" lon="11.9863384"><ele>553.8</ele><time>2026-04-04T11:50:58.313Z</time></trkpt><trkpt lat="43.5107062" lon="11.9863627"><ele>556.2</ele><time>2026-04-04T11:51:00.313Z</time></trkpt><trkpt lat="43.510621" lon="11.9863859"><ele>558.6</ele><time>2026-04-04T11:51:02.313Z</time></trkpt><trkpt lat="43.5105095" lon="11.9863851"><ele>561.0</ele><time>2026-04-04T11:51:04.313Z</time></trkpt><trkpt lat="43.5104152" lon="11.9863858"><ele>560.2</ele><time>2026-04-04T11:51:06.313Z</time></trkpt><trkpt lat="43.5103049" lon="11.9863867"><ele>559.4000000000001</ele><time>2026-04-04T11:51:08.313Z</time></trkpt><trkpt lat="43.5101994" lon="11.9863888"><ele>558.6</ele><time>2026-04-04T11:51:10.313Z</time></trkpt><trkpt lat="43.5101336" lon="11.9863929"><ele>557.8000000000001</ele><time>2026-04-04T11:51:11.313Z</time></trkpt><trkpt lat="43.510024" lon="11.986396"><ele>557.0</ele><time>2026-04-04T11:51:13.313Z</time></trkpt><trkpt lat="43.5099521" lon="11.9863859"><ele>557.0</ele><time>2026-04-04T11:51:14.313Z</time></trkpt><trkpt lat="43.5098791" lon="11.986366"><ele>557.0</ele><time>2026-04-04T11:51:15.313Z</time></trkpt><trkpt lat="43.5098116" lon="11.9863341"><ele>557.0</ele><time>2026-04-04T11:51:16.313Z</time></trkpt><trkpt lat="43.5096947" lon="11.9862703"><ele>557.0</ele><time>2026-04-04T11:51:18.312Z</time></trkpt><trkpt lat="43.5096267" lon="11.9862492"><ele>557.0</ele><time>2026-04-04T11:51:19.313Z</time></trkpt><trkpt lat="43.509512" lon="11.9861989"><ele>556.8000000000001</ele><time>2026-04-04T11:51:21.313Z</time></trkpt><trkpt lat="43.5094342" lon="11.9861815"><ele>556.6</ele><time>2026-04-04T11:51:22.313Z</time></trkpt><trkpt lat="43.5092987" lon="11.9861314"><ele>556.4000000000001</ele><time>2026-04-04T11:51:24.314Z</time></trkpt><trkpt lat="43.5092319" lon="11.9860951"><ele>556.2</ele><time>2026-04-04T11:51:25.313Z</time></trkpt><trkpt lat="43.5090889" lon="11.9860346"><ele>556.0</ele><time>2026-04-04T11:51:27.313Z</time></trkpt><trkpt lat="43.5090318" lon="11.9859868"><ele>556.0</ele><time>2026-04-04T11:51:28.312Z</time></trkpt><trkpt lat="43.5089342" lon="11.9859209"><ele>556.0</ele><time>2026-04-04T11:51:30.313Z</time></trkpt><trkpt lat="43.5088334" lon="11.985844"><ele>556.0</ele><time>2026-04-04T11:51:32.313Z</time></trkpt><trkpt lat="43.5087574" lon="11.9857734"><ele>556.0</ele><time>2026-04-04T11:51:34.313Z</time></trkpt><trkpt lat="43.5086865" lon="11.9857221"><ele>556.0</ele><time>2026-04-04T11:51:36.313Z</time></trkpt><trkpt lat="43.5085948" lon="11.985787"><ele>563.6</ele><time>2026-04-04T11:51:39.313Z</time></trkpt><trkpt lat="43.5086052" lon="11.985899"><ele>571.2</ele><time>2026-04-04T11:51:41.313Z</time></trkpt><trkpt lat="43.5086121" lon="11.9860601"><ele>578.8</ele><time>2026-04-04T11:51:43.312Z</time></trkpt><trkpt lat="43.5086134" lon="11.9862389"><ele>586.4</ele><time>2026-04-04T11:51:45.313Z</time></trkpt><trkpt lat="43.5086091" lon="11.9863452"><ele>594.0</ele><time>2026-04-04T11:51:46.313Z</time></trkpt><trkpt lat="43.508615" lon="11.986453"><ele>594.0</ele><time>2026-04-04T11:51:47.313Z</time></trkpt><trkpt lat="43.5086462" lon="11.9865558"><ele>594.0</ele><time>2026-04-04T11:51:48.313Z</time></trkpt><trkpt lat="43.5086818" lon="11.9866462"><ele>594.0</ele><time>2026-04-04T11:51:49.313Z</time></trkpt><trkpt lat="43.5087066" lon="11.9867325"><ele>594.0</ele><time>2026-04-04T11:51:50.313Z</time></trkpt><trkpt lat="43.5087253" lon="11.9868308"><ele>594.0</ele><time>2026-04-04T11:51:51.313Z</time></trkpt><trkpt lat="43.5087481" lon="11.9869431"><ele>594.0</ele><time>2026-04-04T11:51:52.312Z</time></trkpt><trkpt lat="43.5087673" lon="11.9870453"><ele>591.6</ele><time>2026-04-04T11:51:53.313Z</time></trkpt><trkpt lat="43.5087706" lon="11.9871352"><ele>589.2</ele><time>2026-04-04T11:51:54.314Z</time></trkpt><trkpt lat="43.5087707" lon="11.9873151"><ele>586.8000000000001</ele><time>2026-04-04T11:51:56.312Z</time></trkpt><trkpt lat="43.5088011" lon="11.9874619"><ele>584.4</ele><time>2026-04-04T11:51:58.313Z</time></trkpt><trkpt lat="43.5088276" lon="11.9875601"><ele>582.0</ele><time>2026-04-04T11:51:59.313Z</time></trkpt><trkpt lat="43.5088757" lon="11.9876502"><ele>582.0</ele><time>2026-04-04T11:52:01.313Z</time></trkpt><trkpt lat="43.5088991" lon="11.9877449"><ele>582.0</ele><time>2026-04-04T11:52:03.313Z</time></trkpt><trkpt lat="43.5089539" lon="11.9878869"><ele>582.0</ele><time>2026-04-04T11:52:05.313Z</time></trkpt><trkpt lat="43.50901" lon="11.9880355"><ele>582.0</ele><time>2026-04-04T11:52:07.312Z</time></trkpt><trkpt lat="43.5090036" lon="11.9881549"><ele>582.0</ele><time>2026-04-04T11:52:09.313Z</time></trkpt><trkpt lat="43.5090383" lon="11.988346"><ele>583.0</ele><time>2026-04-04T11:52:11.313Z</time></trkpt><trkpt lat="43.5090635" lon="11.9884453"><ele>584.0</ele><time>2026-04-04T11:52:12.313Z</time></trkpt><trkpt lat="43.5091312" lon="11.9885984"><ele>585.0</ele><time>2026-04-04T11:52:14.312Z</time></trkpt><trkpt lat="43.5091656" lon="11.9886821"><ele>586.0</ele><time>2026-04-04T11:52:15.313Z</time></trkpt><trkpt lat="43.5092214" lon="11.9888197"><ele>587.0</ele><time>2026-04-04T11:52:17.313Z</time></trkpt><trkpt lat="43.5092558" lon="11.9889154"><ele>587.0</ele><time>2026-04-04T11:52:19.313Z</time></trkpt><trkpt lat="43.5092923" lon="11.9890088"><ele>587.0</ele><time>2026-04-04T11:52:22.313Z</time></trkpt><trkpt lat="43.5093048" lon="11.9890954"><ele>587.0</ele><time>2026-04-04T11:53:10.314Z</time></trkpt><trkpt lat="43.5093157" lon="11.9889996"><ele>587.0</ele><time>2026-04-04T11:53:41.313Z</time></trkpt><trkpt lat="43.5092784" lon="11.9888875"><ele>587.0</ele><time>2026-04-04T11:53:43.314Z</time></trkpt><trkpt lat="43.509233" lon="11.9887485"><ele>587.0</ele><time>2026-04-04T11:53:45.314Z</time></trkpt><trkpt lat="43.509183" lon="11.9886089"><ele>587.0</ele><time>2026-04-04T11:53:47.313Z</time></trkpt><trkpt lat="43.5091386" lon="11.9885329"><ele>587.0</ele><time>2026-04-04T11:53:48.313Z</time></trkpt><trkpt lat="43.5090962" lon="11.9884661"><ele>587.0</ele><time>2026-04-04T11:53:50.313Z</time></trkpt><trkpt lat="43.5090963" lon="11.9883732"><ele>587.0</ele><time>2026-04-04T11:53:51.313Z</time></trkpt><trkpt lat="43.5090948" lon="11.9882028"><ele>587.0</ele><time>2026-04-04T11:53:53.312Z</time></trkpt><trkpt lat="43.5090896" lon="11.9880691"><ele>587.0</ele><time>2026-04-04T11:53:55.313Z</time></trkpt><trkpt lat="43.5090707" lon="11.9879595"><ele>586.0</ele><time>2026-04-04T11:53:57.314Z</time></trkpt><trkpt lat="43.5089811" lon="11.9878064"><ele>585.0</ele><time>2026-04-04T11:53:59.313Z</time></trkpt><trkpt lat="43.5089548" lon="11.9876672"><ele>584.0</ele><time>2026-04-04T11:54:01.314Z</time></trkpt><trkpt lat="43.5089128" lon="11.9875128"><ele>583.0</ele><time>2026-04-04T11:54:03.313Z</time></trkpt><trkpt lat="43.5088513" lon="11.9874727"><ele>582.0</ele><time>2026-04-04T11:54:04.314Z</time></trkpt><trkpt lat="43.5087945" lon="11.9873818"><ele>579.0</ele><time>2026-04-04T11:54:05.314Z</time></trkpt><trkpt lat="43.50876" lon="11.987249"><ele>576.0</ele><time>2026-04-04T11:54:07.314Z</time></trkpt><trkpt lat="43.508768" lon="11.9871435"><ele>573.0</ele><time>2026-04-04T11:54:09.312Z</time></trkpt><trkpt lat="43.5087836" lon="11.987027"><ele>570.0</ele><time>2026-04-04T11:54:11.312Z</time></trkpt><trkpt lat="43.5087738" lon="11.9868643"><ele>567.0</ele><time>2026-04-04T11:54:13.313Z</time></trkpt><trkpt lat="43.5087489" lon="11.9867844"><ele>564.0</ele><time>2026-04-04T11:54:14.313Z</time></trkpt><trkpt lat="43.5087063" lon="11.9866916"><ele>570.0</ele><time>2026-04-04T11:54:17.314Z</time></trkpt><trkpt lat="43.5086458" lon="11.9865799"><ele>576.0</ele><time>2026-04-04T11:54:19.313Z</time></trkpt><trkpt lat="43.5086099" lon="11.986428"><ele>582.0</ele><time>2026-04-04T11:54:23.313Z</time></trkpt><trkpt lat="43.5085952" lon="11.9863173"><ele>588.0</ele><time>2026-04-04T11:54:25.313Z</time></trkpt><trkpt lat="43.5085721" lon="11.9862054"><ele>594.0</ele><time>2026-04-04T11:54:27.313Z</time></trkpt><trkpt lat="43.5086547" lon="11.9860535"><ele>594.0</ele><time>2026-04-04T11:54:28.313Z</time></trkpt><trkpt lat="43.5086389" lon="11.985899"><ele>594.0</ele><time>2026-04-04T11:54:29.313Z</time></trkpt><trkpt lat="43.5086234" lon="11.9857932"><ele>594.0</ele><time>2026-04-04T11:54:31.313Z</time></trkpt><trkpt lat="43.5086419" lon="11.9856173"><ele>594.0</ele><time>2026-04-04T11:54:33.314Z</time></trkpt><trkpt lat="43.5087346" lon="11.9856871"><ele>594.0</ele><time>2026-04-04T11:54:35.313Z</time></trkpt><trkpt lat="43.5088112" lon="11.9857892"><ele>591.2</ele><time>2026-04-04T11:54:37.313Z</time></trkpt><trkpt lat="43.5088791" lon="11.9858345"><ele>588.4</ele><time>2026-04-04T11:54:39.312Z</time></trkpt><trkpt lat="43.5089576" lon="11.9859141"><ele>585.6</ele><time>2026-04-04T11:54:41.313Z</time></trkpt><trkpt lat="43.5090468" lon="11.9859849"><ele>582.8</ele><time>2026-04-04T11:54:43.313Z</time></trkpt><trkpt lat="43.5091513" lon="11.9860476"><ele>580.0</ele><time>2026-04-04T11:54:45.313Z</time></trkpt><trkpt lat="43.5092619" lon="11.9861221"><ele>574.25</ele><time>2026-04-04T11:54:47.313Z</time></trkpt><trkpt lat="43.5093791" lon="11.98618"><ele>568.5</ele><time>2026-04-04T11:54:49.313Z</time></trkpt><trkpt lat="43.5094887" lon="11.9862194"><ele>562.75</ele><time>2026-04-04T11:54:51.313Z</time></trkpt><trkpt lat="43.5096014" lon="11.9862375"><ele>557.0</ele><time>2026-04-04T11:54:53.312Z</time></trkpt><trkpt lat="43.509731" lon="11.9862811"><ele>557.0</ele><time>2026-04-04T11:54:55.314Z</time></trkpt><trkpt lat="43.5097905" lon="11.9863123"><ele>557.0</ele><time>2026-04-04T11:54:56.313Z</time></trkpt><trkpt lat="43.5098968" lon="11.9863729"><ele>557.0</ele><time>2026-04-04T11:54:58.313Z</time></trkpt><trkpt lat="43.5100143" lon="11.9864008"><ele>557.0</ele><time>2026-04-04T11:55:00.313Z</time></trkpt><trkpt lat="43.5101337" lon="11.986394"><ele>557.0</ele><time>2026-04-04T11:55:02.313Z</time></trkpt><trkpt lat="43.5102291" lon="11.9863867"><ele>557.0</ele><time>2026-04-04T11:55:04.313Z</time></trkpt><trkpt lat="43.5103247" lon="11.986393"><ele>557.0</ele><time>2026-04-04T11:55:06.313Z</time></trkpt><trkpt lat="43.5104148" lon="11.9864099"><ele>557.0</ele><time>2026-04-04T11:55:08.313Z</time></trkpt><trkpt lat="43.5104971" lon="11.986411"><ele>557.0</ele><time>2026-04-04T11:57:18.313Z</time></trkpt><trkpt lat="43.5105552" lon="11.9864686"><ele>557.0</ele><time>2026-04-04T11:57:20.313Z</time></trkpt><trkpt lat="43.510606" lon="11.9865354"><ele>557.0</ele><time>2026-04-04T11:57:21.312Z</time></trkpt><trkpt lat="43.5106899" lon="11.9865929"><ele>557.6666666666666</ele><time>2026-04-04T11:57:23.313Z</time></trkpt><trkpt lat="43.5107744" lon="11.9866234"><ele>558.3333333333333</ele><time>2026-04-04T11:57:25.313Z</time></trkpt><trkpt lat="43.5108682" lon="11.9866299"><ele>559.0</ele><time>2026-04-04T11:57:27.313Z</time></trkpt><trkpt lat="43.5109515" lon="11.9866938"><ele>559.6666666666666</ele><time>2026-04-04T11:57:29.313Z</time></trkpt><trkpt lat="43.5110063" lon="11.9867504"><ele>560.3333333333334</ele><time>2026-04-04T11:57:30.313Z</time></trkpt><trkpt lat="43.5110642" lon="11.9868014"><ele>561.0</ele><time>2026-04-04T11:57:31.314Z</time></trkpt><trkpt lat="43.5111207" lon="11.986842"><ele>554.4</ele><time>2026-04-04T11:57:32.313Z</time></trkpt><trkpt lat="43.5111875" lon="11.9868704"><ele>547.8</ele><time>2026-04-04T11:57:33.312Z</time></trkpt><trkpt lat="43.5112831" lon="11.986873"><ele>541.1999999999999</ele><time>2026-04-04T11:57:35.313Z</time></trkpt><trkpt lat="43.5113865" lon="11.9868585"><ele>534.6</ele><time>2026-04-04T11:57:37.313Z</time></trkpt><trkpt lat="43.5114854" lon="11.9868383"><ele>528.0</ele><time>2026-04-04T11:57:38.314Z</time></trkpt><trkpt lat="43.5115985" lon="11.9868007"><ele>527.0</ele><time>2026-04-04T11:57:40.313Z</time></trkpt><trkpt lat="43.5117022" lon="11.9867859"><ele>526.0</ele><time>2026-04-04T11:57:41.312Z</time></trkpt><trkpt lat="43.5117713" lon="11.9867286"><ele>525.0</ele><time>2026-04-04T11:57:43.312Z</time></trkpt><trkpt lat="43.5117753" lon="11.9866339"><ele>524.0</ele><time>2026-04-04T11:57:45.312Z</time></trkpt><trkpt lat="43.5117374" lon="11.9865198"><ele>523.0</ele><time>2026-04-04T11:57:47.313Z</time></trkpt><trkpt lat="43.5118599" lon="11.9865251"><ele>524.5</ele><time>2026-04-04T11:57:51.313Z</time></trkpt><trkpt lat="43.5119307" lon="11.9865332"><ele>526.0</ele><time>2026-04-04T11:57:52.313Z</time></trkpt><trkpt lat="43.5120383" lon="11.9865006"><ele>527.5</ele><time>2026-04-04T11:57:54.313Z</time></trkpt><trkpt lat="43.5121182" lon="11.9864616"><ele>529.0</ele><time>2026-04-04T11:57:56.312Z</time></trkpt><trkpt lat="43.5122083" lon="11.9864875"><ele>530.5</ele><time>2026-04-04T11:57:58.313Z</time></trkpt><trkpt lat="43.512263" lon="11.9865326"><ele>532.0</ele><time>2026-04-04T11:57:59.313Z</time></trkpt><trkpt lat="43.5123099" lon="11.9865921"><ele>532.0</ele><time>2026-04-04T11:58:00.314Z</time></trkpt><trkpt lat="43.5123743" lon="11.9866539"><ele>532.0</ele><time>2026-04-04T11:58:01.313Z</time></trkpt><trkpt lat="43.5124427" lon="11.9867273"><ele>532.0</ele><time>2026-04-04T11:58:03.313Z</time></trkpt><trkpt lat="43.5124378" lon="11.9868156"><ele>532.0</ele><time>2026-04-04T11:58:05.313Z</time></trkpt><trkpt lat="43.5124028" lon="11.9869356"><ele>532.0</ele><time>2026-04-04T11:58:08.313Z</time></trkpt><trkpt lat="43.5123812" lon="11.9870545"><ele>532.0</ele><time>2026-04-04T11:58:11.313Z</time></trkpt><trkpt lat="43.512354" lon="11.987145"><ele>530.8333333333334</ele><time>2026-04-04T11:58:14.314Z</time></trkpt><trkpt lat="43.5122978" lon="11.9872685"><ele>529.6666666666667</ele><time>2026-04-04T11:58:38.313Z</time></trkpt><trkpt lat="43.5122271" lon="11.9873211"><ele>528.5</ele><time>2026-04-04T11:58:42.313Z</time></trkpt><trkpt lat="43.5121584" lon="11.9873727"><ele>527.3333333333334</ele><time>2026-04-04T11:58:45.313Z</time></trkpt><trkpt lat="43.5121098" lon="11.9874649"><ele>526.1666666666666</ele><time>2026-04-04T11:58:48.313Z</time></trkpt><trkpt lat="43.5120954" lon="11.9875919"><ele>525.0</ele><time>2026-04-04T11:58:51.313Z</time></trkpt><trkpt lat="43.5120775" lon="11.9876968"><ele>523.0</ele><time>2026-04-04T11:58:53.312Z</time></trkpt><trkpt lat="43.5120899" lon="11.9878096"><ele>521.0</ele><time>2026-04-04T11:58:55.313Z</time></trkpt><trkpt lat="43.5121041" lon="11.9879322"><ele>519.0</ele><time>2026-04-04T11:58:57.313Z</time></trkpt><trkpt lat="43.5121224" lon="11.9880717"><ele>517.0</ele><time>2026-04-04T11:58:59.313Z</time></trkpt><trkpt lat="43.5121819" lon="11.9881789"><ele>515.0</ele><time>2026-04-04T11:59:01.312Z</time></trkpt><trkpt lat="43.5122364" lon="11.9882306"><ele>513.0</ele><time>2026-04-04T11:59:03.313Z</time></trkpt><trkpt lat="43.5123219" lon="11.9882446"><ele>513.0</ele><time>2026-04-04T11:59:05.312Z</time></trkpt><trkpt lat="43.5124009" lon="11.9882521"><ele>513.0</ele><time>2026-04-04T11:59:07.313Z</time></trkpt><trkpt lat="43.51249" lon="11.9882736"><ele>513.0</ele><time>2026-04-04T11:59:09.314Z</time></trkpt><trkpt lat="43.5125706" lon="11.9882657"><ele>513.0</ele><time>2026-04-04T11:59:11.313Z</time></trkpt><trkpt lat="43.5126595" lon="11.9882376"><ele>513.0</ele><time>2026-04-04T11:59:12.313Z</time></trkpt><trkpt lat="43.5127613" lon="11.9882203"><ele>513.0</ele><time>2026-04-04T11:59:14.314Z</time></trkpt><trkpt lat="43.5128602" lon="11.9882259"><ele>510.59999999999997</ele><time>2026-04-04T11:59:16.313Z</time></trkpt><trkpt lat="43.5129603" lon="11.9882555"><ele>508.19999999999993</ele><time>2026-04-04T11:59:18.313Z</time></trkpt><trkpt lat="43.5130229" lon="11.9883799"><ele>505.8</ele><time>2026-04-04T11:59:21.313Z</time></trkpt><trkpt lat="43.5130761" lon="11.988493"><ele>503.4</ele><time>2026-04-04T11:59:23.313Z</time></trkpt><trkpt lat="43.5131229" lon="11.9885836"><ele>501.0</ele><time>2026-04-04T11:59:25.313Z</time></trkpt><trkpt lat="43.5131794" lon="11.9886513"><ele>498.8333333333333</ele><time>2026-04-04T11:59:27.312Z</time></trkpt><trkpt lat="43.5132545" lon="11.9887186"><ele>496.66666666666663</ele><time>2026-04-04T11:59:29.312Z</time></trkpt><trkpt lat="43.5133108" lon="11.9887677"><ele>494.5</ele><time>2026-04-04T11:59:30.313Z</time></trkpt><trkpt lat="43.5133806" lon="11.9888685"><ele>492.3333333333333</ele><time>2026-04-04T11:59:32.313Z</time></trkpt><trkpt lat="43.5134439" lon="11.9889669"><ele>490.16666666666663</ele><time>2026-04-04T11:59:34.313Z</time></trkpt><trkpt lat="43.5135257" lon="11.989029"><ele>488.0</ele><time>2026-04-04T11:59:37.312Z</time></trkpt><trkpt lat="43.5135957" lon="11.9890779"><ele>487.99999999999994</ele><time>2026-04-04T11:59:39.313Z</time></trkpt><trkpt lat="43.5136551" lon="11.989147"><ele>488.0</ele><time>2026-04-04T11:59:41.314Z</time></trkpt><trkpt lat="43.513724" lon="11.9891866"><ele>488.0</ele><time>2026-04-04T11:59:44.313Z</time></trkpt><trkpt lat="43.5137816" lon="11.9891253"><ele>488.0</ele><time>2026-04-04T11:59:47.312Z</time></trkpt><trkpt lat="43.5138126" lon="11.9890071"><ele>487.99999999999994</ele><time>2026-04-04T11:59:49.312Z</time></trkpt><trkpt lat="43.5138224" lon="11.9888751"><ele>488.0</ele><time>2026-04-04T11:59:51.313Z</time></trkpt><trkpt lat="43.513813" lon="11.9887476"><ele>485.3333333333333</ele><time>2026-04-04T11:59:53.313Z</time></trkpt><trkpt lat="43.5138222" lon="11.9886464"><ele>482.66666666666663</ele><time>2026-04-04T11:59:55.313Z</time></trkpt><trkpt lat="43.5138868" lon="11.9886024"><ele>480.0</ele><time>2026-04-04T11:59:58.313Z</time></trkpt><trkpt lat="43.513924" lon="11.9886882"><ele>477.33333333333337</ele><time>2026-04-04T12:00:01.314Z</time></trkpt><trkpt lat="43.5139606" lon="11.988781"><ele>474.6666666666667</ele><time>2026-04-04T12:00:03.313Z</time></trkpt><trkpt lat="43.5139984" lon="11.9888545"><ele>472.0</ele><time>2026-04-04T12:00:05.312Z</time></trkpt><trkpt lat="43.5140686" lon="11.9889458"><ele>472.0</ele><time>2026-04-04T12:00:08.313Z</time></trkpt><trkpt lat="43.5141299" lon="11.9890243"><ele>472.0</ele><time>2026-04-04T12:00:11.312Z</time></trkpt><trkpt lat="43.5141891" lon="11.9890876"><ele>472.0</ele><time>2026-04-04T12:00:14.312Z</time></trkpt><trkpt lat="43.5142334" lon="11.9891718"><ele>472.0</ele><time>2026-04-04T12:00:17.313Z</time></trkpt><trkpt lat="43.5142683" lon="11.9892478"><ele>472.0</ele><time>2026-04-04T12:00:20.312Z</time></trkpt><trkpt lat="43.5142767" lon="11.9893508"><ele>472.0</ele><time>2026-04-04T12:00:23.313Z</time></trkpt><trkpt lat="43.5142741" lon="11.9894446"><ele>472.0</ele><time>2026-04-04T12:00:26.313Z</time></trkpt><trkpt lat="43.5143019" lon="11.9895454"><ele>470.85714285714283</ele><time>2026-04-04T12:00:47.313Z</time></trkpt><trkpt lat="43.5143272" lon="11.9896267"><ele>469.7142857142858</ele><time>2026-04-04T12:00:58.312Z</time></trkpt><trkpt lat="43.5143426" lon="11.9897219"><ele>468.5714285714286</ele><time>2026-04-04T12:01:09.313Z</time></trkpt><trkpt lat="43.5143515" lon="11.9898266"><ele>467.42857142857144</ele><time>2026-04-04T12:01:19.313Z</time></trkpt><trkpt lat="43.5143377" lon="11.9899179"><ele>466.28571428571433</ele><time>2026-04-04T12:01:24.312Z</time></trkpt><trkpt lat="43.5143356" lon="11.9900075"><ele>465.1428571428572</ele><time>2026-04-04T12:01:28.314Z</time></trkpt><trkpt lat="43.5143477" lon="11.9901065"><ele>464.00000000000006</ele><time>2026-04-04T12:01:32.313Z</time></trkpt><trkpt lat="43.5143315" lon="11.9901946"><ele>463.7142857142858</ele><time>2026-04-04T12:01:36.313Z</time></trkpt><trkpt lat="43.5143561" lon="11.9902757"><ele>463.42857142857144</ele><time>2026-04-04T12:01:39.313Z</time></trkpt><trkpt lat="43.5144026" lon="11.9903682"><ele>463.14285714285717</ele><time>2026-04-04T12:01:43.313Z</time></trkpt><trkpt lat="43.5144665" lon="11.9904263"><ele>462.8571428571429</ele><time>2026-04-04T12:01:47.313Z</time></trkpt><trkpt lat="43.5145247" lon="11.9904618"><ele>462.57142857142856</ele><time>2026-04-04T12:01:51.313Z</time></trkpt><trkpt lat="43.5145719" lon="11.9905331"><ele>462.2857142857143</ele><time>2026-04-04T12:01:55.313Z</time></trkpt><trkpt lat="43.5145907" lon="11.990625"><ele>462.0</ele><time>2026-04-04T12:01:59.313Z</time></trkpt><trkpt lat="43.5145882" lon="11.9907218"><ele>462.0</ele><time>2026-04-04T12:02:09.312Z</time></trkpt><trkpt lat="43.5145796" lon="11.9908279"><ele>462.0</ele><time>2026-04-04T12:02:12.313Z</time></trkpt><trkpt lat="43.5145832" lon="11.9909337"><ele>462.0</ele><time>2026-04-04T12:02:14.313Z</time></trkpt><trkpt lat="43.5146015" lon="11.9910331"><ele>462.0</ele><time>2026-04-04T12:02:17.313Z</time></trkpt><trkpt lat="43.5146411" lon="11.9911363"><ele>462.0</ele><time>2026-04-04T12:02:20.313Z</time></trkpt><trkpt lat="43.5146682" lon="11.9912327"><ele>462.0</ele><time>2026-04-04T12:02:22.313Z</time></trkpt><trkpt lat="43.5146402" lon="11.9913129"><ele>461.75</ele><time>2026-04-04T12:03:07.313Z</time></trkpt><trkpt lat="43.5146029" lon="11.9913896"><ele>461.5</ele><time>2026-04-04T12:03:10.313Z</time></trkpt><trkpt lat="43.51458" lon="11.9915093"><ele>461.25</ele><time>2026-04-04T12:03:13.313Z</time></trkpt><trkpt lat="43.5145423" lon="11.9915889"><ele>461.0</ele><time>2026-04-04T12:03:15.313Z</time></trkpt><trkpt lat="43.5145334" lon="11.9922017"><ele>460.8</ele><time>2026-04-04T12:03:17.314Z</time></trkpt><trkpt lat="43.5145336" lon="11.9923108"><ele>460.6</ele><time>2026-04-04T12:03:19.313Z</time></trkpt><trkpt lat="43.5145617" lon="11.9924188"><ele>460.4</ele><time>2026-04-04T12:03:21.313Z</time></trkpt><trkpt lat="43.5145872" lon="11.9925322"><ele>460.2</ele><time>2026-04-04T12:03:23.313Z</time></trkpt><trkpt lat="43.5146243" lon="11.9926741"><ele>460.0</ele><time>2026-04-04T12:03:25.313Z</time></trkpt><trkpt lat="43.5146692" lon="11.9928431"><ele>458.1666666666667</ele><time>2026-04-04T12:03:27.313Z</time></trkpt><trkpt lat="43.5146816" lon="11.9929406"><ele>456.33333333333337</ele><time>2026-04-04T12:03:28.313Z</time></trkpt><trkpt lat="43.5146989" lon="11.9930484"><ele>454.5</ele><time>2026-04-04T12:03:29.312Z</time></trkpt><trkpt lat="43.5147182" lon="11.9931325"><ele>452.66666666666663</ele><time>2026-04-04T12:03:30.313Z</time></trkpt><trkpt lat="43.5147268" lon="11.9932219"><ele>450.8333333333333</ele><time>2026-04-04T12:03:31.313Z</time></trkpt><trkpt lat="43.5147217" lon="11.993372"><ele>449.0</ele><time>2026-04-04T12:03:33.313Z</time></trkpt><trkpt lat="43.5147229" lon="11.9935421"><ele>449.0</ele><time>2026-04-04T12:03:35.313Z</time></trkpt><trkpt lat="43.5147052" lon="11.9937096"><ele>449.0</ele><time>2026-04-04T12:03:37.312Z</time></trkpt><trkpt lat="43.5146592" lon="11.9938486"><ele>449.0</ele><time>2026-04-04T12:03:39.313Z</time></trkpt><trkpt lat="43.5146126" lon="11.9939644"><ele>449.0</ele><time>2026-04-04T12:03:41.313Z</time></trkpt><trkpt lat="43.5145879" lon="11.9941116"><ele>449.0</ele><time>2026-04-04T12:03:43.312Z</time></trkpt><trkpt lat="43.5145645" lon="11.9942842"><ele>449.2</ele><time>2026-04-04T12:03:45.313Z</time></trkpt><trkpt lat="43.5145452" lon="11.9943806"><ele>449.4</ele><time>2026-04-04T12:03:46.313Z</time></trkpt><trkpt lat="43.5145083" lon="11.9945405"><ele>449.6</ele><time>2026-04-04T12:03:48.313Z</time></trkpt><trkpt lat="43.5144888" lon="11.9946298"><ele>449.8</ele><time>2026-04-04T12:03:49.312Z</time></trkpt><trkpt lat="43.5144794" lon="11.9947676"><ele>450.0</ele><time>2026-04-04T12:03:51.313Z</time></trkpt><trkpt lat="43.5144605" lon="11.9949383"><ele>447.4</ele><time>2026-04-04T12:03:53.313Z</time></trkpt><trkpt lat="43.5143943" lon="11.9950606"><ele>444.8</ele><time>2026-04-04T12:03:55.313Z</time></trkpt><trkpt lat="43.5143401" lon="11.9951788"><ele>442.20000000000005</ele><time>2026-04-04T12:03:57.313Z</time></trkpt><trkpt lat="43.5142991" lon="11.9953252"><ele>439.6</ele><time>2026-04-04T12:03:59.313Z</time></trkpt><trkpt lat="43.5142478" lon="11.9954503"><ele>437.0</ele><time>2026-04-04T12:04:00.313Z</time></trkpt><trkpt lat="43.5141953" lon="11.9955208"><ele>437.0</ele><time>2026-04-04T12:04:02.313Z</time></trkpt><trkpt lat="43.5141891" lon="11.9956201"><ele>437.00000000000006</ele><time>2026-04-04T12:04:05.314Z</time></trkpt><trkpt lat="43.5142396" lon="11.9957211"><ele>437.00000000000006</ele><time>2026-04-04T12:04:07.313Z</time></trkpt><trkpt lat="43.5142531" lon="11.9958686"><ele>437.0</ele><time>2026-04-04T12:04:09.313Z</time></trkpt><trkpt lat="43.5142393" lon="11.9959597"><ele>437.0</ele><time>2026-04-04T12:04:10.313Z</time></trkpt><trkpt lat="43.514225" lon="11.996115"><ele>435.8333333333333</ele><time>2026-04-04T12:04:12.313Z</time></trkpt><trkpt lat="43.514229" lon="11.9962036"><ele>434.66666666666663</ele><time>2026-04-04T12:04:13.313Z</time></trkpt><trkpt lat="43.5142111" lon="11.9963686"><ele>433.5</ele><time>2026-04-04T12:04:15.313Z</time></trkpt><trkpt lat="43.5142113" lon="11.9965202"><ele>432.33333333333337</ele><time>2026-04-04T12:04:16.312Z</time></trkpt><trkpt lat="43.5141722" lon="11.996614"><ele>431.1666666666667</ele><time>2026-04-04T12:04:20.314Z</time></trkpt><trkpt lat="43.5141269" lon="11.9966829"><ele>430.0</ele><time>2026-04-04T12:04:21.313Z</time></trkpt><trkpt lat="43.5140621" lon="11.9967937"><ele>430.00000000000006</ele><time>2026-04-04T12:04:23.313Z</time></trkpt><trkpt lat="43.5139952" lon="11.9968954"><ele>430.0</ele><time>2026-04-04T12:04:25.313Z</time></trkpt><trkpt lat="43.513898" lon="11.9969257"><ele>430.0</ele><time>2026-04-04T12:04:27.312Z</time></trkpt><trkpt lat="43.5138511" lon="11.996984"><ele>430.0</ele><time>2026-04-04T12:04:28.313Z</time></trkpt><trkpt lat="43.5137797" lon="11.9970705"><ele>430.00000000000006</ele><time>2026-04-04T12:04:30.313Z</time></trkpt><trkpt lat="43.5137259" lon="11.9971339"><ele>430.0</ele><time>2026-04-04T12:04:31.313Z</time></trkpt><trkpt lat="43.5136775" lon="11.9971984"><ele>429.4</ele><time>2026-04-04T12:04:32.313Z</time></trkpt><trkpt lat="43.5135783" lon="11.9972946"><ele>428.8</ele><time>2026-04-04T12:04:34.313Z</time></trkpt><trkpt lat="43.5134807" lon="11.997438"><ele>428.20000000000005</ele><time>2026-04-04T12:04:36.312Z</time></trkpt><trkpt lat="43.5134273" lon="11.9975156"><ele>427.6</ele><time>2026-04-04T12:04:37.313Z</time></trkpt><trkpt lat="43.5133941" lon="11.99759"><ele>427.0</ele><time>2026-04-04T12:04:38.313Z</time></trkpt><trkpt lat="43.5133479" lon="11.9977579"><ele>426.0</ele><time>2026-04-04T12:04:40.313Z</time></trkpt><trkpt lat="43.5132929" lon="11.9978803"><ele>425.00000000000006</ele><time>2026-04-04T12:04:41.313Z</time></trkpt><trkpt lat="43.5132407" lon="11.9979679"><ele>424.0</ele><time>2026-04-04T12:04:42.313Z</time></trkpt><trkpt lat="43.513187" lon="11.9980815"><ele>423.0</ele><time>2026-04-04T12:04:44.313Z</time></trkpt><trkpt lat="43.5131233" lon="11.9981789"><ele>422.0</ele><time>2026-04-04T12:04:46.312Z</time></trkpt><trkpt lat="43.5130486" lon="11.9982525"><ele>422.0</ele><time>2026-04-04T12:04:48.313Z</time></trkpt><trkpt lat="43.513004" lon="11.9983246"><ele>422.0</ele><time>2026-04-04T12:04:49.313Z</time></trkpt><trkpt lat="43.5129327" lon="11.9984052"><ele>422.0</ele><time>2026-04-04T12:04:51.313Z</time></trkpt><trkpt lat="43.5128974" lon="11.9984889"><ele>422.0</ele><time>2026-04-04T12:04:52.313Z</time></trkpt><trkpt lat="43.5128359" lon="11.9986729"><ele>422.0</ele><time>2026-04-04T12:04:54.313Z</time></trkpt><trkpt lat="43.5127811" lon="11.9988265"><ele>420.99999999999994</ele><time>2026-04-04T12:04:56.313Z</time></trkpt><trkpt lat="43.512732" lon="11.9989428"><ele>420.0</ele><time>2026-04-04T12:04:58.313Z</time></trkpt><trkpt lat="43.512739" lon="11.9990501"><ele>419.0</ele><time>2026-04-04T12:05:02.313Z</time></trkpt><trkpt lat="43.5127421" lon="11.9991556"><ele>418.0</ele><time>2026-04-04T12:05:07.313Z</time></trkpt><trkpt lat="43.512714" lon="11.9992345"><ele>416.99999999999994</ele><time>2026-04-04T12:05:09.314Z</time></trkpt><trkpt lat="43.5126461" lon="11.9993159"><ele>416.0</ele><time>2026-04-04T12:05:11.313Z</time></trkpt><trkpt lat="43.512591" lon="11.9993872"><ele>416.0</ele><time>2026-04-04T12:05:13.313Z</time></trkpt><trkpt lat="43.5125412" lon="11.9994831"><ele>416.0</ele><time>2026-04-04T12:05:15.313Z</time></trkpt><trkpt lat="43.5124528" lon="11.9995901"><ele>416.0</ele><time>2026-04-04T12:05:17.313Z</time></trkpt><trkpt lat="43.512335" lon="11.9997008"><ele>416.0</ele><time>2026-04-04T12:05:18.313Z</time></trkpt><trkpt lat="43.5122726" lon="11.9998329"><ele>415.99999999999994</ele><time>2026-04-04T12:05:20.313Z</time></trkpt><trkpt lat="43.5122381" lon="11.9999275"><ele>416.0</ele><time>2026-04-04T12:05:21.313Z</time></trkpt><trkpt lat="43.5122052" lon="12.0000531"><ele>416.0</ele><time>2026-04-04T12:05:22.314Z</time></trkpt><trkpt lat="43.5121577" lon="12.0001463"><ele>416.0</ele><time>2026-04-04T12:05:23.313Z</time></trkpt><trkpt lat="43.5121108" lon="12.0002512"><ele>415.99999999999994</ele><time>2026-04-04T12:05:25.313Z</time></trkpt><trkpt lat="43.5120869" lon="12.0003538"><ele>416.0</ele><time>2026-04-04T12:05:26.312Z</time></trkpt><trkpt lat="43.5120647" lon="12.0004523"><ele>415.8333333333333</ele><time>2026-04-04T12:05:27.312Z</time></trkpt><trkpt lat="43.5120627" lon="12.0005469"><ele>415.66666666666663</ele><time>2026-04-04T12:05:28.313Z</time></trkpt><trkpt lat="43.5120692" lon="12.0006661"><ele>415.5</ele><time>2026-04-04T12:05:30.313Z</time></trkpt><trkpt lat="43.512036" lon="12.0007578"><ele>415.33333333333337</ele><time>2026-04-04T12:05:33.313Z</time></trkpt><trkpt lat="43.5120831" lon="12.0008388"><ele>415.1666666666667</ele><time>2026-04-04T12:05:39.313Z</time></trkpt><trkpt lat="43.5121659" lon="12.000869"><ele>415.0</ele><time>2026-04-04T12:05:41.313Z</time></trkpt><trkpt lat="43.5122162" lon="12.0009393"><ele>415.0</ele><time>2026-04-04T12:05:43.313Z</time></trkpt><trkpt lat="43.5122205" lon="12.0010411"><ele>415.0</ele><time>2026-04-04T12:05:45.313Z</time></trkpt><trkpt lat="43.512158" lon="12.0011137"><ele>415.0</ele><time>2026-04-04T12:05:47.313Z</time></trkpt><trkpt lat="43.5120806" lon="12.0012146"><ele>415.0</ele><time>2026-04-04T12:05:49.314Z</time></trkpt><trkpt lat="43.511998" lon="12.0013211"><ele>415.0</ele><time>2026-04-04T12:05:51.313Z</time></trkpt><trkpt lat="43.5118916" lon="12.0013934"><ele>412.8</ele><time>2026-04-04T12:05:53.313Z</time></trkpt><trkpt lat="43.5117799" lon="12.0014447"><ele>410.6</ele><time>2026-04-04T12:05:55.313Z</time></trkpt><trkpt lat="43.5116581" lon="12.001462"><ele>408.4</ele><time>2026-04-04T12:05:57.313Z</time></trkpt><trkpt lat="43.5115507" lon="12.0014595"><ele>406.2</ele><time>2026-04-04T12:05:59.313Z</time></trkpt><trkpt lat="43.511453" lon="12.0014492"><ele>404.0</ele><time>2026-04-04T12:06:01.313Z</time></trkpt><trkpt lat="43.5113668" lon="12.0014755"><ele>404.0</ele><time>2026-04-04T12:06:03.312Z</time></trkpt><trkpt lat="43.5113712" lon="12.0016031"><ele>404.0</ele><time>2026-04-04T12:06:05.313Z</time></trkpt><trkpt lat="43.5114543" lon="12.0016982"><ele>404.0</ele><time>2026-04-04T12:06:07.313Z</time></trkpt><trkpt lat="43.5115184" lon="12.0018458"><ele>404.0</ele><time>2026-04-04T12:06:09.313Z</time></trkpt><trkpt lat="43.5115448" lon="12.0020036"><ele>404.0</ele><time>2026-04-04T12:06:11.313Z</time></trkpt><trkpt lat="43.5114983" lon="12.0022322"><ele>404.5</ele><time>2026-04-04T12:06:14.313Z</time></trkpt><trkpt lat="43.5114174" lon="12.0023508"><ele>405.0</ele><time>2026-04-04T12:06:16.312Z</time></trkpt><trkpt lat="43.5113353" lon="12.002461"><ele>405.5</ele><time>2026-04-04T12:06:18.312Z</time></trkpt><trkpt lat="43.5112885" lon="12.0026086"><ele>406.0</ele><time>2026-04-04T12:06:20.313Z</time></trkpt><trkpt lat="43.5112809" lon="12.0027565"><ele>407.0</ele><time>2026-04-04T12:06:22.313Z</time></trkpt><trkpt lat="43.5112908" lon="12.0028721"><ele>408.0</ele><time>2026-04-04T12:06:25.313Z</time></trkpt><trkpt lat="43.5112315" lon="12.0029496"><ele>409.0</ele><time>2026-04-04T12:06:28.313Z</time></trkpt><trkpt lat="43.5111458" lon="12.0028471"><ele>410.0</ele><time>2026-04-04T12:06:31.313Z</time></trkpt><trkpt lat="43.5110715" lon="12.002735"><ele>411.0</ele><time>2026-04-04T12:06:33.313Z</time></trkpt><trkpt lat="43.5110083" lon="12.0025995"><ele>414.4</ele><time>2026-04-04T12:06:35.313Z</time></trkpt><trkpt lat="43.5109932" lon="12.0025148"><ele>417.8</ele><time>2026-04-04T12:06:36.314Z</time></trkpt><trkpt lat="43.510938" lon="12.0023674"><ele>421.19999999999993</ele><time>2026-04-04T12:06:38.313Z</time></trkpt><trkpt lat="43.5108442" lon="12.0021547"><ele>424.59999999999997</ele><time>2026-04-04T12:06:40.313Z</time></trkpt><trkpt lat="43.5108237" lon="12.0020693"><ele>428.0</ele><time>2026-04-04T12:06:41.313Z</time></trkpt><trkpt lat="43.5107599" lon="12.0019707"><ele>427.99999999999994</ele><time>2026-04-04T12:06:44.313Z</time></trkpt><trkpt lat="43.5107049" lon="12.001892"><ele>428.0</ele><time>2026-04-04T12:06:46.313Z</time></trkpt><trkpt lat="43.5106534" lon="12.0018079"><ele>428.0</ele><time>2026-04-04T12:06:48.313Z</time></trkpt><trkpt lat="43.5105815" lon="12.001801"><ele>428.0</ele><time>2026-04-04T12:06:50.313Z</time></trkpt><trkpt lat="43.5105529" lon="12.0019039"><ele>427.99999999999994</ele><time>2026-04-04T12:06:53.312Z</time></trkpt><trkpt lat="43.5105893" lon="12.0020004"><ele>428.0</ele><time>2026-04-04T12:06:55.313Z</time></trkpt><trkpt lat="43.5106053" lon="12.0020854"><ele>427.99999999999994</ele><time>2026-04-04T12:06:56.313Z</time></trkpt><trkpt lat="43.510572" lon="12.0021892"><ele>428.0</ele><time>2026-04-04T12:06:58.313Z</time></trkpt><trkpt lat="43.5105384" lon="12.0022776"><ele>428.0</ele><time>2026-04-04T12:06:59.313Z</time></trkpt><trkpt lat="43.5104845" lon="12.0024077"><ele>428.0</ele><time>2026-04-04T12:07:01.313Z</time></trkpt><trkpt lat="43.5104538" lon="12.0025456"><ele>427.99999999999994</ele><time>2026-04-04T12:07:03.313Z</time></trkpt><trkpt lat="43.5104728" lon="12.0026422"><ele>428.0</ele><time>2026-04-04T12:07:04.313Z</time></trkpt><trkpt lat="43.510503" lon="12.002786"><ele>429.8333333333333</ele><time>2026-04-04T12:07:06.313Z</time></trkpt><trkpt lat="43.5105274" lon="12.0028672"><ele>431.66666666666663</ele><time>2026-04-04T12:07:07.312Z</time></trkpt><trkpt lat="43.5105719" lon="12.0030007"><ele>433.5</ele><time>2026-04-04T12:07:09.313Z</time></trkpt><trkpt lat="43.5105744" lon="12.0030877"><ele>435.33333333333337</ele><time>2026-04-04T12:07:10.313Z</time></trkpt><trkpt lat="43.5105601" lon="12.0032314"><ele>437.1666666666667</ele><time>2026-04-04T12:07:12.313Z</time></trkpt><trkpt lat="43.510554" lon="12.0033468"><ele>439.0</ele><time>2026-04-04T12:07:14.313Z</time></trkpt><trkpt lat="43.5105162" lon="12.0034418"><ele>439.79999999999995</ele><time>2026-04-04T12:07:16.312Z</time></trkpt><trkpt lat="43.5104533" lon="12.0035235"><ele>440.59999999999997</ele><time>2026-04-04T12:07:18.314Z</time></trkpt><trkpt lat="43.5103357" lon="12.0037102"><ele>441.4</ele><time>2026-04-04T12:07:20.312Z</time></trkpt><trkpt lat="43.5102688" lon="12.0037163"><ele>442.2</ele><time>2026-04-04T12:07:21.313Z</time></trkpt><trkpt lat="43.5101638" lon="12.0037182"><ele>443.0</ele><time>2026-04-04T12:07:23.313Z</time></trkpt><trkpt lat="43.5100881" lon="12.0037277"><ele>449.4</ele><time>2026-04-04T12:07:25.313Z</time></trkpt><trkpt lat="43.5099966" lon="12.0036693"><ele>455.79999999999995</ele><time>2026-04-04T12:07:27.312Z</time></trkpt><trkpt lat="43.5099809" lon="12.0035848"><ele>462.2</ele><time>2026-04-04T12:07:29.313Z</time></trkpt><trkpt lat="43.5100384" lon="12.0034085"><ele>468.6</ele><time>2026-04-04T12:07:31.313Z</time></trkpt><trkpt lat="43.510054" lon="12.0032898"><ele>475.0</ele><time>2026-04-04T12:07:33.313Z</time></trkpt><trkpt lat="43.5100368" lon="12.0031546"><ele>475.0</ele><time>2026-04-04T12:07:35.313Z</time></trkpt><trkpt lat="43.5100152" lon="12.003038"><ele>475.0</ele><time>2026-04-04T12:07:37.313Z</time></trkpt><trkpt lat="43.5099924" lon="12.002914"><ele>475.0</ele><time>2026-04-04T12:07:38.313Z</time></trkpt><trkpt lat="43.5099285" lon="12.0027668"><ele>475.0</ele><time>2026-04-04T12:07:40.313Z</time></trkpt><trkpt lat="43.509838" lon="12.0026804"><ele>475.0</ele><time>2026-04-04T12:07:42.313Z</time></trkpt><trkpt lat="43.5097435" lon="12.0025949"><ele>475.0</ele><time>2026-04-04T12:07:44.313Z</time></trkpt><trkpt lat="43.5096372" lon="12.0025553"><ele>475.0</ele><time>2026-04-04T12:07:46.313Z</time></trkpt><trkpt lat="43.509505" lon="12.0024686"><ele>475.0</ele><time>2026-04-04T12:07:48.313Z</time></trkpt><trkpt lat="43.5094104" lon="12.0023772"><ele>475.0</ele><time>2026-04-04T12:07:50.313Z</time></trkpt><trkpt lat="43.5093323" lon="12.0023459"><ele>474.8</ele><time>2026-04-04T12:07:52.313Z</time></trkpt><trkpt lat="43.5092264" lon="12.00228"><ele>474.6</ele><time>2026-04-04T12:07:54.313Z</time></trkpt><trkpt lat="43.5091266" lon="12.0022965"><ele>474.4</ele><time>2026-04-04T12:07:56.313Z</time></trkpt><trkpt lat="43.5090521" lon="12.0023576"><ele>474.2</ele><time>2026-04-04T12:07:58.313Z</time></trkpt><trkpt lat="43.5089966" lon="12.0024379"><ele>474.0</ele><time>2026-04-04T12:08:00.313Z</time></trkpt><trkpt lat="43.508991" lon="12.0025463"><ele>478.0</ele><time>2026-04-04T12:08:02.313Z</time></trkpt><trkpt lat="43.5089889" lon="12.0026636"><ele>482.0</ele><time>2026-04-04T12:08:03.314Z</time></trkpt><trkpt lat="43.5090045" lon="12.0027776"><ele>486.0</ele><time>2026-04-04T12:08:05.313Z</time></trkpt><trkpt lat="43.5090596" lon="12.0028705"><ele>490.0</ele><time>2026-04-04T12:08:07.313Z</time></trkpt><trkpt lat="43.5091381" lon="12.002961"><ele>494.0</ele><time>2026-04-04T12:08:09.313Z</time></trkpt><trkpt lat="43.509188" lon="12.0030612"><ele>498.0</ele><time>2026-04-04T12:08:11.313Z</time></trkpt><trkpt lat="43.5092029" lon="12.003189"><ele>498.0</ele><time>2026-04-04T12:08:13.313Z</time></trkpt><trkpt lat="43.5092027" lon="12.0033274"><ele>497.99999999999994</ele><time>2026-04-04T12:08:15.313Z</time></trkpt><trkpt lat="43.5091781" lon="12.0034833"><ele>497.99999999999994</ele><time>2026-04-04T12:08:17.313Z</time></trkpt><trkpt lat="43.5091469" lon="12.0036481"><ele>498.0</ele><time>2026-04-04T12:08:19.312Z</time></trkpt><trkpt lat="43.5091317" lon="12.0037359"><ele>498.0</ele><time>2026-04-04T12:08:20.313Z</time></trkpt><trkpt lat="43.5091264" lon="12.0038876"><ele>501.75</ele><time>2026-04-04T12:08:22.313Z</time></trkpt><trkpt lat="43.5091285" lon="12.0040384"><ele>505.5</ele><time>2026-04-04T12:08:24.313Z</time></trkpt><trkpt lat="43.5091152" lon="12.0041773"><ele>509.25</ele><time>2026-04-04T12:08:26.313Z</time></trkpt><trkpt lat="43.5091367" lon="12.0043383"><ele>513.0</ele><time>2026-04-04T12:08:28.313Z</time></trkpt><trkpt lat="43.5090778" lon="12.0044829"><ele>514.8</ele><time>2026-04-04T12:08:30.313Z</time></trkpt><trkpt lat="43.5089884" lon="12.0045807"><ele>516.5999999999999</ele><time>2026-04-04T12:08:32.313Z</time></trkpt><trkpt lat="43.5088877" lon="12.0046821"><ele>518.4000000000001</ele><time>2026-04-04T12:08:34.313Z</time></trkpt><trkpt lat="43.5087687" lon="12.0047161"><ele>520.2</ele><time>2026-04-04T12:08:37.313Z</time></trkpt><trkpt lat="43.5088052" lon="12.0046237"><ele>522.0</ele><time>2026-04-04T12:08:40.313Z</time></trkpt><trkpt lat="43.5088766" lon="12.0045625"><ele>522.0</ele><time>2026-04-04T12:08:41.313Z</time></trkpt><trkpt lat="43.5088557" lon="12.0044256"><ele>522.0</ele><time>2026-04-04T12:08:43.313Z</time></trkpt><trkpt lat="43.5087958" lon="12.0043295"><ele>522.0</ele><time>2026-04-04T12:08:45.314Z</time></trkpt><trkpt lat="43.5086981" lon="12.0043023"><ele>522.0</ele><time>2026-04-04T12:08:47.313Z</time></trkpt><trkpt lat="43.5086246" lon="12.0043443"><ele>522.0</ele><time>2026-04-04T12:08:48.312Z</time></trkpt><trkpt lat="43.5085396" lon="12.0044425"><ele>525.8000000000001</ele><time>2026-04-04T12:08:50.313Z</time></trkpt><trkpt lat="43.5084455" lon="12.0045613"><ele>529.6</ele><time>2026-04-04T12:08:52.312Z</time></trkpt><trkpt lat="43.5083999" lon="12.0046216"><ele>533.4000000000001</ele><time>2026-04-04T12:08:53.313Z</time></trkpt><trkpt lat="43.5083015" lon="12.004729"><ele>537.2</ele><time>2026-04-04T12:08:55.313Z</time></trkpt><trkpt lat="43.5082207" lon="12.0048177"><ele>541.0</ele><time>2026-04-04T12:08:57.313Z</time></trkpt><trkpt lat="43.5081302" lon="12.0049292"><ele>543.0</ele><time>2026-04-04T12:08:59.313Z</time></trkpt><trkpt lat="43.508038" lon="12.0050449"><ele>545.0</ele><time>2026-04-04T12:09:01.312Z</time></trkpt><trkpt lat="43.5079885" lon="12.005113"><ele>547.0</ele><time>2026-04-04T12:09:02.313Z</time></trkpt><trkpt lat="43.5079458" lon="12.0051772"><ele>549.0</ele><time>2026-04-04T12:09:03.313Z</time></trkpt><trkpt lat="43.5078956" lon="12.005236"><ele>551.0</ele><time>2026-04-04T12:09:04.313Z</time></trkpt><trkpt lat="43.5078361" lon="12.0052668"><ele>553.0</ele><time>2026-04-04T12:09:05.313Z</time></trkpt><trkpt lat="43.5077655" lon="12.0052774"><ele>555.75</ele><time>2026-04-04T12:09:06.313Z</time></trkpt><trkpt lat="43.507678" lon="12.0052496"><ele>558.5</ele><time>2026-04-04T12:09:07.313Z</time></trkpt><trkpt lat="43.5074826" lon="12.0052242"><ele>561.25</ele><time>2026-04-04T12:09:09.313Z</time></trkpt><trkpt lat="43.5073779" lon="12.0052274"><ele>564.0</ele><time>2026-04-04T12:09:10.313Z</time></trkpt><trkpt lat="43.5072747" lon="12.0052139"><ele>564.0</ele><time>2026-04-04T12:09:11.313Z</time></trkpt><trkpt lat="43.5071764" lon="12.0052101"><ele>564.0</ele><time>2026-04-04T12:09:12.312Z</time></trkpt><trkpt lat="43.5070934" lon="12.0051907"><ele>564.0</ele><time>2026-04-04T12:09:13.313Z</time></trkpt><trkpt lat="43.5070289" lon="12.005189"><ele>564.0</ele><time>2026-04-04T12:09:14.313Z</time></trkpt><trkpt lat="43.5069209" lon="12.005181"><ele>564.0</ele><time>2026-04-04T12:09:16.313Z</time></trkpt><trkpt lat="43.5067922" lon="12.0052316"><ele>565.6</ele><time>2026-04-04T12:09:18.313Z</time></trkpt><trkpt lat="43.5066801" lon="12.0052851"><ele>567.2</ele><time>2026-04-04T12:09:19.313Z</time></trkpt><trkpt lat="43.5065971" lon="12.0053647"><ele>568.8000000000001</ele><time>2026-04-04T12:09:20.312Z</time></trkpt><trkpt lat="43.5065207" lon="12.0053976"><ele>570.4</ele><time>2026-04-04T12:09:21.313Z</time></trkpt><trkpt lat="43.5064479" lon="12.0054587"><ele>572.0</ele><time>2026-04-04T12:09:22.313Z</time></trkpt><trkpt lat="43.5063603" lon="12.0055487"><ele>572.0</ele><time>2026-04-04T12:09:23.314Z</time></trkpt><trkpt lat="43.5062733" lon="12.0056113"><ele>572.0</ele><time>2026-04-04T12:09:24.313Z</time></trkpt><trkpt lat="43.5061887" lon="12.0057114"><ele>572.0</ele><time>2026-04-04T12:09:25.313Z</time></trkpt><trkpt lat="43.5061279" lon="12.0057977"><ele>572.0</ele><time>2026-04-04T12:09:26.313Z</time></trkpt><trkpt lat="43.5060124" lon="12.0058717"><ele>572.0</ele><time>2026-04-04T12:09:28.314Z</time></trkpt><trkpt lat="43.505861" lon="12.0059178"><ele>571.3333333333333</ele><time>2026-04-04T12:09:30.313Z</time></trkpt><trkpt lat="43.5057464" lon="12.0059028"><ele>570.6666666666666</ele><time>2026-04-04T12:09:32.313Z</time></trkpt><trkpt lat="43.5056721" lon="12.0058863"><ele>570.0</ele><time>2026-04-04T12:09:34.314Z</time></trkpt><trkpt lat="43.5055817" lon="12.0058419"><ele>569.3333333333334</ele><time>2026-04-04T12:09:37.313Z</time></trkpt><trkpt lat="43.5055085" lon="12.0057873"><ele>568.6666666666667</ele><time>2026-04-04T12:09:39.313Z</time></trkpt><trkpt lat="43.5054414" lon="12.0057328"><ele>568.0</ele><time>2026-04-04T12:09:41.313Z</time></trkpt><trkpt lat="43.5053831" lon="12.0056899"><ele>568.0</ele><time>2026-04-04T12:09:44.313Z</time></trkpt><trkpt lat="43.5053815" lon="12.0057804"><ele>568.0</ele><time>2026-04-04T12:10:14.313Z</time></trkpt><trkpt lat="43.5054435" lon="12.0058248"><ele>568.0</ele><time>2026-04-04T12:10:16.313Z</time></trkpt><trkpt lat="43.5055278" lon="12.0058624"><ele>568.0</ele><time>2026-04-04T12:10:18.313Z</time></trkpt><trkpt lat="43.5056367" lon="12.0059317"><ele>568.0</ele><time>2026-04-04T12:10:20.313Z</time></trkpt><trkpt lat="43.5056974" lon="12.0059666"><ele>568.0</ele><time>2026-04-04T12:10:21.313Z</time></trkpt><trkpt lat="43.5057642" lon="12.0060051"><ele>571.0</ele><time>2026-04-04T12:10:22.313Z</time></trkpt><trkpt lat="43.5058378" lon="12.0060445"><ele>574.0</ele><time>2026-04-04T12:10:23.313Z</time></trkpt><trkpt lat="43.5059252" lon="12.0060609"><ele>577.0</ele><time>2026-04-04T12:10:24.312Z</time></trkpt><trkpt lat="43.5060131" lon="12.0060579"><ele>580.0</ele><time>2026-04-04T12:10:25.313Z</time></trkpt><trkpt lat="43.5061028" lon="12.0060286"><ele>583.0</ele><time>2026-04-04T12:10:26.313Z</time></trkpt><trkpt lat="43.5061908" lon="12.0059907"><ele>586.0</ele><time>2026-04-04T12:10:27.313Z</time></trkpt><trkpt lat="43.5062767" lon="12.0059394"><ele>587.4</ele><time>2026-04-04T12:10:28.313Z</time></trkpt><trkpt lat="43.5063656" lon="12.0058795"><ele>588.8</ele><time>2026-04-04T12:10:29.313Z</time></trkpt><trkpt lat="43.5064589" lon="12.0058256"><ele>590.1999999999999</ele><time>2026-04-04T12:10:30.313Z</time></trkpt><trkpt lat="43.5065587" lon="12.005774"><ele>591.6</ele><time>2026-04-04T12:10:31.313Z</time></trkpt><trkpt lat="43.5066501" lon="12.0057336"><ele>593.0</ele><time>2026-04-04T12:10:32.314Z</time></trkpt><trkpt lat="43.5067382" lon="12.0057042"><ele>590.1666666666666</ele><time>2026-04-04T12:10:33.312Z</time></trkpt><trkpt lat="43.5068228" lon="12.0056838"><ele>587.3333333333333</ele><time>2026-04-04T12:10:34.312Z</time></trkpt><trkpt lat="43.506906" lon="12.0056859"><ele>584.5</ele><time>2026-04-04T12:10:35.313Z</time></trkpt><trkpt lat="43.5069891" lon="12.0057101"><ele>581.6666666666666</ele><time>2026-04-04T12:10:36.313Z</time></trkpt><trkpt lat="43.5070657" lon="12.0057564"><ele>578.8333333333334</ele><time>2026-04-04T12:10:37.313Z</time></trkpt><trkpt lat="43.5071402" lon="12.0058094"><ele>576.0</ele><time>2026-04-04T12:10:38.313Z</time></trkpt><trkpt lat="43.5072072" lon="12.0058791"><ele>576.0</ele><time>2026-04-04T12:10:39.313Z</time></trkpt><trkpt lat="43.507255" lon="12.0059702"><ele>576.0</ele><time>2026-04-04T12:10:40.313Z</time></trkpt><trkpt lat="43.5072984" lon="12.0060686"><ele>576.0</ele><time>2026-04-04T12:10:41.313Z</time></trkpt><trkpt lat="43.507335" lon="12.0061714"><ele>576.0</ele><time>2026-04-04T12:10:42.313Z</time></trkpt><trkpt lat="43.5073753" lon="12.0062732"><ele>576.0</ele><time>2026-04-04T12:10:43.312Z</time></trkpt><trkpt lat="43.5074217" lon="12.0063814"><ele>576.0</ele><time>2026-04-04T12:10:44.313Z</time></trkpt><trkpt lat="43.5074637" lon="12.0064718"><ele>576.0</ele><time>2026-04-04T12:10:45.313Z</time></trkpt><trkpt lat="43.5075121" lon="12.0065734"><ele>576.0</ele><time>2026-04-04T12:10:46.313Z</time></trkpt><trkpt lat="43.5075653" lon="12.006676"><ele>576.0</ele><time>2026-04-04T12:10:47.313Z</time></trkpt><trkpt lat="43.507612" lon="12.006767"><ele>576.0</ele><time>2026-04-04T12:10:48.313Z</time></trkpt><trkpt lat="43.5076608" lon="12.0068636"><ele>576.0</ele><time>2026-04-04T12:10:49.313Z</time></trkpt><trkpt lat="43.5077089" lon="12.0069666"><ele>576.0</ele><time>2026-04-04T12:10:50.313Z</time></trkpt><trkpt lat="43.5077494" lon="12.0070693"><ele>577.3333333333334</ele><time>2026-04-04T12:10:51.312Z</time></trkpt><trkpt lat="43.5077961" lon="12.0071729"><ele>578.6666666666666</ele><time>2026-04-04T12:10:52.313Z</time></trkpt><trkpt lat="43.5078418" lon="12.0072716"><ele>580.0</ele><time>2026-04-04T12:10:53.313Z</time></trkpt><trkpt lat="43.5078879" lon="12.0073672"><ele>581.3333333333333</ele><time>2026-04-04T12:10:54.313Z</time></trkpt><trkpt lat="43.5079357" lon="12.0074603"><ele>582.6666666666666</ele><time>2026-04-04T12:10:55.313Z</time></trkpt><trkpt lat="43.5079871" lon="12.0075446"><ele>584.0</ele><time>2026-04-04T12:10:56.312Z</time></trkpt><trkpt lat="43.5080462" lon="12.0076181"><ele>580.3333333333333</ele><time>2026-04-04T12:10:57.313Z</time></trkpt><trkpt lat="43.5081102" lon="12.0076777"><ele>576.6666666666666</ele><time>2026-04-04T12:10:58.313Z</time></trkpt><trkpt lat="43.5081834" lon="12.0077249"><ele>573.0</ele><time>2026-04-04T12:10:59.313Z</time></trkpt><trkpt lat="43.5082569" lon="12.0077467"><ele>569.3333333333334</ele><time>2026-04-04T12:11:00.313Z</time></trkpt><trkpt lat="43.508338" lon="12.0077619"><ele>565.6666666666667</ele><time>2026-04-04T12:11:01.313Z</time></trkpt><trkpt lat="43.5084129" lon="12.0077771"><ele>562.0</ele><time>2026-04-04T12:11:02.313Z</time></trkpt><trkpt lat="43.5084844" lon="12.0077986"><ele>562.0000000000001</ele><time>2026-04-04T12:11:03.313Z</time></trkpt><trkpt lat="43.508546" lon="12.0078386"><ele>562.0</ele><time>2026-04-04T12:11:04.313Z</time></trkpt><trkpt lat="43.5086073" lon="12.0078923"><ele>562.0</ele><time>2026-04-04T12:11:05.313Z</time></trkpt><trkpt lat="43.5086558" lon="12.0079524"><ele>562.0</ele><time>2026-04-04T12:11:06.313Z</time></trkpt><trkpt lat="43.5087036" lon="12.0080146"><ele>562.0</ele><time>2026-04-04T12:11:07.313Z</time></trkpt><trkpt lat="43.5087562" lon="12.0080756"><ele>562.0000000000001</ele><time>2026-04-04T12:11:08.313Z</time></trkpt><trkpt lat="43.5088145" lon="12.0081369"><ele>562.0</ele><time>2026-04-04T12:11:09.313Z</time></trkpt><trkpt lat="43.5088739" lon="12.0081841"><ele>561.0000000000001</ele><time>2026-04-04T12:11:10.314Z</time></trkpt><trkpt lat="43.5089302" lon="12.0082332"><ele>560.0</ele><time>2026-04-04T12:11:11.313Z</time></trkpt><trkpt lat="43.5089847" lon="12.0082906"><ele>559.0</ele><time>2026-04-04T12:11:12.313Z</time></trkpt><trkpt lat="43.5090307" lon="12.0083641"><ele>558.0</ele><time>2026-04-04T12:11:13.313Z</time></trkpt><trkpt lat="43.5090631" lon="12.0084504"><ele>557.0</ele><time>2026-04-04T12:11:14.313Z</time></trkpt><trkpt lat="43.5090931" lon="12.0085431"><ele>556.0000000000001</ele><time>2026-04-04T12:11:15.313Z</time></trkpt><trkpt lat="43.5091221" lon="12.0086331"><ele>555.0</ele><time>2026-04-04T12:11:16.313Z</time></trkpt><trkpt lat="43.5091472" lon="12.0087335"><ele>555.0</ele><time>2026-04-04T12:11:17.313Z</time></trkpt><trkpt lat="43.5091716" lon="12.0088354"><ele>555.0</ele><time>2026-04-04T12:11:18.313Z</time></trkpt><trkpt lat="43.5092079" lon="12.0089298"><ele>555.0</ele><time>2026-04-04T12:11:19.313Z</time></trkpt><trkpt lat="43.509254" lon="12.0090225"><ele>555.0</ele><time>2026-04-04T12:11:20.313Z</time></trkpt><trkpt lat="43.5093043" lon="12.0091149"><ele>555.0</ele><time>2026-04-04T12:11:21.313Z</time></trkpt><trkpt lat="43.5093592" lon="12.0092002"><ele>555.0</ele><time>2026-04-04T12:11:22.314Z</time></trkpt><trkpt lat="43.5094148" lon="12.0092838"><ele>554.3333333333334</ele><time>2026-04-04T12:11:23.313Z</time></trkpt><trkpt lat="43.5094759" lon="12.0093565"><ele>553.6666666666666</ele><time>2026-04-04T12:11:24.313Z</time></trkpt><trkpt lat="43.509538" lon="12.0094345"><ele>553.0</ele><time>2026-04-04T12:11:25.313Z</time></trkpt><trkpt lat="43.5096002" lon="12.0095098"><ele>552.3333333333333</ele><time>2026-04-04T12:11:26.313Z</time></trkpt><trkpt lat="43.5096569" lon="12.0095908"><ele>551.6666666666666</ele><time>2026-04-04T12:11:27.313Z</time></trkpt><trkpt lat="43.5097093" lon="12.0096835"><ele>551.0</ele><time>2026-04-04T12:11:28.313Z</time></trkpt><trkpt lat="43.5097566" lon="12.0097818"><ele>550.0</ele><time>2026-04-04T12:11:29.312Z</time></trkpt><trkpt lat="43.5098019" lon="12.0098797"><ele>549.0</ele><time>2026-04-04T12:11:30.312Z</time></trkpt><trkpt lat="43.5098504" lon="12.0099674"><ele>548.0</ele><time>2026-04-04T12:11:31.312Z</time></trkpt><trkpt lat="43.5099027" lon="12.010058"><ele>547.0</ele><time>2026-04-04T12:11:32.312Z</time></trkpt><trkpt lat="43.5099578" lon="12.0101445"><ele>546.0</ele><time>2026-04-04T12:11:33.314Z</time></trkpt><trkpt lat="43.5100168" lon="12.010233"><ele>545.0</ele><time>2026-04-04T12:11:34.313Z</time></trkpt><trkpt lat="43.5100701" lon="12.0103085"><ele>545.0</ele><time>2026-04-04T12:11:35.313Z</time></trkpt><trkpt lat="43.5101343" lon="12.0104015"><ele>545.0</ele><time>2026-04-04T12:11:36.312Z</time></trkpt><trkpt lat="43.5101969" lon="12.010488"><ele>545.0</ele><time>2026-04-04T12:11:37.313Z</time></trkpt><trkpt lat="43.5102586" lon="12.010574"><ele>545.0</ele><time>2026-04-04T12:11:38.312Z</time></trkpt><trkpt lat="43.5103195" lon="12.0106718"><ele>545.0</ele><time>2026-04-04T12:11:39.313Z</time></trkpt><trkpt lat="43.510374" lon="12.0107636"><ele>545.0</ele><time>2026-04-04T12:11:40.313Z</time></trkpt><trkpt lat="43.5104301" lon="12.0108745"><ele>540.4</ele><time>2026-04-04T12:11:41.312Z</time></trkpt><trkpt lat="43.5104786" lon="12.0109916"><ele>535.8</ele><time>2026-04-04T12:11:42.313Z</time></trkpt><trkpt lat="43.5105227" lon="12.0111148"><ele>531.2</ele><time>2026-04-04T12:11:43.313Z</time></trkpt><trkpt lat="43.5105564" lon="12.0112376"><ele>526.6</ele><time>2026-04-04T12:11:44.314Z</time></trkpt><trkpt lat="43.5105863" lon="12.0113592"><ele>522.0</ele><time>2026-04-04T12:11:45.312Z</time></trkpt><trkpt lat="43.5106106" lon="12.0114796"><ele>522.0</ele><time>2026-04-04T12:11:46.313Z</time></trkpt><trkpt lat="43.510637" lon="12.0115959"><ele>522.0</ele><time>2026-04-04T12:11:47.313Z</time></trkpt><trkpt lat="43.5106609" lon="12.0117201"><ele>522.0</ele><time>2026-04-04T12:11:48.313Z</time></trkpt><trkpt lat="43.5106847" lon="12.0118432"><ele>522.0</ele><time>2026-04-04T12:11:49.313Z</time></trkpt><trkpt lat="43.5106988" lon="12.0119574"><ele>522.0</ele><time>2026-04-04T12:11:50.313Z</time></trkpt><trkpt lat="43.5107138" lon="12.0120688"><ele>522.0</ele><time>2026-04-04T12:11:51.313Z</time></trkpt><trkpt lat="43.5107332" lon="12.0121745"><ele>522.4</ele><time>2026-04-04T12:11:52.313Z</time></trkpt><trkpt lat="43.5107468" lon="12.0122724"><ele>522.8000000000001</ele><time>2026-04-04T12:11:53.313Z</time></trkpt><trkpt lat="43.5107542" lon="12.0123611"><ele>523.2</ele><time>2026-04-04T12:11:54.313Z</time></trkpt><trkpt lat="43.510734" lon="12.0125144"><ele>523.6</ele><time>2026-04-04T12:11:56.313Z</time></trkpt><trkpt lat="43.5106499" lon="12.0126049"><ele>524.0</ele><time>2026-04-04T12:11:58.313Z</time></trkpt><trkpt lat="43.5105484" lon="12.0125765"><ele>524.0</ele><time>2026-04-04T12:12:00.313Z</time></trkpt><trkpt lat="43.5104639" lon="12.0124285"><ele>524.0</ele><time>2026-04-04T12:12:02.313Z</time></trkpt><trkpt lat="43.510431" lon="12.0123329"><ele>524.0</ele><time>2026-04-04T12:12:03.313Z</time></trkpt><trkpt lat="43.5103984" lon="12.0122342"><ele>524.0</ele><time>2026-04-04T12:12:04.312Z</time></trkpt><trkpt lat="43.5103674" lon="12.0121333"><ele>524.0</ele><time>2026-04-04T12:12:05.313Z</time></trkpt><trkpt lat="43.5103396" lon="12.0120462"><ele>524.0</ele><time>2026-04-04T12:12:06.312Z</time></trkpt><trkpt lat="43.5103151" lon="12.0119612"><ele>523.8</ele><time>2026-04-04T12:12:07.313Z</time></trkpt><trkpt lat="43.5102932" lon="12.0118797"><ele>523.5999999999999</ele><time>2026-04-04T12:12:08.313Z</time></trkpt><trkpt lat="43.5102095" lon="12.0117795"><ele>523.4</ele><time>2026-04-04T12:12:10.313Z</time></trkpt><trkpt lat="43.5101102" lon="12.0118297"><ele>523.1999999999999</ele><time>2026-04-04T12:12:12.313Z</time></trkpt><trkpt lat="43.5100979" lon="12.0119815"><ele>523.0</ele><time>2026-04-04T12:12:14.313Z</time></trkpt><trkpt lat="43.5101134" lon="12.012074"><ele>522.9999999999999</ele><time>2026-04-04T12:12:15.313Z</time></trkpt><trkpt lat="43.5101326" lon="12.0121714"><ele>523.0</ele><time>2026-04-04T12:12:16.313Z</time></trkpt><trkpt lat="43.510144" lon="12.0122775"><ele>523.0</ele><time>2026-04-04T12:12:17.313Z</time></trkpt><trkpt lat="43.51015" lon="12.0123766"><ele>523.0</ele><time>2026-04-04T12:12:18.313Z</time></trkpt><trkpt lat="43.5101489" lon="12.0124785"><ele>523.0</ele><time>2026-04-04T12:12:19.313Z</time></trkpt><trkpt lat="43.5101489" lon="12.0125764"><ele>522.9999999999999</ele><time>2026-04-04T12:12:20.312Z</time></trkpt><trkpt lat="43.5101574" lon="12.0126758"><ele>523.0</ele><time>2026-04-04T12:12:21.313Z</time></trkpt><trkpt lat="43.5101725" lon="12.0127826"><ele>521.5</ele><time>2026-04-04T12:12:22.312Z</time></trkpt><trkpt lat="43.5101881" lon="12.0128899"><ele>520.0</ele><time>2026-04-04T12:12:23.313Z</time></trkpt><trkpt lat="43.5102098" lon="12.0130007"><ele>518.5</ele><time>2026-04-04T12:12:24.313Z</time></trkpt><trkpt lat="43.5102391" lon="12.0130973"><ele>517.0</ele><time>2026-04-04T12:12:25.313Z</time></trkpt><trkpt lat="43.5102689" lon="12.0131987"><ele>515.5</ele><time>2026-04-04T12:12:26.313Z</time></trkpt><trkpt lat="43.5102993" lon="12.0132884"><ele>514.0</ele><time>2026-04-04T12:12:27.313Z</time></trkpt><trkpt lat="43.5103212" lon="12.0133723"><ele>512.6666666666667</ele><time>2026-04-04T12:12:28.313Z</time></trkpt><trkpt lat="43.5103432" lon="12.0135411"><ele>511.33333333333337</ele><time>2026-04-04T12:12:30.313Z</time></trkpt><trkpt lat="43.5103547" lon="12.013644"><ele>510.0</ele><time>2026-04-04T12:12:31.313Z</time></trkpt><trkpt lat="43.5103625" lon="12.0137486"><ele>508.66666666666663</ele><time>2026-04-04T12:12:32.312Z</time></trkpt><trkpt lat="43.5103624" lon="12.0138617"><ele>507.3333333333333</ele><time>2026-04-04T12:12:33.313Z</time></trkpt><trkpt lat="43.5103591" lon="12.0139688"><ele>506.0</ele><time>2026-04-04T12:12:34.313Z</time></trkpt><trkpt lat="43.5103544" lon="12.0140883"><ele>504.3333333333333</ele><time>2026-04-04T12:12:35.312Z</time></trkpt><trkpt lat="43.5103521" lon="12.0142001"><ele>502.66666666666663</ele><time>2026-04-04T12:12:36.313Z</time></trkpt><trkpt lat="43.5103552" lon="12.0143111"><ele>501.0</ele><time>2026-04-04T12:12:37.313Z</time></trkpt><trkpt lat="43.5103649" lon="12.0144173"><ele>499.33333333333337</ele><time>2026-04-04T12:12:38.313Z</time></trkpt><trkpt lat="43.5103772" lon="12.0145208"><ele>497.6666666666667</ele><time>2026-04-04T12:12:39.313Z</time></trkpt><trkpt lat="43.5103913" lon="12.014623"><ele>496.0</ele><time>2026-04-04T12:12:40.313Z</time></trkpt><trkpt lat="43.5104041" lon="12.0147331"><ele>494.83333333333337</ele><time>2026-04-04T12:12:41.313Z</time></trkpt><trkpt lat="43.5104161" lon="12.0148376"><ele>493.6666666666667</ele><time>2026-04-04T12:12:42.313Z</time></trkpt><trkpt lat="43.5104232" lon="12.0149506"><ele>492.5</ele><time>2026-04-04T12:12:43.312Z</time></trkpt><trkpt lat="43.5104038" lon="12.015053"><ele>491.33333333333337</ele><time>2026-04-04T12:12:44.313Z</time></trkpt><trkpt lat="43.5103822" lon="12.0151607"><ele>490.1666666666667</ele><time>2026-04-04T12:12:45.313Z</time></trkpt><trkpt lat="43.5103601" lon="12.0152748"><ele>489.0</ele><time>2026-04-04T12:12:46.313Z</time></trkpt><trkpt lat="43.5103402" lon="12.0153799"><ele>489.0</ele><time>2026-04-04T12:12:47.313Z</time></trkpt><trkpt lat="43.5103214" lon="12.0154761"><ele>489.0</ele><time>2026-04-04T12:12:48.314Z</time></trkpt><trkpt lat="43.5103111" lon="12.0155991"><ele>489.0</ele><time>2026-04-04T12:12:49.313Z</time></trkpt><trkpt lat="43.5103076" lon="12.0157059"><ele>489.0</ele><time>2026-04-04T12:12:50.312Z</time></trkpt><trkpt lat="43.5103193" lon="12.0158262"><ele>489.0</ele><time>2026-04-04T12:12:51.313Z</time></trkpt><trkpt lat="43.510321" lon="12.0159429"><ele>489.0</ele><time>2026-04-04T12:12:52.313Z</time></trkpt><trkpt lat="43.5103218" lon="12.0160636"><ele>488.5</ele><time>2026-04-04T12:12:53.313Z</time></trkpt><trkpt lat="43.5103238" lon="12.0161626"><ele>488.0</ele><time>2026-04-04T12:12:54.314Z</time></trkpt><trkpt lat="43.51032" lon="12.0162727"><ele>487.5</ele><time>2026-04-04T12:12:55.313Z</time></trkpt><trkpt lat="43.5103218" lon="12.0163657"><ele>487.0</ele><time>2026-04-04T12:12:56.313Z</time></trkpt><trkpt lat="43.510315" lon="12.0164959"><ele>486.5</ele><time>2026-04-04T12:12:58.313Z</time></trkpt><trkpt lat="43.5102332" lon="12.0165184"><ele>486.0</ele><time>2026-04-04T12:13:01.313Z</time></trkpt><trkpt lat="43.5101705" lon="12.0164154"><ele>486.0</ele><time>2026-04-04T12:13:03.313Z</time></trkpt><trkpt lat="43.5101333" lon="12.0163428"><ele>486.0</ele><time>2026-04-04T12:13:04.313Z</time></trkpt><trkpt lat="43.5100851" lon="12.01627"><ele>486.0</ele><time>2026-04-04T12:13:05.313Z</time></trkpt><trkpt lat="43.5100287" lon="12.0161996"><ele>486.0</ele><time>2026-04-04T12:13:06.312Z</time></trkpt><trkpt lat="43.5099714" lon="12.0161354"><ele>486.0</ele><time>2026-04-04T12:13:07.313Z</time></trkpt><trkpt lat="43.509912" lon="12.0160806"><ele>486.0</ele><time>2026-04-04T12:13:08.313Z</time></trkpt><trkpt lat="43.5098509" lon="12.0160404"><ele>486.0</ele><time>2026-04-04T12:13:09.313Z</time></trkpt><trkpt lat="43.5097437" lon="12.0160216"><ele>486.0</ele><time>2026-04-04T12:13:11.313Z</time></trkpt><trkpt lat="43.5096754" lon="12.0161081"><ele>486.0</ele><time>2026-04-04T12:13:13.313Z</time></trkpt><trkpt lat="43.5096853" lon="12.0162797"><ele>486.0</ele><time>2026-04-04T12:13:15.313Z</time></trkpt><trkpt lat="43.5097393" lon="12.016451"><ele>486.0</ele><time>2026-04-04T12:13:17.313Z</time></trkpt><trkpt lat="43.5097672" lon="12.0165384"><ele>486.0</ele><time>2026-04-04T12:13:18.313Z</time></trkpt><trkpt lat="43.5097967" lon="12.0166237"><ele>485.0</ele><time>2026-04-04T12:13:19.312Z</time></trkpt><trkpt lat="43.509829" lon="12.0167128"><ele>484.0</ele><time>2026-04-04T12:13:20.312Z</time></trkpt><trkpt lat="43.5098581" lon="12.0168046"><ele>483.0</ele><time>2026-04-04T12:13:21.313Z</time></trkpt><trkpt lat="43.5098835" lon="12.0169068"><ele>482.0</ele><time>2026-04-04T12:13:22.313Z</time></trkpt><trkpt lat="43.5099145" lon="12.0170168"><ele>481.0</ele><time>2026-04-04T12:13:23.313Z</time></trkpt><trkpt lat="43.5099421" lon="12.0171317"><ele>480.0</ele><time>2026-04-04T12:13:24.313Z</time></trkpt><trkpt lat="43.5099657" lon="12.0172482"><ele>480.0</ele><time>2026-04-04T12:13:25.312Z</time></trkpt><trkpt lat="43.5099942" lon="12.0173684"><ele>480.0</ele><time>2026-04-04T12:13:26.313Z</time></trkpt><trkpt lat="43.5100202" lon="12.017496"><ele>480.0</ele><time>2026-04-04T12:13:27.313Z</time></trkpt><trkpt lat="43.5100403" lon="12.0176276"><ele>480.0</ele><time>2026-04-04T12:13:28.313Z</time></trkpt><trkpt lat="43.5100614" lon="12.0177571"><ele>480.0</ele><time>2026-04-04T12:13:29.313Z</time></trkpt><trkpt lat="43.5100754" lon="12.0178825"><ele>479.2</ele><time>2026-04-04T12:13:30.313Z</time></trkpt><trkpt lat="43.5100924" lon="12.0180067"><ele>478.4</ele><time>2026-04-04T12:13:31.313Z</time></trkpt><trkpt lat="43.5101041" lon="12.01813"><ele>477.6</ele><time>2026-04-04T12:13:32.313Z</time></trkpt><trkpt lat="43.5101109" lon="12.0182575"><ele>476.8</ele><time>2026-04-04T12:13:33.313Z</time></trkpt><trkpt lat="43.510116" lon="12.0183889"><ele>476.0</ele><time>2026-04-04T12:13:34.313Z</time></trkpt><trkpt lat="43.5101062" lon="12.0185205"><ele>474.3333333333333</ele><time>2026-04-04T12:13:35.313Z</time></trkpt><trkpt lat="43.5100996" lon="12.0186504"><ele>472.66666666666663</ele><time>2026-04-04T12:13:36.313Z</time></trkpt><trkpt lat="43.5100908" lon="12.0187718"><ele>471.0</ele><time>2026-04-04T12:13:37.313Z</time></trkpt><trkpt lat="43.5100866" lon="12.0188908"><ele>469.33333333333337</ele><time>2026-04-04T12:13:38.313Z</time></trkpt><trkpt lat="43.5100875" lon="12.0190073"><ele>467.6666666666667</ele><time>2026-04-04T12:13:39.313Z</time></trkpt><trkpt lat="43.5100923" lon="12.019124"><ele>466.0</ele><time>2026-04-04T12:13:40.313Z</time></trkpt><trkpt lat="43.5101088" lon="12.0192342"><ele>465.00000000000006</ele><time>2026-04-04T12:13:41.313Z</time></trkpt><trkpt lat="43.5101399" lon="12.0193327"><ele>464.0</ele><time>2026-04-04T12:13:42.313Z</time></trkpt><trkpt lat="43.5101876" lon="12.0194192"><ele>463.0</ele><time>2026-04-04T12:13:43.313Z</time></trkpt><trkpt lat="43.5102473" lon="12.0194877"><ele>462.0</ele><time>2026-04-04T12:13:44.313Z</time></trkpt><trkpt lat="43.5103092" lon="12.0195447"><ele>461.00000000000006</ele><time>2026-04-04T12:13:45.313Z</time></trkpt><trkpt lat="43.5103678" lon="12.0196018"><ele>460.0</ele><time>2026-04-04T12:13:46.313Z</time></trkpt><trkpt lat="43.5104248" lon="12.0196594"><ele>460.00000000000006</ele><time>2026-04-04T12:13:47.313Z</time></trkpt><trkpt lat="43.5104772" lon="12.0197145"><ele>460.0</ele><time>2026-04-04T12:13:48.313Z</time></trkpt><trkpt lat="43.5105288" lon="12.0198386"><ele>460.0</ele><time>2026-04-04T12:13:50.313Z</time></trkpt><trkpt lat="43.5104914" lon="12.0199521"><ele>460.0</ele><time>2026-04-04T12:13:52.313Z</time></trkpt><trkpt lat="43.5103878" lon="12.0199805"><ele>460.00000000000006</ele><time>2026-04-04T12:13:54.313Z</time></trkpt><trkpt lat="43.5103161" lon="12.0199718"><ele>460.0</ele><time>2026-04-04T12:13:55.313Z</time></trkpt><trkpt lat="43.510236" lon="12.0199517"><ele>460.00000000000006</ele><time>2026-04-04T12:13:56.313Z</time></trkpt><trkpt lat="43.5101533" lon="12.0199291"><ele>460.0</ele><time>2026-04-04T12:13:57.314Z</time></trkpt><trkpt lat="43.5100717" lon="12.0199061"><ele>460.0</ele><time>2026-04-04T12:13:58.312Z</time></trkpt><trkpt lat="43.5099964" lon="12.0198831"><ele>460.0</ele><time>2026-04-04T12:13:59.313Z</time></trkpt><trkpt lat="43.5099211" lon="12.0198714"><ele>460.00000000000006</ele><time>2026-04-04T12:14:00.313Z</time></trkpt><trkpt lat="43.5098471" lon="12.0198809"><ele>460.0</ele><time>2026-04-04T12:14:01.313Z</time></trkpt><trkpt lat="43.509773" lon="12.0199108"><ele>460.00000000000006</ele><time>2026-04-04T12:14:02.313Z</time></trkpt><trkpt lat="43.5097001" lon="12.0199561"><ele>460.0</ele><time>2026-04-04T12:14:03.313Z</time></trkpt><trkpt lat="43.5096308" lon="12.0200059"><ele>460.0</ele><time>2026-04-04T12:14:04.313Z</time></trkpt><trkpt lat="43.5095686" lon="12.0200682"><ele>460.0</ele><time>2026-04-04T12:14:05.312Z</time></trkpt><trkpt lat="43.5095074" lon="12.0201306"><ele>460.00000000000006</ele><time>2026-04-04T12:14:06.313Z</time></trkpt><trkpt lat="43.5094463" lon="12.0201867"><ele>460.0</ele><time>2026-04-04T12:14:07.313Z</time></trkpt><trkpt lat="43.5093795" lon="12.0202296"><ele>458.14285714285705</ele><time>2026-04-04T12:14:08.313Z</time></trkpt><trkpt lat="43.5093082" lon="12.0202514"><ele>456.2857142857143</ele><time>2026-04-04T12:14:09.313Z</time></trkpt><trkpt lat="43.5092362" lon="12.0202423"><ele>454.4285714285714</ele><time>2026-04-04T12:14:10.313Z</time></trkpt><trkpt lat="43.5091732" lon="12.0202014"><ele>452.57142857142856</ele><time>2026-04-04T12:14:11.313Z</time></trkpt><trkpt lat="43.5091204" lon="12.0201375"><ele>450.71428571428567</ele><time>2026-04-04T12:14:12.313Z</time></trkpt><trkpt lat="43.5090723" lon="12.0200517"><ele>448.85714285714283</ele><time>2026-04-04T12:14:13.312Z</time></trkpt><trkpt lat="43.5090327" lon="12.019953"><ele>447.0</ele><time>2026-04-04T12:14:14.313Z</time></trkpt><trkpt lat="43.5090083" lon="12.0198417"><ele>447.0</ele><time>2026-04-04T12:14:15.313Z</time></trkpt><trkpt lat="43.5089969" lon="12.0197217"><ele>447.0</ele><time>2026-04-04T12:14:16.312Z</time></trkpt><trkpt lat="43.5089995" lon="12.0195995"><ele>447.0</ele><time>2026-04-04T12:14:17.313Z</time></trkpt><trkpt lat="43.5090021" lon="12.0194798"><ele>447.0</ele><time>2026-04-04T12:14:18.313Z</time></trkpt><trkpt lat="43.508993" lon="12.0193629"><ele>447.0</ele><time>2026-04-04T12:14:19.313Z</time></trkpt><trkpt lat="43.5089677" lon="12.0192475"><ele>447.0</ele><time>2026-04-04T12:14:20.313Z</time></trkpt><trkpt lat="43.5089244" lon="12.0191345"><ele>447.40000000000003</ele><time>2026-04-04T12:14:21.314Z</time></trkpt><trkpt lat="43.5088692" lon="12.0190366"><ele>447.80000000000007</ele><time>2026-04-04T12:14:22.313Z</time></trkpt><trkpt lat="43.508804" lon="12.0189444"><ele>448.2</ele><time>2026-04-04T12:14:23.313Z</time></trkpt><trkpt lat="43.5087281" lon="12.0188577"><ele>448.6</ele><time>2026-04-04T12:14:24.313Z</time></trkpt><trkpt lat="43.5086514" lon="12.0187744"><ele>449.0</ele><time>2026-04-04T12:14:25.313Z</time></trkpt><trkpt lat="43.5085768" lon="12.0186926"><ele>447.79999999999995</ele><time>2026-04-04T12:14:26.313Z</time></trkpt><trkpt lat="43.5084968" lon="12.0186083"><ele>446.59999999999997</ele><time>2026-04-04T12:14:27.313Z</time></trkpt><trkpt lat="43.5084206" lon="12.018523"><ele>445.4</ele><time>2026-04-04T12:14:28.314Z</time></trkpt><trkpt lat="43.5083409" lon="12.0184386"><ele>444.2</ele><time>2026-04-04T12:14:29.313Z</time></trkpt><trkpt lat="43.5082661" lon="12.0183559"><ele>443.0</ele><time>2026-04-04T12:14:30.312Z</time></trkpt><trkpt lat="43.5081931" lon="12.0182717"><ele>443.0</ele><time>2026-04-04T12:14:31.313Z</time></trkpt><trkpt lat="43.5081238" lon="12.0181918"><ele>442.99999999999994</ele><time>2026-04-04T12:14:32.313Z</time></trkpt><trkpt lat="43.5080587" lon="12.0181067"><ele>442.99999999999994</ele><time>2026-04-04T12:14:33.313Z</time></trkpt><trkpt lat="43.5079949" lon="12.0180147"><ele>443.0</ele><time>2026-04-04T12:14:34.313Z</time></trkpt><trkpt lat="43.5079363" lon="12.0179137"><ele>443.0</ele><time>2026-04-04T12:14:35.312Z</time></trkpt><trkpt lat="43.507884" lon="12.0178042"><ele>440.8333333333333</ele><time>2026-04-04T12:14:36.313Z</time></trkpt><trkpt lat="43.5078392" lon="12.0176954"><ele>438.66666666666663</ele><time>2026-04-04T12:14:37.313Z</time></trkpt><trkpt lat="43.5077982" lon="12.017586"><ele>436.5</ele><time>2026-04-04T12:14:38.313Z</time></trkpt><trkpt lat="43.5077573" lon="12.0174791"><ele>434.33333333333337</ele><time>2026-04-04T12:14:39.313Z</time></trkpt><trkpt lat="43.5077153" lon="12.017373"><ele>432.1666666666667</ele><time>2026-04-04T12:14:40.313Z</time></trkpt><trkpt lat="43.5076735" lon="12.0172641"><ele>430.0</ele><time>2026-04-04T12:14:41.313Z</time></trkpt><trkpt lat="43.5076268" lon="12.0171555"><ele>430.0</ele><time>2026-04-04T12:14:42.313Z</time></trkpt><trkpt lat="43.5075805" lon="12.0170408"><ele>430.0</ele><time>2026-04-04T12:14:43.312Z</time></trkpt><trkpt lat="43.5075314" lon="12.0169258"><ele>430.0</ele><time>2026-04-04T12:14:44.313Z</time></trkpt><trkpt lat="43.507484" lon="12.0168145"><ele>430.0</ele><time>2026-04-04T12:14:45.313Z</time></trkpt><trkpt lat="43.5074363" lon="12.0167134"><ele>430.0</ele><time>2026-04-04T12:14:46.313Z</time></trkpt><trkpt lat="43.5073965" lon="12.0166231"><ele>430.0</ele><time>2026-04-04T12:14:47.313Z</time></trkpt><trkpt lat="43.5073201" lon="12.0165104"><ele>430.0</ele><time>2026-04-04T12:14:49.313Z</time></trkpt><trkpt lat="43.5072319" lon="12.0165067"><ele>430.0</ele><time>2026-04-04T12:14:51.313Z</time></trkpt><trkpt lat="43.5071983" lon="12.0166222"><ele>430.0</ele><time>2026-04-04T12:14:53.313Z</time></trkpt><trkpt lat="43.5072529" lon="12.0167921"><ele>430.0</ele><time>2026-04-04T12:14:55.313Z</time></trkpt><trkpt lat="43.5072935" lon="12.016891"><ele>430.0</ele><time>2026-04-04T12:14:56.313Z</time></trkpt><trkpt lat="43.507326" lon="12.0169996"><ele>430.0</ele><time>2026-04-04T12:14:57.313Z</time></trkpt><trkpt lat="43.5073563" lon="12.0171215"><ele>430.0</ele><time>2026-04-04T12:14:58.313Z</time></trkpt><trkpt lat="43.5073807" lon="12.0172535"><ele>430.0</ele><time>2026-04-04T12:14:59.313Z</time></trkpt><trkpt lat="43.5073998" lon="12.0173906"><ele>430.0</ele><time>2026-04-04T12:15:00.313Z</time></trkpt><trkpt lat="43.5074135" lon="12.0175285"><ele>429.2</ele><time>2026-04-04T12:15:01.313Z</time></trkpt><trkpt lat="43.5074303" lon="12.0176672"><ele>428.4</ele><time>2026-04-04T12:15:02.313Z</time></trkpt><trkpt lat="43.5074433" lon="12.0178013"><ele>427.6</ele><time>2026-04-04T12:15:03.313Z</time></trkpt><trkpt lat="43.5074529" lon="12.0179362"><ele>426.8</ele><time>2026-04-04T12:15:04.312Z</time></trkpt><trkpt lat="43.5074571" lon="12.0180703"><ele>426.0</ele><time>2026-04-04T12:15:05.313Z</time></trkpt><trkpt lat="43.507454" lon="12.0182045"><ele>425.0</ele><time>2026-04-04T12:15:06.313Z</time></trkpt><trkpt lat="43.5074471" lon="12.0183367"><ele>424.0</ele><time>2026-04-04T12:15:07.312Z</time></trkpt><trkpt lat="43.5074354" lon="12.0184595"><ele>423.0</ele><time>2026-04-04T12:15:08.313Z</time></trkpt><trkpt lat="43.5074214" lon="12.0185692"><ele>422.0</ele><time>2026-04-04T12:15:09.313Z</time></trkpt><trkpt lat="43.5074038" lon="12.0186586"><ele>421.0</ele><time>2026-04-04T12:15:10.314Z</time></trkpt><trkpt lat="43.5073691" lon="12.0187897"><ele>420.0</ele><time>2026-04-04T12:15:12.313Z</time></trkpt><trkpt lat="43.5073432" lon="12.0188979"><ele>420.0</ele><time>2026-04-04T12:15:14.313Z</time></trkpt><trkpt lat="43.5073298" lon="12.0189957"><ele>420.0</ele><time>2026-04-04T12:15:16.313Z</time></trkpt><trkpt lat="43.5073215" lon="12.0190923"><ele>420.0</ele><time>2026-04-04T12:15:19.313Z</time></trkpt><trkpt lat="43.5073068" lon="12.0192027"><ele>420.0</ele><time>2026-04-04T12:15:23.313Z</time></trkpt><trkpt lat="43.5073061" lon="12.0193126"><ele>420.0</ele><time>2026-04-04T12:15:26.313Z</time></trkpt><trkpt lat="43.5072154" lon="12.0193454"><ele>420.0</ele><time>2026-04-04T12:15:30.313Z</time></trkpt><trkpt lat="43.5071419" lon="12.0193951"><ele>416.0</ele><time>2026-04-04T12:15:33.313Z</time></trkpt><trkpt lat="43.507057" lon="12.019438"><ele>412.0</ele><time>2026-04-04T12:15:36.313Z</time></trkpt><trkpt lat="43.5069865" lon="12.0194454"><ele>408.0</ele><time>2026-04-04T12:15:38.313Z</time></trkpt><trkpt lat="43.5068434" lon="12.019471"><ele>404.0</ele><time>2026-04-04T12:15:40.313Z</time></trkpt><trkpt lat="43.5067166" lon="12.0194865"><ele>400.0</ele><time>2026-04-04T12:15:42.313Z</time></trkpt><trkpt lat="43.5066372" lon="12.0194856"><ele>400.00000000000006</ele><time>2026-04-04T12:15:44.313Z</time></trkpt><trkpt lat="43.5065552" lon="12.0194656"><ele>400.0</ele><time>2026-04-04T12:15:46.312Z</time></trkpt><trkpt lat="43.5064711" lon="12.0194716"><ele>400.0</ele><time>2026-04-04T12:15:48.312Z</time></trkpt><trkpt lat="43.5064265" lon="12.0194069"><ele>400.0</ele><time>2026-04-04T12:15:51.313Z</time></trkpt><trkpt lat="43.5063555" lon="12.0193764"><ele>400.00000000000006</ele><time>2026-04-04T12:15:53.312Z</time></trkpt><trkpt lat="43.5062942" lon="12.0193989"><ele>400.0</ele><time>2026-04-04T12:15:54.313Z</time></trkpt><trkpt lat="43.5062132" lon="12.0193975"><ele>399.1666666666667</ele><time>2026-04-04T12:15:56.313Z</time></trkpt><trkpt lat="43.5061295" lon="12.0193825"><ele>398.33333333333337</ele><time>2026-04-04T12:15:58.313Z</time></trkpt><trkpt lat="43.5060649" lon="12.0193209"><ele>397.5</ele><time>2026-04-04T12:16:01.313Z</time></trkpt><trkpt lat="43.5060091" lon="12.0192436"><ele>396.66666666666663</ele><time>2026-04-04T12:16:04.313Z</time></trkpt><trkpt lat="43.5059708" lon="12.0191723"><ele>395.8333333333333</ele><time>2026-04-04T12:16:07.313Z</time></trkpt><trkpt lat="43.5059343" lon="12.019066"><ele>395.0</ele><time>2026-04-04T12:17:17.312Z</time></trkpt><trkpt lat="43.5058854" lon="12.0189757"><ele>395.0</ele><time>2026-04-04T12:17:19.313Z</time></trkpt><trkpt lat="43.5058338" lon="12.0188252"><ele>395.0</ele><time>2026-04-04T12:17:21.312Z</time></trkpt><trkpt lat="43.5057784" lon="12.0187401"><ele>395.0</ele><time>2026-04-04T12:17:23.313Z</time></trkpt><trkpt lat="43.5057469" lon="12.0186531"><ele>395.0</ele><time>2026-04-04T12:17:24.313Z</time></trkpt><trkpt lat="43.5056913" lon="12.0185563"><ele>395.0</ele><time>2026-04-04T12:17:25.313Z</time></trkpt><trkpt lat="43.5056671" lon="12.0184196"><ele>394.99999999999994</ele><time>2026-04-04T12:17:26.313Z</time></trkpt><trkpt lat="43.5056577" lon="12.0183244"><ele>395.0</ele><time>2026-04-04T12:17:27.313Z</time></trkpt><trkpt lat="43.5056383" lon="12.0182052"><ele>395.0</ele><time>2026-04-04T12:17:28.313Z</time></trkpt><trkpt lat="43.5056278" lon="12.0180954"><ele>395.0</ele><time>2026-04-04T12:17:29.312Z</time></trkpt><trkpt lat="43.5056587" lon="12.0179848"><ele>394.99999999999994</ele><time>2026-04-04T12:17:30.313Z</time></trkpt><trkpt lat="43.5056536" lon="12.0178896"><ele>395.0</ele><time>2026-04-04T12:17:31.313Z</time></trkpt><trkpt lat="43.5056385" lon="12.0176936"><ele>396.6</ele><time>2026-04-04T12:17:34.313Z</time></trkpt><trkpt lat="43.5055864" lon="12.0176236"><ele>398.2</ele><time>2026-04-04T12:17:35.313Z</time></trkpt><trkpt lat="43.5055514" lon="12.0174873"><ele>399.79999999999995</ele><time>2026-04-04T12:17:37.313Z</time></trkpt><trkpt lat="43.5055303" lon="12.0173227"><ele>401.4</ele><time>2026-04-04T12:17:39.313Z</time></trkpt><trkpt lat="43.5055032" lon="12.0172351"><ele>403.0</ele><time>2026-04-04T12:17:40.313Z</time></trkpt><trkpt lat="43.5054427" lon="12.0171564"><ele>402.59999999999997</ele><time>2026-04-04T12:17:41.312Z</time></trkpt><trkpt lat="43.5053878" lon="12.0170761"><ele>402.2</ele><time>2026-04-04T12:17:42.312Z</time></trkpt><trkpt lat="43.5053381" lon="12.0169204"><ele>401.8</ele><time>2026-04-04T12:17:44.312Z</time></trkpt><trkpt lat="43.5053302" lon="12.0167918"><ele>401.4</ele><time>2026-04-04T12:17:45.313Z</time></trkpt><trkpt lat="43.5052646" lon="12.0166756"><ele>401.0</ele><time>2026-04-04T12:17:46.313Z</time></trkpt><trkpt lat="43.5052292" lon="12.016589"><ele>402.66666666666663</ele><time>2026-04-04T12:17:47.312Z</time></trkpt><trkpt lat="43.5051669" lon="12.0165523"><ele>404.3333333333333</ele><time>2026-04-04T12:17:48.313Z</time></trkpt><trkpt lat="43.5051149" lon="12.0164808"><ele>406.0</ele><time>2026-04-04T12:17:49.312Z</time></trkpt><trkpt lat="43.505062" lon="12.0164218"><ele>407.66666666666663</ele><time>2026-04-04T12:17:50.313Z</time></trkpt><trkpt lat="43.5049359" lon="12.0163309"><ele>409.3333333333333</ele><time>2026-04-04T12:17:52.313Z</time></trkpt><trkpt lat="43.5048798" lon="12.0162751"><ele>411.0</ele><time>2026-04-04T12:17:53.313Z</time></trkpt><trkpt lat="43.5047833" lon="12.0161891"><ele>411.0</ele><time>2026-04-04T12:17:55.312Z</time></trkpt><trkpt lat="43.5047114" lon="12.0161188"><ele>411.0</ele><time>2026-04-04T12:17:57.313Z</time></trkpt><trkpt lat="43.5046336" lon="12.016099"><ele>411.0</ele><time>2026-04-04T12:17:59.314Z</time></trkpt><trkpt lat="43.5045562" lon="12.0160416"><ele>411.0</ele><time>2026-04-04T12:18:02.313Z</time></trkpt><trkpt lat="43.5045032" lon="12.01599"><ele>411.0</ele><time>2026-04-04T12:18:05.312Z</time></trkpt><trkpt lat="43.5044546" lon="12.0159049"><ele>411.0</ele><time>2026-04-04T12:18:10.313Z</time></trkpt><trkpt lat="43.5042741" lon="12.0157042"><ele>411.0</ele><time>2026-04-04T12:18:12.313Z</time></trkpt><trkpt lat="43.5042237" lon="12.0156173"><ele>411.0</ele><time>2026-04-04T12:18:14.313Z</time></trkpt><trkpt lat="43.5041791" lon="12.0155363"><ele>411.0</ele><time>2026-04-04T12:18:17.313Z</time></trkpt><trkpt lat="43.5041338" lon="12.0154361"><ele>411.0</ele><time>2026-04-04T12:18:19.312Z</time></trkpt><trkpt lat="43.5041116" lon="12.0153338"><ele>411.0</ele><time>2026-04-04T12:18:21.313Z</time></trkpt><trkpt lat="43.504108" lon="12.0152244"><ele>411.0</ele><time>2026-04-04T12:18:23.313Z</time></trkpt><trkpt lat="43.5041154" lon="12.0151191"><ele>411.0</ele><time>2026-04-04T12:18:25.313Z</time></trkpt><trkpt lat="43.5041301" lon="12.0150091"><ele>411.0</ele><time>2026-04-04T12:18:27.314Z</time></trkpt><trkpt lat="43.5041618" lon="12.0148891"><ele>411.0</ele><time>2026-04-04T12:18:29.312Z</time></trkpt><trkpt lat="43.5041428" lon="12.0147859"><ele>411.0</ele><time>2026-04-04T12:18:33.314Z</time></trkpt><trkpt lat="43.5041145" lon="12.0146907"><ele>411.0</ele><time>2026-04-04T12:18:35.313Z</time></trkpt><trkpt lat="43.5041103" lon="12.0145885"><ele>411.0</ele><time>2026-04-04T12:18:37.313Z</time></trkpt><trkpt lat="43.5041266" lon="12.0144902"><ele>411.0</ele><time>2026-04-04T12:18:39.313Z</time></trkpt><trkpt lat="43.5041354" lon="12.0143897"><ele>411.0</ele><time>2026-04-04T12:18:41.313Z</time></trkpt><trkpt lat="43.5041296" lon="12.0142397"><ele>411.0</ele><time>2026-04-04T12:18:42.313Z</time></trkpt><trkpt lat="43.5041268" lon="12.014122"><ele>411.0</ele><time>2026-04-04T12:18:44.312Z</time></trkpt><trkpt lat="43.5041196" lon="12.0140197"><ele>411.0</ele><time>2026-04-04T12:18:46.312Z</time></trkpt><trkpt lat="43.5041024" lon="12.0139061"><ele>411.0</ele><time>2026-04-04T12:18:48.313Z</time></trkpt><trkpt lat="43.5040389" lon="12.0137834"><ele>411.0</ele><time>2026-04-04T12:18:50.313Z</time></trkpt><trkpt lat="43.5039836" lon="12.0136942"><ele>411.0</ele><time>2026-04-04T12:18:51.313Z</time></trkpt><trkpt lat="43.5039063" lon="12.01358"><ele>411.0</ele><time>2026-04-04T12:18:53.313Z</time></trkpt><trkpt lat="43.503868" lon="12.0134989"><ele>411.0</ele><time>2026-04-04T12:18:54.313Z</time></trkpt><trkpt lat="43.5038145" lon="12.0134175"><ele>411.0</ele><time>2026-04-04T12:18:55.313Z</time></trkpt><trkpt lat="43.5037693" lon="12.0133406"><ele>411.0</ele><time>2026-04-04T12:18:56.313Z</time></trkpt><trkpt lat="43.5037251" lon="12.0132599"><ele>412.4</ele><time>2026-04-04T12:18:57.313Z</time></trkpt><trkpt lat="43.503668" lon="12.0130851"><ele>413.8</ele><time>2026-04-04T12:18:59.313Z</time></trkpt><trkpt lat="43.5036691" lon="12.0129739"><ele>415.2</ele><time>2026-04-04T12:19:00.313Z</time></trkpt><trkpt lat="43.5036771" lon="12.012871"><ele>416.59999999999997</ele><time>2026-04-04T12:19:01.312Z</time></trkpt><trkpt lat="43.5036781" lon="12.0127645"><ele>418.0</ele><time>2026-04-04T12:19:02.312Z</time></trkpt><trkpt lat="43.5036913" lon="12.0126376"><ele>418.00000000000006</ele><time>2026-04-04T12:19:03.313Z</time></trkpt><trkpt lat="43.5036945" lon="12.0125094"><ele>418.0</ele><time>2026-04-04T12:19:04.313Z</time></trkpt><trkpt lat="43.5036877" lon="12.0124041"><ele>418.0</ele><time>2026-04-04T12:19:05.312Z</time></trkpt><trkpt lat="43.5036639" lon="12.0123207"><ele>418.0</ele><time>2026-04-04T12:19:06.313Z</time></trkpt><trkpt lat="43.5036357" lon="12.0122388"><ele>418.00000000000006</ele><time>2026-04-04T12:19:07.313Z</time></trkpt><trkpt lat="43.5035889" lon="12.0121572"><ele>418.0</ele><time>2026-04-04T12:19:08.314Z</time></trkpt><trkpt lat="43.5035636" lon="12.0120483"><ele>418.0</ele><time>2026-04-04T12:19:09.313Z</time></trkpt><trkpt lat="43.5035601" lon="12.0118974"><ele>418.0</ele><time>2026-04-04T12:19:11.313Z</time></trkpt><trkpt lat="43.5035429" lon="12.0118105"><ele>418.0</ele><time>2026-04-04T12:19:12.313Z</time></trkpt><trkpt lat="43.5034593" lon="12.0116972"><ele>418.0</ele><time>2026-04-04T12:19:14.313Z</time></trkpt><trkpt lat="43.5034094" lon="12.0116395"><ele>418.0</ele><time>2026-04-04T12:19:15.313Z</time></trkpt><trkpt lat="43.5033382" lon="12.0115353"><ele>418.79999999999995</ele><time>2026-04-04T12:19:17.313Z</time></trkpt><trkpt lat="43.5032849" lon="12.0114025"><ele>419.6</ele><time>2026-04-04T12:19:19.313Z</time></trkpt><trkpt lat="43.503233" lon="12.0112657"><ele>420.4</ele><time>2026-04-04T12:19:21.312Z</time></trkpt><trkpt lat="43.5031583" lon="12.0111002"><ele>421.20000000000005</ele><time>2026-04-04T12:19:23.313Z</time></trkpt><trkpt lat="43.5031159" lon="12.0110228"><ele>422.0</ele><time>2026-04-04T12:19:24.313Z</time></trkpt><trkpt lat="43.5030348" lon="12.010921"><ele>422.0</ele><time>2026-04-04T12:19:26.313Z</time></trkpt><trkpt lat="43.5029877" lon="12.0108539"><ele>422.0</ele><time>2026-04-04T12:19:27.313Z</time></trkpt><trkpt lat="43.5029218" lon="12.0107871"><ele>422.0</ele><time>2026-04-04T12:19:28.313Z</time></trkpt><trkpt lat="43.5028467" lon="12.0107391"><ele>422.0</ele><time>2026-04-04T12:19:29.313Z</time></trkpt><trkpt lat="43.5026999" lon="12.0107751"><ele>422.0</ele><time>2026-04-04T12:19:31.312Z</time></trkpt><trkpt lat="43.5026012" lon="12.0107776"><ele>424.6</ele><time>2026-04-04T12:19:32.313Z</time></trkpt><trkpt lat="43.5024691" lon="12.0107569"><ele>427.20000000000005</ele><time>2026-04-04T12:19:34.313Z</time></trkpt><trkpt lat="43.5023951" lon="12.0106975"><ele>429.8</ele><time>2026-04-04T12:19:35.314Z</time></trkpt><trkpt lat="43.5022897" lon="12.0106287"><ele>432.4</ele><time>2026-04-04T12:19:37.313Z</time></trkpt><trkpt lat="43.5022322" lon="12.0105918"><ele>435.0</ele><time>2026-04-04T12:19:38.313Z</time></trkpt><trkpt lat="43.5021604" lon="12.0105596"><ele>435.0</ele><time>2026-04-04T12:19:39.313Z</time></trkpt><trkpt lat="43.5020886" lon="12.0105221"><ele>435.0</ele><time>2026-04-04T12:19:40.313Z</time></trkpt><trkpt lat="43.5019703" lon="12.0104915"><ele>435.0</ele><time>2026-04-04T12:19:42.313Z</time></trkpt><trkpt lat="43.5018566" lon="12.0104936"><ele>435.0</ele><time>2026-04-04T12:19:44.313Z</time></trkpt><trkpt lat="43.5017439" lon="12.0105236"><ele>435.0</ele><time>2026-04-04T12:19:45.313Z</time></trkpt><trkpt lat="43.5016518" lon="12.0105138"><ele>435.6666666666667</ele><time>2026-04-04T12:19:46.313Z</time></trkpt><trkpt lat="43.5015443" lon="12.0104916"><ele>436.33333333333337</ele><time>2026-04-04T12:19:48.312Z</time></trkpt><trkpt lat="43.5014627" lon="12.0104546"><ele>437.0</ele><time>2026-04-04T12:19:50.313Z</time></trkpt><trkpt lat="43.5013891" lon="12.0103648"><ele>437.6666666666667</ele><time>2026-04-04T12:19:52.313Z</time></trkpt><trkpt lat="43.5013296" lon="12.0102913"><ele>438.33333333333337</ele><time>2026-04-04T12:19:54.313Z</time></trkpt><trkpt lat="43.5012735" lon="12.0102301"><ele>439.0</ele><time>2026-04-04T12:19:56.313Z</time></trkpt><trkpt lat="43.5011977" lon="12.0101948"><ele>439.00000000000006</ele><time>2026-04-04T12:19:58.313Z</time></trkpt><trkpt lat="43.5011199" lon="12.0101619"><ele>439.0</ele><time>2026-04-04T12:20:00.314Z</time></trkpt><trkpt lat="43.5010551" lon="12.010195"><ele>439.0</ele><time>2026-04-04T12:20:02.313Z</time></trkpt><trkpt lat="43.500966" lon="12.010261"><ele>439.0</ele><time>2026-04-04T12:20:05.313Z</time></trkpt><trkpt lat="43.500892" lon="12.0103059"><ele>439.00000000000006</ele><time>2026-04-04T12:20:07.313Z</time></trkpt><trkpt lat="43.5007975" lon="12.0103437"><ele>439.0</ele><time>2026-04-04T12:20:09.313Z</time></trkpt><trkpt lat="43.500711" lon="12.010329"><ele>439.00000000000006</ele><time>2026-04-04T12:20:11.313Z</time></trkpt><trkpt lat="43.5006427" lon="12.0102422"><ele>439.0</ele><time>2026-04-04T12:20:12.312Z</time></trkpt><trkpt lat="43.5005633" lon="12.0101573"><ele>439.0</ele><time>2026-04-04T12:20:13.314Z</time></trkpt><trkpt lat="43.5004999" lon="12.0100995"><ele>439.0</ele><time>2026-04-04T12:20:14.313Z</time></trkpt><trkpt lat="43.5004183" lon="12.010045"><ele>439.00000000000006</ele><time>2026-04-04T12:20:15.313Z</time></trkpt><trkpt lat="43.5003308" lon="12.0100326"><ele>439.0</ele><time>2026-04-04T12:20:16.314Z</time></trkpt><trkpt lat="43.5002659" lon="12.0100087"><ele>439.50000000000006</ele><time>2026-04-04T12:20:17.313Z</time></trkpt><trkpt lat="43.5001939" lon="12.0100462"><ele>440.0</ele><time>2026-04-04T12:20:45.313Z</time></trkpt><trkpt lat="43.500193" lon="12.0101408"><ele>440.5</ele><time>2026-04-04T12:20:49.313Z</time></trkpt><trkpt lat="43.5002615" lon="12.0101903"><ele>441.0</ele><time>2026-04-04T12:20:52.313Z</time></trkpt><trkpt lat="43.5003293" lon="12.0102641"><ele>441.50000000000006</ele><time>2026-04-04T12:20:55.314Z</time></trkpt><trkpt lat="43.5003307" lon="12.0103528"><ele>442.0</ele><time>2026-04-04T12:20:57.313Z</time></trkpt><trkpt lat="43.5003231" lon="12.0104701"><ele>442.00000000000006</ele><time>2026-04-04T12:20:59.313Z</time></trkpt><trkpt lat="43.5003005" lon="12.0105914"><ele>442.0</ele><time>2026-04-04T12:21:01.314Z</time></trkpt><trkpt lat="43.5002743" lon="12.0106778"><ele>442.0</ele><time>2026-04-04T12:21:03.313Z</time></trkpt><trkpt lat="43.5002963" lon="12.0107744"><ele>442.0</ele><time>2026-04-04T12:21:05.313Z</time></trkpt><trkpt lat="43.5003336" lon="12.0109275"><ele>442.00000000000006</ele><time>2026-04-04T12:21:07.313Z</time></trkpt><trkpt lat="43.5003298" lon="12.0110534"><ele>442.0</ele><time>2026-04-04T12:21:09.312Z</time></trkpt><trkpt lat="43.5002863" lon="12.0111213"><ele>443.8</ele><time>2026-04-04T12:21:11.312Z</time></trkpt><trkpt lat="43.5002107" lon="12.0112163"><ele>445.6</ele><time>2026-04-04T12:21:13.313Z</time></trkpt><trkpt lat="43.5001522" lon="12.011377"><ele>447.40000000000003</ele><time>2026-04-04T12:21:15.313Z</time></trkpt><trkpt lat="43.5001138" lon="12.0114676"><ele>449.20000000000005</ele><time>2026-04-04T12:21:16.313Z</time></trkpt><trkpt lat="43.5000771" lon="12.0115459"><ele>451.0</ele><time>2026-04-04T12:21:17.313Z</time></trkpt><trkpt lat="43.5000052" lon="12.0116954"><ele>452.85714285714283</ele><time>2026-04-04T12:21:19.313Z</time></trkpt><trkpt lat="43.4999605" lon="12.0117617"><ele>454.7142857142858</ele><time>2026-04-04T12:21:20.313Z</time></trkpt><trkpt lat="43.4999041" lon="12.0118036"><ele>456.5714285714286</ele><time>2026-04-04T12:21:21.312Z</time></trkpt><trkpt lat="43.4998489" lon="12.0118636"><ele>458.42857142857144</ele><time>2026-04-04T12:21:22.313Z</time></trkpt><trkpt lat="43.4997555" lon="12.0118782"><ele>460.28571428571433</ele><time>2026-04-04T12:21:24.313Z</time></trkpt><trkpt lat="43.4996885" lon="12.011899"><ele>462.1428571428572</ele><time>2026-04-04T12:21:25.313Z</time></trkpt><trkpt lat="43.4996275" lon="12.0119216"><ele>464.00000000000006</ele><time>2026-04-04T12:21:26.312Z</time></trkpt><trkpt lat="43.4994783" lon="12.0118647"><ele>464.66666666666663</ele><time>2026-04-04T12:21:28.313Z</time></trkpt><trkpt lat="43.4994104" lon="12.0118481"><ele>465.3333333333333</ele><time>2026-04-04T12:21:29.313Z</time></trkpt><trkpt lat="43.4993086" lon="12.0119053"><ele>466.0</ele><time>2026-04-04T12:21:31.313Z</time></trkpt><trkpt lat="43.4992569" lon="12.0119575"><ele>466.66666666666663</ele><time>2026-04-04T12:21:32.314Z</time></trkpt><trkpt lat="43.4991969" lon="12.0120511"><ele>467.3333333333333</ele><time>2026-04-04T12:21:33.313Z</time></trkpt><trkpt lat="43.4990901" lon="12.0120486"><ele>468.0</ele><time>2026-04-04T12:21:34.313Z</time></trkpt><trkpt lat="43.4989969" lon="12.0120763"><ele>468.0</ele><time>2026-04-04T12:21:35.313Z</time></trkpt><trkpt lat="43.4989266" lon="12.0120956"><ele>467.99999999999994</ele><time>2026-04-04T12:21:36.313Z</time></trkpt><trkpt lat="43.4988322" lon="12.0121533"><ele>467.99999999999994</ele><time>2026-04-04T12:21:38.314Z</time></trkpt><trkpt lat="43.4987768" lon="12.0122586"><ele>468.0</ele><time>2026-04-04T12:21:40.313Z</time></trkpt><trkpt lat="43.4986834" lon="12.01228"><ele>468.0</ele><time>2026-04-04T12:21:42.313Z</time></trkpt><trkpt lat="43.4985553" lon="12.0122484"><ele>470.42857142857144</ele><time>2026-04-04T12:21:44.313Z</time></trkpt><trkpt lat="43.49849" lon="12.0122489"><ele>472.8571428571429</ele><time>2026-04-04T12:21:45.313Z</time></trkpt><trkpt lat="43.4984234" lon="12.0122728"><ele>475.28571428571433</ele><time>2026-04-04T12:21:46.313Z</time></trkpt><trkpt lat="43.49836" lon="12.0122913"><ele>477.7142857142858</ele><time>2026-04-04T12:21:47.313Z</time></trkpt><trkpt lat="43.498256" lon="12.0122195"><ele>480.14285714285717</ele><time>2026-04-04T12:21:49.312Z</time></trkpt><trkpt lat="43.4981969" lon="12.0121752"><ele>482.57142857142867</ele><time>2026-04-04T12:21:50.314Z</time></trkpt><trkpt lat="43.4981527" lon="12.0121066"><ele>485.00000000000006</ele><time>2026-04-04T12:21:51.313Z</time></trkpt><trkpt lat="43.4980317" lon="12.0120408"><ele>484.99999999999994</ele><time>2026-04-04T12:21:53.313Z</time></trkpt><trkpt lat="43.497958" lon="12.0120302"><ele>485.0</ele><time>2026-04-04T12:21:54.313Z</time></trkpt><trkpt lat="43.4978809" lon="12.0120303"><ele>485.0</ele><time>2026-04-04T12:21:55.312Z</time></trkpt><trkpt lat="43.4977995" lon="12.0120262"><ele>485.0</ele><time>2026-04-04T12:21:56.313Z</time></trkpt><trkpt lat="43.4977075" lon="12.012038"><ele>484.99999999999994</ele><time>2026-04-04T12:21:57.313Z</time></trkpt><trkpt lat="43.4976205" lon="12.0120359"><ele>485.0</ele><time>2026-04-04T12:21:58.313Z</time></trkpt><trkpt lat="43.4975085" lon="12.0120851"><ele>487.6</ele><time>2026-04-04T12:22:00.313Z</time></trkpt><trkpt lat="43.497437" lon="12.0120693"><ele>490.2</ele><time>2026-04-04T12:22:03.312Z</time></trkpt><trkpt lat="43.4973812" lon="12.0119691"><ele>492.79999999999995</ele><time>2026-04-04T12:22:07.312Z</time></trkpt><trkpt lat="43.4973261" lon="12.0118561"><ele>495.4</ele><time>2026-04-04T12:22:09.313Z</time></trkpt><trkpt lat="43.497266" lon="12.0117288"><ele>498.0</ele><time>2026-04-04T12:22:11.313Z</time></trkpt><trkpt lat="43.4971951" lon="12.011598"><ele>498.0</ele><time>2026-04-04T12:22:13.313Z</time></trkpt><trkpt lat="43.4971029" lon="12.011487"><ele>497.99999999999994</ele><time>2026-04-04T12:22:15.313Z</time></trkpt><trkpt lat="43.4970463" lon="12.0114447"><ele>497.99999999999994</ele><time>2026-04-04T12:22:16.312Z</time></trkpt><trkpt lat="43.4969865" lon="12.0114099"><ele>498.0</ele><time>2026-04-04T12:22:17.313Z</time></trkpt><trkpt lat="43.4968208" lon="12.0112912"><ele>498.0</ele><time>2026-04-04T12:22:20.313Z</time></trkpt><trkpt lat="43.4967645" lon="12.0112497"><ele>501.2</ele><time>2026-04-04T12:22:21.312Z</time></trkpt><trkpt lat="43.4966556" lon="12.0111743"><ele>504.4</ele><time>2026-04-04T12:22:23.313Z</time></trkpt><trkpt lat="43.4965497" lon="12.0110991"><ele>507.59999999999997</ele><time>2026-04-04T12:22:25.313Z</time></trkpt><trkpt lat="43.4964439" lon="12.0110105"><ele>510.79999999999995</ele><time>2026-04-04T12:22:27.313Z</time></trkpt><trkpt lat="43.4963875" lon="12.0109689"><ele>514.0</ele><time>2026-04-04T12:22:28.313Z</time></trkpt><trkpt lat="43.4963377" lon="12.0109135"><ele>514.0</ele><time>2026-04-04T12:22:29.313Z</time></trkpt><trkpt lat="43.4962889" lon="12.0108563"><ele>514.0</ele><time>2026-04-04T12:22:30.313Z</time></trkpt><trkpt lat="43.4962196" lon="12.010711"><ele>514.0</ele><time>2026-04-04T12:22:32.313Z</time></trkpt><trkpt lat="43.4962001" lon="12.0106213"><ele>514.0</ele><time>2026-04-04T12:22:33.313Z</time></trkpt><trkpt lat="43.4961528" lon="12.0104465"><ele>514.0</ele><time>2026-04-04T12:22:35.313Z</time></trkpt><trkpt lat="43.4961195" lon="12.0103616"><ele>516.7142857142857</ele><time>2026-04-04T12:22:36.313Z</time></trkpt><trkpt lat="43.496079" lon="12.0102824"><ele>519.4285714285714</ele><time>2026-04-04T12:22:37.313Z</time></trkpt><trkpt lat="43.4960299" lon="12.0102139"><ele>522.1428571428571</ele><time>2026-04-04T12:22:38.314Z</time></trkpt><trkpt lat="43.4959709" lon="12.0101607"><ele>524.8571428571429</ele><time>2026-04-04T12:22:39.313Z</time></trkpt><trkpt lat="43.4959072" lon="12.0101076"><ele>527.5714285714286</ele><time>2026-04-04T12:22:40.313Z</time></trkpt><trkpt lat="43.4958495" lon="12.0100498"><ele>530.2857142857142</ele><time>2026-04-04T12:22:41.313Z</time></trkpt><trkpt lat="43.4957936" lon="12.0099891"><ele>533.0</ele><time>2026-04-04T12:22:42.312Z</time></trkpt><trkpt lat="43.4957418" lon="12.0099177"><ele>535.6666666666666</ele><time>2026-04-04T12:22:43.312Z</time></trkpt><trkpt lat="43.4956906" lon="12.009842"><ele>538.3333333333333</ele><time>2026-04-04T12:22:44.313Z</time></trkpt><trkpt lat="43.4956373" lon="12.0097592"><ele>541.0</ele><time>2026-04-04T12:22:45.313Z</time></trkpt><trkpt lat="43.4955856" lon="12.009677"><ele>543.6666666666666</ele><time>2026-04-04T12:22:46.313Z</time></trkpt><trkpt lat="43.4955391" lon="12.0095876"><ele>546.3333333333334</ele><time>2026-04-04T12:22:47.313Z</time></trkpt><trkpt lat="43.4955042" lon="12.0094953"><ele>549.0</ele><time>2026-04-04T12:22:48.313Z</time></trkpt><trkpt lat="43.4954735" lon="12.0094041"><ele>549.0</ele><time>2026-04-04T12:22:49.314Z</time></trkpt><trkpt lat="43.4954515" lon="12.009321"><ele>549.0</ele><time>2026-04-04T12:22:50.313Z</time></trkpt><trkpt lat="43.4954029" lon="12.0092318"><ele>549.0</ele><time>2026-04-04T12:22:52.313Z</time></trkpt><trkpt lat="43.4953075" lon="12.0092075"><ele>549.0</ele><time>2026-04-04T12:22:54.312Z</time></trkpt><trkpt lat="43.4951811" lon="12.0092163"><ele>549.0</ele><time>2026-04-04T12:22:56.314Z</time></trkpt><trkpt lat="43.4950648" lon="12.0091573"><ele>550.5</ele><time>2026-04-04T12:22:58.313Z</time></trkpt><trkpt lat="43.4950069" lon="12.0091039"><ele>552.0</ele><time>2026-04-04T12:22:59.313Z</time></trkpt><trkpt lat="43.4949543" lon="12.0090365"><ele>553.5</ele><time>2026-04-04T12:23:00.313Z</time></trkpt><trkpt lat="43.4949018" lon="12.0089634"><ele>555.0</ele><time>2026-04-04T12:23:01.313Z</time></trkpt><trkpt lat="43.4948508" lon="12.0088793"><ele>556.5</ele><time>2026-04-04T12:23:02.313Z</time></trkpt><trkpt lat="43.4948065" lon="12.0087867"><ele>558.0</ele><time>2026-04-04T12:23:03.313Z</time></trkpt><trkpt lat="43.4947653" lon="12.0086881"><ele>558.0</ele><time>2026-04-04T12:23:04.313Z</time></trkpt><trkpt lat="43.4947306" lon="12.0085843"><ele>558.0</ele><time>2026-04-04T12:23:05.313Z</time></trkpt><trkpt lat="43.4947016" lon="12.0084807"><ele>558.0</ele><time>2026-04-04T12:23:06.313Z</time></trkpt><trkpt lat="43.49467" lon="12.0083832"><ele>558.0</ele><time>2026-04-04T12:23:07.313Z</time></trkpt><trkpt lat="43.4946326" lon="12.0082872"><ele>558.0</ele><time>2026-04-04T12:23:08.312Z</time></trkpt><trkpt lat="43.4945934" lon="12.0082164"><ele>558.0</ele><time>2026-04-04T12:23:09.313Z</time></trkpt><trkpt lat="43.4944979" lon="12.0080976"><ele>563.1999999999999</ele><time>2026-04-04T12:23:11.313Z</time></trkpt><trkpt lat="43.494406" lon="12.0079964"><ele>568.4</ele><time>2026-04-04T12:23:13.313Z</time></trkpt><trkpt lat="43.4943392" lon="12.0079446"><ele>573.5999999999999</ele><time>2026-04-04T12:23:14.313Z</time></trkpt><trkpt lat="43.4942316" lon="12.0078827"><ele>578.8</ele><time>2026-04-04T12:23:15.313Z</time></trkpt><trkpt lat="43.4940997" lon="12.0078677"><ele>584.0</ele><time>2026-04-04T12:23:16.312Z</time></trkpt><trkpt lat="43.4940192" lon="12.0079056"><ele>584.0</ele><time>2026-04-04T12:23:17.313Z</time></trkpt><trkpt lat="43.4939775" lon="12.00799"><ele>584.0</ele><time>2026-04-04T12:23:18.313Z</time></trkpt><trkpt lat="43.4938998" lon="12.0080209"><ele>584.0</ele><time>2026-04-04T12:23:19.312Z</time></trkpt><trkpt lat="43.4938303" lon="12.0080262"><ele>584.0</ele><time>2026-04-04T12:23:20.312Z</time></trkpt><trkpt lat="43.4937234" lon="12.0080249"><ele>584.0</ele><time>2026-04-04T12:23:22.313Z</time></trkpt><trkpt lat="43.4936075" lon="12.0080185"><ele>584.0</ele><time>2026-04-04T12:23:24.313Z</time></trkpt><trkpt lat="43.49354" lon="12.0079901"><ele>584.0</ele><time>2026-04-04T12:23:25.313Z</time></trkpt><trkpt lat="43.4934874" lon="12.0079325"><ele>584.0</ele><time>2026-04-04T12:23:26.312Z</time></trkpt><trkpt lat="43.4933727" lon="12.0078857"><ele>584.0</ele><time>2026-04-04T12:23:28.314Z</time></trkpt><trkpt lat="43.4933005" lon="12.0079233"><ele>584.0</ele><time>2026-04-04T12:23:29.314Z</time></trkpt><trkpt lat="43.4932456" lon="12.007982"><ele>584.0</ele><time>2026-04-04T12:23:30.314Z</time></trkpt><trkpt lat="43.4931899" lon="12.008024"><ele>584.0</ele><time>2026-04-04T12:23:31.314Z</time></trkpt><trkpt lat="43.4930937" lon="12.0080541"><ele>584.0</ele><time>2026-04-04T12:23:33.313Z</time></trkpt><trkpt lat="43.4930478" lon="12.0079516"><ele>584.0</ele><time>2026-04-04T12:23:35.313Z</time></trkpt><trkpt lat="43.4930089" lon="12.0078356"><ele>584.0</ele><time>2026-04-04T12:23:37.314Z</time></trkpt><trkpt lat="43.4929376" lon="12.0076916"><ele>584.0</ele><time>2026-04-04T12:23:39.313Z</time></trkpt><trkpt lat="43.492819" lon="12.0074969"><ele>587.6666666666666</ele><time>2026-04-04T12:23:41.313Z</time></trkpt><trkpt lat="43.4927509" lon="12.0074129"><ele>591.3333333333333</ele><time>2026-04-04T12:23:42.313Z</time></trkpt><trkpt lat="43.4926843" lon="12.0073407"><ele>595.0</ele><time>2026-04-04T12:23:43.313Z</time></trkpt><trkpt lat="43.4926299" lon="12.0072754"><ele>598.6666666666666</ele><time>2026-04-04T12:23:44.313Z</time></trkpt><trkpt lat="43.4925711" lon="12.0071962"><ele>602.3333333333334</ele><time>2026-04-04T12:23:45.313Z</time></trkpt><trkpt lat="43.492523" lon="12.0071398"><ele>606.0</ele><time>2026-04-04T12:23:46.312Z</time></trkpt><trkpt lat="43.4924076" lon="12.0070569"><ele>606.0</ele><time>2026-04-04T12:23:49.313Z</time></trkpt><trkpt lat="43.4923504" lon="12.0071705"><ele>606.0</ele><time>2026-04-04T12:23:51.313Z</time></trkpt><trkpt lat="43.4922771" lon="12.0073174"><ele>606.0</ele><time>2026-04-04T12:23:53.313Z</time></trkpt><trkpt lat="43.492232" lon="12.0073961"><ele>606.0</ele><time>2026-04-04T12:23:54.313Z</time></trkpt><trkpt lat="43.4921174" lon="12.0073879"><ele>606.0</ele><time>2026-04-04T12:23:56.313Z</time></trkpt><trkpt lat="43.4920523" lon="12.0073947"><ele>603.8333333333334</ele><time>2026-04-04T12:23:57.314Z</time></trkpt><trkpt lat="43.4919801" lon="12.0073946"><ele>601.6666666666666</ele><time>2026-04-04T12:23:58.313Z</time></trkpt><trkpt lat="43.4918948" lon="12.0073634"><ele>599.5</ele><time>2026-04-04T12:23:59.313Z</time></trkpt><trkpt lat="43.4918742" lon="12.0072355"><ele>597.3333333333333</ele><time>2026-04-04T12:24:00.312Z</time></trkpt><trkpt lat="43.4918167" lon="12.0071617"><ele>595.1666666666666</ele><time>2026-04-04T12:24:01.312Z</time></trkpt><trkpt lat="43.4917682" lon="12.0070645"><ele>593.0</ele><time>2026-04-04T12:24:02.313Z</time></trkpt><trkpt lat="43.4916934" lon="12.006991"><ele>593.0</ele><time>2026-04-04T12:24:03.313Z</time></trkpt><trkpt lat="43.4916139" lon="12.0069039"><ele>593.0</ele><time>2026-04-04T12:24:04.313Z</time></trkpt><trkpt lat="43.4915433" lon="12.0068664"><ele>593.0</ele><time>2026-04-04T12:24:05.313Z</time></trkpt><trkpt lat="43.4914706" lon="12.0068257"><ele>593.0</ele><time>2026-04-04T12:24:06.313Z</time></trkpt><trkpt lat="43.4914127" lon="12.0067801"><ele>593.0</ele><time>2026-04-04T12:24:07.312Z</time></trkpt><trkpt lat="43.4913437" lon="12.0066456"><ele>593.0</ele><time>2026-04-04T12:24:09.313Z</time></trkpt><trkpt lat="43.4913043" lon="12.0065689"><ele>592.1666666666666</ele><time>2026-04-04T12:24:10.312Z</time></trkpt><trkpt lat="43.4912666" lon="12.0064755"><ele>591.3333333333333</ele><time>2026-04-04T12:24:11.313Z</time></trkpt><trkpt lat="43.4912309" lon="12.0063838"><ele>590.5</ele><time>2026-04-04T12:24:12.313Z</time></trkpt><trkpt lat="43.4911897" lon="12.0062893"><ele>589.6666666666666</ele><time>2026-04-04T12:24:13.313Z</time></trkpt><trkpt lat="43.4911588" lon="12.006207"><ele>588.8333333333334</ele><time>2026-04-04T12:24:14.313Z</time></trkpt><trkpt lat="43.4911024" lon="12.0061104"><ele>588.0</ele><time>2026-04-04T12:24:15.312Z</time></trkpt><trkpt lat="43.4910761" lon="12.0060176"><ele>588.0</ele><time>2026-04-04T12:24:16.313Z</time></trkpt><trkpt lat="43.4910467" lon="12.005855"><ele>588.0</ele><time>2026-04-04T12:24:18.313Z</time></trkpt><trkpt lat="43.4909978" lon="12.0057338"><ele>588.0</ele><time>2026-04-04T12:24:19.313Z</time></trkpt><trkpt lat="43.4909677" lon="12.0056498"><ele>588.0</ele><time>2026-04-04T12:24:20.312Z</time></trkpt><trkpt lat="43.4909394" lon="12.0055629"><ele>588.0</ele><time>2026-04-04T12:24:21.314Z</time></trkpt><trkpt lat="43.4908688" lon="12.0055551"><ele>588.0</ele><time>2026-04-04T12:24:25.313Z</time></trkpt><trkpt lat="43.4907902" lon="12.0055861"><ele>592.6</ele><time>2026-04-04T12:24:26.312Z</time></trkpt><trkpt lat="43.490692" lon="12.0056474"><ele>597.1999999999999</ele><time>2026-04-04T12:24:28.313Z</time></trkpt><trkpt lat="43.4906244" lon="12.0056858"><ele>601.8</ele><time>2026-04-04T12:24:29.313Z</time></trkpt><trkpt lat="43.4905577" lon="12.0057118"><ele>606.4</ele><time>2026-04-04T12:24:30.312Z</time></trkpt><trkpt lat="43.4904223" lon="12.0057534"><ele>611.0</ele><time>2026-04-04T12:24:32.313Z</time></trkpt><trkpt lat="43.4903341" lon="12.0058073"><ele>606.7142857142858</ele><time>2026-04-04T12:24:33.313Z</time></trkpt><trkpt lat="43.4902407" lon="12.0058582"><ele>602.4285714285714</ele><time>2026-04-04T12:24:34.313Z</time></trkpt><trkpt lat="43.490163" lon="12.005907"><ele>598.1428571428571</ele><time>2026-04-04T12:24:35.313Z</time></trkpt><trkpt lat="43.4901011" lon="12.0059473"><ele>593.8571428571429</ele><time>2026-04-04T12:24:36.314Z</time></trkpt><trkpt lat="43.4900403" lon="12.0059735"><ele>589.5714285714286</ele><time>2026-04-04T12:24:37.313Z</time></trkpt><trkpt lat="43.4899754" lon="12.0059967"><ele>585.2857142857143</ele><time>2026-04-04T12:24:38.313Z</time></trkpt><trkpt lat="43.4899133" lon="12.0059814"><ele>581.0</ele><time>2026-04-04T12:24:39.313Z</time></trkpt><trkpt lat="43.4898614" lon="12.005932"><ele>581.0</ele><time>2026-04-04T12:24:40.313Z</time></trkpt><trkpt lat="43.4898064" lon="12.005865"><ele>581.0</ele><time>2026-04-04T12:24:41.313Z</time></trkpt><trkpt lat="43.4897578" lon="12.00579"><ele>581.0</ele><time>2026-04-04T12:24:42.313Z</time></trkpt><trkpt lat="43.4897029" lon="12.005721"><ele>581.0</ele><time>2026-04-04T12:24:43.313Z</time></trkpt><trkpt lat="43.4896529" lon="12.0056571"><ele>581.0</ele><time>2026-04-04T12:24:44.313Z</time></trkpt><trkpt lat="43.4895921" lon="12.0055896"><ele>581.0</ele><time>2026-04-04T12:24:45.313Z</time></trkpt><trkpt lat="43.4895173" lon="12.0055225"><ele>581.0</ele><time>2026-04-04T12:24:46.313Z</time></trkpt><trkpt lat="43.4894576" lon="12.0054499"><ele>581.0</ele><time>2026-04-04T12:24:47.313Z</time></trkpt><trkpt lat="43.4893857" lon="12.0053966"><ele>581.0</ele><time>2026-04-04T12:24:48.313Z</time></trkpt><trkpt lat="43.4892519" lon="12.0052573"><ele>581.0</ele><time>2026-04-04T12:24:50.313Z</time></trkpt><trkpt lat="43.4891967" lon="12.0051692"><ele>581.0</ele><time>2026-04-04T12:24:51.313Z</time></trkpt><trkpt lat="43.4891456" lon="12.0050794"><ele>583.0</ele><time>2026-04-04T12:24:52.313Z</time></trkpt><trkpt lat="43.4890804" lon="12.0049113"><ele>585.0</ele><time>2026-04-04T12:24:54.313Z</time></trkpt><trkpt lat="43.489071" lon="12.0047394"><ele>587.0</ele><time>2026-04-04T12:24:56.313Z</time></trkpt><trkpt lat="43.4890598" lon="12.0045779"><ele>589.0</ele><time>2026-04-04T12:24:58.313Z</time></trkpt><trkpt lat="43.4890366" lon="12.0044889"><ele>589.0</ele><time>2026-04-04T12:24:59.313Z</time></trkpt><trkpt lat="43.4889806" lon="12.0043292"><ele>589.0</ele><time>2026-04-04T12:25:01.313Z</time></trkpt><trkpt lat="43.4889478" lon="12.0041157"><ele>589.0</ele><time>2026-04-04T12:25:03.313Z</time></trkpt><trkpt lat="43.4889877" lon="12.0039816"><ele>589.0</ele><time>2026-04-04T12:25:05.313Z</time></trkpt><trkpt lat="43.4890301" lon="12.0038826"><ele>589.8333333333334</ele><time>2026-04-04T12:25:07.313Z</time></trkpt><trkpt lat="43.4890421" lon="12.0037727"><ele>590.6666666666667</ele><time>2026-04-04T12:25:09.313Z</time></trkpt><trkpt lat="43.4890316" lon="12.0036743"><ele>591.5</ele><time>2026-04-04T12:25:10.313Z</time></trkpt><trkpt lat="43.4889495" lon="12.0036169"><ele>592.3333333333334</ele><time>2026-04-04T12:25:11.312Z</time></trkpt><trkpt lat="43.4888958" lon="12.0035094"><ele>593.1666666666666</ele><time>2026-04-04T12:25:13.313Z</time></trkpt><trkpt lat="43.4888261" lon="12.0034094"><ele>594.0</ele><time>2026-04-04T12:25:15.313Z</time></trkpt><trkpt lat="43.4887342" lon="12.0033561"><ele>594.5</ele><time>2026-04-04T12:25:17.312Z</time></trkpt><trkpt lat="43.488596" lon="12.0033522"><ele>595.0</ele><time>2026-04-04T12:25:19.313Z</time></trkpt><trkpt lat="43.4885308" lon="12.0033408"><ele>595.5</ele><time>2026-04-04T12:25:20.313Z</time></trkpt><trkpt lat="43.488476" lon="12.0032894"><ele>596.0</ele><time>2026-04-04T12:25:21.314Z</time></trkpt><trkpt lat="43.4884142" lon="12.0032324"><ele>596.5</ele><time>2026-04-04T12:25:22.312Z</time></trkpt><trkpt lat="43.488329" lon="12.0031487"><ele>597.0</ele><time>2026-04-04T12:25:24.313Z</time></trkpt><trkpt lat="43.4882708" lon="12.0030425"><ele>597.0</ele><time>2026-04-04T12:25:26.312Z</time></trkpt><trkpt lat="43.4882097" lon="12.0029848"><ele>597.0</ele><time>2026-04-04T12:25:39.312Z</time></trkpt><trkpt lat="43.4881528" lon="12.0029465"><ele>597.0</ele><time>2026-04-04T12:25:42.311Z</time></trkpt><trkpt lat="43.4881015" lon="12.0028913"><ele>597.0</ele><time>2026-04-04T12:25:50.311Z</time></trkpt><trkpt lat="43.4882058" lon="12.0029347"><ele>597.0</ele><time>2026-04-04T12:25:57.312Z</time></trkpt><trkpt lat="43.4882723" lon="12.0029788"><ele>597.0</ele><time>2026-04-04T12:25:59.312Z</time></trkpt><trkpt lat="43.4883191" lon="12.0030429"><ele>597.0</ele><time>2026-04-04T12:26:01.312Z</time></trkpt><trkpt lat="43.4883794" lon="12.0031118"><ele>597.0</ele><time>2026-04-04T12:26:04.312Z</time></trkpt><trkpt lat="43.4883977" lon="12.0032081"><ele>597.0</ele><time>2026-04-04T12:26:07.312Z</time></trkpt><trkpt lat="43.4883264" lon="12.0032065"><ele>597.0</ele><time>2026-04-04T12:26:10.312Z</time></trkpt><trkpt lat="43.4882502" lon="12.0031951"><ele>597.0</ele><time>2026-04-04T12:26:14.313Z</time></trkpt><trkpt lat="43.4881783" lon="12.0032635"><ele>597.0</ele><time>2026-04-04T12:26:32.313Z</time></trkpt><trkpt lat="43.4881361" lon="12.0033556"><ele>593.0</ele><time>2026-04-04T12:26:34.312Z</time></trkpt><trkpt lat="43.4880865" lon="12.0034158"><ele>589.0</ele><time>2026-04-04T12:26:35.312Z</time></trkpt><trkpt lat="43.4879783" lon="12.0034819"><ele>585.0</ele><time>2026-04-04T12:26:37.312Z</time></trkpt><trkpt lat="43.4878741" lon="12.0035184"><ele>581.0</ele><time>2026-04-04T12:26:39.312Z</time></trkpt><trkpt lat="43.4877765" lon="12.003574"><ele>577.0</ele><time>2026-04-04T12:26:41.311Z</time></trkpt><trkpt lat="43.4877157" lon="12.0036807"><ele>575.4</ele><time>2026-04-04T12:26:43.312Z</time></trkpt><trkpt lat="43.4876775" lon="12.0037541"><ele>573.8000000000001</ele><time>2026-04-04T12:26:44.312Z</time></trkpt><trkpt lat="43.487632" lon="12.0039006"><ele>572.2</ele><time>2026-04-04T12:26:46.312Z</time></trkpt><trkpt lat="43.4875956" lon="12.0040675"><ele>570.6</ele><time>2026-04-04T12:26:48.312Z</time></trkpt><trkpt lat="43.4875314" lon="12.0041702"><ele>569.0</ele><time>2026-04-04T12:26:50.312Z</time></trkpt><trkpt lat="43.4874623" lon="12.0041526"><ele>569.0</ele><time>2026-04-04T12:26:51.312Z</time></trkpt><trkpt lat="43.48739" lon="12.0041376"><ele>569.0</ele><time>2026-04-04T12:26:53.311Z</time></trkpt><trkpt lat="43.4873177" lon="12.0040422"><ele>569.0</ele><time>2026-04-04T12:26:55.312Z</time></trkpt><trkpt lat="43.4872266" lon="12.0039133"><ele>569.0</ele><time>2026-04-04T12:26:57.312Z</time></trkpt><trkpt lat="43.4871686" lon="12.0038573"><ele>569.0</ele><time>2026-04-04T12:26:58.312Z</time></trkpt><trkpt lat="43.4871039" lon="12.0038543"><ele>569.0</ele><time>2026-04-04T12:27:00.312Z</time></trkpt><trkpt lat="43.487023" lon="12.0038119"><ele>568.5</ele><time>2026-04-04T12:27:02.312Z</time></trkpt><trkpt lat="43.4869424" lon="12.0038021"><ele>568.0</ele><time>2026-04-04T12:27:08.312Z</time></trkpt><trkpt lat="43.4868684" lon="12.0037916"><ele>567.5</ele><time>2026-04-04T12:27:11.312Z</time></trkpt><trkpt lat="43.4867995" lon="12.0038008"><ele>567.0</ele><time>2026-04-04T12:27:14.312Z</time></trkpt><trkpt lat="43.4867307" lon="12.0037781"><ele>566.5</ele><time>2026-04-04T12:28:47.312Z</time></trkpt><trkpt lat="43.4867849" lon="12.0037037"><ele>566.0</ele><time>2026-04-04T12:29:02.312Z</time></trkpt><trkpt lat="43.4868658" lon="12.0037285"><ele>566.0</ele><time>2026-04-04T12:29:10.312Z</time></trkpt><trkpt lat="43.4869514" lon="12.0037479"><ele>566.0</ele><time>2026-04-04T12:29:25.312Z</time></trkpt><trkpt lat="43.4870086" lon="12.0037935"><ele>566.0</ele><time>2026-04-04T12:31:09.312Z</time></trkpt><trkpt lat="43.4869755" lon="12.0038725"><ele>566.0</ele><time>2026-04-04T12:31:33.312Z</time></trkpt><trkpt lat="43.4870231" lon="12.0039588"><ele>566.0</ele><time>2026-04-04T12:31:47.312Z</time></trkpt><trkpt lat="43.4870231" lon="12.0040467"><ele>566.0</ele><time>2026-04-04T12:31:51.312Z</time></trkpt><trkpt lat="43.4869977" lon="12.0041282"><ele>566.0</ele><time>2026-04-04T12:31:54.312Z</time></trkpt><trkpt lat="43.4869756" lon="12.0042138"><ele>566.0</ele><time>2026-04-04T12:31:57.312Z</time></trkpt><trkpt lat="43.486961" lon="12.0042991"><ele>566.0</ele><time>2026-04-04T12:31:59.312Z</time></trkpt><trkpt lat="43.486935" lon="12.0043848"><ele>566.0</ele><time>2026-04-04T12:32:01.312Z</time></trkpt><trkpt lat="43.4869297" lon="12.0045177"><ele>566.0</ele><time>2026-04-04T12:32:03.312Z</time></trkpt><trkpt lat="43.4868539" lon="12.0044791"><ele>566.0</ele><time>2026-04-04T12:32:06.311Z</time></trkpt><trkpt lat="43.486797" lon="12.0043527"><ele>566.0</ele><time>2026-04-04T12:32:29.311Z</time></trkpt><trkpt lat="43.4867285" lon="12.0043204"><ele>566.0</ele><time>2026-04-04T12:32:32.312Z</time></trkpt><trkpt lat="43.4866499" lon="12.0043399"><ele>566.0</ele><time>2026-04-04T12:32:34.311Z</time></trkpt><trkpt lat="43.4865875" lon="12.0043957"><ele>566.0</ele><time>2026-04-04T12:32:36.312Z</time></trkpt><trkpt lat="43.4865557" lon="12.004472"><ele>566.0</ele><time>2026-04-04T12:32:38.312Z</time></trkpt><trkpt lat="43.4865537" lon="12.0045785"><ele>566.0</ele><time>2026-04-04T12:32:40.312Z</time></trkpt><trkpt lat="43.4865709" lon="12.0046721"><ele>566.0</ele><time>2026-04-04T12:32:41.312Z</time></trkpt><trkpt lat="43.4865839" lon="12.0048304"><ele>566.0</ele><time>2026-04-04T12:32:43.312Z</time></trkpt><trkpt lat="43.4865789" lon="12.0049567"><ele>566.0</ele><time>2026-04-04T12:32:45.312Z</time></trkpt><trkpt lat="43.486586" lon="12.0050663"><ele>566.0</ele><time>2026-04-04T12:32:47.313Z</time></trkpt><trkpt lat="43.4865744" lon="12.0051695"><ele>566.0</ele><time>2026-04-04T12:32:49.313Z</time></trkpt><trkpt lat="43.4865481" lon="12.0052609"><ele>566.0</ele><time>2026-04-04T12:32:57.312Z</time></trkpt><trkpt lat="43.4865617" lon="12.0053715"><ele>566.0</ele><time>2026-04-04T12:36:54.312Z</time></trkpt><trkpt lat="43.486507" lon="12.0054338"><ele>567.0</ele><time>2026-04-04T12:36:58.312Z</time></trkpt><trkpt lat="43.4864478" lon="12.0054812"><ele>568.0</ele><time>2026-04-04T12:37:00.312Z</time></trkpt><trkpt lat="43.4863817" lon="12.0054859"><ele>569.0</ele><time>2026-04-04T12:45:13.311Z</time></trkpt><trkpt lat="43.4864631" lon="12.0054528"><ele>570.0</ele><time>2026-04-04T12:46:45.311Z</time></trkpt><trkpt lat="43.4865219" lon="12.005394"><ele>571.0</ele><time>2026-04-04T12:46:55.311Z</time></trkpt><trkpt lat="43.4865746" lon="12.0053428"><ele>572.0</ele><time>2026-04-04T12:47:00.31Z</time></trkpt><trkpt lat="43.4865992" lon="12.0052624"><ele>573.0</ele><time>2026-04-04T12:47:08.312Z</time></trkpt><trkpt lat="43.4865946" lon="12.005167"><ele>573.0</ele><time>2026-04-04T12:49:31.311Z</time></trkpt><trkpt lat="43.4865996" lon="12.0050436"><ele>573.0</ele><time>2026-04-04T12:49:35.311Z</time></trkpt><trkpt lat="43.4866048" lon="12.0049377"><ele>573.0</ele><time>2026-04-04T12:49:37.311Z</time></trkpt><trkpt lat="43.4866024" lon="12.0048012"><ele>573.0</ele><time>2026-04-04T12:49:39.31Z</time></trkpt><trkpt lat="43.486589" lon="12.0046863"><ele>573.0</ele><time>2026-04-04T12:49:41.311Z</time></trkpt><trkpt lat="43.4865764" lon="12.0045953"><ele>573.0</ele><time>2026-04-04T12:49:43.311Z</time></trkpt><trkpt lat="43.4866116" lon="12.004486"><ele>571.6</ele><time>2026-04-04T12:49:45.311Z</time></trkpt><trkpt lat="43.4866783" lon="12.0043991"><ele>570.1999999999999</ele><time>2026-04-04T12:49:47.311Z</time></trkpt><trkpt lat="43.4867642" lon="12.004387"><ele>568.8</ele><time>2026-04-04T12:49:49.311Z</time></trkpt><trkpt lat="43.4868351" lon="12.004448"><ele>567.4</ele><time>2026-04-04T12:49:51.311Z</time></trkpt><trkpt lat="43.4869086" lon="12.0045284"><ele>566.0</ele><time>2026-04-04T12:49:54.311Z</time></trkpt><trkpt lat="43.486985" lon="12.0044117"><ele>566.0</ele><time>2026-04-04T12:49:57.311Z</time></trkpt><trkpt lat="43.4870195" lon="12.0042823"><ele>566.0</ele><time>2026-04-04T12:49:59.311Z</time></trkpt><trkpt lat="43.4870348" lon="12.004171"><ele>566.0</ele><time>2026-04-04T12:50:01.311Z</time></trkpt><trkpt lat="43.4870556" lon="12.004044"><ele>566.0</ele><time>2026-04-04T12:50:04.311Z</time></trkpt><trkpt lat="43.4870292" lon="12.0039295"><ele>566.0</ele><time>2026-04-04T12:50:17.31Z</time></trkpt><trkpt lat="43.4869686" lon="12.0038889"><ele>566.0</ele><time>2026-04-04T12:50:30.311Z</time></trkpt><trkpt lat="43.4869003" lon="12.0038873"><ele>566.0</ele><time>2026-04-04T12:50:35.311Z</time></trkpt><trkpt lat="43.4868319" lon="12.0038452"><ele>566.0</ele><time>2026-04-04T12:50:41.311Z</time></trkpt><trkpt lat="43.4868408" lon="12.0037577"><ele>566.0</ele><time>2026-04-04T12:50:56.311Z</time></trkpt><trkpt lat="43.4869008" lon="12.0037071"><ele>566.0</ele><time>2026-04-04T12:51:02.379Z</time></trkpt><trkpt lat="43.486993" lon="12.0036989"><ele>566.0</ele><time>2026-04-04T12:51:05.311Z</time></trkpt><trkpt lat="43.4870772" lon="12.0036893"><ele>566.0</ele><time>2026-04-04T12:51:08.368Z</time></trkpt><trkpt lat="43.4871472" lon="12.003716"><ele>566.6</ele><time>2026-04-04T12:51:10.311Z</time></trkpt><trkpt lat="43.4872239" lon="12.0037268"><ele>567.2</ele><time>2026-04-04T12:51:12.381Z</time></trkpt><trkpt lat="43.4873271" lon="12.0038703"><ele>567.8</ele><time>2026-04-04T12:51:13.311Z</time></trkpt><trkpt lat="43.4873879" lon="12.0039426"><ele>568.4</ele><time>2026-04-04T12:51:14.311Z</time></trkpt><trkpt lat="43.4874407" lon="12.0040213"><ele>569.0</ele><time>2026-04-04T12:51:15.311Z</time></trkpt><trkpt lat="43.4875265" lon="12.0040907"><ele>569.0</ele><time>2026-04-04T12:51:17.31Z</time></trkpt><trkpt lat="43.4875968" lon="12.0040918"><ele>569.0</ele><time>2026-04-04T12:51:19.311Z</time></trkpt><trkpt lat="43.4876281" lon="12.0039528"><ele>569.0</ele><time>2026-04-04T12:51:22.311Z</time></trkpt><trkpt lat="43.4876734" lon="12.0038264"><ele>569.0</ele><time>2026-04-04T12:51:24.311Z</time></trkpt><trkpt lat="43.4877369" lon="12.0036914"><ele>569.0</ele><time>2026-04-04T12:51:26.311Z</time></trkpt><trkpt lat="43.4878307" lon="12.0035976"><ele>569.0</ele><time>2026-04-04T12:51:28.311Z</time></trkpt><trkpt lat="43.4878845" lon="12.0035382"><ele>569.0</ele><time>2026-04-04T12:51:30.311Z</time></trkpt><trkpt lat="43.4879454" lon="12.0034834"><ele>569.0</ele><time>2026-04-04T12:51:41.311Z</time></trkpt><trkpt lat="43.4880403" lon="12.0034635"><ele>569.0</ele><time>2026-04-04T12:51:44.311Z</time></trkpt><trkpt lat="43.4881087" lon="12.003442"><ele>569.0</ele><time>2026-04-04T12:51:46.311Z</time></trkpt><trkpt lat="43.4881939" lon="12.0033446"><ele>569.0</ele><time>2026-04-04T12:51:49.311Z</time></trkpt><trkpt lat="43.4882539" lon="12.0032654"><ele>573.6666666666666</ele><time>2026-04-04T12:51:51.312Z</time></trkpt><trkpt lat="43.4883183" lon="12.0032202"><ele>578.3333333333333</ele><time>2026-04-04T12:51:53.311Z</time></trkpt><trkpt lat="43.4883985" lon="12.0032145"><ele>583.0</ele><time>2026-04-04T12:51:55.312Z</time></trkpt><trkpt lat="43.4884898" lon="12.0032518"><ele>587.6666666666666</ele><time>2026-04-04T12:51:58.311Z</time></trkpt><trkpt lat="43.4884177" lon="12.0031906"><ele>592.3333333333334</ele><time>2026-04-04T12:52:22.311Z</time></trkpt><trkpt lat="43.4883671" lon="12.0031358"><ele>597.0</ele><time>2026-04-04T12:52:24.311Z</time></trkpt><trkpt lat="43.4883037" lon="12.0030533"><ele>597.0</ele><time>2026-04-04T12:52:26.311Z</time></trkpt><trkpt lat="43.4881816" lon="12.0029566"><ele>597.0</ele><time>2026-04-04T12:52:28.311Z</time></trkpt><trkpt lat="43.4881488" lon="12.0028626"><ele>597.0</ele><time>2026-04-04T12:52:29.31Z</time></trkpt><trkpt lat="43.4880648" lon="12.0028029"><ele>597.0</ele><time>2026-04-04T12:52:30.311Z</time></trkpt><trkpt lat="43.4879847" lon="12.0027614"><ele>597.0</ele><time>2026-04-04T12:52:31.311Z</time></trkpt><trkpt lat="43.487922" lon="12.0027087"><ele>595.3333333333334</ele><time>2026-04-04T12:52:32.311Z</time></trkpt><trkpt lat="43.487847" lon="12.0026291"><ele>593.6666666666666</ele><time>2026-04-04T12:52:33.311Z</time></trkpt><trkpt lat="43.4878321" lon="12.002538"><ele>592.0</ele><time>2026-04-04T12:52:34.311Z</time></trkpt><trkpt lat="43.4878202" lon="12.0024341"><ele>590.3333333333333</ele><time>2026-04-04T12:52:35.311Z</time></trkpt><trkpt lat="43.4877859" lon="12.0022895"><ele>588.6666666666666</ele><time>2026-04-04T12:52:37.31Z</time></trkpt><trkpt lat="43.4877151" lon="12.0022824"><ele>587.0</ele><time>2026-04-04T12:52:42.311Z</time></trkpt><trkpt lat="43.4876469" lon="12.0023851"><ele>587.0</ele><time>2026-04-04T12:52:43.31Z</time></trkpt><trkpt lat="43.487552" lon="12.0024377"><ele>587.0</ele><time>2026-04-04T12:52:45.311Z</time></trkpt><trkpt lat="43.4874361" lon="12.0024424"><ele>587.0</ele><time>2026-04-04T12:52:47.311Z</time></trkpt><trkpt lat="43.4873192" lon="12.0024487"><ele>587.0</ele><time>2026-04-04T12:52:49.311Z</time></trkpt><trkpt lat="43.48725" lon="12.0024799"><ele>587.0</ele><time>2026-04-04T12:52:51.31Z</time></trkpt><trkpt lat="43.4871859" lon="12.0025209"><ele>587.8000000000001</ele><time>2026-04-04T12:52:54.311Z</time></trkpt><trkpt lat="43.4870928" lon="12.0025417"><ele>588.6</ele><time>2026-04-04T12:52:56.311Z</time></trkpt><trkpt lat="43.4869815" lon="12.0025342"><ele>589.4000000000001</ele><time>2026-04-04T12:52:58.311Z</time></trkpt><trkpt lat="43.4869181" lon="12.002522"><ele>590.2</ele><time>2026-04-04T12:52:59.311Z</time></trkpt><trkpt lat="43.4868293" lon="12.0024396"><ele>591.0</ele><time>2026-04-04T12:53:01.311Z</time></trkpt><trkpt lat="43.4867706" lon="12.0023624"><ele>591.0</ele><time>2026-04-04T12:53:03.311Z</time></trkpt><trkpt lat="43.4866859" lon="12.0023038"><ele>591.0</ele><time>2026-04-04T12:53:05.311Z</time></trkpt><trkpt lat="43.4865736" lon="12.0022624"><ele>591.0</ele><time>2026-04-04T12:53:07.311Z</time></trkpt><trkpt lat="43.4864628" lon="12.0021961"><ele>591.0</ele><time>2026-04-04T12:53:09.311Z</time></trkpt><trkpt lat="43.4864215" lon="12.0021182"><ele>591.0</ele><time>2026-04-04T12:53:10.311Z</time></trkpt><trkpt lat="43.4863621" lon="12.0020618"><ele>591.0</ele><time>2026-04-04T12:53:11.311Z</time></trkpt><trkpt lat="43.4862845" lon="12.0019833"><ele>591.0</ele><time>2026-04-04T12:53:13.312Z</time></trkpt><trkpt lat="43.4861986" lon="12.0019419"><ele>591.0</ele><time>2026-04-04T12:53:15.311Z</time></trkpt><trkpt lat="43.4861209" lon="12.0018682"><ele>591.0</ele><time>2026-04-04T12:53:17.312Z</time></trkpt><trkpt lat="43.4861176" lon="12.0017588"><ele>591.0</ele><time>2026-04-04T12:53:19.311Z</time></trkpt><trkpt lat="43.4860918" lon="12.0016678"><ele>591.0</ele><time>2026-04-04T12:53:21.311Z</time></trkpt><trkpt lat="43.4860568" lon="12.0015568"><ele>590.3333333333334</ele><time>2026-04-04T12:53:23.31Z</time></trkpt><trkpt lat="43.4860045" lon="12.0016331"><ele>589.6666666666666</ele><time>2026-04-04T12:53:26.311Z</time></trkpt><trkpt lat="43.4859887" lon="12.0017186"><ele>589.0</ele><time>2026-04-04T12:53:28.311Z</time></trkpt><trkpt lat="43.4859835" lon="12.0018265"><ele>588.3333333333333</ele><time>2026-04-04T12:53:29.311Z</time></trkpt><trkpt lat="43.485966" lon="12.0019854"><ele>587.6666666666666</ele><time>2026-04-04T12:53:31.311Z</time></trkpt><trkpt lat="43.4859285" lon="12.0020796"><ele>587.0</ele><time>2026-04-04T12:53:33.311Z</time></trkpt><trkpt lat="43.4858554" lon="12.0020892"><ele>587.0</ele><time>2026-04-04T12:53:36.311Z</time></trkpt><trkpt lat="43.4857517" lon="12.0019972"><ele>587.0</ele><time>2026-04-04T12:53:38.311Z</time></trkpt><trkpt lat="43.4856478" lon="12.001946"><ele>587.0</ele><time>2026-04-04T12:53:40.311Z</time></trkpt><trkpt lat="43.4855765" lon="12.0019102"><ele>587.0</ele><time>2026-04-04T12:53:43.31Z</time></trkpt><trkpt lat="43.485485" lon="12.0019234"><ele>587.0</ele><time>2026-04-04T12:54:03.31Z</time></trkpt><trkpt lat="43.4854061" lon="12.001946"><ele>590.1666666666666</ele><time>2026-04-04T12:54:04.31Z</time></trkpt><trkpt lat="43.4853186" lon="12.0019888"><ele>593.3333333333333</ele><time>2026-04-04T12:54:06.311Z</time></trkpt><trkpt lat="43.4852548" lon="12.0020834"><ele>596.5</ele><time>2026-04-04T12:54:08.311Z</time></trkpt><trkpt lat="43.4852135" lon="12.0021692"><ele>599.6666666666666</ele><time>2026-04-04T12:54:10.311Z</time></trkpt><trkpt lat="43.485256" lon="12.002281"><ele>602.8333333333334</ele><time>2026-04-04T12:54:13.311Z</time></trkpt><trkpt lat="43.4853087" lon="12.0023513"><ele>606.0</ele><time>2026-04-04T12:54:15.311Z</time></trkpt><trkpt lat="43.4853838" lon="12.0024186"><ele>601.6666666666666</ele><time>2026-04-04T12:54:17.311Z</time></trkpt><trkpt lat="43.4854508" lon="12.0025095"><ele>597.3333333333334</ele><time>2026-04-04T12:54:19.311Z</time></trkpt><trkpt lat="43.4854879" lon="12.0026091"><ele>593.0</ele><time>2026-04-04T12:54:21.311Z</time></trkpt><trkpt lat="43.4855277" lon="12.0027091"><ele>588.6666666666667</ele><time>2026-04-04T12:54:23.311Z</time></trkpt><trkpt lat="43.4855703" lon="12.002823"><ele>584.3333333333334</ele><time>2026-04-04T12:54:24.311Z</time></trkpt><trkpt lat="43.485597" lon="12.0029286"><ele>580.0</ele><time>2026-04-04T12:54:25.311Z</time></trkpt><trkpt lat="43.4856006" lon="12.0030635"><ele>580.0</ele><time>2026-04-04T12:54:27.312Z</time></trkpt><trkpt lat="43.4856314" lon="12.0032039"><ele>580.0</ele><time>2026-04-04T12:54:29.311Z</time></trkpt><trkpt lat="43.48564" lon="12.0033919"><ele>580.0</ele><time>2026-04-04T12:54:31.311Z</time></trkpt><trkpt lat="43.4856561" lon="12.0034962"><ele>580.0</ele><time>2026-04-04T12:54:32.31Z</time></trkpt><trkpt lat="43.4857019" lon="12.0035646"><ele>580.0</ele><time>2026-04-04T12:54:33.311Z</time></trkpt><trkpt lat="43.4857364" lon="12.0036719"><ele>582.0</ele><time>2026-04-04T12:54:34.311Z</time></trkpt><trkpt lat="43.4857838" lon="12.0037411"><ele>584.0</ele><time>2026-04-04T12:54:35.311Z</time></trkpt><trkpt lat="43.4858342" lon="12.0038698"><ele>586.0</ele><time>2026-04-04T12:54:37.311Z</time></trkpt><trkpt lat="43.4858656" lon="12.0040141"><ele>588.0</ele><time>2026-04-04T12:54:39.311Z</time></trkpt><trkpt lat="43.4858362" lon="12.0040988"><ele>590.0</ele><time>2026-04-04T12:54:40.311Z</time></trkpt><trkpt lat="43.4858259" lon="12.0041935"><ele>592.0</ele><time>2026-04-04T12:54:41.311Z</time></trkpt><trkpt lat="43.4858142" lon="12.0042996"><ele>594.2</ele><time>2026-04-04T12:54:42.311Z</time></trkpt><trkpt lat="43.4857663" lon="12.0044549"><ele>596.4000000000001</ele><time>2026-04-04T12:54:44.311Z</time></trkpt><trkpt lat="43.4857333" lon="12.0045795"><ele>598.5999999999999</ele><time>2026-04-04T12:54:46.311Z</time></trkpt><trkpt lat="43.4857011" lon="12.0046592"><ele>600.8</ele><time>2026-04-04T12:54:48.311Z</time></trkpt><trkpt lat="43.4857877" lon="12.004705"><ele>603.0</ele><time>2026-04-04T12:54:50.311Z</time></trkpt><trkpt lat="43.4858667" lon="12.0047337"><ele>603.0</ele><time>2026-04-04T12:54:52.312Z</time></trkpt><trkpt lat="43.4859294" lon="12.0048575"><ele>603.0</ele><time>2026-04-04T12:54:54.311Z</time></trkpt><trkpt lat="43.4859241" lon="12.0049566"><ele>603.0</ele><time>2026-04-04T12:54:56.31Z</time></trkpt><trkpt lat="43.4859332" lon="12.0050681"><ele>603.0</ele><time>2026-04-04T12:54:58.311Z</time></trkpt><trkpt lat="43.4859358" lon="12.0052034"><ele>603.0</ele><time>2026-04-04T12:55:00.311Z</time></trkpt><trkpt lat="43.4859276" lon="12.005331"><ele>604.3333333333334</ele><time>2026-04-04T12:55:02.31Z</time></trkpt><trkpt lat="43.4859251" lon="12.0054434"><ele>605.6666666666666</ele><time>2026-04-04T12:55:04.31Z</time></trkpt><trkpt lat="43.4858921" lon="12.0055472"><ele>607.0</ele><time>2026-04-04T12:55:06.309Z</time></trkpt><trkpt lat="43.4858291" lon="12.0056561"><ele>608.3333333333333</ele><time>2026-04-04T12:55:08.31Z</time></trkpt><trkpt lat="43.485782" lon="12.0057549"><ele>609.6666666666666</ele><time>2026-04-04T12:55:10.31Z</time></trkpt><trkpt lat="43.4857581" lon="12.005837"><ele>611.0</ele><time>2026-04-04T12:55:12.31Z</time></trkpt><trkpt lat="43.485748" lon="12.0059452"><ele>612.0</ele><time>2026-04-04T12:55:15.31Z</time></trkpt><trkpt lat="43.4857304" lon="12.0060546"><ele>613.0</ele><time>2026-04-04T12:55:18.31Z</time></trkpt><trkpt lat="43.4857045" lon="12.0061488"><ele>614.0</ele><time>2026-04-04T12:55:20.309Z</time></trkpt><trkpt lat="43.4856682" lon="12.0062396"><ele>615.0</ele><time>2026-04-04T12:55:23.31Z</time></trkpt><trkpt lat="43.4857439" lon="12.0063109"><ele>616.0</ele><time>2026-04-04T12:55:28.311Z</time></trkpt><trkpt lat="43.4858074" lon="12.0063106"><ele>617.0</ele><time>2026-04-04T12:55:30.31Z</time></trkpt><trkpt lat="43.4858801" lon="12.0063179"><ele>617.0</ele><time>2026-04-04T12:55:32.311Z</time></trkpt><trkpt lat="43.4859423" lon="12.0063754"><ele>617.0</ele><time>2026-04-04T12:55:34.31Z</time></trkpt><trkpt lat="43.4859719" lon="12.0064649"><ele>617.0</ele><time>2026-04-04T12:55:36.311Z</time></trkpt><trkpt lat="43.4859986" lon="12.0065445"><ele>617.0</ele><time>2026-04-04T12:55:38.31Z</time></trkpt><trkpt lat="43.4860693" lon="12.0066073"><ele>617.0</ele><time>2026-04-04T12:55:41.309Z</time></trkpt><trkpt lat="43.4861708" lon="12.0066534"><ele>617.0</ele><time>2026-04-04T12:55:43.31Z</time></trkpt><trkpt lat="43.486241" lon="12.0067015"><ele>614.8000000000001</ele><time>2026-04-04T12:55:45.311Z</time></trkpt><trkpt lat="43.4863299" lon="12.0068305"><ele>612.6</ele><time>2026-04-04T12:55:47.311Z</time></trkpt><trkpt lat="43.4863737" lon="12.0069453"><ele>610.4000000000001</ele><time>2026-04-04T12:55:49.31Z</time></trkpt><trkpt lat="43.4864174" lon="12.0070661"><ele>608.2</ele><time>2026-04-04T12:55:51.31Z</time></trkpt><trkpt lat="43.4864283" lon="12.0071683"><ele>606.0</ele><time>2026-04-04T12:55:52.31Z</time></trkpt><trkpt lat="43.4864697" lon="12.0072876"><ele>606.0</ele><time>2026-04-04T12:55:53.31Z</time></trkpt><trkpt lat="43.4864984" lon="12.0073852"><ele>606.0</ele><time>2026-04-04T12:55:54.31Z</time></trkpt><trkpt lat="43.486526" lon="12.0075317"><ele>606.0</ele><time>2026-04-04T12:55:56.31Z</time></trkpt><trkpt lat="43.4865523" lon="12.0076546"><ele>606.0</ele><time>2026-04-04T12:55:58.31Z</time></trkpt><trkpt lat="43.4865598" lon="12.0077856"><ele>606.0</ele><time>2026-04-04T12:56:00.31Z</time></trkpt><trkpt lat="43.4865474" lon="12.0079078"><ele>609.6</ele><time>2026-04-04T12:56:02.31Z</time></trkpt><trkpt lat="43.4864939" lon="12.0080391"><ele>613.2</ele><time>2026-04-04T12:56:04.31Z</time></trkpt><trkpt lat="43.4864362" lon="12.0081102"><ele>616.8</ele><time>2026-04-04T12:56:06.309Z</time></trkpt><trkpt lat="43.4863575" lon="12.0082418"><ele>620.4</ele><time>2026-04-04T12:56:08.31Z</time></trkpt><trkpt lat="43.4863" lon="12.008321"><ele>624.0</ele><time>2026-04-04T12:56:10.31Z</time></trkpt><trkpt lat="43.4862812" lon="12.0084272"><ele>628.2</ele><time>2026-04-04T12:56:12.31Z</time></trkpt><trkpt lat="43.4862589" lon="12.0085734"><ele>632.4</ele><time>2026-04-04T12:56:15.309Z</time></trkpt><trkpt lat="43.4862239" lon="12.0087218"><ele>636.6</ele><time>2026-04-04T12:56:17.31Z</time></trkpt><trkpt lat="43.486162" lon="12.0088196"><ele>640.8</ele><time>2026-04-04T12:56:19.31Z</time></trkpt><trkpt lat="43.4860969" lon="12.0089227"><ele>645.0</ele><time>2026-04-04T12:56:21.31Z</time></trkpt><trkpt lat="43.4860506" lon="12.0090379"><ele>645.0</ele><time>2026-04-04T12:56:23.31Z</time></trkpt><trkpt lat="43.4860233" lon="12.0091565"><ele>645.0</ele><time>2026-04-04T12:56:25.31Z</time></trkpt><trkpt lat="43.4860069" lon="12.0092448"><ele>645.0</ele><time>2026-04-04T12:56:27.31Z</time></trkpt><trkpt lat="43.485982" lon="12.0093676"><ele>645.0</ele><time>2026-04-04T12:56:30.31Z</time></trkpt><trkpt lat="43.4859732" lon="12.0094649"><ele>645.0</ele><time>2026-04-04T12:56:32.309Z</time></trkpt><trkpt lat="43.4859667" lon="12.0095956"><ele>645.0</ele><time>2026-04-04T12:56:35.31Z</time></trkpt><trkpt lat="43.4859769" lon="12.0097218"><ele>642.2857142857143</ele><time>2026-04-04T12:56:37.31Z</time></trkpt><trkpt lat="43.4859896" lon="12.0098118"><ele>639.5714285714286</ele><time>2026-04-04T12:56:39.31Z</time></trkpt><trkpt lat="43.4860013" lon="12.0099058"><ele>636.8571428571429</ele><time>2026-04-04T12:56:41.31Z</time></trkpt><trkpt lat="43.4860316" lon="12.0100025"><ele>634.1428571428571</ele><time>2026-04-04T12:56:44.31Z</time></trkpt><trkpt lat="43.4860611" lon="12.010101"><ele>631.4285714285714</ele><time>2026-04-04T12:57:10.31Z</time></trkpt><trkpt lat="43.4861236" lon="12.0101885"><ele>628.7142857142857</ele><time>2026-04-04T12:57:13.31Z</time></trkpt><trkpt lat="43.4861154" lon="12.0102821"><ele>626.0</ele><time>2026-04-04T12:57:15.31Z</time></trkpt><trkpt lat="43.4860524" lon="12.0103545"><ele>624.4</ele><time>2026-04-04T12:57:17.309Z</time></trkpt><trkpt lat="43.4859473" lon="12.0104289"><ele>622.8</ele><time>2026-04-04T12:57:19.31Z</time></trkpt><trkpt lat="43.485863" lon="12.0105085"><ele>621.1999999999999</ele><time>2026-04-04T12:57:21.309Z</time></trkpt><trkpt lat="43.4857888" lon="12.0106152"><ele>619.6</ele><time>2026-04-04T12:57:23.309Z</time></trkpt><trkpt lat="43.4857357" lon="12.0107307"><ele>618.0</ele><time>2026-04-04T12:57:25.31Z</time></trkpt><trkpt lat="43.4857599" lon="12.0108663"><ele>617.4</ele><time>2026-04-04T12:57:27.31Z</time></trkpt><trkpt lat="43.4858094" lon="12.0110015"><ele>616.8</ele><time>2026-04-04T12:57:29.31Z</time></trkpt><trkpt lat="43.4858431" lon="12.011157"><ele>616.2</ele><time>2026-04-04T12:57:31.31Z</time></trkpt><trkpt lat="43.4858656" lon="12.0112387"><ele>615.6</ele><time>2026-04-04T12:57:32.31Z</time></trkpt><trkpt lat="43.4858898" lon="12.0113249"><ele>615.0</ele><time>2026-04-04T12:57:33.31Z</time></trkpt><trkpt lat="43.4859453" lon="12.0114651"><ele>615.0</ele><time>2026-04-04T12:57:35.31Z</time></trkpt><trkpt lat="43.4860008" lon="12.0116133"><ele>615.0</ele><time>2026-04-04T12:57:37.31Z</time></trkpt><trkpt lat="43.4860498" lon="12.0117444"><ele>615.0</ele><time>2026-04-04T12:57:39.31Z</time></trkpt><trkpt lat="43.4860901" lon="12.0118544"><ele>615.0</ele><time>2026-04-04T12:57:41.31Z</time></trkpt><trkpt lat="43.4860919" lon="12.0119668"><ele>615.0</ele><time>2026-04-04T12:57:43.31Z</time></trkpt><trkpt lat="43.486059" lon="12.0120424"><ele>615.5</ele><time>2026-04-04T12:57:45.31Z</time></trkpt><trkpt lat="43.4859898" lon="12.0120506"><ele>616.0</ele><time>2026-04-04T12:57:47.31Z</time></trkpt><trkpt lat="43.4859198" lon="12.0119928"><ele>616.5</ele><time>2026-04-04T12:57:49.31Z</time></trkpt><trkpt lat="43.4858421" lon="12.0119117"><ele>617.0</ele><time>2026-04-04T12:57:51.31Z</time></trkpt><trkpt lat="43.4857874" lon="12.0118532"><ele>617.5</ele><time>2026-04-04T12:57:52.31Z</time></trkpt><trkpt lat="43.4857375" lon="12.0117924"><ele>618.0</ele><time>2026-04-04T12:57:53.31Z</time></trkpt><trkpt lat="43.4856471" lon="12.0116761"><ele>617.5</ele><time>2026-04-04T12:57:55.31Z</time></trkpt><trkpt lat="43.4855964" lon="12.0116201"><ele>617.0</ele><time>2026-04-04T12:57:56.31Z</time></trkpt><trkpt lat="43.4855315" lon="12.0115166"><ele>616.5</ele><time>2026-04-04T12:57:58.31Z</time></trkpt><trkpt lat="43.4854751" lon="12.0114266"><ele>616.0</ele><time>2026-04-04T12:58:00.31Z</time></trkpt><trkpt lat="43.4854058" lon="12.0113974"><ele>615.5</ele><time>2026-04-04T12:58:02.31Z</time></trkpt><trkpt lat="43.4853317" lon="12.0113619"><ele>615.0</ele><time>2026-04-04T12:58:04.31Z</time></trkpt><trkpt lat="43.4852623" lon="12.0113079"><ele>619.6</ele><time>2026-04-04T12:58:06.31Z</time></trkpt><trkpt lat="43.4851719" lon="12.011234"><ele>624.2</ele><time>2026-04-04T12:58:08.31Z</time></trkpt><trkpt lat="43.4850805" lon="12.0111877"><ele>628.8</ele><time>2026-04-04T12:58:10.31Z</time></trkpt><trkpt lat="43.4849996" lon="12.011185"><ele>633.4</ele><time>2026-04-04T12:58:12.31Z</time></trkpt><trkpt lat="43.4849135" lon="12.0112313"><ele>638.0</ele><time>2026-04-04T12:58:15.31Z</time></trkpt><trkpt lat="43.4848379" lon="12.0111788"><ele>638.0</ele><time>2026-04-04T12:58:18.31Z</time></trkpt><trkpt lat="43.4847649" lon="12.0111623"><ele>638.0</ele><time>2026-04-04T12:58:21.31Z</time></trkpt><trkpt lat="43.484719" lon="12.0112656"><ele>638.0</ele><time>2026-04-04T12:58:24.31Z</time></trkpt><trkpt lat="43.4846954" lon="12.0113902"><ele>638.0</ele><time>2026-04-04T12:58:27.31Z</time></trkpt><trkpt lat="43.4846791" lon="12.0115183"><ele>638.0</ele><time>2026-04-04T12:58:30.31Z</time></trkpt><trkpt lat="43.4846619" lon="12.0116445"><ele>638.0</ele><time>2026-04-04T12:58:32.31Z</time></trkpt><trkpt lat="43.4846376" lon="12.0117817"><ele>637.8</ele><time>2026-04-04T12:58:34.309Z</time></trkpt><trkpt lat="43.4846204" lon="12.0119332"><ele>637.5999999999999</ele><time>2026-04-04T12:58:36.31Z</time></trkpt><trkpt lat="43.4845967" lon="12.0120512"><ele>637.4000000000001</ele><time>2026-04-04T12:58:38.31Z</time></trkpt><trkpt lat="43.4845541" lon="12.0121929"><ele>637.2</ele><time>2026-04-04T12:58:40.309Z</time></trkpt><trkpt lat="43.4844991" lon="12.0122382"><ele>637.0</ele><time>2026-04-04T12:58:43.31Z</time></trkpt><trkpt lat="43.4844675" lon="12.0123369"><ele>640.8333333333334</ele><time>2026-04-04T12:58:47.31Z</time></trkpt><trkpt lat="43.4844367" lon="12.0124217"><ele>644.6666666666667</ele><time>2026-04-04T12:58:49.31Z</time></trkpt><trkpt lat="43.4844613" lon="12.0125098"><ele>648.5</ele><time>2026-04-04T12:58:50.31Z</time></trkpt><trkpt lat="43.4844994" lon="12.0126166"><ele>652.3333333333334</ele><time>2026-04-04T12:58:52.31Z</time></trkpt><trkpt lat="43.4845462" lon="12.0127503"><ele>656.1666666666666</ele><time>2026-04-04T12:58:54.31Z</time></trkpt><trkpt lat="43.484536" lon="12.0128979"><ele>660.0</ele><time>2026-04-04T12:58:56.31Z</time></trkpt><trkpt lat="43.48449" lon="12.013017"><ele>660.0</ele><time>2026-04-04T12:58:58.31Z</time></trkpt><trkpt lat="43.4844398" lon="12.0131952"><ele>660.0</ele><time>2026-04-04T12:59:00.31Z</time></trkpt><trkpt lat="43.4844291" lon="12.0132891"><ele>660.0</ele><time>2026-04-04T12:59:01.31Z</time></trkpt><trkpt lat="43.4844466" lon="12.013377"><ele>660.0</ele><time>2026-04-04T12:59:04.31Z</time></trkpt><trkpt lat="43.4845488" lon="12.0134082"><ele>660.0</ele><time>2026-04-04T12:59:06.31Z</time></trkpt><trkpt lat="43.4846166" lon="12.013529"><ele>659.8333333333334</ele><time>2026-04-04T12:59:08.31Z</time></trkpt><trkpt lat="43.4846102" lon="12.0136545"><ele>659.6666666666666</ele><time>2026-04-04T12:59:10.31Z</time></trkpt><trkpt lat="43.4845376" lon="12.0137458"><ele>659.5</ele><time>2026-04-04T12:59:12.309Z</time></trkpt><trkpt lat="43.4844771" lon="12.0137742"><ele>659.3333333333333</ele><time>2026-04-04T12:59:13.31Z</time></trkpt><trkpt lat="43.4844194" lon="12.0138103"><ele>659.1666666666666</ele><time>2026-04-04T12:59:14.31Z</time></trkpt><trkpt lat="43.4843593" lon="12.0138525"><ele>659.0</ele><time>2026-04-04T12:59:15.31Z</time></trkpt><trkpt lat="43.4842603" lon="12.0138988"><ele>659.0</ele><time>2026-04-04T12:59:17.31Z</time></trkpt><trkpt lat="43.4842159" lon="12.0139807"><ele>659.0</ele><time>2026-04-04T12:59:19.31Z</time></trkpt><trkpt lat="43.4842236" lon="12.0140846"><ele>659.0</ele><time>2026-04-04T12:59:21.309Z</time></trkpt><trkpt lat="43.4843038" lon="12.014181"><ele>659.0</ele><time>2026-04-04T12:59:23.31Z</time></trkpt><trkpt lat="43.4843555" lon="12.0143108"><ele>659.0</ele><time>2026-04-04T12:59:25.31Z</time></trkpt><trkpt lat="43.484346" lon="12.0144615"><ele>658.2</ele><time>2026-04-04T12:59:27.309Z</time></trkpt><trkpt lat="43.4842941" lon="12.0146352"><ele>657.4000000000001</ele><time>2026-04-04T12:59:29.31Z</time></trkpt><trkpt lat="43.4842723" lon="12.0147217"><ele>656.6</ele><time>2026-04-04T12:59:30.31Z</time></trkpt><trkpt lat="43.4842204" lon="12.0148873"><ele>655.8</ele><time>2026-04-04T12:59:32.31Z</time></trkpt><trkpt lat="43.4841959" lon="12.0149736"><ele>655.0</ele><time>2026-04-04T12:59:33.31Z</time></trkpt><trkpt lat="43.4841904" lon="12.0150974"><ele>654.8333333333334</ele><time>2026-04-04T12:59:35.31Z</time></trkpt><trkpt lat="43.4841557" lon="12.0152189"><ele>654.6666666666667</ele><time>2026-04-04T12:59:37.31Z</time></trkpt><trkpt lat="43.484122" lon="12.0153363"><ele>654.5</ele><time>2026-04-04T12:59:39.31Z</time></trkpt><trkpt lat="43.4840997" lon="12.015441"><ele>654.3333333333334</ele><time>2026-04-04T12:59:41.31Z</time></trkpt><trkpt lat="43.484042" lon="12.0155137"><ele>654.1666666666666</ele><time>2026-04-04T12:59:43.31Z</time></trkpt><trkpt lat="43.4839662" lon="12.0155984"><ele>654.0</ele><time>2026-04-04T12:59:45.31Z</time></trkpt><trkpt lat="43.4839036" lon="12.0156703"><ele>654.0</ele><time>2026-04-04T12:59:47.31Z</time></trkpt><trkpt lat="43.4838106" lon="12.015735"><ele>654.0</ele><time>2026-04-04T12:59:49.31Z</time></trkpt><trkpt lat="43.4837365" lon="12.0157902"><ele>654.0</ele><time>2026-04-04T12:59:51.311Z</time></trkpt><trkpt lat="43.4836526" lon="12.0158363"><ele>654.0</ele><time>2026-04-04T12:59:53.31Z</time></trkpt><trkpt lat="43.4835631" lon="12.0158664"><ele>654.0</ele><time>2026-04-04T12:59:55.311Z</time></trkpt><trkpt lat="43.4834306" lon="12.015895"><ele>657.0</ele><time>2026-04-04T12:59:57.31Z</time></trkpt><trkpt lat="43.4833589" lon="12.0159159"><ele>660.0</ele><time>2026-04-04T12:59:58.31Z</time></trkpt><trkpt lat="43.4833143" lon="12.0159968"><ele>663.0</ele><time>2026-04-04T13:00:01.309Z</time></trkpt><trkpt lat="43.4833449" lon="12.0160782"><ele>666.0</ele><time>2026-04-04T13:00:03.31Z</time></trkpt><trkpt lat="43.4833772" lon="12.0162248"><ele>669.0</ele><time>2026-04-04T13:00:06.311Z</time></trkpt><trkpt lat="43.4833884" lon="12.0163457"><ele>672.0</ele><time>2026-04-04T13:00:08.311Z</time></trkpt><trkpt lat="43.483378" lon="12.0164431"><ele>672.0</ele><time>2026-04-04T13:00:09.311Z</time></trkpt><trkpt lat="43.483405" lon="12.0165581"><ele>672.0</ele><time>2026-04-04T13:00:11.309Z</time></trkpt><trkpt lat="43.48349" lon="12.0166664"><ele>672.0</ele><time>2026-04-04T13:00:12.31Z</time></trkpt><trkpt lat="43.4835286" lon="12.0167423"><ele>672.0</ele><time>2026-04-04T13:00:13.31Z</time></trkpt><trkpt lat="43.4835613" lon="12.0168595"><ele>672.0</ele><time>2026-04-04T13:00:15.31Z</time></trkpt><trkpt lat="43.4835547" lon="12.0169822"><ele>671.8</ele><time>2026-04-04T13:00:17.31Z</time></trkpt><trkpt lat="43.4835067" lon="12.0170596"><ele>671.6</ele><time>2026-04-04T13:00:19.31Z</time></trkpt><trkpt lat="43.4834765" lon="12.0171893"><ele>671.4</ele><time>2026-04-04T13:00:21.31Z</time></trkpt><trkpt lat="43.4834533" lon="12.0173269"><ele>671.1999999999999</ele><time>2026-04-04T13:00:23.31Z</time></trkpt><trkpt lat="43.4833835" lon="12.0174433"><ele>671.0</ele><time>2026-04-04T13:00:25.31Z</time></trkpt><trkpt lat="43.4833289" lon="12.0175098"><ele>671.0</ele><time>2026-04-04T13:00:27.31Z</time></trkpt><trkpt lat="43.4832614" lon="12.0175369"><ele>671.0</ele><time>2026-04-04T13:00:29.31Z</time></trkpt><trkpt lat="43.483177" lon="12.0175112"><ele>671.0</ele><time>2026-04-04T13:00:31.31Z</time></trkpt><trkpt lat="43.4830836" lon="12.0174783"><ele>671.0</ele><time>2026-04-04T13:00:33.31Z</time></trkpt><trkpt lat="43.4830097" lon="12.017454"><ele>671.0</ele><time>2026-04-04T13:00:35.31Z</time></trkpt><trkpt lat="43.4829449" lon="12.0174345"><ele>671.0</ele><time>2026-04-04T13:00:37.31Z</time></trkpt><trkpt lat="43.4828761" lon="12.017484"><ele>672.0</ele><time>2026-04-04T13:00:40.31Z</time></trkpt><trkpt lat="43.4827998" lon="12.0175446"><ele>673.0</ele><time>2026-04-04T13:02:02.31Z</time></trkpt><trkpt lat="43.4827324" lon="12.0176282"><ele>674.0</ele><time>2026-04-04T13:02:04.309Z</time></trkpt><trkpt lat="43.4826836" lon="12.0176869"><ele>675.0</ele><time>2026-04-04T13:02:05.31Z</time></trkpt><trkpt lat="43.48263" lon="12.0177524"><ele>676.0</ele><time>2026-04-04T13:02:06.31Z</time></trkpt><trkpt lat="43.4825664" lon="12.0178194"><ele>677.0</ele><time>2026-04-04T13:02:07.309Z</time></trkpt><trkpt lat="43.4824984" lon="12.0178843"><ele>677.0</ele><time>2026-04-04T13:02:08.31Z</time></trkpt><trkpt lat="43.4824284" lon="12.0179356"><ele>677.0</ele><time>2026-04-04T13:02:09.31Z</time></trkpt><trkpt lat="43.4823556" lon="12.0179813"><ele>677.0</ele><time>2026-04-04T13:02:10.309Z</time></trkpt><trkpt lat="43.4822914" lon="12.0180188"><ele>677.0</ele><time>2026-04-04T13:02:11.31Z</time></trkpt><trkpt lat="43.4822247" lon="12.0180765"><ele>677.0</ele><time>2026-04-04T13:02:12.31Z</time></trkpt><trkpt lat="43.4821427" lon="12.0181531"><ele>677.0</ele><time>2026-04-04T13:02:13.31Z</time></trkpt><trkpt lat="43.4820711" lon="12.0182299"><ele>676.0</ele><time>2026-04-04T13:02:14.31Z</time></trkpt><trkpt lat="43.4819932" lon="12.0183208"><ele>675.0</ele><time>2026-04-04T13:02:15.31Z</time></trkpt><trkpt lat="43.4819244" lon="12.0184155"><ele>674.0</ele><time>2026-04-04T13:02:16.31Z</time></trkpt><trkpt lat="43.4818567" lon="12.0185033"><ele>673.0</ele><time>2026-04-04T13:02:17.311Z</time></trkpt><trkpt lat="43.4817974" lon="12.0185938"><ele>672.0</ele><time>2026-04-04T13:02:18.31Z</time></trkpt><trkpt lat="43.4817534" lon="12.0186801"><ele>672.0</ele><time>2026-04-04T13:02:19.309Z</time></trkpt><trkpt lat="43.4817256" lon="12.0187746"><ele>672.0</ele><time>2026-04-04T13:02:20.31Z</time></trkpt><trkpt lat="43.4817191" lon="12.0188704"><ele>672.0</ele><time>2026-04-04T13:02:21.31Z</time></trkpt><trkpt lat="43.4817414" lon="12.0189605"><ele>672.0</ele><time>2026-04-04T13:02:22.31Z</time></trkpt><trkpt lat="43.4817905" lon="12.0190196"><ele>672.0</ele><time>2026-04-04T13:02:23.31Z</time></trkpt><trkpt lat="43.4818555" lon="12.0190482"><ele>672.0</ele><time>2026-04-04T13:02:24.31Z</time></trkpt><trkpt lat="43.4819309" lon="12.0190478"><ele>672.0</ele><time>2026-04-04T13:02:25.31Z</time></trkpt><trkpt lat="43.482005" lon="12.019033"><ele>672.0</ele><time>2026-04-04T13:02:26.31Z</time></trkpt><trkpt lat="43.4820832" lon="12.019018"><ele>672.0</ele><time>2026-04-04T13:02:27.31Z</time></trkpt><trkpt lat="43.4821586" lon="12.0190141"><ele>672.0</ele><time>2026-04-04T13:02:28.309Z</time></trkpt><trkpt lat="43.4822322" lon="12.0190389"><ele>672.0</ele><time>2026-04-04T13:02:29.31Z</time></trkpt><trkpt lat="43.4823" lon="12.0190848"><ele>672.0</ele><time>2026-04-04T13:02:30.31Z</time></trkpt><trkpt lat="43.4823653" lon="12.0191459"><ele>672.0</ele><time>2026-04-04T13:02:31.31Z</time></trkpt><trkpt lat="43.4824345" lon="12.0192194"><ele>675.2</ele><time>2026-04-04T13:02:32.31Z</time></trkpt><trkpt lat="43.4824918" lon="12.0192999"><ele>678.4000000000001</ele><time>2026-04-04T13:02:33.311Z</time></trkpt><trkpt lat="43.4825455" lon="12.0194088"><ele>681.5999999999999</ele><time>2026-04-04T13:02:34.31Z</time></trkpt><trkpt lat="43.4825709" lon="12.0195357"><ele>684.8</ele><time>2026-04-04T13:02:35.31Z</time></trkpt><trkpt lat="43.4825823" lon="12.0196723"><ele>688.0</ele><time>2026-04-04T13:02:36.31Z</time></trkpt><trkpt lat="43.4825744" lon="12.0198125"><ele>688.0</ele><time>2026-04-04T13:02:37.311Z</time></trkpt><trkpt lat="43.4825602" lon="12.0199417"><ele>688.0</ele><time>2026-04-04T13:02:38.31Z</time></trkpt><trkpt lat="43.4825489" lon="12.0200752"><ele>688.0</ele><time>2026-04-04T13:02:39.31Z</time></trkpt><trkpt lat="43.4825497" lon="12.0202168"><ele>688.0</ele><time>2026-04-04T13:02:40.31Z</time></trkpt><trkpt lat="43.4825652" lon="12.020355"><ele>688.0</ele><time>2026-04-04T13:02:41.31Z</time></trkpt><trkpt lat="43.4825979" lon="12.0204913"><ele>687.8</ele><time>2026-04-04T13:02:42.31Z</time></trkpt><trkpt lat="43.4826478" lon="12.0206156"><ele>687.5999999999999</ele><time>2026-04-04T13:02:43.31Z</time></trkpt><trkpt lat="43.4827109" lon="12.0207287"><ele>687.4000000000001</ele><time>2026-04-04T13:02:44.31Z</time></trkpt><trkpt lat="43.48278" lon="12.0208373"><ele>687.2</ele><time>2026-04-04T13:02:45.31Z</time></trkpt><trkpt lat="43.482856" lon="12.0209447"><ele>687.0</ele><time>2026-04-04T13:02:46.31Z</time></trkpt><trkpt lat="43.4829364" lon="12.0210454"><ele>688.4000000000001</ele><time>2026-04-04T13:02:47.309Z</time></trkpt><trkpt lat="43.4830167" lon="12.0211465"><ele>689.8000000000001</ele><time>2026-04-04T13:02:48.309Z</time></trkpt><trkpt lat="43.4830968" lon="12.0212485"><ele>691.2</ele><time>2026-04-04T13:02:49.31Z</time></trkpt><trkpt lat="43.4831794" lon="12.0213511"><ele>692.6</ele><time>2026-04-04T13:02:50.31Z</time></trkpt><trkpt lat="43.4832637" lon="12.0214474"><ele>694.0</ele><time>2026-04-04T13:02:51.309Z</time></trkpt><trkpt lat="43.4833433" lon="12.0215391"><ele>694.0</ele><time>2026-04-04T13:02:52.31Z</time></trkpt><trkpt lat="43.4834031" lon="12.0216323"><ele>694.0</ele><time>2026-04-04T13:02:53.309Z</time></trkpt><trkpt lat="43.4834431" lon="12.0217284"><ele>694.0</ele><time>2026-04-04T13:02:54.311Z</time></trkpt><trkpt lat="43.4834643" lon="12.0218345"><ele>694.0</ele><time>2026-04-04T13:02:55.31Z</time></trkpt><trkpt lat="43.4834891" lon="12.0219616"><ele>694.0</ele><time>2026-04-04T13:02:56.31Z</time></trkpt><trkpt lat="43.4835229" lon="12.022092"><ele>694.0</ele><time>2026-04-04T13:02:57.31Z</time></trkpt><trkpt lat="43.4835661" lon="12.0222286"><ele>696.5</ele><time>2026-04-04T13:02:58.31Z</time></trkpt><trkpt lat="43.4836095" lon="12.0223764"><ele>699.0</ele><time>2026-04-04T13:02:59.31Z</time></trkpt><trkpt lat="43.4836913" lon="12.0226261"><ele>701.5</ele><time>2026-04-04T13:03:01.31Z</time></trkpt><trkpt lat="43.4837413" lon="12.0227206"><ele>704.0</ele><time>2026-04-04T13:03:02.309Z</time></trkpt><trkpt lat="43.4838043" lon="12.0228132"><ele>707.2</ele><time>2026-04-04T13:03:03.309Z</time></trkpt><trkpt lat="43.4838741" lon="12.0229087"><ele>710.4000000000001</ele><time>2026-04-04T13:03:04.309Z</time></trkpt><trkpt lat="43.4839518" lon="12.0230074"><ele>713.6</ele><time>2026-04-04T13:03:05.31Z</time></trkpt><trkpt lat="43.4840219" lon="12.0231005"><ele>716.8</ele><time>2026-04-04T13:03:06.31Z</time></trkpt><trkpt lat="43.4840668" lon="12.0231956"><ele>720.0</ele><time>2026-04-04T13:03:07.311Z</time></trkpt><trkpt lat="43.4840945" lon="12.0232972"><ele>721.0</ele><time>2026-04-04T13:03:08.31Z</time></trkpt><trkpt lat="43.4841074" lon="12.0234034"><ele>722.0</ele><time>2026-04-04T13:03:09.31Z</time></trkpt><trkpt lat="43.4841086" lon="12.0235072"><ele>723.0</ele><time>2026-04-04T13:03:10.31Z</time></trkpt><trkpt lat="43.4841051" lon="12.0236239"><ele>724.0</ele><time>2026-04-04T13:03:11.31Z</time></trkpt><trkpt lat="43.4841041" lon="12.0237385"><ele>725.0</ele><time>2026-04-04T13:03:12.31Z</time></trkpt><trkpt lat="43.4840979" lon="12.0238564"><ele>726.0</ele><time>2026-04-04T13:03:13.31Z</time></trkpt><trkpt lat="43.4840826" lon="12.0239763"><ele>726.0</ele><time>2026-04-04T13:03:14.309Z</time></trkpt><trkpt lat="43.4840509" lon="12.0240845"><ele>726.0</ele><time>2026-04-04T13:03:15.31Z</time></trkpt><trkpt lat="43.4840024" lon="12.0241798"><ele>726.0</ele><time>2026-04-04T13:03:16.31Z</time></trkpt><trkpt lat="43.4839432" lon="12.024261"><ele>726.0</ele><time>2026-04-04T13:03:17.31Z</time></trkpt><trkpt lat="43.4838813" lon="12.0243336"><ele>726.0</ele><time>2026-04-04T13:03:18.31Z</time></trkpt><trkpt lat="43.4838151" lon="12.0244064"><ele>726.0</ele><time>2026-04-04T13:03:19.31Z</time></trkpt><trkpt lat="43.4837525" lon="12.0244758"><ele>724.8333333333334</ele><time>2026-04-04T13:03:20.31Z</time></trkpt><trkpt lat="43.4836822" lon="12.0245503"><ele>723.6666666666666</ele><time>2026-04-04T13:03:21.31Z</time></trkpt><trkpt lat="43.4836148" lon="12.0246231"><ele>722.5</ele><time>2026-04-04T13:03:22.309Z</time></trkpt><trkpt lat="43.483552" lon="12.0247055"><ele>721.3333333333333</ele><time>2026-04-04T13:03:23.31Z</time></trkpt><trkpt lat="43.4835035" lon="12.024793"><ele>720.1666666666666</ele><time>2026-04-04T13:03:24.31Z</time></trkpt><trkpt lat="43.4834637" lon="12.0248929"><ele>719.0</ele><time>2026-04-04T13:03:25.309Z</time></trkpt><trkpt lat="43.4834356" lon="12.0250032"><ele>722.1666666666666</ele><time>2026-04-04T13:03:26.31Z</time></trkpt><trkpt lat="43.4834143" lon="12.0251164"><ele>725.3333333333333</ele><time>2026-04-04T13:03:27.31Z</time></trkpt><trkpt lat="43.4833925" lon="12.0252304"><ele>728.5</ele><time>2026-04-04T13:03:28.31Z</time></trkpt><trkpt lat="43.4833643" lon="12.0253392"><ele>731.6666666666666</ele><time>2026-04-04T13:03:29.31Z</time></trkpt><trkpt lat="43.4833271" lon="12.0254528"><ele>734.8333333333334</ele><time>2026-04-04T13:03:30.31Z</time></trkpt><trkpt lat="43.4832839" lon="12.0255735"><ele>738.0</ele><time>2026-04-04T13:03:31.31Z</time></trkpt><trkpt lat="43.4832408" lon="12.0256942"><ele>739.2</ele><time>2026-04-04T13:03:32.31Z</time></trkpt><trkpt lat="43.4831971" lon="12.0258198"><ele>740.4</ele><time>2026-04-04T13:03:33.309Z</time></trkpt><trkpt lat="43.4831479" lon="12.0259539"><ele>741.6</ele><time>2026-04-04T13:03:34.31Z</time></trkpt><trkpt lat="43.4830975" lon="12.0260951"><ele>742.8000000000001</ele><time>2026-04-04T13:03:35.31Z</time></trkpt><trkpt lat="43.4830506" lon="12.0262439"><ele>744.0</ele><time>2026-04-04T13:03:36.31Z</time></trkpt><trkpt lat="43.4830033" lon="12.0263838"><ele>744.0</ele><time>2026-04-04T13:03:37.31Z</time></trkpt><trkpt lat="43.4829599" lon="12.0265054"><ele>744.0</ele><time>2026-04-04T13:03:38.311Z</time></trkpt><trkpt lat="43.4829224" lon="12.0266103"><ele>744.0</ele><time>2026-04-04T13:03:39.31Z</time></trkpt><trkpt lat="43.4828893" lon="12.0267017"><ele>744.0</ele><time>2026-04-04T13:03:40.31Z</time></trkpt><trkpt lat="43.4828527" lon="12.0268579"><ele>744.0</ele><time>2026-04-04T13:03:42.311Z</time></trkpt><trkpt lat="43.4828145" lon="12.0269804"><ele>742.8000000000001</ele><time>2026-04-04T13:03:44.31Z</time></trkpt><trkpt lat="43.4827541" lon="12.0270844"><ele>741.6</ele><time>2026-04-04T13:03:46.309Z</time></trkpt><trkpt lat="43.4827053" lon="12.0271433"><ele>740.4</ele><time>2026-04-04T13:03:47.31Z</time></trkpt><trkpt lat="43.4826366" lon="12.0272508"><ele>739.2</ele><time>2026-04-04T13:03:49.31Z</time></trkpt><trkpt lat="43.4825761" lon="12.027395"><ele>738.0</ele><time>2026-04-04T13:03:51.309Z</time></trkpt><trkpt lat="43.4825632" lon="12.0274815"><ele>738.0</ele><time>2026-04-04T13:03:52.31Z</time></trkpt><trkpt lat="43.4825196" lon="12.0275495"><ele>738.0</ele><time>2026-04-04T13:03:53.31Z</time></trkpt><trkpt lat="43.4824749" lon="12.0276376"><ele>738.0</ele><time>2026-04-04T13:03:54.309Z</time></trkpt><trkpt lat="43.4824423" lon="12.0277784"><ele>738.0</ele><time>2026-04-04T13:03:56.31Z</time></trkpt><trkpt lat="43.4824115" lon="12.0278655"><ele>738.0</ele><time>2026-04-04T13:03:58.309Z</time></trkpt><trkpt lat="43.4823378" lon="12.0279645"><ele>738.0</ele><time>2026-04-04T13:04:00.309Z</time></trkpt><trkpt lat="43.4822671" lon="12.0280494"><ele>738.0</ele><time>2026-04-04T13:04:02.31Z</time></trkpt><trkpt lat="43.4822197" lon="12.0281245"><ele>738.0</ele><time>2026-04-04T13:04:04.31Z</time></trkpt><trkpt lat="43.482169" lon="12.0282613"><ele>738.0</ele><time>2026-04-04T13:04:06.31Z</time></trkpt><trkpt lat="43.4821322" lon="12.0284022"><ele>738.0</ele><time>2026-04-04T13:04:08.31Z</time></trkpt><trkpt lat="43.4821119" lon="12.0284866"><ele>738.0</ele><time>2026-04-04T13:04:09.31Z</time></trkpt><trkpt lat="43.4820762" lon="12.0286283"><ele>733.0</ele><time>2026-04-04T13:04:11.31Z</time></trkpt><trkpt lat="43.4820194" lon="12.0287799"><ele>728.0</ele><time>2026-04-04T13:04:13.31Z</time></trkpt><trkpt lat="43.4819666" lon="12.0289125"><ele>723.0</ele><time>2026-04-04T13:04:15.31Z</time></trkpt><trkpt lat="43.4818685" lon="12.0290032"><ele>718.0</ele><time>2026-04-04T13:04:17.31Z</time></trkpt><trkpt lat="43.4818034" lon="12.0290254"><ele>713.0</ele><time>2026-04-04T13:04:18.309Z</time></trkpt><trkpt lat="43.4817427" lon="12.0290509"><ele>713.0</ele><time>2026-04-04T13:04:19.31Z</time></trkpt><trkpt lat="43.4816418" lon="12.0290864"><ele>713.0</ele><time>2026-04-04T13:04:21.31Z</time></trkpt><trkpt lat="43.4815744" lon="12.0291032"><ele>713.0</ele><time>2026-04-04T13:04:23.309Z</time></trkpt><trkpt lat="43.4815024" lon="12.0290713"><ele>713.0</ele><time>2026-04-04T13:04:25.31Z</time></trkpt><trkpt lat="43.4814088" lon="12.0290282"><ele>713.0</ele><time>2026-04-04T13:04:27.31Z</time></trkpt><trkpt lat="43.481304" lon="12.0290062"><ele>710.0</ele><time>2026-04-04T13:04:29.31Z</time></trkpt><trkpt lat="43.4811891" lon="12.0290084"><ele>707.0</ele><time>2026-04-04T13:04:31.31Z</time></trkpt><trkpt lat="43.481092" lon="12.0289639"><ele>704.0</ele><time>2026-04-04T13:04:33.31Z</time></trkpt><trkpt lat="43.4809962" lon="12.0289048"><ele>701.0</ele><time>2026-04-04T13:04:35.31Z</time></trkpt><trkpt lat="43.4808767" lon="12.0288854"><ele>698.0</ele><time>2026-04-04T13:04:37.31Z</time></trkpt><trkpt lat="43.4808043" lon="12.0288845"><ele>698.0</ele><time>2026-04-04T13:04:38.31Z</time></trkpt><trkpt lat="43.4807388" lon="12.0288824"><ele>698.0</ele><time>2026-04-04T13:04:39.31Z</time></trkpt><trkpt lat="43.4806737" lon="12.0288927"><ele>698.0</ele><time>2026-04-04T13:04:40.31Z</time></trkpt><trkpt lat="43.4805662" lon="12.0289064"><ele>698.0</ele><time>2026-04-04T13:04:42.31Z</time></trkpt><trkpt lat="43.4804508" lon="12.028928"><ele>698.0</ele><time>2026-04-04T13:04:44.31Z</time></trkpt><trkpt lat="43.4803462" lon="12.0289587"><ele>698.2</ele><time>2026-04-04T13:04:46.31Z</time></trkpt><trkpt lat="43.4802438" lon="12.0289862"><ele>698.4</ele><time>2026-04-04T13:04:48.309Z</time></trkpt><trkpt lat="43.4801425" lon="12.0290159"><ele>698.6</ele><time>2026-04-04T13:04:50.31Z</time></trkpt><trkpt lat="43.4800432" lon="12.0290733"><ele>698.8000000000001</ele><time>2026-04-04T13:04:52.31Z</time></trkpt><trkpt lat="43.479963" lon="12.0291116"><ele>699.0</ele><time>2026-04-04T13:04:54.309Z</time></trkpt><trkpt lat="43.4798853" lon="12.0291809"><ele>699.0</ele><time>2026-04-04T13:04:56.31Z</time></trkpt><trkpt lat="43.4797965" lon="12.0292495"><ele>699.0</ele><time>2026-04-04T13:04:58.31Z</time></trkpt><trkpt lat="43.4797089" lon="12.0292956"><ele>699.0</ele><time>2026-04-04T13:05:00.31Z</time></trkpt><trkpt lat="43.479616" lon="12.0293217"><ele>699.0</ele><time>2026-04-04T13:05:02.31Z</time></trkpt><trkpt lat="43.4794931" lon="12.0293451"><ele>699.0</ele><time>2026-04-04T13:05:04.31Z</time></trkpt><trkpt lat="43.4794273" lon="12.0293457"><ele>696.6666666666666</ele><time>2026-04-04T13:05:05.31Z</time></trkpt><trkpt lat="43.4793637" lon="12.029354"><ele>694.3333333333334</ele><time>2026-04-04T13:05:06.31Z</time></trkpt><trkpt lat="43.4792415" lon="12.0293369"><ele>692.0</ele><time>2026-04-04T13:05:08.31Z</time></trkpt><trkpt lat="43.479178" lon="12.0293063"><ele>689.6666666666667</ele><time>2026-04-04T13:05:09.31Z</time></trkpt><trkpt lat="43.4791076" lon="12.0292802"><ele>687.3333333333334</ele><time>2026-04-04T13:05:10.31Z</time></trkpt><trkpt lat="43.4790349" lon="12.0292542"><ele>685.0</ele><time>2026-04-04T13:05:11.309Z</time></trkpt><trkpt lat="43.4789627" lon="12.0292295"><ele>685.0</ele><time>2026-04-04T13:05:12.309Z</time></trkpt><trkpt lat="43.4788984" lon="12.0292041"><ele>685.0</ele><time>2026-04-04T13:05:13.31Z</time></trkpt><trkpt lat="43.4788245" lon="12.0291887"><ele>685.0</ele><time>2026-04-04T13:05:14.31Z</time></trkpt><trkpt lat="43.478753" lon="12.0291788"><ele>685.0</ele><time>2026-04-04T13:05:15.31Z</time></trkpt><trkpt lat="43.4786438" lon="12.0291342"><ele>685.0</ele><time>2026-04-04T13:05:17.31Z</time></trkpt><trkpt lat="43.4785462" lon="12.0290409"><ele>685.0</ele><time>2026-04-04T13:05:19.311Z</time></trkpt><trkpt lat="43.4784319" lon="12.0289548"><ele>680.8</ele><time>2026-04-04T13:05:21.31Z</time></trkpt><trkpt lat="43.4783696" lon="12.0289164"><ele>676.6</ele><time>2026-04-04T13:05:22.31Z</time></trkpt><trkpt lat="43.4782438" lon="12.0288385"><ele>672.4000000000001</ele><time>2026-04-04T13:05:24.31Z</time></trkpt><trkpt lat="43.4781847" lon="12.0287838"><ele>668.2</ele><time>2026-04-04T13:05:25.31Z</time></trkpt><trkpt lat="43.4781347" lon="12.0287191"><ele>664.0</ele><time>2026-04-04T13:05:26.31Z</time></trkpt><trkpt lat="43.4780323" lon="12.0286324"><ele>664.0</ele><time>2026-04-04T13:05:28.31Z</time></trkpt><trkpt lat="43.4779721" lon="12.0286047"><ele>664.0</ele><time>2026-04-04T13:05:29.31Z</time></trkpt><trkpt lat="43.4778582" lon="12.0285634"><ele>664.0</ele><time>2026-04-04T13:05:31.31Z</time></trkpt><trkpt lat="43.4777414" lon="12.0285062"><ele>664.0</ele><time>2026-04-04T13:05:33.31Z</time></trkpt><trkpt lat="43.4776677" lon="12.028475"><ele>664.0</ele><time>2026-04-04T13:05:34.31Z</time></trkpt><trkpt lat="43.4775982" lon="12.0284585"><ele>663.1666666666667</ele><time>2026-04-04T13:05:35.31Z</time></trkpt><trkpt lat="43.4775333" lon="12.0284491"><ele>662.3333333333334</ele><time>2026-04-04T13:05:36.31Z</time></trkpt><trkpt lat="43.4774696" lon="12.0284375"><ele>661.5</ele><time>2026-04-04T13:05:37.31Z</time></trkpt><trkpt lat="43.4773381" lon="12.0284432"><ele>660.6666666666666</ele><time>2026-04-04T13:05:39.309Z</time></trkpt><trkpt lat="43.4772745" lon="12.0284358"><ele>659.8333333333333</ele><time>2026-04-04T13:05:40.31Z</time></trkpt><trkpt lat="43.4771933" lon="12.0284178"><ele>659.0</ele><time>2026-04-04T13:05:41.31Z</time></trkpt><trkpt lat="43.4771279" lon="12.0283951"><ele>655.8000000000001</ele><time>2026-04-04T13:05:42.31Z</time></trkpt><trkpt lat="43.477054" lon="12.0283696"><ele>652.6</ele><time>2026-04-04T13:05:43.31Z</time></trkpt><trkpt lat="43.4769714" lon="12.0283508"><ele>649.4</ele><time>2026-04-04T13:05:44.31Z</time></trkpt><trkpt lat="43.4768749" lon="12.0282732"><ele>646.2</ele><time>2026-04-04T13:05:46.31Z</time></trkpt><trkpt lat="43.4768113" lon="12.0282331"><ele>643.0</ele><time>2026-04-04T13:05:47.31Z</time></trkpt><trkpt lat="43.4767074" lon="12.0281338"><ele>641.8333333333334</ele><time>2026-04-04T13:05:49.31Z</time></trkpt><trkpt lat="43.4766493" lon="12.0280779"><ele>640.6666666666667</ele><time>2026-04-04T13:05:50.31Z</time></trkpt><trkpt lat="43.4765892" lon="12.0280238"><ele>639.5</ele><time>2026-04-04T13:05:51.311Z</time></trkpt><trkpt lat="43.476465" lon="12.0279442"><ele>638.3333333333334</ele><time>2026-04-04T13:05:53.31Z</time></trkpt><trkpt lat="43.4764007" lon="12.0279132"><ele>637.1666666666666</ele><time>2026-04-04T13:05:54.31Z</time></trkpt><trkpt lat="43.4763205" lon="12.0278673"><ele>636.0</ele><time>2026-04-04T13:05:55.31Z</time></trkpt><trkpt lat="43.4762407" lon="12.0278086"><ele>635.1666666666666</ele><time>2026-04-04T13:05:56.311Z</time></trkpt><trkpt lat="43.4761568" lon="12.0277648"><ele>634.3333333333334</ele><time>2026-04-04T13:05:57.31Z</time></trkpt><trkpt lat="43.4760863" lon="12.027718"><ele>633.5</ele><time>2026-04-04T13:05:58.31Z</time></trkpt><trkpt lat="43.475994" lon="12.0277002"><ele>632.6666666666667</ele><time>2026-04-04T13:05:59.31Z</time></trkpt><trkpt lat="43.4759285" lon="12.0276731"><ele>631.8333333333334</ele><time>2026-04-04T13:06:00.31Z</time></trkpt><trkpt lat="43.4758285" lon="12.0276291"><ele>631.0</ele><time>2026-04-04T13:06:02.31Z</time></trkpt><trkpt lat="43.475739" lon="12.0275943"><ele>631.0</ele><time>2026-04-04T13:06:03.31Z</time></trkpt><trkpt lat="43.4756301" lon="12.0275853"><ele>631.0</ele><time>2026-04-04T13:06:05.31Z</time></trkpt><trkpt lat="43.4755315" lon="12.0275606"><ele>631.0</ele><time>2026-04-04T13:06:07.311Z</time></trkpt><trkpt lat="43.4754395" lon="12.0274871"><ele>631.0</ele><time>2026-04-04T13:06:09.31Z</time></trkpt><trkpt lat="43.4754141" lon="12.0273285"><ele>631.0</ele><time>2026-04-04T13:06:11.31Z</time></trkpt><trkpt lat="43.4753924" lon="12.0271874"><ele>628.0</ele><time>2026-04-04T13:06:13.31Z</time></trkpt><trkpt lat="43.475346" lon="12.0270889"><ele>625.0</ele><time>2026-04-04T13:06:15.31Z</time></trkpt><trkpt lat="43.475268" lon="12.0270504"><ele>622.0</ele><time>2026-04-04T13:06:17.31Z</time></trkpt><trkpt lat="43.4751771" lon="12.0270762"><ele>619.0</ele><time>2026-04-04T13:06:19.31Z</time></trkpt><trkpt lat="43.4750843" lon="12.0271583"><ele>616.0</ele><time>2026-04-04T13:06:21.31Z</time></trkpt><trkpt lat="43.4750009" lon="12.0272435"><ele>616.0</ele><time>2026-04-04T13:06:23.31Z</time></trkpt><trkpt lat="43.4749564" lon="12.0273263"><ele>616.0</ele><time>2026-04-04T13:06:25.31Z</time></trkpt><trkpt lat="43.4749688" lon="12.0274299"><ele>616.0</ele><time>2026-04-04T13:06:27.31Z</time></trkpt><trkpt lat="43.4749738" lon="12.0275671"><ele>616.0</ele><time>2026-04-04T13:06:29.31Z</time></trkpt><trkpt lat="43.4749833" lon="12.0277448"><ele>616.0</ele><time>2026-04-04T13:06:31.31Z</time></trkpt><trkpt lat="43.4749878" lon="12.0278406"><ele>615.3333333333334</ele><time>2026-04-04T13:06:32.31Z</time></trkpt><trkpt lat="43.4750219" lon="12.0279952"><ele>614.6666666666667</ele><time>2026-04-04T13:06:34.31Z</time></trkpt><trkpt lat="43.4750548" lon="12.0280801"><ele>614.0</ele><time>2026-04-04T13:06:35.31Z</time></trkpt><trkpt lat="43.4750761" lon="12.0281692"><ele>613.3333333333334</ele><time>2026-04-04T13:06:36.31Z</time></trkpt><trkpt lat="43.475096" lon="12.0282575"><ele>612.6666666666666</ele><time>2026-04-04T13:06:37.31Z</time></trkpt><trkpt lat="43.4751096" lon="12.0284232"><ele>612.0</ele><time>2026-04-04T13:06:39.31Z</time></trkpt><trkpt lat="43.4751403" lon="12.0285674"><ele>612.0</ele><time>2026-04-04T13:06:41.31Z</time></trkpt><trkpt lat="43.4751698" lon="12.0287148"><ele>612.0</ele><time>2026-04-04T13:06:43.31Z</time></trkpt><trkpt lat="43.4752287" lon="12.0288569"><ele>612.0</ele><time>2026-04-04T13:06:45.309Z</time></trkpt><trkpt lat="43.4752735" lon="12.028969"><ele>612.0</ele><time>2026-04-04T13:06:47.309Z</time></trkpt><trkpt lat="43.4753082" lon="12.029044"><ele>612.0</ele><time>2026-04-04T13:06:48.31Z</time></trkpt><trkpt lat="43.4753748" lon="12.0291073"><ele>613.4</ele><time>2026-04-04T13:06:50.31Z</time></trkpt><trkpt lat="43.4754681" lon="12.0291656"><ele>614.8000000000001</ele><time>2026-04-04T13:06:53.31Z</time></trkpt><trkpt lat="43.4754133" lon="12.0292506"><ele>616.2</ele><time>2026-04-04T13:06:58.31Z</time></trkpt><trkpt lat="43.4753323" lon="12.0293334"><ele>617.6</ele><time>2026-04-04T13:06:59.31Z</time></trkpt><trkpt lat="43.4752529" lon="12.0294605"><ele>619.0</ele><time>2026-04-04T13:07:01.309Z</time></trkpt><trkpt lat="43.4752033" lon="12.0295439"><ele>615.6</ele><time>2026-04-04T13:07:02.31Z</time></trkpt><trkpt lat="43.4752282" lon="12.0297591"><ele>612.2</ele><time>2026-04-04T13:07:03.31Z</time></trkpt><trkpt lat="43.4752206" lon="12.0299056"><ele>608.8000000000001</ele><time>2026-04-04T13:07:04.31Z</time></trkpt><trkpt lat="43.4752624" lon="12.0299949"><ele>605.4</ele><time>2026-04-04T13:07:05.311Z</time></trkpt><trkpt lat="43.4752945" lon="12.0300717"><ele>602.0</ele><time>2026-04-04T13:07:07.311Z</time></trkpt><trkpt lat="43.4752162" lon="12.0302078"><ele>602.0</ele><time>2026-04-04T13:07:11.31Z</time></trkpt><trkpt lat="43.4751014" lon="12.0302872"><ele>602.0</ele><time>2026-04-04T13:07:14.31Z</time></trkpt><trkpt lat="43.4750605" lon="12.0303941"><ele>602.0</ele><time>2026-04-04T13:07:15.31Z</time></trkpt><trkpt lat="43.4749388" lon="12.0305125"><ele>602.0</ele><time>2026-04-04T13:07:17.31Z</time></trkpt><trkpt lat="43.4748501" lon="12.0306029"><ele>602.0</ele><time>2026-04-04T13:07:19.31Z</time></trkpt><trkpt lat="43.4748063" lon="12.0306715"><ele>602.0</ele><time>2026-04-04T13:07:20.31Z</time></trkpt><trkpt lat="43.4747548" lon="12.0307595"><ele>602.0</ele><time>2026-04-04T13:07:21.31Z</time></trkpt><trkpt lat="43.4747005" lon="12.0308281"><ele>602.0</ele><time>2026-04-04T13:07:22.31Z</time></trkpt><trkpt lat="43.4746391" lon="12.0309566"><ele>602.0</ele><time>2026-04-04T13:07:23.31Z</time></trkpt><trkpt lat="43.4745601" lon="12.0310839"><ele>601.3333333333333</ele><time>2026-04-04T13:07:25.31Z</time></trkpt><trkpt lat="43.4745034" lon="12.0311556"><ele>600.6666666666666</ele><time>2026-04-04T13:07:26.31Z</time></trkpt><trkpt lat="43.4744721" lon="12.0312543"><ele>600.0</ele><time>2026-04-04T13:07:27.31Z</time></trkpt><trkpt lat="43.4744393" lon="12.0313289"><ele>599.3333333333334</ele><time>2026-04-04T13:07:28.31Z</time></trkpt><trkpt lat="43.4744011" lon="12.031445"><ele>598.6666666666667</ele><time>2026-04-04T13:07:29.309Z</time></trkpt><trkpt lat="43.474385" lon="12.0315319"><ele>598.0</ele><time>2026-04-04T13:07:30.31Z</time></trkpt><trkpt lat="43.4743551" lon="12.0316276"><ele>600.4</ele><time>2026-04-04T13:07:31.31Z</time></trkpt><trkpt lat="43.4743468" lon="12.0317206"><ele>602.8</ele><time>2026-04-04T13:07:32.31Z</time></trkpt><trkpt lat="43.4743284" lon="12.0319067"><ele>605.2</ele><time>2026-04-04T13:07:34.311Z</time></trkpt><trkpt lat="43.4743262" lon="12.032034"><ele>607.6</ele><time>2026-04-04T13:07:35.31Z</time></trkpt><trkpt lat="43.4743386" lon="12.0321604"><ele>610.0</ele><time>2026-04-04T13:07:36.31Z</time></trkpt><trkpt lat="43.4743358" lon="12.0322519"><ele>610.0</ele><time>2026-04-04T13:07:37.31Z</time></trkpt><trkpt lat="43.4743314" lon="12.0323718"><ele>610.0</ele><time>2026-04-04T13:07:38.31Z</time></trkpt><trkpt lat="43.4743281" lon="12.0324733"><ele>610.0</ele><time>2026-04-04T13:07:39.31Z</time></trkpt><trkpt lat="43.4743335" lon="12.0325789"><ele>610.0</ele><time>2026-04-04T13:07:40.31Z</time></trkpt><trkpt lat="43.4743392" lon="12.0326731"><ele>610.0</ele><time>2026-04-04T13:07:41.31Z</time></trkpt><trkpt lat="43.4743633" lon="12.0328421"><ele>610.0</ele><time>2026-04-04T13:07:43.309Z</time></trkpt><trkpt lat="43.4743791" lon="12.0329456"><ele>609.8571428571429</ele><time>2026-04-04T13:07:44.31Z</time></trkpt><trkpt lat="43.4743873" lon="12.0330325"><ele>609.7142857142857</ele><time>2026-04-04T13:07:45.31Z</time></trkpt><trkpt lat="43.4744042" lon="12.033125"><ele>609.5714285714286</ele><time>2026-04-04T13:07:46.31Z</time></trkpt><trkpt lat="43.4744318" lon="12.0332614"><ele>609.4285714285714</ele><time>2026-04-04T13:07:48.31Z</time></trkpt><trkpt lat="43.4744609" lon="12.0333409"><ele>609.2857142857142</ele><time>2026-04-04T13:07:49.31Z</time></trkpt><trkpt lat="43.4744931" lon="12.0334262"><ele>609.1428571428571</ele><time>2026-04-04T13:07:50.31Z</time></trkpt><trkpt lat="43.4745325" lon="12.0335097"><ele>609.0</ele><time>2026-04-04T13:07:51.31Z</time></trkpt><trkpt lat="43.4745518" lon="12.033599"><ele>609.0</ele><time>2026-04-04T13:07:52.31Z</time></trkpt><trkpt lat="43.4745858" lon="12.033699"><ele>609.0</ele><time>2026-04-04T13:07:53.31Z</time></trkpt><trkpt lat="43.4746207" lon="12.0337904"><ele>609.0</ele><time>2026-04-04T13:07:54.31Z</time></trkpt><trkpt lat="43.4746629" lon="12.0338556"><ele>609.0</ele><time>2026-04-04T13:07:55.311Z</time></trkpt><trkpt lat="43.4746965" lon="12.0339332"><ele>609.0</ele><time>2026-04-04T13:07:56.309Z</time></trkpt><trkpt lat="43.4747324" lon="12.034005"><ele>609.0</ele><time>2026-04-04T13:07:57.31Z</time></trkpt><trkpt lat="43.4748128" lon="12.0341262"><ele>611.4</ele><time>2026-04-04T13:07:59.31Z</time></trkpt><trkpt lat="43.4749012" lon="12.0341534"><ele>613.8</ele><time>2026-04-04T13:08:01.31Z</time></trkpt><trkpt lat="43.4750098" lon="12.0342862"><ele>616.2</ele><time>2026-04-04T13:08:02.31Z</time></trkpt><trkpt lat="43.47507" lon="12.0343467"><ele>618.6</ele><time>2026-04-04T13:08:03.31Z</time></trkpt><trkpt lat="43.4751697" lon="12.0344218"><ele>621.0</ele><time>2026-04-04T13:08:05.31Z</time></trkpt><trkpt lat="43.4752814" lon="12.0344486"><ele>621.0</ele><time>2026-04-04T13:08:07.31Z</time></trkpt><trkpt lat="43.4754192" lon="12.0344859"><ele>621.0</ele><time>2026-04-04T13:08:09.31Z</time></trkpt><trkpt lat="43.4755133" lon="12.0345276"><ele>621.0</ele><time>2026-04-04T13:08:11.31Z</time></trkpt><trkpt lat="43.4755785" lon="12.0345972"><ele>621.0</ele><time>2026-04-04T13:08:13.31Z</time></trkpt><trkpt lat="43.475614" lon="12.034702"><ele>621.0</ele><time>2026-04-04T13:08:15.31Z</time></trkpt><trkpt lat="43.4756604" lon="12.0348179"><ele>620.2</ele><time>2026-04-04T13:08:16.31Z</time></trkpt><trkpt lat="43.4757084" lon="12.0348872"><ele>619.4000000000001</ele><time>2026-04-04T13:08:17.31Z</time></trkpt><trkpt lat="43.4757566" lon="12.0349749"><ele>618.6</ele><time>2026-04-04T13:08:18.31Z</time></trkpt><trkpt lat="43.4758138" lon="12.035074"><ele>617.8000000000001</ele><time>2026-04-04T13:08:20.31Z</time></trkpt><trkpt lat="43.4758956" lon="12.035166"><ele>617.0</ele><time>2026-04-04T13:08:22.31Z</time></trkpt><trkpt lat="43.4759834" lon="12.0353165"><ele>617.0</ele><time>2026-04-04T13:08:24.31Z</time></trkpt><trkpt lat="43.4760453" lon="12.0354023"><ele>617.0</ele><time>2026-04-04T13:08:25.31Z</time></trkpt><trkpt lat="43.4761263" lon="12.0355024"><ele>617.0</ele><time>2026-04-04T13:08:27.31Z</time></trkpt><trkpt lat="43.4762762" lon="12.0355715"><ele>617.0</ele><time>2026-04-04T13:08:29.31Z</time></trkpt><trkpt lat="43.4763246" lon="12.0357114"><ele>616.8333333333333</ele><time>2026-04-04T13:08:31.31Z</time></trkpt><trkpt lat="43.4763344" lon="12.0358215"><ele>616.6666666666666</ele><time>2026-04-04T13:08:32.31Z</time></trkpt><trkpt lat="43.4763485" lon="12.0359271"><ele>616.5</ele><time>2026-04-04T13:08:33.31Z</time></trkpt><trkpt lat="43.4763974" lon="12.0360597"><ele>616.3333333333334</ele><time>2026-04-04T13:08:34.31Z</time></trkpt><trkpt lat="43.476424" lon="12.0361612"><ele>616.1666666666667</ele><time>2026-04-04T13:08:35.31Z</time></trkpt><trkpt lat="43.4764569" lon="12.0362407"><ele>616.0</ele><time>2026-04-04T13:08:36.309Z</time></trkpt><trkpt lat="43.4765334" lon="12.036387"><ele>616.0</ele><time>2026-04-04T13:08:38.311Z</time></trkpt><trkpt lat="43.4766003" lon="12.0365064"><ele>616.0</ele><time>2026-04-04T13:08:40.31Z</time></trkpt><trkpt lat="43.476663" lon="12.0365924"><ele>616.0</ele><time>2026-04-04T13:08:42.31Z</time></trkpt><trkpt lat="43.4767259" lon="12.0366849"><ele>616.0</ele><time>2026-04-04T13:08:43.31Z</time></trkpt><trkpt lat="43.4768386" lon="12.0367336"><ele>616.0</ele><time>2026-04-04T13:08:45.31Z</time></trkpt><trkpt lat="43.4769092" lon="12.0367639"><ele>614.5</ele><time>2026-04-04T13:08:46.311Z</time></trkpt><trkpt lat="43.4770479" lon="12.0367716"><ele>613.0</ele><time>2026-04-04T13:08:48.31Z</time></trkpt><trkpt lat="43.477116" lon="12.0367816"><ele>611.5</ele><time>2026-04-04T13:08:49.31Z</time></trkpt><trkpt lat="43.4772074" lon="12.036777"><ele>610.0</ele><time>2026-04-04T13:08:52.31Z</time></trkpt><trkpt lat="43.477271" lon="12.0367352"><ele>608.5</ele><time>2026-04-04T13:08:54.31Z</time></trkpt><trkpt lat="43.4773341" lon="12.0367372"><ele>607.0</ele><time>2026-04-04T13:08:56.31Z</time></trkpt><trkpt lat="43.4773954" lon="12.0367729"><ele>607.0</ele><time>2026-04-04T13:08:58.31Z</time></trkpt><trkpt lat="43.4774949" lon="12.0368291"><ele>607.0</ele><time>2026-04-04T13:09:00.31Z</time></trkpt><trkpt lat="43.4775899" lon="12.0369034"><ele>607.0</ele><time>2026-04-04T13:09:01.31Z</time></trkpt><trkpt lat="43.4776441" lon="12.0369683"><ele>607.0</ele><time>2026-04-04T13:09:03.31Z</time></trkpt><trkpt lat="43.4777026" lon="12.0370897"><ele>607.0</ele><time>2026-04-04T13:09:05.31Z</time></trkpt><trkpt lat="43.4777534" lon="12.0372017"><ele>607.0</ele><time>2026-04-04T13:09:07.31Z</time></trkpt><trkpt lat="43.4777914" lon="12.0372778"><ele>607.0</ele><time>2026-04-04T13:09:09.31Z</time></trkpt><trkpt lat="43.4778014" lon="12.0373841"><ele>607.0</ele><time>2026-04-04T13:09:12.31Z</time></trkpt><trkpt lat="43.4778071" lon="12.0374839"><ele>607.0</ele><time>2026-04-04T13:09:14.309Z</time></trkpt><trkpt lat="43.4778008" lon="12.0376135"><ele>607.0</ele><time>2026-04-04T13:09:16.31Z</time></trkpt><trkpt lat="43.4777754" lon="12.0377123"><ele>607.0</ele><time>2026-04-04T13:09:17.31Z</time></trkpt><trkpt lat="43.4777733" lon="12.0378429"><ele>604.0</ele><time>2026-04-04T13:09:18.31Z</time></trkpt><trkpt lat="43.4777935" lon="12.0379385"><ele>601.0</ele><time>2026-04-04T13:09:19.31Z</time></trkpt><trkpt lat="43.477844" lon="12.038049"><ele>598.0</ele><time>2026-04-04T13:09:21.31Z</time></trkpt><trkpt lat="43.4779177" lon="12.0381288"><ele>595.0</ele><time>2026-04-04T13:09:22.31Z</time></trkpt><trkpt lat="43.4779662" lon="12.0382358"><ele>592.0</ele><time>2026-04-04T13:09:24.309Z</time></trkpt><trkpt lat="43.4780358" lon="12.0382408"><ele>589.0</ele><time>2026-04-04T13:09:27.31Z</time></trkpt><trkpt lat="43.478055" lon="12.0381418"><ele>589.0</ele><time>2026-04-04T13:09:29.311Z</time></trkpt><trkpt lat="43.4780979" lon="12.0380637"><ele>589.0</ele><time>2026-04-04T13:09:31.31Z</time></trkpt><trkpt lat="43.4781468" lon="12.0379718"><ele>589.0</ele><time>2026-04-04T13:09:32.31Z</time></trkpt><trkpt lat="43.4782426" lon="12.0378547"><ele>589.0</ele><time>2026-04-04T13:09:34.31Z</time></trkpt><trkpt lat="43.4782993" lon="12.0378106"><ele>589.0</ele><time>2026-04-04T13:09:36.31Z</time></trkpt><trkpt lat="43.4783609" lon="12.0377835"><ele>589.0</ele><time>2026-04-04T13:09:39.31Z</time></trkpt><trkpt lat="43.4784355" lon="12.0377651"><ele>589.0</ele><time>2026-04-04T13:09:42.31Z</time></trkpt><trkpt lat="43.4785009" lon="12.0377278"><ele>589.0</ele><time>2026-04-04T13:09:43.31Z</time></trkpt><trkpt lat="43.4785723" lon="12.037706"><ele>589.0</ele><time>2026-04-04T13:09:44.31Z</time></trkpt><trkpt lat="43.4787194" lon="12.0377077"><ele>589.0</ele><time>2026-04-04T13:09:46.31Z</time></trkpt><trkpt lat="43.4788002" lon="12.0377143"><ele>589.0</ele><time>2026-04-04T13:09:47.311Z</time></trkpt><trkpt lat="43.4788782" lon="12.0377308"><ele>589.0</ele><time>2026-04-04T13:09:48.31Z</time></trkpt><trkpt lat="43.4789504" lon="12.0377428"><ele>589.0</ele><time>2026-04-04T13:09:49.31Z</time></trkpt><trkpt lat="43.4790286" lon="12.0377692"><ele>589.0</ele><time>2026-04-04T13:09:50.31Z</time></trkpt><trkpt lat="43.4790862" lon="12.0378054"><ele>589.0</ele><time>2026-04-04T13:09:51.31Z</time></trkpt><trkpt lat="43.4791417" lon="12.0379186"><ele>589.0</ele><time>2026-04-04T13:09:53.31Z</time></trkpt><trkpt lat="43.4791615" lon="12.0380075"><ele>589.0</ele><time>2026-04-04T13:09:54.31Z</time></trkpt><trkpt lat="43.4792169" lon="12.0380873"><ele>589.0</ele><time>2026-04-04T13:09:56.309Z</time></trkpt><trkpt lat="43.4793182" lon="12.0381121"><ele>589.0</ele><time>2026-04-04T13:09:58.31Z</time></trkpt><trkpt lat="43.4794321" lon="12.0381097"><ele>589.0</ele><time>2026-04-04T13:10:00.31Z</time></trkpt><trkpt lat="43.4795436" lon="12.0380603"><ele>589.0</ele><time>2026-04-04T13:10:02.309Z</time></trkpt><trkpt lat="43.4796365" lon="12.0379706"><ele>589.0</ele><time>2026-04-04T13:10:04.31Z</time></trkpt><trkpt lat="43.4797085" lon="12.0378781"><ele>590.2</ele><time>2026-04-04T13:10:06.31Z</time></trkpt><trkpt lat="43.4798214" lon="12.037798"><ele>591.4</ele><time>2026-04-04T13:10:08.31Z</time></trkpt><trkpt lat="43.4798909" lon="12.0377452"><ele>592.6</ele><time>2026-04-04T13:10:09.31Z</time></trkpt><trkpt lat="43.4799711" lon="12.0377063"><ele>593.8</ele><time>2026-04-04T13:10:10.31Z</time></trkpt><trkpt lat="43.4800382" lon="12.0376741"><ele>595.0</ele><time>2026-04-04T13:10:11.31Z</time></trkpt><trkpt lat="43.4801652" lon="12.0376536"><ele>595.0</ele><time>2026-04-04T13:10:13.31Z</time></trkpt><trkpt lat="43.4802392" lon="12.0376399"><ele>595.0</ele><time>2026-04-04T13:10:14.31Z</time></trkpt><trkpt lat="43.4803194" lon="12.0376329"><ele>595.0</ele><time>2026-04-04T13:10:15.309Z</time></trkpt><trkpt lat="43.4803784" lon="12.0376787"><ele>595.0</ele><time>2026-04-04T13:10:16.309Z</time></trkpt><trkpt lat="43.4804843" lon="12.0377432"><ele>595.0</ele><time>2026-04-04T13:10:18.31Z</time></trkpt><trkpt lat="43.4806242" lon="12.0378119"><ele>596.4285714285714</ele><time>2026-04-04T13:10:20.31Z</time></trkpt><trkpt lat="43.4806872" lon="12.0378094"><ele>597.8571428571429</ele><time>2026-04-04T13:10:21.31Z</time></trkpt><trkpt lat="43.4807558" lon="12.0377869"><ele>599.2857142857142</ele><time>2026-04-04T13:10:22.31Z</time></trkpt><trkpt lat="43.4808233" lon="12.0377677"><ele>600.7142857142858</ele><time>2026-04-04T13:10:23.31Z</time></trkpt><trkpt lat="43.4808997" lon="12.0377509"><ele>602.1428571428571</ele><time>2026-04-04T13:10:24.31Z</time></trkpt><trkpt lat="43.4809758" lon="12.0377521"><ele>603.5714285714286</ele><time>2026-04-04T13:10:25.31Z</time></trkpt><trkpt lat="43.4810382" lon="12.0377362"><ele>605.0</ele><time>2026-04-04T13:10:26.31Z</time></trkpt><trkpt lat="43.4811324" lon="12.0377117"><ele>605.0</ele><time>2026-04-04T13:10:27.31Z</time></trkpt><trkpt lat="43.4812059" lon="12.0376815"><ele>605.0</ele><time>2026-04-04T13:10:28.31Z</time></trkpt><trkpt lat="43.4812651" lon="12.0376322"><ele>605.0</ele><time>2026-04-04T13:10:29.31Z</time></trkpt><trkpt lat="43.4813488" lon="12.0375398"><ele>605.0</ele><time>2026-04-04T13:10:31.31Z</time></trkpt><trkpt lat="43.4814243" lon="12.0374731"><ele>605.0</ele><time>2026-04-04T13:10:33.31Z</time></trkpt><trkpt lat="43.4814727" lon="12.0373529"><ele>605.0</ele><time>2026-04-04T13:10:35.31Z</time></trkpt><trkpt lat="43.4814925" lon="12.037198"><ele>607.2</ele><time>2026-04-04T13:10:37.31Z</time></trkpt><trkpt lat="43.4814782" lon="12.0370393"><ele>609.4</ele><time>2026-04-04T13:10:39.31Z</time></trkpt><trkpt lat="43.4814476" lon="12.0368859"><ele>611.6</ele><time>2026-04-04T13:10:41.31Z</time></trkpt><trkpt lat="43.4814642" lon="12.0367808"><ele>613.8</ele><time>2026-04-04T13:10:42.31Z</time></trkpt><trkpt lat="43.4814681" lon="12.0366438"><ele>616.0</ele><time>2026-04-04T13:10:44.31Z</time></trkpt><trkpt lat="43.4815009" lon="12.0365322"><ele>619.5</ele><time>2026-04-04T13:11:00.31Z</time></trkpt><trkpt lat="43.4815214" lon="12.0364322"><ele>623.0</ele><time>2026-04-04T13:11:03.31Z</time></trkpt><trkpt lat="43.4815697" lon="12.0363763"><ele>626.5</ele><time>2026-04-04T13:11:06.31Z</time></trkpt><trkpt lat="43.4816349" lon="12.0363445"><ele>630.0</ele><time>2026-04-04T13:11:08.311Z</time></trkpt><trkpt lat="43.4817331" lon="12.0363027"><ele>633.5</ele><time>2026-04-04T13:11:10.311Z</time></trkpt><trkpt lat="43.4818462" lon="12.0362972"><ele>637.0</ele><time>2026-04-04T13:11:12.31Z</time></trkpt><trkpt lat="43.4819111" lon="12.0363076"><ele>637.0</ele><time>2026-04-04T13:11:13.31Z</time></trkpt><trkpt lat="43.482004" lon="12.0363397"><ele>637.0</ele><time>2026-04-04T13:11:15.31Z</time></trkpt><trkpt lat="43.4821422" lon="12.0365154"><ele>637.0</ele><time>2026-04-04T13:11:16.311Z</time></trkpt><trkpt lat="43.4822147" lon="12.0364991"><ele>637.0</ele><time>2026-04-04T13:11:17.309Z</time></trkpt><trkpt lat="43.4822899" lon="12.0364474"><ele>637.0</ele><time>2026-04-04T13:11:18.31Z</time></trkpt><trkpt lat="43.4823902" lon="12.0363928"><ele>635.3333333333334</ele><time>2026-04-04T13:11:19.311Z</time></trkpt><trkpt lat="43.4824548" lon="12.0363185"><ele>633.6666666666667</ele><time>2026-04-04T13:11:20.31Z</time></trkpt><trkpt lat="43.4825059" lon="12.0362434"><ele>632.0</ele><time>2026-04-04T13:11:21.31Z</time></trkpt><trkpt lat="43.4825832" lon="12.0361549"><ele>630.3333333333334</ele><time>2026-04-04T13:11:23.31Z</time></trkpt><trkpt lat="43.4826548" lon="12.0361534"><ele>628.6666666666666</ele><time>2026-04-04T13:11:25.309Z</time></trkpt><trkpt lat="43.4827238" lon="12.0361808"><ele>627.0</ele><time>2026-04-04T13:11:27.311Z</time></trkpt><trkpt lat="43.4827937" lon="12.0362063"><ele>627.0</ele><time>2026-04-04T13:11:29.31Z</time></trkpt><trkpt lat="43.4828962" lon="12.0362147"><ele>627.0</ele><time>2026-04-04T13:11:31.31Z</time></trkpt><trkpt lat="43.4829873" lon="12.0362724"><ele>627.0</ele><time>2026-04-04T13:11:33.31Z</time></trkpt><trkpt lat="43.4830594" lon="12.0363097"><ele>627.0</ele><time>2026-04-04T13:11:34.31Z</time></trkpt><trkpt lat="43.4831439" lon="12.0363831"><ele>627.0</ele><time>2026-04-04T13:11:36.31Z</time></trkpt><trkpt lat="43.4832377" lon="12.0364221"><ele>624.5</ele><time>2026-04-04T13:11:38.31Z</time></trkpt><trkpt lat="43.4833453" lon="12.0364604"><ele>622.0</ele><time>2026-04-04T13:11:40.31Z</time></trkpt><trkpt lat="43.4834061" lon="12.0364845"><ele>619.5</ele><time>2026-04-04T13:11:41.31Z</time></trkpt><trkpt lat="43.4834705" lon="12.0365132"><ele>617.0</ele><time>2026-04-04T13:11:42.31Z</time></trkpt><trkpt lat="43.4835303" lon="12.0365516"><ele>614.5</ele><time>2026-04-04T13:11:43.31Z</time></trkpt><trkpt lat="43.4836438" lon="12.0366242"><ele>612.0</ele><time>2026-04-04T13:11:45.31Z</time></trkpt><trkpt lat="43.4837098" lon="12.0366786"><ele>609.1428571428571</ele><time>2026-04-04T13:11:46.309Z</time></trkpt><trkpt lat="43.4837637" lon="12.0367432"><ele>606.2857142857143</ele><time>2026-04-04T13:11:47.309Z</time></trkpt><trkpt lat="43.4838167" lon="12.036832"><ele>603.4285714285714</ele><time>2026-04-04T13:11:48.31Z</time></trkpt><trkpt lat="43.4838657" lon="12.0369207"><ele>600.5714285714286</ele><time>2026-04-04T13:11:49.31Z</time></trkpt><trkpt lat="43.4839099" lon="12.037"><ele>597.7142857142857</ele><time>2026-04-04T13:11:50.31Z</time></trkpt><trkpt lat="43.4839486" lon="12.0370813"><ele>594.8571428571429</ele><time>2026-04-04T13:11:51.31Z</time></trkpt><trkpt lat="43.4839714" lon="12.0371694"><ele>592.0</ele><time>2026-04-04T13:11:52.311Z</time></trkpt><trkpt lat="43.4839926" lon="12.037259"><ele>592.0</ele><time>2026-04-04T13:11:53.31Z</time></trkpt><trkpt lat="43.4840091" lon="12.0373616"><ele>592.0</ele><time>2026-04-04T13:11:54.31Z</time></trkpt><trkpt lat="43.484031" lon="12.0375012"><ele>592.0</ele><time>2026-04-04T13:11:56.31Z</time></trkpt><trkpt lat="43.4840655" lon="12.0376224"><ele>592.0</ele><time>2026-04-04T13:11:58.31Z</time></trkpt><trkpt lat="43.4841106" lon="12.0377455"><ele>592.0</ele><time>2026-04-04T13:12:00.31Z</time></trkpt><trkpt lat="43.484151" lon="12.0378381"><ele>593.1666666666667</ele><time>2026-04-04T13:12:02.309Z</time></trkpt><trkpt lat="43.4841688" lon="12.0379432"><ele>594.3333333333334</ele><time>2026-04-04T13:12:05.31Z</time></trkpt><trkpt lat="43.4841153" lon="12.0380508"><ele>595.5</ele><time>2026-04-04T13:12:08.31Z</time></trkpt><trkpt lat="43.4840752" lon="12.0381539"><ele>596.6666666666666</ele><time>2026-04-04T13:12:10.31Z</time></trkpt><trkpt lat="43.4840134" lon="12.0382417"><ele>597.8333333333333</ele><time>2026-04-04T13:12:12.31Z</time></trkpt><trkpt lat="43.4839236" lon="12.0382629"><ele>599.0</ele><time>2026-04-04T13:12:14.309Z</time></trkpt><trkpt lat="43.4838481" lon="12.0382916"><ele>597.5</ele><time>2026-04-04T13:12:16.31Z</time></trkpt><trkpt lat="43.483777" lon="12.0383532"><ele>596.0</ele><time>2026-04-04T13:12:18.31Z</time></trkpt><trkpt lat="43.4836998" lon="12.0384134"><ele>594.5</ele><time>2026-04-04T13:12:20.31Z</time></trkpt><trkpt lat="43.4836898" lon="12.0385273"><ele>593.0</ele><time>2026-04-04T13:12:23.31Z</time></trkpt><trkpt lat="43.4837468" lon="12.0386116"><ele>591.5</ele><time>2026-04-04T13:12:25.31Z</time></trkpt><trkpt lat="43.4837906" lon="12.0387199"><ele>590.0</ele><time>2026-04-04T13:12:27.31Z</time></trkpt><trkpt lat="43.4838421" lon="12.0387947"><ele>590.0</ele><time>2026-04-04T13:12:29.309Z</time></trkpt><trkpt lat="43.4839124" lon="12.0388557"><ele>590.0</ele><time>2026-04-04T13:12:31.31Z</time></trkpt><trkpt lat="43.4839806" lon="12.0389282"><ele>590.0</ele><time>2026-04-04T13:12:33.31Z</time></trkpt><trkpt lat="43.4840595" lon="12.0389491"><ele>590.0</ele><time>2026-04-04T13:12:36.31Z</time></trkpt><trkpt lat="43.4841232" lon="12.0389467"><ele>590.0</ele><time>2026-04-04T13:12:38.31Z</time></trkpt><trkpt lat="43.4842306" lon="12.038901"><ele>590.0</ele><time>2026-04-04T13:12:40.31Z</time></trkpt><trkpt lat="43.4843245" lon="12.0388587"><ele>590.0</ele><time>2026-04-04T13:12:42.31Z</time></trkpt><trkpt lat="43.484428" lon="12.0388285"><ele>590.0</ele><time>2026-04-04T13:12:44.31Z</time></trkpt><trkpt lat="43.4844898" lon="12.0388482"><ele>590.0</ele><time>2026-04-04T13:12:46.309Z</time></trkpt><trkpt lat="43.484571" lon="12.0388851"><ele>590.0</ele><time>2026-04-04T13:12:49.31Z</time></trkpt><trkpt lat="43.4846413" lon="12.0388986"><ele>590.0</ele><time>2026-04-04T13:12:51.31Z</time></trkpt><trkpt lat="43.4847096" lon="12.0389248"><ele>590.0</ele><time>2026-04-04T13:12:53.31Z</time></trkpt><trkpt lat="43.4847808" lon="12.038928"><ele>586.6666666666666</ele><time>2026-04-04T13:12:56.31Z</time></trkpt><trkpt lat="43.4848612" lon="12.0389271"><ele>583.3333333333333</ele><time>2026-04-04T13:13:00.31Z</time></trkpt><trkpt lat="43.4849411" lon="12.0388436"><ele>580.0</ele><time>2026-04-04T13:13:02.31Z</time></trkpt><trkpt lat="43.4850103" lon="12.0387105"><ele>576.6666666666666</ele><time>2026-04-04T13:13:03.31Z</time></trkpt><trkpt lat="43.4850826" lon="12.0387192"><ele>573.3333333333334</ele><time>2026-04-04T13:13:06.31Z</time></trkpt><trkpt lat="43.4851562" lon="12.0387218"><ele>570.0</ele><time>2026-04-04T13:13:08.31Z</time></trkpt><trkpt lat="43.4851893" lon="12.0388173"><ele>570.0</ele><time>2026-04-04T13:13:12.31Z</time></trkpt><trkpt lat="43.4852021" lon="12.03894"><ele>570.0</ele><time>2026-04-04T13:13:14.31Z</time></trkpt><trkpt lat="43.4852235" lon="12.0391875"><ele>570.0</ele><time>2026-04-04T13:13:17.31Z</time></trkpt><trkpt lat="43.4852428" lon="12.0393207"><ele>570.0</ele><time>2026-04-04T13:13:19.31Z</time></trkpt><trkpt lat="43.4852967" lon="12.039423"><ele>567.5</ele><time>2026-04-04T13:13:21.31Z</time></trkpt><trkpt lat="43.4853282" lon="12.0395524"><ele>565.0</ele><time>2026-04-04T13:13:23.31Z</time></trkpt><trkpt lat="43.485313" lon="12.039673"><ele>562.5</ele><time>2026-04-04T13:13:25.31Z</time></trkpt><trkpt lat="43.4852934" lon="12.0398225"><ele>560.0</ele><time>2026-04-04T13:13:27.31Z</time></trkpt><trkpt lat="43.4852918" lon="12.0399111"><ele>557.5</ele><time>2026-04-04T13:13:28.31Z</time></trkpt><trkpt lat="43.485303" lon="12.0400089"><ele>555.0</ele><time>2026-04-04T13:13:29.31Z</time></trkpt><trkpt lat="43.4853021" lon="12.0401059"><ele>552.3333333333334</ele><time>2026-04-04T13:13:30.31Z</time></trkpt><trkpt lat="43.485312" lon="12.0402078"><ele>549.6666666666666</ele><time>2026-04-04T13:13:31.311Z</time></trkpt><trkpt lat="43.4853238" lon="12.040296"><ele>547.0</ele><time>2026-04-04T13:13:32.31Z</time></trkpt><trkpt lat="43.4853417" lon="12.0404404"><ele>544.3333333333333</ele><time>2026-04-04T13:13:34.31Z</time></trkpt><trkpt lat="43.4853634" lon="12.0405861"><ele>541.6666666666666</ele><time>2026-04-04T13:13:36.31Z</time></trkpt><trkpt lat="43.4853924" lon="12.0406773"><ele>539.0</ele><time>2026-04-04T13:13:38.309Z</time></trkpt><trkpt lat="43.4854376" lon="12.0407471"><ele>535.0</ele><time>2026-04-04T13:13:40.31Z</time></trkpt><trkpt lat="43.4854801" lon="12.0409006"><ele>531.0</ele><time>2026-04-04T13:13:42.31Z</time></trkpt><trkpt lat="43.4855017" lon="12.0409945"><ele>527.0</ele><time>2026-04-04T13:13:43.31Z</time></trkpt><trkpt lat="43.4855323" lon="12.041083"><ele>523.0</ele><time>2026-04-04T13:13:44.31Z</time></trkpt><trkpt lat="43.4855588" lon="12.0411816"><ele>519.0</ele><time>2026-04-04T13:13:45.31Z</time></trkpt><trkpt lat="43.485585" lon="12.0413689"><ele>519.0</ele><time>2026-04-04T13:13:47.31Z</time></trkpt><trkpt lat="43.4855963" lon="12.0415277"><ele>519.0</ele><time>2026-04-04T13:13:49.31Z</time></trkpt><trkpt lat="43.4855974" lon="12.0416464"><ele>519.0</ele><time>2026-04-04T13:13:52.31Z</time></trkpt><trkpt lat="43.4856048" lon="12.0417431"><ele>519.0</ele><time>2026-04-04T13:13:54.31Z</time></trkpt><trkpt lat="43.4855886" lon="12.0418772"><ele>519.0</ele><time>2026-04-04T13:13:56.31Z</time></trkpt><trkpt lat="43.4855716" lon="12.0419773"><ele>519.0</ele><time>2026-04-04T13:13:58.31Z</time></trkpt><trkpt lat="43.485604" lon="12.0420803"><ele>518.8333333333334</ele><time>2026-04-04T13:14:01.31Z</time></trkpt><trkpt lat="43.4856302" lon="12.0421701"><ele>518.6666666666666</ele><time>2026-04-04T13:14:04.31Z</time></trkpt><trkpt lat="43.4856127" lon="12.0422717"><ele>518.5</ele><time>2026-04-04T13:14:07.31Z</time></trkpt><trkpt lat="43.485598" lon="12.0423799"><ele>518.3333333333333</ele><time>2026-04-04T13:14:10.31Z</time></trkpt><trkpt lat="43.4856402" lon="12.0424687"><ele>518.1666666666666</ele><time>2026-04-04T13:14:12.309Z</time></trkpt><trkpt lat="43.4856791" lon="12.042558"><ele>518.0</ele><time>2026-04-04T13:14:14.31Z</time></trkpt><trkpt lat="43.4856991" lon="12.0426563"><ele>516.6</ele><time>2026-04-04T13:14:47.31Z</time></trkpt><trkpt lat="43.4857232" lon="12.0427626"><ele>515.1999999999999</ele><time>2026-04-04T13:14:49.31Z</time></trkpt><trkpt lat="43.4857073" lon="12.0429116"><ele>513.8</ele><time>2026-04-04T13:14:51.31Z</time></trkpt><trkpt lat="43.4856771" lon="12.0429887"><ele>512.4</ele><time>2026-04-04T13:14:52.31Z</time></trkpt><trkpt lat="43.4856431" lon="12.0431748"><ele>511.0</ele><time>2026-04-04T13:14:54.31Z</time></trkpt><trkpt lat="43.485632" lon="12.0432673"><ele>509.6666666666667</ele><time>2026-04-04T13:14:55.31Z</time></trkpt><trkpt lat="43.4856284" lon="12.043367"><ele>508.33333333333337</ele><time>2026-04-04T13:14:56.31Z</time></trkpt><trkpt lat="43.4856638" lon="12.043511"><ele>507.0</ele><time>2026-04-04T13:14:57.31Z</time></trkpt><trkpt lat="43.4857004" lon="12.0436209"><ele>505.66666666666663</ele><time>2026-04-04T13:14:58.31Z</time></trkpt><trkpt lat="43.4857356" lon="12.0437064"><ele>504.3333333333333</ele><time>2026-04-04T13:14:59.31Z</time></trkpt><trkpt lat="43.4857608" lon="12.0438026"><ele>503.0</ele><time>2026-04-04T13:15:00.31Z</time></trkpt><trkpt lat="43.4857854" lon="12.0438906"><ele>503.0</ele><time>2026-04-04T13:15:01.31Z</time></trkpt><trkpt lat="43.4858598" lon="12.0440322"><ele>502.99999999999994</ele><time>2026-04-04T13:15:03.309Z</time></trkpt><trkpt lat="43.4859152" lon="12.0441522"><ele>502.99999999999994</ele><time>2026-04-04T13:15:05.31Z</time></trkpt><trkpt lat="43.4859309" lon="12.0442377"><ele>503.0</ele><time>2026-04-04T13:15:06.31Z</time></trkpt><trkpt lat="43.4859381" lon="12.0443325"><ele>503.0</ele><time>2026-04-04T13:15:07.31Z</time></trkpt><trkpt lat="43.485964" lon="12.0444723"><ele>501.79999999999995</ele><time>2026-04-04T13:15:09.311Z</time></trkpt><trkpt lat="43.4859699" lon="12.0445755"><ele>500.59999999999997</ele><time>2026-04-04T13:15:11.31Z</time></trkpt><trkpt lat="43.4859758" lon="12.0446843"><ele>499.40000000000003</ele><time>2026-04-04T13:15:13.31Z</time></trkpt><trkpt lat="43.4860093" lon="12.044821"><ele>498.20000000000005</ele><time>2026-04-04T13:15:15.31Z</time></trkpt><trkpt lat="43.4860692" lon="12.0449691"><ele>497.0</ele><time>2026-04-04T13:15:17.31Z</time></trkpt><trkpt lat="43.4861305" lon="12.0450776"><ele>495.6</ele><time>2026-04-04T13:15:19.31Z</time></trkpt><trkpt lat="43.486181" lon="12.0451852"><ele>494.20000000000005</ele><time>2026-04-04T13:15:21.31Z</time></trkpt><trkpt lat="43.4862374" lon="12.0453062"><ele>492.8</ele><time>2026-04-04T13:15:23.309Z</time></trkpt><trkpt lat="43.4862986" lon="12.045436"><ele>491.4</ele><time>2026-04-04T13:15:25.31Z</time></trkpt><trkpt lat="43.4863667" lon="12.0455619"><ele>490.0</ele><time>2026-04-04T13:15:27.31Z</time></trkpt><trkpt lat="43.4864411" lon="12.0456722"><ele>488.6</ele><time>2026-04-04T13:15:29.31Z</time></trkpt><trkpt lat="43.4865234" lon="12.0457742"><ele>487.2</ele><time>2026-04-04T13:15:31.31Z</time></trkpt><trkpt lat="43.4866002" lon="12.0458858"><ele>485.79999999999995</ele><time>2026-04-04T13:15:33.31Z</time></trkpt><trkpt lat="43.4866674" lon="12.045978"><ele>484.4</ele><time>2026-04-04T13:15:35.31Z</time></trkpt><trkpt lat="43.4867216" lon="12.0460518"><ele>483.0</ele><time>2026-04-04T13:15:39.31Z</time></trkpt><trkpt lat="43.4867676" lon="12.0461364"><ele>482.8571428571429</ele><time>2026-04-04T13:15:43.31Z</time></trkpt><trkpt lat="43.4868042" lon="12.0462088"><ele>482.7142857142857</ele><time>2026-04-04T13:15:46.31Z</time></trkpt><trkpt lat="43.4868492" lon="12.046272"><ele>482.57142857142856</ele><time>2026-04-04T13:15:49.31Z</time></trkpt><trkpt lat="43.4869105" lon="12.046321"><ele>482.42857142857144</ele><time>2026-04-04T13:15:52.31Z</time></trkpt><trkpt lat="43.4869683" lon="12.0463953"><ele>482.28571428571433</ele><time>2026-04-04T13:16:02.311Z</time></trkpt><trkpt lat="43.4870205" lon="12.0464464"><ele>482.14285714285717</ele><time>2026-04-04T13:16:05.31Z</time></trkpt><trkpt lat="43.4870885" lon="12.0465113"><ele>482.0</ele><time>2026-04-04T13:16:08.31Z</time></trkpt><trkpt lat="43.4871603" lon="12.0465567"><ele>478.3333333333333</ele><time>2026-04-04T13:16:10.31Z</time></trkpt><trkpt lat="43.4872449" lon="12.0466532"><ele>474.66666666666663</ele><time>2026-04-04T13:16:12.31Z</time></trkpt><trkpt lat="43.4872696" lon="12.0467349"><ele>471.0</ele><time>2026-04-04T13:16:13.31Z</time></trkpt><trkpt lat="43.4873549" lon="12.0468488"><ele>467.33333333333337</ele><time>2026-04-04T13:16:15.31Z</time></trkpt><trkpt lat="43.4874012" lon="12.046913"><ele>463.6666666666667</ele><time>2026-04-04T13:16:16.31Z</time></trkpt><trkpt lat="43.4874452" lon="12.0469787"><ele>460.0</ele><time>2026-04-04T13:16:17.31Z</time></trkpt><trkpt lat="43.4875282" lon="12.0470723"><ele>460.0</ele><time>2026-04-04T13:16:19.31Z</time></trkpt><trkpt lat="43.4876077" lon="12.0471402"><ele>460.0</ele><time>2026-04-04T13:16:21.31Z</time></trkpt><trkpt lat="43.4876904" lon="12.0472032"><ele>460.0</ele><time>2026-04-04T13:16:23.31Z</time></trkpt><trkpt lat="43.4877675" lon="12.0472904"><ele>460.0</ele><time>2026-04-04T13:16:25.31Z</time></trkpt><trkpt lat="43.4878495" lon="12.0473825"><ele>460.0</ele><time>2026-04-04T13:16:27.31Z</time></trkpt><trkpt lat="43.4879031" lon="12.0474562"><ele>459.4</ele><time>2026-04-04T13:16:28.31Z</time></trkpt><trkpt lat="43.4879909" lon="12.0475953"><ele>458.8</ele><time>2026-04-04T13:16:30.31Z</time></trkpt><trkpt lat="43.4880369" lon="12.0476636"><ele>458.20000000000005</ele><time>2026-04-04T13:16:31.31Z</time></trkpt><trkpt lat="43.4880816" lon="12.0477488"><ele>457.6</ele><time>2026-04-04T13:16:32.31Z</time></trkpt><trkpt lat="43.4881242" lon="12.0478885"><ele>457.0</ele><time>2026-04-04T13:16:34.309Z</time></trkpt><trkpt lat="43.4881566" lon="12.0479904"><ele>457.0</ele><time>2026-04-04T13:16:35.31Z</time></trkpt><trkpt lat="43.4881533" lon="12.0481022"><ele>457.00000000000006</ele><time>2026-04-04T13:16:36.31Z</time></trkpt><trkpt lat="43.488186" lon="12.048307"><ele>457.00000000000006</ele><time>2026-04-04T13:16:38.311Z</time></trkpt><trkpt lat="43.4882393" lon="12.0484426"><ele>457.0</ele><time>2026-04-04T13:16:40.31Z</time></trkpt><trkpt lat="43.4882566" lon="12.0485641"><ele>457.0</ele><time>2026-04-04T13:16:43.309Z</time></trkpt><trkpt lat="43.4882512" lon="12.0486609"><ele>458.8</ele><time>2026-04-04T13:16:44.31Z</time></trkpt><trkpt lat="43.4882551" lon="12.0487508"><ele>460.6</ele><time>2026-04-04T13:16:45.31Z</time></trkpt><trkpt lat="43.488257" lon="12.0488422"><ele>462.40000000000003</ele><time>2026-04-04T13:16:46.31Z</time></trkpt><trkpt lat="43.488297" lon="12.048973"><ele>464.20000000000005</ele><time>2026-04-04T13:16:48.31Z</time></trkpt><trkpt lat="43.4883553" lon="12.0490844"><ele>466.0</ele><time>2026-04-04T13:16:50.31Z</time></trkpt><trkpt lat="43.4884528" lon="12.0491945"><ele>466.20000000000005</ele><time>2026-04-04T13:16:52.31Z</time></trkpt><trkpt lat="43.4885475" lon="12.0492007"><ele>466.40000000000003</ele><time>2026-04-04T13:16:54.31Z</time></trkpt><trkpt lat="43.4886112" lon="12.0491861"><ele>466.6</ele><time>2026-04-04T13:16:55.31Z</time></trkpt><trkpt lat="43.4887065" lon="12.0491343"><ele>466.8</ele><time>2026-04-04T13:16:56.31Z</time></trkpt><trkpt lat="43.4888093" lon="12.0490877"><ele>467.0</ele><time>2026-04-04T13:16:57.31Z</time></trkpt><trkpt lat="43.4888764" lon="12.0492261"><ele>469.40000000000003</ele><time>2026-04-04T13:16:59.311Z</time></trkpt><trkpt lat="43.4889087" lon="12.0493788"><ele>471.80000000000007</ele><time>2026-04-04T13:17:01.31Z</time></trkpt><trkpt lat="43.488955" lon="12.0495272"><ele>474.2</ele><time>2026-04-04T13:17:03.31Z</time></trkpt><trkpt lat="43.4889976" lon="12.0496557"><ele>476.6</ele><time>2026-04-04T13:17:04.309Z</time></trkpt><trkpt lat="43.4890708" lon="12.0497583"><ele>479.0</ele><time>2026-04-04T13:17:06.31Z</time></trkpt><trkpt lat="43.4891819" lon="12.0498343"><ele>479.0</ele><time>2026-04-04T13:17:08.31Z</time></trkpt><trkpt lat="43.489238" lon="12.0499003"><ele>479.0</ele><time>2026-04-04T13:17:09.31Z</time></trkpt><trkpt lat="43.4892829" lon="12.0499634"><ele>479.0</ele><time>2026-04-04T13:17:10.31Z</time></trkpt><trkpt lat="43.4893221" lon="12.0500423"><ele>479.0</ele><time>2026-04-04T13:17:11.31Z</time></trkpt><trkpt lat="43.4893534" lon="12.0501212"><ele>479.0</ele><time>2026-04-04T13:17:12.31Z</time></trkpt><trkpt lat="43.4893943" lon="12.0502061"><ele>479.0</ele><time>2026-04-04T13:17:13.31Z</time></trkpt><trkpt lat="43.4894417" lon="12.0502661"><ele>479.0</ele><time>2026-04-04T13:17:14.31Z</time></trkpt><trkpt lat="43.4894844" lon="12.0503337"><ele>479.6</ele><time>2026-04-04T13:17:15.31Z</time></trkpt><trkpt lat="43.4895304" lon="12.0504786"><ele>480.2</ele><time>2026-04-04T13:17:17.31Z</time></trkpt><trkpt lat="43.4895685" lon="12.0505866"><ele>480.80000000000007</ele><time>2026-04-04T13:17:19.31Z</time></trkpt><trkpt lat="43.4896038" lon="12.0506914"><ele>481.40000000000003</ele><time>2026-04-04T13:17:21.31Z</time></trkpt><trkpt lat="43.4896199" lon="12.0508064"><ele>482.0</ele><time>2026-04-04T13:17:23.31Z</time></trkpt><trkpt lat="43.4896294" lon="12.0509531"><ele>482.0</ele><time>2026-04-04T13:17:25.309Z</time></trkpt><trkpt lat="43.4896202" lon="12.0511138"><ele>482.00000000000006</ele><time>2026-04-04T13:17:27.31Z</time></trkpt><trkpt lat="43.4896344" lon="12.0512537"><ele>482.00000000000006</ele><time>2026-04-04T13:17:28.31Z</time></trkpt><trkpt lat="43.4896573" lon="12.0514116"><ele>482.0</ele><time>2026-04-04T13:17:30.31Z</time></trkpt><trkpt lat="43.4896816" lon="12.051515"><ele>482.0</ele><time>2026-04-04T13:17:32.31Z</time></trkpt><trkpt lat="43.4897511" lon="12.0515551"><ele>482.0</ele><time>2026-04-04T13:17:35.309Z</time></trkpt><trkpt lat="43.4898405" lon="12.0515642"><ele>482.00000000000006</ele><time>2026-04-04T13:17:38.31Z</time></trkpt><trkpt lat="43.489927" lon="12.051576"><ele>482.00000000000006</ele><time>2026-04-04T13:17:40.311Z</time></trkpt><trkpt lat="43.4900303" lon="12.0515449"><ele>482.0</ele><time>2026-04-04T13:17:42.31Z</time></trkpt><trkpt lat="43.4901181" lon="12.0515047"><ele>482.0</ele><time>2026-04-04T13:17:43.31Z</time></trkpt><trkpt lat="43.4902262" lon="12.0515002"><ele>481.99999999999994</ele><time>2026-04-04T13:17:44.31Z</time></trkpt><trkpt lat="43.4902908" lon="12.0515191"><ele>482.0</ele><time>2026-04-04T13:17:45.31Z</time></trkpt><trkpt lat="43.4904056" lon="12.0515008"><ele>482.0</ele><time>2026-04-04T13:17:47.31Z</time></trkpt><trkpt lat="43.4904645" lon="12.0515382"><ele>482.0</ele><time>2026-04-04T13:17:49.31Z</time></trkpt><trkpt lat="43.4904662" lon="12.0516258"><ele>481.99999999999994</ele><time>2026-04-04T13:17:50.31Z</time></trkpt><trkpt lat="43.4904978" lon="12.0517053"><ele>482.0</ele><time>2026-04-04T13:17:51.31Z</time></trkpt><trkpt lat="43.490574" lon="12.0518277"><ele>479.8</ele><time>2026-04-04T13:17:53.31Z</time></trkpt><trkpt lat="43.4906228" lon="12.0519511"><ele>477.6</ele><time>2026-04-04T13:17:55.31Z</time></trkpt><trkpt lat="43.4906617" lon="12.0521011"><ele>475.40000000000003</ele><time>2026-04-04T13:17:57.31Z</time></trkpt><trkpt lat="43.4907194" lon="12.0521957"><ele>473.20000000000005</ele><time>2026-04-04T13:17:59.31Z</time></trkpt><trkpt lat="43.4907939" lon="12.0522737"><ele>471.0</ele><time>2026-04-04T13:18:01.31Z</time></trkpt><trkpt lat="43.4908059" lon="12.0523744"><ele>470.3333333333333</ele><time>2026-04-04T13:18:03.311Z</time></trkpt><trkpt lat="43.4908175" lon="12.0524983"><ele>469.66666666666663</ele><time>2026-04-04T13:18:05.31Z</time></trkpt><trkpt lat="43.4908533" lon="12.0526016"><ele>469.0</ele><time>2026-04-04T13:18:07.31Z</time></trkpt><trkpt lat="43.4908881" lon="12.0527104"><ele>468.3333333333333</ele><time>2026-04-04T13:18:09.31Z</time></trkpt><trkpt lat="43.4909623" lon="12.0528025"><ele>467.66666666666663</ele><time>2026-04-04T13:18:12.31Z</time></trkpt><trkpt lat="43.491021" lon="12.0528846"><ele>467.0</ele><time>2026-04-04T13:18:14.31Z</time></trkpt><trkpt lat="43.4910603" lon="12.0529878"><ele>467.0</ele><time>2026-04-04T13:18:16.31Z</time></trkpt><trkpt lat="43.491101" lon="12.05307"><ele>467.00000000000006</ele><time>2026-04-04T13:18:18.31Z</time></trkpt><trkpt lat="43.4911774" lon="12.0531365"><ele>467.00000000000006</ele><time>2026-04-04T13:18:20.31Z</time></trkpt><trkpt lat="43.4912652" lon="12.0532414"><ele>467.0</ele><time>2026-04-04T13:18:22.31Z</time></trkpt><trkpt lat="43.491345" lon="12.0533401"><ele>467.0</ele><time>2026-04-04T13:18:24.31Z</time></trkpt><trkpt lat="43.4914341" lon="12.0534124"><ele>464.20000000000005</ele><time>2026-04-04T13:18:26.31Z</time></trkpt><trkpt lat="43.491509" lon="12.0534707"><ele>461.40000000000003</ele><time>2026-04-04T13:18:28.31Z</time></trkpt><trkpt lat="43.4916105" lon="12.053551"><ele>458.59999999999997</ele><time>2026-04-04T13:18:30.31Z</time></trkpt><trkpt lat="43.4916689" lon="12.0536116"><ele>455.79999999999995</ele><time>2026-04-04T13:18:31.31Z</time></trkpt><trkpt lat="43.4917216" lon="12.0537371"><ele>453.0</ele><time>2026-04-04T13:18:33.31Z</time></trkpt><trkpt lat="43.4917492" lon="12.0538798"><ele>453.0</ele><time>2026-04-04T13:18:35.31Z</time></trkpt><trkpt lat="43.4917713" lon="12.0539647"><ele>452.99999999999994</ele><time>2026-04-04T13:18:36.31Z</time></trkpt><trkpt lat="43.4918433" lon="12.054097"><ele>452.99999999999994</ele><time>2026-04-04T13:18:39.31Z</time></trkpt><trkpt lat="43.4919115" lon="12.0541643"><ele>453.0</ele><time>2026-04-04T13:18:41.31Z</time></trkpt><trkpt lat="43.4919894" lon="12.0542021"><ele>453.0</ele><time>2026-04-04T13:18:43.31Z</time></trkpt><trkpt lat="43.4921007" lon="12.0543166"><ele>448.4</ele><time>2026-04-04T13:18:45.31Z</time></trkpt><trkpt lat="43.4922247" lon="12.0543395"><ele>443.79999999999995</ele><time>2026-04-04T13:18:47.31Z</time></trkpt><trkpt lat="43.4923162" lon="12.0543948"><ele>439.2</ele><time>2026-04-04T13:18:49.31Z</time></trkpt><trkpt lat="43.4924391" lon="12.05448"><ele>434.6</ele><time>2026-04-04T13:18:51.31Z</time></trkpt><trkpt lat="43.4924995" lon="12.054521"><ele>430.0</ele><time>2026-04-04T13:18:52.31Z</time></trkpt><trkpt lat="43.4926145" lon="12.054574"><ele>430.0</ele><time>2026-04-04T13:18:53.31Z</time></trkpt><trkpt lat="43.4926888" lon="12.0546061"><ele>430.0</ele><time>2026-04-04T13:18:54.31Z</time></trkpt><trkpt lat="43.4927498" lon="12.0546523"><ele>430.0</ele><time>2026-04-04T13:18:55.31Z</time></trkpt><trkpt lat="43.4928478" lon="12.0547317"><ele>430.0</ele><time>2026-04-04T13:18:57.31Z</time></trkpt><trkpt lat="43.4929191" lon="12.0548355"><ele>430.0</ele><time>2026-04-04T13:18:59.311Z</time></trkpt><trkpt lat="43.4929969" lon="12.0549583"><ele>430.6</ele><time>2026-04-04T13:19:01.31Z</time></trkpt><trkpt lat="43.4930506" lon="12.0550514"><ele>431.2</ele><time>2026-04-04T13:19:03.31Z</time></trkpt><trkpt lat="43.4930883" lon="12.05515"><ele>431.79999999999995</ele><time>2026-04-04T13:19:05.31Z</time></trkpt><trkpt lat="43.493182" lon="12.0552872"><ele>432.4</ele><time>2026-04-04T13:19:07.31Z</time></trkpt><trkpt lat="43.4932387" lon="12.0553592"><ele>433.0</ele><time>2026-04-04T13:19:08.309Z</time></trkpt><trkpt lat="43.4932914" lon="12.055425"><ele>433.00000000000006</ele><time>2026-04-04T13:19:09.309Z</time></trkpt><trkpt lat="43.4933535" lon="12.0554525"><ele>433.0</ele><time>2026-04-04T13:19:10.31Z</time></trkpt><trkpt lat="43.4934747" lon="12.0555105"><ele>433.0</ele><time>2026-04-04T13:19:12.309Z</time></trkpt><trkpt lat="43.4935365" lon="12.0555712"><ele>433.0</ele><time>2026-04-04T13:19:13.31Z</time></trkpt><trkpt lat="43.4935907" lon="12.0556322"><ele>433.00000000000006</ele><time>2026-04-04T13:19:14.31Z</time></trkpt><trkpt lat="43.4936456" lon="12.0556995"><ele>433.0</ele><time>2026-04-04T13:19:15.31Z</time></trkpt><trkpt lat="43.4936595" lon="12.0558096"><ele>433.1666666666667</ele><time>2026-04-04T13:19:16.31Z</time></trkpt><trkpt lat="43.4937111" lon="12.0559828"><ele>433.33333333333337</ele><time>2026-04-04T13:19:18.31Z</time></trkpt><trkpt lat="43.4937448" lon="12.056084"><ele>433.5</ele><time>2026-04-04T13:19:19.31Z</time></trkpt><trkpt lat="43.4937715" lon="12.0561785"><ele>433.66666666666663</ele><time>2026-04-04T13:19:20.31Z</time></trkpt><trkpt lat="43.4937952" lon="12.0562606"><ele>433.8333333333333</ele><time>2026-04-04T13:19:21.31Z</time></trkpt><trkpt lat="43.4938104" lon="12.0563739"><ele>434.0</ele><time>2026-04-04T13:19:22.31Z</time></trkpt><trkpt lat="43.4938329" lon="12.0564724"><ele>434.0</ele><time>2026-04-04T13:19:23.31Z</time></trkpt><trkpt lat="43.4938698" lon="12.0565783"><ele>434.0</ele><time>2026-04-04T13:19:24.31Z</time></trkpt><trkpt lat="43.4939427" lon="12.0567926"><ele>434.0</ele><time>2026-04-04T13:19:25.31Z</time></trkpt><trkpt lat="43.493959" lon="12.0569722"><ele>434.0</ele><time>2026-04-04T13:19:27.31Z</time></trkpt><trkpt lat="43.4939976" lon="12.0571487"><ele>433.99999999999994</ele><time>2026-04-04T13:19:29.31Z</time></trkpt><trkpt lat="43.4940241" lon="12.0572458"><ele>434.0</ele><time>2026-04-04T13:19:30.309Z</time></trkpt><trkpt lat="43.4940531" lon="12.0573429"><ele>434.0</ele><time>2026-04-04T13:19:31.309Z</time></trkpt><trkpt lat="43.4940849" lon="12.057444"><ele>434.0</ele><time>2026-04-04T13:19:32.31Z</time></trkpt><trkpt lat="43.4941068" lon="12.0575643"><ele>433.99999999999994</ele><time>2026-04-04T13:19:33.31Z</time></trkpt><trkpt lat="43.4941227" lon="12.0576807"><ele>434.0</ele><time>2026-04-04T13:19:34.31Z</time></trkpt><trkpt lat="43.4941439" lon="12.0578006"><ele>434.0</ele><time>2026-04-04T13:19:35.31Z</time></trkpt><trkpt lat="43.4941887" lon="12.0579731"><ele>434.0</ele><time>2026-04-04T13:19:37.31Z</time></trkpt><trkpt lat="43.4942007" lon="12.0580685"><ele>434.0</ele><time>2026-04-04T13:19:38.31Z</time></trkpt><trkpt lat="43.4942507" lon="12.0582048"><ele>434.0</ele><time>2026-04-04T13:19:40.31Z</time></trkpt><trkpt lat="43.4942642" lon="12.0583562"><ele>434.0</ele><time>2026-04-04T13:19:42.31Z</time></trkpt><trkpt lat="43.4942822" lon="12.0585131"><ele>432.66666666666663</ele><time>2026-04-04T13:19:44.31Z</time></trkpt><trkpt lat="43.4943276" lon="12.058602"><ele>431.3333333333333</ele><time>2026-04-04T13:19:46.31Z</time></trkpt><trkpt lat="43.4943702" lon="12.0587409"><ele>430.0</ele><time>2026-04-04T13:19:48.309Z</time></trkpt><trkpt lat="43.4944163" lon="12.0588214"><ele>428.66666666666663</ele><time>2026-04-04T13:19:49.31Z</time></trkpt><trkpt lat="43.494433" lon="12.058912"><ele>427.3333333333333</ele><time>2026-04-04T13:19:50.309Z</time></trkpt><trkpt lat="43.4944542" lon="12.0590722"><ele>426.0</ele><time>2026-04-04T13:19:51.31Z</time></trkpt><trkpt lat="43.4944792" lon="12.0591985"><ele>424.1666666666667</ele><time>2026-04-04T13:19:53.31Z</time></trkpt><trkpt lat="43.494493" lon="12.0593024"><ele>422.33333333333337</ele><time>2026-04-04T13:19:56.31Z</time></trkpt><trkpt lat="43.4945414" lon="12.0593588"><ele>420.5</ele><time>2026-04-04T13:20:11.31Z</time></trkpt><trkpt lat="43.4945976" lon="12.0594267"><ele>418.6666666666667</ele><time>2026-04-04T13:20:13.31Z</time></trkpt><trkpt lat="43.4946865" lon="12.0593888"><ele>416.83333333333337</ele><time>2026-04-04T13:20:15.31Z</time></trkpt><trkpt lat="43.4947805" lon="12.0593437"><ele>415.0</ele><time>2026-04-04T13:20:17.309Z</time></trkpt><trkpt lat="43.494883" lon="12.0593624"><ele>414.00000000000006</ele><time>2026-04-04T13:20:19.31Z</time></trkpt><trkpt lat="43.4949855" lon="12.0594528"><ele>413.0</ele><time>2026-04-04T13:20:21.31Z</time></trkpt><trkpt lat="43.4950377" lon="12.059517"><ele>412.0</ele><time>2026-04-04T13:20:22.311Z</time></trkpt><trkpt lat="43.4950901" lon="12.0595916"><ele>411.0</ele><time>2026-04-04T13:20:23.31Z</time></trkpt><trkpt lat="43.4951454" lon="12.0596563"><ele>410.00000000000006</ele><time>2026-04-04T13:20:24.309Z</time></trkpt><trkpt lat="43.4952068" lon="12.0597084"><ele>409.0</ele><time>2026-04-04T13:20:25.309Z</time></trkpt><trkpt lat="43.4953267" lon="12.0597712"><ele>409.0</ele><time>2026-04-04T13:20:27.31Z</time></trkpt><trkpt lat="43.4953898" lon="12.0597979"><ele>409.0</ele><time>2026-04-04T13:20:28.31Z</time></trkpt><trkpt lat="43.4955198" lon="12.0598165"><ele>409.0</ele><time>2026-04-04T13:20:30.31Z</time></trkpt><trkpt lat="43.4956383" lon="12.0598011"><ele>409.0</ele><time>2026-04-04T13:20:32.309Z</time></trkpt><trkpt lat="43.4957649" lon="12.0597787"><ele>409.0</ele><time>2026-04-04T13:20:34.31Z</time></trkpt><trkpt lat="43.4958824" lon="12.0598045"><ele>407.79999999999995</ele><time>2026-04-04T13:20:36.31Z</time></trkpt><trkpt lat="43.4959457" lon="12.0598422"><ele>406.59999999999997</ele><time>2026-04-04T13:20:37.31Z</time></trkpt><trkpt lat="43.4960364" lon="12.0599404"><ele>405.4</ele><time>2026-04-04T13:20:39.31Z</time></trkpt><trkpt lat="43.4960809" lon="12.0600624"><ele>404.2</ele><time>2026-04-04T13:20:41.309Z</time></trkpt><trkpt lat="43.4961357" lon="12.0601135"><ele>403.0</ele><time>2026-04-04T13:20:42.31Z</time></trkpt><trkpt lat="43.4962145" lon="12.0602265"><ele>400.75</ele><time>2026-04-04T13:20:43.31Z</time></trkpt><trkpt lat="43.4962658" lon="12.0602842"><ele>398.5</ele><time>2026-04-04T13:20:44.31Z</time></trkpt><trkpt lat="43.4964216" lon="12.0603221"><ele>396.25</ele><time>2026-04-04T13:20:46.31Z</time></trkpt><trkpt lat="43.4965885" lon="12.0603795"><ele>394.0</ele><time>2026-04-04T13:20:48.31Z</time></trkpt><trkpt lat="43.4966615" lon="12.0604299"><ele>394.00000000000006</ele><time>2026-04-04T13:20:49.309Z</time></trkpt><trkpt lat="43.4967355" lon="12.0604697"><ele>394.0</ele><time>2026-04-04T13:20:50.31Z</time></trkpt><trkpt lat="43.4967952" lon="12.0605094"><ele>394.0</ele><time>2026-04-04T13:20:51.31Z</time></trkpt><trkpt lat="43.4968496" lon="12.0605793"><ele>394.0</ele><time>2026-04-04T13:20:52.31Z</time></trkpt><trkpt lat="43.4969392" lon="12.060657"><ele>394.00000000000006</ele><time>2026-04-04T13:20:54.31Z</time></trkpt><trkpt lat="43.4970053" lon="12.0606825"><ele>394.0</ele><time>2026-04-04T13:20:57.31Z</time></trkpt><trkpt lat="43.4970849" lon="12.0607276"><ele>393.6666666666667</ele><time>2026-04-04T13:21:00.31Z</time></trkpt><trkpt lat="43.4971593" lon="12.0607658"><ele>393.33333333333337</ele><time>2026-04-04T13:21:02.31Z</time></trkpt><trkpt lat="43.4972656" lon="12.0608125"><ele>393.0</ele><time>2026-04-04T13:21:04.31Z</time></trkpt><trkpt lat="43.4973746" lon="12.0608554"><ele>392.66666666666663</ele><time>2026-04-04T13:21:06.31Z</time></trkpt><trkpt lat="43.4974427" lon="12.0608884"><ele>392.3333333333333</ele><time>2026-04-04T13:21:07.31Z</time></trkpt><trkpt lat="43.4975024" lon="12.0609315"><ele>392.0</ele><time>2026-04-04T13:21:08.31Z</time></trkpt><trkpt lat="43.4975719" lon="12.0610293"><ele>393.0</ele><time>2026-04-04T13:21:10.31Z</time></trkpt><trkpt lat="43.4976541" lon="12.0611294"><ele>394.0</ele><time>2026-04-04T13:21:12.31Z</time></trkpt><trkpt lat="43.4977117" lon="12.0611692"><ele>395.0</ele><time>2026-04-04T13:21:13.31Z</time></trkpt><trkpt lat="43.4977758" lon="12.0611974"><ele>396.0</ele><time>2026-04-04T13:21:14.31Z</time></trkpt><trkpt lat="43.4978407" lon="12.0612362"><ele>397.0</ele><time>2026-04-04T13:21:15.309Z</time></trkpt><trkpt lat="43.4978967" lon="12.0612814"><ele>398.0</ele><time>2026-04-04T13:21:16.31Z</time></trkpt><trkpt lat="43.4979593" lon="12.0613232"><ele>399.0</ele><time>2026-04-04T13:21:17.31Z</time></trkpt><trkpt lat="43.4980298" lon="12.061369"><ele>399.0</ele><time>2026-04-04T13:21:18.309Z</time></trkpt><trkpt lat="43.4980932" lon="12.0614088"><ele>399.0</ele><time>2026-04-04T13:21:19.31Z</time></trkpt><trkpt lat="43.4981698" lon="12.0614711"><ele>399.0</ele><time>2026-04-04T13:21:20.309Z</time></trkpt><trkpt lat="43.4982409" lon="12.0615432"><ele>399.0</ele><time>2026-04-04T13:21:21.309Z</time></trkpt><trkpt lat="43.4983162" lon="12.06163"><ele>399.0</ele><time>2026-04-04T13:21:22.31Z</time></trkpt><trkpt lat="43.498395" lon="12.0617249"><ele>399.2</ele><time>2026-04-04T13:21:23.31Z</time></trkpt><trkpt lat="43.4984706" lon="12.0618343"><ele>399.4</ele><time>2026-04-04T13:21:24.31Z</time></trkpt><trkpt lat="43.4985461" lon="12.0619503"><ele>399.6</ele><time>2026-04-04T13:21:25.31Z</time></trkpt><trkpt lat="43.4986112" lon="12.0620702"><ele>399.8</ele><time>2026-04-04T13:21:26.31Z</time></trkpt><trkpt lat="43.4986712" lon="12.0621861"><ele>400.0</ele><time>2026-04-04T13:21:27.31Z</time></trkpt><trkpt lat="43.4987324" lon="12.0623017"><ele>398.2</ele><time>2026-04-04T13:21:28.31Z</time></trkpt><trkpt lat="43.498796" lon="12.0624056"><ele>396.4</ele><time>2026-04-04T13:21:29.309Z</time></trkpt><trkpt lat="43.4988613" lon="12.0625006"><ele>394.6</ele><time>2026-04-04T13:21:30.31Z</time></trkpt><trkpt lat="43.4989282" lon="12.0625887"><ele>392.8</ele><time>2026-04-04T13:21:31.31Z</time></trkpt><trkpt lat="43.4989931" lon="12.0626736"><ele>391.0</ele><time>2026-04-04T13:21:32.31Z</time></trkpt><trkpt lat="43.4990557" lon="12.0627603"><ele>390.83333333333337</ele><time>2026-04-04T13:21:33.31Z</time></trkpt><trkpt lat="43.4991165" lon="12.0628516"><ele>390.6666666666667</ele><time>2026-04-04T13:21:34.31Z</time></trkpt><trkpt lat="43.4991688" lon="12.0629433"><ele>390.5</ele><time>2026-04-04T13:21:35.31Z</time></trkpt><trkpt lat="43.4992108" lon="12.0630309"><ele>390.33333333333337</ele><time>2026-04-04T13:21:36.31Z</time></trkpt><trkpt lat="43.4992463" lon="12.0631098"><ele>390.1666666666667</ele><time>2026-04-04T13:21:37.309Z</time></trkpt><trkpt lat="43.4993331" lon="12.0631962"><ele>390.0</ele><time>2026-04-04T13:21:39.31Z</time></trkpt><trkpt lat="43.4994498" lon="12.0632019"><ele>390.0</ele><time>2026-04-04T13:21:41.309Z</time></trkpt><trkpt lat="43.4995171" lon="12.0631912"><ele>390.0</ele><time>2026-04-04T13:21:42.309Z</time></trkpt><trkpt lat="43.4995826" lon="12.0631861"><ele>390.0</ele><time>2026-04-04T13:21:43.31Z</time></trkpt><trkpt lat="43.4996619" lon="12.0632571"><ele>390.0</ele><time>2026-04-04T13:21:44.31Z</time></trkpt><trkpt lat="43.4997047" lon="12.063338"><ele>390.0</ele><time>2026-04-04T13:21:45.31Z</time></trkpt><trkpt lat="43.4997653" lon="12.0634273"><ele>390.0</ele><time>2026-04-04T13:21:46.31Z</time></trkpt><trkpt lat="43.4998226" lon="12.0635195"><ele>386.8333333333333</ele><time>2026-04-04T13:21:47.31Z</time></trkpt><trkpt lat="43.4998858" lon="12.063611"><ele>383.6666666666667</ele><time>2026-04-04T13:21:48.31Z</time></trkpt><trkpt lat="43.4999452" lon="12.0636948"><ele>380.5</ele><time>2026-04-04T13:21:49.31Z</time></trkpt><trkpt lat="43.500004" lon="12.0637784"><ele>377.33333333333337</ele><time>2026-04-04T13:21:50.31Z</time></trkpt><trkpt lat="43.5000579" lon="12.0638555"><ele>374.1666666666667</ele><time>2026-04-04T13:21:51.31Z</time></trkpt><trkpt lat="43.5001055" lon="12.0639349"><ele>371.0</ele><time>2026-04-04T13:21:52.31Z</time></trkpt><trkpt lat="43.5001485" lon="12.0640151"><ele>371.0</ele><time>2026-04-04T13:21:53.31Z</time></trkpt><trkpt lat="43.5001823" lon="12.064102"><ele>371.0</ele><time>2026-04-04T13:21:54.309Z</time></trkpt><trkpt lat="43.5002132" lon="12.0641938"><ele>371.0</ele><time>2026-04-04T13:21:55.31Z</time></trkpt><trkpt lat="43.5002387" lon="12.064294"><ele>371.0</ele><time>2026-04-04T13:21:56.31Z</time></trkpt><trkpt lat="43.5002677" lon="12.0644032"><ele>371.0</ele><time>2026-04-04T13:21:57.311Z</time></trkpt><trkpt lat="43.5002911" lon="12.0645258"><ele>371.0</ele><time>2026-04-04T13:21:58.31Z</time></trkpt><trkpt lat="43.5002992" lon="12.0646527"><ele>371.0</ele><time>2026-04-04T13:21:59.31Z</time></trkpt><trkpt lat="43.5002995" lon="12.0647852"><ele>371.0</ele><time>2026-04-04T13:22:00.31Z</time></trkpt><trkpt lat="43.500295" lon="12.064913"><ele>371.0</ele><time>2026-04-04T13:22:01.311Z</time></trkpt><trkpt lat="43.5002889" lon="12.0650294"><ele>371.0</ele><time>2026-04-04T13:22:02.31Z</time></trkpt><trkpt lat="43.5002819" lon="12.065138"><ele>371.0</ele><time>2026-04-04T13:22:03.31Z</time></trkpt><trkpt lat="43.5002739" lon="12.0652404"><ele>371.0</ele><time>2026-04-04T13:22:04.311Z</time></trkpt><trkpt lat="43.5002674" lon="12.0653375"><ele>371.0</ele><time>2026-04-04T13:22:05.31Z</time></trkpt><trkpt lat="43.50026" lon="12.0654278"><ele>371.0</ele><time>2026-04-04T13:22:06.31Z</time></trkpt><trkpt lat="43.5002589" lon="12.0655794"><ele>371.0</ele><time>2026-04-04T13:22:08.31Z</time></trkpt><trkpt lat="43.5002965" lon="12.0657277"><ele>371.0</ele><time>2026-04-04T13:22:10.31Z</time></trkpt><trkpt lat="43.5003221" lon="12.0658086"><ele>371.0</ele><time>2026-04-04T13:22:11.31Z</time></trkpt><trkpt lat="43.5003504" lon="12.0658969"><ele>371.0</ele><time>2026-04-04T13:22:12.31Z</time></trkpt><trkpt lat="43.5003769" lon="12.0659797"><ele>370.2857142857143</ele><time>2026-04-04T13:22:13.311Z</time></trkpt><trkpt lat="43.5003995" lon="12.0660739"><ele>369.57142857142856</ele><time>2026-04-04T13:22:14.31Z</time></trkpt><trkpt lat="43.5004248" lon="12.0661712"><ele>368.8571428571429</ele><time>2026-04-04T13:22:15.31Z</time></trkpt><trkpt lat="43.5004452" lon="12.0662625"><ele>368.1428571428571</ele><time>2026-04-04T13:22:16.31Z</time></trkpt><trkpt lat="43.5004602" lon="12.0663601"><ele>367.42857142857144</ele><time>2026-04-04T13:22:17.31Z</time></trkpt><trkpt lat="43.5004707" lon="12.0664525"><ele>366.7142857142857</ele><time>2026-04-04T13:22:18.31Z</time></trkpt><trkpt lat="43.5004821" lon="12.0665492"><ele>366.0</ele><time>2026-04-04T13:22:19.31Z</time></trkpt><trkpt lat="43.5004983" lon="12.0666506"><ele>365.0</ele><time>2026-04-04T13:22:20.31Z</time></trkpt><trkpt lat="43.5005151" lon="12.0667532"><ele>364.0</ele><time>2026-04-04T13:22:21.31Z</time></trkpt><trkpt lat="43.5005347" lon="12.0668581"><ele>363.0</ele><time>2026-04-04T13:22:22.31Z</time></trkpt><trkpt lat="43.5005571" lon="12.0669727"><ele>362.0</ele><time>2026-04-04T13:22:23.31Z</time></trkpt><trkpt lat="43.5005752" lon="12.0670944"><ele>361.0</ele><time>2026-04-04T13:22:24.311Z</time></trkpt><trkpt lat="43.500588" lon="12.0672276"><ele>360.0</ele><time>2026-04-04T13:22:25.309Z</time></trkpt><trkpt lat="43.5006003" lon="12.0673609"><ele>359.8</ele><time>2026-04-04T13:22:26.31Z</time></trkpt><trkpt lat="43.5006123" lon="12.0674917"><ele>359.6</ele><time>2026-04-04T13:22:27.309Z</time></trkpt><trkpt lat="43.5006216" lon="12.067618"><ele>359.4</ele><time>2026-04-04T13:22:28.31Z</time></trkpt><trkpt lat="43.5006386" lon="12.067744"><ele>359.2</ele><time>2026-04-04T13:22:29.31Z</time></trkpt><trkpt lat="43.5006632" lon="12.0678657"><ele>359.0</ele><time>2026-04-04T13:22:30.31Z</time></trkpt><trkpt lat="43.5006946" lon="12.0679819"><ele>359.0</ele><time>2026-04-04T13:22:31.309Z</time></trkpt><trkpt lat="43.5007344" lon="12.0680832"><ele>359.0</ele><time>2026-04-04T13:22:32.31Z</time></trkpt><trkpt lat="43.5007816" lon="12.0681863"><ele>359.0</ele><time>2026-04-04T13:22:33.309Z</time></trkpt><trkpt lat="43.5008355" lon="12.0682858"><ele>359.0</ele><time>2026-04-04T13:22:34.31Z</time></trkpt><trkpt lat="43.5008933" lon="12.0683847"><ele>359.0</ele><time>2026-04-04T13:22:35.31Z</time></trkpt><trkpt lat="43.5009525" lon="12.0684793"><ele>359.0</ele><time>2026-04-04T13:22:36.31Z</time></trkpt><trkpt lat="43.5010238" lon="12.0685603"><ele>358.79999999999995</ele><time>2026-04-04T13:22:37.31Z</time></trkpt><trkpt lat="43.5010953" lon="12.0686472"><ele>358.59999999999997</ele><time>2026-04-04T13:22:38.311Z</time></trkpt><trkpt lat="43.5011705" lon="12.0687239"><ele>358.4</ele><time>2026-04-04T13:22:39.31Z</time></trkpt><trkpt lat="43.5012498" lon="12.0687968"><ele>358.2</ele><time>2026-04-04T13:22:40.31Z</time></trkpt><trkpt lat="43.5013324" lon="12.0688642"><ele>358.0</ele><time>2026-04-04T13:22:41.31Z</time></trkpt><trkpt lat="43.501407" lon="12.0689398"><ele>356.4</ele><time>2026-04-04T13:22:42.31Z</time></trkpt><trkpt lat="43.5014682" lon="12.0690167"><ele>354.79999999999995</ele><time>2026-04-04T13:22:43.31Z</time></trkpt><trkpt lat="43.5015126" lon="12.0690818"><ele>353.2</ele><time>2026-04-04T13:22:44.31Z</time></trkpt><trkpt lat="43.5015837" lon="12.069178"><ele>351.6</ele><time>2026-04-04T13:22:46.31Z</time></trkpt><trkpt lat="43.5016698" lon="12.0692815"><ele>350.0</ele><time>2026-04-04T13:22:48.31Z</time></trkpt><trkpt lat="43.5017567" lon="12.0693762"><ele>350.0</ele><time>2026-04-04T13:22:50.31Z</time></trkpt><trkpt lat="43.5018144" lon="12.0694592"><ele>350.0</ele><time>2026-04-04T13:22:52.31Z</time></trkpt><trkpt lat="43.5018755" lon="12.0695301"><ele>350.0</ele><time>2026-04-04T13:22:54.31Z</time></trkpt><trkpt lat="43.5019614" lon="12.0696337"><ele>350.0</ele><time>2026-04-04T13:22:56.31Z</time></trkpt><trkpt lat="43.5020066" lon="12.0697054"><ele>350.0</ele><time>2026-04-04T13:22:57.309Z</time></trkpt><trkpt lat="43.5020482" lon="12.0697775"><ele>350.0</ele><time>2026-04-04T13:22:58.31Z</time></trkpt><trkpt lat="43.5021327" lon="12.0698685"><ele>349.8</ele><time>2026-04-04T13:23:00.309Z</time></trkpt><trkpt lat="43.5021696" lon="12.0699581"><ele>349.6</ele><time>2026-04-04T13:23:02.31Z</time></trkpt><trkpt lat="43.502128" lon="12.0700573"><ele>349.4</ele><time>2026-04-04T13:23:04.31Z</time></trkpt><trkpt lat="43.5020405" lon="12.0701539"><ele>349.2</ele><time>2026-04-04T13:23:06.31Z</time></trkpt><trkpt lat="43.5019258" lon="12.0702462"><ele>349.0</ele><time>2026-04-04T13:23:08.309Z</time></trkpt><trkpt lat="43.5018605" lon="12.0703073"><ele>349.66666666666663</ele><time>2026-04-04T13:23:09.31Z</time></trkpt><trkpt lat="43.5017971" lon="12.0703735"><ele>350.3333333333333</ele><time>2026-04-04T13:23:10.31Z</time></trkpt><trkpt lat="43.5017414" lon="12.0704411"><ele>351.0</ele><time>2026-04-04T13:23:11.309Z</time></trkpt><trkpt lat="43.5016851" lon="12.0705089"><ele>351.6666666666667</ele><time>2026-04-04T13:23:12.31Z</time></trkpt><trkpt lat="43.5016337" lon="12.0705845"><ele>352.33333333333337</ele><time>2026-04-04T13:23:13.31Z</time></trkpt><trkpt lat="43.5015896" lon="12.0706641"><ele>353.0</ele><time>2026-04-04T13:23:14.31Z</time></trkpt><trkpt lat="43.5015562" lon="12.0707639"><ele>352.33333333333337</ele><time>2026-04-04T13:23:15.31Z</time></trkpt><trkpt lat="43.5015362" lon="12.0708734"><ele>351.6666666666667</ele><time>2026-04-04T13:23:16.31Z</time></trkpt><trkpt lat="43.5015201" lon="12.0709826"><ele>351.0</ele><time>2026-04-04T13:23:17.31Z</time></trkpt><trkpt lat="43.5015096" lon="12.0710866"><ele>350.3333333333333</ele><time>2026-04-04T13:23:18.31Z</time></trkpt><trkpt lat="43.5015026" lon="12.0711893"><ele>349.66666666666663</ele><time>2026-04-04T13:23:19.31Z</time></trkpt><trkpt lat="43.5014918" lon="12.0712937"><ele>349.0</ele><time>2026-04-04T13:23:20.31Z</time></trkpt><trkpt lat="43.5014756" lon="12.0713878"><ele>349.0</ele><time>2026-04-04T13:23:21.309Z</time></trkpt><trkpt lat="43.5014516" lon="12.0714846"><ele>349.0</ele><time>2026-04-04T13:23:22.31Z</time></trkpt><trkpt lat="43.5014264" lon="12.0715752"><ele>349.0</ele><time>2026-04-04T13:23:23.31Z</time></trkpt><trkpt lat="43.5013991" lon="12.0716556"><ele>349.0</ele><time>2026-04-04T13:23:24.31Z</time></trkpt><trkpt lat="43.5013583" lon="12.0717971"><ele>349.0</ele><time>2026-04-04T13:23:26.31Z</time></trkpt><trkpt lat="43.5013678" lon="12.0719284"><ele>349.0</ele><time>2026-04-04T13:23:28.309Z</time></trkpt><trkpt lat="43.5013706" lon="12.0720801"><ele>347.8333333333333</ele><time>2026-04-04T13:23:30.31Z</time></trkpt><trkpt lat="43.5013317" lon="12.0722303"><ele>346.66666666666663</ele><time>2026-04-04T13:23:32.31Z</time></trkpt><trkpt lat="43.5013095" lon="12.0723124"><ele>345.5</ele><time>2026-04-04T13:23:33.309Z</time></trkpt><trkpt lat="43.5012817" lon="12.0723927"><ele>344.3333333333333</ele><time>2026-04-04T13:23:34.309Z</time></trkpt><trkpt lat="43.5012565" lon="12.0724858"><ele>343.1666666666667</ele><time>2026-04-04T13:23:35.31Z</time></trkpt><trkpt lat="43.5012332" lon="12.07258"><ele>342.0</ele><time>2026-04-04T13:23:36.31Z</time></trkpt><trkpt lat="43.5012141" lon="12.0726718"><ele>341.3333333333333</ele><time>2026-04-04T13:23:37.31Z</time></trkpt><trkpt lat="43.501195" lon="12.0727658"><ele>340.6666666666667</ele><time>2026-04-04T13:23:38.31Z</time></trkpt><trkpt lat="43.5011741" lon="12.0728678"><ele>340.0</ele><time>2026-04-04T13:23:39.31Z</time></trkpt><trkpt lat="43.5011561" lon="12.0729722"><ele>339.33333333333337</ele><time>2026-04-04T13:23:40.31Z</time></trkpt><trkpt lat="43.501139" lon="12.0730706"><ele>338.6666666666667</ele><time>2026-04-04T13:23:41.31Z</time></trkpt><trkpt lat="43.5011208" lon="12.0731717"><ele>338.0</ele><time>2026-04-04T13:23:42.31Z</time></trkpt><trkpt lat="43.5010991" lon="12.0732752"><ele>338.0</ele><time>2026-04-04T13:23:43.31Z</time></trkpt><trkpt lat="43.5010719" lon="12.0733868"><ele>338.0</ele><time>2026-04-04T13:23:44.31Z</time></trkpt><trkpt lat="43.5010488" lon="12.0735034"><ele>338.0</ele><time>2026-04-04T13:23:45.309Z</time></trkpt><trkpt lat="43.5010274" lon="12.0736205"><ele>338.0</ele><time>2026-04-04T13:23:46.31Z</time></trkpt><trkpt lat="43.5010094" lon="12.0737393"><ele>338.0</ele><time>2026-04-04T13:23:47.309Z</time></trkpt><trkpt lat="43.500987" lon="12.0738599"><ele>338.0</ele><time>2026-04-04T13:23:48.31Z</time></trkpt><trkpt lat="43.5009634" lon="12.0739799"><ele>338.0</ele><time>2026-04-04T13:23:49.311Z</time></trkpt><trkpt lat="43.5009384" lon="12.074098"><ele>338.0</ele><time>2026-04-04T13:23:50.309Z</time></trkpt><trkpt lat="43.5009218" lon="12.0742135"><ele>338.0</ele><time>2026-04-04T13:23:51.31Z</time></trkpt><trkpt lat="43.5009096" lon="12.074332"><ele>338.0</ele><time>2026-04-04T13:23:52.31Z</time></trkpt><trkpt lat="43.5009007" lon="12.0744472"><ele>338.0</ele><time>2026-04-04T13:23:53.31Z</time></trkpt><trkpt lat="43.500905" lon="12.0745527"><ele>338.0</ele><time>2026-04-04T13:23:54.31Z</time></trkpt><trkpt lat="43.5009151" lon="12.0746848"><ele>337.33333333333337</ele><time>2026-04-04T13:23:55.31Z</time></trkpt><trkpt lat="43.5009166" lon="12.0748096"><ele>336.6666666666667</ele><time>2026-04-04T13:23:56.309Z</time></trkpt><trkpt lat="43.5009225" lon="12.0749307"><ele>336.0</ele><time>2026-04-04T13:23:57.31Z</time></trkpt><trkpt lat="43.5009265" lon="12.0750491"><ele>335.3333333333333</ele><time>2026-04-04T13:23:58.31Z</time></trkpt><trkpt lat="43.5009386" lon="12.0751599"><ele>334.66666666666663</ele><time>2026-04-04T13:23:59.31Z</time></trkpt><trkpt lat="43.50095" lon="12.075271"><ele>334.0</ele><time>2026-04-04T13:24:00.31Z</time></trkpt><trkpt lat="43.5009638" lon="12.0753831"><ele>333.4</ele><time>2026-04-04T13:24:01.311Z</time></trkpt><trkpt lat="43.5010113" lon="12.0755868"><ele>332.79999999999995</ele><time>2026-04-04T13:24:03.31Z</time></trkpt><trkpt lat="43.5010275" lon="12.0756961"><ele>332.20000000000005</ele><time>2026-04-04T13:24:04.31Z</time></trkpt><trkpt lat="43.5010288" lon="12.0757981"><ele>331.6</ele><time>2026-04-04T13:24:05.31Z</time></trkpt><trkpt lat="43.5010068" lon="12.0759107"><ele>331.0</ele><time>2026-04-04T13:24:06.31Z</time></trkpt><trkpt lat="43.5009753" lon="12.0760142"><ele>330.0</ele><time>2026-04-04T13:24:07.31Z</time></trkpt><trkpt lat="43.5009355" lon="12.0761217"><ele>329.0</ele><time>2026-04-04T13:24:08.309Z</time></trkpt><trkpt lat="43.5008998" lon="12.07624"><ele>328.0</ele><time>2026-04-04T13:24:09.309Z</time></trkpt><trkpt lat="43.5008577" lon="12.0763539"><ele>327.0</ele><time>2026-04-04T13:24:10.311Z</time></trkpt><trkpt lat="43.5008185" lon="12.076472"><ele>326.0</ele><time>2026-04-04T13:24:11.31Z</time></trkpt><trkpt lat="43.5007852" lon="12.076579"><ele>324.0</ele><time>2026-04-04T13:24:12.31Z</time></trkpt><trkpt lat="43.5007417" lon="12.0766936"><ele>322.0</ele><time>2026-04-04T13:24:13.31Z</time></trkpt><trkpt lat="43.5007008" lon="12.0768086"><ele>320.0</ele><time>2026-04-04T13:24:14.31Z</time></trkpt><trkpt lat="43.5006632" lon="12.0769183"><ele>318.0</ele><time>2026-04-04T13:24:15.31Z</time></trkpt><trkpt lat="43.5006241" lon="12.0770399"><ele>316.0</ele><time>2026-04-04T13:24:16.31Z</time></trkpt><trkpt lat="43.5005838" lon="12.077165"><ele>316.0</ele><time>2026-04-04T13:24:17.31Z</time></trkpt><trkpt lat="43.5005443" lon="12.0772937"><ele>316.0</ele><time>2026-04-04T13:24:18.31Z</time></trkpt><trkpt lat="43.5004978" lon="12.0774223"><ele>316.0</ele><time>2026-04-04T13:24:19.31Z</time></trkpt><trkpt lat="43.5004489" lon="12.0775539"><ele>316.0</ele><time>2026-04-04T13:24:20.31Z</time></trkpt><trkpt lat="43.5003957" lon="12.0776878"><ele>316.0</ele><time>2026-04-04T13:24:21.31Z</time></trkpt><trkpt lat="43.5003514" lon="12.0777874"><ele>315.6</ele><time>2026-04-04T13:24:22.31Z</time></trkpt><trkpt lat="43.5002923" lon="12.0779236"><ele>315.20000000000005</ele><time>2026-04-04T13:24:24.31Z</time></trkpt><trkpt lat="43.5002382" lon="12.0780418"><ele>314.79999999999995</ele><time>2026-04-04T13:24:26.31Z</time></trkpt><trkpt lat="43.5001898" lon="12.0781536"><ele>314.4</ele><time>2026-04-04T13:24:28.309Z</time></trkpt><trkpt lat="43.5001589" lon="12.0782786"><ele>314.0</ele><time>2026-04-04T13:24:30.31Z</time></trkpt><trkpt lat="43.5001906" lon="12.0784136"><ele>314.0</ele><time>2026-04-04T13:24:32.31Z</time></trkpt><trkpt lat="43.5002526" lon="12.0785747"><ele>314.0</ele><time>2026-04-04T13:24:34.31Z</time></trkpt><trkpt lat="43.5002769" lon="12.0786791"><ele>314.0</ele><time>2026-04-04T13:24:35.31Z</time></trkpt><trkpt lat="43.500302" lon="12.0787939"><ele>314.0</ele><time>2026-04-04T13:24:36.31Z</time></trkpt><trkpt lat="43.5003286" lon="12.0789121"><ele>314.0</ele><time>2026-04-04T13:24:37.31Z</time></trkpt><trkpt lat="43.5003583" lon="12.079023"><ele>314.0</ele><time>2026-04-04T13:24:38.31Z</time></trkpt><trkpt lat="43.500411" lon="12.0791228"><ele>314.0</ele><time>2026-04-04T13:24:39.31Z</time></trkpt><trkpt lat="43.5004806" lon="12.0792073"><ele>314.0</ele><time>2026-04-04T13:24:40.31Z</time></trkpt><trkpt lat="43.5005587" lon="12.0792783"><ele>314.0</ele><time>2026-04-04T13:24:41.31Z</time></trkpt><trkpt lat="43.500634" lon="12.0793635"><ele>314.0</ele><time>2026-04-04T13:24:42.31Z</time></trkpt><trkpt lat="43.5007006" lon="12.0794635"><ele>313.59999999999997</ele><time>2026-04-04T13:24:43.31Z</time></trkpt><trkpt lat="43.5007622" lon="12.0795751"><ele>313.2</ele><time>2026-04-04T13:24:44.31Z</time></trkpt><trkpt lat="43.5008231" lon="12.0796902"><ele>312.79999999999995</ele><time>2026-04-04T13:24:45.31Z</time></trkpt><trkpt lat="43.5008834" lon="12.0797978"><ele>312.4</ele><time>2026-04-04T13:24:46.309Z</time></trkpt><trkpt lat="43.5009451" lon="12.0799022"><ele>312.0</ele><time>2026-04-04T13:24:47.31Z</time></trkpt><trkpt lat="43.5010097" lon="12.0800033"><ele>312.0</ele><time>2026-04-04T13:24:48.31Z</time></trkpt><trkpt lat="43.5010714" lon="12.0801041"><ele>312.0</ele><time>2026-04-04T13:24:49.311Z</time></trkpt><trkpt lat="43.5011368" lon="12.0801961"><ele>312.0</ele><time>2026-04-04T13:24:50.31Z</time></trkpt><trkpt lat="43.5011987" lon="12.0802825"><ele>312.0</ele><time>2026-04-04T13:24:51.31Z</time></trkpt><trkpt lat="43.5012536" lon="12.0803668"><ele>312.0</ele><time>2026-04-04T13:24:52.31Z</time></trkpt><trkpt lat="43.5012966" lon="12.0804475"><ele>312.0</ele><time>2026-04-04T13:24:53.31Z</time></trkpt><trkpt lat="43.5013409" lon="12.0805263"><ele>311.6666666666667</ele><time>2026-04-04T13:24:54.31Z</time></trkpt><trkpt lat="43.501384" lon="12.0806145"><ele>311.3333333333333</ele><time>2026-04-04T13:24:55.309Z</time></trkpt><trkpt lat="43.5014049" lon="12.0807132"><ele>311.0</ele><time>2026-04-04T13:24:56.311Z</time></trkpt><trkpt lat="43.5014116" lon="12.0808314"><ele>310.66666666666663</ele><time>2026-04-04T13:24:57.309Z</time></trkpt><trkpt lat="43.5014191" lon="12.0809551"><ele>310.3333333333333</ele><time>2026-04-04T13:24:58.31Z</time></trkpt><trkpt lat="43.5014383" lon="12.0810862"><ele>310.0</ele><time>2026-04-04T13:24:59.309Z</time></trkpt><trkpt lat="43.50146" lon="12.0812173"><ele>310.0</ele><time>2026-04-04T13:25:00.309Z</time></trkpt><trkpt lat="43.5014776" lon="12.0813499"><ele>310.0</ele><time>2026-04-04T13:25:01.31Z</time></trkpt><trkpt lat="43.5014936" lon="12.0814723"><ele>310.0</ele><time>2026-04-04T13:25:02.31Z</time></trkpt><trkpt lat="43.5015083" lon="12.0815892"><ele>310.0</ele><time>2026-04-04T13:25:03.31Z</time></trkpt><trkpt lat="43.5015241" lon="12.0816914"><ele>310.0</ele><time>2026-04-04T13:25:04.31Z</time></trkpt><trkpt lat="43.5015471" lon="12.0818434"><ele>310.14285714285717</ele><time>2026-04-04T13:25:06.31Z</time></trkpt><trkpt lat="43.5015525" lon="12.0819391"><ele>310.2857142857143</ele><time>2026-04-04T13:25:08.309Z</time></trkpt><trkpt lat="43.5015617" lon="12.0820372"><ele>310.42857142857144</ele><time>2026-04-04T13:25:11.31Z</time></trkpt><trkpt lat="43.501585" lon="12.0821243"><ele>310.57142857142856</ele><time>2026-04-04T13:25:14.31Z</time></trkpt><trkpt lat="43.5016365" lon="12.082203"><ele>310.7142857142857</ele><time>2026-04-04T13:25:17.31Z</time></trkpt><trkpt lat="43.5017321" lon="12.0821945"><ele>310.85714285714283</ele><time>2026-04-04T13:25:20.31Z</time></trkpt><trkpt lat="43.5017954" lon="12.0821707"><ele>311.0</ele><time>2026-04-04T13:25:22.31Z</time></trkpt><trkpt lat="43.5018749" lon="12.0821192"><ele>311.0</ele><time>2026-04-04T13:25:25.311Z</time></trkpt><trkpt lat="43.5019292" lon="12.0821675"><ele>311.0</ele><time>2026-04-04T13:25:28.311Z</time></trkpt><trkpt lat="43.501903" lon="12.0822487"><ele>311.0</ele><time>2026-04-04T13:25:35.309Z</time></trkpt></trkseg></trk></gpx>